<?xml version="1.0" encoding="UTF-8" standalone="no" ?>
<gpx xmlns="http://www.topografix.com/GPX/1/1" xmlns:xsi="http://www.w3.org/2001/XMLSchema-instance" xsi:schemaLocation="http://www.topografix.com/GPX/1/1 http://www.topografix.com/GPX/1/1/gpx.xsd" version="1.1" creator="VisuGPX - https://www.visugpx.com">
  <metadata>
    <name>Baltic States</name>
  </metadata>
  <trk>
    <name><![CDATA[1_Tallinn à Riga: 861km]]></name>
    <trkseg>
      <trkpt lat="59.4371" lon="24.7453">
        <ele>30.781457</ele>
        <time>2020-10-06T11:03:19.036Z</time>
      </trkpt>
      <trkpt lat="59.43715" lon="24.74502">
        <ele>30.781457</ele>
        <time>2020-10-06T11:03:29.342Z</time>
      </trkpt>
      <trkpt lat="59.43721" lon="24.74485">
        <ele>30.781457</ele>
        <time>2020-10-06T11:03:36.768Z</time>
      </trkpt>
      <trkpt lat="59.43736" lon="24.74449">
        <ele>30.781457</ele>
        <time>2020-10-06T11:03:53.043Z</time>
      </trkpt>
      <trkpt lat="59.43736" lon="24.7443">
        <ele>30.781457</ele>
        <time>2020-10-06T11:03:59.910Z</time>
      </trkpt>
      <trkpt lat="59.43743" lon="24.74417">
        <ele>30.781457</ele>
        <time>2020-10-06T11:04:06.621Z</time>
      </trkpt>
      <trkpt lat="59.43754" lon="24.74396">
        <ele>30.781457</ele>
        <time>2020-10-06T11:04:17.570Z</time>
      </trkpt>
      <trkpt lat="59.43758" lon="24.7439">
        <ele>30.781457</ele>
        <time>2020-10-06T11:04:20.889Z</time>
      </trkpt>
      <trkpt lat="59.43766" lon="24.74366">
        <ele>30.775704</ele>
        <time>2020-10-06T11:04:31.083Z</time>
      </trkpt>
      <trkpt lat="59.43769" lon="24.74357">
        <ele>30.773366</ele>
        <time>2020-10-06T11:04:34.901Z</time>
      </trkpt>
      <trkpt lat="59.43772" lon="24.7434">
        <ele>30.769311</ele>
        <time>2020-10-06T11:04:41.521Z</time>
      </trkpt>
      <trkpt lat="59.43772" lon="24.74312">
        <ele>30.763374</ele>
        <time>2020-10-06T11:04:51.195Z</time>
      </trkpt>
      <trkpt lat="59.43774" lon="24.74298">
        <ele>30.760141</ele>
        <time>2020-10-06T11:04:53.235Z</time>
      </trkpt>
      <trkpt lat="59.43812" lon="24.74301">
        <ele>30.743764</ele>
        <time>2020-10-06T11:05:02.666Z</time>
      </trkpt>
      <trkpt lat="59.43813" lon="24.74324">
        <ele>30.738647</ele>
        <time>2020-10-06T11:05:05.217Z</time>
      </trkpt>
      <trkpt lat="59.43839" lon="24.74376">
        <ele>30.722787</ele>
        <time>2020-10-06T11:05:14.087Z</time>
      </trkpt>
      <trkpt lat="59.43854" lon="24.74406">
        <ele>30.713478</ele>
        <time>2020-10-06T11:05:19.151Z</time>
      </trkpt>
      <trkpt lat="59.43862" lon="24.74422">
        <ele>30.708786</ele>
        <time>2020-10-06T11:05:21.230Z</time>
      </trkpt>
      <trkpt lat="59.43865" lon="24.74426">
        <ele>30.707354</ele>
        <time>2020-10-06T11:05:21.905Z</time>
      </trkpt>
      <trkpt lat="59.43871" lon="24.74438">
        <ele>30.702625</ele>
        <time>2020-10-06T11:05:23.843Z</time>
      </trkpt>
      <trkpt lat="59.43883" lon="24.74461">
        <ele>30.689095</ele>
        <time>2020-10-06T11:05:27.019Z</time>
      </trkpt>
      <trkpt lat="59.43927" lon="24.74509">
        <ele>30.648411</ele>
        <time>2020-10-06T11:05:36.489Z</time>
      </trkpt>
      <trkpt lat="59.43933" lon="24.74514">
        <ele>30.643248</ele>
        <time>2020-10-06T11:05:37.894Z</time>
      </trkpt>
      <trkpt lat="59.43936" lon="24.74482">
        <ele>30.629729</ele>
        <time>2020-10-06T11:05:41.293Z</time>
      </trkpt>
      <trkpt lat="59.4394" lon="24.74441">
        <ele>30.612424</ele>
        <time>2020-10-06T11:05:46.892Z</time>
      </trkpt>
      <trkpt lat="59.43942" lon="24.74417">
        <ele>30.602393</ele>
        <time>2020-10-06T11:05:50.061Z</time>
      </trkpt>
      <trkpt lat="59.43942" lon="24.74376">
        <ele>30.585535</ele>
        <time>2020-10-06T11:05:56.690Z</time>
      </trkpt>
      <trkpt lat="59.43941" lon="24.74361">
        <ele>30.579401</ele>
        <time>2020-10-06T11:05:58.906Z</time>
      </trkpt>
      <trkpt lat="59.43939" lon="24.74307">
        <ele>30.542254</ele>
        <time>2020-10-06T11:06:07.752Z</time>
      </trkpt>
      <trkpt lat="59.43937" lon="24.74257">
        <ele>30.30666</ele>
        <time>2020-10-06T11:06:14.265Z</time>
      </trkpt>
      <trkpt lat="59.43936" lon="24.74246">
        <ele>30.2565</ele>
        <time>2020-10-06T11:06:15.619Z</time>
      </trkpt>
      <trkpt lat="59.43936" lon="24.74229">
        <ele>30.17701</ele>
        <time>2020-10-06T11:06:17.324Z</time>
      </trkpt>
      <trkpt lat="59.43935" lon="24.7422">
        <ele>30.135485</ele>
        <time>2020-10-06T11:06:18.151Z</time>
      </trkpt>
      <trkpt lat="59.43935" lon="24.74215">
        <ele>30.111215</ele>
        <time>2020-10-06T11:06:18.664Z</time>
      </trkpt>
      <trkpt lat="59.43934" lon="24.74201">
        <ele>30.047822</ele>
        <time>2020-10-06T11:06:20.029Z</time>
      </trkpt>
      <trkpt lat="59.43931" lon="24.74156">
        <ele>29.83848</ele>
        <time>2020-10-06T11:06:24.406Z</time>
      </trkpt>
      <trkpt lat="59.43928" lon="24.74113">
        <ele>29.636739</ele>
        <time>2020-10-06T11:06:28.723Z</time>
      </trkpt>
      <trkpt lat="59.43925" lon="24.74067">
        <ele>29.422699</ele>
        <time>2020-10-06T11:06:33.074Z</time>
      </trkpt>
      <trkpt lat="59.43923" lon="24.74041">
        <ele>29.296989</ele>
        <time>2020-10-06T11:06:36.013Z</time>
      </trkpt>
      <trkpt lat="59.43983" lon="24.7394">
        <ele>28.040506</ele>
        <time>2020-10-06T11:06:50.645Z</time>
      </trkpt>
      <trkpt lat="59.43981" lon="24.73924">
        <ele>27.83725</ele>
        <time>2020-10-06T11:06:52.248Z</time>
      </trkpt>
      <trkpt lat="59.4398" lon="24.73917">
        <ele>27.743087</ele>
        <time>2020-10-06T11:06:52.942Z</time>
      </trkpt>
      <trkpt lat="59.43974" lon="24.73894">
        <ele>27.445817</ele>
        <time>2020-10-06T11:06:55.200Z</time>
      </trkpt>
      <trkpt lat="59.4397" lon="24.73869">
        <ele>27.128938</ele>
        <time>2020-10-06T11:06:57.432Z</time>
      </trkpt>
      <trkpt lat="59.43957" lon="24.73812">
        <ele>26.379329</ele>
        <time>2020-10-06T11:07:02.677Z</time>
      </trkpt>
      <trkpt lat="59.43948" lon="24.7378">
        <ele>25.940289</ele>
        <time>2020-10-06T11:07:05.657Z</time>
      </trkpt>
      <trkpt lat="59.43936" lon="24.73733">
        <ele>25.30253</ele>
        <time>2020-10-06T11:07:10.303Z</time>
      </trkpt>
      <trkpt lat="59.43923" lon="24.73685">
        <ele>24.683707</ele>
        <time>2020-10-06T11:07:15.350Z</time>
      </trkpt>
      <trkpt lat="59.439" lon="24.73624">
        <ele>24.969257</ele>
        <time>2020-10-06T11:07:25.479Z</time>
      </trkpt>
      <trkpt lat="59.43864" lon="24.73552">
        <ele>25.344037</ele>
        <time>2020-10-06T11:07:40.596Z</time>
      </trkpt>
      <trkpt lat="59.43824" lon="24.73541">
        <ele>25.646382</ele>
        <time>2020-10-06T11:07:52.301Z</time>
      </trkpt>
      <trkpt lat="59.43804" lon="24.73535">
        <ele>25.796347</ele>
        <time>2020-10-06T11:07:57.968Z</time>
      </trkpt>
      <trkpt lat="59.43785" lon="24.73523">
        <ele>25.942282</ele>
        <time>2020-10-06T11:08:03.580Z</time>
      </trkpt>
      <trkpt lat="59.43771" lon="24.73511">
        <ele>25.99839</ele>
        <time>2020-10-06T11:08:07.698Z</time>
      </trkpt>
      <trkpt lat="59.43727" lon="24.73508">
        <ele>25.957818</ele>
        <time>2020-10-06T11:08:19.995Z</time>
      </trkpt>
      <trkpt lat="59.43717" lon="24.73506">
        <ele>25.949199</ele>
        <time>2020-10-06T11:08:22.362Z</time>
      </trkpt>
      <trkpt lat="59.43677" lon="24.73477">
        <ele>25.910136</ele>
        <time>2020-10-06T11:08:33.195Z</time>
      </trkpt>
      <trkpt lat="59.43648" lon="24.73435">
        <ele>25.877167</ele>
        <time>2020-10-06T11:08:41.031Z</time>
      </trkpt>
      <trkpt lat="59.43635" lon="24.73414">
        <ele>25.861893</ele>
        <time>2020-10-06T11:08:44.434Z</time>
      </trkpt>
      <trkpt lat="59.43637" lon="24.73405">
        <ele>25.857083</ele>
        <time>2020-10-06T11:08:45.333Z</time>
      </trkpt>
      <trkpt lat="59.43659" lon="24.73351">
        <ele>25.501088</ele>
        <time>2020-10-06T11:08:51.853Z</time>
      </trkpt>
      <trkpt lat="59.43661" lon="24.73339">
        <ele>25.371953</ele>
        <time>2020-10-06T11:08:52.979Z</time>
      </trkpt>
      <trkpt lat="59.4366" lon="24.73328">
        <ele>25.262568</ele>
        <time>2020-10-06T11:08:54.016Z</time>
      </trkpt>
      <trkpt lat="59.43657" lon="24.73314">
        <ele>25.107736</ele>
        <time>2020-10-06T11:08:55.412Z</time>
      </trkpt>
      <trkpt lat="59.4366" lon="24.73298">
        <ele>24.932874</ele>
        <time>2020-10-06T11:08:56.962Z</time>
      </trkpt>
      <trkpt lat="59.43661" lon="24.73283">
        <ele>24.77862</ele>
        <time>2020-10-06T11:08:58.159Z</time>
      </trkpt>
      <trkpt lat="59.43656" lon="24.73263">
        <ele>24.54194</ele>
        <time>2020-10-06T11:09:00.269Z</time>
      </trkpt>
      <trkpt lat="59.43658" lon="24.73119">
        <ele>23.052793</ele>
        <time>2020-10-06T11:09:12.813Z</time>
      </trkpt>
      <trkpt lat="59.43659" lon="24.73009">
        <ele>21.994408</ele>
        <time>2020-10-06T11:09:22.799Z</time>
      </trkpt>
      <trkpt lat="59.43658" lon="24.7291">
        <ele>21.284501</ele>
        <time>2020-10-06T11:09:32.208Z</time>
      </trkpt>
      <trkpt lat="59.43585" lon="24.72679">
        <ele>19.352816</ele>
        <time>2020-10-06T11:09:58.348Z</time>
      </trkpt>
      <trkpt lat="59.43585" lon="24.72667">
        <ele>19.264584</ele>
        <time>2020-10-06T11:09:59.440Z</time>
      </trkpt>
      <trkpt lat="59.43579" lon="24.72657">
        <ele>19.150916</ele>
        <time>2020-10-06T11:10:01.060Z</time>
      </trkpt>
      <trkpt lat="59.43574" lon="24.72649">
        <ele>19.069199</ele>
        <time>2020-10-06T11:10:02.210Z</time>
      </trkpt>
      <trkpt lat="59.43597" lon="24.72607">
        <ele>18.639665</ele>
        <time>2020-10-06T11:10:07.864Z</time>
      </trkpt>
      <trkpt lat="59.43614" lon="24.7258">
        <ele>18.333363</ele>
        <time>2020-10-06T11:10:11.855Z</time>
      </trkpt>
      <trkpt lat="59.43633" lon="24.72543">
        <ele>17.95642</ele>
        <time>2020-10-06T11:10:17.043Z</time>
      </trkpt>
      <trkpt lat="59.43639" lon="24.72529">
        <ele>17.83438</ele>
        <time>2020-10-06T11:10:18.600Z</time>
      </trkpt>
      <trkpt lat="59.43643" lon="24.72509">
        <ele>17.683554</ele>
        <time>2020-10-06T11:10:20.748Z</time>
      </trkpt>
      <trkpt lat="59.43671" lon="24.72454">
        <ele>17.136089</ele>
        <time>2020-10-06T11:10:28.463Z</time>
      </trkpt>
      <trkpt lat="59.43729" lon="24.72344">
        <ele>16.155174</ele>
        <time>2020-10-06T11:10:44.430Z</time>
      </trkpt>
      <trkpt lat="59.43593" lon="24.7206">
        <ele>13.671182</ele>
        <time>2020-10-06T11:11:23.953Z</time>
      </trkpt>
      <trkpt lat="59.43592" lon="24.72057">
        <ele>13.647344</ele>
        <time>2020-10-06T11:11:24.289Z</time>
      </trkpt>
      <trkpt lat="59.43583" lon="24.72043">
        <ele>13.506623</ele>
        <time>2020-10-06T11:11:26.299Z</time>
      </trkpt>
      <trkpt lat="59.43549" lon="24.71973">
        <ele>12.865964</ele>
        <time>2020-10-06T11:11:36.033Z</time>
      </trkpt>
      <trkpt lat="59.43537" lon="24.71963">
        <ele>12.706269</ele>
        <time>2020-10-06T11:11:38.553Z</time>
      </trkpt>
      <trkpt lat="59.43537" lon="24.7195">
        <ele>12.636108</ele>
        <time>2020-10-06T11:11:39.765Z</time>
      </trkpt>
      <trkpt lat="59.43536" lon="24.71921">
        <ele>12.528101</ele>
        <time>2020-10-06T11:11:42.712Z</time>
      </trkpt>
      <trkpt lat="59.43546" lon="24.71901">
        <ele>12.418262</ele>
        <time>2020-10-06T11:11:45.734Z</time>
      </trkpt>
      <trkpt lat="59.43545" lon="24.71896">
        <ele>12.39734</ele>
        <time>2020-10-06T11:11:46.216Z</time>
      </trkpt>
      <trkpt lat="59.43536" lon="24.71828">
        <ele>12.130335</ele>
        <time>2020-10-06T11:11:53.393Z</time>
      </trkpt>
      <trkpt lat="59.43535" lon="24.71814">
        <ele>12.075563</ele>
        <time>2020-10-06T11:11:54.806Z</time>
      </trkpt>
      <trkpt lat="59.43533" lon="24.71791">
        <ele>11.987028</ele>
        <time>2020-10-06T11:11:57.292Z</time>
      </trkpt>
      <trkpt lat="59.43533" lon="24.71785">
        <ele>11.964551</ele>
        <time>2020-10-06T11:11:57.876Z</time>
      </trkpt>
      <trkpt lat="59.43519" lon="24.71708">
        <ele>11.653238</ele>
        <time>2020-10-06T11:12:06.660Z</time>
      </trkpt>
      <trkpt lat="59.43503" lon="24.71614">
        <ele>11.313895</ele>
        <time>2020-10-06T11:12:17.932Z</time>
      </trkpt>
      <trkpt lat="59.43499" lon="24.71589">
        <ele>11.326644</ele>
        <time>2020-10-06T11:12:21.130Z</time>
      </trkpt>
      <trkpt lat="59.43452" lon="24.71435">
        <ele>11.415106</ele>
        <time>2020-10-06T11:12:43.231Z</time>
      </trkpt>
      <trkpt lat="59.4344" lon="24.71438">
        <ele>11.427294</ele>
        <time>2020-10-06T11:12:46.297Z</time>
      </trkpt>
      <trkpt lat="59.43427" lon="24.71397">
        <ele>11.450824</ele>
        <time>2020-10-06T11:12:52.115Z</time>
      </trkpt>
      <trkpt lat="59.43444" lon="24.71376">
        <ele>11.470109</ele>
        <time>2020-10-06T11:12:56.814Z</time>
      </trkpt>
      <trkpt lat="59.4344" lon="24.71362">
        <ele>11.477821</ele>
        <time>2020-10-06T11:12:59.112Z</time>
      </trkpt>
      <trkpt lat="59.43435" lon="24.71346">
        <ele>11.47939</ele>
        <time>2020-10-06T11:13:01.771Z</time>
      </trkpt>
      <trkpt lat="59.4343" lon="24.71332">
        <ele>11.469632</ele>
        <time>2020-10-06T11:13:04.297Z</time>
      </trkpt>
      <trkpt lat="59.43319" lon="24.7147">
        <ele>11.323973</ele>
        <time>2020-10-06T11:13:42.845Z</time>
      </trkpt>
      <trkpt lat="59.4331" lon="24.71479">
        <ele>11.313314</ele>
        <time>2020-10-06T11:13:45.467Z</time>
      </trkpt>
      <trkpt lat="59.43279" lon="24.7152">
        <ele>11.253171</ele>
        <time>2020-10-06T11:13:55.832Z</time>
      </trkpt>
      <trkpt lat="59.43275" lon="24.71528">
        <ele>11.23693</ele>
        <time>2020-10-06T11:13:57.552Z</time>
      </trkpt>
      <trkpt lat="59.43272" lon="24.71527">
        <ele>11.228904</ele>
        <time>2020-10-06T11:13:58.338Z</time>
      </trkpt>
      <trkpt lat="59.43268" lon="24.7152">
        <ele>11.214307</ele>
        <time>2020-10-06T11:13:59.805Z</time>
      </trkpt>
      <trkpt lat="59.43238" lon="24.71426">
        <ele>11.059499</ele>
        <time>2020-10-06T11:14:15.714Z</time>
      </trkpt>
      <trkpt lat="59.43219" lon="24.71368">
        <ele>10.964297</ele>
        <time>2020-10-06T11:14:25.707Z</time>
      </trkpt>
      <trkpt lat="59.4319" lon="24.71281">
        <ele>10.819839</ele>
        <time>2020-10-06T11:14:41.058Z</time>
      </trkpt>
      <trkpt lat="59.4318" lon="24.71249">
        <ele>10.781861</ele>
        <time>2020-10-06T11:14:46.494Z</time>
      </trkpt>
      <trkpt lat="59.43177" lon="24.71239">
        <ele>10.774609</ele>
        <time>2020-10-06T11:14:48.075Z</time>
      </trkpt>
      <trkpt lat="59.43168" lon="24.71217">
        <ele>10.756037</ele>
        <time>2020-10-06T11:14:52.200Z</time>
      </trkpt>
      <trkpt lat="59.43164" lon="24.71207">
        <ele>10.747615</ele>
        <time>2020-10-06T11:14:54.124Z</time>
      </trkpt>
      <trkpt lat="59.43158" lon="24.71192">
        <ele>10.735089</ele>
        <time>2020-10-06T11:14:56.933Z</time>
      </trkpt>
      <trkpt lat="59.43095" lon="24.70991">
        <ele>10.581271</ele>
        <time>2020-10-06T11:15:31.720Z</time>
      </trkpt>
      <trkpt lat="59.43091" lon="24.70968">
        <ele>10.565372</ele>
        <time>2020-10-06T11:15:35.398Z</time>
      </trkpt>
      <trkpt lat="59.43091" lon="24.70964">
        <ele>10.562952</ele>
        <time>2020-10-06T11:15:35.894Z</time>
      </trkpt>
      <trkpt lat="59.43089" lon="24.70957">
        <ele>10.555595</ele>
        <time>2020-10-06T11:15:37.193Z</time>
      </trkpt>
      <trkpt lat="59.43085" lon="24.70945">
        <ele>10.543744</ele>
        <time>2020-10-06T11:15:39.231Z</time>
      </trkpt>
      <trkpt lat="59.43066" lon="24.70882">
        <ele>10.480614</ele>
        <time>2020-10-06T11:15:49.854Z</time>
      </trkpt>
      <trkpt lat="59.43053" lon="24.70842">
        <ele>10.440089</ele>
        <time>2020-10-06T11:15:56.624Z</time>
      </trkpt>
      <trkpt lat="59.43004" lon="24.70691">
        <ele>10.286958</ele>
        <time>2020-10-06T11:16:22.741Z</time>
      </trkpt>
      <trkpt lat="59.43001" lon="24.70674">
        <ele>10.271102</ele>
        <time>2020-10-06T11:16:25.358Z</time>
      </trkpt>
      <trkpt lat="59.42987" lon="24.7063">
        <ele>10.238688</ele>
        <time>2020-10-06T11:16:33.005Z</time>
      </trkpt>
      <trkpt lat="59.42971" lon="24.70581">
        <ele>10.205279</ele>
        <time>2020-10-06T11:16:41.807Z</time>
      </trkpt>
      <trkpt lat="59.42966" lon="24.70569">
        <ele>10.196783</ele>
        <time>2020-10-06T11:16:44.079Z</time>
      </trkpt>
      <trkpt lat="59.42957" lon="24.70526">
        <ele>10.17056</ele>
        <time>2020-10-06T11:16:50.925Z</time>
      </trkpt>
      <trkpt lat="59.42951" lon="24.70496">
        <ele>10.152349</ele>
        <time>2020-10-06T11:16:55.826Z</time>
      </trkpt>
      <trkpt lat="59.4294" lon="24.70444">
        <ele>10.120189</ele>
        <time>2020-10-06T11:17:04.444Z</time>
      </trkpt>
      <trkpt lat="59.42935" lon="24.70409">
        <ele>10.099693</ele>
        <time>2020-10-06T11:17:08.585Z</time>
      </trkpt>
      <trkpt lat="59.42933" lon="24.70325">
        <ele>10.038947</ele>
        <time>2020-10-06T11:17:18.017Z</time>
      </trkpt>
      <trkpt lat="59.42933" lon="24.70307">
        <ele>10.012026</ele>
        <time>2020-10-06T11:17:20.159Z</time>
      </trkpt>
      <trkpt lat="59.42934" lon="24.70261">
        <ele>9.94618</ele>
        <time>2020-10-06T11:17:25.028Z</time>
      </trkpt>
      <trkpt lat="59.42933" lon="24.7016">
        <ele>9.800392</ele>
        <time>2020-10-06T11:17:36.241Z</time>
      </trkpt>
      <trkpt lat="59.42939" lon="24.70136">
        <ele>9.760919</ele>
        <time>2020-10-06T11:17:39.343Z</time>
      </trkpt>
      <trkpt lat="59.42943" lon="24.70132">
        <ele>9.748412</ele>
        <time>2020-10-06T11:17:40.278Z</time>
      </trkpt>
      <trkpt lat="59.42943" lon="24.70114">
        <ele>9.722055</ele>
        <time>2020-10-06T11:17:42.404Z</time>
      </trkpt>
      <trkpt lat="59.4294" lon="24.70107">
        <ele>9.709402</ele>
        <time>2020-10-06T11:17:43.429Z</time>
      </trkpt>
      <trkpt lat="59.42936" lon="24.70095">
        <ele>9.687893</ele>
        <time>2020-10-06T11:17:44.969Z</time>
      </trkpt>
      <trkpt lat="59.42944" lon="24.69985">
        <ele>9.556582</ele>
        <time>2020-10-06T11:17:57.648Z</time>
      </trkpt>
      <trkpt lat="59.42946" lon="24.69951">
        <ele>9.573883</ele>
        <time>2020-10-06T11:18:01.571Z</time>
      </trkpt>
      <trkpt lat="59.42948" lon="24.69914">
        <ele>9.592555</ele>
        <time>2020-10-06T11:18:06.130Z</time>
      </trkpt>
      <trkpt lat="59.42953" lon="24.69851">
        <ele>9.62469</ele>
        <time>2020-10-06T11:18:13.636Z</time>
      </trkpt>
      <trkpt lat="59.4296" lon="24.69751">
        <ele>9.675561</ele>
        <time>2020-10-06T11:18:25.737Z</time>
      </trkpt>
      <trkpt lat="59.42964" lon="24.69695">
        <ele>9.703782</ele>
        <time>2020-10-06T11:18:32.866Z</time>
      </trkpt>
      <trkpt lat="59.42967" lon="24.69647">
        <ele>9.727311</ele>
        <time>2020-10-06T11:18:39.093Z</time>
      </trkpt>
      <trkpt lat="59.4297" lon="24.69588">
        <ele>9.738327</ele>
        <time>2020-10-06T11:18:46.541Z</time>
      </trkpt>
      <trkpt lat="59.42975" lon="24.6951">
        <ele>9.752892</ele>
        <time>2020-10-06T11:18:56.194Z</time>
      </trkpt>
      <trkpt lat="59.42979" lon="24.69437">
        <ele>9.766507</ele>
        <time>2020-10-06T11:19:05.086Z</time>
      </trkpt>
      <trkpt lat="59.42988" lon="24.69296">
        <ele>9.788073</ele>
        <time>2020-10-06T11:19:21.341Z</time>
      </trkpt>
      <trkpt lat="59.42989" lon="24.69278">
        <ele>9.744378</ele>
        <time>2020-10-06T11:19:23.404Z</time>
      </trkpt>
      <trkpt lat="59.42992" lon="24.69195">
        <ele>9.55399</ele>
        <time>2020-10-06T11:19:32.364Z</time>
      </trkpt>
      <trkpt lat="59.42993" lon="24.69132">
        <ele>9.407259</ele>
        <time>2020-10-06T11:19:39.334Z</time>
      </trkpt>
      <trkpt lat="59.42992" lon="24.69088">
        <ele>9.306678</ele>
        <time>2020-10-06T11:19:44.149Z</time>
      </trkpt>
      <trkpt lat="59.42993" lon="24.6902">
        <ele>9.148948</ele>
        <time>2020-10-06T11:19:51.729Z</time>
      </trkpt>
      <trkpt lat="59.42991" lon="24.68942">
        <ele>8.969101</ele>
        <time>2020-10-06T11:20:00.276Z</time>
      </trkpt>
      <trkpt lat="59.42988" lon="24.68863">
        <ele>8.764867</ele>
        <time>2020-10-06T11:20:08.955Z</time>
      </trkpt>
      <trkpt lat="59.42982" lon="24.68763">
        <ele>8.504699</ele>
        <time>2020-10-06T11:20:19.605Z</time>
      </trkpt>
      <trkpt lat="59.42968" lon="24.68593">
        <ele>8.06527</ele>
        <time>2020-10-06T11:20:38.653Z</time>
      </trkpt>
      <trkpt lat="59.42958" lon="24.68493">
        <ele>7.989173</ele>
        <time>2020-10-06T11:20:50.280Z</time>
      </trkpt>
      <trkpt lat="59.42954" lon="24.68459">
        <ele>7.962795</ele>
        <time>2020-10-06T11:20:54.401Z</time>
      </trkpt>
      <trkpt lat="59.42947" lon="24.68395">
        <ele>7.913993</ele>
        <time>2020-10-06T11:21:01.943Z</time>
      </trkpt>
      <trkpt lat="59.42913" lon="24.68089">
        <ele>7.81653</ele>
        <time>2020-10-06T11:21:39.019Z</time>
      </trkpt>
      <trkpt lat="59.42902" lon="24.67996">
        <ele>7.825245</ele>
        <time>2020-10-06T11:21:50.252Z</time>
      </trkpt>
      <trkpt lat="59.429" lon="24.6798">
        <ele>7.826786</ele>
        <time>2020-10-06T11:21:52.216Z</time>
      </trkpt>
      <trkpt lat="59.42897" lon="24.67957">
        <ele>7.828962</ele>
        <time>2020-10-06T11:21:55.129Z</time>
      </trkpt>
      <trkpt lat="59.42894" lon="24.67935">
        <ele>7.830995</ele>
        <time>2020-10-06T11:21:57.716Z</time>
      </trkpt>
      <trkpt lat="59.42891" lon="24.6791">
        <ele>7.833391</ele>
        <time>2020-10-06T11:22:00.770Z</time>
      </trkpt>
      <trkpt lat="59.42886" lon="24.6788">
        <ele>7.847608</ele>
        <time>2020-10-06T11:22:04.578Z</time>
      </trkpt>
      <trkpt lat="59.4287" lon="24.67767">
        <ele>7.911276</ele>
        <time>2020-10-06T11:22:18.461Z</time>
      </trkpt>
      <trkpt lat="59.42867" lon="24.67744">
        <ele>7.923703</ele>
        <time>2020-10-06T11:22:21.292Z</time>
      </trkpt>
      <trkpt lat="59.42849" lon="24.67597">
        <ele>8.005779</ele>
        <time>2020-10-06T11:22:39.904Z</time>
      </trkpt>
      <trkpt lat="59.42836" lon="24.67482">
        <ele>8.070027</ele>
        <time>2020-10-06T11:22:54.029Z</time>
      </trkpt>
      <trkpt lat="59.42831" lon="24.67433">
        <ele>8.098196</ele>
        <time>2020-10-06T11:23:00.153Z</time>
      </trkpt>
      <trkpt lat="59.42828" lon="24.67358">
        <ele>8.139491</ele>
        <time>2020-10-06T11:23:08.979Z</time>
      </trkpt>
      <trkpt lat="59.42824" lon="24.67314">
        <ele>8.164319</ele>
        <time>2020-10-06T11:23:14.305Z</time>
      </trkpt>
      <trkpt lat="59.42814" lon="24.67242">
        <ele>8.205776</ele>
        <time>2020-10-06T11:23:23.253Z</time>
      </trkpt>
      <trkpt lat="59.42805" lon="24.67087">
        <ele>8.316659</ele>
        <time>2020-10-06T11:23:42.257Z</time>
      </trkpt>
      <trkpt lat="59.42805" lon="24.67078">
        <ele>8.323627</ele>
        <time>2020-10-06T11:23:43.303Z</time>
      </trkpt>
      <trkpt lat="59.42802" lon="24.67045">
        <ele>8.348124</ele>
        <time>2020-10-06T11:23:47.393Z</time>
      </trkpt>
      <trkpt lat="59.4278" lon="24.66754">
        <ele>8.610734</ele>
        <time>2020-10-06T11:24:23.300Z</time>
      </trkpt>
      <trkpt lat="59.42768" lon="24.66606">
        <ele>8.780435</ele>
        <time>2020-10-06T11:24:41.422Z</time>
      </trkpt>
      <trkpt lat="59.42764" lon="24.66578">
        <ele>8.812893</ele>
        <time>2020-10-06T11:24:44.858Z</time>
      </trkpt>
      <trkpt lat="59.42752" lon="24.66487">
        <ele>9.021907</ele>
        <time>2020-10-06T11:24:56.606Z</time>
      </trkpt>
      <trkpt lat="59.42744" lon="24.66413">
        <ele>9.354919</ele>
        <time>2020-10-06T11:25:06.448Z</time>
      </trkpt>
      <trkpt lat="59.42742" lon="24.66393">
        <ele>9.440558</ele>
        <time>2020-10-06T11:25:08.893Z</time>
      </trkpt>
      <trkpt lat="59.42741" lon="24.66363">
        <ele>9.573247</ele>
        <time>2020-10-06T11:25:13.170Z</time>
      </trkpt>
      <trkpt lat="59.42744" lon="24.66335">
        <ele>9.698978</ele>
        <time>2020-10-06T11:25:17.019Z</time>
      </trkpt>
      <trkpt lat="59.42742" lon="24.66334">
        <ele>9.722574</ele>
        <time>2020-10-06T11:25:17.664Z</time>
      </trkpt>
      <trkpt lat="59.4274" lon="24.66333">
        <ele>9.739769</ele>
        <time>2020-10-06T11:25:18.200Z</time>
      </trkpt>
      <trkpt lat="59.42733" lon="24.66296">
        <ele>9.914611</ele>
        <time>2020-10-06T11:25:23.763Z</time>
      </trkpt>
      <trkpt lat="59.42733" lon="24.66289">
        <ele>9.947087</ele>
        <time>2020-10-06T11:25:24.693Z</time>
      </trkpt>
      <trkpt lat="59.42733" lon="24.66282">
        <ele>9.975148</ele>
        <time>2020-10-06T11:25:25.884Z</time>
      </trkpt>
      <trkpt lat="59.4271" lon="24.66132">
        <ele>10.71943</ele>
        <time>2020-10-06T11:25:48.251Z</time>
      </trkpt>
      <trkpt lat="59.42708" lon="24.66123">
        <ele>10.767878</ele>
        <time>2020-10-06T11:25:49.758Z</time>
      </trkpt>
      <trkpt lat="59.42707" lon="24.66114">
        <ele>10.817629</ele>
        <time>2020-10-06T11:25:51.211Z</time>
      </trkpt>
      <trkpt lat="59.42702" lon="24.66071">
        <ele>11.062069</ele>
        <time>2020-10-06T11:25:57.560Z</time>
      </trkpt>
      <trkpt lat="59.42702" lon="24.66016">
        <ele>11.359553</ele>
        <time>2020-10-06T11:26:05.529Z</time>
      </trkpt>
      <trkpt lat="59.42692" lon="24.65979">
        <ele>11.587256</ele>
        <time>2020-10-06T11:26:11.854Z</time>
      </trkpt>
      <trkpt lat="59.42691" lon="24.65967">
        <ele>11.654442</ele>
        <time>2020-10-06T11:26:13.695Z</time>
      </trkpt>
      <trkpt lat="59.42689" lon="24.65957">
        <ele>11.711583</ele>
        <time>2020-10-06T11:26:15.077Z</time>
      </trkpt>
      <trkpt lat="59.42687" lon="24.65947">
        <ele>11.770636</ele>
        <time>2020-10-06T11:26:16.400Z</time>
      </trkpt>
      <trkpt lat="59.42675" lon="24.65942">
        <ele>11.906699</ele>
        <time>2020-10-06T11:26:19.748Z</time>
      </trkpt>
      <trkpt lat="59.42656" lon="24.6586">
        <ele>12.369815</ele>
        <time>2020-10-06T11:26:31.852Z</time>
      </trkpt>
      <trkpt lat="59.42652" lon="24.65842">
        <ele>12.386428</ele>
        <time>2020-10-06T11:26:34.358Z</time>
      </trkpt>
      <trkpt lat="59.42641" lon="24.65791">
        <ele>12.43426</ele>
        <time>2020-10-06T11:26:40.981Z</time>
      </trkpt>
      <trkpt lat="59.42615" lon="24.65669">
        <ele>12.547655</ele>
        <time>2020-10-06T11:26:56.743Z</time>
      </trkpt>
      <trkpt lat="59.42613" lon="24.65669">
        <ele>12.551872</ele>
        <time>2020-10-06T11:26:57.211Z</time>
      </trkpt>
      <trkpt lat="59.42611" lon="24.65666">
        <ele>12.556022</ele>
        <time>2020-10-06T11:26:57.743Z</time>
      </trkpt>
      <trkpt lat="59.42609" lon="24.65658">
        <ele>12.563526</ele>
        <time>2020-10-06T11:26:58.768Z</time>
      </trkpt>
      <trkpt lat="59.42608" lon="24.65652">
        <ele>12.569188</ele>
        <time>2020-10-06T11:26:59.506Z</time>
      </trkpt>
      <trkpt lat="59.42607" lon="24.65646">
        <ele>12.57482</ele>
        <time>2020-10-06T11:27:00.242Z</time>
      </trkpt>
      <trkpt lat="59.42606" lon="24.65642">
        <ele>12.578507</ele>
        <time>2020-10-06T11:27:00.742Z</time>
      </trkpt>
      <trkpt lat="59.42604" lon="24.65636">
        <ele>12.584091</ele>
        <time>2020-10-06T11:27:01.485Z</time>
      </trkpt>
      <trkpt lat="59.42603" lon="24.65629">
        <ele>12.590208</ele>
        <time>2020-10-06T11:27:02.287Z</time>
      </trkpt>
      <trkpt lat="59.426" lon="24.65618">
        <ele>12.60053</ele>
        <time>2020-10-06T11:27:03.685Z</time>
      </trkpt>
      <trkpt lat="59.426" lon="24.65616">
        <ele>12.602853</ele>
        <time>2020-10-06T11:27:03.973Z</time>
      </trkpt>
      <trkpt lat="59.42601" lon="24.6561">
        <ele>12.607716</ele>
        <time>2020-10-06T11:27:04.611Z</time>
      </trkpt>
      <trkpt lat="59.42601" lon="24.65606">
        <ele>12.611166</ele>
        <time>2020-10-06T11:27:04.972Z</time>
      </trkpt>
      <trkpt lat="59.42555" lon="24.65381">
        <ele>13.32385</ele>
        <time>2020-10-06T11:27:34.034Z</time>
      </trkpt>
      <trkpt lat="59.42499" lon="24.65143">
        <ele>14.390449</ele>
        <time>2020-10-06T11:28:10.174Z</time>
      </trkpt>
      <trkpt lat="59.42468" lon="24.6501">
        <ele>15.096212</ele>
        <time>2020-10-06T11:28:30.490Z</time>
      </trkpt>
      <trkpt lat="59.42464" lon="24.64992">
        <ele>15.18906</ele>
        <time>2020-10-06T11:28:33.026Z</time>
      </trkpt>
      <trkpt lat="59.42452" lon="24.64962">
        <ele>15.370291</ele>
        <time>2020-10-06T11:28:37.852Z</time>
      </trkpt>
      <trkpt lat="59.42451" lon="24.64955">
        <ele>15.404403</ele>
        <time>2020-10-06T11:28:38.799Z</time>
      </trkpt>
      <trkpt lat="59.4245" lon="24.64952">
        <ele>15.424138</ele>
        <time>2020-10-06T11:28:39.349Z</time>
      </trkpt>
      <trkpt lat="59.42448" lon="24.64947">
        <ele>15.455568</ele>
        <time>2020-10-06T11:28:40.186Z</time>
      </trkpt>
      <trkpt lat="59.42445" lon="24.64943">
        <ele>15.486651</ele>
        <time>2020-10-06T11:28:41.013Z</time>
      </trkpt>
      <trkpt lat="59.42443" lon="24.64935">
        <ele>15.52618</ele>
        <time>2020-10-06T11:28:42.073Z</time>
      </trkpt>
      <trkpt lat="59.42443" lon="24.64932">
        <ele>15.545944</ele>
        <time>2020-10-06T11:28:42.555Z</time>
      </trkpt>
      <trkpt lat="59.42442" lon="24.64927">
        <ele>15.569168</ele>
        <time>2020-10-06T11:28:43.120Z</time>
      </trkpt>
      <trkpt lat="59.42441" lon="24.64923">
        <ele>15.589554</ele>
        <time>2020-10-06T11:28:43.620Z</time>
      </trkpt>
      <trkpt lat="59.42436" lon="24.64889">
        <ele>15.651036</ele>
        <time>2020-10-06T11:28:48.039Z</time>
      </trkpt>
      <trkpt lat="59.42417" lon="24.64811">
        <ele>15.499838</ele>
        <time>2020-10-06T11:28:57.649Z</time>
      </trkpt>
      <trkpt lat="59.42408" lon="24.64778">
        <ele>15.433949</ele>
        <time>2020-10-06T11:29:01.574Z</time>
      </trkpt>
      <trkpt lat="59.42407" lon="24.64772">
        <ele>15.423228</ele>
        <time>2020-10-06T11:29:02.218Z</time>
      </trkpt>
      <trkpt lat="59.42405" lon="24.64764">
        <ele>15.406715</ele>
        <time>2020-10-06T11:29:03.227Z</time>
      </trkpt>
      <trkpt lat="59.42404" lon="24.64757">
        <ele>15.392661</ele>
        <time>2020-10-06T11:29:04.066Z</time>
      </trkpt>
      <trkpt lat="59.424" lon="24.64743">
        <ele>15.365609</ele>
        <time>2020-10-06T11:29:05.715Z</time>
      </trkpt>
      <trkpt lat="59.42396" lon="24.64722">
        <ele>15.325732</ele>
        <time>2020-10-06T11:29:07.961Z</time>
      </trkpt>
      <trkpt lat="59.42392" lon="24.64662">
        <ele>15.218693</ele>
        <time>2020-10-06T11:29:14.201Z</time>
      </trkpt>
      <trkpt lat="59.42388" lon="24.64606">
        <ele>15.119098</ele>
        <time>2020-10-06T11:29:19.967Z</time>
      </trkpt>
      <trkpt lat="59.42385" lon="24.64551">
        <ele>15.026306</ele>
        <time>2020-10-06T11:29:25.536Z</time>
      </trkpt>
      <trkpt lat="59.42384" lon="24.64533">
        <ele>14.999797</ele>
        <time>2020-10-06T11:29:27.386Z</time>
      </trkpt>
      <trkpt lat="59.42395" lon="24.64454">
        <ele>14.873995</ele>
        <time>2020-10-06T11:29:35.818Z</time>
      </trkpt>
      <trkpt lat="59.42396" lon="24.64447">
        <ele>14.863122</ele>
        <time>2020-10-06T11:29:36.513Z</time>
      </trkpt>
      <trkpt lat="59.42398" lon="24.64438">
        <ele>14.847497</ele>
        <time>2020-10-06T11:29:37.555Z</time>
      </trkpt>
      <trkpt lat="59.42417" lon="24.64335">
        <ele>14.680751</ele>
        <time>2020-10-06T11:29:49.677Z</time>
      </trkpt>
      <trkpt lat="59.42445" lon="24.64185">
        <ele>14.549732</ele>
        <time>2020-10-06T11:30:07.985Z</time>
      </trkpt>
      <trkpt lat="59.42446" lon="24.6417">
        <ele>14.559383</ele>
        <time>2020-10-06T11:30:09.498Z</time>
      </trkpt>
      <trkpt lat="59.42446" lon="24.64167">
        <ele>14.56206</ele>
        <time>2020-10-06T11:30:10.122Z</time>
      </trkpt>
      <trkpt lat="59.42445" lon="24.64162">
        <ele>14.56492</ele>
        <time>2020-10-06T11:30:10.644Z</time>
      </trkpt>
      <trkpt lat="59.42446" lon="24.64156">
        <ele>14.569176</ele>
        <time>2020-10-06T11:30:11.362Z</time>
      </trkpt>
      <trkpt lat="59.42448" lon="24.64146">
        <ele>14.575574</ele>
        <time>2020-10-06T11:30:12.487Z</time>
      </trkpt>
      <trkpt lat="59.42449" lon="24.64138">
        <ele>14.58142</ele>
        <time>2020-10-06T11:30:13.558Z</time>
      </trkpt>
      <trkpt lat="59.4245" lon="24.64132">
        <ele>14.585533</ele>
        <time>2020-10-06T11:30:14.332Z</time>
      </trkpt>
      <trkpt lat="59.42452" lon="24.64129">
        <ele>14.588454</ele>
        <time>2020-10-06T11:30:14.920Z</time>
      </trkpt>
      <trkpt lat="59.42454" lon="24.64126">
        <ele>14.591799</ele>
        <time>2020-10-06T11:30:15.574Z</time>
      </trkpt>
      <trkpt lat="59.42456" lon="24.64124">
        <ele>14.594639</ele>
        <time>2020-10-06T11:30:16.090Z</time>
      </trkpt>
      <trkpt lat="59.42457" lon="24.64121">
        <ele>14.596894</ele>
        <time>2020-10-06T11:30:16.491Z</time>
      </trkpt>
      <trkpt lat="59.42458" lon="24.64109">
        <ele>14.604768</ele>
        <time>2020-10-06T11:30:17.686Z</time>
      </trkpt>
      <trkpt lat="59.42468" lon="24.64051">
        <ele>14.644398</ele>
        <time>2020-10-06T11:30:25.057Z</time>
      </trkpt>
      <trkpt lat="59.42471" lon="24.64039">
        <ele>14.653154</ele>
        <time>2020-10-06T11:30:26.523Z</time>
      </trkpt>
      <trkpt lat="59.42487" lon="24.63951">
        <ele>14.713692</ele>
        <time>2020-10-06T11:30:37.496Z</time>
      </trkpt>
      <trkpt lat="59.42495" lon="24.63908">
        <ele>14.743484</ele>
        <time>2020-10-06T11:30:42.952Z</time>
      </trkpt>
      <trkpt lat="59.42503" lon="24.63863">
        <ele>14.796111</ele>
        <time>2020-10-06T11:30:48.812Z</time>
      </trkpt>
      <trkpt lat="59.42508" lon="24.63839">
        <ele>14.825393</ele>
        <time>2020-10-06T11:30:51.532Z</time>
      </trkpt>
      <trkpt lat="59.42529" lon="24.63757">
        <ele>14.927309</ele>
        <time>2020-10-06T11:31:01.833Z</time>
      </trkpt>
      <trkpt lat="59.42527" lon="24.63739">
        <ele>14.948223</ele>
        <time>2020-10-06T11:31:04.205Z</time>
      </trkpt>
      <trkpt lat="59.42524" lon="24.63731">
        <ele>14.958772</ele>
        <time>2020-10-06T11:31:05.279Z</time>
      </trkpt>
      <trkpt lat="59.42523" lon="24.63727">
        <ele>14.964584</ele>
        <time>2020-10-06T11:31:05.860Z</time>
      </trkpt>
      <trkpt lat="59.42526" lon="24.63714">
        <ele>14.980717</ele>
        <time>2020-10-06T11:31:07.517Z</time>
      </trkpt>
      <trkpt lat="59.42529" lon="24.63706">
        <ele>14.991541</ele>
        <time>2020-10-06T11:31:08.649Z</time>
      </trkpt>
      <trkpt lat="59.4253" lon="24.63698">
        <ele>15.001376</ele>
        <time>2020-10-06T11:31:09.658Z</time>
      </trkpt>
      <trkpt lat="59.42532" lon="24.63692">
        <ele>15.008634</ele>
        <time>2020-10-06T11:31:10.391Z</time>
      </trkpt>
      <trkpt lat="59.42534" lon="24.63689">
        <ele>15.014179</ele>
        <time>2020-10-06T11:31:10.986Z</time>
      </trkpt>
      <trkpt lat="59.42536" lon="24.63685">
        <ele>15.020415</ele>
        <time>2020-10-06T11:31:11.823Z</time>
      </trkpt>
      <trkpt lat="59.4257" lon="24.63565">
        <ele>15.17458</ele>
        <time>2020-10-06T11:31:28.634Z</time>
      </trkpt>
      <trkpt lat="59.42572" lon="24.63558">
        <ele>15.182954</ele>
        <time>2020-10-06T11:31:29.726Z</time>
      </trkpt>
      <trkpt lat="59.42574" lon="24.6355">
        <ele>15.191925</ele>
        <time>2020-10-06T11:31:30.705Z</time>
      </trkpt>
      <trkpt lat="59.42672" lon="24.63203">
        <ele>15.538459</ele>
        <time>2020-10-06T11:32:17.131Z</time>
      </trkpt>
      <trkpt lat="59.42678" lon="24.63185">
        <ele>15.540925</ele>
        <time>2020-10-06T11:32:19.763Z</time>
      </trkpt>
      <trkpt lat="59.42678" lon="24.63174">
        <ele>15.542065</ele>
        <time>2020-10-06T11:32:20.844Z</time>
      </trkpt>
      <trkpt lat="59.42676" lon="24.6317">
        <ele>15.542628</ele>
        <time>2020-10-06T11:32:21.331Z</time>
      </trkpt>
      <trkpt lat="59.42675" lon="24.63165">
        <ele>15.543189</ele>
        <time>2020-10-06T11:32:21.864Z</time>
      </trkpt>
      <trkpt lat="59.42676" lon="24.63162">
        <ele>15.543612</ele>
        <time>2020-10-06T11:32:22.257Z</time>
      </trkpt>
      <trkpt lat="59.42678" lon="24.63156">
        <ele>15.544447</ele>
        <time>2020-10-06T11:32:23.117Z</time>
      </trkpt>
      <trkpt lat="59.42681" lon="24.63148">
        <ele>15.54552</ele>
        <time>2020-10-06T11:32:24.217Z</time>
      </trkpt>
      <trkpt lat="59.42684" lon="24.63137">
        <ele>15.546884</ele>
        <time>2020-10-06T11:32:25.640Z</time>
      </trkpt>
      <trkpt lat="59.42702" lon="24.63117">
        <ele>15.551303</ele>
        <time>2020-10-06T11:32:29.990Z</time>
      </trkpt>
      <trkpt lat="59.42719" lon="24.63075">
        <ele>15.557362</ele>
        <time>2020-10-06T11:32:36.294Z</time>
      </trkpt>
      <trkpt lat="59.42725" lon="24.63061">
        <ele>15.559265</ele>
        <time>2020-10-06T11:32:38.074Z</time>
      </trkpt>
      <trkpt lat="59.4274" lon="24.63024">
        <ele>15.56454</ele>
        <time>2020-10-06T11:32:43.719Z</time>
      </trkpt>
      <trkpt lat="59.42765" lon="24.62963">
        <ele>15.593716</ele>
        <time>2020-10-06T11:32:52.691Z</time>
      </trkpt>
      <trkpt lat="59.42783" lon="24.62916">
        <ele>15.625044</ele>
        <time>2020-10-06T11:32:59.465Z</time>
      </trkpt>
      <trkpt lat="59.42805" lon="24.62861">
        <ele>15.661285</ele>
        <time>2020-10-06T11:33:07.462Z</time>
      </trkpt>
      <trkpt lat="59.42822" lon="24.62818">
        <ele>15.690402</ele>
        <time>2020-10-06T11:33:13.823Z</time>
      </trkpt>
      <trkpt lat="59.42843" lon="24.62769">
        <ele>15.723746</ele>
        <time>2020-10-06T11:33:21.190Z</time>
      </trkpt>
      <trkpt lat="59.42859" lon="24.62728">
        <ele>15.751144</ele>
        <time>2020-10-06T11:33:27.255Z</time>
      </trkpt>
      <trkpt lat="59.42908" lon="24.62612">
        <ele>15.890777</ele>
        <time>2020-10-06T11:33:44.963Z</time>
      </trkpt>
      <trkpt lat="59.42934" lon="24.62549">
        <ele>15.967127</ele>
        <time>2020-10-06T11:33:54.541Z</time>
      </trkpt>
      <trkpt lat="59.42959" lon="24.62492">
        <ele>16.038659</ele>
        <time>2020-10-06T11:34:03.404Z</time>
      </trkpt>
      <trkpt lat="59.42972" lon="24.62466">
        <ele>16.072827</ele>
        <time>2020-10-06T11:34:07.614Z</time>
      </trkpt>
      <trkpt lat="59.42999" lon="24.62423">
        <ele>16.105615</ele>
        <time>2020-10-06T11:34:15.616Z</time>
      </trkpt>
      <trkpt lat="59.43009" lon="24.62409">
        <ele>16.114059</ele>
        <time>2020-10-06T11:34:18.413Z</time>
      </trkpt>
      <trkpt lat="59.43056" lon="24.62344">
        <ele>16.155237</ele>
        <time>2020-10-06T11:34:31.506Z</time>
      </trkpt>
      <trkpt lat="59.43073" lon="24.62325">
        <ele>16.168455</ele>
        <time>2020-10-06T11:34:35.620Z</time>
      </trkpt>
      <trkpt lat="59.43095" lon="24.623">
        <ele>16.186741</ele>
        <time>2020-10-06T11:34:41.601Z</time>
      </trkpt>
      <trkpt lat="59.43117" lon="24.62275">
        <ele>16.204242</ele>
        <time>2020-10-06T11:34:47.017Z</time>
      </trkpt>
      <trkpt lat="59.43157" lon="24.62225">
        <ele>16.292365</ele>
        <time>2020-10-06T11:34:57.639Z</time>
      </trkpt>
      <trkpt lat="59.43161" lon="24.6222">
        <ele>16.304172</ele>
        <time>2020-10-06T11:34:58.661Z</time>
      </trkpt>
      <trkpt lat="59.43206" lon="24.62167">
        <ele>16.422308</ele>
        <time>2020-10-06T11:35:10.585Z</time>
      </trkpt>
      <trkpt lat="59.43266" lon="24.62095">
        <ele>16.583278</ele>
        <time>2020-10-06T11:35:26.974Z</time>
      </trkpt>
      <trkpt lat="59.43312" lon="24.62039">
        <ele>16.83708</ele>
        <time>2020-10-06T11:35:40.492Z</time>
      </trkpt>
      <trkpt lat="59.43402" lon="24.61969">
        <ele>17.399677</ele>
        <time>2020-10-06T11:36:05.185Z</time>
      </trkpt>
      <trkpt lat="59.43445" lon="24.61926">
        <ele>17.66876</ele>
        <time>2020-10-06T11:36:16.686Z</time>
      </trkpt>
      <trkpt lat="59.43462" lon="24.61883">
        <ele>17.626493</ele>
        <time>2020-10-06T11:36:23.188Z</time>
      </trkpt>
      <trkpt lat="59.43472" lon="24.61851">
        <ele>17.596892</ele>
        <time>2020-10-06T11:36:27.311Z</time>
      </trkpt>
      <trkpt lat="59.43512" lon="24.61701">
        <ele>17.467096</ele>
        <time>2020-10-06T11:36:45.827Z</time>
      </trkpt>
      <trkpt lat="59.43534" lon="24.61593">
        <ele>17.381867</ele>
        <time>2020-10-06T11:36:57.968Z</time>
      </trkpt>
      <trkpt lat="59.43547" lon="24.61432">
        <ele>17.283707</ele>
        <time>2020-10-06T11:37:15.957Z</time>
      </trkpt>
      <trkpt lat="59.43555" lon="24.61374">
        <ele>17.247482</ele>
        <time>2020-10-06T11:37:22.877Z</time>
      </trkpt>
      <trkpt lat="59.43572" lon="24.61262">
        <ele>17.164511</ele>
        <time>2020-10-06T11:37:36.389Z</time>
      </trkpt>
      <trkpt lat="59.43581" lon="24.61229">
        <ele>17.109673</ele>
        <time>2020-10-06T11:37:40.675Z</time>
      </trkpt>
      <trkpt lat="59.43576" lon="24.61224">
        <ele>17.092332</ele>
        <time>2020-10-06T11:37:44.889Z</time>
      </trkpt>
      <trkpt lat="59.43581" lon="24.61229">
        <ele>17.074992</ele>
        <time>2020-10-06T11:37:49.101Z</time>
      </trkpt>
      <trkpt lat="59.43599" lon="24.61179">
        <ele>16.986862</ele>
        <time>2020-10-06T11:37:55.804Z</time>
      </trkpt>
      <trkpt lat="59.43631" lon="24.61099">
        <ele>16.838326</ele>
        <time>2020-10-06T11:38:07.144Z</time>
      </trkpt>
      <trkpt lat="59.4364" lon="24.6107">
        <ele>16.788664</ele>
        <time>2020-10-06T11:38:10.621Z</time>
      </trkpt>
      <trkpt lat="59.43666" lon="24.60976">
        <ele>16.593317</ele>
        <time>2020-10-06T11:38:21.426Z</time>
      </trkpt>
      <trkpt lat="59.43668" lon="24.60932">
        <ele>16.459208</ele>
        <time>2020-10-06T11:38:25.894Z</time>
      </trkpt>
      <trkpt lat="59.43653" lon="24.60812">
        <ele>16.084505</ele>
        <time>2020-10-06T11:38:38.526Z</time>
      </trkpt>
      <trkpt lat="59.43645" lon="24.60778">
        <ele>15.971082</ele>
        <time>2020-10-06T11:38:42.286Z</time>
      </trkpt>
      <trkpt lat="59.43641" lon="24.60755">
        <ele>15.900639</ele>
        <time>2020-10-06T11:38:44.935Z</time>
      </trkpt>
      <trkpt lat="59.4364" lon="24.60689">
        <ele>15.700317</ele>
        <time>2020-10-06T11:38:52.052Z</time>
      </trkpt>
      <trkpt lat="59.43659" lon="24.60575">
        <ele>15.251506</ele>
        <time>2020-10-06T11:39:04.701Z</time>
      </trkpt>
      <trkpt lat="59.43664" lon="24.60538">
        <ele>15.098756</ele>
        <time>2020-10-06T11:39:08.780Z</time>
      </trkpt>
      <trkpt lat="59.43665" lon="24.60526">
        <ele>15.049706</ele>
        <time>2020-10-06T11:39:10.049Z</time>
      </trkpt>
      <trkpt lat="59.4366" lon="24.60454">
        <ele>14.7582</ele>
        <time>2020-10-06T11:39:17.628Z</time>
      </trkpt>
      <trkpt lat="59.43641" lon="24.60375">
        <ele>14.412536</ele>
        <time>2020-10-06T11:39:26.027Z</time>
      </trkpt>
      <trkpt lat="59.43625" lon="24.60311">
        <ele>14.080294</ele>
        <time>2020-10-06T11:39:32.968Z</time>
      </trkpt>
      <trkpt lat="59.43603" lon="24.60183">
        <ele>13.161728</ele>
        <time>2020-10-06T11:39:45.775Z</time>
      </trkpt>
      <trkpt lat="59.43599" lon="24.60149">
        <ele>12.923275</ele>
        <time>2020-10-06T11:39:48.958Z</time>
      </trkpt>
      <trkpt lat="59.43594" lon="24.60144">
        <ele>12.8462</ele>
        <time>2020-10-06T11:39:50.073Z</time>
      </trkpt>
      <trkpt lat="59.4359" lon="24.60115">
        <ele>12.64104</ele>
        <time>2020-10-06T11:39:52.958Z</time>
      </trkpt>
      <trkpt lat="59.43565" lon="24.59995">
        <ele>11.763279</ele>
        <time>2020-10-06T11:40:05.178Z</time>
      </trkpt>
      <trkpt lat="59.43545" lon="24.5993">
        <ele>11.416411</ele>
        <time>2020-10-06T11:40:12.562Z</time>
      </trkpt>
      <trkpt lat="59.43535" lon="24.59901">
        <ele>11.252446</ele>
        <time>2020-10-06T11:40:15.905Z</time>
      </trkpt>
      <trkpt lat="59.43525" lon="24.5988">
        <ele>11.124802</ele>
        <time>2020-10-06T11:40:18.732Z</time>
      </trkpt>
      <trkpt lat="59.43512" lon="24.5986">
        <ele>10.977524</ele>
        <time>2020-10-06T11:40:22.162Z</time>
      </trkpt>
      <trkpt lat="59.43474" lon="24.59814">
        <ele>10.579814</ele>
        <time>2020-10-06T11:40:31.238Z</time>
      </trkpt>
      <trkpt lat="59.43463" lon="24.59798">
        <ele>10.457743</ele>
        <time>2020-10-06T11:40:33.987Z</time>
      </trkpt>
      <trkpt lat="59.43448" lon="24.59771">
        <ele>10.271189</ele>
        <time>2020-10-06T11:40:38.202Z</time>
      </trkpt>
      <trkpt lat="59.43431" lon="24.59732">
        <ele>10.044649</ele>
        <time>2020-10-06T11:40:43.332Z</time>
      </trkpt>
      <trkpt lat="59.43419" lon="24.59684">
        <ele>9.808515</ele>
        <time>2020-10-06T11:40:48.681Z</time>
      </trkpt>
      <trkpt lat="59.43402" lon="24.59574">
        <ele>9.308352</ele>
        <time>2020-10-06T11:40:59.714Z</time>
      </trkpt>
      <trkpt lat="59.43387" lon="24.59471">
        <ele>8.838907</ele>
        <time>2020-10-06T11:41:10.543Z</time>
      </trkpt>
      <trkpt lat="59.43379" lon="24.59439">
        <ele>8.683384</ele>
        <time>2020-10-06T11:41:14.339Z</time>
      </trkpt>
      <trkpt lat="59.43366" lon="24.59413">
        <ele>8.55562</ele>
        <time>2020-10-06T11:41:17.992Z</time>
      </trkpt>
      <trkpt lat="59.43355" lon="24.594">
        <ele>8.481825</ele>
        <time>2020-10-06T11:41:20.758Z</time>
      </trkpt>
      <trkpt lat="59.43311" lon="24.59349">
        <ele>8.197206</ele>
        <time>2020-10-06T11:41:30.867Z</time>
      </trkpt>
      <trkpt lat="59.43303" lon="24.59375">
        <ele>8.110619</ele>
        <time>2020-10-06T11:41:34.287Z</time>
      </trkpt>
      <trkpt lat="59.43294" lon="24.59385">
        <ele>8.053214</ele>
        <time>2020-10-06T11:41:36.407Z</time>
      </trkpt>
      <trkpt lat="59.43283" lon="24.59385">
        <ele>7.988495</ele>
        <time>2020-10-06T11:41:38.527Z</time>
      </trkpt>
      <trkpt lat="59.43277" lon="24.5938">
        <ele>7.954917</ele>
        <time>2020-10-06T11:41:39.946Z</time>
      </trkpt>
      <trkpt lat="59.4327" lon="24.59373">
        <ele>7.911369</ele>
        <time>2020-10-06T11:41:41.592Z</time>
      </trkpt>
      <trkpt lat="59.43257" lon="24.59361">
        <ele>7.830068</ele>
        <time>2020-10-06T11:41:44.629Z</time>
      </trkpt>
      <trkpt lat="59.43258" lon="24.59348">
        <ele>7.792888</ele>
        <time>2020-10-06T11:41:45.755Z</time>
      </trkpt>
      <trkpt lat="59.43256" lon="24.59321">
        <ele>7.716158</ele>
        <time>2020-10-06T11:41:48.827Z</time>
      </trkpt>
      <trkpt lat="59.4326" lon="24.59292">
        <ele>7.628535</ele>
        <time>2020-10-06T11:41:52.147Z</time>
      </trkpt>
      <trkpt lat="59.43282" lon="24.59258">
        <ele>7.480323</ele>
        <time>2020-10-06T11:41:57.822Z</time>
      </trkpt>
      <trkpt lat="59.43322" lon="24.59092">
        <ele>6.990655</ele>
        <time>2020-10-06T11:42:16.976Z</time>
      </trkpt>
      <trkpt lat="59.43325" lon="24.59">
        <ele>6.74423</ele>
        <time>2020-10-06T11:42:26.502Z</time>
      </trkpt>
      <trkpt lat="59.43332" lon="24.5898">
        <ele>6.681462</ele>
        <time>2020-10-06T11:42:28.968Z</time>
      </trkpt>
      <trkpt lat="59.43365" lon="24.58928">
        <ele>6.637099</ele>
        <time>2020-10-06T11:42:37.850Z</time>
      </trkpt>
      <trkpt lat="59.43375" lon="24.58886">
        <ele>6.623466</ele>
        <time>2020-10-06T11:42:42.886Z</time>
      </trkpt>
      <trkpt lat="59.43431" lon="24.5867">
        <ele>6.566028</ele>
        <time>2020-10-06T11:43:10.710Z</time>
      </trkpt>
      <trkpt lat="59.43468" lon="24.58531">
        <ele>6.735867</ele>
        <time>2020-10-06T11:43:29.757Z</time>
      </trkpt>
      <trkpt lat="59.43489" lon="24.58468">
        <ele>6.818219</ele>
        <time>2020-10-06T11:43:38.801Z</time>
      </trkpt>
      <trkpt lat="59.43499" lon="24.58428">
        <ele>6.867371</ele>
        <time>2020-10-06T11:43:44.080Z</time>
      </trkpt>
      <trkpt lat="59.43515" lon="24.58365">
        <ele>6.936013</ele>
        <time>2020-10-06T11:43:52.117Z</time>
      </trkpt>
      <trkpt lat="59.43517" lon="24.58342">
        <ele>6.906747</ele>
        <time>2020-10-06T11:43:54.907Z</time>
      </trkpt>
      <trkpt lat="59.43525" lon="24.58311">
        <ele>6.864478</ele>
        <time>2020-10-06T11:43:58.718Z</time>
      </trkpt>
      <trkpt lat="59.43563" lon="24.58161">
        <ele>6.658402</ele>
        <time>2020-10-06T11:44:17.239Z</time>
      </trkpt>
      <trkpt lat="59.43606" lon="24.57985">
        <ele>6.299599</ele>
        <time>2020-10-06T11:44:37.544Z</time>
      </trkpt>
      <trkpt lat="59.43659" lon="24.57753">
        <ele>5.552363</ele>
        <time>2020-10-06T11:45:03.814Z</time>
      </trkpt>
      <trkpt lat="59.43675" lon="24.57638">
        <ele>5.416005</ele>
        <time>2020-10-06T11:45:16.250Z</time>
      </trkpt>
      <trkpt lat="59.43685" lon="24.57463">
        <ele>5.317705</ele>
        <time>2020-10-06T11:45:36.053Z</time>
      </trkpt>
      <trkpt lat="59.43685" lon="24.57432">
        <ele>5.300204</ele>
        <time>2020-10-06T11:45:39.593Z</time>
      </trkpt>
      <trkpt lat="59.43685" lon="24.57419">
        <ele>5.292826</ele>
        <time>2020-10-06T11:45:41.248Z</time>
      </trkpt>
      <trkpt lat="59.43671" lon="24.57334">
        <ele>5.388487</ele>
        <time>2020-10-06T11:45:51.816Z</time>
      </trkpt>
      <trkpt lat="59.4367" lon="24.57319">
        <ele>5.426826</ele>
        <time>2020-10-06T11:45:53.662Z</time>
      </trkpt>
      <trkpt lat="59.43668" lon="24.57302">
        <ele>5.471985</ele>
        <time>2020-10-06T11:45:55.680Z</time>
      </trkpt>
      <trkpt lat="59.43667" lon="24.57294">
        <ele>5.493459</ele>
        <time>2020-10-06T11:45:56.691Z</time>
      </trkpt>
      <trkpt lat="59.43681" lon="24.57248">
        <ele>5.631625</ele>
        <time>2020-10-06T11:46:03.255Z</time>
      </trkpt>
      <trkpt lat="59.43681" lon="24.57234">
        <ele>5.666498</ele>
        <time>2020-10-06T11:46:04.868Z</time>
      </trkpt>
      <trkpt lat="59.43675" lon="24.57191">
        <ele>5.783161</ele>
        <time>2020-10-06T11:46:10.566Z</time>
      </trkpt>
      <trkpt lat="59.4365" lon="24.57079">
        <ele>6.100264</ele>
        <time>2020-10-06T11:46:26.062Z</time>
      </trkpt>
      <trkpt lat="59.43636" lon="24.56959">
        <ele>6.350171</ele>
        <time>2020-10-06T11:46:41.825Z</time>
      </trkpt>
      <trkpt lat="59.43563" lon="24.56728">
        <ele>6.815782</ele>
        <time>2020-10-06T11:47:14.104Z</time>
      </trkpt>
      <trkpt lat="59.43541" lon="24.56683">
        <ele>6.745049</ele>
        <time>2020-10-06T11:47:21.252Z</time>
      </trkpt>
      <trkpt lat="59.43531" lon="24.56658">
        <ele>6.709817</ele>
        <time>2020-10-06T11:47:24.796Z</time>
      </trkpt>
      <trkpt lat="59.43521" lon="24.5663">
        <ele>6.670867</ele>
        <time>2020-10-06T11:47:28.570Z</time>
      </trkpt>
      <trkpt lat="59.43479" lon="24.56541">
        <ele>6.533557</ele>
        <time>2020-10-06T11:47:41.670Z</time>
      </trkpt>
      <trkpt lat="59.43442" lon="24.56491">
        <ele>6.435324</ele>
        <time>2020-10-06T11:47:50.819Z</time>
      </trkpt>
      <trkpt lat="59.43427" lon="24.56469">
        <ele>6.495446</ele>
        <time>2020-10-06T11:47:54.802Z</time>
      </trkpt>
      <trkpt lat="59.43399" lon="24.56428">
        <ele>6.658623</ele>
        <time>2020-10-06T11:48:01.997Z</time>
      </trkpt>
      <trkpt lat="59.43365" lon="24.56391">
        <ele>6.839875</ele>
        <time>2020-10-06T11:48:11.025Z</time>
      </trkpt>
      <trkpt lat="59.43355" lon="24.5638">
        <ele>6.890886</ele>
        <time>2020-10-06T11:48:13.546Z</time>
      </trkpt>
      <trkpt lat="59.43339" lon="24.56374">
        <ele>6.96667</ele>
        <time>2020-10-06T11:48:17.768Z</time>
      </trkpt>
      <trkpt lat="59.43283" lon="24.5632">
        <ele>7.262613</ele>
        <time>2020-10-06T11:48:34.523Z</time>
      </trkpt>
      <trkpt lat="59.43272" lon="24.56317">
        <ele>7.567389</ele>
        <time>2020-10-06T11:48:37.478Z</time>
      </trkpt>
      <trkpt lat="59.43257" lon="24.56316">
        <ele>8.030337</ele>
        <time>2020-10-06T11:48:41.566Z</time>
      </trkpt>
      <trkpt lat="59.43245" lon="24.56312">
        <ele>8.382629</ele>
        <time>2020-10-06T11:48:45.406Z</time>
      </trkpt>
      <trkpt lat="59.43235" lon="24.56301">
        <ele>8.742088</ele>
        <time>2020-10-06T11:48:48.746Z</time>
      </trkpt>
      <trkpt lat="59.4323" lon="24.56271">
        <ele>9.234385</ele>
        <time>2020-10-06T11:48:53.623Z</time>
      </trkpt>
      <trkpt lat="59.43219" lon="24.56252">
        <ele>9.682902</ele>
        <time>2020-10-06T11:48:58.459Z</time>
      </trkpt>
      <trkpt lat="59.43039" lon="24.56066">
        <ele>17.555217</ele>
        <time>2020-10-06T11:50:17.077Z</time>
      </trkpt>
      <trkpt lat="59.43034" lon="24.56043">
        <ele>18.146434</ele>
        <time>2020-10-06T11:50:21.390Z</time>
      </trkpt>
      <trkpt lat="59.43036" lon="24.56025">
        <ele>18.577407</ele>
        <time>2020-10-06T11:50:25.039Z</time>
      </trkpt>
      <trkpt lat="59.43041" lon="24.56007">
        <ele>19.05697</ele>
        <time>2020-10-06T11:50:31.125Z</time>
      </trkpt>
      <trkpt lat="59.43047" lon="24.55989">
        <ele>19.585144</ele>
        <time>2020-10-06T11:50:35.272Z</time>
      </trkpt>
      <trkpt lat="59.43056" lon="24.55957">
        <ele>20.449556</ele>
        <time>2020-10-06T11:50:43.204Z</time>
      </trkpt>
      <trkpt lat="59.43057" lon="24.55937">
        <ele>20.927352</ele>
        <time>2020-10-06T11:50:48.964Z</time>
      </trkpt>
      <trkpt lat="59.4305" lon="24.55909">
        <ele>21.744493</ele>
        <time>2020-10-06T11:50:55.075Z</time>
      </trkpt>
      <trkpt lat="59.43046" lon="24.55902">
        <ele>22.052509</ele>
        <time>2020-10-06T11:50:57.436Z</time>
      </trkpt>
      <trkpt lat="59.43038" lon="24.55905">
        <ele>22.460823</ele>
        <time>2020-10-06T11:51:02.180Z</time>
      </trkpt>
      <trkpt lat="59.4301" lon="24.55939">
        <ele>24.279983</ele>
        <time>2020-10-06T11:51:16.836Z</time>
      </trkpt>
      <trkpt lat="59.42994" lon="24.55913">
        <ele>25.411782</ele>
        <time>2020-10-06T11:51:26.806Z</time>
      </trkpt>
      <trkpt lat="59.42984" lon="24.55884">
        <ele>26.409535</ele>
        <time>2020-10-06T11:51:35.749Z</time>
      </trkpt>
      <trkpt lat="59.4298" lon="24.55816">
        <ele>28.318276</ele>
        <time>2020-10-06T11:51:51.016Z</time>
      </trkpt>
      <trkpt lat="59.42987" lon="24.5578">
        <ele>29.389928</ele>
        <time>2020-10-06T11:51:59.579Z</time>
      </trkpt>
      <trkpt lat="59.42996" lon="24.55739">
        <ele>30.650212</ele>
        <time>2020-10-06T11:52:09.468Z</time>
      </trkpt>
      <trkpt lat="59.43006" lon="24.55694">
        <ele>31.619744</ele>
        <time>2020-10-06T11:52:18.490Z</time>
      </trkpt>
      <trkpt lat="59.43021" lon="24.55608">
        <ele>33.109659</ele>
        <time>2020-10-06T11:52:35.805Z</time>
      </trkpt>
      <trkpt lat="59.43023" lon="24.55547">
        <ele>34.109141</ele>
        <time>2020-10-06T11:52:46.958Z</time>
      </trkpt>
      <trkpt lat="59.43015" lon="24.55451">
        <ele>35.685367</ele>
        <time>2020-10-06T11:53:03.955Z</time>
      </trkpt>
      <trkpt lat="59.42993" lon="24.55322">
        <ele>37.147309</ele>
        <time>2020-10-06T11:53:25.065Z</time>
      </trkpt>
      <trkpt lat="59.42986" lon="24.55282">
        <ele>37.336657</ele>
        <time>2020-10-06T11:53:30.864Z</time>
      </trkpt>
      <trkpt lat="59.4298" lon="24.55242">
        <ele>37.522128</ele>
        <time>2020-10-06T11:53:36.330Z</time>
      </trkpt>
      <trkpt lat="59.42974" lon="24.55171">
        <ele>37.847274</ele>
        <time>2020-10-06T11:53:45.672Z</time>
      </trkpt>
      <trkpt lat="59.42973" lon="24.55154">
        <ele>37.924831</ele>
        <time>2020-10-06T11:53:47.945Z</time>
      </trkpt>
      <trkpt lat="59.42971" lon="24.55125">
        <ele>38.055551</ele>
        <time>2020-10-06T11:53:51.432Z</time>
      </trkpt>
      <trkpt lat="59.42968" lon="24.55098">
        <ele>38.179357</ele>
        <time>2020-10-06T11:53:54.767Z</time>
      </trkpt>
      <trkpt lat="59.42961" lon="24.54997">
        <ele>38.296422</ele>
        <time>2020-10-06T11:54:06.261Z</time>
      </trkpt>
      <trkpt lat="59.42957" lon="24.54915">
        <ele>38.006573</ele>
        <time>2020-10-06T11:54:14.767Z</time>
      </trkpt>
      <trkpt lat="59.42955" lon="24.54753">
        <ele>37.442291</ele>
        <time>2020-10-06T11:54:30.530Z</time>
      </trkpt>
      <trkpt lat="59.42955" lon="24.54739">
        <ele>37.393043</ele>
        <time>2020-10-06T11:54:31.894Z</time>
      </trkpt>
      <trkpt lat="59.42951" lon="24.54735">
        <ele>37.360447</ele>
        <time>2020-10-06T11:54:32.859Z</time>
      </trkpt>
      <trkpt lat="59.42951" lon="24.5472">
        <ele>37.307545</ele>
        <time>2020-10-06T11:54:34.408Z</time>
      </trkpt>
      <trkpt lat="59.42955" lon="24.54625">
        <ele>37.159798</ele>
        <time>2020-10-06T11:54:44.105Z</time>
      </trkpt>
      <trkpt lat="59.4296" lon="24.54495">
        <ele>37.062309</ele>
        <time>2020-10-06T11:54:58.269Z</time>
      </trkpt>
      <trkpt lat="59.42965" lon="24.54479">
        <ele>37.048611</ele>
        <time>2020-10-06T11:55:00.389Z</time>
      </trkpt>
      <trkpt lat="59.42966" lon="24.54463">
        <ele>37.036574</ele>
        <time>2020-10-06T11:55:02.195Z</time>
      </trkpt>
      <trkpt lat="59.42966" lon="24.54444">
        <ele>37.022599</ele>
        <time>2020-10-06T11:55:04.485Z</time>
      </trkpt>
      <trkpt lat="59.42974" lon="24.54293">
        <ele>37.07301</ele>
        <time>2020-10-06T11:55:22.909Z</time>
      </trkpt>
      <trkpt lat="59.4298" lon="24.54261">
        <ele>37.160478</ele>
        <time>2020-10-06T11:55:27.263Z</time>
      </trkpt>
      <trkpt lat="59.42982" lon="24.54239">
        <ele>37.218419</ele>
        <time>2020-10-06T11:55:30.184Z</time>
      </trkpt>
      <trkpt lat="59.42986" lon="24.542">
        <ele>37.318908</ele>
        <time>2020-10-06T11:55:35.173Z</time>
      </trkpt>
      <trkpt lat="59.42998" lon="24.54127">
        <ele>37.514062</ele>
        <time>2020-10-06T11:55:44.877Z</time>
      </trkpt>
      <trkpt lat="59.43023" lon="24.54019">
        <ele>37.817062</ele>
        <time>2020-10-06T11:55:59.564Z</time>
      </trkpt>
      <trkpt lat="59.43072" lon="24.53832">
        <ele>38.133455</ele>
        <time>2020-10-06T11:56:24.381Z</time>
      </trkpt>
      <trkpt lat="59.43074" lon="24.53824">
        <ele>38.146894</ele>
        <time>2020-10-06T11:56:25.453Z</time>
      </trkpt>
      <trkpt lat="59.43082" lon="24.53798">
        <ele>38.190338</ele>
        <time>2020-10-06T11:56:28.930Z</time>
      </trkpt>
      <trkpt lat="59.43091" lon="24.53763">
        <ele>38.24806</ele>
        <time>2020-10-06T11:56:33.568Z</time>
      </trkpt>
      <trkpt lat="59.43165" lon="24.53425">
        <ele>38.968265</ele>
        <time>2020-10-06T11:57:18.395Z</time>
      </trkpt>
      <trkpt lat="59.43187" lon="24.53317">
        <ele>39.156312</ele>
        <time>2020-10-06T11:57:32.798Z</time>
      </trkpt>
      <trkpt lat="59.43218" lon="24.53179">
        <ele>39.322584</ele>
        <time>2020-10-06T11:57:51.000Z</time>
      </trkpt>
      <trkpt lat="59.43227" lon="24.53122">
        <ele>39.388111</ele>
        <time>2020-10-06T11:57:57.969Z</time>
      </trkpt>
      <trkpt lat="59.43255" lon="24.52921">
        <ele>39.381357</ele>
        <time>2020-10-06T11:58:20.957Z</time>
      </trkpt>
      <trkpt lat="59.43273" lon="24.52819">
        <ele>39.285937</ele>
        <time>2020-10-06T11:58:32.697Z</time>
      </trkpt>
      <trkpt lat="59.43283" lon="24.52778">
        <ele>39.246536</ele>
        <time>2020-10-06T11:58:37.587Z</time>
      </trkpt>
      <trkpt lat="59.43314" lon="24.52621">
        <ele>39.203311</ele>
        <time>2020-10-06T11:58:56.170Z</time>
      </trkpt>
      <trkpt lat="59.43328" lon="24.52579">
        <ele>39.219904</ele>
        <time>2020-10-06T11:59:01.949Z</time>
      </trkpt>
      <trkpt lat="59.4335" lon="24.52514">
        <ele>39.245122</ele>
        <time>2020-10-06T11:59:10.931Z</time>
      </trkpt>
      <trkpt lat="59.4337" lon="24.52468">
        <ele>39.264655</ele>
        <time>2020-10-06T11:59:18.026Z</time>
      </trkpt>
      <trkpt lat="59.43425" lon="24.52335">
        <ele>39.38774</ele>
        <time>2020-10-06T11:59:38.601Z</time>
      </trkpt>
      <trkpt lat="59.43486" lon="24.52175">
        <ele>39.593871</ele>
        <time>2020-10-06T12:00:02.415Z</time>
      </trkpt>
      <trkpt lat="59.43539" lon="24.52022">
        <ele>39.332135</ele>
        <time>2020-10-06T12:00:23.379Z</time>
      </trkpt>
      <trkpt lat="59.43666" lon="24.51642">
        <ele>37.80405</ele>
        <time>2020-10-06T12:01:08.953Z</time>
      </trkpt>
      <trkpt lat="59.43676" lon="24.51604">
        <ele>37.625514</ele>
        <time>2020-10-06T12:01:13.067Z</time>
      </trkpt>
      <trkpt lat="59.43692" lon="24.51531">
        <ele>37.292911</ele>
        <time>2020-10-06T12:01:21.069Z</time>
      </trkpt>
      <trkpt lat="59.43708" lon="24.5144">
        <ele>37.282473</ele>
        <time>2020-10-06T12:01:31.447Z</time>
      </trkpt>
      <trkpt lat="59.43717" lon="24.51395">
        <ele>37.286765</ele>
        <time>2020-10-06T12:01:36.681Z</time>
      </trkpt>
      <trkpt lat="59.43724" lon="24.51358">
        <ele>37.290259</ele>
        <time>2020-10-06T12:01:41.303Z</time>
      </trkpt>
      <trkpt lat="59.43731" lon="24.51325">
        <ele>37.293428</ele>
        <time>2020-10-06T12:01:45.310Z</time>
      </trkpt>
      <trkpt lat="59.43734" lon="24.51312">
        <ele>37.294615</ele>
        <time>2020-10-06T12:01:47.018Z</time>
      </trkpt>
      <trkpt lat="59.43738" lon="24.51278">
        <ele>37.297739</ele>
        <time>2020-10-06T12:01:51.216Z</time>
      </trkpt>
      <trkpt lat="59.43742" lon="24.5124">
        <ele>37.301135</ele>
        <time>2020-10-06T12:01:56.002Z</time>
      </trkpt>
      <trkpt lat="59.43745" lon="24.5122">
        <ele>37.302944</ele>
        <time>2020-10-06T12:01:58.570Z</time>
      </trkpt>
      <trkpt lat="59.43773" lon="24.51019">
        <ele>37.684481</ele>
        <time>2020-10-06T12:02:24.838Z</time>
      </trkpt>
      <trkpt lat="59.43789" lon="24.50911">
        <ele>37.922918</ele>
        <time>2020-10-06T12:02:38.571Z</time>
      </trkpt>
      <trkpt lat="59.43805" lon="24.50766">
        <ele>38.095726</ele>
        <time>2020-10-06T12:02:55.478Z</time>
      </trkpt>
      <trkpt lat="59.43828" lon="24.50322">
        <ele>38.370468</ele>
        <time>2020-10-06T12:03:46.922Z</time>
      </trkpt>
      <trkpt lat="59.43831" lon="24.50209">
        <ele>38.465618</ele>
        <time>2020-10-06T12:04:00.369Z</time>
      </trkpt>
      <trkpt lat="59.43833" lon="24.5017">
        <ele>38.498067</ele>
        <time>2020-10-06T12:04:05.068Z</time>
      </trkpt>
      <trkpt lat="59.43844" lon="24.50027">
        <ele>38.584315</ele>
        <time>2020-10-06T12:04:22.394Z</time>
      </trkpt>
      <trkpt lat="59.43933" lon="24.4983">
        <ele>38.726652</ele>
        <time>2020-10-06T12:04:52.225Z</time>
      </trkpt>
      <trkpt lat="59.44027" lon="24.49629">
        <ele>38.862444</ele>
        <time>2020-10-06T12:05:23.261Z</time>
      </trkpt>
      <trkpt lat="59.44081" lon="24.49515">
        <ele>39.039767</ele>
        <time>2020-10-06T12:05:41.777Z</time>
      </trkpt>
      <trkpt lat="59.44159" lon="24.49333">
        <ele>39.37987</ele>
        <time>2020-10-06T12:06:10.533Z</time>
      </trkpt>
      <trkpt lat="59.44204" lon="24.49199">
        <ele>39.454212</ele>
        <time>2020-10-06T12:06:29.360Z</time>
      </trkpt>
      <trkpt lat="59.44231" lon="24.49092">
        <ele>39.502703</ele>
        <time>2020-10-06T12:06:43.070Z</time>
      </trkpt>
      <trkpt lat="59.4436" lon="24.48553">
        <ele>39.442265</ele>
        <time>2020-10-06T12:07:48.896Z</time>
      </trkpt>
      <trkpt lat="59.44669" lon="24.47852">
        <ele>40.354595</ele>
        <time>2020-10-06T12:09:39.287Z</time>
      </trkpt>
      <trkpt lat="59.44786" lon="24.47224">
        <ele>40.702044</ele>
        <time>2020-10-06T12:10:56.182Z</time>
      </trkpt>
      <trkpt lat="59.44785" lon="24.47174">
        <ele>40.722812</ele>
        <time>2020-10-06T12:11:02.056Z</time>
      </trkpt>
      <trkpt lat="59.44795" lon="24.47071">
        <ele>40.764201</ele>
        <time>2020-10-06T12:11:14.291Z</time>
      </trkpt>
      <trkpt lat="59.44838" lon="24.46637">
        <ele>40.804049</ele>
        <time>2020-10-06T12:12:04.688Z</time>
      </trkpt>
      <trkpt lat="59.44857" lon="24.46514">
        <ele>40.775311</ele>
        <time>2020-10-06T12:12:18.806Z</time>
      </trkpt>
      <trkpt lat="59.4504" lon="24.46074">
        <ele>40.149352</ele>
        <time>2020-10-06T12:13:20.891Z</time>
      </trkpt>
      <trkpt lat="59.45188" lon="24.45718">
        <ele>39.85972</ele>
        <time>2020-10-06T12:14:11.773Z</time>
      </trkpt>
      <trkpt lat="59.45262" lon="24.4554">
        <ele>40.203461</ele>
        <time>2020-10-06T12:14:38.328Z</time>
      </trkpt>
      <trkpt lat="59.45266" lon="24.4553">
        <ele>40.227419</ele>
        <time>2020-10-06T12:14:40.040Z</time>
      </trkpt>
      <trkpt lat="59.45342" lon="24.4534">
        <ele>40.811311</ele>
        <time>2020-10-06T12:15:10.917Z</time>
      </trkpt>
      <trkpt lat="59.45364" lon="24.45235">
        <ele>41.182035</ele>
        <time>2020-10-06T12:15:25.859Z</time>
      </trkpt>
      <trkpt lat="59.45384" lon="24.45137">
        <ele>41.52977</ele>
        <time>2020-10-06T12:15:39.295Z</time>
      </trkpt>
      <trkpt lat="59.45433" lon="24.4446">
        <ele>42.07676</ele>
        <time>2020-10-06T12:16:58.018Z</time>
      </trkpt>
      <trkpt lat="59.45435" lon="24.44437">
        <ele>42.093363</ele>
        <time>2020-10-06T12:17:00.826Z</time>
      </trkpt>
      <trkpt lat="59.45436" lon="24.44415">
        <ele>42.108323</ele>
        <time>2020-10-06T12:17:03.360Z</time>
      </trkpt>
      <trkpt lat="59.45447" lon="24.44256">
        <ele>42.289285</ele>
        <time>2020-10-06T12:17:22.280Z</time>
      </trkpt>
      <trkpt lat="59.45465" lon="24.43992">
        <ele>42.619276</ele>
        <time>2020-10-06T12:17:53.704Z</time>
      </trkpt>
      <trkpt lat="59.45482" lon="24.4379">
        <ele>42.922844</ele>
        <time>2020-10-06T12:18:17.801Z</time>
      </trkpt>
      <trkpt lat="59.45484" lon="24.43774">
        <ele>42.947979</ele>
        <time>2020-10-06T12:18:19.791Z</time>
      </trkpt>
      <trkpt lat="59.45486" lon="24.43755">
        <ele>42.97643</ele>
        <time>2020-10-06T12:18:22.049Z</time>
      </trkpt>
      <trkpt lat="59.45514" lon="24.43452">
        <ele>43.886147</ele>
        <time>2020-10-06T12:19:01.320Z</time>
      </trkpt>
      <trkpt lat="59.45535" lon="24.43203">
        <ele>44.370742</ele>
        <time>2020-10-06T12:19:33.226Z</time>
      </trkpt>
      <trkpt lat="59.45567" lon="24.42852">
        <ele>44.178139</ele>
        <time>2020-10-06T12:20:12.846Z</time>
      </trkpt>
      <trkpt lat="59.45566" lon="24.42802">
        <ele>44.048082</ele>
        <time>2020-10-06T12:20:18.008Z</time>
      </trkpt>
      <trkpt lat="59.45575" lon="24.4271">
        <ele>43.805984</ele>
        <time>2020-10-06T12:20:27.478Z</time>
      </trkpt>
      <trkpt lat="59.45581" lon="24.4264">
        <ele>43.561215</ele>
        <time>2020-10-06T12:20:34.588Z</time>
      </trkpt>
      <trkpt lat="59.45585" lon="24.42597">
        <ele>43.311765</ele>
        <time>2020-10-06T12:20:38.857Z</time>
      </trkpt>
      <trkpt lat="59.45587" lon="24.42582">
        <ele>43.219922</ele>
        <time>2020-10-06T12:20:40.385Z</time>
      </trkpt>
      <trkpt lat="59.45597" lon="24.42471">
        <ele>42.569942</ele>
        <time>2020-10-06T12:20:51.263Z</time>
      </trkpt>
      <trkpt lat="59.45612" lon="24.42402">
        <ele>42.132422</ele>
        <time>2020-10-06T12:20:58.525Z</time>
      </trkpt>
      <trkpt lat="59.45618" lon="24.42359">
        <ele>41.875054</ele>
        <time>2020-10-06T12:21:02.695Z</time>
      </trkpt>
      <trkpt lat="59.45618" lon="24.4221">
        <ele>41.199117</ele>
        <time>2020-10-06T12:21:16.997Z</time>
      </trkpt>
      <trkpt lat="59.45612" lon="24.42083">
        <ele>40.695549</ele>
        <time>2020-10-06T12:21:29.622Z</time>
      </trkpt>
      <trkpt lat="59.45603" lon="24.41993">
        <ele>40.328753</ele>
        <time>2020-10-06T12:21:39.441Z</time>
      </trkpt>
      <trkpt lat="59.45583" lon="24.41879">
        <ele>40.177119</ele>
        <time>2020-10-06T12:21:52.998Z</time>
      </trkpt>
      <trkpt lat="59.45521" lon="24.41619">
        <ele>40.012674</ele>
        <time>2020-10-06T12:22:25.943Z</time>
      </trkpt>
      <trkpt lat="59.45321" lon="24.40761">
        <ele>37.443198</ele>
        <time>2020-10-06T12:24:03.487Z</time>
      </trkpt>
      <trkpt lat="59.45318" lon="24.40747">
        <ele>37.405157</ele>
        <time>2020-10-06T12:24:05.127Z</time>
      </trkpt>
      <trkpt lat="59.45315" lon="24.40729">
        <ele>37.358234</ele>
        <time>2020-10-06T12:24:07.093Z</time>
      </trkpt>
      <trkpt lat="59.4531" lon="24.40709">
        <ele>37.301396</ele>
        <time>2020-10-06T12:24:09.529Z</time>
      </trkpt>
      <trkpt lat="59.45304" lon="24.40682">
        <ele>37.227654</ele>
        <time>2020-10-06T12:24:12.678Z</time>
      </trkpt>
      <trkpt lat="59.45303" lon="24.40675">
        <ele>37.210063</ele>
        <time>2020-10-06T12:24:13.416Z</time>
      </trkpt>
      <trkpt lat="59.45298" lon="24.40658">
        <ele>37.205402</ele>
        <time>2020-10-06T12:24:15.469Z</time>
      </trkpt>
      <trkpt lat="59.45293" lon="24.40637">
        <ele>37.201123</ele>
        <time>2020-10-06T12:24:18.051Z</time>
      </trkpt>
      <trkpt lat="59.45285" lon="24.40609">
        <ele>37.19532</ele>
        <time>2020-10-06T12:24:21.581Z</time>
      </trkpt>
      <trkpt lat="59.45029" lon="24.39518">
        <ele>37.158838</ele>
        <time>2020-10-06T12:26:37.471Z</time>
      </trkpt>
      <trkpt lat="59.44873" lon="24.3885">
        <ele>38.059078</ele>
        <time>2020-10-06T12:28:06.297Z</time>
      </trkpt>
      <trkpt lat="59.4483" lon="24.38667">
        <ele>37.976071</ele>
        <time>2020-10-06T12:28:28.234Z</time>
      </trkpt>
      <trkpt lat="59.44823" lon="24.38614">
        <ele>37.872839</ele>
        <time>2020-10-06T12:28:33.954Z</time>
      </trkpt>
      <trkpt lat="59.44749" lon="24.38362">
        <ele>37.343278</ele>
        <time>2020-10-06T12:29:04.556Z</time>
      </trkpt>
      <trkpt lat="59.44671" lon="24.38139">
        <ele>36.903013</ele>
        <time>2020-10-06T12:29:34.061Z</time>
      </trkpt>
      <trkpt lat="59.44602" lon="24.37976">
        <ele>36.486222</ele>
        <time>2020-10-06T12:29:57.099Z</time>
      </trkpt>
      <trkpt lat="59.44476" lon="24.3771">
        <ele>35.421593</ele>
        <time>2020-10-06T12:30:34.782Z</time>
      </trkpt>
      <trkpt lat="59.44468" lon="24.37695">
        <ele>35.347201</ele>
        <time>2020-10-06T12:30:36.826Z</time>
      </trkpt>
      <trkpt lat="59.44461" lon="24.37677">
        <ele>35.265124</ele>
        <time>2020-10-06T12:30:39.230Z</time>
      </trkpt>
      <trkpt lat="59.44424" lon="24.37615">
        <ele>34.908727</ele>
        <time>2020-10-06T12:30:48.911Z</time>
      </trkpt>
      <trkpt lat="59.44349" lon="24.37471">
        <ele>33.349894</ele>
        <time>2020-10-06T12:31:08.912Z</time>
      </trkpt>
      <trkpt lat="59.44344" lon="24.37454">
        <ele>33.203431</ele>
        <time>2020-10-06T12:31:10.565Z</time>
      </trkpt>
      <trkpt lat="59.44308" lon="24.3738">
        <ele>32.418992</ele>
        <time>2020-10-06T12:31:20.152Z</time>
      </trkpt>
      <trkpt lat="59.44276" lon="24.37331">
        <ele>31.461153</ele>
        <time>2020-10-06T12:31:27.033Z</time>
      </trkpt>
      <trkpt lat="59.44265" lon="24.37326">
        <ele>31.148332</ele>
        <time>2020-10-06T12:31:28.996Z</time>
      </trkpt>
      <trkpt lat="59.4426" lon="24.37323">
        <ele>31.01153</ele>
        <time>2020-10-06T12:31:29.753Z</time>
      </trkpt>
      <trkpt lat="59.44222" lon="24.37272">
        <ele>29.794835</ele>
        <time>2020-10-06T12:31:37.465Z</time>
      </trkpt>
      <trkpt lat="59.4418" lon="24.37229">
        <ele>28.527459</ele>
        <time>2020-10-06T12:31:45.414Z</time>
      </trkpt>
      <trkpt lat="59.44157" lon="24.37208">
        <ele>27.834759</ele>
        <time>2020-10-06T12:31:49.622Z</time>
      </trkpt>
      <trkpt lat="59.44098" lon="24.37168">
        <ele>26.456573</ele>
        <time>2020-10-06T12:31:59.886Z</time>
      </trkpt>
      <trkpt lat="59.43976" lon="24.37122">
        <ele>23.854247</ele>
        <time>2020-10-06T12:32:21.892Z</time>
      </trkpt>
      <trkpt lat="59.43964" lon="24.37116">
        <ele>23.669588</ele>
        <time>2020-10-06T12:32:24.251Z</time>
      </trkpt>
      <trkpt lat="59.43937" lon="24.3711">
        <ele>23.525009</ele>
        <time>2020-10-06T12:32:29.541Z</time>
      </trkpt>
      <trkpt lat="59.43922" lon="24.37103">
        <ele>23.443688</ele>
        <time>2020-10-06T12:32:32.457Z</time>
      </trkpt>
      <trkpt lat="59.4392" lon="24.3713">
        <ele>23.369212</ele>
        <time>2020-10-06T12:32:35.329Z</time>
      </trkpt>
      <trkpt lat="59.43917" lon="24.37162">
        <ele>23.281936</ele>
        <time>2020-10-06T12:32:38.579Z</time>
      </trkpt>
      <trkpt lat="59.43869" lon="24.37146">
        <ele>23.021886</ele>
        <time>2020-10-06T12:32:48.873Z</time>
      </trkpt>
      <trkpt lat="59.4385" lon="24.37146">
        <ele>22.92184</ele>
        <time>2020-10-06T12:32:53.023Z</time>
      </trkpt>
      <trkpt lat="59.43752" lon="24.37083">
        <ele>22.886735</ele>
        <time>2020-10-06T12:33:17.293Z</time>
      </trkpt>
      <trkpt lat="59.43699" lon="24.37037">
        <ele>23.009776</ele>
        <time>2020-10-06T12:33:31.217Z</time>
      </trkpt>
      <trkpt lat="59.43628" lon="24.36982">
        <ele>23.044611</ele>
        <time>2020-10-06T12:33:48.405Z</time>
      </trkpt>
      <trkpt lat="59.43585" lon="24.36949">
        <ele>22.895403</ele>
        <time>2020-10-06T12:33:58.519Z</time>
      </trkpt>
      <trkpt lat="59.43565" lon="24.36934">
        <ele>22.829327</ele>
        <time>2020-10-06T12:34:03.008Z</time>
      </trkpt>
      <trkpt lat="59.43506" lon="24.36888">
        <ele>22.625295</ele>
        <time>2020-10-06T12:34:16.555Z</time>
      </trkpt>
      <trkpt lat="59.43468" lon="24.36857">
        <ele>22.315432</ele>
        <time>2020-10-06T12:34:24.633Z</time>
      </trkpt>
      <trkpt lat="59.43408" lon="24.36807">
        <ele>21.38117</ele>
        <time>2020-10-06T12:34:36.680Z</time>
      </trkpt>
      <trkpt lat="59.43395" lon="24.36796">
        <ele>21.177585</ele>
        <time>2020-10-06T12:34:39.290Z</time>
      </trkpt>
      <trkpt lat="59.43384" lon="24.36787">
        <ele>21.00769</ele>
        <time>2020-10-06T12:34:41.472Z</time>
      </trkpt>
      <trkpt lat="59.43374" lon="24.36776">
        <ele>20.833545</ele>
        <time>2020-10-06T12:34:43.584Z</time>
      </trkpt>
      <trkpt lat="59.43381" lon="24.36755">
        <ele>20.651979</ele>
        <time>2020-10-06T12:34:45.887Z</time>
      </trkpt>
      <trkpt lat="59.43369" lon="24.36742">
        <ele>20.450624</ele>
        <time>2020-10-06T12:34:48.453Z</time>
      </trkpt>
      <trkpt lat="59.43353" lon="24.36721">
        <ele>20.178527</ele>
        <time>2020-10-06T12:34:51.822Z</time>
      </trkpt>
      <trkpt lat="59.43325" lon="24.36685">
        <ele>19.81669</ele>
        <time>2020-10-06T12:34:57.764Z</time>
      </trkpt>
      <trkpt lat="59.43298" lon="24.36645">
        <ele>19.554508</ele>
        <time>2020-10-06T12:35:03.770Z</time>
      </trkpt>
      <trkpt lat="59.43286" lon="24.36625">
        <ele>19.427105</ele>
        <time>2020-10-06T12:35:06.792Z</time>
      </trkpt>
      <trkpt lat="59.43273" lon="24.36602">
        <ele>19.291361</ele>
        <time>2020-10-06T12:35:09.759Z</time>
      </trkpt>
      <trkpt lat="59.43163" lon="24.36404">
        <ele>19.015671</ele>
        <time>2020-10-06T12:35:43.805Z</time>
      </trkpt>
      <trkpt lat="59.43158" lon="24.36396">
        <ele>19.068868</ele>
        <time>2020-10-06T12:35:45.227Z</time>
      </trkpt>
      <trkpt lat="59.43131" lon="24.3635">
        <ele>19.38036</ele>
        <time>2020-10-06T12:35:54.865Z</time>
      </trkpt>
      <trkpt lat="59.43108" lon="24.3631">
        <ele>19.645557</ele>
        <time>2020-10-06T12:36:03.382Z</time>
      </trkpt>
      <trkpt lat="59.43084" lon="24.3627">
        <ele>19.914514</ele>
        <time>2020-10-06T12:36:11.882Z</time>
      </trkpt>
      <trkpt lat="59.43081" lon="24.36264">
        <ele>19.958281</ele>
        <time>2020-10-06T12:36:13.357Z</time>
      </trkpt>
      <trkpt lat="59.43073" lon="24.3625">
        <ele>20.049283</ele>
        <time>2020-10-06T12:36:16.120Z</time>
      </trkpt>
      <trkpt lat="59.43031" lon="24.36195">
        <ele>20.407717</ele>
        <time>2020-10-06T12:36:31.095Z</time>
      </trkpt>
      <trkpt lat="59.43004" lon="24.36172">
        <ele>20.610149</ele>
        <time>2020-10-06T12:36:39.202Z</time>
      </trkpt>
      <trkpt lat="59.42942" lon="24.36149">
        <ele>21.043021</ele>
        <time>2020-10-06T12:36:54.375Z</time>
      </trkpt>
      <trkpt lat="59.42904" lon="24.36148">
        <ele>21.310323</ele>
        <time>2020-10-06T12:37:03.622Z</time>
      </trkpt>
      <trkpt lat="59.42655" lon="24.36153">
        <ele>22.205138</ele>
        <time>2020-10-06T12:38:04.654Z</time>
      </trkpt>
      <trkpt lat="59.42612" lon="24.36151">
        <ele>22.365863</ele>
        <time>2020-10-06T12:38:15.580Z</time>
      </trkpt>
      <trkpt lat="59.42555" lon="24.36135">
        <ele>22.575763</ele>
        <time>2020-10-06T12:38:29.774Z</time>
      </trkpt>
      <trkpt lat="59.42528" lon="24.36118">
        <ele>22.638048</ele>
        <time>2020-10-06T12:38:36.706Z</time>
      </trkpt>
      <trkpt lat="59.42504" lon="24.36091">
        <ele>22.647813</ele>
        <time>2020-10-06T12:38:43.488Z</time>
      </trkpt>
      <trkpt lat="59.42478" lon="24.36049">
        <ele>22.659641</ele>
        <time>2020-10-06T12:38:51.603Z</time>
      </trkpt>
      <trkpt lat="59.42455" lon="24.35996">
        <ele>22.672016</ele>
        <time>2020-10-06T12:38:59.903Z</time>
      </trkpt>
      <trkpt lat="59.42375" lon="24.3576">
        <ele>22.277676</ele>
        <time>2020-10-06T12:39:32.005Z</time>
      </trkpt>
      <trkpt lat="59.42152" lon="24.35062">
        <ele>19.876603</ele>
        <time>2020-10-06T12:41:00.847Z</time>
      </trkpt>
      <trkpt lat="59.42057" lon="24.3476">
        <ele>19.115387</ele>
        <time>2020-10-06T12:41:39.973Z</time>
      </trkpt>
      <trkpt lat="59.42033" lon="24.34683">
        <ele>18.947155</ele>
        <time>2020-10-06T12:41:50.329Z</time>
      </trkpt>
      <trkpt lat="59.41996" lon="24.34593">
        <ele>18.668151</ele>
        <time>2020-10-06T12:42:03.409Z</time>
      </trkpt>
      <trkpt lat="59.41945" lon="24.34519">
        <ele>18.364116</ele>
        <time>2020-10-06T12:42:17.611Z</time>
      </trkpt>
      <trkpt lat="59.41857" lon="24.34434">
        <ele>17.771416</ele>
        <time>2020-10-06T12:42:37.794Z</time>
      </trkpt>
      <trkpt lat="59.41826" lon="24.34419">
        <ele>17.521847</ele>
        <time>2020-10-06T12:42:44.211Z</time>
      </trkpt>
      <trkpt lat="59.4179" lon="24.34415">
        <ele>17.244503</ele>
        <time>2020-10-06T12:42:51.305Z</time>
      </trkpt>
      <trkpt lat="59.41741" lon="24.34413">
        <ele>16.860887</ele>
        <time>2020-10-06T12:43:01.125Z</time>
      </trkpt>
      <trkpt lat="59.41621" lon="24.34408">
        <ele>17.642395</ele>
        <time>2020-10-06T12:43:29.699Z</time>
      </trkpt>
      <trkpt lat="59.41592" lon="24.34404">
        <ele>17.922268</ele>
        <time>2020-10-06T12:43:37.926Z</time>
      </trkpt>
      <trkpt lat="59.41572" lon="24.34394">
        <ele>18.130704</ele>
        <time>2020-10-06T12:43:44.472Z</time>
      </trkpt>
      <trkpt lat="59.41553" lon="24.34378">
        <ele>18.325355</ele>
        <time>2020-10-06T12:43:51.286Z</time>
      </trkpt>
      <trkpt lat="59.41527" lon="24.34333">
        <ele>19.097604</ele>
        <time>2020-10-06T12:44:03.121Z</time>
      </trkpt>
      <trkpt lat="59.41512" lon="24.34275">
        <ele>20.038164</ele>
        <time>2020-10-06T12:44:14.657Z</time>
      </trkpt>
      <trkpt lat="59.41508" lon="24.34212">
        <ele>20.962804</ele>
        <time>2020-10-06T12:44:26.328Z</time>
      </trkpt>
      <trkpt lat="59.41516" lon="24.3416">
        <ele>21.744992</ele>
        <time>2020-10-06T12:44:36.309Z</time>
      </trkpt>
      <trkpt lat="59.41541" lon="24.3409">
        <ele>22.985272</ele>
        <time>2020-10-06T12:44:52.337Z</time>
      </trkpt>
      <trkpt lat="59.41696" lon="24.33768">
        <ele>27.712259</ele>
        <time>2020-10-06T12:46:04.225Z</time>
      </trkpt>
      <trkpt lat="59.41718" lon="24.33727">
        <ele>28.031295</ele>
        <time>2020-10-06T12:46:12.550Z</time>
      </trkpt>
      <trkpt lat="59.41762" lon="24.3367">
        <ele>28.594524</ele>
        <time>2020-10-06T12:46:26.735Z</time>
      </trkpt>
      <trkpt lat="59.41946" lon="24.33564">
        <ele>30.299135</ele>
        <time>2020-10-06T12:47:16.084Z</time>
      </trkpt>
      <trkpt lat="59.42034" lon="24.33468">
        <ele>31.215726</ele>
        <time>2020-10-06T12:47:43.765Z</time>
      </trkpt>
      <trkpt lat="59.42123" lon="24.33353">
        <ele>32.380526</ele>
        <time>2020-10-06T12:48:13.494Z</time>
      </trkpt>
      <trkpt lat="59.42148" lon="24.33314">
        <ele>32.721363</ele>
        <time>2020-10-06T12:48:22.092Z</time>
      </trkpt>
      <trkpt lat="59.42174" lon="24.33249">
        <ele>32.91711</ele>
        <time>2020-10-06T12:48:33.313Z</time>
      </trkpt>
      <trkpt lat="59.42189" lon="24.33175">
        <ele>33.103296</ele>
        <time>2020-10-06T12:48:43.669Z</time>
      </trkpt>
      <trkpt lat="59.42191" lon="24.33112">
        <ele>33.253934</ele>
        <time>2020-10-06T12:48:51.764Z</time>
      </trkpt>
      <trkpt lat="59.42188" lon="24.33087">
        <ele>33.312458</ele>
        <time>2020-10-06T12:48:54.920Z</time>
      </trkpt>
      <trkpt lat="59.42181" lon="24.33037">
        <ele>33.435215</ele>
        <time>2020-10-06T12:49:01.239Z</time>
      </trkpt>
      <trkpt lat="59.42169" lon="24.32982">
        <ele>33.548239</ele>
        <time>2020-10-06T12:49:08.417Z</time>
      </trkpt>
      <trkpt lat="59.42003" lon="24.32233">
        <ele>33.266444</ele>
        <time>2020-10-06T12:50:42.960Z</time>
      </trkpt>
      <trkpt lat="59.41972" lon="24.3209">
        <ele>33.375427</ele>
        <time>2020-10-06T12:51:02.157Z</time>
      </trkpt>
      <trkpt lat="59.41945" lon="24.31994">
        <ele>33.440979</ele>
        <time>2020-10-06T12:51:15.896Z</time>
      </trkpt>
      <trkpt lat="59.41928" lon="24.31952">
        <ele>33.459112</ele>
        <time>2020-10-06T12:51:22.754Z</time>
      </trkpt>
      <trkpt lat="59.41591" lon="24.31315">
        <ele>33.35014</ele>
        <time>2020-10-06T12:53:11.809Z</time>
      </trkpt>
      <trkpt lat="59.41563" lon="24.31272">
        <ele>33.202929</ele>
        <time>2020-10-06T12:53:19.024Z</time>
      </trkpt>
      <trkpt lat="59.41522" lon="24.31215">
        <ele>32.565146</ele>
        <time>2020-10-06T12:53:29.064Z</time>
      </trkpt>
      <trkpt lat="59.41506" lon="24.31194">
        <ele>32.322307</ele>
        <time>2020-10-06T12:53:32.791Z</time>
      </trkpt>
      <trkpt lat="59.41447" lon="24.31117">
        <ele>31.424243</ele>
        <time>2020-10-06T12:53:46.409Z</time>
      </trkpt>
      <trkpt lat="59.41285" lon="24.30902">
        <ele>28.786693</ele>
        <time>2020-10-06T12:54:24.249Z</time>
      </trkpt>
      <trkpt lat="59.41232" lon="24.30817">
        <ele>28.30391</ele>
        <time>2020-10-06T12:54:38.280Z</time>
      </trkpt>
      <trkpt lat="59.41205" lon="24.3076">
        <ele>28.110739</ele>
        <time>2020-10-06T12:54:46.713Z</time>
      </trkpt>
      <trkpt lat="59.41192" lon="24.30724">
        <ele>27.999641</ele>
        <time>2020-10-06T12:54:51.701Z</time>
      </trkpt>
      <trkpt lat="59.41186" lon="24.30706">
        <ele>27.945319</ele>
        <time>2020-10-06T12:54:54.098Z</time>
      </trkpt>
      <trkpt lat="59.4117" lon="24.30654">
        <ele>27.794071</ele>
        <time>2020-10-06T12:55:01.092Z</time>
      </trkpt>
      <trkpt lat="59.41132" lon="24.30473">
        <ele>27.902793</ele>
        <time>2020-10-06T12:55:24.513Z</time>
      </trkpt>
      <trkpt lat="59.4108" lon="24.30173">
        <ele>28.662266</ele>
        <time>2020-10-06T12:56:05.167Z</time>
      </trkpt>
      <trkpt lat="59.41074" lon="24.30136">
        <ele>28.816536</ele>
        <time>2020-10-06T12:56:10.307Z</time>
      </trkpt>
      <trkpt lat="59.41064" lon="24.30078">
        <ele>29.060441</ele>
        <time>2020-10-06T12:56:18.521Z</time>
      </trkpt>
      <trkpt lat="59.41029" lon="24.29939">
        <ele>29.721336</ele>
        <time>2020-10-06T12:56:39.872Z</time>
      </trkpt>
      <trkpt lat="59.41001" lon="24.29879">
        <ele>30.346994</ele>
        <time>2020-10-06T12:56:51.468Z</time>
      </trkpt>
      <trkpt lat="59.40884" lon="24.29717">
        <ele>32.578457</ele>
        <time>2020-10-06T12:57:33.904Z</time>
      </trkpt>
      <trkpt lat="59.40837" lon="24.29672">
        <ele>33.73687</ele>
        <time>2020-10-06T12:57:50.573Z</time>
      </trkpt>
      <trkpt lat="59.40814" lon="24.29659">
        <ele>34.285514</ele>
        <time>2020-10-06T12:57:58.242Z</time>
      </trkpt>
      <trkpt lat="59.4081" lon="24.29658">
        <ele>34.35708</ele>
        <time>2020-10-06T12:57:59.517Z</time>
      </trkpt>
      <trkpt lat="59.40786" lon="24.29652">
        <ele>34.893272</ele>
        <time>2020-10-06T12:58:07.580Z</time>
      </trkpt>
      <trkpt lat="59.40731" lon="24.29655">
        <ele>36.124888</ele>
        <time>2020-10-06T12:58:26.062Z</time>
      </trkpt>
      <trkpt lat="59.40673" lon="24.29687">
        <ele>37.052719</ele>
        <time>2020-10-06T12:58:45.409Z</time>
      </trkpt>
      <trkpt lat="59.40632" lon="24.29715">
        <ele>37.654071</ele>
        <time>2020-10-06T12:58:58.804Z</time>
      </trkpt>
      <trkpt lat="59.40579" lon="24.29757">
        <ele>38.459783</ele>
        <time>2020-10-06T12:59:14.064Z</time>
      </trkpt>
      <trkpt lat="59.40512" lon="24.29819">
        <ele>38.617578</ele>
        <time>2020-10-06T12:59:32.125Z</time>
      </trkpt>
      <trkpt lat="59.40456" lon="24.29871">
        <ele>38.285284</ele>
        <time>2020-10-06T12:59:45.111Z</time>
      </trkpt>
      <trkpt lat="59.40259" lon="24.3009">
        <ele>36.23646</ele>
        <time>2020-10-06T13:00:30.518Z</time>
      </trkpt>
      <trkpt lat="59.40213" lon="24.30132">
        <ele>35.677157</ele>
        <time>2020-10-06T13:00:40.911Z</time>
      </trkpt>
      <trkpt lat="59.40191" lon="24.30147">
        <ele>35.422369</ele>
        <time>2020-10-06T13:00:45.429Z</time>
      </trkpt>
      <trkpt lat="59.40186" lon="24.30189">
        <ele>35.177145</ele>
        <time>2020-10-06T13:00:49.791Z</time>
      </trkpt>
      <trkpt lat="59.40153" lon="24.30199">
        <ele>34.815944</ele>
        <time>2020-10-06T13:00:56.004Z</time>
      </trkpt>
      <trkpt lat="59.4013" lon="24.30201">
        <ele>34.556801</ele>
        <time>2020-10-06T13:01:00.401Z</time>
      </trkpt>
      <trkpt lat="59.39998" lon="24.30251">
        <ele>33.206951</ele>
        <time>2020-10-06T13:01:25.766Z</time>
      </trkpt>
      <trkpt lat="59.39856" lon="24.30312">
        <ele>32.137601</ele>
        <time>2020-10-06T13:01:54.761Z</time>
      </trkpt>
      <trkpt lat="59.39829" lon="24.30322">
        <ele>32.056409</ele>
        <time>2020-10-06T13:02:00.746Z</time>
      </trkpt>
      <trkpt lat="59.39746" lon="24.30356">
        <ele>31.81209</ele>
        <time>2020-10-06T13:02:19.308Z</time>
      </trkpt>
      <trkpt lat="59.39731" lon="24.30362">
        <ele>31.766942</ele>
        <time>2020-10-06T13:02:22.784Z</time>
      </trkpt>
      <trkpt lat="59.39732" lon="24.30318">
        <ele>31.719828</ele>
        <time>2020-10-06T13:02:27.871Z</time>
      </trkpt>
      <trkpt lat="59.3971" lon="24.3031">
        <ele>31.679507</ele>
        <time>2020-10-06T13:02:33.091Z</time>
      </trkpt>
      <trkpt lat="59.39656" lon="24.30266">
        <ele>31.571952</ele>
        <time>2020-10-06T13:02:46.673Z</time>
      </trkpt>
      <trkpt lat="59.39643" lon="24.30249">
        <ele>31.544677</ele>
        <time>2020-10-06T13:02:50.040Z</time>
      </trkpt>
      <trkpt lat="59.39618" lon="24.30207">
        <ele>31.483336</ele>
        <time>2020-10-06T13:02:57.537Z</time>
      </trkpt>
      <trkpt lat="59.39546" lon="24.3006">
        <ele>31.408933</ele>
        <time>2020-10-06T13:03:19.726Z</time>
      </trkpt>
      <trkpt lat="59.39478" lon="24.29919">
        <ele>31.38984</ele>
        <time>2020-10-06T13:03:42.173Z</time>
      </trkpt>
      <trkpt lat="59.39464" lon="24.29888">
        <ele>31.536722</ele>
        <time>2020-10-06T13:03:48.348Z</time>
      </trkpt>
      <trkpt lat="59.39455" lon="24.29869">
        <ele>31.734041</ele>
        <time>2020-10-06T13:03:51.839Z</time>
      </trkpt>
      <trkpt lat="59.39449" lon="24.29882">
        <ele>31.863896</ele>
        <time>2020-10-06T13:03:54.966Z</time>
      </trkpt>
      <trkpt lat="59.39429" lon="24.29846">
        <ele>32.260888</ele>
        <time>2020-10-06T13:04:02.091Z</time>
      </trkpt>
      <trkpt lat="59.39423" lon="24.29839">
        <ele>32.362404</ele>
        <time>2020-10-06T13:04:04.747Z</time>
      </trkpt>
      <trkpt lat="59.39416" lon="24.29838">
        <ele>32.4627</ele>
        <time>2020-10-06T13:04:06.589Z</time>
      </trkpt>
      <trkpt lat="59.39418" lon="24.29803">
        <ele>32.728223</ele>
        <time>2020-10-06T13:04:11.249Z</time>
      </trkpt>
      <trkpt lat="59.39387" lon="24.2974">
        <ele>33.383906</ele>
        <time>2020-10-06T13:04:24.262Z</time>
      </trkpt>
      <trkpt lat="59.39386" lon="24.29738">
        <ele>33.406469</ele>
        <time>2020-10-06T13:04:25.364Z</time>
      </trkpt>
      <trkpt lat="59.39381" lon="24.29746">
        <ele>33.497336</ele>
        <time>2020-10-06T13:04:27.089Z</time>
      </trkpt>
      <trkpt lat="59.3935" lon="24.29682">
        <ele>34.105567</ele>
        <time>2020-10-06T13:04:40.566Z</time>
      </trkpt>
      <trkpt lat="59.3931" lon="24.2958">
        <ele>34.63815</ele>
        <time>2020-10-06T13:05:00.129Z</time>
      </trkpt>
      <trkpt lat="59.39288" lon="24.29489">
        <ele>35.059414</ele>
        <time>2020-10-06T13:05:13.145Z</time>
      </trkpt>
      <trkpt lat="59.39282" lon="24.29389">
        <ele>35.477403</ele>
        <time>2020-10-06T13:05:23.950Z</time>
      </trkpt>
      <trkpt lat="59.39283" lon="24.29364">
        <ele>35.378056</ele>
        <time>2020-10-06T13:05:26.552Z</time>
      </trkpt>
      <trkpt lat="59.3929" lon="24.29295">
        <ele>34.918054</ele>
        <time>2020-10-06T13:05:33.641Z</time>
      </trkpt>
      <trkpt lat="59.39342" lon="24.28906">
        <ele>32.190715</ele>
        <time>2020-10-06T13:06:11.025Z</time>
      </trkpt>
      <trkpt lat="59.39375" lon="24.28649">
        <ele>30.381067</ele>
        <time>2020-10-06T13:06:36.129Z</time>
      </trkpt>
      <trkpt lat="59.39406" lon="24.28424">
        <ele>29.293087</ele>
        <time>2020-10-06T13:06:59.374Z</time>
      </trkpt>
      <trkpt lat="59.39428" lon="24.28276">
        <ele>28.820204</ele>
        <time>2020-10-06T13:07:15.558Z</time>
      </trkpt>
      <trkpt lat="59.39485" lon="24.27997">
        <ele>28.310671</ele>
        <time>2020-10-06T13:07:48.381Z</time>
      </trkpt>
      <trkpt lat="59.39587" lon="24.27608">
        <ele>27.910614</ele>
        <time>2020-10-06T13:08:36.006Z</time>
      </trkpt>
      <trkpt lat="59.3962" lon="24.27476">
        <ele>27.880298</ele>
        <time>2020-10-06T13:08:52.380Z</time>
      </trkpt>
      <trkpt lat="59.39673" lon="24.27285">
        <ele>28.498025</ele>
        <time>2020-10-06T13:09:18.413Z</time>
      </trkpt>
      <trkpt lat="59.39698" lon="24.2719">
        <ele>29.039856</ele>
        <time>2020-10-06T13:09:33.000Z</time>
      </trkpt>
      <trkpt lat="59.39723" lon="24.27073">
        <ele>29.722514</ele>
        <time>2020-10-06T13:09:51.341Z</time>
      </trkpt>
      <trkpt lat="59.39736" lon="24.26954">
        <ele>31.05475</ele>
        <time>2020-10-06T13:10:09.687Z</time>
      </trkpt>
      <trkpt lat="59.39741" lon="24.26542">
        <ele>35.891398</ele>
        <time>2020-10-06T13:11:16.660Z</time>
      </trkpt>
      <trkpt lat="59.39753" lon="24.2624">
        <ele>39.265375</ele>
        <time>2020-10-06T13:12:07.257Z</time>
      </trkpt>
      <trkpt lat="59.39764" lon="24.26084">
        <ele>40.742189</ele>
        <time>2020-10-06T13:12:31.073Z</time>
      </trkpt>
      <trkpt lat="59.39805" lon="24.25786">
        <ele>41.530834</ele>
        <time>2020-10-06T13:13:09.044Z</time>
      </trkpt>
      <trkpt lat="59.39816" lon="24.25636">
        <ele>41.422158</ele>
        <time>2020-10-06T13:13:24.705Z</time>
      </trkpt>
      <trkpt lat="59.39806" lon="24.25445">
        <ele>40.598254</ele>
        <time>2020-10-06T13:13:43.734Z</time>
      </trkpt>
      <trkpt lat="59.39776" lon="24.25152">
        <ele>39.590689</ele>
        <time>2020-10-06T13:14:13.637Z</time>
      </trkpt>
      <trkpt lat="59.39731" lon="24.24916">
        <ele>39.106827</ele>
        <time>2020-10-06T13:14:41.128Z</time>
      </trkpt>
      <trkpt lat="59.3965" lon="24.24628">
        <ele>39.039329</ele>
        <time>2020-10-06T13:15:19.150Z</time>
      </trkpt>
      <trkpt lat="59.3957" lon="24.24449">
        <ele>38.927946</ele>
        <time>2020-10-06T13:15:45.790Z</time>
      </trkpt>
      <trkpt lat="59.39483" lon="24.2432">
        <ele>38.707409</ele>
        <time>2020-10-06T13:16:08.726Z</time>
      </trkpt>
      <trkpt lat="59.39419" lon="24.24259">
        <ele>38.534814</ele>
        <time>2020-10-06T13:16:23.844Z</time>
      </trkpt>
      <trkpt lat="59.39051" lon="24.24189">
        <ele>37.894309</ele>
        <time>2020-10-06T13:17:44.029Z</time>
      </trkpt>
      <trkpt lat="59.3898" lon="24.24156">
        <ele>37.448201</ele>
        <time>2020-10-06T13:17:59.987Z</time>
      </trkpt>
      <trkpt lat="59.38895" lon="24.24106">
        <ele>36.780305</ele>
        <time>2020-10-06T13:18:17.989Z</time>
      </trkpt>
      <trkpt lat="59.38826" lon="24.24025">
        <ele>35.584088</ele>
        <time>2020-10-06T13:18:32.449Z</time>
      </trkpt>
      <trkpt lat="59.3875" lon="24.23936">
        <ele>33.754599</ele>
        <time>2020-10-06T13:18:47.737Z</time>
      </trkpt>
      <trkpt lat="59.38732" lon="24.23918">
        <ele>33.332014</ele>
        <time>2020-10-06T13:18:51.136Z</time>
      </trkpt>
      <trkpt lat="59.38644" lon="24.23797">
        <ele>31.540508</ele>
        <time>2020-10-06T13:19:09.833Z</time>
      </trkpt>
      <trkpt lat="59.38616" lon="24.23769">
        <ele>31.055802</ele>
        <time>2020-10-06T13:19:15.636Z</time>
      </trkpt>
      <trkpt lat="59.38611" lon="24.23765">
        <ele>30.971113</ele>
        <time>2020-10-06T13:19:16.671Z</time>
      </trkpt>
      <trkpt lat="59.38605" lon="24.2377">
        <ele>30.874902</ele>
        <time>2020-10-06T13:19:17.907Z</time>
      </trkpt>
      <trkpt lat="59.38596" lon="24.23774">
        <ele>30.73909</ele>
        <time>2020-10-06T13:19:19.627Z</time>
      </trkpt>
      <trkpt lat="59.3859" lon="24.23768">
        <ele>30.631577</ele>
        <time>2020-10-06T13:19:21.111Z</time>
      </trkpt>
      <trkpt lat="59.38557" lon="24.23735">
        <ele>30.069597</ele>
        <time>2020-10-06T13:19:28.758Z</time>
      </trkpt>
      <trkpt lat="59.3855" lon="24.23722">
        <ele>29.993384</ele>
        <time>2020-10-06T13:19:30.968Z</time>
      </trkpt>
      <trkpt lat="59.38549" lon="24.23715">
        <ele>29.980109</ele>
        <time>2020-10-06T13:19:31.734Z</time>
      </trkpt>
      <trkpt lat="59.38549" lon="24.23704">
        <ele>29.959378</ele>
        <time>2020-10-06T13:19:32.903Z</time>
      </trkpt>
      <trkpt lat="59.3855" lon="24.23681">
        <ele>29.916216</ele>
        <time>2020-10-06T13:19:35.359Z</time>
      </trkpt>
      <trkpt lat="59.38551" lon="24.23668">
        <ele>29.892987</ele>
        <time>2020-10-06T13:19:36.710Z</time>
      </trkpt>
      <trkpt lat="59.38551" lon="24.23668">
        <ele>29.892987</ele>
        <time>2020-10-06T13:19:36.716Z</time>
      </trkpt>
      <trkpt lat="59.38551" lon="24.23668">
        <ele>29.892987</ele>
        <time>2020-10-06T13:19:36.762Z</time>
      </trkpt>
      <trkpt lat="59.3855" lon="24.23681">
        <ele>29.869759</ele>
        <time>2020-10-06T13:19:38.095Z</time>
      </trkpt>
      <trkpt lat="59.38549" lon="24.23704">
        <ele>29.826597</ele>
        <time>2020-10-06T13:19:40.658Z</time>
      </trkpt>
      <trkpt lat="59.38532" lon="24.23674">
        <ele>29.742412</ele>
        <time>2020-10-06T13:19:45.387Z</time>
      </trkpt>
      <trkpt lat="59.38437" lon="24.23585">
        <ele>29.352719</ele>
        <time>2020-10-06T13:20:08.258Z</time>
      </trkpt>
      <trkpt lat="59.38396" lon="24.23562">
        <ele>29.188597</ele>
        <time>2020-10-06T13:20:17.218Z</time>
      </trkpt>
      <trkpt lat="59.38349" lon="24.23557">
        <ele>29.00829</ele>
        <time>2020-10-06T13:20:27.102Z</time>
      </trkpt>
      <trkpt lat="59.38307" lon="24.23581">
        <ele>28.837874</ele>
        <time>2020-10-06T13:20:36.402Z</time>
      </trkpt>
      <trkpt lat="59.38081" lon="24.23702">
        <ele>27.583812</ele>
        <time>2020-10-06T13:21:24.326Z</time>
      </trkpt>
      <trkpt lat="59.37931" lon="24.23777">
        <ele>26.207999</ele>
        <time>2020-10-06T13:21:54.498Z</time>
      </trkpt>
      <trkpt lat="59.37909" lon="24.23789">
        <ele>25.98534</ele>
        <time>2020-10-06T13:21:59.055Z</time>
      </trkpt>
      <trkpt lat="59.37886" lon="24.2381">
        <ele>25.722256</ele>
        <time>2020-10-06T13:22:03.845Z</time>
      </trkpt>
      <trkpt lat="59.3788" lon="24.23813">
        <ele>25.655574</ele>
        <time>2020-10-06T13:22:05.014Z</time>
      </trkpt>
      <trkpt lat="59.37838" lon="24.23836">
        <ele>25.183769</ele>
        <time>2020-10-06T13:22:13.514Z</time>
      </trkpt>
      <trkpt lat="59.37786" lon="24.23863">
        <ele>24.603088</ele>
        <time>2020-10-06T13:22:23.653Z</time>
      </trkpt>
      <trkpt lat="59.3775" lon="24.23883">
        <ele>24.2036</ele>
        <time>2020-10-06T13:22:30.674Z</time>
      </trkpt>
      <trkpt lat="59.37748" lon="24.23891">
        <ele>24.152482</ele>
        <time>2020-10-06T13:22:31.597Z</time>
      </trkpt>
      <trkpt lat="59.3772" lon="24.23914">
        <ele>23.984402</ele>
        <time>2020-10-06T13:22:37.442Z</time>
      </trkpt>
      <trkpt lat="59.37709" lon="24.23923">
        <ele>23.920957</ele>
        <time>2020-10-06T13:22:39.918Z</time>
      </trkpt>
      <trkpt lat="59.37696" lon="24.23939">
        <ele>23.837783</ele>
        <time>2020-10-06T13:22:43.191Z</time>
      </trkpt>
      <trkpt lat="59.37688" lon="24.23947">
        <ele>23.791648</ele>
        <time>2020-10-06T13:22:44.897Z</time>
      </trkpt>
      <trkpt lat="59.37641" lon="24.24011">
        <ele>23.490566</ele>
        <time>2020-10-06T13:22:57.020Z</time>
      </trkpt>
      <trkpt lat="59.3761" lon="24.2406">
        <ele>23.280906</ele>
        <time>2020-10-06T13:23:05.317Z</time>
      </trkpt>
      <trkpt lat="59.37571" lon="24.2412">
        <ele>23.129551</ele>
        <time>2020-10-06T13:23:15.631Z</time>
      </trkpt>
      <trkpt lat="59.37558" lon="24.24141">
        <ele>23.099729</ele>
        <time>2020-10-06T13:23:19.601Z</time>
      </trkpt>
      <trkpt lat="59.37547" lon="24.24163">
        <ele>23.072661</ele>
        <time>2020-10-06T13:23:22.885Z</time>
      </trkpt>
      <trkpt lat="59.37491" lon="24.24255">
        <ele>22.946345</ele>
        <time>2020-10-06T13:23:38.986Z</time>
      </trkpt>
      <trkpt lat="59.37476" lon="24.24275">
        <ele>22.914663</ele>
        <time>2020-10-06T13:23:43.272Z</time>
      </trkpt>
      <trkpt lat="59.37458" lon="24.24295">
        <ele>22.87855</ele>
        <time>2020-10-06T13:23:47.687Z</time>
      </trkpt>
      <trkpt lat="59.37302" lon="24.24451">
        <ele>22.319576</ele>
        <time>2020-10-06T13:24:24.488Z</time>
      </trkpt>
      <trkpt lat="59.37239" lon="24.24504">
        <ele>21.841255</ele>
        <time>2020-10-06T13:24:38.665Z</time>
      </trkpt>
      <trkpt lat="59.37183" lon="24.24527">
        <ele>21.407351</ele>
        <time>2020-10-06T13:24:50.168Z</time>
      </trkpt>
      <trkpt lat="59.37084" lon="24.24535">
        <ele>20.494497</ele>
        <time>2020-10-06T13:25:09.196Z</time>
      </trkpt>
      <trkpt lat="59.37" lon="24.24544">
        <ele>19.470312</ele>
        <time>2020-10-06T13:25:24.842Z</time>
      </trkpt>
      <trkpt lat="59.36844" lon="24.2458">
        <ele>17.759401</ele>
        <time>2020-10-06T13:25:54.535Z</time>
      </trkpt>
      <trkpt lat="59.3678" lon="24.24629">
        <ele>17.07006</ele>
        <time>2020-10-06T13:26:08.168Z</time>
      </trkpt>
      <trkpt lat="59.3671" lon="24.24699">
        <ele>16.548814</ele>
        <time>2020-10-06T13:26:24.107Z</time>
      </trkpt>
      <trkpt lat="59.36659" lon="24.24766">
        <ele>16.18447</ele>
        <time>2020-10-06T13:26:36.824Z</time>
      </trkpt>
      <trkpt lat="59.36582" lon="24.24897">
        <ele>15.512419</ele>
        <time>2020-10-06T13:26:57.447Z</time>
      </trkpt>
      <trkpt lat="59.36425" lon="24.25168">
        <ele>14.064931</ele>
        <time>2020-10-06T13:27:38.896Z</time>
      </trkpt>
      <trkpt lat="59.36229" lon="24.25473">
        <ele>12.953159</ele>
        <time>2020-10-06T13:28:30.881Z</time>
      </trkpt>
      <trkpt lat="59.36153" lon="24.2558">
        <ele>12.829271</ele>
        <time>2020-10-06T13:28:51.711Z</time>
      </trkpt>
      <trkpt lat="59.36102" lon="24.25655">
        <ele>12.81402</ele>
        <time>2020-10-06T13:29:06.014Z</time>
      </trkpt>
      <trkpt lat="59.35986" lon="24.25737">
        <ele>12.730723</ele>
        <time>2020-10-06T13:29:33.120Z</time>
      </trkpt>
      <trkpt lat="59.35888" lon="24.2571">
        <ele>12.630122</ele>
        <time>2020-10-06T13:29:54.484Z</time>
      </trkpt>
      <trkpt lat="59.3579" lon="24.25684">
        <ele>12.723519</ele>
        <time>2020-10-06T13:30:16.525Z</time>
      </trkpt>
      <trkpt lat="59.35746" lon="24.25688">
        <ele>12.778451</ele>
        <time>2020-10-06T13:30:26.716Z</time>
      </trkpt>
      <trkpt lat="59.35638" lon="24.2572">
        <ele>13.029447</ele>
        <time>2020-10-06T13:30:52.421Z</time>
      </trkpt>
      <trkpt lat="59.3535" lon="24.25818">
        <ele>14.028772</ele>
        <time>2020-10-06T13:32:01.504Z</time>
      </trkpt>
      <trkpt lat="59.35156" lon="24.26021">
        <ele>15.12794</ele>
        <time>2020-10-06T13:32:54.590Z</time>
      </trkpt>
      <trkpt lat="59.35138" lon="24.26051">
        <ele>15.31131</ele>
        <time>2020-10-06T13:33:00.418Z</time>
      </trkpt>
      <trkpt lat="59.35119" lon="24.26151">
        <ele>15.731044</ele>
        <time>2020-10-06T13:33:13.762Z</time>
      </trkpt>
      <trkpt lat="59.35105" lon="24.26306">
        <ele>16.475436</ele>
        <time>2020-10-06T13:33:34.541Z</time>
      </trkpt>
      <trkpt lat="59.35096" lon="24.26366">
        <ele>17.112797</ele>
        <time>2020-10-06T13:33:43.827Z</time>
      </trkpt>
      <trkpt lat="59.35085" lon="24.26407">
        <ele>17.578751</ele>
        <time>2020-10-06T13:33:50.844Z</time>
      </trkpt>
      <trkpt lat="59.35065" lon="24.26451">
        <ele>18.176146</ele>
        <time>2020-10-06T13:34:00.159Z</time>
      </trkpt>
      <trkpt lat="59.35045" lon="24.26475">
        <ele>18.653335</ele>
        <time>2020-10-06T13:34:07.885Z</time>
      </trkpt>
      <trkpt lat="59.35023" lon="24.26489">
        <ele>19.109677</ele>
        <time>2020-10-06T13:34:15.152Z</time>
      </trkpt>
      <trkpt lat="59.35008" lon="24.26504">
        <ele>19.447086</ele>
        <time>2020-10-06T13:34:23.167Z</time>
      </trkpt>
      <trkpt lat="59.3491" lon="24.26588">
        <ele>21.40753</ele>
        <time>2020-10-06T13:34:57.176Z</time>
      </trkpt>
      <trkpt lat="59.34857" lon="24.26616">
        <ele>22.373128</ele>
        <time>2020-10-06T13:35:13.179Z</time>
      </trkpt>
      <trkpt lat="59.34824" lon="24.26656">
        <ele>23.070777</ele>
        <time>2020-10-06T13:35:23.626Z</time>
      </trkpt>
      <trkpt lat="59.34735" lon="24.26788">
        <ele>22.984492</ele>
        <time>2020-10-06T13:35:48.622Z</time>
      </trkpt>
      <trkpt lat="59.34674" lon="24.26824">
        <ele>22.935612</ele>
        <time>2020-10-06T13:36:01.364Z</time>
      </trkpt>
      <trkpt lat="59.34611" lon="24.26853">
        <ele>22.570756</ele>
        <time>2020-10-06T13:36:14.374Z</time>
      </trkpt>
      <trkpt lat="59.34531" lon="24.26857">
        <ele>22.094749</ele>
        <time>2020-10-06T13:36:30.515Z</time>
      </trkpt>
      <trkpt lat="59.34501" lon="24.26847">
        <ele>21.911687</ele>
        <time>2020-10-06T13:36:36.788Z</time>
      </trkpt>
      <trkpt lat="59.34455" lon="24.2683">
        <ele>21.740856</ele>
        <time>2020-10-06T13:36:46.504Z</time>
      </trkpt>
      <trkpt lat="59.34369" lon="24.26767">
        <ele>21.451483</ele>
        <time>2020-10-06T13:37:06.515Z</time>
      </trkpt>
      <trkpt lat="59.34316" lon="24.26743">
        <ele>21.283677</ele>
        <time>2020-10-06T13:37:18.019Z</time>
      </trkpt>
      <trkpt lat="59.34252" lon="24.26726">
        <ele>21.131053</ele>
        <time>2020-10-06T13:37:31.147Z</time>
      </trkpt>
      <trkpt lat="59.34198" lon="24.26712">
        <ele>21.005068</ele>
        <time>2020-10-06T13:37:42.427Z</time>
      </trkpt>
      <trkpt lat="59.34199" lon="24.26687">
        <ele>20.974466</ele>
        <time>2020-10-06T13:37:45.429Z</time>
      </trkpt>
      <trkpt lat="59.34135" lon="24.26669">
        <ele>21.003382</ele>
        <time>2020-10-06T13:38:00.315Z</time>
      </trkpt>
      <trkpt lat="59.34123" lon="24.26666">
        <ele>21.08286</ele>
        <time>2020-10-06T13:38:03.234Z</time>
      </trkpt>
      <trkpt lat="59.34142" lon="24.2649">
        <ele>21.671099</ele>
        <time>2020-10-06T13:38:26.827Z</time>
      </trkpt>
      <trkpt lat="59.34146" lon="24.26421">
        <ele>21.895514</ele>
        <time>2020-10-06T13:38:35.984Z</time>
      </trkpt>
      <trkpt lat="59.34144" lon="24.26378">
        <ele>22.019024</ele>
        <time>2020-10-06T13:38:41.430Z</time>
      </trkpt>
      <trkpt lat="59.3414" lon="24.26353">
        <ele>21.998249</ele>
        <time>2020-10-06T13:38:45.044Z</time>
      </trkpt>
      <trkpt lat="59.34136" lon="24.26331">
        <ele>21.979584</ele>
        <time>2020-10-06T13:38:47.779Z</time>
      </trkpt>
      <trkpt lat="59.34126" lon="24.26279">
        <ele>21.934898</ele>
        <time>2020-10-06T13:38:54.634Z</time>
      </trkpt>
      <trkpt lat="59.34107" lon="24.2619">
        <ele>21.857565</ele>
        <time>2020-10-06T13:39:05.216Z</time>
      </trkpt>
      <trkpt lat="59.34084" lon="24.26086">
        <ele>21.766733</ele>
        <time>2020-10-06T13:39:17.090Z</time>
      </trkpt>
      <trkpt lat="59.34079" lon="24.26065">
        <ele>21.747998</ele>
        <time>2020-10-06T13:39:19.339Z</time>
      </trkpt>
      <trkpt lat="59.34016" lon="24.2579">
        <ele>20.43023</ele>
        <time>2020-10-06T13:39:48.915Z</time>
      </trkpt>
      <trkpt lat="59.33959" lon="24.25552">
        <ele>19.76898</ele>
        <time>2020-10-06T13:40:17.001Z</time>
      </trkpt>
      <trkpt lat="59.3392" lon="24.25427">
        <ele>19.489859</ele>
        <time>2020-10-06T13:40:32.963Z</time>
      </trkpt>
      <trkpt lat="59.33903" lon="24.25389">
        <ele>19.413038</ele>
        <time>2020-10-06T13:40:38.486Z</time>
      </trkpt>
      <trkpt lat="59.33767" lon="24.25132">
        <ele>18.742682</ele>
        <time>2020-10-06T13:41:18.527Z</time>
      </trkpt>
      <trkpt lat="59.33764" lon="24.25125">
        <ele>18.707139</ele>
        <time>2020-10-06T13:41:19.629Z</time>
      </trkpt>
      <trkpt lat="59.3375" lon="24.251">
        <ele>18.583109</ele>
        <time>2020-10-06T13:41:23.385Z</time>
      </trkpt>
      <trkpt lat="59.33733" lon="24.25061">
        <ele>18.404181</ele>
        <time>2020-10-06T13:41:28.739Z</time>
      </trkpt>
      <trkpt lat="59.33716" lon="24.24996">
        <ele>18.152472</ele>
        <time>2020-10-06T13:41:36.178Z</time>
      </trkpt>
      <trkpt lat="59.33647" lon="24.24659">
        <ele>16.256356</ele>
        <time>2020-10-06T13:42:12.454Z</time>
      </trkpt>
      <trkpt lat="59.33641" lon="24.24611">
        <ele>15.958236</ele>
        <time>2020-10-06T13:42:17.032Z</time>
      </trkpt>
      <trkpt lat="59.33638" lon="24.24563">
        <ele>15.665839</ele>
        <time>2020-10-06T13:42:21.335Z</time>
      </trkpt>
      <trkpt lat="59.33636" lon="24.24517">
        <ele>15.451562</ele>
        <time>2020-10-06T13:42:25.368Z</time>
      </trkpt>
      <trkpt lat="59.33637" lon="24.24452">
        <ele>15.175173</ele>
        <time>2020-10-06T13:42:31.489Z</time>
      </trkpt>
      <trkpt lat="59.33639" lon="24.24331">
        <ele>14.660409</ele>
        <time>2020-10-06T13:42:44.150Z</time>
      </trkpt>
      <trkpt lat="59.33641" lon="24.2424">
        <ele>14.275747</ele>
        <time>2020-10-06T13:42:53.870Z</time>
      </trkpt>
      <trkpt lat="59.33642" lon="24.24159">
        <ele>14.159533</ele>
        <time>2020-10-06T13:43:02.310Z</time>
      </trkpt>
      <trkpt lat="59.33646" lon="24.23955">
        <ele>14.400938</ele>
        <time>2020-10-06T13:43:27.207Z</time>
      </trkpt>
      <trkpt lat="59.3365" lon="24.23875">
        <ele>14.495549</ele>
        <time>2020-10-06T13:43:38.083Z</time>
      </trkpt>
      <trkpt lat="59.3366" lon="24.23697">
        <ele>14.294288</ele>
        <time>2020-10-06T13:43:57.949Z</time>
      </trkpt>
      <trkpt lat="59.33666" lon="24.23628">
        <ele>14.188182</ele>
        <time>2020-10-06T13:44:04.978Z</time>
      </trkpt>
      <trkpt lat="59.33675" lon="24.23521">
        <ele>14.024662</ele>
        <time>2020-10-06T13:44:15.943Z</time>
      </trkpt>
      <trkpt lat="59.33769" lon="24.22606">
        <ele>13.450208</ele>
        <time>2020-10-06T13:45:59.817Z</time>
      </trkpt>
      <trkpt lat="59.33781" lon="24.2251">
        <ele>13.458716</ele>
        <time>2020-10-06T13:46:11.706Z</time>
      </trkpt>
      <trkpt lat="59.33799" lon="24.22346">
        <ele>13.480973</ele>
        <time>2020-10-06T13:46:31.629Z</time>
      </trkpt>
      <trkpt lat="59.33811" lon="24.22261">
        <ele>13.49441</ele>
        <time>2020-10-06T13:46:42.084Z</time>
      </trkpt>
      <trkpt lat="59.33827" lon="24.22149">
        <ele>13.512053</ele>
        <time>2020-10-06T13:46:55.311Z</time>
      </trkpt>
      <trkpt lat="59.33857" lon="24.21963">
        <ele>12.789393</ele>
        <time>2020-10-06T13:47:15.495Z</time>
      </trkpt>
      <trkpt lat="59.33884" lon="24.21783">
        <ele>11.965304</ele>
        <time>2020-10-06T13:47:33.875Z</time>
      </trkpt>
      <trkpt lat="59.33886" lon="24.21767">
        <ele>11.862749</ele>
        <time>2020-10-06T13:47:35.291Z</time>
      </trkpt>
      <trkpt lat="59.33916" lon="24.21482">
        <ele>10.028684</ele>
        <time>2020-10-06T13:48:02.838Z</time>
      </trkpt>
      <trkpt lat="59.33924" lon="24.21387">
        <ele>9.74767</ele>
        <time>2020-10-06T13:48:12.687Z</time>
      </trkpt>
      <trkpt lat="59.33939" lon="24.21058">
        <ele>9.801939</ele>
        <time>2020-10-06T13:48:50.917Z</time>
      </trkpt>
      <trkpt lat="59.33944" lon="24.20893">
        <ele>10.399148</ele>
        <time>2020-10-06T13:49:12.638Z</time>
      </trkpt>
      <trkpt lat="59.33948" lon="24.20745">
        <ele>10.933874</ele>
        <time>2020-10-06T13:49:32.142Z</time>
      </trkpt>
      <trkpt lat="59.33949" lon="24.20738">
        <ele>10.962801</ele>
        <time>2020-10-06T13:49:33.159Z</time>
      </trkpt>
      <trkpt lat="59.33954" lon="24.20564">
        <ele>11.631993</ele>
        <time>2020-10-06T13:49:55.547Z</time>
      </trkpt>
      <trkpt lat="59.33957" lon="24.20483">
        <ele>11.94495</ele>
        <time>2020-10-06T13:50:05.896Z</time>
      </trkpt>
      <trkpt lat="59.33968" lon="24.20359">
        <ele>12.43748</ele>
        <time>2020-10-06T13:50:22.273Z</time>
      </trkpt>
      <trkpt lat="59.33981" lon="24.20281">
        <ele>12.778295</ele>
        <time>2020-10-06T13:50:33.214Z</time>
      </trkpt>
      <trkpt lat="59.33994" lon="24.20232">
        <ele>13.011421</ele>
        <time>2020-10-06T13:50:40.562Z</time>
      </trkpt>
      <trkpt lat="59.34015" lon="24.20174">
        <ele>13.301924</ele>
        <time>2020-10-06T13:50:49.776Z</time>
      </trkpt>
      <trkpt lat="59.34026" lon="24.20147">
        <ele>13.447643</ele>
        <time>2020-10-06T13:50:54.446Z</time>
      </trkpt>
      <trkpt lat="59.34047" lon="24.20097">
        <ele>13.713745</ele>
        <time>2020-10-06T13:51:02.920Z</time>
      </trkpt>
      <trkpt lat="59.3421" lon="24.19707">
        <ele>15.036016</ele>
        <time>2020-10-06T13:52:05.343Z</time>
      </trkpt>
      <trkpt lat="59.34252" lon="24.1958">
        <ele>15.357735</ele>
        <time>2020-10-06T13:52:23.390Z</time>
      </trkpt>
      <trkpt lat="59.34264" lon="24.19535">
        <ele>15.465546</ele>
        <time>2020-10-06T13:52:29.530Z</time>
      </trkpt>
      <trkpt lat="59.34286" lon="24.1945">
        <ele>15.780906</ele>
        <time>2020-10-06T13:52:41.398Z</time>
      </trkpt>
      <trkpt lat="59.34291" lon="24.1943">
        <ele>15.864098</ele>
        <time>2020-10-06T13:52:44.292Z</time>
      </trkpt>
      <trkpt lat="59.34295" lon="24.19412">
        <ele>15.933267</ele>
        <time>2020-10-06T13:52:46.707Z</time>
      </trkpt>
      <trkpt lat="59.34432" lon="24.18822">
        <ele>18.130262</ele>
        <time>2020-10-06T13:54:11.462Z</time>
      </trkpt>
      <trkpt lat="59.34456" lon="24.18718">
        <ele>18.104028</ele>
        <time>2020-10-06T13:54:23.904Z</time>
      </trkpt>
      <trkpt lat="59.3446" lon="24.18701">
        <ele>18.099802</ele>
        <time>2020-10-06T13:54:25.883Z</time>
      </trkpt>
      <trkpt lat="59.34489" lon="24.18542">
        <ele>18.08902</ele>
        <time>2020-10-06T13:54:43.943Z</time>
      </trkpt>
      <trkpt lat="59.34499" lon="24.18462">
        <ele>18.247029</ele>
        <time>2020-10-06T13:54:52.940Z</time>
      </trkpt>
      <trkpt lat="59.34501" lon="24.18429">
        <ele>18.309618</ele>
        <time>2020-10-06T13:54:56.736Z</time>
      </trkpt>
      <trkpt lat="59.34502" lon="24.18378">
        <ele>18.408179</ele>
        <time>2020-10-06T13:55:02.957Z</time>
      </trkpt>
      <trkpt lat="59.34498" lon="24.18303">
        <ele>18.554074</ele>
        <time>2020-10-06T13:55:12.490Z</time>
      </trkpt>
      <trkpt lat="59.3448" lon="24.18128">
        <ele>19.247809</ele>
        <time>2020-10-06T13:55:36.369Z</time>
      </trkpt>
      <trkpt lat="59.34433" lon="24.17865">
        <ele>20.979371</ele>
        <time>2020-10-06T13:56:15.869Z</time>
      </trkpt>
      <trkpt lat="59.3437" lon="24.17522">
        <ele>22.491333</ele>
        <time>2020-10-06T13:57:04.074Z</time>
      </trkpt>
      <trkpt lat="59.34298" lon="24.17128">
        <ele>22.217177</ele>
        <time>2020-10-06T13:57:49.594Z</time>
      </trkpt>
      <trkpt lat="59.34183" lon="24.165">
        <ele>21.442618</ele>
        <time>2020-10-06T13:59:02.701Z</time>
      </trkpt>
      <trkpt lat="59.34044" lon="24.15744">
        <ele>20.916328</ele>
        <time>2020-10-06T14:00:32.670Z</time>
      </trkpt>
      <trkpt lat="59.34014" lon="24.15543">
        <ele>20.6928</ele>
        <time>2020-10-06T14:00:55.205Z</time>
      </trkpt>
      <trkpt lat="59.34008" lon="24.15479">
        <ele>20.648362</ele>
        <time>2020-10-06T14:01:02.195Z</time>
      </trkpt>
      <trkpt lat="59.34001" lon="24.15363">
        <ele>20.56823</ele>
        <time>2020-10-06T14:01:14.848Z</time>
      </trkpt>
      <trkpt lat="59.34002" lon="24.14371">
        <ele>20.887904</ele>
        <time>2020-10-06T14:03:09.018Z</time>
      </trkpt>
      <trkpt lat="59.33998" lon="24.14065">
        <ele>21.501218</ele>
        <time>2020-10-06T14:03:47.008Z</time>
      </trkpt>
      <trkpt lat="59.33953" lon="24.12813">
        <ele>24.484287</ele>
        <time>2020-10-06T14:06:23.033Z</time>
      </trkpt>
      <trkpt lat="59.33928" lon="24.12086">
        <ele>23.859518</ele>
        <time>2020-10-06T14:07:41.766Z</time>
      </trkpt>
      <trkpt lat="59.33927" lon="24.11998">
        <ele>23.849614</ele>
        <time>2020-10-06T14:07:52.342Z</time>
      </trkpt>
      <trkpt lat="59.33939" lon="24.11727">
        <ele>24.254888</ele>
        <time>2020-10-06T14:08:25.998Z</time>
      </trkpt>
      <trkpt lat="59.33996" lon="24.10835">
        <ele>23.731338</ele>
        <time>2020-10-06T14:10:07.427Z</time>
      </trkpt>
      <trkpt lat="59.34021" lon="24.10436">
        <ele>22.235013</ele>
        <time>2020-10-06T14:10:46.545Z</time>
      </trkpt>
      <trkpt lat="59.33984" lon="24.10424">
        <ele>21.952117</ele>
        <time>2020-10-06T14:10:54.084Z</time>
      </trkpt>
      <trkpt lat="59.33971" lon="24.1042">
        <ele>21.849723</ele>
        <time>2020-10-06T14:10:56.963Z</time>
      </trkpt>
      <trkpt lat="59.33901" lon="24.10397">
        <ele>21.399217</ele>
        <time>2020-10-06T14:11:12.204Z</time>
      </trkpt>
      <trkpt lat="59.33659" lon="24.10313">
        <ele>19.868746</ele>
        <time>2020-10-06T14:12:02.237Z</time>
      </trkpt>
      <trkpt lat="59.33505" lon="24.10269">
        <ele>18.244241</ele>
        <time>2020-10-06T14:12:32.134Z</time>
      </trkpt>
      <trkpt lat="59.33425" lon="24.10269">
        <ele>17.215329</ele>
        <time>2020-10-06T14:12:47.208Z</time>
      </trkpt>
      <trkpt lat="59.33281" lon="24.1027">
        <ele>14.739723</ele>
        <time>2020-10-06T14:13:12.956Z</time>
      </trkpt>
      <trkpt lat="59.33209" lon="24.10248">
        <ele>13.476812</ele>
        <time>2020-10-06T14:13:25.812Z</time>
      </trkpt>
      <trkpt lat="59.33115" lon="24.10194">
        <ele>12.031401</ele>
        <time>2020-10-06T14:13:43.372Z</time>
      </trkpt>
      <trkpt lat="59.33112" lon="24.10209">
        <ele>11.907652</ele>
        <time>2020-10-06T14:13:44.915Z</time>
      </trkpt>
      <trkpt lat="59.33062" lon="24.10418">
        <ele>10.817179</ele>
        <time>2020-10-06T14:14:07.959Z</time>
      </trkpt>
      <trkpt lat="59.33031" lon="24.10533">
        <ele>10.561176</ele>
        <time>2020-10-06T14:14:22.741Z</time>
      </trkpt>
      <trkpt lat="59.32965" lon="24.1072">
        <ele>10.125998</ele>
        <time>2020-10-06T14:14:47.775Z</time>
      </trkpt>
      <trkpt lat="59.32936" lon="24.10806">
        <ele>9.932627</ele>
        <time>2020-10-06T14:14:58.893Z</time>
      </trkpt>
      <trkpt lat="59.32911" lon="24.1089">
        <ele>9.75137</ele>
        <time>2020-10-06T14:15:09.139Z</time>
      </trkpt>
      <trkpt lat="59.32899" lon="24.1094">
        <ele>9.639167</ele>
        <time>2020-10-06T14:15:14.873Z</time>
      </trkpt>
      <trkpt lat="59.32862" lon="24.11145">
        <ele>9.159319</ele>
        <time>2020-10-06T14:15:37.489Z</time>
      </trkpt>
      <trkpt lat="59.32846" lon="24.11234">
        <ele>8.950187</ele>
        <time>2020-10-06T14:15:47.951Z</time>
      </trkpt>
      <trkpt lat="59.32794" lon="24.11521">
        <ele>8.665932</ele>
        <time>2020-10-06T14:16:21.908Z</time>
      </trkpt>
      <trkpt lat="59.32776" lon="24.11609">
        <ele>8.527802</ele>
        <time>2020-10-06T14:16:32.295Z</time>
      </trkpt>
      <trkpt lat="59.32756" lon="24.11682">
        <ele>8.305268</ele>
        <time>2020-10-06T14:16:41.129Z</time>
      </trkpt>
      <trkpt lat="59.32716" lon="24.1179">
        <ele>7.945667</ele>
        <time>2020-10-06T14:16:55.041Z</time>
      </trkpt>
      <trkpt lat="59.32702" lon="24.11817">
        <ele>7.844637</ele>
        <time>2020-10-06T14:16:58.846Z</time>
      </trkpt>
      <trkpt lat="59.32688" lon="24.11844">
        <ele>7.74024</ele>
        <time>2020-10-06T14:17:02.845Z</time>
      </trkpt>
      <trkpt lat="59.32661" lon="24.11887">
        <ele>7.515349</ele>
        <time>2020-10-06T14:17:09.744Z</time>
      </trkpt>
      <trkpt lat="59.32463" lon="24.1212">
        <ele>5.962448</ele>
        <time>2020-10-06T14:17:55.838Z</time>
      </trkpt>
      <trkpt lat="59.32416" lon="24.12192">
        <ele>5.658169</ele>
        <time>2020-10-06T14:18:08.209Z</time>
      </trkpt>
      <trkpt lat="59.3238" lon="24.12264">
        <ele>5.410464</ele>
        <time>2020-10-06T14:18:18.981Z</time>
      </trkpt>
      <trkpt lat="59.32265" lon="24.12533">
        <ele>5.48374</ele>
        <time>2020-10-06T14:18:59.235Z</time>
      </trkpt>
      <trkpt lat="59.322" lon="24.12674">
        <ele>5.91439</ele>
        <time>2020-10-06T14:19:22.351Z</time>
      </trkpt>
      <trkpt lat="59.32139" lon="24.1277">
        <ele>6.26155</ele>
        <time>2020-10-06T14:19:41.645Z</time>
      </trkpt>
      <trkpt lat="59.32018" lon="24.12876">
        <ele>7.179733</ele>
        <time>2020-10-06T14:20:14.936Z</time>
      </trkpt>
      <trkpt lat="59.31943" lon="24.12933">
        <ele>7.657247</ele>
        <time>2020-10-06T14:20:35.177Z</time>
      </trkpt>
      <trkpt lat="59.31783" lon="24.13055">
        <ele>8.234689</ele>
        <time>2020-10-06T14:21:15.754Z</time>
      </trkpt>
      <trkpt lat="59.31588" lon="24.13186">
        <ele>8.06047</ele>
        <time>2020-10-06T14:22:00.327Z</time>
      </trkpt>
      <trkpt lat="59.31535" lon="24.1321">
        <ele>8.023163</ele>
        <time>2020-10-06T14:22:12.183Z</time>
      </trkpt>
      <trkpt lat="59.31467" lon="24.13221">
        <ele>7.976445</ele>
        <time>2020-10-06T14:22:27.399Z</time>
      </trkpt>
      <trkpt lat="59.31388" lon="24.13218">
        <ele>8.152915</ele>
        <time>2020-10-06T14:22:45.640Z</time>
      </trkpt>
      <trkpt lat="59.31039" lon="24.13071">
        <ele>9.000002</ele>
        <time>2020-10-06T14:24:09.711Z</time>
      </trkpt>
      <trkpt lat="59.30729" lon="24.12924">
        <ele>8.745537</ele>
        <time>2020-10-06T14:25:18.821Z</time>
      </trkpt>
      <trkpt lat="59.30705" lon="24.12908">
        <ele>8.759161</ele>
        <time>2020-10-06T14:25:24.187Z</time>
      </trkpt>
      <trkpt lat="59.30661" lon="24.1288">
        <ele>8.784424</ele>
        <time>2020-10-06T14:25:34.429Z</time>
      </trkpt>
      <trkpt lat="59.30595" lon="24.12832">
        <ele>8.822493</ele>
        <time>2020-10-06T14:25:50.854Z</time>
      </trkpt>
      <trkpt lat="59.30535" lon="24.12782">
        <ele>8.904986</ele>
        <time>2020-10-06T14:26:06.183Z</time>
      </trkpt>
      <trkpt lat="59.30503" lon="24.12752">
        <ele>8.955635</ele>
        <time>2020-10-06T14:26:14.227Z</time>
      </trkpt>
      <trkpt lat="59.30471" lon="24.12721">
        <ele>9.006763</ele>
        <time>2020-10-06T14:26:22.295Z</time>
      </trkpt>
      <trkpt lat="59.30468" lon="24.12718">
        <ele>9.011696</ele>
        <time>2020-10-06T14:26:23.097Z</time>
      </trkpt>
      <trkpt lat="59.30372" lon="24.1262">
        <ele>9.069573</ele>
        <time>2020-10-06T14:26:47.584Z</time>
      </trkpt>
      <trkpt lat="59.30319" lon="24.12565">
        <ele>9.052606</ele>
        <time>2020-10-06T14:27:00.554Z</time>
      </trkpt>
      <trkpt lat="59.30237" lon="24.1248">
        <ele>9.111166</ele>
        <time>2020-10-06T14:27:20.898Z</time>
      </trkpt>
      <trkpt lat="59.30122" lon="24.1236">
        <ele>9.452968</ele>
        <time>2020-10-06T14:27:51.642Z</time>
      </trkpt>
      <trkpt lat="59.29858" lon="24.1209">
        <ele>10.497454</ele>
        <time>2020-10-06T14:29:03.171Z</time>
      </trkpt>
      <trkpt lat="59.29774" lon="24.12025">
        <ele>10.689478</ele>
        <time>2020-10-06T14:29:23.355Z</time>
      </trkpt>
      <trkpt lat="59.29641" lon="24.11948">
        <ele>10.744537</ele>
        <time>2020-10-06T14:29:53.900Z</time>
      </trkpt>
      <trkpt lat="59.29596" lon="24.11929">
        <ele>10.859512</ele>
        <time>2020-10-06T14:30:04.578Z</time>
      </trkpt>
      <trkpt lat="59.29588" lon="24.12009">
        <ele>11.18149</ele>
        <time>2020-10-06T14:30:14.533Z</time>
      </trkpt>
      <trkpt lat="59.29541" lon="24.12261">
        <ele>12.308083</ele>
        <time>2020-10-06T14:30:50.221Z</time>
      </trkpt>
      <trkpt lat="59.29528" lon="24.12294">
        <ele>12.58607</ele>
        <time>2020-10-06T14:30:56.298Z</time>
      </trkpt>
      <trkpt lat="59.29501" lon="24.1232">
        <ele>12.978914</ele>
        <time>2020-10-06T14:31:04.608Z</time>
      </trkpt>
      <trkpt lat="59.29475" lon="24.12332">
        <ele>13.324939</ele>
        <time>2020-10-06T14:31:11.638Z</time>
      </trkpt>
      <trkpt lat="59.29465" lon="24.12337">
        <ele>13.460436</ele>
        <time>2020-10-06T14:31:14.876Z</time>
      </trkpt>
      <trkpt lat="59.29307" lon="24.12355">
        <ele>15.258436</ele>
        <time>2020-10-06T14:31:58.986Z</time>
      </trkpt>
      <trkpt lat="59.29246" lon="24.12307">
        <ele>15.88637</ele>
        <time>2020-10-06T14:32:15.681Z</time>
      </trkpt>
      <trkpt lat="59.29205" lon="24.12256">
        <ele>16.189794</ele>
        <time>2020-10-06T14:32:27.824Z</time>
      </trkpt>
      <trkpt lat="59.29173" lon="24.12232">
        <ele>16.107795</ele>
        <time>2020-10-06T14:32:35.676Z</time>
      </trkpt>
      <trkpt lat="59.29108" lon="24.12207">
        <ele>15.95041</ele>
        <time>2020-10-06T14:32:49.713Z</time>
      </trkpt>
      <trkpt lat="59.29082" lon="24.12202">
        <ele>15.886494</ele>
        <time>2020-10-06T14:32:55.127Z</time>
      </trkpt>
      <trkpt lat="59.29062" lon="24.12203">
        <ele>15.839673</ele>
        <time>2020-10-06T14:32:59.233Z</time>
      </trkpt>
      <trkpt lat="59.29045" lon="24.12208">
        <ele>15.796845</ele>
        <time>2020-10-06T14:33:02.601Z</time>
      </trkpt>
      <trkpt lat="59.28984" lon="24.12252">
        <ele>15.273438</ele>
        <time>2020-10-06T14:33:15.080Z</time>
      </trkpt>
      <trkpt lat="59.28927" lon="24.12334">
        <ele>14.685686</ele>
        <time>2020-10-06T14:33:28.827Z</time>
      </trkpt>
      <trkpt lat="59.28892" lon="24.12393">
        <ele>14.304625</ele>
        <time>2020-10-06T14:33:37.955Z</time>
      </trkpt>
      <trkpt lat="59.28874" lon="24.12437">
        <ele>14.303109</ele>
        <time>2020-10-06T14:33:44.213Z</time>
      </trkpt>
      <trkpt lat="59.28831" lon="24.12583">
        <ele>14.316433</ele>
        <time>2020-10-06T14:34:03.662Z</time>
      </trkpt>
      <trkpt lat="59.28822" lon="24.12616">
        <ele>14.319367</ele>
        <time>2020-10-06T14:34:08.205Z</time>
      </trkpt>
      <trkpt lat="59.28782" lon="24.12793">
        <ele>14.310023</ele>
        <time>2020-10-06T14:34:31.451Z</time>
      </trkpt>
      <trkpt lat="59.28752" lon="24.12944">
        <ele>14.283668</ele>
        <time>2020-10-06T14:34:49.718Z</time>
      </trkpt>
      <trkpt lat="59.28743" lon="24.12972">
        <ele>14.278357</ele>
        <time>2020-10-06T14:34:53.269Z</time>
      </trkpt>
      <trkpt lat="59.28717" lon="24.13015">
        <ele>14.272374</ele>
        <time>2020-10-06T14:35:00.356Z</time>
      </trkpt>
      <trkpt lat="59.28642" lon="24.13075">
        <ele>14.309406</ele>
        <time>2020-10-06T14:35:17.353Z</time>
      </trkpt>
      <trkpt lat="59.28605" lon="24.13087">
        <ele>14.326979</ele>
        <time>2020-10-06T14:35:26.106Z</time>
      </trkpt>
      <trkpt lat="59.28579" lon="24.13073">
        <ele>14.339048</ele>
        <time>2020-10-06T14:35:32.345Z</time>
      </trkpt>
      <trkpt lat="59.28567" lon="24.13057">
        <ele>14.345968</ele>
        <time>2020-10-06T14:35:35.968Z</time>
      </trkpt>
      <trkpt lat="59.28557" lon="24.13039">
        <ele>14.352052</ele>
        <time>2020-10-06T14:35:39.238Z</time>
      </trkpt>
      <trkpt lat="59.28532" lon="24.13086">
        <ele>14.648214</ele>
        <time>2020-10-06T14:35:47.857Z</time>
      </trkpt>
      <trkpt lat="59.2849" lon="24.13148">
        <ele>15.10351</ele>
        <time>2020-10-06T14:36:01.357Z</time>
      </trkpt>
      <trkpt lat="59.28444" lon="24.13195">
        <ele>15.55166</ele>
        <time>2020-10-06T14:36:15.264Z</time>
      </trkpt>
      <trkpt lat="59.28413" lon="24.13222">
        <ele>15.848074</ele>
        <time>2020-10-06T14:36:24.364Z</time>
      </trkpt>
      <trkpt lat="59.28348" lon="24.1325">
        <ele>16.246783</ele>
        <time>2020-10-06T14:36:41.337Z</time>
      </trkpt>
      <trkpt lat="59.28319" lon="24.13256">
        <ele>16.408737</ele>
        <time>2020-10-06T14:36:48.457Z</time>
      </trkpt>
      <trkpt lat="59.28282" lon="24.13257">
        <ele>16.618009</ele>
        <time>2020-10-06T14:36:57.397Z</time>
      </trkpt>
      <trkpt lat="59.28163" lon="24.13237">
        <ele>17.168648</ele>
        <time>2020-10-06T14:37:25.258Z</time>
      </trkpt>
      <trkpt lat="59.28072" lon="24.13219">
        <ele>17.506941</ele>
        <time>2020-10-06T14:37:46.685Z</time>
      </trkpt>
      <trkpt lat="59.28064" lon="24.13217">
        <ele>17.539283</ele>
        <time>2020-10-06T14:37:48.799Z</time>
      </trkpt>
      <trkpt lat="59.27985" lon="24.13195">
        <ele>18.166381</ele>
        <time>2020-10-06T14:38:08.829Z</time>
      </trkpt>
      <trkpt lat="59.27716" lon="24.13102">
        <ele>20.619835</ele>
        <time>2020-10-06T14:39:20.769Z</time>
      </trkpt>
      <trkpt lat="59.27671" lon="24.13101">
        <ele>20.869224</ele>
        <time>2020-10-06T14:39:31.751Z</time>
      </trkpt>
      <trkpt lat="59.27626" lon="24.1311">
        <ele>20.965381</ele>
        <time>2020-10-06T14:39:42.411Z</time>
      </trkpt>
      <trkpt lat="59.27585" lon="24.1313">
        <ele>21.056538</ele>
        <time>2020-10-06T14:39:52.301Z</time>
      </trkpt>
      <trkpt lat="59.27523" lon="24.13175">
        <ele>21.196883</ele>
        <time>2020-10-06T14:40:06.948Z</time>
      </trkpt>
      <trkpt lat="59.27494" lon="24.13205">
        <ele>21.135052</ele>
        <time>2020-10-06T14:40:13.907Z</time>
      </trkpt>
      <trkpt lat="59.27391" lon="24.13362">
        <ele>20.826284</ele>
        <time>2020-10-06T14:40:42.082Z</time>
      </trkpt>
      <trkpt lat="59.27128" lon="24.13823">
        <ele>19.762842</ele>
        <time>2020-10-06T14:41:55.281Z</time>
      </trkpt>
      <trkpt lat="59.27051" lon="24.13981">
        <ele>20.257252</ele>
        <time>2020-10-06T14:42:24.523Z</time>
      </trkpt>
      <trkpt lat="59.26989" lon="24.14141">
        <ele>20.808777</ele>
        <time>2020-10-06T14:42:50.705Z</time>
      </trkpt>
      <trkpt lat="59.26858" lon="24.14501">
        <ele>19.118325</ele>
        <time>2020-10-06T14:43:35.523Z</time>
      </trkpt>
      <trkpt lat="59.26773" lon="24.14678">
        <ele>17.382267</ele>
        <time>2020-10-06T14:43:57.976Z</time>
      </trkpt>
      <trkpt lat="59.26737" lon="24.14741">
        <ele>16.923126</ele>
        <time>2020-10-06T14:44:06.795Z</time>
      </trkpt>
      <trkpt lat="59.26693" lon="24.14825">
        <ele>16.343897</ele>
        <time>2020-10-06T14:44:18.553Z</time>
      </trkpt>
      <trkpt lat="59.26624" lon="24.14944">
        <ele>15.752686</ele>
        <time>2020-10-06T14:44:37.529Z</time>
      </trkpt>
      <trkpt lat="59.26593" lon="24.14983">
        <ele>15.919435</ele>
        <time>2020-10-06T14:44:46.008Z</time>
      </trkpt>
      <trkpt lat="59.26568" lon="24.15006">
        <ele>16.040826</ele>
        <time>2020-10-06T14:44:52.470Z</time>
      </trkpt>
      <trkpt lat="59.26506" lon="24.15049">
        <ele>16.338351</ele>
        <time>2020-10-06T14:45:08.889Z</time>
      </trkpt>
      <trkpt lat="59.26457" lon="24.15067">
        <ele>16.696905</ele>
        <time>2020-10-06T14:45:21.906Z</time>
      </trkpt>
      <trkpt lat="59.2639" lon="24.15076">
        <ele>17.471956</ele>
        <time>2020-10-06T14:45:40.523Z</time>
      </trkpt>
      <trkpt lat="59.26212" lon="24.15092">
        <ele>18.957733</ele>
        <time>2020-10-06T14:46:28.464Z</time>
      </trkpt>
      <trkpt lat="59.26204" lon="24.15091">
        <ele>18.996719</ele>
        <time>2020-10-06T14:46:30.432Z</time>
      </trkpt>
      <trkpt lat="59.26154" lon="24.15087">
        <ele>19.239444</ele>
        <time>2020-10-06T14:46:42.029Z</time>
      </trkpt>
      <trkpt lat="59.2596" lon="24.15054">
        <ele>18.718059</ele>
        <time>2020-10-06T14:47:21.870Z</time>
      </trkpt>
      <trkpt lat="59.25919" lon="24.1506">
        <ele>18.659227</ele>
        <time>2020-10-06T14:47:30.413Z</time>
      </trkpt>
      <trkpt lat="59.25854" lon="24.15087">
        <ele>18.787342</ele>
        <time>2020-10-06T14:47:45.652Z</time>
      </trkpt>
      <trkpt lat="59.25833" lon="24.15103">
        <ele>18.829962</ele>
        <time>2020-10-06T14:47:50.854Z</time>
      </trkpt>
      <trkpt lat="59.25803" lon="24.15128">
        <ele>18.891582</ele>
        <time>2020-10-06T14:47:58.724Z</time>
      </trkpt>
      <trkpt lat="59.25773" lon="24.15159">
        <ele>18.955952</ele>
        <time>2020-10-06T14:48:07.036Z</time>
      </trkpt>
      <trkpt lat="59.25746" lon="24.1519">
        <ele>19.049428</ele>
        <time>2020-10-06T14:48:14.857Z</time>
      </trkpt>
      <trkpt lat="59.25684" lon="24.15262">
        <ele>19.277151</ele>
        <time>2020-10-06T14:48:32.717Z</time>
      </trkpt>
      <trkpt lat="59.25618" lon="24.15327">
        <ele>19.511168</ele>
        <time>2020-10-06T14:48:49.753Z</time>
      </trkpt>
      <trkpt lat="59.25588" lon="24.15348">
        <ele>19.310839</ele>
        <time>2020-10-06T14:48:56.531Z</time>
      </trkpt>
      <trkpt lat="59.25526" lon="24.15374">
        <ele>18.751308</ele>
        <time>2020-10-06T14:49:08.967Z</time>
      </trkpt>
      <trkpt lat="59.25455" lon="24.15376">
        <ele>18.110397</ele>
        <time>2020-10-06T14:49:22.530Z</time>
      </trkpt>
      <trkpt lat="59.25317" lon="24.15345">
        <ele>16.921074</ele>
        <time>2020-10-06T14:49:48.330Z</time>
      </trkpt>
      <trkpt lat="59.25252" lon="24.15351">
        <ele>16.418281</ele>
        <time>2020-10-06T14:50:02.228Z</time>
      </trkpt>
      <trkpt lat="59.25189" lon="24.15379">
        <ele>16.973469</ele>
        <time>2020-10-06T14:50:17.734Z</time>
      </trkpt>
      <trkpt lat="59.25169" lon="24.15396">
        <ele>17.156165</ele>
        <time>2020-10-06T14:50:23.114Z</time>
      </trkpt>
      <trkpt lat="59.25148" lon="24.15413">
        <ele>17.351883</ele>
        <time>2020-10-06T14:50:29.522Z</time>
      </trkpt>
      <trkpt lat="59.25107" lon="24.15457">
        <ele>17.751293</ele>
        <time>2020-10-06T14:50:42.310Z</time>
      </trkpt>
      <trkpt lat="59.2507" lon="24.15512">
        <ele>18.297517</ele>
        <time>2020-10-06T14:50:55.759Z</time>
      </trkpt>
      <trkpt lat="59.25027" lon="24.15592">
        <ele>19.149418</ele>
        <time>2020-10-06T14:51:13.480Z</time>
      </trkpt>
      <trkpt lat="59.24903" lon="24.15913">
        <ele>21.631026</ele>
        <time>2020-10-06T14:52:08.932Z</time>
      </trkpt>
      <trkpt lat="59.24894" lon="24.15942">
        <ele>21.807462</ele>
        <time>2020-10-06T14:52:13.523Z</time>
      </trkpt>
      <trkpt lat="59.24848" lon="24.16088">
        <ele>22.568315</ele>
        <time>2020-10-06T14:52:35.447Z</time>
      </trkpt>
      <trkpt lat="59.24828" lon="24.16167">
        <ele>22.858441</ele>
        <time>2020-10-06T14:52:46.593Z</time>
      </trkpt>
      <trkpt lat="59.24754" lon="24.16558">
        <ele>24.027215</ele>
        <time>2020-10-06T14:53:39.702Z</time>
      </trkpt>
      <trkpt lat="59.24737" lon="24.16623">
        <ele>24.19741</ele>
        <time>2020-10-06T14:53:48.744Z</time>
      </trkpt>
      <trkpt lat="59.24688" lon="24.16753">
        <ele>24.090651</ele>
        <time>2020-10-06T14:54:07.116Z</time>
      </trkpt>
      <trkpt lat="59.24638" lon="24.16838">
        <ele>23.805639</ele>
        <time>2020-10-06T14:54:20.739Z</time>
      </trkpt>
      <trkpt lat="59.24611" lon="24.16872">
        <ele>23.668701</ele>
        <time>2020-10-06T14:54:27.042Z</time>
      </trkpt>
      <trkpt lat="59.24581" lon="24.16905">
        <ele>23.496682</ele>
        <time>2020-10-06T14:54:33.877Z</time>
      </trkpt>
      <trkpt lat="59.24567" lon="24.16918">
        <ele>23.387986</ele>
        <time>2020-10-06T14:54:36.769Z</time>
      </trkpt>
      <trkpt lat="59.24484" lon="24.16962">
        <ele>22.7626</ele>
        <time>2020-10-06T14:54:53.653Z</time>
      </trkpt>
      <trkpt lat="59.24446" lon="24.16971">
        <ele>22.489394</ele>
        <time>2020-10-06T14:55:01.284Z</time>
      </trkpt>
      <trkpt lat="59.24399" lon="24.1697">
        <ele>22.284111</ele>
        <time>2020-10-06T14:55:11.118Z</time>
      </trkpt>
      <trkpt lat="59.24359" lon="24.1696">
        <ele>22.364731</ele>
        <time>2020-10-06T14:55:19.827Z</time>
      </trkpt>
      <trkpt lat="59.24262" lon="24.16907">
        <ele>22.571091</ele>
        <time>2020-10-06T14:55:43.783Z</time>
      </trkpt>
      <trkpt lat="59.24045" lon="24.16776">
        <ele>23.799935</ele>
        <time>2020-10-06T14:56:40.517Z</time>
      </trkpt>
      <trkpt lat="59.24033" lon="24.16769">
        <ele>23.826884</ele>
        <time>2020-10-06T14:56:43.491Z</time>
      </trkpt>
      <trkpt lat="59.2398" lon="24.16737">
        <ele>23.944899</ele>
        <time>2020-10-06T14:56:55.658Z</time>
      </trkpt>
      <trkpt lat="59.23887" lon="24.16708">
        <ele>24.174921</ele>
        <time>2020-10-06T14:57:16.880Z</time>
      </trkpt>
      <trkpt lat="59.23856" lon="24.16705">
        <ele>24.450454</ele>
        <time>2020-10-06T14:57:24.501Z</time>
      </trkpt>
      <trkpt lat="59.238" lon="24.16699">
        <ele>24.941814</ele>
        <time>2020-10-06T14:57:38.673Z</time>
      </trkpt>
      <trkpt lat="59.23748" lon="24.16693">
        <ele>25.402411</ele>
        <time>2020-10-06T14:57:52.991Z</time>
      </trkpt>
      <trkpt lat="59.23698" lon="24.16681">
        <ele>25.81369</ele>
        <time>2020-10-06T14:58:06.537Z</time>
      </trkpt>
      <trkpt lat="59.23621" lon="24.16639">
        <ele>26.373507</ele>
        <time>2020-10-06T14:58:28.954Z</time>
      </trkpt>
      <trkpt lat="59.2337" lon="24.16442">
        <ele>26.861789</ele>
        <time>2020-10-06T14:59:28.873Z</time>
      </trkpt>
      <trkpt lat="59.23294" lon="24.16394">
        <ele>26.884445</ele>
        <time>2020-10-06T14:59:45.843Z</time>
      </trkpt>
      <trkpt lat="59.23237" lon="24.16377">
        <ele>26.900539</ele>
        <time>2020-10-06T14:59:58.637Z</time>
      </trkpt>
      <trkpt lat="59.23149" lon="24.1639">
        <ele>27.214064</ele>
        <time>2020-10-06T15:00:19.804Z</time>
      </trkpt>
      <trkpt lat="59.23117" lon="24.16401">
        <ele>27.405798</ele>
        <time>2020-10-06T15:00:28.130Z</time>
      </trkpt>
      <trkpt lat="59.23084" lon="24.16415">
        <ele>27.605689</ele>
        <time>2020-10-06T15:00:36.983Z</time>
      </trkpt>
      <trkpt lat="59.23022" lon="24.16439">
        <ele>27.976294</ele>
        <time>2020-10-06T15:00:52.815Z</time>
      </trkpt>
      <trkpt lat="59.22961" lon="24.16445">
        <ele>27.891914</ele>
        <time>2020-10-06T15:01:07.003Z</time>
      </trkpt>
      <trkpt lat="59.22958" lon="24.16445">
        <ele>27.888052</ele>
        <time>2020-10-06T15:01:07.610Z</time>
      </trkpt>
      <trkpt lat="59.22935" lon="24.16441">
        <ele>27.855306</ele>
        <time>2020-10-06T15:01:12.726Z</time>
      </trkpt>
      <trkpt lat="59.22822" lon="24.16426">
        <ele>27.519587</ele>
        <time>2020-10-06T15:01:36.213Z</time>
      </trkpt>
      <trkpt lat="59.2277" lon="24.16416">
        <ele>27.018722</ele>
        <time>2020-10-06T15:01:46.246Z</time>
      </trkpt>
      <trkpt lat="59.22748" lon="24.16404">
        <ele>26.800314</ele>
        <time>2020-10-06T15:01:50.816Z</time>
      </trkpt>
      <trkpt lat="59.22738" lon="24.16407">
        <ele>26.70473</ele>
        <time>2020-10-06T15:01:52.447Z</time>
      </trkpt>
      <trkpt lat="59.22731" lon="24.16411">
        <ele>26.628022</ele>
        <time>2020-10-06T15:01:54.298Z</time>
      </trkpt>
      <trkpt lat="59.22717" lon="24.1633">
        <ele>26.208666</ele>
        <time>2020-10-06T15:02:02.651Z</time>
      </trkpt>
      <trkpt lat="59.22711" lon="24.16301">
        <ele>26.053766</ele>
        <time>2020-10-06T15:02:05.448Z</time>
      </trkpt>
      <trkpt lat="59.22685" lon="24.16328">
        <ele>25.743294</ele>
        <time>2020-10-06T15:02:11.920Z</time>
      </trkpt>
      <trkpt lat="59.22687" lon="24.16318">
        <ele>25.686081</ele>
        <time>2020-10-06T15:02:12.720Z</time>
      </trkpt>
      <trkpt lat="59.22699" lon="24.16296">
        <ele>25.502329</ele>
        <time>2020-10-06T15:02:16.367Z</time>
      </trkpt>
      <trkpt lat="59.22701" lon="24.16283">
        <ele>25.428648</ele>
        <time>2020-10-06T15:02:17.793Z</time>
      </trkpt>
      <trkpt lat="59.22692" lon="24.16225">
        <ele>25.094499</ele>
        <time>2020-10-06T15:02:23.646Z</time>
      </trkpt>
      <trkpt lat="59.22684" lon="24.1621">
        <ele>24.977746</ele>
        <time>2020-10-06T15:02:25.804Z</time>
      </trkpt>
      <trkpt lat="59.2266" lon="24.16101">
        <ele>24.320583</ele>
        <time>2020-10-06T15:02:36.999Z</time>
      </trkpt>
      <trkpt lat="59.22618" lon="24.15823">
        <ele>23.737961</ele>
        <time>2020-10-06T15:03:07.140Z</time>
      </trkpt>
      <trkpt lat="59.22602" lon="24.15602">
        <ele>24.069788</ele>
        <time>2020-10-06T15:03:35.112Z</time>
      </trkpt>
      <trkpt lat="59.22595" lon="24.15259">
        <ele>25.465981</ele>
        <time>2020-10-06T15:04:21.475Z</time>
      </trkpt>
      <trkpt lat="59.22604" lon="24.15146">
        <ele>25.887812</ele>
        <time>2020-10-06T15:04:36.309Z</time>
      </trkpt>
      <trkpt lat="59.22621" lon="24.15021">
        <ele>26.36764</ele>
        <time>2020-10-06T15:04:52.783Z</time>
      </trkpt>
      <trkpt lat="59.22695" lon="24.14753">
        <ele>26.121772</ele>
        <time>2020-10-06T15:05:27.742Z</time>
      </trkpt>
      <trkpt lat="59.22709" lon="24.14687">
        <ele>25.927115</ele>
        <time>2020-10-06T15:05:34.807Z</time>
      </trkpt>
      <trkpt lat="59.22744" lon="24.14569">
        <ele>24.921597</ele>
        <time>2020-10-06T15:05:52.254Z</time>
      </trkpt>
      <trkpt lat="59.22752" lon="24.14557">
        <ele>24.787481</ele>
        <time>2020-10-06T15:05:54.010Z</time>
      </trkpt>
      <trkpt lat="59.22767" lon="24.14573">
        <ele>24.5443</ele>
        <time>2020-10-06T15:05:57.201Z</time>
      </trkpt>
      <trkpt lat="59.22817" lon="24.14402">
        <ele>23.187665</ele>
        <time>2020-10-06T15:06:15.753Z</time>
      </trkpt>
      <trkpt lat="59.22849" lon="24.14288">
        <ele>22.436408</ele>
        <time>2020-10-06T15:06:28.446Z</time>
      </trkpt>
      <trkpt lat="59.22853" lon="24.14204">
        <ele>21.948528</ele>
        <time>2020-10-06T15:06:36.830Z</time>
      </trkpt>
      <trkpt lat="59.22852" lon="24.14182">
        <ele>21.820726</ele>
        <time>2020-10-06T15:06:39.117Z</time>
      </trkpt>
      <trkpt lat="59.22868" lon="24.14168">
        <ele>21.615437</ele>
        <time>2020-10-06T15:06:42.893Z</time>
      </trkpt>
      <trkpt lat="59.22867" lon="24.14157">
        <ele>21.550543</ele>
        <time>2020-10-06T15:06:43.993Z</time>
      </trkpt>
      <trkpt lat="59.22853" lon="24.14055">
        <ele>20.861129</ele>
        <time>2020-10-06T15:06:54.532Z</time>
      </trkpt>
      <trkpt lat="59.22853" lon="24.14036">
        <ele>20.733192</ele>
        <time>2020-10-06T15:06:56.475Z</time>
      </trkpt>
      <trkpt lat="59.22846" lon="24.1397">
        <ele>20.284582</ele>
        <time>2020-10-06T15:07:02.956Z</time>
      </trkpt>
      <trkpt lat="59.22843" lon="24.13946">
        <ele>20.126581</ele>
        <time>2020-10-06T15:07:06.932Z</time>
      </trkpt>
      <trkpt lat="59.22841" lon="24.13928">
        <ele>20.001258</ele>
        <time>2020-10-06T15:07:08.699Z</time>
      </trkpt>
      <trkpt lat="59.22829" lon="24.13894">
        <ele>19.728356</ele>
        <time>2020-10-06T15:07:12.677Z</time>
      </trkpt>
      <trkpt lat="59.22827" lon="24.13877">
        <ele>19.608997</ele>
        <time>2020-10-06T15:07:14.246Z</time>
      </trkpt>
      <trkpt lat="59.22818" lon="24.13743">
        <ele>18.885663</ele>
        <time>2020-10-06T15:07:26.825Z</time>
      </trkpt>
      <trkpt lat="59.22817" lon="24.13259">
        <ele>17.484251</ele>
        <time>2020-10-06T15:08:17.489Z</time>
      </trkpt>
      <trkpt lat="59.22821" lon="24.13208">
        <ele>17.419126</ele>
        <time>2020-10-06T15:08:23.485Z</time>
      </trkpt>
      <trkpt lat="59.22819" lon="24.13187">
        <ele>17.392822</ele>
        <time>2020-10-06T15:08:25.969Z</time>
      </trkpt>
      <trkpt lat="59.2281" lon="24.13154">
        <ele>17.346499</ele>
        <time>2020-10-06T15:08:30.308Z</time>
      </trkpt>
      <trkpt lat="59.2278" lon="24.13002">
        <ele>17.572643</ele>
        <time>2020-10-06T15:08:49.837Z</time>
      </trkpt>
      <trkpt lat="59.22575" lon="24.12147">
        <ele>19.79138</ele>
        <time>2020-10-06T15:10:47.598Z</time>
      </trkpt>
      <trkpt lat="59.22543" lon="24.12017">
        <ele>19.72942</ele>
        <time>2020-10-06T15:11:04.330Z</time>
      </trkpt>
      <trkpt lat="59.22474" lon="24.11755">
        <ele>19.332078</ele>
        <time>2020-10-06T15:11:36.087Z</time>
      </trkpt>
      <trkpt lat="59.22457" lon="24.11687">
        <ele>19.088311</ele>
        <time>2020-10-06T15:11:43.900Z</time>
      </trkpt>
      <trkpt lat="59.22449" lon="24.11681">
        <ele>19.035708</ele>
        <time>2020-10-06T15:11:45.598Z</time>
      </trkpt>
      <trkpt lat="59.22441" lon="24.11685">
        <ele>18.983215</ele>
        <time>2020-10-06T15:11:47.295Z</time>
      </trkpt>
      <trkpt lat="59.22377" lon="24.11445">
        <ele>18.105765</ele>
        <time>2020-10-06T15:12:14.823Z</time>
      </trkpt>
      <trkpt lat="59.22275" lon="24.11064">
        <ele>16.99833</ele>
        <time>2020-10-06T15:12:59.835Z</time>
      </trkpt>
      <trkpt lat="59.22244" lon="24.10951">
        <ele>16.768117</ele>
        <time>2020-10-06T15:13:13.971Z</time>
      </trkpt>
      <trkpt lat="59.22221" lon="24.10869">
        <ele>16.696691</ele>
        <time>2020-10-06T15:13:24.530Z</time>
      </trkpt>
      <trkpt lat="59.22212" lon="24.1084">
        <ele>16.681715</ele>
        <time>2020-10-06T15:13:28.468Z</time>
      </trkpt>
      <trkpt lat="59.22192" lon="24.10786">
        <ele>16.651996</ele>
        <time>2020-10-06T15:13:36.173Z</time>
      </trkpt>
      <trkpt lat="59.21938" lon="24.10223">
        <ele>16.403184</ele>
        <time>2020-10-06T15:15:00.382Z</time>
      </trkpt>
      <trkpt lat="59.21863" lon="24.1008">
        <ele>16.536739</ele>
        <time>2020-10-06T15:15:24.242Z</time>
      </trkpt>
      <trkpt lat="59.2166" lon="24.09712">
        <ele>17.780417</ele>
        <time>2020-10-06T15:16:30.901Z</time>
      </trkpt>
      <trkpt lat="59.21769" lon="24.0948">
        <ele>18.894166</ele>
        <time>2020-10-06T15:17:11.486Z</time>
      </trkpt>
      <trkpt lat="59.21818" lon="24.09326">
        <ele>19.671399</ele>
        <time>2020-10-06T15:17:35.400Z</time>
      </trkpt>
      <trkpt lat="59.21847" lon="24.09148">
        <ele>20.664046</ele>
        <time>2020-10-06T15:18:00.764Z</time>
      </trkpt>
      <trkpt lat="59.21863" lon="24.08966">
        <ele>21.654623</ele>
        <time>2020-10-06T15:18:26.127Z</time>
      </trkpt>
      <trkpt lat="59.21927" lon="24.07962">
        <ele>27.029586</ele>
        <time>2020-10-06T15:20:43.181Z</time>
      </trkpt>
      <trkpt lat="59.2193" lon="24.07906">
        <ele>27.271827</ele>
        <time>2020-10-06T15:20:50.706Z</time>
      </trkpt>
      <trkpt lat="59.21939" lon="24.07708">
        <ele>28.127852</ele>
        <time>2020-10-06T15:21:17.123Z</time>
      </trkpt>
      <trkpt lat="59.21942" lon="24.0741">
        <ele>28.57471</ele>
        <time>2020-10-06T15:21:54.167Z</time>
      </trkpt>
      <trkpt lat="59.21918" lon="24.06968">
        <ele>27.720565</ele>
        <time>2020-10-06T15:22:40.712Z</time>
      </trkpt>
      <trkpt lat="59.21901" lon="24.0681">
        <ele>27.560083</ele>
        <time>2020-10-06T15:22:57.111Z</time>
      </trkpt>
      <trkpt lat="59.21816" lon="24.06004">
        <ele>27.110448</ele>
        <time>2020-10-06T15:24:31.263Z</time>
      </trkpt>
      <trkpt lat="59.21737" lon="24.0527">
        <ele>26.510702</ele>
        <time>2020-10-06T15:25:54.030Z</time>
      </trkpt>
      <trkpt lat="59.21729" lon="24.05125">
        <ele>26.570087</ele>
        <time>2020-10-06T15:26:11.317Z</time>
      </trkpt>
      <trkpt lat="59.21731" lon="24.04836">
        <ele>26.770711</ele>
        <time>2020-10-06T15:26:45.862Z</time>
      </trkpt>
      <trkpt lat="59.21737" lon="24.04773">
        <ele>26.727837</ele>
        <time>2020-10-06T15:26:53.144Z</time>
      </trkpt>
      <trkpt lat="59.21744" lon="24.04719">
        <ele>26.6906</ele>
        <time>2020-10-06T15:26:59.359Z</time>
      </trkpt>
      <trkpt lat="59.21753" lon="24.04664">
        <ele>26.652123</ele>
        <time>2020-10-06T15:27:05.583Z</time>
      </trkpt>
      <trkpt lat="59.21758" lon="24.04628">
        <ele>26.627668</ele>
        <time>2020-10-06T15:27:09.615Z</time>
      </trkpt>
      <trkpt lat="59.21771" lon="24.04554">
        <ele>26.575263</ele>
        <time>2020-10-06T15:27:18.162Z</time>
      </trkpt>
      <trkpt lat="59.21798" lon="24.04432">
        <ele>26.512744</ele>
        <time>2020-10-06T15:27:32.797Z</time>
      </trkpt>
      <trkpt lat="59.21805" lon="24.0441">
        <ele>26.501936</ele>
        <time>2020-10-06T15:27:35.443Z</time>
      </trkpt>
      <trkpt lat="59.21832" lon="24.04319">
        <ele>26.455825</ele>
        <time>2020-10-06T15:27:47.362Z</time>
      </trkpt>
      <trkpt lat="59.21868" lon="24.04214">
        <ele>26.417562</ele>
        <time>2020-10-06T15:28:02.258Z</time>
      </trkpt>
      <trkpt lat="59.21885" lon="24.0417">
        <ele>26.44178</ele>
        <time>2020-10-06T15:28:08.697Z</time>
      </trkpt>
      <trkpt lat="59.2203" lon="24.0386">
        <ele>26.433053</ele>
        <time>2020-10-06T15:28:57.260Z</time>
      </trkpt>
      <trkpt lat="59.22027" lon="24.0385">
        <ele>26.422143</ele>
        <time>2020-10-06T15:28:58.586Z</time>
      </trkpt>
      <trkpt lat="59.22029" lon="24.03803">
        <ele>26.378924</ele>
        <time>2020-10-06T15:29:04.023Z</time>
      </trkpt>
      <trkpt lat="59.22059" lon="24.03662">
        <ele>26.234409</ele>
        <time>2020-10-06T15:29:21.215Z</time>
      </trkpt>
      <trkpt lat="59.22085" lon="24.03564">
        <ele>25.993602</ele>
        <time>2020-10-06T15:29:33.393Z</time>
      </trkpt>
      <trkpt lat="59.22094" lon="24.03509">
        <ele>25.869777</ele>
        <time>2020-10-06T15:29:39.657Z</time>
      </trkpt>
      <trkpt lat="59.22103" lon="24.03407">
        <ele>25.644065</ele>
        <time>2020-10-06T15:29:51.179Z</time>
      </trkpt>
      <trkpt lat="59.22116" lon="24.03357">
        <ele>25.521307</ele>
        <time>2020-10-06T15:29:57.564Z</time>
      </trkpt>
      <trkpt lat="59.22124" lon="24.03335">
        <ele>25.470462</ele>
        <time>2020-10-06T15:30:00.482Z</time>
      </trkpt>
      <trkpt lat="59.22125" lon="24.03329">
        <ele>25.462866</ele>
        <time>2020-10-06T15:30:01.344Z</time>
      </trkpt>
      <trkpt lat="59.22188" lon="24.03143">
        <ele>25.224116</ele>
        <time>2020-10-06T15:30:26.925Z</time>
      </trkpt>
      <trkpt lat="59.22341" lon="24.02794">
        <ele>24.680389</ele>
        <time>2020-10-06T15:31:20.163Z</time>
      </trkpt>
      <trkpt lat="59.22349" lon="24.0279">
        <ele>24.643647</ele>
        <time>2020-10-06T15:31:21.904Z</time>
      </trkpt>
      <trkpt lat="59.22353" lon="24.02766">
        <ele>24.555624</ele>
        <time>2020-10-06T15:31:24.413Z</time>
      </trkpt>
      <trkpt lat="59.22427" lon="24.02408">
        <ele>23.451475</ele>
        <time>2020-10-06T15:32:03.597Z</time>
      </trkpt>
      <trkpt lat="59.22444" lon="24.02319">
        <ele>23.452823</ele>
        <time>2020-10-06T15:32:14.439Z</time>
      </trkpt>
      <trkpt lat="59.2245" lon="24.0229">
        <ele>23.45328</ele>
        <time>2020-10-06T15:32:18.300Z</time>
      </trkpt>
      <trkpt lat="59.22473" lon="24.02185">
        <ele>23.454905</ele>
        <time>2020-10-06T15:32:32.492Z</time>
      </trkpt>
      <trkpt lat="59.22493" lon="24.02196">
        <ele>23.455491</ele>
        <time>2020-10-06T15:32:37.204Z</time>
      </trkpt>
      <trkpt lat="59.22503" lon="24.02146">
        <ele>23.351303</ele>
        <time>2020-10-06T15:32:43.633Z</time>
      </trkpt>
      <trkpt lat="59.22519" lon="24.02044">
        <ele>23.133868</ele>
        <time>2020-10-06T15:32:55.587Z</time>
      </trkpt>
      <trkpt lat="59.22538" lon="24.01974">
        <ele>22.971623</ele>
        <time>2020-10-06T15:33:04.161Z</time>
      </trkpt>
      <trkpt lat="59.22548" lon="24.01929">
        <ele>22.87062</ele>
        <time>2020-10-06T15:33:09.197Z</time>
      </trkpt>
      <trkpt lat="59.22562" lon="24.0184">
        <ele>22.594925</ele>
        <time>2020-10-06T15:33:18.452Z</time>
      </trkpt>
      <trkpt lat="59.22611" lon="24.01667">
        <ele>21.593836</ele>
        <time>2020-10-06T15:33:37.441Z</time>
      </trkpt>
      <trkpt lat="59.22625" lon="24.0164">
        <ele>21.39844</ele>
        <time>2020-10-06T15:33:41.315Z</time>
      </trkpt>
      <trkpt lat="59.22653" lon="24.01547">
        <ele>20.906005</ele>
        <time>2020-10-06T15:33:52.427Z</time>
      </trkpt>
      <trkpt lat="59.22659" lon="24.01508">
        <ele>20.807183</ele>
        <time>2020-10-06T15:33:56.548Z</time>
      </trkpt>
      <trkpt lat="59.22666" lon="24.01471">
        <ele>20.708469</ele>
        <time>2020-10-06T15:34:00.807Z</time>
      </trkpt>
      <trkpt lat="59.22683" lon="24.01415">
        <ele>20.549737</ele>
        <time>2020-10-06T15:34:07.582Z</time>
      </trkpt>
      <trkpt lat="59.22706" lon="24.01335">
        <ele>20.324968</ele>
        <time>2020-10-06T15:34:17.341Z</time>
      </trkpt>
      <trkpt lat="59.2272" lon="24.01279">
        <ele>20.172431</ele>
        <time>2020-10-06T15:34:24.096Z</time>
      </trkpt>
      <trkpt lat="59.22725" lon="24.01259">
        <ele>20.117837</ele>
        <time>2020-10-06T15:34:26.481Z</time>
      </trkpt>
      <trkpt lat="59.22743" lon="24.01198">
        <ele>20.073821</ele>
        <time>2020-10-06T15:34:34.292Z</time>
      </trkpt>
      <trkpt lat="59.2277" lon="24.0109">
        <ele>20.032567</ele>
        <time>2020-10-06T15:34:47.416Z</time>
      </trkpt>
      <trkpt lat="59.22795" lon="24.00981">
        <ele>19.991172</ele>
        <time>2020-10-06T15:35:01.024Z</time>
      </trkpt>
      <trkpt lat="59.22839" lon="24.00764">
        <ele>20.249525</ele>
        <time>2020-10-06T15:35:29.428Z</time>
      </trkpt>
      <trkpt lat="59.22845" lon="24.00701">
        <ele>20.345891</ele>
        <time>2020-10-06T15:35:37.148Z</time>
      </trkpt>
      <trkpt lat="59.22854" lon="24.00654">
        <ele>20.420601</ele>
        <time>2020-10-06T15:35:43.235Z</time>
      </trkpt>
      <trkpt lat="59.22844" lon="24.00648">
        <ele>20.448853</ele>
        <time>2020-10-06T15:35:45.358Z</time>
      </trkpt>
      <trkpt lat="59.22874" lon="24.005">
        <ele>20.615879</ele>
        <time>2020-10-06T15:36:04.022Z</time>
      </trkpt>
      <trkpt lat="59.22931" lon="24.00192">
        <ele>21.10127</ele>
        <time>2020-10-06T15:36:42.665Z</time>
      </trkpt>
      <trkpt lat="59.22949" lon="24.001">
        <ele>21.375319</ele>
        <time>2020-10-06T15:36:55.269Z</time>
      </trkpt>
      <trkpt lat="59.22973" lon="23.99989">
        <ele>21.706086</ele>
        <time>2020-10-06T15:37:10.800Z</time>
      </trkpt>
      <trkpt lat="59.22989" lon="23.9989">
        <ele>21.900195</ele>
        <time>2020-10-06T15:37:24.173Z</time>
      </trkpt>
      <trkpt lat="59.23006" lon="23.99776">
        <ele>22.06888</ele>
        <time>2020-10-06T15:37:39.113Z</time>
      </trkpt>
      <trkpt lat="59.23012" lon="23.99723">
        <ele>22.146861</ele>
        <time>2020-10-06T15:37:45.693Z</time>
      </trkpt>
      <trkpt lat="59.23025" lon="23.99661">
        <ele>22.242223</ele>
        <time>2020-10-06T15:37:53.297Z</time>
      </trkpt>
      <trkpt lat="59.23063" lon="23.99527">
        <ele>21.902285</ele>
        <time>2020-10-06T15:38:09.440Z</time>
      </trkpt>
      <trkpt lat="59.23089" lon="23.99465">
        <ele>21.61964</ele>
        <time>2020-10-06T15:38:17.362Z</time>
      </trkpt>
      <trkpt lat="59.23116" lon="23.99393">
        <ele>21.307934</ele>
        <time>2020-10-06T15:38:26.239Z</time>
      </trkpt>
      <trkpt lat="59.23154" lon="23.99294">
        <ele>20.988546</ele>
        <time>2020-10-06T15:38:38.951Z</time>
      </trkpt>
      <trkpt lat="59.23181" lon="23.99229">
        <ele>20.877428</ele>
        <time>2020-10-06T15:38:47.665Z</time>
      </trkpt>
      <trkpt lat="59.23213" lon="23.99147">
        <ele>20.739686</ele>
        <time>2020-10-06T15:38:58.921Z</time>
      </trkpt>
      <trkpt lat="59.23234" lon="23.99082">
        <ele>20.636847</ele>
        <time>2020-10-06T15:39:07.832Z</time>
      </trkpt>
      <trkpt lat="59.23248" lon="23.99039">
        <ele>20.615261</ele>
        <time>2020-10-06T15:39:13.978Z</time>
      </trkpt>
      <trkpt lat="59.23282" lon="23.98928">
        <ele>20.802474</ele>
        <time>2020-10-06T15:39:29.828Z</time>
      </trkpt>
      <trkpt lat="59.23323" lon="23.98803">
        <ele>21.018904</ele>
        <time>2020-10-06T15:39:47.823Z</time>
      </trkpt>
      <trkpt lat="59.23365" lon="23.98655">
        <ele>21.138336</ele>
        <time>2020-10-06T15:40:07.619Z</time>
      </trkpt>
      <trkpt lat="59.23384" lon="23.98532">
        <ele>21.180067</ele>
        <time>2020-10-06T15:40:22.271Z</time>
      </trkpt>
      <trkpt lat="59.23383" lon="23.97802">
        <ele>21.28059</ele>
        <time>2020-10-06T15:41:45.947Z</time>
      </trkpt>
      <trkpt lat="59.23371" lon="23.97656">
        <ele>21.251781</ele>
        <time>2020-10-06T15:42:02.955Z</time>
      </trkpt>
      <trkpt lat="59.23286" lon="23.97109">
        <ele>20.876923</ele>
        <time>2020-10-06T15:43:06.759Z</time>
      </trkpt>
      <trkpt lat="59.23268" lon="23.96933">
        <ele>20.87512</ele>
        <time>2020-10-06T15:43:26.501Z</time>
      </trkpt>
      <trkpt lat="59.23267" lon="23.96882">
        <ele>20.897867</ele>
        <time>2020-10-06T15:43:32.126Z</time>
      </trkpt>
      <trkpt lat="59.23267" lon="23.96843">
        <ele>20.915531</ele>
        <time>2020-10-06T15:43:36.723Z</time>
      </trkpt>
      <trkpt lat="59.23282" lon="23.96674">
        <ele>21.066545</ele>
        <time>2020-10-06T15:43:57.049Z</time>
      </trkpt>
      <trkpt lat="59.23356" lon="23.95975">
        <ele>23.746909</ele>
        <time>2020-10-06T15:45:30.807Z</time>
      </trkpt>
      <trkpt lat="59.23431" lon="23.95455">
        <ele>23.646551</ele>
        <time>2020-10-06T15:46:32.383Z</time>
      </trkpt>
      <trkpt lat="59.23455" lon="23.95335">
        <ele>23.475847</ele>
        <time>2020-10-06T15:46:45.608Z</time>
      </trkpt>
      <trkpt lat="59.23464" lon="23.95294">
        <ele>23.361108</ele>
        <time>2020-10-06T15:46:50.176Z</time>
      </trkpt>
      <trkpt lat="59.23551" lon="23.94984">
        <ele>22.501521</ele>
        <time>2020-10-06T15:47:27.359Z</time>
      </trkpt>
      <trkpt lat="59.23648" lon="23.94681">
        <ele>22.064867</ele>
        <time>2020-10-06T15:48:07.024Z</time>
      </trkpt>
      <trkpt lat="59.23848" lon="23.94173">
        <ele>21.308688</ele>
        <time>2020-10-06T15:49:16.919Z</time>
      </trkpt>
      <trkpt lat="59.23962" lon="23.93898">
        <ele>21.572407</ele>
        <time>2020-10-06T15:49:58.638Z</time>
      </trkpt>
      <trkpt lat="59.24058" lon="23.93663">
        <ele>22.293219</ele>
        <time>2020-10-06T15:50:35.730Z</time>
      </trkpt>
      <trkpt lat="59.24136" lon="23.93464">
        <ele>23.102297</ele>
        <time>2020-10-06T15:51:07.783Z</time>
      </trkpt>
      <trkpt lat="59.24269" lon="23.93087">
        <ele>24.5058</ele>
        <time>2020-10-06T15:52:06.525Z</time>
      </trkpt>
      <trkpt lat="59.24313" lon="23.9299">
        <ele>24.635614</ele>
        <time>2020-10-06T15:52:21.655Z</time>
      </trkpt>
      <trkpt lat="59.24484" lon="23.9272">
        <ele>24.593995</ele>
        <time>2020-10-06T15:53:09.315Z</time>
      </trkpt>
      <trkpt lat="59.2455" lon="23.92554">
        <ele>24.667779</ele>
        <time>2020-10-06T15:53:34.125Z</time>
      </trkpt>
      <trkpt lat="59.24702" lon="23.92121">
        <ele>24.834727</ele>
        <time>2020-10-06T15:54:35.746Z</time>
      </trkpt>
      <trkpt lat="59.24733" lon="23.92073">
        <ele>24.783094</ele>
        <time>2020-10-06T15:54:43.942Z</time>
      </trkpt>
      <trkpt lat="59.24805" lon="23.91996">
        <ele>24.752096</ele>
        <time>2020-10-06T15:55:00.786Z</time>
      </trkpt>
      <trkpt lat="59.24911" lon="23.91886">
        <ele>24.849745</ele>
        <time>2020-10-06T15:55:27.832Z</time>
      </trkpt>
      <trkpt lat="59.24991" lon="23.91806">
        <ele>25.366368</ele>
        <time>2020-10-06T15:55:50.781Z</time>
      </trkpt>
      <trkpt lat="59.25139" lon="23.91645">
        <ele>26.325212</ele>
        <time>2020-10-06T15:56:34.008Z</time>
      </trkpt>
      <trkpt lat="59.25191" lon="23.91604">
        <ele>26.439707</ele>
        <time>2020-10-06T15:56:46.820Z</time>
      </trkpt>
      <trkpt lat="59.25216" lon="23.91571">
        <ele>26.500959</ele>
        <time>2020-10-06T15:56:53.462Z</time>
      </trkpt>
      <trkpt lat="59.2523" lon="23.91541">
        <ele>26.543276</ele>
        <time>2020-10-06T15:56:57.718Z</time>
      </trkpt>
      <trkpt lat="59.25246" lon="23.91538">
        <ele>26.577115</ele>
        <time>2020-10-06T15:57:01.851Z</time>
      </trkpt>
      <trkpt lat="59.25262" lon="23.9154">
        <ele>26.586367</ele>
        <time>2020-10-06T15:57:05.646Z</time>
      </trkpt>
      <trkpt lat="59.25282" lon="23.91525">
        <ele>26.59632</ele>
        <time>2020-10-06T15:57:10.646Z</time>
      </trkpt>
      <trkpt lat="59.25353" lon="23.91451">
        <ele>26.635821</ele>
        <time>2020-10-06T15:57:30.460Z</time>
      </trkpt>
      <trkpt lat="59.25363" lon="23.91445">
        <ele>26.640821</ele>
        <time>2020-10-06T15:57:32.821Z</time>
      </trkpt>
      <trkpt lat="59.25485" lon="23.91368">
        <ele>27.018247</ele>
        <time>2020-10-06T15:58:06.859Z</time>
      </trkpt>
      <trkpt lat="59.25539" lon="23.91286">
        <ele>27.335257</ele>
        <time>2020-10-06T15:58:25.404Z</time>
      </trkpt>
      <trkpt lat="59.25617" lon="23.91113">
        <ele>27.74195</ele>
        <time>2020-10-06T15:58:56.488Z</time>
      </trkpt>
      <trkpt lat="59.25723" lon="23.90946">
        <ele>28.142533</ele>
        <time>2020-10-06T15:59:31.408Z</time>
      </trkpt>
      <trkpt lat="59.25824" lon="23.90897">
        <ele>28.454542</ele>
        <time>2020-10-06T15:59:58.500Z</time>
      </trkpt>
      <trkpt lat="59.25889" lon="23.90805">
        <ele>28.427434</ele>
        <time>2020-10-06T16:00:19.266Z</time>
      </trkpt>
      <trkpt lat="59.25942" lon="23.90757">
        <ele>28.239202</ele>
        <time>2020-10-06T16:00:33.606Z</time>
      </trkpt>
      <trkpt lat="59.26036" lon="23.90618">
        <ele>27.433899</ele>
        <time>2020-10-06T16:00:59.748Z</time>
      </trkpt>
      <trkpt lat="59.26077" lon="23.90569">
        <ele>26.753904</ele>
        <time>2020-10-06T16:01:09.782Z</time>
      </trkpt>
      <trkpt lat="59.26083" lon="23.9056">
        <ele>26.644523</ele>
        <time>2020-10-06T16:01:11.346Z</time>
      </trkpt>
      <trkpt lat="59.26141" lon="23.90472">
        <ele>25.611293</ele>
        <time>2020-10-06T16:01:26.223Z</time>
      </trkpt>
      <trkpt lat="59.26189" lon="23.90363">
        <ele>24.548115</ele>
        <time>2020-10-06T16:01:41.217Z</time>
      </trkpt>
      <trkpt lat="59.26222" lon="23.90216">
        <ele>23.371667</ele>
        <time>2020-10-06T16:01:58.246Z</time>
      </trkpt>
      <trkpt lat="59.26241" lon="23.90008">
        <ele>22.496801</ele>
        <time>2020-10-06T16:02:22.188Z</time>
      </trkpt>
      <trkpt lat="59.26221" lon="23.89575">
        <ele>21.679079</ele>
        <time>2020-10-06T16:03:15.475Z</time>
      </trkpt>
      <trkpt lat="59.26219" lon="23.89482">
        <ele>21.563816</ele>
        <time>2020-10-06T16:03:26.920Z</time>
      </trkpt>
      <trkpt lat="59.26222" lon="23.89307">
        <ele>21.165256</ele>
        <time>2020-10-06T16:03:48.021Z</time>
      </trkpt>
      <trkpt lat="59.26206" lon="23.89144">
        <ele>20.747808</ele>
        <time>2020-10-06T16:04:07.381Z</time>
      </trkpt>
      <trkpt lat="59.26207" lon="23.89034">
        <ele>20.453982</ele>
        <time>2020-10-06T16:04:20.174Z</time>
      </trkpt>
      <trkpt lat="59.26191" lon="23.88798">
        <ele>19.802552</ele>
        <time>2020-10-06T16:04:47.770Z</time>
      </trkpt>
      <trkpt lat="59.26168" lon="23.88587">
        <ele>19.42322</ele>
        <time>2020-10-06T16:05:14.197Z</time>
      </trkpt>
      <trkpt lat="59.26107" lon="23.88153">
        <ele>18.442447</ele>
        <time>2020-10-06T16:06:09.074Z</time>
      </trkpt>
      <trkpt lat="59.26096" lon="23.88046">
        <ele>18.05175</ele>
        <time>2020-10-06T16:06:20.988Z</time>
      </trkpt>
      <trkpt lat="59.26093" lon="23.88013">
        <ele>17.80907</ele>
        <time>2020-10-06T16:06:24.628Z</time>
      </trkpt>
      <trkpt lat="59.26088" lon="23.87943">
        <ele>17.30427</ele>
        <time>2020-10-06T16:06:32.130Z</time>
      </trkpt>
      <trkpt lat="59.26083" lon="23.87919">
        <ele>17.116165</ele>
        <time>2020-10-06T16:06:34.863Z</time>
      </trkpt>
      <trkpt lat="59.26045" lon="23.87799">
        <ele>16.102183</ele>
        <time>2020-10-06T16:06:49.572Z</time>
      </trkpt>
      <trkpt lat="59.25923" lon="23.87665">
        <ele>14.639119</ele>
        <time>2020-10-06T16:07:19.384Z</time>
      </trkpt>
      <trkpt lat="59.25918" lon="23.87648">
        <ele>14.544552</ele>
        <time>2020-10-06T16:07:21.552Z</time>
      </trkpt>
      <trkpt lat="59.25927" lon="23.87605">
        <ele>14.319035</ele>
        <time>2020-10-06T16:07:26.582Z</time>
      </trkpt>
      <trkpt lat="59.25961" lon="23.87362">
        <ele>13.818752</ele>
        <time>2020-10-06T16:07:53.652Z</time>
      </trkpt>
      <trkpt lat="59.25968" lon="23.87316">
        <ele>13.776265</ele>
        <time>2020-10-06T16:07:59.165Z</time>
      </trkpt>
      <trkpt lat="59.25974" lon="23.87268">
        <ele>13.731578</ele>
        <time>2020-10-06T16:08:05.075Z</time>
      </trkpt>
      <trkpt lat="59.25977" lon="23.87248">
        <ele>13.712907</ele>
        <time>2020-10-06T16:08:07.430Z</time>
      </trkpt>
      <trkpt lat="59.25998" lon="23.87127">
        <ele>13.689621</ele>
        <time>2020-10-06T16:08:22.120Z</time>
      </trkpt>
      <trkpt lat="59.26026" lon="23.86999">
        <ele>13.729278</ele>
        <time>2020-10-06T16:08:38.511Z</time>
      </trkpt>
      <trkpt lat="59.26051" lon="23.86915">
        <ele>13.756868</ele>
        <time>2020-10-06T16:08:50.188Z</time>
      </trkpt>
      <trkpt lat="59.26139" lon="23.86686">
        <ele>14.29965</ele>
        <time>2020-10-06T16:09:25.945Z</time>
      </trkpt>
      <trkpt lat="59.26168" lon="23.86623">
        <ele>14.480769</ele>
        <time>2020-10-06T16:09:37.090Z</time>
      </trkpt>
      <trkpt lat="59.26208" lon="23.86557">
        <ele>14.921412</ele>
        <time>2020-10-06T16:09:51.024Z</time>
      </trkpt>
      <trkpt lat="59.26359" lon="23.86399">
        <ele>16.362477</ele>
        <time>2020-10-06T16:10:37.972Z</time>
      </trkpt>
      <trkpt lat="59.26411" lon="23.86359">
        <ele>16.608293</ele>
        <time>2020-10-06T16:10:52.696Z</time>
      </trkpt>
      <trkpt lat="59.26517" lon="23.8634">
        <ele>16.918103</ele>
        <time>2020-10-06T16:11:17.644Z</time>
      </trkpt>
      <trkpt lat="59.26562" lon="23.86316">
        <ele>16.685628</ele>
        <time>2020-10-06T16:11:27.661Z</time>
      </trkpt>
      <trkpt lat="59.26614" lon="23.86302">
        <ele>16.427878</ele>
        <time>2020-10-06T16:11:38.528Z</time>
      </trkpt>
      <trkpt lat="59.26642" lon="23.86268">
        <ele>16.261586</ele>
        <time>2020-10-06T16:11:45.503Z</time>
      </trkpt>
      <trkpt lat="59.26694" lon="23.86178">
        <ele>16.029671</ele>
        <time>2020-10-06T16:12:00.095Z</time>
      </trkpt>
      <trkpt lat="59.26772" lon="23.86017">
        <ele>15.801012</ele>
        <time>2020-10-06T16:12:25.906Z</time>
      </trkpt>
      <trkpt lat="59.26825" lon="23.85866">
        <ele>15.825375</ele>
        <time>2020-10-06T16:12:48.812Z</time>
      </trkpt>
      <trkpt lat="59.26867" lon="23.85792">
        <ele>15.896492</ele>
        <time>2020-10-06T16:13:02.540Z</time>
      </trkpt>
      <trkpt lat="59.26886" lon="23.85742">
        <ele>15.935965</ele>
        <time>2020-10-06T16:13:09.942Z</time>
      </trkpt>
      <trkpt lat="59.26898" lon="23.85597">
        <ele>15.737108</ele>
        <time>2020-10-06T16:13:26.578Z</time>
      </trkpt>
      <trkpt lat="59.26934" lon="23.85419">
        <ele>15.274156</ele>
        <time>2020-10-06T16:13:47.269Z</time>
      </trkpt>
      <trkpt lat="59.26979" lon="23.85317">
        <ele>15.165531</ele>
        <time>2020-10-06T16:14:02.280Z</time>
      </trkpt>
      <trkpt lat="59.27002" lon="23.85229">
        <ele>15.2348</ele>
        <time>2020-10-06T16:14:13.664Z</time>
      </trkpt>
      <trkpt lat="59.27136" lon="23.84933">
        <ele>15.989183</ele>
        <time>2020-10-06T16:15:04.897Z</time>
      </trkpt>
      <trkpt lat="59.27184" lon="23.8485">
        <ele>16.356731</ele>
        <time>2020-10-06T16:15:21.423Z</time>
      </trkpt>
      <trkpt lat="59.27224" lon="23.84816">
        <ele>16.613543</ele>
        <time>2020-10-06T16:15:32.792Z</time>
      </trkpt>
      <trkpt lat="59.27254" lon="23.84773">
        <ele>16.8277</ele>
        <time>2020-10-06T16:15:42.231Z</time>
      </trkpt>
      <trkpt lat="59.27306" lon="23.84699">
        <ele>17.202753</ele>
        <time>2020-10-06T16:15:58.654Z</time>
      </trkpt>
      <trkpt lat="59.27399" lon="23.84543">
        <ele>17.810487</ele>
        <time>2020-10-06T16:16:29.772Z</time>
      </trkpt>
      <trkpt lat="59.27437" lon="23.84451">
        <ele>18.082108</ele>
        <time>2020-10-06T16:16:44.985Z</time>
      </trkpt>
      <trkpt lat="59.27464" lon="23.8417">
        <ele>18.260932</ele>
        <time>2020-10-06T16:17:20.088Z</time>
      </trkpt>
      <trkpt lat="59.27522" lon="23.83757">
        <ele>17.85171</ele>
        <time>2020-10-06T16:18:08.380Z</time>
      </trkpt>
      <trkpt lat="59.27629" lon="23.83345">
        <ele>17.402328</ele>
        <time>2020-10-06T16:19:01.811Z</time>
      </trkpt>
      <trkpt lat="59.27674" lon="23.83134">
        <ele>17.219023</ele>
        <time>2020-10-06T16:19:28.210Z</time>
      </trkpt>
      <trkpt lat="59.27661" lon="23.82976">
        <ele>17.112299</ele>
        <time>2020-10-06T16:19:46.837Z</time>
      </trkpt>
      <trkpt lat="59.27665" lon="23.82783">
        <ele>17.009969</ele>
        <time>2020-10-06T16:20:09.642Z</time>
      </trkpt>
      <trkpt lat="59.27683" lon="23.82546">
        <ele>16.838295</ele>
        <time>2020-10-06T16:20:37.605Z</time>
      </trkpt>
      <trkpt lat="59.27629" lon="23.82371">
        <ele>16.663015</ele>
        <time>2020-10-06T16:21:01.102Z</time>
      </trkpt>
      <trkpt lat="59.2758" lon="23.8223">
        <ele>16.401072</ele>
        <time>2020-10-06T16:21:20.252Z</time>
      </trkpt>
      <trkpt lat="59.27489" lon="23.82114">
        <ele>16.039715</ele>
        <time>2020-10-06T16:21:44.291Z</time>
      </trkpt>
      <trkpt lat="59.27471" lon="23.82079">
        <ele>15.924089</ele>
        <time>2020-10-06T16:21:49.932Z</time>
      </trkpt>
      <trkpt lat="59.27408" lon="23.81843">
        <ele>15.319298</ele>
        <time>2020-10-06T16:22:19.285Z</time>
      </trkpt>
      <trkpt lat="59.27395" lon="23.81684">
        <ele>15.135409</ele>
        <time>2020-10-06T16:22:37.043Z</time>
      </trkpt>
      <trkpt lat="59.27397" lon="23.81578">
        <ele>15.01396</ele>
        <time>2020-10-06T16:22:49.362Z</time>
      </trkpt>
      <trkpt lat="59.27396" lon="23.81522">
        <ele>14.950818</ele>
        <time>2020-10-06T16:22:55.894Z</time>
      </trkpt>
      <trkpt lat="59.27396" lon="23.81467">
        <ele>15.036079</ele>
        <time>2020-10-06T16:23:02.709Z</time>
      </trkpt>
      <trkpt lat="59.27401" lon="23.81422">
        <ele>15.179802</ele>
        <time>2020-10-06T16:23:08.552Z</time>
      </trkpt>
      <trkpt lat="59.27419" lon="23.8135">
        <ele>15.428652</ele>
        <time>2020-10-06T16:23:18.955Z</time>
      </trkpt>
      <trkpt lat="59.2745" lon="23.81145">
        <ele>16.066575</ele>
        <time>2020-10-06T16:23:48.156Z</time>
      </trkpt>
      <trkpt lat="59.27482" lon="23.81001">
        <ele>16.369555</ele>
        <time>2020-10-06T16:24:08.709Z</time>
      </trkpt>
      <trkpt lat="59.27517" lon="23.80887">
        <ele>16.628187</ele>
        <time>2020-10-06T16:24:25.204Z</time>
      </trkpt>
      <trkpt lat="59.27593" lon="23.80707">
        <ele>16.44987</ele>
        <time>2020-10-06T16:24:51.942Z</time>
      </trkpt>
      <trkpt lat="59.27625" lon="23.80563">
        <ele>16.243103</ele>
        <time>2020-10-06T16:25:09.426Z</time>
      </trkpt>
      <trkpt lat="59.27656" lon="23.8045">
        <ele>16.074816</ele>
        <time>2020-10-06T16:25:23.734Z</time>
      </trkpt>
      <trkpt lat="59.2768" lon="23.80281">
        <ele>15.844572</ele>
        <time>2020-10-06T16:25:43.820Z</time>
      </trkpt>
      <trkpt lat="59.27686" lon="23.80158">
        <ele>15.757897</ele>
        <time>2020-10-06T16:25:58.388Z</time>
      </trkpt>
      <trkpt lat="59.27693" lon="23.80098">
        <ele>15.739768</ele>
        <time>2020-10-06T16:26:05.774Z</time>
      </trkpt>
      <trkpt lat="59.27724" lon="23.79977">
        <ele>15.70071</ele>
        <time>2020-10-06T16:26:21.786Z</time>
      </trkpt>
      <trkpt lat="59.27746" lon="23.79912">
        <ele>15.677702</ele>
        <time>2020-10-06T16:26:31.132Z</time>
      </trkpt>
      <trkpt lat="59.27767" lon="23.79823">
        <ele>15.50902</ele>
        <time>2020-10-06T16:26:42.429Z</time>
      </trkpt>
      <trkpt lat="59.27778" lon="23.79745">
        <ele>15.366934</ele>
        <time>2020-10-06T16:26:51.544Z</time>
      </trkpt>
      <trkpt lat="59.27786" lon="23.79685">
        <ele>15.256698</ele>
        <time>2020-10-06T16:26:58.518Z</time>
      </trkpt>
      <trkpt lat="59.27818" lon="23.79422">
        <ele>14.587653</ele>
        <time>2020-10-06T16:27:27.940Z</time>
      </trkpt>
      <trkpt lat="59.27785" lon="23.79067">
        <ele>13.556735</ele>
        <time>2020-10-06T16:28:07.015Z</time>
      </trkpt>
      <trkpt lat="59.2773" lon="23.78797">
        <ele>12.836395</ele>
        <time>2020-10-06T16:28:39.109Z</time>
      </trkpt>
      <trkpt lat="59.27717" lon="23.78713">
        <ele>12.654216</ele>
        <time>2020-10-06T16:28:49.027Z</time>
      </trkpt>
      <trkpt lat="59.27631" lon="23.78677">
        <ele>12.29587</ele>
        <time>2020-10-06T16:29:08.444Z</time>
      </trkpt>
      <trkpt lat="59.27568" lon="23.78663">
        <ele>12.032449</ele>
        <time>2020-10-06T16:29:22.165Z</time>
      </trkpt>
      <trkpt lat="59.27525" lon="23.7863">
        <ele>11.841065</ele>
        <time>2020-10-06T16:29:32.020Z</time>
      </trkpt>
      <trkpt lat="59.27427" lon="23.78601">
        <ele>11.563029</ele>
        <time>2020-10-06T16:29:53.790Z</time>
      </trkpt>
      <trkpt lat="59.27395" lon="23.78582">
        <ele>11.554726</ele>
        <time>2020-10-06T16:30:01.298Z</time>
      </trkpt>
      <trkpt lat="59.27384" lon="23.78569">
        <ele>11.551592</ele>
        <time>2020-10-06T16:30:03.984Z</time>
      </trkpt>
      <trkpt lat="59.27374" lon="23.78545">
        <ele>11.547687</ele>
        <time>2020-10-06T16:30:07.777Z</time>
      </trkpt>
      <trkpt lat="59.27332" lon="23.78434">
        <ele>11.53009</ele>
        <time>2020-10-06T16:30:24.503Z</time>
      </trkpt>
      <trkpt lat="59.27327" lon="23.7839">
        <ele>11.57961</ele>
        <time>2020-10-06T16:30:29.973Z</time>
      </trkpt>
      <trkpt lat="59.27332" lon="23.78355">
        <ele>11.672227</ele>
        <time>2020-10-06T16:30:34.736Z</time>
      </trkpt>
      <trkpt lat="59.2735" lon="23.78307">
        <ele>11.824165</ele>
        <time>2020-10-06T16:30:42.329Z</time>
      </trkpt>
      <trkpt lat="59.27355" lon="23.78268">
        <ele>11.926665</ele>
        <time>2020-10-06T16:30:47.618Z</time>
      </trkpt>
      <trkpt lat="59.27365" lon="23.78061">
        <ele>12.459146</ele>
        <time>2020-10-06T16:31:14.852Z</time>
      </trkpt>
      <trkpt lat="59.27351" lon="23.78006">
        <ele>12.626637</ele>
        <time>2020-10-06T16:31:22.897Z</time>
      </trkpt>
      <trkpt lat="59.27319" lon="23.77964">
        <ele>12.835611</ele>
        <time>2020-10-06T16:31:32.867Z</time>
      </trkpt>
      <trkpt lat="59.27227" lon="23.7789">
        <ele>13.366079</ele>
        <time>2020-10-06T16:31:58.094Z</time>
      </trkpt>
      <trkpt lat="59.27003" lon="23.77712">
        <ele>14.084423</ele>
        <time>2020-10-06T16:32:57.577Z</time>
      </trkpt>
      <trkpt lat="59.26971" lon="23.77634">
        <ele>14.09864</ele>
        <time>2020-10-06T16:33:09.320Z</time>
      </trkpt>
      <trkpt lat="59.26936" lon="23.77583">
        <ele>14.110729</ele>
        <time>2020-10-06T16:33:19.151Z</time>
      </trkpt>
      <trkpt lat="59.26916" lon="23.77533">
        <ele>14.119521</ele>
        <time>2020-10-06T16:33:26.484Z</time>
      </trkpt>
      <trkpt lat="59.26897" lon="23.77445">
        <ele>14.131098</ele>
        <time>2020-10-06T16:33:37.524Z</time>
      </trkpt>
      <trkpt lat="59.26886" lon="23.77325">
        <ele>14.145845</ele>
        <time>2020-10-06T16:33:52.226Z</time>
      </trkpt>
      <trkpt lat="59.26884" lon="23.77176">
        <ele>14.133546</ele>
        <time>2020-10-06T16:34:10.395Z</time>
      </trkpt>
      <trkpt lat="59.26882" lon="23.77032">
        <ele>13.973587</ele>
        <time>2020-10-06T16:34:27.670Z</time>
      </trkpt>
      <trkpt lat="59.26877" lon="23.7685">
        <ele>13.772875</ele>
        <time>2020-10-06T16:34:48.076Z</time>
      </trkpt>
      <trkpt lat="59.26869" lon="23.7654">
        <ele>12.593544</ele>
        <time>2020-10-06T16:35:20.580Z</time>
      </trkpt>
      <trkpt lat="59.26845" lon="23.76387">
        <ele>12.530268</ele>
        <time>2020-10-06T16:35:38.186Z</time>
      </trkpt>
      <trkpt lat="59.26822" lon="23.76114">
        <ele>12.838754</ele>
        <time>2020-10-06T16:36:14.079Z</time>
      </trkpt>
      <trkpt lat="59.26818" lon="23.76095">
        <ele>12.895308</ele>
        <time>2020-10-06T16:36:17.156Z</time>
      </trkpt>
      <trkpt lat="59.26811" lon="23.76084">
        <ele>12.941238</ele>
        <time>2020-10-06T16:36:19.597Z</time>
      </trkpt>
      <trkpt lat="59.26756" lon="23.76046">
        <ele>13.250738</ele>
        <time>2020-10-06T16:36:34.940Z</time>
      </trkpt>
      <trkpt lat="59.26689" lon="23.75993">
        <ele>13.631614</ele>
        <time>2020-10-06T16:36:52.942Z</time>
      </trkpt>
      <trkpt lat="59.26757" lon="23.75828">
        <ele>13.498816</ele>
        <time>2020-10-06T16:37:16.686Z</time>
      </trkpt>
      <trkpt lat="59.26804" lon="23.75731">
        <ele>13.381028</ele>
        <time>2020-10-06T16:37:31.017Z</time>
      </trkpt>
      <trkpt lat="59.26822" lon="23.75693">
        <ele>13.373776</ele>
        <time>2020-10-06T16:37:36.658Z</time>
      </trkpt>
      <trkpt lat="59.26844" lon="23.75637">
        <ele>13.396938</ele>
        <time>2020-10-06T16:37:44.402Z</time>
      </trkpt>
      <trkpt lat="59.26863" lon="23.75552">
        <ele>13.426957</ele>
        <time>2020-10-06T16:37:54.563Z</time>
      </trkpt>
      <trkpt lat="59.26871" lon="23.75452">
        <ele>13.460023</ele>
        <time>2020-10-06T16:38:06.861Z</time>
      </trkpt>
      <trkpt lat="59.26876" lon="23.75206">
        <ele>14.34894</ele>
        <time>2020-10-06T16:38:37.953Z</time>
      </trkpt>
      <trkpt lat="59.26856" lon="23.75214">
        <ele>14.532838</ele>
        <time>2020-10-06T16:38:43.838Z</time>
      </trkpt>
      <trkpt lat="59.26814" lon="23.75247">
        <ele>14.935826</ele>
        <time>2020-10-06T16:38:56.233Z</time>
      </trkpt>
      <trkpt lat="59.26784" lon="23.75235">
        <ele>15.274059</ele>
        <time>2020-10-06T16:39:05.195Z</time>
      </trkpt>
      <trkpt lat="59.26747" lon="23.75247">
        <ele>15.763732</ele>
        <time>2020-10-06T16:39:15.933Z</time>
      </trkpt>
      <trkpt lat="59.26739" lon="23.75236">
        <ele>15.892932</ele>
        <time>2020-10-06T16:39:18.774Z</time>
      </trkpt>
      <trkpt lat="59.26729" lon="23.75215">
        <ele>16.086238</ele>
        <time>2020-10-06T16:39:23.307Z</time>
      </trkpt>
      <trkpt lat="59.26686" lon="23.75098">
        <ele>17.065917</ele>
        <time>2020-10-06T16:39:44.396Z</time>
      </trkpt>
      <trkpt lat="59.26647" lon="23.75034">
        <ele>17.586066</ele>
        <time>2020-10-06T16:39:58.381Z</time>
      </trkpt>
      <trkpt lat="59.2662" lon="23.74962">
        <ele>17.850275</ele>
        <time>2020-10-06T16:40:10.586Z</time>
      </trkpt>
      <trkpt lat="59.26588" lon="23.74916">
        <ele>18.077311</ele>
        <time>2020-10-06T16:40:20.473Z</time>
      </trkpt>
      <trkpt lat="59.26549" lon="23.74879">
        <ele>18.323196</ele>
        <time>2020-10-06T16:40:30.921Z</time>
      </trkpt>
      <trkpt lat="59.26527" lon="23.74868">
        <ele>18.45371</ele>
        <time>2020-10-06T16:40:36.414Z</time>
      </trkpt>
      <trkpt lat="59.26469" lon="23.74876">
        <ele>18.812216</ele>
        <time>2020-10-06T16:40:50.541Z</time>
      </trkpt>
      <trkpt lat="59.26422" lon="23.74915">
        <ele>19.129806</ele>
        <time>2020-10-06T16:41:03.260Z</time>
      </trkpt>
      <trkpt lat="59.2639" lon="23.74929">
        <ele>19.336122</ele>
        <time>2020-10-06T16:41:11.819Z</time>
      </trkpt>
      <trkpt lat="59.26348" lon="23.74903">
        <ele>19.609102</ele>
        <time>2020-10-06T16:41:23.529Z</time>
      </trkpt>
      <trkpt lat="59.2632" lon="23.74873">
        <ele>19.973121</ele>
        <time>2020-10-06T16:41:32.572Z</time>
      </trkpt>
      <trkpt lat="59.26248" lon="23.74744">
        <ele>21.107716</ele>
        <time>2020-10-06T16:42:00.594Z</time>
      </trkpt>
      <trkpt lat="59.2617" lon="23.74641">
        <ele>21.841741</ele>
        <time>2020-10-06T16:42:26.479Z</time>
      </trkpt>
      <trkpt lat="59.26131" lon="23.74575">
        <ele>21.996498</ele>
        <time>2020-10-06T16:42:39.526Z</time>
      </trkpt>
      <trkpt lat="59.26105" lon="23.74546">
        <ele>22.086608</ele>
        <time>2020-10-06T16:42:46.661Z</time>
      </trkpt>
      <trkpt lat="59.26023" lon="23.74538">
        <ele>21.948206</ele>
        <time>2020-10-06T16:43:04.858Z</time>
      </trkpt>
      <trkpt lat="59.26" lon="23.74545">
        <ele>21.666816</ele>
        <time>2020-10-06T16:43:09.571Z</time>
      </trkpt>
      <trkpt lat="59.25934" lon="23.74592">
        <ele>20.794814</ele>
        <time>2020-10-06T16:43:23.490Z</time>
      </trkpt>
      <trkpt lat="59.25853" lon="23.74583">
        <ele>19.61351</ele>
        <time>2020-10-06T16:43:38.948Z</time>
      </trkpt>
      <trkpt lat="59.25813" lon="23.74587">
        <ele>18.794115</ele>
        <time>2020-10-06T16:43:46.003Z</time>
      </trkpt>
      <trkpt lat="59.2577" lon="23.74575">
        <ele>17.906462</ele>
        <time>2020-10-06T16:43:53.674Z</time>
      </trkpt>
      <trkpt lat="59.25748" lon="23.74579">
        <ele>17.433777</ele>
        <time>2020-10-06T16:43:57.773Z</time>
      </trkpt>
      <trkpt lat="59.25704" lon="23.74606">
        <ele>16.48596</ele>
        <time>2020-10-06T16:44:06.347Z</time>
      </trkpt>
      <trkpt lat="59.25688" lon="23.74617">
        <ele>16.263137</ele>
        <time>2020-10-06T16:44:09.394Z</time>
      </trkpt>
      <trkpt lat="59.25669" lon="23.74632">
        <ele>16.14379</ele>
        <time>2020-10-06T16:44:13.530Z</time>
      </trkpt>
      <trkpt lat="59.25642" lon="23.74667">
        <ele>15.947484</ele>
        <time>2020-10-06T16:44:20.049Z</time>
      </trkpt>
      <trkpt lat="59.2564" lon="23.74669">
        <ele>15.938199</ele>
        <time>2020-10-06T16:44:20.405Z</time>
      </trkpt>
      <trkpt lat="59.25582" lon="23.74798">
        <ele>15.415146</ele>
        <time>2020-10-06T16:44:39.027Z</time>
      </trkpt>
      <trkpt lat="59.25511" lon="23.74869">
        <ele>15.687851</ele>
        <time>2020-10-06T16:45:00.830Z</time>
      </trkpt>
      <trkpt lat="59.25476" lon="23.74915">
        <ele>16.04949</ele>
        <time>2020-10-06T16:45:12.345Z</time>
      </trkpt>
      <trkpt lat="59.25459" lon="23.74934">
        <ele>16.220067</ele>
        <time>2020-10-06T16:45:17.929Z</time>
      </trkpt>
      <trkpt lat="59.25437" lon="23.74965">
        <ele>16.450577</ele>
        <time>2020-10-06T16:45:25.220Z</time>
      </trkpt>
      <trkpt lat="59.25351" lon="23.7516">
        <ele>17.30839</ele>
        <time>2020-10-06T16:45:59.762Z</time>
      </trkpt>
      <trkpt lat="59.25295" lon="23.75257">
        <ele>17.725882</ele>
        <time>2020-10-06T16:46:17.791Z</time>
      </trkpt>
      <trkpt lat="59.2527" lon="23.75341">
        <ele>18.098855</ele>
        <time>2020-10-06T16:46:30.165Z</time>
      </trkpt>
      <trkpt lat="59.25262" lon="23.75369">
        <ele>18.235523</ele>
        <time>2020-10-06T16:46:34.335Z</time>
      </trkpt>
      <trkpt lat="59.2527" lon="23.7553">
        <ele>18.91253</ele>
        <time>2020-10-06T16:46:56.313Z</time>
      </trkpt>
      <trkpt lat="59.25246" lon="23.75627">
        <ele>19.412544</ele>
        <time>2020-10-06T16:47:11.823Z</time>
      </trkpt>
      <trkpt lat="59.2525" lon="23.75715">
        <ele>19.976976</ele>
        <time>2020-10-06T16:47:25.162Z</time>
      </trkpt>
      <trkpt lat="59.25235" lon="23.75807">
        <ele>20.591835</ele>
        <time>2020-10-06T16:47:39.646Z</time>
      </trkpt>
      <trkpt lat="59.25254" lon="23.75988">
        <ele>21.532087</ele>
        <time>2020-10-06T16:48:05.737Z</time>
      </trkpt>
      <trkpt lat="59.2524" lon="23.76073">
        <ele>21.580511</ele>
        <time>2020-10-06T16:48:17.239Z</time>
      </trkpt>
      <trkpt lat="59.2518" lon="23.76266">
        <ele>21.693518</ele>
        <time>2020-10-06T16:48:42.964Z</time>
      </trkpt>
      <trkpt lat="59.25131" lon="23.76395">
        <ele>21.222601</ele>
        <time>2020-10-06T16:49:00.155Z</time>
      </trkpt>
      <trkpt lat="59.25059" lon="23.76511">
        <ele>20.688043</ele>
        <time>2020-10-06T16:49:20.020Z</time>
      </trkpt>
      <trkpt lat="59.24997" lon="23.76696">
        <ele>20.311486</ele>
        <time>2020-10-06T16:49:45.117Z</time>
      </trkpt>
      <trkpt lat="59.24964" lon="23.76849">
        <ele>19.971122</ele>
        <time>2020-10-06T16:50:03.916Z</time>
      </trkpt>
      <trkpt lat="59.24962" lon="23.76986">
        <ele>19.451203</ele>
        <time>2020-10-06T16:50:18.926Z</time>
      </trkpt>
      <trkpt lat="59.24948" lon="23.77058">
        <ele>19.15586</ele>
        <time>2020-10-06T16:50:27.059Z</time>
      </trkpt>
      <trkpt lat="59.24931" lon="23.77102">
        <ele>18.947798</ele>
        <time>2020-10-06T16:50:32.670Z</time>
      </trkpt>
      <trkpt lat="59.24884" lon="23.77143">
        <ele>18.566341</ele>
        <time>2020-10-06T16:50:43.067Z</time>
      </trkpt>
      <trkpt lat="59.24835" lon="23.77247">
        <ele>18.035909</ele>
        <time>2020-10-06T16:50:57.796Z</time>
      </trkpt>
      <trkpt lat="59.24822" lon="23.77224">
        <ele>17.906322</ele>
        <time>2020-10-06T16:51:01.273Z</time>
      </trkpt>
      <trkpt lat="59.24796" lon="23.77191">
        <ele>17.675297</ele>
        <time>2020-10-06T16:51:07.660Z</time>
      </trkpt>
      <trkpt lat="59.24775" lon="23.77182">
        <ele>17.518788</ele>
        <time>2020-10-06T16:51:12.082Z</time>
      </trkpt>
      <trkpt lat="59.24755" lon="23.77182">
        <ele>17.431358</ele>
        <time>2020-10-06T16:51:16.280Z</time>
      </trkpt>
      <trkpt lat="59.24722" lon="23.77203">
        <ele>17.463141</ele>
        <time>2020-10-06T16:51:23.698Z</time>
      </trkpt>
      <trkpt lat="59.24612" lon="23.77309">
        <ele>17.576205</ele>
        <time>2020-10-06T16:51:52.417Z</time>
      </trkpt>
      <trkpt lat="59.24547" lon="23.77393">
        <ele>17.578929</ele>
        <time>2020-10-06T16:52:10.391Z</time>
      </trkpt>
      <trkpt lat="59.24497" lon="23.77443">
        <ele>17.568445</ele>
        <time>2020-10-06T16:52:23.187Z</time>
      </trkpt>
      <trkpt lat="59.2435" lon="23.77564">
        <ele>17.110915</ele>
        <time>2020-10-06T16:52:56.487Z</time>
      </trkpt>
      <trkpt lat="59.24293" lon="23.77576">
        <ele>16.849989</ele>
        <time>2020-10-06T16:53:08.176Z</time>
      </trkpt>
      <trkpt lat="59.24247" lon="23.77546">
        <ele>16.68752</ele>
        <time>2020-10-06T16:53:18.212Z</time>
      </trkpt>
      <trkpt lat="59.24208" lon="23.77476">
        <ele>16.575614</ele>
        <time>2020-10-06T16:53:29.230Z</time>
      </trkpt>
      <trkpt lat="59.2413" lon="23.77234">
        <ele>16.512643</ele>
        <time>2020-10-06T16:54:01.529Z</time>
      </trkpt>
      <trkpt lat="59.24083" lon="23.77134">
        <ele>16.755869</ele>
        <time>2020-10-06T16:54:18.193Z</time>
      </trkpt>
      <trkpt lat="59.24059" lon="23.77112">
        <ele>16.848078</ele>
        <time>2020-10-06T16:54:24.558Z</time>
      </trkpt>
      <trkpt lat="59.24046" lon="23.77104">
        <ele>16.898342</ele>
        <time>2020-10-06T16:54:28.146Z</time>
      </trkpt>
      <trkpt lat="59.24011" lon="23.77085">
        <ele>17.061358</ele>
        <time>2020-10-06T16:54:37.111Z</time>
      </trkpt>
      <trkpt lat="59.2386" lon="23.77031">
        <ele>18.159125</ele>
        <time>2020-10-06T16:55:15.778Z</time>
      </trkpt>
      <trkpt lat="59.23532" lon="23.76858">
        <ele>20.079448</ele>
        <time>2020-10-06T16:56:39.963Z</time>
      </trkpt>
      <trkpt lat="59.23426" lon="23.76802">
        <ele>20.064491</ele>
        <time>2020-10-06T16:57:04.709Z</time>
      </trkpt>
      <trkpt lat="59.23323" lon="23.76738">
        <ele>19.785759</ele>
        <time>2020-10-06T16:57:27.346Z</time>
      </trkpt>
      <trkpt lat="59.23185" lon="23.7662">
        <ele>18.530905</ele>
        <time>2020-10-06T16:57:56.993Z</time>
      </trkpt>
      <trkpt lat="59.23041" lon="23.765">
        <ele>17.266035</ele>
        <time>2020-10-06T16:58:27.188Z</time>
      </trkpt>
      <trkpt lat="59.22848" lon="23.76342">
        <ele>16.582384</ele>
        <time>2020-10-06T16:59:10.989Z</time>
      </trkpt>
      <trkpt lat="59.22739" lon="23.76239">
        <ele>17.183601</ele>
        <time>2020-10-06T16:59:40.874Z</time>
      </trkpt>
      <trkpt lat="59.22735" lon="23.76235">
        <ele>17.212494</ele>
        <time>2020-10-06T16:59:42.055Z</time>
      </trkpt>
      <trkpt lat="59.2273" lon="23.7623">
        <ele>17.247739</ele>
        <time>2020-10-06T16:59:43.524Z</time>
      </trkpt>
      <trkpt lat="59.22672" lon="23.76172">
        <ele>17.668381</ele>
        <time>2020-10-06T17:00:00.430Z</time>
      </trkpt>
      <trkpt lat="59.22642" lon="23.76143">
        <ele>17.831254</ele>
        <time>2020-10-06T17:00:08.998Z</time>
      </trkpt>
      <trkpt lat="59.22638" lon="23.76139">
        <ele>17.852458</ele>
        <time>2020-10-06T17:00:10.204Z</time>
      </trkpt>
      <trkpt lat="59.22635" lon="23.76136">
        <ele>17.865387</ele>
        <time>2020-10-06T17:00:10.964Z</time>
      </trkpt>
      <trkpt lat="59.22591" lon="23.76093">
        <ele>18.092513</ele>
        <time>2020-10-06T17:00:23.427Z</time>
      </trkpt>
      <trkpt lat="59.22495" lon="23.76005">
        <ele>18.479168</ele>
        <time>2020-10-06T17:00:48.344Z</time>
      </trkpt>
      <trkpt lat="59.22337" lon="23.75888">
        <ele>17.762737</ele>
        <time>2020-10-06T17:01:23.026Z</time>
      </trkpt>
      <trkpt lat="59.22262" lon="23.75803">
        <ele>17.154354</ele>
        <time>2020-10-06T17:01:40.292Z</time>
      </trkpt>
      <trkpt lat="59.22228" lon="23.75771">
        <ele>16.892388</ele>
        <time>2020-10-06T17:01:47.711Z</time>
      </trkpt>
      <trkpt lat="59.2219" lon="23.75734">
        <ele>16.592635</ele>
        <time>2020-10-06T17:01:56.208Z</time>
      </trkpt>
      <trkpt lat="59.22146" lon="23.75675">
        <ele>16.239118</ele>
        <time>2020-10-06T17:02:06.984Z</time>
      </trkpt>
      <trkpt lat="59.22116" lon="23.7562">
        <ele>15.973626</ele>
        <time>2020-10-06T17:02:15.298Z</time>
      </trkpt>
      <trkpt lat="59.22081" lon="23.75526">
        <ele>15.59135</ele>
        <time>2020-10-06T17:02:27.290Z</time>
      </trkpt>
      <trkpt lat="59.22051" lon="23.75426">
        <ele>15.287872</ele>
        <time>2020-10-06T17:02:39.439Z</time>
      </trkpt>
      <trkpt lat="59.22024" lon="23.7537">
        <ele>15.180838</ele>
        <time>2020-10-06T17:02:47.710Z</time>
      </trkpt>
      <trkpt lat="59.21996" lon="23.7533">
        <ele>15.087637</ele>
        <time>2020-10-06T17:02:55.003Z</time>
      </trkpt>
      <trkpt lat="59.2192" lon="23.75241">
        <ele>14.876483</ele>
        <time>2020-10-06T17:03:14.321Z</time>
      </trkpt>
      <trkpt lat="59.21861" lon="23.7516">
        <ele>15.159759</ele>
        <time>2020-10-06T17:03:30.642Z</time>
      </trkpt>
      <trkpt lat="59.21673" lon="23.74802">
        <ele>16.647349</ele>
        <time>2020-10-06T17:04:36.238Z</time>
      </trkpt>
      <trkpt lat="59.21649" lon="23.74741">
        <ele>16.867098</ele>
        <time>2020-10-06T17:04:46.265Z</time>
      </trkpt>
      <trkpt lat="59.21608" lon="23.74608">
        <ele>17.201148</ele>
        <time>2020-10-06T17:05:05.923Z</time>
      </trkpt>
      <trkpt lat="59.21588" lon="23.74555">
        <ele>17.343344</ele>
        <time>2020-10-06T17:05:14.219Z</time>
      </trkpt>
      <trkpt lat="59.21584" lon="23.74547">
        <ele>17.366173</ele>
        <time>2020-10-06T17:05:15.314Z</time>
      </trkpt>
      <trkpt lat="59.21306" lon="23.73961">
        <ele>17.35609</ele>
        <time>2020-10-06T17:06:45.718Z</time>
      </trkpt>
      <trkpt lat="59.21284" lon="23.73874">
        <ele>17.242026</ele>
        <time>2020-10-06T17:06:56.380Z</time>
      </trkpt>
      <trkpt lat="59.2123" lon="23.73533">
        <ele>16.707084</ele>
        <time>2020-10-06T17:07:35.340Z</time>
      </trkpt>
      <trkpt lat="59.21173" lon="23.73237">
        <ele>16.007874</ele>
        <time>2020-10-06T17:08:08.781Z</time>
      </trkpt>
      <trkpt lat="59.21157" lon="23.73102">
        <ele>15.68124</ele>
        <time>2020-10-06T17:08:23.247Z</time>
      </trkpt>
      <trkpt lat="59.21129" lon="23.72713">
        <ele>15.055688</ele>
        <time>2020-10-06T17:09:05.508Z</time>
      </trkpt>
      <trkpt lat="59.21123" lon="23.72527">
        <ele>15.145858</ele>
        <time>2020-10-06T17:09:27.243Z</time>
      </trkpt>
      <trkpt lat="59.21149" lon="23.72006">
        <ele>16.484445</ele>
        <time>2020-10-06T17:10:33.326Z</time>
      </trkpt>
      <trkpt lat="59.21161" lon="23.71928">
        <ele>16.728413</ele>
        <time>2020-10-06T17:10:43.598Z</time>
      </trkpt>
      <trkpt lat="59.21193" lon="23.71802">
        <ele>16.661505</ele>
        <time>2020-10-06T17:11:00.850Z</time>
      </trkpt>
      <trkpt lat="59.21313" lon="23.71364">
        <ele>15.638233</ele>
        <time>2020-10-06T17:11:53.429Z</time>
      </trkpt>
      <trkpt lat="59.2133" lon="23.71249">
        <ele>15.177425</ele>
        <time>2020-10-06T17:12:05.220Z</time>
      </trkpt>
      <trkpt lat="59.21331" lon="23.71238">
        <ele>15.123085</ele>
        <time>2020-10-06T17:12:06.360Z</time>
      </trkpt>
      <trkpt lat="59.21333" lon="23.71225">
        <ele>15.055064</ele>
        <time>2020-10-06T17:12:07.781Z</time>
      </trkpt>
      <trkpt lat="59.21338" lon="23.71193">
        <ele>14.895524</ele>
        <time>2020-10-06T17:12:11.063Z</time>
      </trkpt>
      <trkpt lat="59.21365" lon="23.70971">
        <ele>13.803274</ele>
        <time>2020-10-06T17:12:33.662Z</time>
      </trkpt>
      <trkpt lat="59.21384" lon="23.70869">
        <ele>13.19769</ele>
        <time>2020-10-06T17:12:44.527Z</time>
      </trkpt>
      <trkpt lat="59.21411" lon="23.70768">
        <ele>12.543467</ele>
        <time>2020-10-06T17:12:55.849Z</time>
      </trkpt>
      <trkpt lat="59.21594" lon="23.7036">
        <ele>9.238225</ele>
        <time>2020-10-06T17:13:47.872Z</time>
      </trkpt>
      <trkpt lat="59.21644" lon="23.70252">
        <ele>8.775456</ele>
        <time>2020-10-06T17:14:02.480Z</time>
      </trkpt>
      <trkpt lat="59.21703" lon="23.70149">
        <ele>8.285891</ele>
        <time>2020-10-06T17:14:19.065Z</time>
      </trkpt>
      <trkpt lat="59.21728" lon="23.70117">
        <ele>8.441348</ele>
        <time>2020-10-06T17:14:26.112Z</time>
      </trkpt>
      <trkpt lat="59.21783" lon="23.70061">
        <ele>8.797363</ele>
        <time>2020-10-06T17:14:41.353Z</time>
      </trkpt>
      <trkpt lat="59.21818" lon="23.70026">
        <ele>9.023395</ele>
        <time>2020-10-06T17:14:51.389Z</time>
      </trkpt>
      <trkpt lat="59.2187" lon="23.69964">
        <ele>9.426474</ele>
        <time>2020-10-06T17:15:07.122Z</time>
      </trkpt>
      <trkpt lat="59.21916" lon="23.69889">
        <ele>10.074853</ele>
        <time>2020-10-06T17:15:22.823Z</time>
      </trkpt>
      <trkpt lat="59.21957" lon="23.69788">
        <ele>10.795546</ele>
        <time>2020-10-06T17:15:41.229Z</time>
      </trkpt>
      <trkpt lat="59.21976" lon="23.69742">
        <ele>11.122253</ele>
        <time>2020-10-06T17:15:49.159Z</time>
      </trkpt>
      <trkpt lat="59.22005" lon="23.69688">
        <ele>11.471224</ele>
        <time>2020-10-06T17:15:59.464Z</time>
      </trkpt>
      <trkpt lat="59.2201" lon="23.69683">
        <ele>11.515488</ele>
        <time>2020-10-06T17:16:00.914Z</time>
      </trkpt>
      <trkpt lat="59.22032" lon="23.69658">
        <ele>11.717075</ele>
        <time>2020-10-06T17:16:07.542Z</time>
      </trkpt>
      <trkpt lat="59.22039" lon="23.6965">
        <ele>11.779516</ele>
        <time>2020-10-06T17:16:09.652Z</time>
      </trkpt>
      <trkpt lat="59.2218" lon="23.6952">
        <ele>12.840781</ele>
        <time>2020-10-06T17:16:48.868Z</time>
      </trkpt>
      <trkpt lat="59.22224" lon="23.69466">
        <ele>13.050379</ele>
        <time>2020-10-06T17:17:00.729Z</time>
      </trkpt>
      <trkpt lat="59.22263" lon="23.69394">
        <ele>13.26921</ele>
        <time>2020-10-06T17:17:13.349Z</time>
      </trkpt>
      <trkpt lat="59.22278" lon="23.69366">
        <ele>13.351413</ele>
        <time>2020-10-06T17:17:18.238Z</time>
      </trkpt>
      <trkpt lat="59.22284" lon="23.69345">
        <ele>13.403008</ele>
        <time>2020-10-06T17:17:21.276Z</time>
      </trkpt>
      <trkpt lat="59.22303" lon="23.6922">
        <ele>13.654375</ele>
        <time>2020-10-06T17:17:37.549Z</time>
      </trkpt>
      <trkpt lat="59.22304" lon="23.69191">
        <ele>13.711003</ele>
        <time>2020-10-06T17:17:41.188Z</time>
      </trkpt>
      <trkpt lat="59.22301" lon="23.69142">
        <ele>13.805856</ele>
        <time>2020-10-06T17:17:47.228Z</time>
      </trkpt>
      <trkpt lat="59.22291" lon="23.69027">
        <ele>14.031035</ele>
        <time>2020-10-06T17:18:01.205Z</time>
      </trkpt>
      <trkpt lat="59.22291" lon="23.68981">
        <ele>14.03763</ele>
        <time>2020-10-06T17:18:06.736Z</time>
      </trkpt>
      <trkpt lat="59.22299" lon="23.68961">
        <ele>13.994574</ele>
        <time>2020-10-06T17:18:09.666Z</time>
      </trkpt>
      <trkpt lat="59.22303" lon="23.68933">
        <ele>13.943693</ele>
        <time>2020-10-06T17:18:13.306Z</time>
      </trkpt>
      <trkpt lat="59.22306" lon="23.68916">
        <ele>13.914256</ele>
        <time>2020-10-06T17:18:15.305Z</time>
      </trkpt>
      <trkpt lat="59.22333" lon="23.68793">
        <ele>13.684439</ele>
        <time>2020-10-06T17:18:30.042Z</time>
      </trkpt>
      <trkpt lat="59.22355" lon="23.68638">
        <ele>13.311933</ele>
        <time>2020-10-06T17:18:46.217Z</time>
      </trkpt>
      <trkpt lat="59.22354" lon="23.68601">
        <ele>13.157981</ele>
        <time>2020-10-06T17:18:49.885Z</time>
      </trkpt>
      <trkpt lat="59.22353" lon="23.6858">
        <ele>13.066279</ele>
        <time>2020-10-06T17:18:51.932Z</time>
      </trkpt>
      <trkpt lat="59.22343" lon="23.68546">
        <ele>12.900638</ele>
        <time>2020-10-06T17:18:55.920Z</time>
      </trkpt>
      <trkpt lat="59.22335" lon="23.68517">
        <ele>12.759478</ele>
        <time>2020-10-06T17:18:59.133Z</time>
      </trkpt>
      <trkpt lat="59.22318" lon="23.68457">
        <ele>12.473734</ele>
        <time>2020-10-06T17:19:05.890Z</time>
      </trkpt>
      <trkpt lat="59.22302" lon="23.68399">
        <ele>12.192897</ele>
        <time>2020-10-06T17:19:12.627Z</time>
      </trkpt>
      <trkpt lat="59.22299" lon="23.68391">
        <ele>12.154939</ele>
        <time>2020-10-06T17:19:13.499Z</time>
      </trkpt>
      <trkpt lat="59.22237" lon="23.68169">
        <ele>11.984898</ele>
        <time>2020-10-06T17:19:41.552Z</time>
      </trkpt>
      <trkpt lat="59.2221" lon="23.68078">
        <ele>11.982824</ele>
        <time>2020-10-06T17:19:54.373Z</time>
      </trkpt>
      <trkpt lat="59.2218" lon="23.6799">
        <ele>12.288949</ele>
        <time>2020-10-06T17:20:07.103Z</time>
      </trkpt>
      <trkpt lat="59.22172" lon="23.67972">
        <ele>12.386003</ele>
        <time>2020-10-06T17:20:10.130Z</time>
      </trkpt>
      <trkpt lat="59.22165" lon="23.67981">
        <ele>12.452517</ele>
        <time>2020-10-06T17:20:12.645Z</time>
      </trkpt>
      <trkpt lat="59.22158" lon="23.67979">
        <ele>12.508405</ele>
        <time>2020-10-06T17:20:14.237Z</time>
      </trkpt>
      <trkpt lat="59.22139" lon="23.67978">
        <ele>12.665308</ele>
        <time>2020-10-06T17:20:19.155Z</time>
      </trkpt>
      <trkpt lat="59.221" lon="23.67982">
        <ele>12.983523</ele>
        <time>2020-10-06T17:20:29.430Z</time>
      </trkpt>
      <trkpt lat="59.22058" lon="23.67985">
        <ele>13.320157</ele>
        <time>2020-10-06T17:20:40.276Z</time>
      </trkpt>
      <trkpt lat="59.22021" lon="23.67981">
        <ele>13.763421</ele>
        <time>2020-10-06T17:20:50.345Z</time>
      </trkpt>
      <trkpt lat="59.22008" lon="23.67969">
        <ele>13.980447</ele>
        <time>2020-10-06T17:20:54.340Z</time>
      </trkpt>
      <trkpt lat="59.21999" lon="23.6795">
        <ele>14.17358</ele>
        <time>2020-10-06T17:20:58.160Z</time>
      </trkpt>
      <trkpt lat="59.2199" lon="23.67925">
        <ele>14.410275</ele>
        <time>2020-10-06T17:21:02.709Z</time>
      </trkpt>
      <trkpt lat="59.21976" lon="23.67887">
        <ele>14.762177</ele>
        <time>2020-10-06T17:21:09.854Z</time>
      </trkpt>
      <trkpt lat="59.21956" lon="23.67843">
        <ele>15.199847</ele>
        <time>2020-10-06T17:21:18.544Z</time>
      </trkpt>
      <trkpt lat="59.21882" lon="23.67697">
        <ele>16.369963</ele>
        <time>2020-10-06T17:21:48.736Z</time>
      </trkpt>
      <trkpt lat="59.21765" lon="23.67469">
        <ele>17.080416</ele>
        <time>2020-10-06T17:22:27.365Z</time>
      </trkpt>
      <trkpt lat="59.21747" lon="23.67437">
        <ele>17.000969</ele>
        <time>2020-10-06T17:22:32.458Z</time>
      </trkpt>
      <trkpt lat="59.21744" lon="23.67429">
        <ele>16.985163</ele>
        <time>2020-10-06T17:22:33.362Z</time>
      </trkpt>
      <trkpt lat="59.21735" lon="23.67405">
        <ele>16.934804</ele>
        <time>2020-10-06T17:22:36.595Z</time>
      </trkpt>
      <trkpt lat="59.21716" lon="23.67338">
        <ele>16.804902</ele>
        <time>2020-10-06T17:22:44.684Z</time>
      </trkpt>
      <trkpt lat="59.21692" lon="23.67219">
        <ele>16.588284</ele>
        <time>2020-10-06T17:22:57.999Z</time>
      </trkpt>
      <trkpt lat="59.21637" lon="23.66969">
        <ele>15.669154</ele>
        <time>2020-10-06T17:23:26.206Z</time>
      </trkpt>
      <trkpt lat="59.21517" lon="23.66423">
        <ele>13.679044</ele>
        <time>2020-10-06T17:24:27.180Z</time>
      </trkpt>
      <trkpt lat="59.21506" lon="23.66374">
        <ele>13.540022</ele>
        <time>2020-10-06T17:24:32.911Z</time>
      </trkpt>
      <trkpt lat="59.21473" lon="23.66295">
        <ele>13.272661</ele>
        <time>2020-10-06T17:24:43.966Z</time>
      </trkpt>
      <trkpt lat="59.21406" lon="23.66177">
        <ele>13.069201</ele>
        <time>2020-10-06T17:25:03.034Z</time>
      </trkpt>
      <trkpt lat="59.21309" lon="23.66006">
        <ele>13.06102</ele>
        <time>2020-10-06T17:25:31.587Z</time>
      </trkpt>
      <trkpt lat="59.21281" lon="23.65963">
        <ele>13.310144</ele>
        <time>2020-10-06T17:25:40.115Z</time>
      </trkpt>
      <trkpt lat="59.21227" lon="23.65911">
        <ele>13.720651</ele>
        <time>2020-10-06T17:25:54.841Z</time>
      </trkpt>
      <trkpt lat="59.21226" lon="23.6591">
        <ele>13.729303</ele>
        <time>2020-10-06T17:25:55.405Z</time>
      </trkpt>
      <trkpt lat="59.21172" lon="23.65875">
        <ele>14.1199</ele>
        <time>2020-10-06T17:26:10.623Z</time>
      </trkpt>
      <trkpt lat="59.2113" lon="23.65862">
        <ele>14.842282</ele>
        <time>2020-10-06T17:26:22.626Z</time>
      </trkpt>
      <trkpt lat="59.21069" lon="23.65869">
        <ele>15.923716</ele>
        <time>2020-10-06T17:26:41.305Z</time>
      </trkpt>
      <trkpt lat="59.21025" lon="23.65864">
        <ele>16.691289</ele>
        <time>2020-10-06T17:26:54.672Z</time>
      </trkpt>
      <trkpt lat="59.20947" lon="23.65838">
        <ele>17.587263</ele>
        <time>2020-10-06T17:27:17.598Z</time>
      </trkpt>
      <trkpt lat="59.20904" lon="23.65816">
        <ele>17.875175</ele>
        <time>2020-10-06T17:27:29.570Z</time>
      </trkpt>
      <trkpt lat="59.20863" lon="23.65788">
        <ele>18.151838</ele>
        <time>2020-10-06T17:27:39.950Z</time>
      </trkpt>
      <trkpt lat="59.20784" lon="23.65705">
        <ele>17.838702</ele>
        <time>2020-10-06T17:27:58.408Z</time>
      </trkpt>
      <trkpt lat="59.20615" lon="23.65447">
        <ele>14.467665</ele>
        <time>2020-10-06T17:28:36.665Z</time>
      </trkpt>
      <trkpt lat="59.2048" lon="23.65231">
        <ele>11.841299</ele>
        <time>2020-10-06T17:29:08.157Z</time>
      </trkpt>
      <trkpt lat="59.20474" lon="23.65221">
        <ele>11.750099</ele>
        <time>2020-10-06T17:29:09.692Z</time>
      </trkpt>
      <trkpt lat="59.20412" lon="23.65125">
        <ele>10.875032</ele>
        <time>2020-10-06T17:29:25.261Z</time>
      </trkpt>
      <trkpt lat="59.20371" lon="23.65071">
        <ele>10.661169</ele>
        <time>2020-10-06T17:29:35.765Z</time>
      </trkpt>
      <trkpt lat="59.2032" lon="23.65035">
        <ele>10.70182</ele>
        <time>2020-10-06T17:29:47.957Z</time>
      </trkpt>
      <trkpt lat="59.20212" lon="23.65008">
        <ele>10.808147</ele>
        <time>2020-10-06T17:30:13.380Z</time>
      </trkpt>
      <trkpt lat="59.19988" lon="23.64944">
        <ele>11.372747</ele>
        <time>2020-10-06T17:31:06.492Z</time>
      </trkpt>
      <trkpt lat="59.19962" lon="23.64952">
        <ele>11.400594</ele>
        <time>2020-10-06T17:31:12.598Z</time>
      </trkpt>
      <trkpt lat="59.19868" lon="23.65022">
        <ele>11.500501</ele>
        <time>2020-10-06T17:31:35.088Z</time>
      </trkpt>
      <trkpt lat="59.19845" lon="23.6503">
        <ele>11.502973</ele>
        <time>2020-10-06T17:31:40.241Z</time>
      </trkpt>
      <trkpt lat="59.1977" lon="23.65048">
        <ele>11.510973</ele>
        <time>2020-10-06T17:31:56.991Z</time>
      </trkpt>
      <trkpt lat="59.19673" lon="23.65138">
        <ele>11.561411</ele>
        <time>2020-10-06T17:32:21.069Z</time>
      </trkpt>
      <trkpt lat="59.19625" lon="23.65159">
        <ele>11.627688</ele>
        <time>2020-10-06T17:32:32.376Z</time>
      </trkpt>
      <trkpt lat="59.19318" lon="23.65092">
        <ele>11.98166</ele>
        <time>2020-10-06T17:33:43.029Z</time>
      </trkpt>
      <trkpt lat="59.19116" lon="23.65089">
        <ele>11.759722</ele>
        <time>2020-10-06T17:34:26.863Z</time>
      </trkpt>
      <trkpt lat="59.19037" lon="23.65091">
        <ele>11.682679</ele>
        <time>2020-10-06T17:34:44.047Z</time>
      </trkpt>
      <trkpt lat="59.19031" lon="23.65092">
        <ele>11.676372</ele>
        <time>2020-10-06T17:34:45.467Z</time>
      </trkpt>
      <trkpt lat="59.19002" lon="23.65095">
        <ele>11.647802</ele>
        <time>2020-10-06T17:34:51.902Z</time>
      </trkpt>
      <trkpt lat="59.18974" lon="23.65109">
        <ele>11.625247</ele>
        <time>2020-10-06T17:34:58.369Z</time>
      </trkpt>
      <trkpt lat="59.189" lon="23.65186">
        <ele>11.575829</ele>
        <time>2020-10-06T17:35:17.017Z</time>
      </trkpt>
      <trkpt lat="59.18862" lon="23.65201">
        <ele>11.553268</ele>
        <time>2020-10-06T17:35:25.424Z</time>
      </trkpt>
      <trkpt lat="59.18834" lon="23.652">
        <ele>11.536487</ele>
        <time>2020-10-06T17:35:31.622Z</time>
      </trkpt>
      <trkpt lat="59.18768" lon="23.65168">
        <ele>11.525081</ele>
        <time>2020-10-06T17:35:46.289Z</time>
      </trkpt>
      <trkpt lat="59.18713" lon="23.65122">
        <ele>11.521332</ele>
        <time>2020-10-06T17:35:59.519Z</time>
      </trkpt>
      <trkpt lat="59.18478" lon="23.64776">
        <ele>12.03337</ele>
        <time>2020-10-06T17:37:07.147Z</time>
      </trkpt>
      <trkpt lat="59.18188" lon="23.64551">
        <ele>13.234879</ele>
        <time>2020-10-06T17:38:22.838Z</time>
      </trkpt>
      <trkpt lat="59.1818" lon="23.64547">
        <ele>13.164418</ele>
        <time>2020-10-06T17:38:24.836Z</time>
      </trkpt>
      <trkpt lat="59.18157" lon="23.64538">
        <ele>12.978986</ele>
        <time>2020-10-06T17:38:29.540Z</time>
      </trkpt>
      <trkpt lat="59.18104" lon="23.64527">
        <ele>12.556388</ele>
        <time>2020-10-06T17:38:40.112Z</time>
      </trkpt>
      <trkpt lat="59.17998" lon="23.64533">
        <ele>11.760216</ele>
        <time>2020-10-06T17:39:00.082Z</time>
      </trkpt>
      <trkpt lat="59.17956" lon="23.64536">
        <ele>11.571854</ele>
        <time>2020-10-06T17:39:08.240Z</time>
      </trkpt>
      <trkpt lat="59.17864" lon="23.64526">
        <ele>11.159694</ele>
        <time>2020-10-06T17:39:27.381Z</time>
      </trkpt>
      <trkpt lat="59.17836" lon="23.64515">
        <ele>11.032902</ele>
        <time>2020-10-06T17:39:33.859Z</time>
      </trkpt>
      <trkpt lat="59.17788" lon="23.6448">
        <ele>11.394019</ele>
        <time>2020-10-06T17:39:46.448Z</time>
      </trkpt>
      <trkpt lat="59.17722" lon="23.64396">
        <ele>12.058894</ele>
        <time>2020-10-06T17:40:07.235Z</time>
      </trkpt>
      <trkpt lat="59.17687" lon="23.6432">
        <ele>12.495726</ele>
        <time>2020-10-06T17:40:21.405Z</time>
      </trkpt>
      <trkpt lat="59.17595" lon="23.64048">
        <ele>14.121957</ele>
        <time>2020-10-06T17:41:05.684Z</time>
      </trkpt>
      <trkpt lat="59.174" lon="23.63473">
        <ele>15.812538</ele>
        <time>2020-10-06T17:42:30.998Z</time>
      </trkpt>
      <trkpt lat="59.17227" lon="23.62988">
        <ele>16.345229</ele>
        <time>2020-10-06T17:43:40.463Z</time>
      </trkpt>
      <trkpt lat="59.1689" lon="23.62343">
        <ele>16.644718</ele>
        <time>2020-10-06T17:45:26.622Z</time>
      </trkpt>
      <trkpt lat="59.16771" lon="23.62137">
        <ele>16.846896</ele>
        <time>2020-10-06T17:46:02.949Z</time>
      </trkpt>
      <trkpt lat="59.16356" lon="23.61339">
        <ele>16.825105</ele>
        <time>2020-10-06T17:48:13.061Z</time>
      </trkpt>
      <trkpt lat="59.16292" lon="23.61246">
        <ele>16.730128</ele>
        <time>2020-10-06T17:48:30.102Z</time>
      </trkpt>
      <trkpt lat="59.16218" lon="23.61191">
        <ele>16.724722</ele>
        <time>2020-10-06T17:48:47.169Z</time>
      </trkpt>
      <trkpt lat="59.15737" lon="23.60882">
        <ele>17.708314</ele>
        <time>2020-10-06T17:50:43.935Z</time>
      </trkpt>
      <trkpt lat="59.15625" lon="23.6086">
        <ele>19.113301</ele>
        <time>2020-10-06T17:51:14.017Z</time>
      </trkpt>
      <trkpt lat="59.15598" lon="23.60841">
        <ele>19.467215</ele>
        <time>2020-10-06T17:51:22.224Z</time>
      </trkpt>
      <trkpt lat="59.15574" lon="23.60813">
        <ele>19.8122</ele>
        <time>2020-10-06T17:51:30.405Z</time>
      </trkpt>
      <trkpt lat="59.15512" lon="23.60715">
        <ele>20.954812</ele>
        <time>2020-10-06T17:51:54.656Z</time>
      </trkpt>
      <trkpt lat="59.15487" lon="23.60664">
        <ele>21.475375</ele>
        <time>2020-10-06T17:52:04.865Z</time>
      </trkpt>
      <trkpt lat="59.15458" lon="23.60576">
        <ele>22.249654</ele>
        <time>2020-10-06T17:52:19.434Z</time>
      </trkpt>
      <trkpt lat="59.15453" lon="23.60552">
        <ele>22.444391</ele>
        <time>2020-10-06T17:52:22.876Z</time>
      </trkpt>
      <trkpt lat="59.15448" lon="23.60518">
        <ele>22.564004</ele>
        <time>2020-10-06T17:52:27.458Z</time>
      </trkpt>
      <trkpt lat="59.15447" lon="23.60508">
        <ele>22.580488</ele>
        <time>2020-10-06T17:52:28.924Z</time>
      </trkpt>
      <trkpt lat="59.15443" lon="23.60482">
        <ele>22.624038</ele>
        <time>2020-10-06T17:52:32.252Z</time>
      </trkpt>
      <trkpt lat="59.15425" lon="23.60345">
        <ele>22.846843</ele>
        <time>2020-10-06T17:52:49.270Z</time>
      </trkpt>
      <trkpt lat="59.15355" lon="23.60174">
        <ele>23.23002</ele>
        <time>2020-10-06T17:53:13.998Z</time>
      </trkpt>
      <trkpt lat="59.15273" lon="23.59938">
        <ele>23.830914</ele>
        <time>2020-10-06T17:53:49.598Z</time>
      </trkpt>
      <trkpt lat="59.15236" lon="23.5986">
        <ele>24.1274</ele>
        <time>2020-10-06T17:54:03.339Z</time>
      </trkpt>
      <trkpt lat="59.1511" lon="23.59648">
        <ele>24.971736</ele>
        <time>2020-10-06T17:54:43.991Z</time>
      </trkpt>
      <trkpt lat="59.15097" lon="23.59614">
        <ele>25.060828</ele>
        <time>2020-10-06T17:54:49.185Z</time>
      </trkpt>
      <trkpt lat="59.15076" lon="23.59513">
        <ele>25.29312</ele>
        <time>2020-10-06T17:55:02.667Z</time>
      </trkpt>
      <trkpt lat="59.15043" lon="23.59312">
        <ele>25.532746</ele>
        <time>2020-10-06T17:55:28.086Z</time>
      </trkpt>
      <trkpt lat="59.14967" lon="23.58762">
        <ele>25.339886</ele>
        <time>2020-10-06T17:56:31.901Z</time>
      </trkpt>
      <trkpt lat="59.14958" lon="23.58714">
        <ele>25.331213</ele>
        <time>2020-10-06T17:56:37.612Z</time>
      </trkpt>
      <trkpt lat="59.1491" lon="23.58584">
        <ele>25.448004</ele>
        <time>2020-10-06T17:56:55.999Z</time>
      </trkpt>
      <trkpt lat="59.14867" lon="23.58502">
        <ele>25.534392</ele>
        <time>2020-10-06T17:57:10.055Z</time>
      </trkpt>
      <trkpt lat="59.14844" lon="23.58475">
        <ele>25.572422</ele>
        <time>2020-10-06T17:57:16.326Z</time>
      </trkpt>
      <trkpt lat="59.14793" lon="23.58445">
        <ele>25.689055</ele>
        <time>2020-10-06T17:57:28.840Z</time>
      </trkpt>
      <trkpt lat="59.14734" lon="23.58431">
        <ele>25.820515</ele>
        <time>2020-10-06T17:57:42.636Z</time>
      </trkpt>
      <trkpt lat="59.14557" lon="23.58415">
        <ele>25.99396</ele>
        <time>2020-10-06T17:58:23.143Z</time>
      </trkpt>
      <trkpt lat="59.14508" lon="23.58403">
        <ele>26.002031</ele>
        <time>2020-10-06T17:58:34.020Z</time>
      </trkpt>
      <trkpt lat="59.14462" lon="23.5836">
        <ele>25.904007</ele>
        <time>2020-10-06T17:58:45.260Z</time>
      </trkpt>
      <trkpt lat="59.14168" lon="23.57897">
        <ele>23.852973</ele>
        <time>2020-10-06T18:00:03.819Z</time>
      </trkpt>
      <trkpt lat="59.14006" lon="23.57665">
        <ele>21.053879</ele>
        <time>2020-10-06T18:00:39.573Z</time>
      </trkpt>
      <trkpt lat="59.13992" lon="23.57639">
        <ele>20.791372</ele>
        <time>2020-10-06T18:00:43.201Z</time>
      </trkpt>
      <trkpt lat="59.13969" lon="23.57599">
        <ele>20.391686</ele>
        <time>2020-10-06T18:00:48.987Z</time>
      </trkpt>
      <trkpt lat="59.1394" lon="23.57542">
        <ele>19.848885</ele>
        <time>2020-10-06T18:00:57.025Z</time>
      </trkpt>
      <trkpt lat="59.13911" lon="23.57483">
        <ele>19.550676</ele>
        <time>2020-10-06T18:01:05.487Z</time>
      </trkpt>
      <trkpt lat="59.13898" lon="23.57448">
        <ele>19.530344</ele>
        <time>2020-10-06T18:01:10.179Z</time>
      </trkpt>
      <trkpt lat="59.13888" lon="23.57421">
        <ele>19.515325</ele>
        <time>2020-10-06T18:01:13.818Z</time>
      </trkpt>
      <trkpt lat="59.13861" lon="23.5737">
        <ele>19.481505</ele>
        <time>2020-10-06T18:01:22.575Z</time>
      </trkpt>
      <trkpt lat="59.13773" lon="23.57309">
        <ele>19.400923</ele>
        <time>2020-10-06T18:01:44.337Z</time>
      </trkpt>
      <trkpt lat="59.1372" lon="23.5726">
        <ele>19.364664</ele>
        <time>2020-10-06T18:01:57.004Z</time>
      </trkpt>
      <trkpt lat="59.13695" lon="23.57225">
        <ele>19.345887</ele>
        <time>2020-10-06T18:02:03.477Z</time>
      </trkpt>
      <trkpt lat="59.13658" lon="23.57156">
        <ele>19.314335</ele>
        <time>2020-10-06T18:02:14.580Z</time>
      </trkpt>
      <trkpt lat="59.13654" lon="23.57149">
        <ele>19.310906</ele>
        <time>2020-10-06T18:02:15.684Z</time>
      </trkpt>
      <trkpt lat="59.13577" lon="23.56975">
        <ele>19.375342</ele>
        <time>2020-10-06T18:02:42.582Z</time>
      </trkpt>
      <trkpt lat="59.13438" lon="23.56735">
        <ele>18.938468</ele>
        <time>2020-10-06T18:03:24.453Z</time>
      </trkpt>
      <trkpt lat="59.13395" lon="23.56668">
        <ele>18.663837</ele>
        <time>2020-10-06T18:03:35.122Z</time>
      </trkpt>
      <trkpt lat="59.1326" lon="23.565">
        <ele>16.656663</ele>
        <time>2020-10-06T18:04:04.481Z</time>
      </trkpt>
      <trkpt lat="59.13061" lon="23.5601">
        <ele>12.994219</ele>
        <time>2020-10-06T18:05:05.950Z</time>
      </trkpt>
      <trkpt lat="59.13037" lon="23.55847">
        <ele>12.058622</ele>
        <time>2020-10-06T18:05:22.616Z</time>
      </trkpt>
      <trkpt lat="59.13032" lon="23.55684">
        <ele>11.45357</ele>
        <time>2020-10-06T18:05:38.977Z</time>
      </trkpt>
      <trkpt lat="59.13023" lon="23.5565">
        <ele>11.312507</ele>
        <time>2020-10-06T18:05:42.867Z</time>
      </trkpt>
      <trkpt lat="59.1299" lon="23.5559">
        <ele>10.984322</ele>
        <time>2020-10-06T18:05:52.035Z</time>
      </trkpt>
      <trkpt lat="59.12872" lon="23.55447">
        <ele>10.728574</ele>
        <time>2020-10-06T18:06:21.964Z</time>
      </trkpt>
      <trkpt lat="59.1284" lon="23.55382">
        <ele>10.70329</ele>
        <time>2020-10-06T18:06:32.565Z</time>
      </trkpt>
      <trkpt lat="59.12828" lon="23.5533">
        <ele>10.710337</ele>
        <time>2020-10-06T18:06:39.324Z</time>
      </trkpt>
      <trkpt lat="59.12816" lon="23.55208">
        <ele>10.873514</ele>
        <time>2020-10-06T18:06:54.298Z</time>
      </trkpt>
      <trkpt lat="59.12812" lon="23.55094">
        <ele>11.023226</ele>
        <time>2020-10-06T18:07:08.235Z</time>
      </trkpt>
      <trkpt lat="59.12815" lon="23.54772">
        <ele>10.970135</ele>
        <time>2020-10-06T18:07:45.910Z</time>
      </trkpt>
      <trkpt lat="59.12784" lon="23.54615">
        <ele>10.697513</ele>
        <time>2020-10-06T18:08:03.546Z</time>
      </trkpt>
      <trkpt lat="59.12778" lon="23.5436">
        <ele>9.655104</ele>
        <time>2020-10-06T18:08:29.283Z</time>
      </trkpt>
      <trkpt lat="59.12776" lon="23.54337">
        <ele>9.559088</ele>
        <time>2020-10-06T18:08:31.540Z</time>
      </trkpt>
      <trkpt lat="59.12767" lon="23.54321">
        <ele>9.464777</ele>
        <time>2020-10-06T18:08:33.958Z</time>
      </trkpt>
      <trkpt lat="59.12747" lon="23.54301">
        <ele>9.3458</ele>
        <time>2020-10-06T18:08:38.384Z</time>
      </trkpt>
      <trkpt lat="59.12583" lon="23.54154">
        <ele>8.486544</ele>
        <time>2020-10-06T18:09:16.125Z</time>
      </trkpt>
      <trkpt lat="59.12575" lon="23.54147">
        <ele>8.445514</ele>
        <time>2020-10-06T18:09:18.037Z</time>
      </trkpt>
      <trkpt lat="59.12355" lon="23.53951">
        <ele>7.32158</ele>
        <time>2020-10-06T18:10:07.967Z</time>
      </trkpt>
      <trkpt lat="59.12349" lon="23.53945">
        <ele>7.286693</ele>
        <time>2020-10-06T18:10:09.419Z</time>
      </trkpt>
      <trkpt lat="59.12305" lon="23.53904">
        <ele>7.056681</ele>
        <time>2020-10-06T18:10:19.175Z</time>
      </trkpt>
      <trkpt lat="59.12041" lon="23.53668">
        <ele>6.427646</ele>
        <time>2020-10-06T18:11:21.872Z</time>
      </trkpt>
      <trkpt lat="59.11979" lon="23.53613">
        <ele>6.33334</ele>
        <time>2020-10-06T18:11:36.894Z</time>
      </trkpt>
      <trkpt lat="59.11876" lon="23.53522">
        <ele>6.128532</ele>
        <time>2020-10-06T18:12:01.087Z</time>
      </trkpt>
      <trkpt lat="59.11614" lon="23.53282">
        <ele>5.586589</ele>
        <time>2020-10-06T18:13:03.681Z</time>
      </trkpt>
      <trkpt lat="59.11578" lon="23.53261">
        <ele>5.518412</ele>
        <time>2020-10-06T18:13:11.868Z</time>
      </trkpt>
      <trkpt lat="59.11525" lon="23.53249">
        <ele>5.42381</ele>
        <time>2020-10-06T18:13:23.205Z</time>
      </trkpt>
      <trkpt lat="59.11259" lon="23.53271">
        <ele>5.072423</ele>
        <time>2020-10-06T18:14:21.242Z</time>
      </trkpt>
      <trkpt lat="59.11201" lon="23.53275">
        <ele>5.099373</ele>
        <time>2020-10-06T18:14:34.230Z</time>
      </trkpt>
      <trkpt lat="59.10985" lon="23.53291">
        <ele>5.112741</ele>
        <time>2020-10-06T18:15:23.130Z</time>
      </trkpt>
      <trkpt lat="59.10938" lon="23.53298">
        <ele>5.093389</ele>
        <time>2020-10-06T18:15:33.443Z</time>
      </trkpt>
      <trkpt lat="59.10867" lon="23.53321">
        <ele>4.980763</ele>
        <time>2020-10-06T18:15:48.732Z</time>
      </trkpt>
      <trkpt lat="59.10782" lon="23.53393">
        <ele>4.744047</ele>
        <time>2020-10-06T18:16:08.303Z</time>
      </trkpt>
      <trkpt lat="59.1058" lon="23.5358">
        <ele>4.343358</ele>
        <time>2020-10-06T18:16:56.685Z</time>
      </trkpt>
      <trkpt lat="59.10526" lon="23.53626">
        <ele>4.34043</ele>
        <time>2020-10-06T18:17:09.877Z</time>
      </trkpt>
      <trkpt lat="59.09889" lon="23.54204">
        <ele>4.57747</ele>
        <time>2020-10-06T18:19:46.974Z</time>
      </trkpt>
      <trkpt lat="59.09709" lon="23.54368">
        <ele>5.448637</ele>
        <time>2020-10-06T18:20:35.028Z</time>
      </trkpt>
      <trkpt lat="59.09683" lon="23.54392">
        <ele>5.614166</ele>
        <time>2020-10-06T18:20:42.278Z</time>
      </trkpt>
      <trkpt lat="59.09635" lon="23.54429">
        <ele>5.91602</ele>
        <time>2020-10-06T18:20:55.359Z</time>
      </trkpt>
      <trkpt lat="59.09406" lon="23.54506">
        <ele>6.947771</ele>
        <time>2020-10-06T18:21:51.467Z</time>
      </trkpt>
      <trkpt lat="59.09318" lon="23.54563">
        <ele>7.214273</ele>
        <time>2020-10-06T18:22:12.505Z</time>
      </trkpt>
      <trkpt lat="59.0893" lon="23.54893">
        <ele>8.554654</ele>
        <time>2020-10-06T18:23:52.101Z</time>
      </trkpt>
      <trkpt lat="59.08842" lon="23.54981">
        <ele>8.693506</ele>
        <time>2020-10-06T18:24:16.082Z</time>
      </trkpt>
      <trkpt lat="59.08593" lon="23.55233">
        <ele>8.35861</ele>
        <time>2020-10-06T18:25:16.570Z</time>
      </trkpt>
      <trkpt lat="59.08509" lon="23.55334">
        <ele>8.079741</ele>
        <time>2020-10-06T18:25:37.154Z</time>
      </trkpt>
      <trkpt lat="59.08281" lon="23.55657">
        <ele>7.724778</ele>
        <time>2020-10-06T18:26:38.121Z</time>
      </trkpt>
      <trkpt lat="59.07799" lon="23.56221">
        <ele>9.84844</ele>
        <time>2020-10-06T18:28:53.744Z</time>
      </trkpt>
      <trkpt lat="59.0747" lon="23.56668">
        <ele>9.915386</ele>
        <time>2020-10-06T18:30:22.259Z</time>
      </trkpt>
      <trkpt lat="59.07406" lon="23.56782">
        <ele>9.959215</ele>
        <time>2020-10-06T18:30:41.972Z</time>
      </trkpt>
      <trkpt lat="59.07221" lon="23.57244">
        <ele>11.024307</ele>
        <time>2020-10-06T18:31:53.611Z</time>
      </trkpt>
      <trkpt lat="59.07122" lon="23.5766">
        <ele>11.74808</ele>
        <time>2020-10-06T18:32:50.034Z</time>
      </trkpt>
      <trkpt lat="59.07102" lon="23.57725">
        <ele>11.564708</ele>
        <time>2020-10-06T18:32:58.161Z</time>
      </trkpt>
      <trkpt lat="59.07055" lon="23.57833">
        <ele>11.151424</ele>
        <time>2020-10-06T18:33:12.581Z</time>
      </trkpt>
      <trkpt lat="59.06947" lon="23.58055">
        <ele>10.949453</ele>
        <time>2020-10-06T18:33:44.262Z</time>
      </trkpt>
      <trkpt lat="59.0686" lon="23.58236">
        <ele>11.693696</ele>
        <time>2020-10-06T18:34:17.592Z</time>
      </trkpt>
      <trkpt lat="59.06833" lon="23.58286">
        <ele>12.26968</ele>
        <time>2020-10-06T18:34:28.401Z</time>
      </trkpt>
      <trkpt lat="59.06779" lon="23.58402">
        <ele>13.543721</ele>
        <time>2020-10-06T18:34:52.435Z</time>
      </trkpt>
      <trkpt lat="59.06712" lon="23.5852">
        <ele>14.646903</ele>
        <time>2020-10-06T18:35:18.105Z</time>
      </trkpt>
      <trkpt lat="59.06558" lon="23.58767">
        <ele>16.046911</ele>
        <time>2020-10-06T18:36:08.569Z</time>
      </trkpt>
      <trkpt lat="59.06512" lon="23.58824">
        <ele>16.149286</ele>
        <time>2020-10-06T18:36:20.952Z</time>
      </trkpt>
      <trkpt lat="59.06374" lon="23.58956">
        <ele>15.578591</ele>
        <time>2020-10-06T18:36:52.546Z</time>
      </trkpt>
      <trkpt lat="59.06347" lon="23.5899">
        <ele>15.386493</ele>
        <time>2020-10-06T18:36:58.783Z</time>
      </trkpt>
      <trkpt lat="59.06298" lon="23.59078">
        <ele>14.948291</ele>
        <time>2020-10-06T18:37:12.001Z</time>
      </trkpt>
      <trkpt lat="59.06133" lon="23.59465">
        <ele>13.247983</ele>
        <time>2020-10-06T18:38:04.028Z</time>
      </trkpt>
      <trkpt lat="59.06026" lon="23.59714">
        <ele>12.662585</ele>
        <time>2020-10-06T18:38:38.886Z</time>
      </trkpt>
      <trkpt lat="59.0586" lon="23.60116">
        <ele>12.513932</ele>
        <time>2020-10-06T18:39:38.150Z</time>
      </trkpt>
      <trkpt lat="59.05541" lon="23.60865">
        <ele>12.832287</ele>
        <time>2020-10-06T18:41:31.025Z</time>
      </trkpt>
      <trkpt lat="59.0537" lon="23.61274">
        <ele>13.515694</ele>
        <time>2020-10-06T18:42:33.135Z</time>
      </trkpt>
      <trkpt lat="59.0529" lon="23.61452">
        <ele>14.382282</ele>
        <time>2020-10-06T18:43:04.424Z</time>
      </trkpt>
      <trkpt lat="59.05245" lon="23.61532">
        <ele>14.953599</ele>
        <time>2020-10-06T18:43:20.688Z</time>
      </trkpt>
      <trkpt lat="59.05212" lon="23.61589">
        <ele>15.394173</ele>
        <time>2020-10-06T18:43:32.741Z</time>
      </trkpt>
      <trkpt lat="59.05133" lon="23.61675">
        <ele>16.232427</ele>
        <time>2020-10-06T18:43:56.674Z</time>
      </trkpt>
      <trkpt lat="59.04988" lon="23.6179">
        <ele>16.722612</ele>
        <time>2020-10-06T18:44:33.820Z</time>
      </trkpt>
      <trkpt lat="59.04733" lon="23.61987">
        <ele>15.825012</ele>
        <time>2020-10-06T18:45:29.940Z</time>
      </trkpt>
      <trkpt lat="59.04481" lon="23.62188">
        <ele>16.027454</ele>
        <time>2020-10-06T18:46:32.467Z</time>
      </trkpt>
      <trkpt lat="59.04426" lon="23.62247">
        <ele>16.119801</ele>
        <time>2020-10-06T18:46:47.354Z</time>
      </trkpt>
      <trkpt lat="59.04358" lon="23.62344">
        <ele>16.234185</ele>
        <time>2020-10-06T18:47:06.417Z</time>
      </trkpt>
      <trkpt lat="59.04287" lon="23.62482">
        <ele>16.269459</ele>
        <time>2020-10-06T18:47:28.809Z</time>
      </trkpt>
      <trkpt lat="59.04001" lon="23.63099">
        <ele>15.952636</ele>
        <time>2020-10-06T18:49:03.362Z</time>
      </trkpt>
      <trkpt lat="59.03931" lon="23.63232">
        <ele>15.687634</ele>
        <time>2020-10-06T18:49:23.900Z</time>
      </trkpt>
      <trkpt lat="59.03804" lon="23.63406">
        <ele>15.113879</ele>
        <time>2020-10-06T18:49:56.264Z</time>
      </trkpt>
      <trkpt lat="59.03561" lon="23.63726">
        <ele>14.735912</ele>
        <time>2020-10-06T18:51:00.660Z</time>
      </trkpt>
      <trkpt lat="59.03476" lon="23.63832">
        <ele>14.36795</ele>
        <time>2020-10-06T18:51:22.448Z</time>
      </trkpt>
      <trkpt lat="59.03242" lon="23.6412">
        <ele>12.559134</ele>
        <time>2020-10-06T18:52:17.511Z</time>
      </trkpt>
      <trkpt lat="59.03193" lon="23.64203">
        <ele>12.21659</ele>
        <time>2020-10-06T18:52:30.696Z</time>
      </trkpt>
      <trkpt lat="59.03148" lon="23.64297">
        <ele>11.970978</ele>
        <time>2020-10-06T18:52:44.414Z</time>
      </trkpt>
      <trkpt lat="59.03098" lon="23.64453">
        <ele>11.702387</ele>
        <time>2020-10-06T18:53:04.869Z</time>
      </trkpt>
      <trkpt lat="59.0303" lon="23.64754">
        <ele>11.869878</ele>
        <time>2020-10-06T18:53:43.526Z</time>
      </trkpt>
      <trkpt lat="59.03004" lon="23.64944">
        <ele>12.229478</ele>
        <time>2020-10-06T18:54:07.660Z</time>
      </trkpt>
      <trkpt lat="59.02992" lon="23.65147">
        <ele>12.617016</ele>
        <time>2020-10-06T18:54:32.819Z</time>
      </trkpt>
      <trkpt lat="59.02987" lon="23.65216">
        <ele>12.757163</ele>
        <time>2020-10-06T18:54:41.254Z</time>
      </trkpt>
      <trkpt lat="59.0298" lon="23.65282">
        <ele>12.892584</ele>
        <time>2020-10-06T18:54:49.363Z</time>
      </trkpt>
      <trkpt lat="59.02958" lon="23.65415">
        <ele>13.176077</ele>
        <time>2020-10-06T18:55:06.437Z</time>
      </trkpt>
      <trkpt lat="59.02912" lon="23.65585">
        <ele>14.023848</ele>
        <time>2020-10-06T18:55:30.757Z</time>
      </trkpt>
      <trkpt lat="59.02757" lon="23.66125">
        <ele>17.249273</ele>
        <time>2020-10-06T18:56:57.981Z</time>
      </trkpt>
      <trkpt lat="59.02753" lon="23.66138">
        <ele>17.283796</ele>
        <time>2020-10-06T18:57:00.069Z</time>
      </trkpt>
      <trkpt lat="59.02734" lon="23.66196">
        <ele>17.441543</ele>
        <time>2020-10-06T18:57:08.853Z</time>
      </trkpt>
      <trkpt lat="59.02699" lon="23.66317">
        <ele>17.757414</ele>
        <time>2020-10-06T18:57:24.902Z</time>
      </trkpt>
      <trkpt lat="59.02654" lon="23.66413">
        <ele>17.317734</ele>
        <time>2020-10-06T18:57:38.373Z</time>
      </trkpt>
      <trkpt lat="59.02608" lon="23.66489">
        <ele>16.785811</ele>
        <time>2020-10-06T18:57:49.713Z</time>
      </trkpt>
      <trkpt lat="59.02546" lon="23.66561">
        <ele>16.191811</ele>
        <time>2020-10-06T18:58:03.224Z</time>
      </trkpt>
      <trkpt lat="59.02427" lon="23.66669">
        <ele>15.831382</ele>
        <time>2020-10-06T18:58:30.203Z</time>
      </trkpt>
      <trkpt lat="59.02266" lon="23.66815">
        <ele>17.317701</ele>
        <time>2020-10-06T18:59:17.043Z</time>
      </trkpt>
      <trkpt lat="59.02191" lon="23.66885">
        <ele>18.297718</ele>
        <time>2020-10-06T18:59:41.493Z</time>
      </trkpt>
      <trkpt lat="59.0213" lon="23.66958">
        <ele>19.164966</ele>
        <time>2020-10-06T19:00:02.039Z</time>
      </trkpt>
      <trkpt lat="59.02109" lon="23.66993">
        <ele>19.501209</ele>
        <time>2020-10-06T19:00:09.529Z</time>
      </trkpt>
      <trkpt lat="59.02062" lon="23.67101">
        <ele>19.795621</ele>
        <time>2020-10-06T19:00:27.167Z</time>
      </trkpt>
      <trkpt lat="59.01877" lon="23.67558">
        <ele>17.586738</ele>
        <time>2020-10-06T19:01:25.311Z</time>
      </trkpt>
      <trkpt lat="59.01873" lon="23.67569">
        <ele>17.521253</ele>
        <time>2020-10-06T19:01:26.783Z</time>
      </trkpt>
      <trkpt lat="59.01816" lon="23.67704">
        <ele>16.946513</ele>
        <time>2020-10-06T19:01:44.662Z</time>
      </trkpt>
      <trkpt lat="59.01732" lon="23.67893">
        <ele>16.271296</ele>
        <time>2020-10-06T19:02:11.394Z</time>
      </trkpt>
      <trkpt lat="59.01665" lon="23.68028">
        <ele>16.005115</ele>
        <time>2020-10-06T19:02:32.196Z</time>
      </trkpt>
      <trkpt lat="59.01474" lon="23.68379">
        <ele>15.087072</ele>
        <time>2020-10-06T19:03:28.122Z</time>
      </trkpt>
      <trkpt lat="59.01369" lon="23.68578">
        <ele>13.998195</ele>
        <time>2020-10-06T19:03:56.144Z</time>
      </trkpt>
      <trkpt lat="59.01318" lon="23.68674">
        <ele>14.530572</ele>
        <time>2020-10-06T19:04:12.408Z</time>
      </trkpt>
      <trkpt lat="59.01203" lon="23.68878">
        <ele>16.403217</ele>
        <time>2020-10-06T19:04:58.805Z</time>
      </trkpt>
      <trkpt lat="59.01126" lon="23.68969">
        <ele>17.522401</ele>
        <time>2020-10-06T19:05:24.866Z</time>
      </trkpt>
      <trkpt lat="59.00968" lon="23.69103">
        <ele>18.454773</ele>
        <time>2020-10-06T19:06:04.599Z</time>
      </trkpt>
      <trkpt lat="59.00441" lon="23.69545">
        <ele>19.091367</ele>
        <time>2020-10-06T19:08:14.929Z</time>
      </trkpt>
      <trkpt lat="59.00393" lon="23.69588">
        <ele>19.204096</ele>
        <time>2020-10-06T19:08:27.067Z</time>
      </trkpt>
      <trkpt lat="59.00356" lon="23.69626">
        <ele>19.362242</ele>
        <time>2020-10-06T19:08:36.731Z</time>
      </trkpt>
      <trkpt lat="59.00328" lon="23.6966">
        <ele>19.485259</ele>
        <time>2020-10-06T19:08:44.393Z</time>
      </trkpt>
      <trkpt lat="59.0025" lon="23.69791">
        <ele>19.92684</ele>
        <time>2020-10-06T19:09:09.634Z</time>
      </trkpt>
      <trkpt lat="59.00099" lon="23.70048">
        <ele>20.82252</ele>
        <time>2020-10-06T19:10:00.287Z</time>
      </trkpt>
      <trkpt lat="58.99742" lon="23.70643">
        <ele>18.901342</ele>
        <time>2020-10-06T19:11:37.895Z</time>
      </trkpt>
      <trkpt lat="58.99568" lon="23.70933">
        <ele>16.1355</ele>
        <time>2020-10-06T19:12:20.579Z</time>
      </trkpt>
      <trkpt lat="58.99529" lon="23.70999">
        <ele>15.462248</ele>
        <time>2020-10-06T19:12:30.487Z</time>
      </trkpt>
      <trkpt lat="58.99495" lon="23.71055">
        <ele>14.890793</ele>
        <time>2020-10-06T19:12:38.758Z</time>
      </trkpt>
      <trkpt lat="58.99485" lon="23.71073">
        <ele>14.710453</ele>
        <time>2020-10-06T19:12:41.371Z</time>
      </trkpt>
      <trkpt lat="58.99481" lon="23.7108">
        <ele>14.636897</ele>
        <time>2020-10-06T19:12:42.442Z</time>
      </trkpt>
      <trkpt lat="58.99458" lon="23.71026">
        <ele>14.172016</ele>
        <time>2020-10-06T19:12:49.148Z</time>
      </trkpt>
      <trkpt lat="58.99438" lon="23.70964">
        <ele>13.593803</ele>
        <time>2020-10-06T19:12:56.124Z</time>
      </trkpt>
      <trkpt lat="58.99425" lon="23.70917">
        <ele>13.138713</ele>
        <time>2020-10-06T19:13:01.329Z</time>
      </trkpt>
      <trkpt lat="58.9941" lon="23.70866">
        <ele>12.654587</ele>
        <time>2020-10-06T19:13:06.776Z</time>
      </trkpt>
      <trkpt lat="58.99342" lon="23.70671">
        <ele>10.745351</ele>
        <time>2020-10-06T19:13:28.563Z</time>
      </trkpt>
      <trkpt lat="58.99277" lon="23.70496">
        <ele>9.178671</ele>
        <time>2020-10-06T19:13:48.948Z</time>
      </trkpt>
      <trkpt lat="58.99221" lon="23.70352">
        <ele>8.566356</ele>
        <time>2020-10-06T19:14:07.333Z</time>
      </trkpt>
      <trkpt lat="58.99218" lon="23.70327">
        <ele>8.552916</ele>
        <time>2020-10-06T19:14:09.991Z</time>
      </trkpt>
      <trkpt lat="58.99209" lon="23.70287">
        <ele>8.529507</ele>
        <time>2020-10-06T19:14:14.837Z</time>
      </trkpt>
      <trkpt lat="58.99129" lon="23.7007">
        <ele>8.854147</ele>
        <time>2020-10-06T19:14:48.071Z</time>
      </trkpt>
      <trkpt lat="58.99085" lon="23.69965">
        <ele>9.486585</ele>
        <time>2020-10-06T19:15:06.635Z</time>
      </trkpt>
      <trkpt lat="58.99081" lon="23.6996">
        <ele>9.525465</ele>
        <time>2020-10-06T19:15:08.003Z</time>
      </trkpt>
      <trkpt lat="58.99073" lon="23.69943">
        <ele>9.634599</ele>
        <time>2020-10-06T19:15:11.234Z</time>
      </trkpt>
      <trkpt lat="58.99022" lon="23.69858">
        <ele>10.170373</ele>
        <time>2020-10-06T19:15:29.014Z</time>
      </trkpt>
      <trkpt lat="58.99003" lon="23.69826">
        <ele>10.30298</ele>
        <time>2020-10-06T19:15:35.321Z</time>
      </trkpt>
      <trkpt lat="58.98996" lon="23.69844">
        <ele>10.366369</ele>
        <time>2020-10-06T19:15:39.412Z</time>
      </trkpt>
      <trkpt lat="58.98884" lon="23.69666">
        <ele>10.948309</ele>
        <time>2020-10-06T19:16:13.717Z</time>
      </trkpt>
      <trkpt lat="58.98465" lon="23.69005">
        <ele>9.364244</ele>
        <time>2020-10-06T19:18:06.370Z</time>
      </trkpt>
      <trkpt lat="58.98393" lon="23.68892">
        <ele>10.101356</ele>
        <time>2020-10-06T19:18:30.671Z</time>
      </trkpt>
      <trkpt lat="58.98282" lon="23.68715">
        <ele>11.062321</ele>
        <time>2020-10-06T19:19:09.111Z</time>
      </trkpt>
      <trkpt lat="58.98098" lon="23.68421">
        <ele>11.687642</ele>
        <time>2020-10-06T19:20:03.376Z</time>
      </trkpt>
      <trkpt lat="58.9809" lon="23.68408">
        <ele>11.692156</ele>
        <time>2020-10-06T19:20:05.614Z</time>
      </trkpt>
      <trkpt lat="58.98045" lon="23.68336">
        <ele>11.623606</ele>
        <time>2020-10-06T19:20:18.338Z</time>
      </trkpt>
      <trkpt lat="58.97955" lon="23.68243">
        <ele>11.298243</ele>
        <time>2020-10-06T19:20:39.878Z</time>
      </trkpt>
      <trkpt lat="58.97736" lon="23.68052">
        <ele>10.170275</ele>
        <time>2020-10-06T19:21:29.450Z</time>
      </trkpt>
      <trkpt lat="58.9772" lon="23.68037">
        <ele>10.060685</ele>
        <time>2020-10-06T19:21:33.008Z</time>
      </trkpt>
      <trkpt lat="58.97465" lon="23.67808">
        <ele>8.450954</ele>
        <time>2020-10-06T19:22:29.735Z</time>
      </trkpt>
      <trkpt lat="58.97403" lon="23.6776">
        <ele>8.167562</ele>
        <time>2020-10-06T19:22:43.992Z</time>
      </trkpt>
      <trkpt lat="58.97372" lon="23.67745">
        <ele>8.15295</ele>
        <time>2020-10-06T19:22:50.838Z</time>
      </trkpt>
      <trkpt lat="58.97268" lon="23.6772">
        <ele>8.103914</ele>
        <time>2020-10-06T19:23:14.507Z</time>
      </trkpt>
      <trkpt lat="58.97096" lon="23.67697">
        <ele>7.955427</ele>
        <time>2020-10-06T19:23:53.023Z</time>
      </trkpt>
      <trkpt lat="58.96723" lon="23.67647">
        <ele>6.683432</ele>
        <time>2020-10-06T19:25:11.122Z</time>
      </trkpt>
      <trkpt lat="58.96665" lon="23.67628">
        <ele>6.600215</ele>
        <time>2020-10-06T19:25:23.833Z</time>
      </trkpt>
      <trkpt lat="58.96631" lon="23.67606">
        <ele>6.596639</ele>
        <time>2020-10-06T19:25:31.760Z</time>
      </trkpt>
      <trkpt lat="58.96618" lon="23.67597">
        <ele>6.595264</ele>
        <time>2020-10-06T19:25:34.858Z</time>
      </trkpt>
      <trkpt lat="58.9659" lon="23.67572">
        <ele>6.592218</ele>
        <time>2020-10-06T19:25:41.697Z</time>
      </trkpt>
      <trkpt lat="58.96558" lon="23.67539">
        <ele>6.588633</ele>
        <time>2020-10-06T19:25:49.803Z</time>
      </trkpt>
      <trkpt lat="58.96413" lon="23.6734">
        <ele>7.123182</ele>
        <time>2020-10-06T19:26:31.011Z</time>
      </trkpt>
      <trkpt lat="58.96402" lon="23.67324">
        <ele>7.171218</ele>
        <time>2020-10-06T19:26:34.239Z</time>
      </trkpt>
      <trkpt lat="58.96339" lon="23.67231">
        <ele>7.987007</ele>
        <time>2020-10-06T19:26:54.769Z</time>
      </trkpt>
      <trkpt lat="58.96253" lon="23.67113">
        <ele>9.242296</ele>
        <time>2020-10-06T19:27:25.202Z</time>
      </trkpt>
      <trkpt lat="58.96172" lon="23.66998">
        <ele>9.734034</ele>
        <time>2020-10-06T19:27:51.171Z</time>
      </trkpt>
      <trkpt lat="58.96101" lon="23.66896">
        <ele>10.089934</ele>
        <time>2020-10-06T19:28:10.828Z</time>
      </trkpt>
      <trkpt lat="58.96049" lon="23.66834">
        <ele>9.692638</ele>
        <time>2020-10-06T19:28:22.873Z</time>
      </trkpt>
      <trkpt lat="58.96008" lon="23.66808">
        <ele>9.395931</ele>
        <time>2020-10-06T19:28:31.033Z</time>
      </trkpt>
      <trkpt lat="58.95966" lon="23.66797">
        <ele>9.101324</ele>
        <time>2020-10-06T19:28:39.474Z</time>
      </trkpt>
      <trkpt lat="58.95946" lon="23.66796">
        <ele>8.964251</ele>
        <time>2020-10-06T19:28:43.511Z</time>
      </trkpt>
      <trkpt lat="58.95931" lon="23.66796">
        <ele>8.863712</ele>
        <time>2020-10-06T19:28:46.592Z</time>
      </trkpt>
      <trkpt lat="58.95851" lon="23.66813">
        <ele>8.736883</ele>
        <time>2020-10-06T19:29:03.931Z</time>
      </trkpt>
      <trkpt lat="58.95813" lon="23.66829">
        <ele>8.678238</ele>
        <time>2020-10-06T19:29:12.460Z</time>
      </trkpt>
      <trkpt lat="58.95799" lon="23.66827">
        <ele>8.656269</ele>
        <time>2020-10-06T19:29:15.686Z</time>
      </trkpt>
      <trkpt lat="58.95787" lon="23.66826">
        <ele>8.638468</ele>
        <time>2020-10-06T19:29:18.362Z</time>
      </trkpt>
      <trkpt lat="58.95777" lon="23.66826">
        <ele>8.623415</ele>
        <time>2020-10-06T19:29:20.577Z</time>
      </trkpt>
      <trkpt lat="58.95781" lon="23.66796">
        <ele>8.599233</ele>
        <time>2020-10-06T19:29:24.122Z</time>
      </trkpt>
      <trkpt lat="58.9576" lon="23.66767">
        <ele>8.574818</ele>
        <time>2020-10-06T19:29:29.899Z</time>
      </trkpt>
      <trkpt lat="58.95696" lon="23.66608">
        <ele>8.508575</ele>
        <time>2020-10-06T19:29:52.865Z</time>
      </trkpt>
      <trkpt lat="58.95658" lon="23.66526">
        <ele>8.472705</ele>
        <time>2020-10-06T19:30:05.217Z</time>
      </trkpt>
      <trkpt lat="58.95606" lon="23.66417">
        <ele>8.348458</ele>
        <time>2020-10-06T19:30:22.016Z</time>
      </trkpt>
      <trkpt lat="58.95508" lon="23.6624">
        <ele>8.127442</ele>
        <time>2020-10-06T19:30:51.033Z</time>
      </trkpt>
      <trkpt lat="58.95443" lon="23.66138">
        <ele>7.988023</ele>
        <time>2020-10-06T19:31:09.031Z</time>
      </trkpt>
      <trkpt lat="58.95366" lon="23.66018">
        <ele>7.845482</ele>
        <time>2020-10-06T19:31:30.588Z</time>
      </trkpt>
      <trkpt lat="58.9524" lon="23.6584">
        <ele>7.691293</ele>
        <time>2020-10-06T19:32:05.012Z</time>
      </trkpt>
      <trkpt lat="58.95232" lon="23.65824">
        <ele>7.672581</ele>
        <time>2020-10-06T19:32:07.452Z</time>
      </trkpt>
      <trkpt lat="58.95227" lon="23.65817">
        <ele>7.662666</ele>
        <time>2020-10-06T19:32:08.759Z</time>
      </trkpt>
      <trkpt lat="58.95215" lon="23.65815">
        <ele>7.6417</ele>
        <time>2020-10-06T19:32:11.490Z</time>
      </trkpt>
      <trkpt lat="58.95129" lon="23.65649">
        <ele>7.436558</ele>
        <time>2020-10-06T19:32:37.876Z</time>
      </trkpt>
      <trkpt lat="58.95114" lon="23.65615">
        <ele>7.396051</ele>
        <time>2020-10-06T19:32:42.753Z</time>
      </trkpt>
      <trkpt lat="58.95112" lon="23.65592">
        <ele>7.36205</ele>
        <time>2020-10-06T19:32:45.260Z</time>
      </trkpt>
      <trkpt lat="58.95051" lon="23.65442">
        <ele>7.084048</ele>
        <time>2020-10-06T19:33:05.858Z</time>
      </trkpt>
      <trkpt lat="58.95031" lon="23.65387">
        <ele>6.987112</ele>
        <time>2020-10-06T19:33:13.157Z</time>
      </trkpt>
      <trkpt lat="58.95014" lon="23.65324">
        <ele>6.900333</ele>
        <time>2020-10-06T19:33:21.039Z</time>
      </trkpt>
      <trkpt lat="58.94983" lon="23.65172">
        <ele>7.031669</ele>
        <time>2020-10-06T19:33:40.084Z</time>
      </trkpt>
      <trkpt lat="58.94962" lon="23.65003">
        <ele>7.172094</ele>
        <time>2020-10-06T19:34:01.197Z</time>
      </trkpt>
      <trkpt lat="58.94957" lon="23.64943">
        <ele>7.227474</ele>
        <time>2020-10-06T19:34:08.659Z</time>
      </trkpt>
      <trkpt lat="58.94952" lon="23.6484">
        <ele>7.323974</ele>
        <time>2020-10-06T19:34:21.303Z</time>
      </trkpt>
      <trkpt lat="58.94937" lon="23.64386">
        <ele>7.5</ele>
        <time>2020-10-06T19:35:14.107Z</time>
      </trkpt>
      <trkpt lat="58.94932" lon="23.64266">
        <ele>7.513969</ele>
        <time>2020-10-06T19:35:27.939Z</time>
      </trkpt>
      <trkpt lat="58.94929" lon="23.64158">
        <ele>7.552999</ele>
        <time>2020-10-06T19:35:40.287Z</time>
      </trkpt>
      <trkpt lat="58.9493" lon="23.64133">
        <ele>7.562181</ele>
        <time>2020-10-06T19:35:43.261Z</time>
      </trkpt>
      <trkpt lat="58.94931" lon="23.64109">
        <ele>7.57108</ele>
        <time>2020-10-06T19:35:46.079Z</time>
      </trkpt>
      <trkpt lat="58.9493" lon="23.64076">
        <ele>7.582941</ele>
        <time>2020-10-06T19:35:49.896Z</time>
      </trkpt>
      <trkpt lat="58.9492" lon="23.63744">
        <ele>7.687268</ele>
        <time>2020-10-06T19:36:28.702Z</time>
      </trkpt>
      <trkpt lat="58.94909" lon="23.63698">
        <ele>7.701793</ele>
        <time>2020-10-06T19:36:34.619Z</time>
      </trkpt>
      <trkpt lat="58.94904" lon="23.63628">
        <ele>7.721912</ele>
        <time>2020-10-06T19:36:42.830Z</time>
      </trkpt>
      <trkpt lat="58.94871" lon="23.62672">
        <ele>8.271267</ele>
        <time>2020-10-06T19:38:35.175Z</time>
      </trkpt>
      <trkpt lat="58.94881" lon="23.62613">
        <ele>8.321825</ele>
        <time>2020-10-06T19:38:42.724Z</time>
      </trkpt>
      <trkpt lat="58.9488" lon="23.62594">
        <ele>8.337166</ele>
        <time>2020-10-06T19:38:44.943Z</time>
      </trkpt>
      <trkpt lat="58.94875" lon="23.62538">
        <ele>8.401828</ele>
        <time>2020-10-06T19:38:51.903Z</time>
      </trkpt>
      <trkpt lat="58.94865" lon="23.6219">
        <ele>8.846683</ele>
        <time>2020-10-06T19:39:34.060Z</time>
      </trkpt>
      <trkpt lat="58.94838" lon="23.61581">
        <ele>9.153927</ele>
        <time>2020-10-06T19:40:45.424Z</time>
      </trkpt>
      <trkpt lat="58.9484" lon="23.61494">
        <ele>9.131321</ele>
        <time>2020-10-06T19:40:55.408Z</time>
      </trkpt>
      <trkpt lat="58.94829" lon="23.61425">
        <ele>9.051827</ele>
        <time>2020-10-06T19:41:03.525Z</time>
      </trkpt>
      <trkpt lat="58.94827" lon="23.61409">
        <ele>9.033397</ele>
        <time>2020-10-06T19:41:05.590Z</time>
      </trkpt>
      <trkpt lat="58.94822" lon="23.61346">
        <ele>8.962934</ele>
        <time>2020-10-06T19:41:12.601Z</time>
      </trkpt>
      <trkpt lat="58.94801" lon="23.61141">
        <ele>8.762688</ele>
        <time>2020-10-06T19:41:35.224Z</time>
      </trkpt>
      <trkpt lat="58.94777" lon="23.60968">
        <ele>8.675635</ele>
        <time>2020-10-06T19:41:54.415Z</time>
      </trkpt>
      <trkpt lat="58.94747" lon="23.60792">
        <ele>8.960212</ele>
        <time>2020-10-06T19:42:17.389Z</time>
      </trkpt>
      <trkpt lat="58.94735" lon="23.60758">
        <ele>9.177102</ele>
        <time>2020-10-06T19:42:22.820Z</time>
      </trkpt>
      <trkpt lat="58.947" lon="23.6058">
        <ele>10.192583</ele>
        <time>2020-10-06T19:42:50.158Z</time>
      </trkpt>
      <trkpt lat="58.947" lon="23.60548">
        <ele>10.358249</ele>
        <time>2020-10-06T19:42:54.185Z</time>
      </trkpt>
      <trkpt lat="58.94698" lon="23.60534">
        <ele>10.436866</ele>
        <time>2020-10-06T19:42:56.756Z</time>
      </trkpt>
      <trkpt lat="58.94696" lon="23.60515">
        <ele>10.518041</ele>
        <time>2020-10-06T19:42:59.581Z</time>
      </trkpt>
      <trkpt lat="58.94672" lon="23.60433">
        <ele>10.854159</ele>
        <time>2020-10-06T19:43:12.502Z</time>
      </trkpt>
      <trkpt lat="58.94516" lon="23.59802">
        <ele>12.207153</ele>
        <time>2020-10-06T19:44:39.067Z</time>
      </trkpt>
      <trkpt lat="58.94512" lon="23.59788">
        <ele>12.173565</ele>
        <time>2020-10-06T19:44:40.928Z</time>
      </trkpt>
      <trkpt lat="58.94492" lon="23.59696">
        <ele>11.963522</ele>
        <time>2020-10-06T19:44:51.483Z</time>
      </trkpt>
      <trkpt lat="58.94393" lon="23.59293">
        <ele>9.953903</ele>
        <time>2020-10-06T19:45:35.664Z</time>
      </trkpt>
      <trkpt lat="58.94375" lon="23.5922">
        <ele>9.70745</ele>
        <time>2020-10-06T19:45:43.852Z</time>
      </trkpt>
      <trkpt lat="58.94352" lon="23.59128">
        <ele>9.500125</ele>
        <time>2020-10-06T19:45:54.409Z</time>
      </trkpt>
      <trkpt lat="58.94287" lon="23.58861">
        <ele>9.196372</ele>
        <time>2020-10-06T19:46:28.372Z</time>
      </trkpt>
      <trkpt lat="58.94265" lon="23.58767">
        <ele>9.277045</ele>
        <time>2020-10-06T19:46:40.953Z</time>
      </trkpt>
      <trkpt lat="58.94253" lon="23.58715">
        <ele>9.321398</ele>
        <time>2020-10-06T19:46:47.844Z</time>
      </trkpt>
      <trkpt lat="58.94246" lon="23.58669">
        <ele>9.359283</ele>
        <time>2020-10-06T19:46:53.384Z</time>
      </trkpt>
      <trkpt lat="58.94243" lon="23.58654">
        <ele>9.372192</ele>
        <time>2020-10-06T19:46:55.591Z</time>
      </trkpt>
      <trkpt lat="58.94237" lon="23.58615">
        <ele>9.367614</ele>
        <time>2020-10-06T19:47:00.205Z</time>
      </trkpt>
      <trkpt lat="58.94188" lon="23.5845">
        <ele>9.201853</ele>
        <time>2020-10-06T19:47:22.098Z</time>
      </trkpt>
      <trkpt lat="58.94169" lon="23.58369">
        <ele>9.124548</ele>
        <time>2020-10-06T19:47:31.611Z</time>
      </trkpt>
      <trkpt lat="58.94146" lon="23.58294">
        <ele>9.010158</ele>
        <time>2020-10-06T19:47:40.842Z</time>
      </trkpt>
      <trkpt lat="58.94144" lon="23.58281">
        <ele>8.986486</ele>
        <time>2020-10-06T19:47:42.242Z</time>
      </trkpt>
      <trkpt lat="58.94146" lon="23.58263">
        <ele>8.952507</ele>
        <time>2020-10-06T19:47:44.272Z</time>
      </trkpt>
      <trkpt lat="58.94139" lon="23.58244">
        <ele>8.910964</ele>
        <time>2020-10-06T19:47:46.693Z</time>
      </trkpt>
      <trkpt lat="58.94134" lon="23.58232">
        <ele>8.883697</ele>
        <time>2020-10-06T19:47:48.235Z</time>
      </trkpt>
      <trkpt lat="58.94123" lon="23.58229">
        <ele>8.843294</ele>
        <time>2020-10-06T19:47:50.655Z</time>
      </trkpt>
      <trkpt lat="58.94115" lon="23.58212">
        <ele>8.80075</ele>
        <time>2020-10-06T19:47:53.224Z</time>
      </trkpt>
      <trkpt lat="58.94108" lon="23.58198">
        <ele>8.764152</ele>
        <time>2020-10-06T19:47:55.274Z</time>
      </trkpt>
      <trkpt lat="58.94048" lon="23.58028">
        <ele>8.408605</ele>
        <time>2020-10-06T19:48:17.828Z</time>
      </trkpt>
      <trkpt lat="58.94036" lon="23.57976">
        <ele>8.337357</ele>
        <time>2020-10-06T19:48:24.300Z</time>
      </trkpt>
      <trkpt lat="58.94002" lon="23.57875">
        <ele>8.188959</ele>
        <time>2020-10-06T19:48:37.595Z</time>
      </trkpt>
      <trkpt lat="58.9399" lon="23.57838">
        <ele>8.134336</ele>
        <time>2020-10-06T19:48:42.563Z</time>
      </trkpt>
      <trkpt lat="58.93989" lon="23.57823">
        <ele>8.115923</ele>
        <time>2020-10-06T19:48:44.196Z</time>
      </trkpt>
      <trkpt lat="58.93982" lon="23.57805">
        <ele>8.086687</ele>
        <time>2020-10-06T19:48:46.923Z</time>
      </trkpt>
      <trkpt lat="58.93972" lon="23.5778">
        <ele>8.048021</ele>
        <time>2020-10-06T19:48:50.313Z</time>
      </trkpt>
      <trkpt lat="58.93897" lon="23.57563">
        <ele>7.834804</ele>
        <time>2020-10-06T19:49:18.559Z</time>
      </trkpt>
      <trkpt lat="58.93893" lon="23.5755">
        <ele>7.823774</ele>
        <time>2020-10-06T19:49:20.063Z</time>
      </trkpt>
      <trkpt lat="58.93873" lon="23.57491">
        <ele>7.76906</ele>
        <time>2020-10-06T19:49:28.543Z</time>
      </trkpt>
      <trkpt lat="58.93868" lon="23.57482">
        <ele>7.758721</ele>
        <time>2020-10-06T19:49:30.104Z</time>
      </trkpt>
      <trkpt lat="58.93864" lon="23.57475">
        <ele>7.750455</ele>
        <time>2020-10-06T19:49:31.284Z</time>
      </trkpt>
      <trkpt lat="58.93859" lon="23.5746">
        <ele>7.804686</ele>
        <time>2020-10-06T19:49:33.689Z</time>
      </trkpt>
      <trkpt lat="58.93848" lon="23.57429">
        <ele>7.965392</ele>
        <time>2020-10-06T19:49:38.216Z</time>
      </trkpt>
      <trkpt lat="58.93847" lon="23.57424">
        <ele>7.992061</ele>
        <time>2020-10-06T19:49:38.891Z</time>
      </trkpt>
      <trkpt lat="58.93849" lon="23.57389">
        <ele>8.142845</ele>
        <time>2020-10-06T19:49:43.656Z</time>
      </trkpt>
      <trkpt lat="58.93846" lon="23.57383">
        <ele>8.17539</ele>
        <time>2020-10-06T19:49:44.485Z</time>
      </trkpt>
      <trkpt lat="58.93841" lon="23.5737">
        <ele>8.24743</ele>
        <time>2020-10-06T19:49:46.560Z</time>
      </trkpt>
      <trkpt lat="58.93839" lon="23.57362">
        <ele>8.283517</ele>
        <time>2020-10-06T19:49:47.680Z</time>
      </trkpt>
      <trkpt lat="58.93824" lon="23.57348">
        <ele>8.421471</ele>
        <time>2020-10-06T19:49:52.405Z</time>
      </trkpt>
      <trkpt lat="58.93819" lon="23.5734">
        <ele>8.476449</ele>
        <time>2020-10-06T19:49:53.948Z</time>
      </trkpt>
      <trkpt lat="58.93818" lon="23.57335">
        <ele>8.49589</ele>
        <time>2020-10-06T19:49:54.532Z</time>
      </trkpt>
      <trkpt lat="58.93812" lon="23.57318">
        <ele>8.58479</ele>
        <time>2020-10-06T19:49:57.216Z</time>
      </trkpt>
      <trkpt lat="58.93805" lon="23.57301">
        <ele>8.680563</ele>
        <time>2020-10-06T19:50:00.238Z</time>
      </trkpt>
      <trkpt lat="58.93804" lon="23.57296">
        <ele>8.706233</ele>
        <time>2020-10-06T19:50:01.562Z</time>
      </trkpt>
      <trkpt lat="58.93782" lon="23.57239">
        <ele>9.00887</ele>
        <time>2020-10-06T19:50:11.517Z</time>
      </trkpt>
      <trkpt lat="58.93762" lon="23.57154">
        <ele>9.262988</ele>
        <time>2020-10-06T19:50:23.631Z</time>
      </trkpt>
      <trkpt lat="58.93753" lon="23.57107">
        <ele>9.289863</ele>
        <time>2020-10-06T19:50:30.667Z</time>
      </trkpt>
      <trkpt lat="58.93746" lon="23.57041">
        <ele>9.326076</ele>
        <time>2020-10-06T19:50:39.458Z</time>
      </trkpt>
      <trkpt lat="58.9374" lon="23.56976">
        <ele>9.361281</ele>
        <time>2020-10-06T19:50:46.948Z</time>
      </trkpt>
      <trkpt lat="58.93737" lon="23.56922">
        <ele>9.390305</ele>
        <time>2020-10-06T19:50:52.450Z</time>
      </trkpt>
      <trkpt lat="58.93723" lon="23.56692">
        <ele>8.995846</ele>
        <time>2020-10-06T19:51:16.318Z</time>
      </trkpt>
      <trkpt lat="58.93724" lon="23.56677">
        <ele>8.956513</ele>
        <time>2020-10-06T19:51:18.039Z</time>
      </trkpt>
      <trkpt lat="58.93731" lon="23.56671">
        <ele>8.916803</ele>
        <time>2020-10-06T19:51:19.754Z</time>
      </trkpt>
      <trkpt lat="58.9373" lon="23.56657">
        <ele>8.879751</ele>
        <time>2020-10-06T19:51:20.967Z</time>
      </trkpt>
      <trkpt lat="58.9373" lon="23.56638">
        <ele>8.826962</ele>
        <time>2020-10-06T19:51:22.983Z</time>
      </trkpt>
      <trkpt lat="58.93729" lon="23.56623">
        <ele>8.786882</ele>
        <time>2020-10-06T19:51:24.540Z</time>
      </trkpt>
      <trkpt lat="58.93728" lon="23.566">
        <ele>8.723698</ele>
        <time>2020-10-06T19:51:27.648Z</time>
      </trkpt>
      <trkpt lat="58.93725" lon="23.56574">
        <ele>8.651992</ele>
        <time>2020-10-06T19:51:30.254Z</time>
      </trkpt>
      <trkpt lat="58.93718" lon="23.56572">
        <ele>8.618749</ele>
        <time>2020-10-06T19:51:31.541Z</time>
      </trkpt>
      <trkpt lat="58.93713" lon="23.56518">
        <ele>8.49549</ele>
        <time>2020-10-06T19:51:37.854Z</time>
      </trkpt>
      <trkpt lat="58.93709" lon="23.56445">
        <ele>8.582793</ele>
        <time>2020-10-06T19:51:46.141Z</time>
      </trkpt>
      <trkpt lat="58.93715" lon="23.56432">
        <ele>8.602563</ele>
        <time>2020-10-06T19:51:47.955Z</time>
      </trkpt>
      <trkpt lat="58.93715" lon="23.5642">
        <ele>8.617074</ele>
        <time>2020-10-06T19:51:49.940Z</time>
      </trkpt>
      <trkpt lat="58.93715" lon="23.56415">
        <ele>8.623818</ele>
        <time>2020-10-06T19:51:50.623Z</time>
      </trkpt>
      <trkpt lat="58.93712" lon="23.56388">
        <ele>8.65662</ele>
        <time>2020-10-06T19:51:53.491Z</time>
      </trkpt>
      <trkpt lat="58.93723" lon="23.56261">
        <ele>8.810331</ele>
        <time>2020-10-06T19:52:09.790Z</time>
      </trkpt>
      <trkpt lat="58.93739" lon="23.56089">
        <ele>8.980881</ele>
        <time>2020-10-06T19:52:31.215Z</time>
      </trkpt>
      <trkpt lat="58.93762" lon="23.5583">
        <ele>9.178795</ele>
        <time>2020-10-06T19:53:01.831Z</time>
      </trkpt>
      <trkpt lat="58.93773" lon="23.55718">
        <ele>9.169937</ele>
        <time>2020-10-06T19:53:14.987Z</time>
      </trkpt>
      <trkpt lat="58.93791" lon="23.55511">
        <ele>9.153691</ele>
        <time>2020-10-06T19:53:38.827Z</time>
      </trkpt>
      <trkpt lat="58.93818" lon="23.55226">
        <ele>9.386769</ele>
        <time>2020-10-06T19:54:12.890Z</time>
      </trkpt>
      <trkpt lat="58.93819" lon="23.5522">
        <ele>9.391849</ele>
        <time>2020-10-06T19:54:13.621Z</time>
      </trkpt>
      <trkpt lat="58.93823" lon="23.55214">
        <ele>9.399307</ele>
        <time>2020-10-06T19:54:14.674Z</time>
      </trkpt>
      <trkpt lat="58.93825" lon="23.55194">
        <ele>9.417226</ele>
        <time>2020-10-06T19:54:17.208Z</time>
      </trkpt>
      <trkpt lat="58.93827" lon="23.55177">
        <ele>9.431849</ele>
        <time>2020-10-06T19:54:19.395Z</time>
      </trkpt>
      <trkpt lat="58.93824" lon="23.55162">
        <ele>9.444922</ele>
        <time>2020-10-06T19:54:21.271Z</time>
      </trkpt>
      <trkpt lat="58.93832" lon="23.55071">
        <ele>9.650819</ele>
        <time>2020-10-06T19:54:32.621Z</time>
      </trkpt>
      <trkpt lat="58.93846" lon="23.54903">
        <ele>10.038807</ele>
        <time>2020-10-06T19:54:53.816Z</time>
      </trkpt>
      <trkpt lat="58.9387" lon="23.54683">
        <ele>10.586755</ele>
        <time>2020-10-06T19:55:21.992Z</time>
      </trkpt>
      <trkpt lat="58.93887" lon="23.54627">
        <ele>10.750882</ele>
        <time>2020-10-06T19:55:30.256Z</time>
      </trkpt>
      <trkpt lat="58.93917" lon="23.54555">
        <ele>10.986166</ele>
        <time>2020-10-06T19:55:41.998Z</time>
      </trkpt>
      <trkpt lat="58.9392" lon="23.54545">
        <ele>11.016444</ele>
        <time>2020-10-06T19:55:43.562Z</time>
      </trkpt>
      <trkpt lat="58.9391" lon="23.54548">
        <ele>11.067729</ele>
        <time>2020-10-06T19:55:46.084Z</time>
      </trkpt>
      <trkpt lat="58.93928" lon="23.54461">
        <ele>11.164572</ele>
        <time>2020-10-06T19:55:57.379Z</time>
      </trkpt>
      <trkpt lat="58.93939" lon="23.54406">
        <ele>11.193915</ele>
        <time>2020-10-06T19:56:04.491Z</time>
      </trkpt>
      <trkpt lat="58.93946" lon="23.54367">
        <ele>11.214132</ele>
        <time>2020-10-06T19:56:09.303Z</time>
      </trkpt>
      <trkpt lat="58.9395" lon="23.54349">
        <ele>11.223635</ele>
        <time>2020-10-06T19:56:11.509Z</time>
      </trkpt>
      <trkpt lat="58.93954" lon="23.54321">
        <ele>11.238151</ele>
        <time>2020-10-06T19:56:14.949Z</time>
      </trkpt>
      <trkpt lat="58.93957" lon="23.54305">
        <ele>11.246379</ele>
        <time>2020-10-06T19:56:16.923Z</time>
      </trkpt>
      <trkpt lat="58.93958" lon="23.54299">
        <ele>11.249699</ele>
        <time>2020-10-06T19:56:17.703Z</time>
      </trkpt>
      <trkpt lat="58.93958" lon="23.54285">
        <ele>11.256573</ele>
        <time>2020-10-06T19:56:19.284Z</time>
      </trkpt>
      <trkpt lat="58.93958" lon="23.54263">
        <ele>11.26723</ele>
        <time>2020-10-06T19:56:21.841Z</time>
      </trkpt>
      <trkpt lat="58.93957" lon="23.5425">
        <ele>11.274042</ele>
        <time>2020-10-06T19:56:23.461Z</time>
      </trkpt>
      <trkpt lat="58.93953" lon="23.54225">
        <ele>11.286632</ele>
        <time>2020-10-06T19:56:26.379Z</time>
      </trkpt>
      <trkpt lat="58.93951" lon="23.54212">
        <ele>11.293475</ele>
        <time>2020-10-06T19:56:27.926Z</time>
      </trkpt>
      <trkpt lat="58.9395" lon="23.54193">
        <ele>11.301012</ele>
        <time>2020-10-06T19:56:30.049Z</time>
      </trkpt>
      <trkpt lat="58.93945" lon="23.54159">
        <ele>11.194536</ele>
        <time>2020-10-06T19:56:33.941Z</time>
      </trkpt>
      <trkpt lat="58.93942" lon="23.54141">
        <ele>11.137169</ele>
        <time>2020-10-06T19:56:35.987Z</time>
      </trkpt>
      <trkpt lat="58.9394" lon="23.54123">
        <ele>11.079822</ele>
        <time>2020-10-06T19:56:38.056Z</time>
      </trkpt>
      <trkpt lat="58.93936" lon="23.54101">
        <ele>11.009992</ele>
        <time>2020-10-06T19:56:40.531Z</time>
      </trkpt>
      <trkpt lat="58.93932" lon="23.54065">
        <ele>10.898879</ele>
        <time>2020-10-06T19:56:44.360Z</time>
      </trkpt>
      <trkpt lat="58.93928" lon="23.53996">
        <ele>10.688797</ele>
        <time>2020-10-06T19:56:51.581Z</time>
      </trkpt>
      <trkpt lat="58.93928" lon="23.5398">
        <ele>10.641886</ele>
        <time>2020-10-06T19:56:53.205Z</time>
      </trkpt>
      <trkpt lat="58.93929" lon="23.5397">
        <ele>10.612533</ele>
        <time>2020-10-06T19:56:54.219Z</time>
      </trkpt>
      <trkpt lat="58.93931" lon="23.53911">
        <ele>10.433329</ele>
        <time>2020-10-06T19:57:00.382Z</time>
      </trkpt>
      <trkpt lat="58.93932" lon="23.53837">
        <ele>10.17427</ele>
        <time>2020-10-06T19:57:08.115Z</time>
      </trkpt>
      <trkpt lat="58.93933" lon="23.53806">
        <ele>9.999018</ele>
        <time>2020-10-06T19:57:11.217Z</time>
      </trkpt>
      <trkpt lat="58.93933" lon="23.53786">
        <ele>9.884273</ele>
        <time>2020-10-06T19:57:13.231Z</time>
      </trkpt>
      <trkpt lat="58.93934" lon="23.53761">
        <ele>9.739882</ele>
        <time>2020-10-06T19:57:15.823Z</time>
      </trkpt>
      <trkpt lat="58.93935" lon="23.53654">
        <ele>9.129215</ele>
        <time>2020-10-06T19:57:26.318Z</time>
      </trkpt>
      <trkpt lat="58.93936" lon="23.53634">
        <ele>9.015078</ele>
        <time>2020-10-06T19:57:28.267Z</time>
      </trkpt>
      <trkpt lat="58.93936" lon="23.53577">
        <ele>8.690487</ele>
        <time>2020-10-06T19:57:33.766Z</time>
      </trkpt>
      <trkpt lat="58.93936" lon="23.53559">
        <ele>8.586572</ele>
        <time>2020-10-06T19:57:35.530Z</time>
      </trkpt>
      <trkpt lat="58.93937" lon="23.53523">
        <ele>8.379355</ele>
        <time>2020-10-06T19:57:39.033Z</time>
      </trkpt>
      <trkpt lat="58.93939" lon="23.53486">
        <ele>8.171603</ele>
        <time>2020-10-06T19:57:42.504Z</time>
      </trkpt>
      <trkpt lat="58.9394" lon="23.53476">
        <ele>8.113088</ele>
        <time>2020-10-06T19:57:43.475Z</time>
      </trkpt>
      <trkpt lat="58.93938" lon="23.53467">
        <ele>8.057233</ele>
        <time>2020-10-06T19:57:44.469Z</time>
      </trkpt>
      <trkpt lat="58.93934" lon="23.53459">
        <ele>7.996038</ele>
        <time>2020-10-06T19:57:45.501Z</time>
      </trkpt>
      <trkpt lat="58.93937" lon="23.53446">
        <ele>7.915762</ele>
        <time>2020-10-06T19:57:46.852Z</time>
      </trkpt>
      <trkpt lat="58.93939" lon="23.53425">
        <ele>7.794392</ele>
        <time>2020-10-06T19:57:48.887Z</time>
      </trkpt>
      <trkpt lat="58.9394" lon="23.53408">
        <ele>7.694331</ele>
        <time>2020-10-06T19:57:50.590Z</time>
      </trkpt>
      <trkpt lat="58.93944" lon="23.53324">
        <ele>7.215876</ele>
        <time>2020-10-06T19:57:58.712Z</time>
      </trkpt>
      <trkpt lat="58.93944" lon="23.5332">
        <ele>7.188273</ele>
        <time>2020-10-06T19:57:59.180Z</time>
      </trkpt>
      <trkpt lat="58.93948" lon="23.5324">
        <ele>6.73112</ele>
        <time>2020-10-06T19:58:07.120Z</time>
      </trkpt>
      <trkpt lat="58.93948" lon="23.53235">
        <ele>6.701412</ele>
        <time>2020-10-06T19:58:07.580Z</time>
      </trkpt>
      <trkpt lat="58.93947" lon="23.53162">
        <ele>6.283338</ele>
        <time>2020-10-06T19:58:15.078Z</time>
      </trkpt>
      <trkpt lat="58.93929" lon="23.53081">
        <ele>6.216313</ele>
        <time>2020-10-06T19:58:24.699Z</time>
      </trkpt>
      <trkpt lat="58.93924" lon="23.53066">
        <ele>6.20546</ele>
        <time>2020-10-06T19:58:26.488Z</time>
      </trkpt>
      <trkpt lat="58.9392" lon="23.53073">
        <ele>6.198385</ele>
        <time>2020-10-06T19:58:27.838Z</time>
      </trkpt>
      <trkpt lat="58.93893" lon="23.53095">
        <ele>6.162874</ele>
        <time>2020-10-06T19:58:34.370Z</time>
      </trkpt>
      <trkpt lat="58.93818" lon="23.53158">
        <ele>6.063202</ele>
        <time>2020-10-06T19:58:53.626Z</time>
      </trkpt>
      <trkpt lat="58.93798" lon="23.53178">
        <ele>6.061084</ele>
        <time>2020-10-06T19:58:59.099Z</time>
      </trkpt>
      <trkpt lat="58.93729" lon="23.5324">
        <ele>6.131326</ele>
        <time>2020-10-06T19:59:18.703Z</time>
      </trkpt>
      <trkpt lat="58.93714" lon="23.53216">
        <ele>6.149183</ele>
        <time>2020-10-06T19:59:24.472Z</time>
      </trkpt>
      <trkpt lat="58.93699" lon="23.53192">
        <ele>6.16711</ele>
        <time>2020-10-06T19:59:30.269Z</time>
      </trkpt>
      <trkpt lat="58.93696" lon="23.53188">
        <ele>6.169976</ele>
        <time>2020-10-06T19:59:31.140Z</time>
      </trkpt>
      <trkpt lat="58.93691" lon="23.53179">
        <ele>6.175988</ele>
        <time>2020-10-06T19:59:33.056Z</time>
      </trkpt>
      <trkpt lat="58.93629" lon="23.53062">
        <ele>6.307456</ele>
        <time>2020-10-06T19:59:58.779Z</time>
      </trkpt>
      <trkpt lat="58.93601" lon="23.53013">
        <ele>6.384774</ele>
        <time>2020-10-06T20:00:09.824Z</time>
      </trkpt>
      <trkpt lat="58.93588" lon="23.52989">
        <ele>6.42197</ele>
        <time>2020-10-06T20:00:15.036Z</time>
      </trkpt>
      <trkpt lat="58.93557" lon="23.52946">
        <ele>6.500716</ele>
        <time>2020-10-06T20:00:26.637Z</time>
      </trkpt>
      <trkpt lat="58.93547" lon="23.52938">
        <ele>6.523211</ele>
        <time>2020-10-06T20:00:30.016Z</time>
      </trkpt>
      <trkpt lat="58.93526" lon="23.52921">
        <ele>6.571522</ele>
        <time>2020-10-06T20:00:37.225Z</time>
      </trkpt>
      <trkpt lat="58.93352" lon="23.52796">
        <ele>7.410678</ele>
        <time>2020-10-06T20:01:35.620Z</time>
      </trkpt>
      <trkpt lat="58.93301" lon="23.5276">
        <ele>7.52484</ele>
        <time>2020-10-06T20:01:51.898Z</time>
      </trkpt>
      <trkpt lat="58.93254" lon="23.52726">
        <ele>7.627213</ele>
        <time>2020-10-06T20:02:06.756Z</time>
      </trkpt>
      <trkpt lat="58.93199" lon="23.52687">
        <ele>7.744578</ele>
        <time>2020-10-06T20:02:24.009Z</time>
      </trkpt>
      <trkpt lat="58.93134" lon="23.52641">
        <ele>8.081157</ele>
        <time>2020-10-06T20:02:45.065Z</time>
      </trkpt>
      <trkpt lat="58.93128" lon="23.52637">
        <ele>8.119981</ele>
        <time>2020-10-06T20:02:47.089Z</time>
      </trkpt>
      <trkpt lat="58.93091" lon="23.52612">
        <ele>8.352091</ele>
        <time>2020-10-06T20:02:59.676Z</time>
      </trkpt>
      <trkpt lat="58.93088" lon="23.52611">
        <ele>8.367733</ele>
        <time>2020-10-06T20:03:00.529Z</time>
      </trkpt>
      <trkpt lat="58.93076" lon="23.52603">
        <ele>8.442272</ele>
        <time>2020-10-06T20:03:04.556Z</time>
      </trkpt>
      <trkpt lat="58.93067" lon="23.52603">
        <ele>8.497529</ele>
        <time>2020-10-06T20:03:07.568Z</time>
      </trkpt>
      <trkpt lat="58.93062" lon="23.52603">
        <ele>8.528425</ele>
        <time>2020-10-06T20:03:09.264Z</time>
      </trkpt>
      <trkpt lat="58.93042" lon="23.52591">
        <ele>8.65452</ele>
        <time>2020-10-06T20:03:17.857Z</time>
      </trkpt>
      <trkpt lat="58.93013" lon="23.52579">
        <ele>8.828185</ele>
        <time>2020-10-06T20:03:29.752Z</time>
      </trkpt>
      <trkpt lat="58.92987" lon="23.52566">
        <ele>8.896973</ele>
        <time>2020-10-06T20:03:40.639Z</time>
      </trkpt>
      <trkpt lat="58.92967" lon="23.52568">
        <ele>8.936049</ele>
        <time>2020-10-06T20:03:48.516Z</time>
      </trkpt>
      <trkpt lat="58.92946" lon="23.5255">
        <ele>8.98188</ele>
        <time>2020-10-06T20:03:57.809Z</time>
      </trkpt>
      <trkpt lat="58.92856" lon="23.5252">
        <ele>9.161576</ele>
        <time>2020-10-06T20:04:31.922Z</time>
      </trkpt>
      <trkpt lat="58.92747" lon="23.52508">
        <ele>9.101664</ele>
        <time>2020-10-06T20:05:10.246Z</time>
      </trkpt>
      <trkpt lat="58.9266" lon="23.5251">
        <ele>8.996129</ele>
        <time>2020-10-06T20:05:42.558Z</time>
      </trkpt>
      <trkpt lat="58.92647" lon="23.52513">
        <ele>9.02811</ele>
        <time>2020-10-06T20:05:47.788Z</time>
      </trkpt>
      <trkpt lat="58.92617" lon="23.52509">
        <ele>9.209912</ele>
        <time>2020-10-06T20:05:59.677Z</time>
      </trkpt>
      <trkpt lat="58.92579" lon="23.5251">
        <ele>9.443491</ele>
        <time>2020-10-06T20:06:15.356Z</time>
      </trkpt>
      <trkpt lat="58.92502" lon="23.525">
        <ele>9.908653</ele>
        <time>2020-10-06T20:06:46.673Z</time>
      </trkpt>
      <trkpt lat="58.92462" lon="23.52482">
        <ele>10.028344</ele>
        <time>2020-10-06T20:07:02.875Z</time>
      </trkpt>
      <trkpt lat="58.92319" lon="23.52376">
        <ele>9.400127</ele>
        <time>2020-10-06T20:07:56.909Z</time>
      </trkpt>
      <trkpt lat="58.92303" lon="23.52364">
        <ele>9.328417</ele>
        <time>2020-10-06T20:08:02.263Z</time>
      </trkpt>
      <trkpt lat="58.92264" lon="23.52332">
        <ele>9.099593</ele>
        <time>2020-10-06T20:08:16.760Z</time>
      </trkpt>
      <trkpt lat="58.92177" lon="23.52262">
        <ele>8.594712</ele>
        <time>2020-10-06T20:08:49.448Z</time>
      </trkpt>
      <trkpt lat="58.92173" lon="23.52251">
        <ele>8.555112</ele>
        <time>2020-10-06T20:08:51.954Z</time>
      </trkpt>
      <trkpt lat="58.92173" lon="23.52239">
        <ele>8.520601</ele>
        <time>2020-10-06T20:08:54.347Z</time>
      </trkpt>
      <trkpt lat="58.92171" lon="23.52191">
        <ele>8.387259</ele>
        <time>2020-10-06T20:09:03.648Z</time>
      </trkpt>
      <trkpt lat="58.92137" lon="23.51851">
        <ele>9.045187</ele>
        <time>2020-10-06T20:10:13.222Z</time>
      </trkpt>
      <trkpt lat="58.92117" lon="23.51732">
        <ele>9.424019</ele>
        <time>2020-10-06T20:10:38.972Z</time>
      </trkpt>
      <trkpt lat="58.92089" lon="23.51605">
        <ele>9.849286</ele>
        <time>2020-10-06T20:11:07.587Z</time>
      </trkpt>
      <trkpt lat="58.92047" lon="23.51436">
        <ele>10.231672</ele>
        <time>2020-10-06T20:11:45.741Z</time>
      </trkpt>
      <trkpt lat="58.9204" lon="23.51414">
        <ele>10.257606</ele>
        <time>2020-10-06T20:11:50.771Z</time>
      </trkpt>
      <trkpt lat="58.91993" lon="23.51252">
        <ele>10.452439</ele>
        <time>2020-10-06T20:12:27.002Z</time>
      </trkpt>
      <trkpt lat="58.91956" lon="23.51125">
        <ele>10.375018</ele>
        <time>2020-10-06T20:12:54.141Z</time>
      </trkpt>
      <trkpt lat="58.91926" lon="23.51024">
        <ele>10.246721</ele>
        <time>2020-10-06T20:13:15.623Z</time>
      </trkpt>
      <trkpt lat="58.91924" lon="23.51018">
        <ele>10.238002</ele>
        <time>2020-10-06T20:13:17.072Z</time>
      </trkpt>
      <trkpt lat="58.91894" lon="23.50905">
        <ele>10.095952</ele>
        <time>2020-10-06T20:13:41.194Z</time>
      </trkpt>
      <trkpt lat="58.91899" lon="23.50906">
        <ele>10.08434</ele>
        <time>2020-10-06T20:13:42.623Z</time>
      </trkpt>
      <trkpt lat="58.91909" lon="23.50897">
        <ele>10.061088</ele>
        <time>2020-10-06T20:13:45.680Z</time>
      </trkpt>
      <trkpt lat="58.9189" lon="23.50832">
        <ele>9.975401</ele>
        <time>2020-10-06T20:13:53.951Z</time>
      </trkpt>
      <trkpt lat="58.91868" lon="23.50755">
        <ele>9.87456</ele>
        <time>2020-10-06T20:14:03.644Z</time>
      </trkpt>
      <trkpt lat="58.91853" lon="23.50695">
        <ele>9.797864</ele>
        <time>2020-10-06T20:14:11.116Z</time>
      </trkpt>
      <trkpt lat="58.91848" lon="23.50667">
        <ele>9.76366</ele>
        <time>2020-10-06T20:14:14.326Z</time>
      </trkpt>
      <trkpt lat="58.91842" lon="23.50614">
        <ele>9.696401</ele>
        <time>2020-10-06T20:14:20.559Z</time>
      </trkpt>
      <trkpt lat="58.91843" lon="23.50525">
        <ele>9.471208</ele>
        <time>2020-10-06T20:14:30.351Z</time>
      </trkpt>
      <trkpt lat="58.91879" lon="23.49933">
        <ele>7.900613</ele>
        <time>2020-10-06T20:15:33.104Z</time>
      </trkpt>
      <trkpt lat="58.91873" lon="23.49856">
        <ele>7.935642</ele>
        <time>2020-10-06T20:15:41.663Z</time>
      </trkpt>
      <trkpt lat="58.91856" lon="23.49748">
        <ele>8.027962</ele>
        <time>2020-10-06T20:15:54.661Z</time>
      </trkpt>
      <trkpt lat="58.91855" lon="23.49739">
        <ele>8.035506</ele>
        <time>2020-10-06T20:15:55.621Z</time>
      </trkpt>
      <trkpt lat="58.91843" lon="23.49669">
        <ele>8.095066</ele>
        <time>2020-10-06T20:16:04.364Z</time>
      </trkpt>
      <trkpt lat="58.91776" lon="23.49264">
        <ele>9.519588</ele>
        <time>2020-10-06T20:17:00.508Z</time>
      </trkpt>
      <trkpt lat="58.91701" lon="23.48811">
        <ele>11.258528</ele>
        <time>2020-10-06T20:18:03.464Z</time>
      </trkpt>
      <trkpt lat="58.917" lon="23.48755">
        <ele>11.354077</ele>
        <time>2020-10-06T20:18:10.430Z</time>
      </trkpt>
      <trkpt lat="58.91708" lon="23.48659">
        <ele>11.517739</ele>
        <time>2020-10-06T20:18:22.070Z</time>
      </trkpt>
      <trkpt lat="58.9173" lon="23.48579">
        <ele>11.615509</ele>
        <time>2020-10-06T20:18:32.129Z</time>
      </trkpt>
      <trkpt lat="58.91768" lon="23.48475">
        <ele>11.40763</ele>
        <time>2020-10-06T20:18:45.643Z</time>
      </trkpt>
      <trkpt lat="58.91795" lon="23.48376">
        <ele>11.225207</ele>
        <time>2020-10-06T20:18:57.754Z</time>
      </trkpt>
      <trkpt lat="58.91801" lon="23.48339">
        <ele>11.162297</ele>
        <time>2020-10-06T20:19:01.917Z</time>
      </trkpt>
      <trkpt lat="58.91806" lon="23.4829">
        <ele>11.081319</ele>
        <time>2020-10-06T20:19:07.559Z</time>
      </trkpt>
      <trkpt lat="58.91808" lon="23.48237">
        <ele>11.144749</ele>
        <time>2020-10-06T20:19:13.718Z</time>
      </trkpt>
      <trkpt lat="58.9181" lon="23.4816">
        <ele>11.252012</ele>
        <time>2020-10-06T20:19:22.576Z</time>
      </trkpt>
      <trkpt lat="58.91811" lon="23.48119">
        <ele>11.309468</ele>
        <time>2020-10-06T20:19:27.506Z</time>
      </trkpt>
      <trkpt lat="58.91812" lon="23.47997">
        <ele>11.479262</ele>
        <time>2020-10-06T20:19:42.472Z</time>
      </trkpt>
      <trkpt lat="58.91812" lon="23.47933">
        <ele>11.578822</ele>
        <time>2020-10-06T20:19:50.850Z</time>
      </trkpt>
      <trkpt lat="58.9181" lon="23.4787">
        <ele>11.772395</ele>
        <time>2020-10-06T20:19:59.143Z</time>
      </trkpt>
      <trkpt lat="58.91805" lon="23.47763">
        <ele>12.101342</ele>
        <time>2020-10-06T20:20:13.107Z</time>
      </trkpt>
      <trkpt lat="58.91796" lon="23.47612">
        <ele>12.568447</ele>
        <time>2020-10-06T20:20:32.282Z</time>
      </trkpt>
      <trkpt lat="58.91757" lon="23.47399">
        <ele>13.012816</ele>
        <time>2020-10-06T20:21:00.235Z</time>
      </trkpt>
      <trkpt lat="58.91707" lon="23.47201">
        <ele>13.319725</ele>
        <time>2020-10-06T20:21:26.714Z</time>
      </trkpt>
      <trkpt lat="58.91606" lon="23.46835">
        <ele>13.497459</ele>
        <time>2020-10-06T20:22:14.964Z</time>
      </trkpt>
      <trkpt lat="58.91589" lon="23.46782">
        <ele>13.511544</ele>
        <time>2020-10-06T20:22:22.254Z</time>
      </trkpt>
      <trkpt lat="58.91546" lon="23.46681">
        <ele>13.541326</ele>
        <time>2020-10-06T20:22:37.718Z</time>
      </trkpt>
      <trkpt lat="58.91413" lon="23.46451">
        <ele>13.329332</ele>
        <time>2020-10-06T20:23:16.725Z</time>
      </trkpt>
      <trkpt lat="58.91387" lon="23.46406">
        <ele>13.150625</ele>
        <time>2020-10-06T20:23:24.156Z</time>
      </trkpt>
      <trkpt lat="58.91369" lon="23.46376">
        <ele>13.006119</ele>
        <time>2020-10-06T20:23:29.030Z</time>
      </trkpt>
      <trkpt lat="58.91332" lon="23.46293">
        <ele>12.6612</ele>
        <time>2020-10-06T20:23:40.516Z</time>
      </trkpt>
      <trkpt lat="58.91296" lon="23.46186">
        <ele>12.260335</ele>
        <time>2020-10-06T20:23:53.464Z</time>
      </trkpt>
      <trkpt lat="58.91246" lon="23.46038">
        <ele>11.393783</ele>
        <time>2020-10-06T20:24:11.343Z</time>
      </trkpt>
      <trkpt lat="58.91209" lon="23.45919">
        <ele>10.690109</ele>
        <time>2020-10-06T20:24:25.277Z</time>
      </trkpt>
      <trkpt lat="58.91174" lon="23.45748">
        <ele>9.816152</ele>
        <time>2020-10-06T20:24:43.463Z</time>
      </trkpt>
      <trkpt lat="58.91165" lon="23.45703">
        <ele>9.589842</ele>
        <time>2020-10-06T20:24:48.302Z</time>
      </trkpt>
      <trkpt lat="58.91159" lon="23.45662">
        <ele>9.388792</ele>
        <time>2020-10-06T20:24:52.632Z</time>
      </trkpt>
      <trkpt lat="58.91155" lon="23.45629">
        <ele>9.230352</ele>
        <time>2020-10-06T20:24:56.041Z</time>
      </trkpt>
      <trkpt lat="58.91106" lon="23.44992">
        <ele>7.246869</ele>
        <time>2020-10-06T20:26:03.184Z</time>
      </trkpt>
      <trkpt lat="58.911" lon="23.44917">
        <ele>7.110498</ele>
        <time>2020-10-06T20:26:11.959Z</time>
      </trkpt>
      <trkpt lat="58.91097" lon="23.44871">
        <ele>7.028957</ele>
        <time>2020-10-06T20:26:17.458Z</time>
      </trkpt>
      <trkpt lat="58.91096" lon="23.4473">
        <ele>7.104881</ele>
        <time>2020-10-06T20:26:34.288Z</time>
      </trkpt>
      <trkpt lat="58.91122" lon="23.43998">
        <ele>7.56845</ele>
        <time>2020-10-06T20:28:01.228Z</time>
      </trkpt>
      <trkpt lat="58.91121" lon="23.43887">
        <ele>7.570442</ele>
        <time>2020-10-06T20:28:13.699Z</time>
      </trkpt>
      <trkpt lat="58.91114" lon="23.43833">
        <ele>7.571443</ele>
        <time>2020-10-06T20:28:19.953Z</time>
      </trkpt>
      <trkpt lat="58.91101" lon="23.43778">
        <ele>7.570152</ele>
        <time>2020-10-06T20:28:26.815Z</time>
      </trkpt>
      <trkpt lat="58.90954" lon="23.43347">
        <ele>7.462184</ele>
        <time>2020-10-06T20:29:26.641Z</time>
      </trkpt>
      <trkpt lat="58.90943" lon="23.433">
        <ele>7.43853</ele>
        <time>2020-10-06T20:29:32.613Z</time>
      </trkpt>
      <trkpt lat="58.90908" lon="23.43109">
        <ele>6.926221</ele>
        <time>2020-10-06T20:29:54.457Z</time>
      </trkpt>
      <trkpt lat="58.90888" lon="23.43017">
        <ele>6.521209</ele>
        <time>2020-10-06T20:30:04.623Z</time>
      </trkpt>
      <trkpt lat="58.90871" lon="23.42967">
        <ele>6.281725</ele>
        <time>2020-10-06T20:30:10.576Z</time>
      </trkpt>
      <trkpt lat="58.90862" lon="23.42949">
        <ele>6.177489</ele>
        <time>2020-10-06T20:30:13.039Z</time>
      </trkpt>
      <trkpt lat="58.90859" lon="23.42942">
        <ele>6.142073</ele>
        <time>2020-10-06T20:30:13.924Z</time>
      </trkpt>
      <trkpt lat="58.90853" lon="23.42928">
        <ele>6.070604</ele>
        <time>2020-10-06T20:30:15.653Z</time>
      </trkpt>
      <trkpt lat="58.9085" lon="23.42921">
        <ele>6.033772</ele>
        <time>2020-10-06T20:30:16.548Z</time>
      </trkpt>
      <trkpt lat="58.9084" lon="23.42892">
        <ele>5.851718</ele>
        <time>2020-10-06T20:30:19.991Z</time>
      </trkpt>
      <trkpt lat="58.90825" lon="23.42849">
        <ele>5.566395</ele>
        <time>2020-10-06T20:30:24.994Z</time>
      </trkpt>
      <trkpt lat="58.9077" lon="23.42729">
        <ele>4.662763</ele>
        <time>2020-10-06T20:30:40.863Z</time>
      </trkpt>
      <trkpt lat="58.90764" lon="23.42703">
        <ele>4.50049</ele>
        <time>2020-10-06T20:30:43.708Z</time>
      </trkpt>
      <trkpt lat="58.90755" lon="23.4267">
        <ele>4.292094</ele>
        <time>2020-10-06T20:30:47.574Z</time>
      </trkpt>
      <trkpt lat="58.90676" lon="23.42481">
        <ele>2.976885</ele>
        <time>2020-10-06T20:31:11.729Z</time>
      </trkpt>
      <trkpt lat="58.90649" lon="23.4239">
        <ele>2.41161</ele>
        <time>2020-10-06T20:31:22.136Z</time>
      </trkpt>
      <trkpt lat="58.90643" lon="23.42356">
        <ele>2.22175</ele>
        <time>2020-10-06T20:31:25.684Z</time>
      </trkpt>
      <trkpt lat="58.9064" lon="23.42324">
        <ele>2.085124</ele>
        <time>2020-10-06T20:31:28.880Z</time>
      </trkpt>
      <trkpt lat="58.90642" lon="23.42303">
        <ele>2.007096</ele>
        <time>2020-10-06T20:31:30.963Z</time>
      </trkpt>
      <trkpt lat="58.90651" lon="23.42282">
        <ele>1.907894</ele>
        <time>2020-10-06T20:31:33.585Z</time>
      </trkpt>
      <trkpt lat="58.90849" lon="23.41909">
        <ele>0.304553</ele>
        <time>2020-10-06T20:32:12.155Z</time>
      </trkpt>
      <trkpt lat="58.90792" lon="23.41493">
        <ele>0.011405</ele>
        <time>2020-10-06T20:32:43.168Z</time>
      </trkpt>
      <trkpt lat="58.9078" lon="23.32893">
        <time>2020-10-06T20:43:02.693Z</time>
      </trkpt>
      <trkpt lat="58.89611" lon="23.26267">
        <ele>0.000341</ele>
        <time>2020-10-06T20:51:27.074Z</time>
      </trkpt>
      <trkpt lat="58.86763" lon="23.06298">
        <ele>0.219996</ele>
        <time>2020-10-06T21:16:20.260Z</time>
      </trkpt>
      <trkpt lat="58.86744" lon="23.05201">
        <ele>1.960661</ele>
        <time>2020-10-06T21:17:39.358Z</time>
      </trkpt>
      <trkpt lat="58.86634" lon="23.04801">
        <ele>4.366095</ele>
        <time>2020-10-06T21:18:12.081Z</time>
      </trkpt>
      <trkpt lat="58.86621" lon="23.04761">
        <ele>4.655884</ele>
        <time>2020-10-06T21:18:18.460Z</time>
      </trkpt>
      <trkpt lat="58.86599" lon="23.04725">
        <ele>4.965219</ele>
        <time>2020-10-06T21:18:25.780Z</time>
      </trkpt>
      <trkpt lat="58.86592" lon="23.04713">
        <ele>5.055229</ele>
        <time>2020-10-06T21:18:28.374Z</time>
      </trkpt>
      <trkpt lat="58.86543" lon="23.0462">
        <ele>5.68516</ele>
        <time>2020-10-06T21:18:46.155Z</time>
      </trkpt>
      <trkpt lat="58.86527" lon="23.04583">
        <ele>5.911308</ele>
        <time>2020-10-06T21:18:52.432Z</time>
      </trkpt>
      <trkpt lat="58.86513" lon="23.04525">
        <ele>6.217825</ele>
        <time>2020-10-06T21:19:01.072Z</time>
      </trkpt>
      <trkpt lat="58.86509" lon="23.04504">
        <ele>6.321944</ele>
        <time>2020-10-06T21:19:04.233Z</time>
      </trkpt>
      <trkpt lat="58.86497" lon="23.04436">
        <ele>6.693006</ele>
        <time>2020-10-06T21:19:13.816Z</time>
      </trkpt>
      <trkpt lat="58.86492" lon="23.04393">
        <ele>6.944634</ele>
        <time>2020-10-06T21:19:19.448Z</time>
      </trkpt>
      <trkpt lat="58.86489" lon="23.04372">
        <ele>7.073084</ele>
        <time>2020-10-06T21:19:22.633Z</time>
      </trkpt>
      <trkpt lat="58.86465" lon="23.04277">
        <ele>7.676796</ele>
        <time>2020-10-06T21:19:37.021Z</time>
      </trkpt>
      <trkpt lat="58.86457" lon="23.04233">
        <ele>7.94961</ele>
        <time>2020-10-06T21:19:43.786Z</time>
      </trkpt>
      <trkpt lat="58.86455" lon="23.04222">
        <ele>8.019903</ele>
        <time>2020-10-06T21:19:45.540Z</time>
      </trkpt>
      <trkpt lat="58.86448" lon="23.04227">
        <ele>8.097019</ele>
        <time>2020-10-06T21:19:47.902Z</time>
      </trkpt>
      <trkpt lat="58.86429" lon="23.04125">
        <ele>8.816188</ele>
        <time>2020-10-06T21:20:03.299Z</time>
      </trkpt>
      <trkpt lat="58.86423" lon="23.04105">
        <ele>9.022599</ele>
        <time>2020-10-06T21:20:06.551Z</time>
      </trkpt>
      <trkpt lat="58.86411" lon="23.0406">
        <ele>9.464311</ele>
        <time>2020-10-06T21:20:13.561Z</time>
      </trkpt>
      <trkpt lat="58.86399" lon="23.03998">
        <ele>10.051558</ele>
        <time>2020-10-06T21:20:23.338Z</time>
      </trkpt>
      <trkpt lat="58.86387" lon="23.03935">
        <ele>10.641976</ele>
        <time>2020-10-06T21:20:34.083Z</time>
      </trkpt>
      <trkpt lat="58.86376" lon="23.03836">
        <ele>11.532216</ele>
        <time>2020-10-06T21:20:49.988Z</time>
      </trkpt>
      <trkpt lat="58.86372" lon="23.03774">
        <ele>12.023958</ele>
        <time>2020-10-06T21:20:59.701Z</time>
      </trkpt>
      <trkpt lat="58.86372" lon="23.03728">
        <ele>12.384868</ele>
        <time>2020-10-06T21:21:06.997Z</time>
      </trkpt>
      <trkpt lat="58.86372" lon="23.03685">
        <ele>12.720043</ele>
        <time>2020-10-06T21:21:13.323Z</time>
      </trkpt>
      <trkpt lat="58.86372" lon="23.03674">
        <ele>12.803447</ele>
        <time>2020-10-06T21:21:15.277Z</time>
      </trkpt>
      <trkpt lat="58.86387" lon="23.03539">
        <ele>13.883977</ele>
        <time>2020-10-06T21:21:35.302Z</time>
      </trkpt>
      <trkpt lat="58.86421" lon="23.03351">
        <ele>14.527328</ele>
        <time>2020-10-06T21:22:01.132Z</time>
      </trkpt>
      <trkpt lat="58.86428" lon="23.03339">
        <ele>14.554087</ele>
        <time>2020-10-06T21:22:03.312Z</time>
      </trkpt>
      <trkpt lat="58.86437" lon="23.03339">
        <ele>14.578674</ele>
        <time>2020-10-06T21:22:05.061Z</time>
      </trkpt>
      <trkpt lat="58.86445" lon="23.03295">
        <ele>14.64794</ele>
        <time>2020-10-06T21:22:10.785Z</time>
      </trkpt>
      <trkpt lat="58.86454" lon="23.03249">
        <ele>14.71986</ele>
        <time>2020-10-06T21:22:16.305Z</time>
      </trkpt>
      <trkpt lat="58.86496" lon="23.03021">
        <ele>14.764752</ele>
        <time>2020-10-06T21:22:43.363Z</time>
      </trkpt>
      <trkpt lat="58.86511" lon="23.0294">
        <ele>14.732932</ele>
        <time>2020-10-06T21:22:53.021Z</time>
      </trkpt>
      <trkpt lat="58.86552" lon="23.02717">
        <ele>14.890634</ele>
        <time>2020-10-06T21:23:21.124Z</time>
      </trkpt>
      <trkpt lat="58.86591" lon="23.02506">
        <ele>15.16908</ele>
        <time>2020-10-06T21:23:48.472Z</time>
      </trkpt>
      <trkpt lat="58.86579" lon="23.02467">
        <ele>15.18417</ele>
        <time>2020-10-06T21:23:57.757Z</time>
      </trkpt>
      <trkpt lat="58.86591" lon="23.02506">
        <ele>15.199261</ele>
        <time>2020-10-06T21:24:06.932Z</time>
      </trkpt>
      <trkpt lat="58.86692" lon="23.01962">
        <ele>15.022189</ele>
        <time>2020-10-06T21:25:12.333Z</time>
      </trkpt>
      <trkpt lat="58.86745" lon="23.01664">
        <ele>14.429137</ele>
        <time>2020-10-06T21:25:46.545Z</time>
      </trkpt>
      <trkpt lat="58.86758" lon="23.01479">
        <ele>14.276573</ele>
        <time>2020-10-06T21:26:06.959Z</time>
      </trkpt>
      <trkpt lat="58.86774" lon="23.00901">
        <ele>14.430122</ele>
        <time>2020-10-06T21:27:14.441Z</time>
      </trkpt>
      <trkpt lat="58.86783" lon="23.00589">
        <ele>15.095541</ele>
        <time>2020-10-06T21:27:54.028Z</time>
      </trkpt>
      <trkpt lat="58.86798" lon="23.00021">
        <ele>15.419642</ele>
        <time>2020-10-06T21:29:00.853Z</time>
      </trkpt>
      <trkpt lat="58.86789" lon="22.99829">
        <ele>15.442604</ele>
        <time>2020-10-06T21:29:22.777Z</time>
      </trkpt>
      <trkpt lat="58.86611" lon="22.98673">
        <ele>15.47186</ele>
        <time>2020-10-06T21:31:42.299Z</time>
      </trkpt>
      <trkpt lat="58.86595" lon="22.9858">
        <ele>15.467621</ele>
        <time>2020-10-06T21:31:53.462Z</time>
      </trkpt>
      <trkpt lat="58.86568" lon="22.98419">
        <ele>15.969821</ele>
        <time>2020-10-06T21:32:13.020Z</time>
      </trkpt>
      <trkpt lat="58.86556" lon="22.98319">
        <ele>16.33145</ele>
        <time>2020-10-06T21:32:26.499Z</time>
      </trkpt>
      <trkpt lat="58.86551" lon="22.9823">
        <ele>16.645579</ele>
        <time>2020-10-06T21:32:39.217Z</time>
      </trkpt>
      <trkpt lat="58.86549" lon="22.98125">
        <ele>17.363518</ele>
        <time>2020-10-06T21:32:54.984Z</time>
      </trkpt>
      <trkpt lat="58.86556" lon="22.98011">
        <ele>18.194001</ele>
        <time>2020-10-06T21:33:11.865Z</time>
      </trkpt>
      <trkpt lat="58.86569" lon="22.97921">
        <ele>18.875134</ele>
        <time>2020-10-06T21:33:25.799Z</time>
      </trkpt>
      <trkpt lat="58.86586" lon="22.97832">
        <ele>19.246302</ele>
        <time>2020-10-06T21:33:38.950Z</time>
      </trkpt>
      <trkpt lat="58.86637" lon="22.97643">
        <ele>19.399551</ele>
        <time>2020-10-06T21:34:04.129Z</time>
      </trkpt>
      <trkpt lat="58.86695" lon="22.9747">
        <ele>19.120619</ele>
        <time>2020-10-06T21:34:25.652Z</time>
      </trkpt>
      <trkpt lat="58.86749" lon="22.97301">
        <ele>18.552703</ele>
        <time>2020-10-06T21:34:46.541Z</time>
      </trkpt>
      <trkpt lat="58.86933" lon="22.96756">
        <ele>18.089017</ele>
        <time>2020-10-06T21:36:00.061Z</time>
      </trkpt>
      <trkpt lat="58.8698" lon="22.96634">
        <ele>18.12672</ele>
        <time>2020-10-06T21:36:17.814Z</time>
      </trkpt>
      <trkpt lat="58.8703" lon="22.96524">
        <ele>18.238008</ele>
        <time>2020-10-06T21:36:35.223Z</time>
      </trkpt>
      <trkpt lat="58.87108" lon="22.96374">
        <ele>18.432817</ele>
        <time>2020-10-06T21:37:00.450Z</time>
      </trkpt>
      <trkpt lat="58.87188" lon="22.96232">
        <ele>18.671292</ele>
        <time>2020-10-06T21:37:26.636Z</time>
      </trkpt>
      <trkpt lat="58.87264" lon="22.96111">
        <ele>18.115942</ele>
        <time>2020-10-06T21:37:47.537Z</time>
      </trkpt>
      <trkpt lat="58.87395" lon="22.95901">
        <ele>16.495101</ele>
        <time>2020-10-06T21:38:19.417Z</time>
      </trkpt>
      <trkpt lat="58.87492" lon="22.9572">
        <ele>15.009552</ele>
        <time>2020-10-06T21:38:45.251Z</time>
      </trkpt>
      <trkpt lat="58.87521" lon="22.95627">
        <ele>14.548</ele>
        <time>2020-10-06T21:38:56.377Z</time>
      </trkpt>
      <trkpt lat="58.87539" lon="22.95526">
        <ele>14.091377</ele>
        <time>2020-10-06T21:39:07.398Z</time>
      </trkpt>
      <trkpt lat="58.87582" lon="22.95284">
        <ele>12.947759</ele>
        <time>2020-10-06T21:39:33.621Z</time>
      </trkpt>
      <trkpt lat="58.87606" lon="22.95184">
        <ele>12.437125</ele>
        <time>2020-10-06T21:39:44.471Z</time>
      </trkpt>
      <trkpt lat="58.87639" lon="22.95089">
        <ele>12.017328</ele>
        <time>2020-10-06T21:39:55.977Z</time>
      </trkpt>
      <trkpt lat="58.87885" lon="22.94663">
        <ele>11.183433</ele>
        <time>2020-10-06T21:41:07.440Z</time>
      </trkpt>
      <trkpt lat="58.88292" lon="22.93996">
        <ele>10.148443</ele>
        <time>2020-10-06T21:43:01.720Z</time>
      </trkpt>
      <trkpt lat="58.88539" lon="22.93752">
        <ele>11.418135</ele>
        <time>2020-10-06T21:44:10.298Z</time>
      </trkpt>
      <trkpt lat="58.88879" lon="22.93456">
        <ele>12.732903</ele>
        <time>2020-10-06T21:45:38.202Z</time>
      </trkpt>
      <trkpt lat="58.88968" lon="22.9339">
        <ele>12.964225</ele>
        <time>2020-10-06T21:46:00.031Z</time>
      </trkpt>
      <trkpt lat="58.89017" lon="22.93362">
        <ele>13.058472</ele>
        <time>2020-10-06T21:46:11.643Z</time>
      </trkpt>
      <trkpt lat="58.89402" lon="22.93221">
        <ele>13.824014</ele>
        <time>2020-10-06T21:47:41.927Z</time>
      </trkpt>
      <trkpt lat="58.89674" lon="22.93194">
        <ele>14.353884</ele>
        <time>2020-10-06T21:48:45.546Z</time>
      </trkpt>
      <trkpt lat="58.89792" lon="22.9318">
        <ele>13.977917</ele>
        <time>2020-10-06T21:49:10.488Z</time>
      </trkpt>
      <trkpt lat="58.89834" lon="22.93175">
        <ele>13.843371</ele>
        <time>2020-10-06T21:49:19.204Z</time>
      </trkpt>
      <trkpt lat="58.8984" lon="22.93174">
        <ele>13.825483</ele>
        <time>2020-10-06T21:49:20.300Z</time>
      </trkpt>
      <trkpt lat="58.89903" lon="22.9316">
        <ele>13.717053</ele>
        <time>2020-10-06T21:49:33.375Z</time>
      </trkpt>
      <trkpt lat="58.91407" lon="22.92626">
        <ele>11.428414</ele>
        <time>2020-10-06T21:55:06.295Z</time>
      </trkpt>
      <trkpt lat="58.91729" lon="22.92497">
        <ele>10.334839</ele>
        <time>2020-10-06T21:56:15.610Z</time>
      </trkpt>
      <trkpt lat="58.91803" lon="22.92467">
        <ele>10.036044</ele>
        <time>2020-10-06T21:56:31.112Z</time>
      </trkpt>
      <trkpt lat="58.92162" lon="22.92282">
        <ele>8.842728</ele>
        <time>2020-10-06T21:57:49.164Z</time>
      </trkpt>
      <trkpt lat="58.92207" lon="22.92259">
        <ele>8.967893</ele>
        <time>2020-10-06T21:58:00.006Z</time>
      </trkpt>
      <trkpt lat="58.92735" lon="22.91987">
        <ele>10.546178</ele>
        <time>2020-10-06T22:00:09.057Z</time>
      </trkpt>
      <trkpt lat="58.93061" lon="22.91808">
        <ele>11.449999</ele>
        <time>2020-10-06T22:01:27.396Z</time>
      </trkpt>
      <trkpt lat="58.9311" lon="22.91764">
        <ele>11.7056</ele>
        <time>2020-10-06T22:01:40.744Z</time>
      </trkpt>
      <trkpt lat="58.93168" lon="22.91689">
        <ele>12.027863</ele>
        <time>2020-10-06T22:01:57.614Z</time>
      </trkpt>
      <trkpt lat="58.93271" lon="22.91486">
        <ele>13.256732</ele>
        <time>2020-10-06T22:02:34.370Z</time>
      </trkpt>
      <trkpt lat="58.9329" lon="22.91446">
        <ele>13.495508</ele>
        <time>2020-10-06T22:02:41.869Z</time>
      </trkpt>
      <trkpt lat="58.93464" lon="22.91107">
        <ele>16.427191</ele>
        <time>2020-10-06T22:03:52.806Z</time>
      </trkpt>
      <trkpt lat="58.93468" lon="22.91098">
        <ele>16.441538</ele>
        <time>2020-10-06T22:03:54.414Z</time>
      </trkpt>
      <trkpt lat="58.93766" lon="22.9052">
        <ele>16.988003</ele>
        <time>2020-10-06T22:05:27.075Z</time>
      </trkpt>
      <trkpt lat="58.93975" lon="22.90114">
        <ele>16.911582</ele>
        <time>2020-10-06T22:06:32.067Z</time>
      </trkpt>
      <trkpt lat="58.94057" lon="22.89951">
        <ele>17.157127</ele>
        <time>2020-10-06T22:07:00.487Z</time>
      </trkpt>
      <trkpt lat="58.9449" lon="22.89096">
        <ele>16.720559</ele>
        <time>2020-10-06T22:09:15.711Z</time>
      </trkpt>
      <trkpt lat="58.94622" lon="22.88828">
        <ele>16.725153</ele>
        <time>2020-10-06T22:09:59.479Z</time>
      </trkpt>
      <trkpt lat="58.9477" lon="22.88525">
        <ele>16.437319</ele>
        <time>2020-10-06T22:10:45.679Z</time>
      </trkpt>
      <trkpt lat="58.95181" lon="22.87735">
        <ele>15.470213</ele>
        <time>2020-10-06T22:12:51.717Z</time>
      </trkpt>
      <trkpt lat="58.95262" lon="22.87575">
        <ele>14.831761</ele>
        <time>2020-10-06T22:13:15.287Z</time>
      </trkpt>
      <trkpt lat="58.95292" lon="22.87491">
        <ele>14.516351</ele>
        <time>2020-10-06T22:13:25.788Z</time>
      </trkpt>
      <trkpt lat="58.95465" lon="22.86941">
        <ele>12.652182</ele>
        <time>2020-10-06T22:14:33.251Z</time>
      </trkpt>
      <trkpt lat="58.95581" lon="22.8657">
        <ele>12.174814</ele>
        <time>2020-10-06T22:15:21.324Z</time>
      </trkpt>
      <trkpt lat="58.9564" lon="22.86385">
        <ele>13.176392</ele>
        <time>2020-10-06T22:15:48.526Z</time>
      </trkpt>
      <trkpt lat="58.95914" lon="22.85509">
        <ele>21.844117</ele>
        <time>2020-10-06T22:18:25.371Z</time>
      </trkpt>
      <trkpt lat="58.96134" lon="22.8477">
        <ele>25.675148</ele>
        <time>2020-10-06T22:20:18.355Z</time>
      </trkpt>
      <trkpt lat="58.96185" lon="22.84616">
        <ele>25.518452</ele>
        <time>2020-10-06T22:20:38.113Z</time>
      </trkpt>
      <trkpt lat="58.96253" lon="22.84409">
        <ele>25.318315</ele>
        <time>2020-10-06T22:21:04.510Z</time>
      </trkpt>
      <trkpt lat="58.96322" lon="22.84197">
        <ele>25.448451</ele>
        <time>2020-10-06T22:21:34.633Z</time>
      </trkpt>
      <trkpt lat="58.96373" lon="22.84038">
        <ele>25.666956</ele>
        <time>2020-10-06T22:21:57.368Z</time>
      </trkpt>
      <trkpt lat="58.96429" lon="22.8386">
        <ele>25.948091</ele>
        <time>2020-10-06T22:22:22.215Z</time>
      </trkpt>
      <trkpt lat="58.96517" lon="22.83604">
        <ele>26.529398</ele>
        <time>2020-10-06T22:22:59.956Z</time>
      </trkpt>
      <trkpt lat="58.96555" lon="22.83519">
        <ele>26.670946</ele>
        <time>2020-10-06T22:23:13.855Z</time>
      </trkpt>
      <trkpt lat="58.96606" lon="22.83403">
        <ele>26.833742</ele>
        <time>2020-10-06T22:23:32.469Z</time>
      </trkpt>
      <trkpt lat="58.96842" lon="22.83004">
        <ele>26.77191</ele>
        <time>2020-10-06T22:24:41.256Z</time>
      </trkpt>
      <trkpt lat="58.97079" lon="22.82608">
        <ele>26.346203</ele>
        <time>2020-10-06T22:25:49.558Z</time>
      </trkpt>
      <trkpt lat="58.97083" lon="22.82602">
        <ele>26.331934</ele>
        <time>2020-10-06T22:25:50.710Z</time>
      </trkpt>
      <trkpt lat="58.97114" lon="22.82551">
        <ele>26.217427</ele>
        <time>2020-10-06T22:25:59.306Z</time>
      </trkpt>
      <trkpt lat="58.97199" lon="22.82406">
        <ele>25.924386</ele>
        <time>2020-10-06T22:26:22.851Z</time>
      </trkpt>
      <trkpt lat="58.97312" lon="22.82217">
        <ele>26.097905</ele>
        <time>2020-10-06T22:26:56.377Z</time>
      </trkpt>
      <trkpt lat="58.97388" lon="22.82093">
        <ele>26.816061</ele>
        <time>2020-10-06T22:27:21.765Z</time>
      </trkpt>
      <trkpt lat="58.97554" lon="22.81802">
        <ele>28.399647</ele>
        <time>2020-10-06T22:28:20.967Z</time>
      </trkpt>
      <trkpt lat="58.97635" lon="22.81616">
        <ele>28.156182</ele>
        <time>2020-10-06T22:28:47.297Z</time>
      </trkpt>
      <trkpt lat="58.97662" lon="22.81553">
        <ele>27.789459</ele>
        <time>2020-10-06T22:28:55.507Z</time>
      </trkpt>
      <trkpt lat="58.97772" lon="22.81299">
        <ele>26.242671</ele>
        <time>2020-10-06T22:29:27.555Z</time>
      </trkpt>
      <trkpt lat="58.97799" lon="22.8124">
        <ele>25.86238</ele>
        <time>2020-10-06T22:29:35.826Z</time>
      </trkpt>
      <trkpt lat="58.97829" lon="22.8119">
        <ele>25.490858</ele>
        <time>2020-10-06T22:29:44.007Z</time>
      </trkpt>
      <trkpt lat="58.9792" lon="22.81099">
        <ele>25.426632</ele>
        <time>2020-10-06T22:30:05.816Z</time>
      </trkpt>
      <trkpt lat="58.97953" lon="22.81063">
        <ele>25.405069</ele>
        <time>2020-10-06T22:30:14.748Z</time>
      </trkpt>
      <trkpt lat="58.97989" lon="22.81025">
        <ele>25.38234</ele>
        <time>2020-10-06T22:30:24.366Z</time>
      </trkpt>
      <trkpt lat="58.98088" lon="22.80892">
        <ele>25.659066</ele>
        <time>2020-10-06T22:30:52.192Z</time>
      </trkpt>
      <trkpt lat="58.98156" lon="22.80775">
        <ele>25.867791</ele>
        <time>2020-10-06T22:31:13.476Z</time>
      </trkpt>
      <trkpt lat="58.98208" lon="22.80678">
        <ele>26.03279</ele>
        <time>2020-10-06T22:31:30.377Z</time>
      </trkpt>
      <trkpt lat="58.98692" lon="22.79517">
        <ele>27.009577</ele>
        <time>2020-10-06T22:34:26.181Z</time>
      </trkpt>
      <trkpt lat="58.98715" lon="22.79461">
        <ele>26.94919</ele>
        <time>2020-10-06T22:34:34.147Z</time>
      </trkpt>
      <trkpt lat="58.98865" lon="22.79097">
        <ele>24.642061</ele>
        <time>2020-10-06T22:35:22.710Z</time>
      </trkpt>
      <trkpt lat="58.98921" lon="22.78956">
        <ele>22.947188</ele>
        <time>2020-10-06T22:35:38.321Z</time>
      </trkpt>
      <trkpt lat="58.98941" lon="22.78879">
        <ele>21.858791</ele>
        <time>2020-10-06T22:35:45.597Z</time>
      </trkpt>
      <trkpt lat="58.98948" lon="22.78839">
        <ele>21.249019</ele>
        <time>2020-10-06T22:35:49.323Z</time>
      </trkpt>
      <trkpt lat="58.98954" lon="22.78792">
        <ele>20.54326</ele>
        <time>2020-10-06T22:35:53.413Z</time>
      </trkpt>
      <trkpt lat="58.98957" lon="22.78718">
        <ele>19.451441</ele>
        <time>2020-10-06T22:35:59.732Z</time>
      </trkpt>
      <trkpt lat="58.98956" lon="22.78674">
        <ele>18.801783</ele>
        <time>2020-10-06T22:36:03.391Z</time>
      </trkpt>
      <trkpt lat="58.98962" lon="22.78671">
        <ele>18.62375</ele>
        <time>2020-10-06T22:36:04.672Z</time>
      </trkpt>
      <trkpt lat="58.98983" lon="22.78642">
        <ele>17.881834</ele>
        <time>2020-10-06T22:36:09.506Z</time>
      </trkpt>
      <trkpt lat="58.99001" lon="22.78615">
        <ele>17.506146</ele>
        <time>2020-10-06T22:36:13.820Z</time>
      </trkpt>
      <trkpt lat="58.98982" lon="22.78476">
        <ele>17.247665</ele>
        <time>2020-10-06T22:36:27.205Z</time>
      </trkpt>
      <trkpt lat="58.98834" lon="22.77754">
        <ele>16.121311</ele>
        <time>2020-10-06T22:37:59.471Z</time>
      </trkpt>
      <trkpt lat="58.98794" lon="22.77326">
        <ele>14.576348</ele>
        <time>2020-10-06T22:38:44.103Z</time>
      </trkpt>
      <trkpt lat="58.98789" lon="22.77215">
        <ele>13.798052</ele>
        <time>2020-10-06T22:38:54.500Z</time>
      </trkpt>
      <trkpt lat="58.98794" lon="22.77122">
        <ele>13.087721</ele>
        <time>2020-10-06T22:39:03.234Z</time>
      </trkpt>
      <trkpt lat="58.98805" lon="22.77031">
        <ele>12.375192</ele>
        <time>2020-10-06T22:39:12.040Z</time>
      </trkpt>
      <trkpt lat="58.98816" lon="22.76983">
        <ele>11.968938</ele>
        <time>2020-10-06T22:39:17.269Z</time>
      </trkpt>
      <trkpt lat="58.98819" lon="22.76937">
        <ele>11.674886</ele>
        <time>2020-10-06T22:39:21.915Z</time>
      </trkpt>
      <trkpt lat="58.98883" lon="22.76604">
        <ele>9.901128</ele>
        <time>2020-10-06T22:39:58.950Z</time>
      </trkpt>
      <trkpt lat="58.98896" lon="22.76534">
        <ele>9.810327</ele>
        <time>2020-10-06T22:40:07.250Z</time>
      </trkpt>
      <trkpt lat="58.98914" lon="22.76435">
        <ele>9.683935</ele>
        <time>2020-10-06T22:40:19.203Z</time>
      </trkpt>
      <trkpt lat="58.98916" lon="22.76428">
        <ele>9.673805</ele>
        <time>2020-10-06T22:40:20.115Z</time>
      </trkpt>
      <trkpt lat="58.98916" lon="22.76425">
        <ele>9.67044</ele>
        <time>2020-10-06T22:40:20.448Z</time>
      </trkpt>
      <trkpt lat="58.98947" lon="22.76258">
        <ele>9.688176</ele>
        <time>2020-10-06T22:40:42.498Z</time>
      </trkpt>
      <trkpt lat="58.98975" lon="22.76102">
        <ele>10.240394</ele>
        <time>2020-10-06T22:41:04.817Z</time>
      </trkpt>
      <trkpt lat="58.98983" lon="22.76059">
        <ele>10.394015</ele>
        <time>2020-10-06T22:41:10.845Z</time>
      </trkpt>
      <trkpt lat="58.98988" lon="22.76042">
        <ele>10.461905</ele>
        <time>2020-10-06T22:41:13.872Z</time>
      </trkpt>
      <trkpt lat="58.98997" lon="22.75997">
        <ele>10.620315</ele>
        <time>2020-10-06T22:41:20.192Z</time>
      </trkpt>
      <trkpt lat="58.98998" lon="22.75978">
        <ele>10.685056</ele>
        <time>2020-10-06T22:41:23.149Z</time>
      </trkpt>
      <trkpt lat="58.99005" lon="22.75929">
        <ele>10.78605</ele>
        <time>2020-10-06T22:41:29.718Z</time>
      </trkpt>
      <trkpt lat="58.99029" lon="22.75811">
        <ele>11.035969</ele>
        <time>2020-10-06T22:41:45.798Z</time>
      </trkpt>
      <trkpt lat="58.99061" lon="22.75699">
        <ele>11.291137</ele>
        <time>2020-10-06T22:42:01.152Z</time>
      </trkpt>
      <trkpt lat="58.99106" lon="22.75552">
        <ele>11.098174</ele>
        <time>2020-10-06T22:42:20.015Z</time>
      </trkpt>
      <trkpt lat="58.99162" lon="22.75363">
        <ele>10.624824</ele>
        <time>2020-10-06T22:42:43.071Z</time>
      </trkpt>
      <trkpt lat="58.99164" lon="22.75357">
        <ele>10.610344</ele>
        <time>2020-10-06T22:42:43.771Z</time>
      </trkpt>
      <trkpt lat="58.99188" lon="22.75296">
        <ele>10.450848</ele>
        <time>2020-10-06T22:42:51.794Z</time>
      </trkpt>
      <trkpt lat="58.99192" lon="22.75275">
        <ele>10.405064</ele>
        <time>2020-10-06T22:42:54.161Z</time>
      </trkpt>
      <trkpt lat="58.99219" lon="22.75207">
        <ele>10.225301</ele>
        <time>2020-10-06T22:43:03.302Z</time>
      </trkpt>
      <trkpt lat="58.99242" lon="22.75147">
        <ele>10.069475</ele>
        <time>2020-10-06T22:43:11.237Z</time>
      </trkpt>
      <trkpt lat="58.99245" lon="22.75133">
        <ele>10.037609</ele>
        <time>2020-10-06T22:43:12.808Z</time>
      </trkpt>
      <trkpt lat="58.99301" lon="22.74989">
        <ele>10.042013</ele>
        <time>2020-10-06T22:43:33.271Z</time>
      </trkpt>
      <trkpt lat="58.99339" lon="22.74899">
        <ele>10.201571</ele>
        <time>2020-10-06T22:43:47.249Z</time>
      </trkpt>
      <trkpt lat="58.99351" lon="22.74867">
        <ele>10.25505</ele>
        <time>2020-10-06T22:43:52.438Z</time>
      </trkpt>
      <trkpt lat="58.99379" lon="22.7479">
        <ele>10.383859</ele>
        <time>2020-10-06T22:44:04.191Z</time>
      </trkpt>
      <trkpt lat="58.99402" lon="22.74698">
        <ele>10.536961</ele>
        <time>2020-10-06T22:44:17.543Z</time>
      </trkpt>
      <trkpt lat="58.99419" lon="22.74662">
        <ele>10.610127</ele>
        <time>2020-10-06T22:44:23.394Z</time>
      </trkpt>
      <trkpt lat="58.99418" lon="22.74655">
        <ele>10.620326</ele>
        <time>2020-10-06T22:44:24.478Z</time>
      </trkpt>
      <trkpt lat="58.99417" lon="22.74648">
        <ele>10.631752</ele>
        <time>2020-10-06T22:44:25.409Z</time>
      </trkpt>
      <trkpt lat="58.99416" lon="22.74642">
        <ele>10.640973</ele>
        <time>2020-10-06T22:44:26.156Z</time>
      </trkpt>
      <trkpt lat="58.99414" lon="22.74639">
        <ele>10.648758</ele>
        <time>2020-10-06T22:44:26.794Z</time>
      </trkpt>
      <trkpt lat="58.99409" lon="22.74635">
        <ele>10.664006</ele>
        <time>2020-10-06T22:44:28.029Z</time>
      </trkpt>
      <trkpt lat="58.99408" lon="22.74629">
        <ele>10.673087</ele>
        <time>2020-10-06T22:44:28.715Z</time>
      </trkpt>
      <trkpt lat="58.99407" lon="22.74627">
        <ele>10.677474</ele>
        <time>2020-10-06T22:44:29.079Z</time>
      </trkpt>
      <trkpt lat="58.99419" lon="22.74426">
        <ele>10.844647</ele>
        <time>2020-10-06T22:44:52.178Z</time>
      </trkpt>
      <trkpt lat="58.99419" lon="22.74424">
        <ele>10.842992</ele>
        <time>2020-10-06T22:44:52.418Z</time>
      </trkpt>
      <trkpt lat="58.99414" lon="22.74374">
        <ele>10.805744</ele>
        <time>2020-10-06T22:44:58.117Z</time>
      </trkpt>
      <trkpt lat="58.994" lon="22.74276">
        <ele>10.730336</ele>
        <time>2020-10-06T22:45:09.237Z</time>
      </trkpt>
      <trkpt lat="58.99386" lon="22.74198">
        <ele>10.668886</ele>
        <time>2020-10-06T22:45:18.384Z</time>
      </trkpt>
      <trkpt lat="58.99376" lon="22.74028">
        <ele>10.668571</ele>
        <time>2020-10-06T22:45:37.877Z</time>
      </trkpt>
      <trkpt lat="58.99365" lon="22.73723">
        <ele>10.728859</ele>
        <time>2020-10-06T22:46:13.882Z</time>
      </trkpt>
      <trkpt lat="58.99362" lon="22.73659">
        <ele>10.718248</ele>
        <time>2020-10-06T22:46:21.369Z</time>
      </trkpt>
      <trkpt lat="58.9936" lon="22.73566">
        <ele>10.703023</ele>
        <time>2020-10-06T22:46:31.912Z</time>
      </trkpt>
      <trkpt lat="58.99361" lon="22.73459">
        <ele>10.685381</ele>
        <time>2020-10-06T22:46:44.019Z</time>
      </trkpt>
      <trkpt lat="58.99363" lon="22.73445">
        <ele>10.68413</ele>
        <time>2020-10-06T22:46:45.498Z</time>
      </trkpt>
      <trkpt lat="58.99359" lon="22.73427">
        <ele>10.684697</ele>
        <time>2020-10-06T22:46:47.619Z</time>
      </trkpt>
      <trkpt lat="58.99368" lon="22.7332">
        <ele>10.687896</ele>
        <time>2020-10-06T22:46:59.725Z</time>
      </trkpt>
      <trkpt lat="58.99391" lon="22.73226">
        <ele>10.690989</ele>
        <time>2020-10-06T22:47:11.468Z</time>
      </trkpt>
      <trkpt lat="58.99409" lon="22.73109">
        <ele>10.725737</ele>
        <time>2020-10-06T22:47:26.021Z</time>
      </trkpt>
      <trkpt lat="58.99422" lon="22.73014">
        <ele>11.037744</ele>
        <time>2020-10-06T22:47:38.467Z</time>
      </trkpt>
      <trkpt lat="58.99432" lon="22.72918">
        <ele>11.347731</ele>
        <time>2020-10-06T22:47:51.200Z</time>
      </trkpt>
      <trkpt lat="58.99435" lon="22.72852">
        <ele>11.555237</ele>
        <time>2020-10-06T22:47:59.845Z</time>
      </trkpt>
      <trkpt lat="58.99443" lon="22.72615">
        <ele>12.028483</ele>
        <time>2020-10-06T22:48:30.911Z</time>
      </trkpt>
      <trkpt lat="58.9948" lon="22.72255">
        <ele>12.394804</ele>
        <time>2020-10-06T22:49:12.290Z</time>
      </trkpt>
      <trkpt lat="58.99495" lon="22.72111">
        <ele>12.474561</ele>
        <time>2020-10-06T22:49:29.657Z</time>
      </trkpt>
      <trkpt lat="58.99489" lon="22.72108">
        <ele>12.480785</ele>
        <time>2020-10-06T22:49:31.864Z</time>
      </trkpt>
      <trkpt lat="58.995" lon="22.72027">
        <ele>12.730173</ele>
        <time>2020-10-06T22:49:42.275Z</time>
      </trkpt>
      <trkpt lat="58.99513" lon="22.71936">
        <ele>13.052899</ele>
        <time>2020-10-06T22:49:54.245Z</time>
      </trkpt>
      <trkpt lat="58.99517" lon="22.71907">
        <ele>13.15595</ele>
        <time>2020-10-06T22:49:58.182Z</time>
      </trkpt>
      <trkpt lat="58.99548" lon="22.7176">
        <ele>13.692202</ele>
        <time>2020-10-06T22:50:19.694Z</time>
      </trkpt>
      <trkpt lat="58.99595" lon="22.71565">
        <ele>14.104845</ele>
        <time>2020-10-06T22:50:46.676Z</time>
      </trkpt>
      <trkpt lat="58.99634" lon="22.71389">
        <ele>14.418299</ele>
        <time>2020-10-06T22:51:08.664Z</time>
      </trkpt>
      <trkpt lat="58.99669" lon="22.71231">
        <ele>14.594067</ele>
        <time>2020-10-06T22:51:29.099Z</time>
      </trkpt>
      <trkpt lat="58.99694" lon="22.71115">
        <ele>14.734245</ele>
        <time>2020-10-06T22:51:44.524Z</time>
      </trkpt>
      <trkpt lat="58.99702" lon="22.71077">
        <ele>14.812228</ele>
        <time>2020-10-06T22:51:49.629Z</time>
      </trkpt>
      <trkpt lat="58.99757" lon="22.7088">
        <ele>15.241132</ele>
        <time>2020-10-06T22:52:17.294Z</time>
      </trkpt>
      <trkpt lat="58.99765" lon="22.70895">
        <ele>15.283914</ele>
        <time>2020-10-06T22:52:21.748Z</time>
      </trkpt>
      <trkpt lat="58.99797" lon="22.70796">
        <ele>15.382678</ele>
        <time>2020-10-06T22:52:35.587Z</time>
      </trkpt>
      <trkpt lat="58.99804" lon="22.70753">
        <ele>15.385176</ele>
        <time>2020-10-06T22:52:40.857Z</time>
      </trkpt>
      <trkpt lat="58.99868" lon="22.70552">
        <ele>15.398144</ele>
        <time>2020-10-06T22:53:07.611Z</time>
      </trkpt>
      <trkpt lat="58.99993" lon="22.70183">
        <ele>15.163109</ele>
        <time>2020-10-06T22:53:57.514Z</time>
      </trkpt>
      <trkpt lat="59.00332" lon="22.69208">
        <ele>14.27121</ele>
        <time>2020-10-06T22:56:08.745Z</time>
      </trkpt>
      <trkpt lat="59.00422" lon="22.6898">
        <ele>14.352591</ele>
        <time>2020-10-06T22:56:41.998Z</time>
      </trkpt>
      <trkpt lat="59.00561" lon="22.68683">
        <ele>14.845389</ele>
        <time>2020-10-06T22:57:30.875Z</time>
      </trkpt>
      <trkpt lat="59.00732" lon="22.68368">
        <ele>15.272904</ele>
        <time>2020-10-06T22:58:25.249Z</time>
      </trkpt>
      <trkpt lat="59.00929" lon="22.68048">
        <ele>14.746499</ele>
        <time>2020-10-06T22:59:20.560Z</time>
      </trkpt>
      <trkpt lat="59.00959" lon="22.67972">
        <ele>14.59592</ele>
        <time>2020-10-06T22:59:30.668Z</time>
      </trkpt>
      <trkpt lat="59.01016" lon="22.67825">
        <ele>14.487751</ele>
        <time>2020-10-06T22:59:50.498Z</time>
      </trkpt>
      <trkpt lat="59.01064" lon="22.67485">
        <ele>15.390773</ele>
        <time>2020-10-06T23:00:35.039Z</time>
      </trkpt>
      <trkpt lat="59.01077" lon="22.67259">
        <ele>16.597908</ele>
        <time>2020-10-06T23:01:06.444Z</time>
      </trkpt>
      <trkpt lat="59.01084" lon="22.67135">
        <ele>17.205013</ele>
        <time>2020-10-06T23:01:24.126Z</time>
      </trkpt>
      <trkpt lat="59.01086" lon="22.66881">
        <ele>18.305903</ele>
        <time>2020-10-06T23:01:57.732Z</time>
      </trkpt>
      <trkpt lat="59.01057" lon="22.65505">
        <ele>20.453916</ele>
        <time>2020-10-06T23:04:43.812Z</time>
      </trkpt>
      <trkpt lat="59.01034" lon="22.64554">
        <ele>22.894411</ele>
        <time>2020-10-06T23:06:41.500Z</time>
      </trkpt>
      <trkpt lat="59.01022" lon="22.63993">
        <ele>26.053841</ele>
        <time>2020-10-06T23:08:01.347Z</time>
      </trkpt>
      <trkpt lat="59.01017" lon="22.63765">
        <ele>26.865942</ele>
        <time>2020-10-06T23:08:30.613Z</time>
      </trkpt>
      <trkpt lat="59.01011" lon="22.63477">
        <ele>27.095109</ele>
        <time>2020-10-06T23:09:04.460Z</time>
      </trkpt>
      <trkpt lat="59.00994" lon="22.63309">
        <ele>26.963672</ele>
        <time>2020-10-06T23:09:23.480Z</time>
      </trkpt>
      <trkpt lat="59.00922" lon="22.62851">
        <ele>25.522492</ele>
        <time>2020-10-06T23:10:13.329Z</time>
      </trkpt>
      <trkpt lat="59.00829" lon="22.62261">
        <ele>23.580053</ele>
        <time>2020-10-06T23:11:17.902Z</time>
      </trkpt>
      <trkpt lat="59.00781" lon="22.61955">
        <ele>22.622798</ele>
        <time>2020-10-06T23:11:51.317Z</time>
      </trkpt>
      <trkpt lat="59.00777" lon="22.61936">
        <ele>22.583336</ele>
        <time>2020-10-06T23:11:53.359Z</time>
      </trkpt>
      <trkpt lat="59.0077" lon="22.61907">
        <ele>22.522689</ele>
        <time>2020-10-06T23:11:57.070Z</time>
      </trkpt>
      <trkpt lat="59.00761" lon="22.61838">
        <ele>22.388271</ele>
        <time>2020-10-06T23:12:04.788Z</time>
      </trkpt>
      <trkpt lat="59.00755" lon="22.61766">
        <ele>22.249257</ele>
        <time>2020-10-06T23:12:12.868Z</time>
      </trkpt>
      <trkpt lat="59.00742" lon="22.61787">
        <ele>22.189051</ele>
        <time>2020-10-06T23:12:16.199Z</time>
      </trkpt>
      <trkpt lat="59.00687" lon="22.61438">
        <ele>21.749053</ele>
        <time>2020-10-06T23:12:56.854Z</time>
      </trkpt>
      <trkpt lat="59.00609" lon="22.60944">
        <ele>20.920895</ele>
        <time>2020-10-06T23:13:52.935Z</time>
      </trkpt>
      <trkpt lat="59.00596" lon="22.60859">
        <ele>20.782846</ele>
        <time>2020-10-06T23:14:02.607Z</time>
      </trkpt>
      <trkpt lat="59.00426" lon="22.59773">
        <ele>19.464816</ele>
        <time>2020-10-06T23:16:08.886Z</time>
      </trkpt>
      <trkpt lat="59.00294" lon="22.5893">
        <ele>16.496569</ele>
        <time>2020-10-06T23:17:40.992Z</time>
      </trkpt>
      <trkpt lat="59.00287" lon="22.58889">
        <ele>16.263941</ele>
        <time>2020-10-06T23:17:45.309Z</time>
      </trkpt>
      <trkpt lat="59.00252" lon="22.58659">
        <ele>14.920568</ele>
        <time>2020-10-06T23:18:08.136Z</time>
      </trkpt>
      <trkpt lat="59.0023" lon="22.58521">
        <ele>14.059383</ele>
        <time>2020-10-06T23:18:22.103Z</time>
      </trkpt>
      <trkpt lat="59.00224" lon="22.58465">
        <ele>13.710638</ele>
        <time>2020-10-06T23:18:27.821Z</time>
      </trkpt>
      <trkpt lat="59.00221" lon="22.58365">
        <ele>13.199299</ele>
        <time>2020-10-06T23:18:38.033Z</time>
      </trkpt>
      <trkpt lat="59.00224" lon="22.58266">
        <ele>13.018577</ele>
        <time>2020-10-06T23:18:48.246Z</time>
      </trkpt>
      <trkpt lat="59.00237" lon="22.58151">
        <ele>12.805709</ele>
        <time>2020-10-06T23:19:01.552Z</time>
      </trkpt>
      <trkpt lat="59.00283" lon="22.57801">
        <ele>12.301677</ele>
        <time>2020-10-06T23:19:41.906Z</time>
      </trkpt>
      <trkpt lat="59.00357" lon="22.57246">
        <ele>11.369459</ele>
        <time>2020-10-06T23:20:43.755Z</time>
      </trkpt>
      <trkpt lat="59.00374" lon="22.57066">
        <ele>11.226897</ele>
        <time>2020-10-06T23:21:04.300Z</time>
      </trkpt>
      <trkpt lat="59.00379" lon="22.57018">
        <ele>11.212511</ele>
        <time>2020-10-06T23:21:10.117Z</time>
      </trkpt>
      <trkpt lat="59.00394" lon="22.56822">
        <ele>11.684755</ele>
        <time>2020-10-06T23:21:34.504Z</time>
      </trkpt>
      <trkpt lat="59.00406" lon="22.56553">
        <ele>12.302329</ele>
        <time>2020-10-06T23:22:09.406Z</time>
      </trkpt>
      <trkpt lat="59.0041" lon="22.56288">
        <ele>12.776282</ele>
        <time>2020-10-06T23:22:41.563Z</time>
      </trkpt>
      <trkpt lat="59.00407" lon="22.56037">
        <ele>12.705663</ele>
        <time>2020-10-06T23:23:10.036Z</time>
      </trkpt>
      <trkpt lat="59.00396" lon="22.5578">
        <ele>12.321796</ele>
        <time>2020-10-06T23:23:38.153Z</time>
      </trkpt>
      <trkpt lat="59.0038" lon="22.5556">
        <ele>11.794429</ele>
        <time>2020-10-06T23:24:01.922Z</time>
      </trkpt>
      <trkpt lat="59.00364" lon="22.55385">
        <ele>11.188049</ele>
        <time>2020-10-06T23:24:20.388Z</time>
      </trkpt>
      <trkpt lat="59.0033" lon="22.55125">
        <ele>10.212173</ele>
        <time>2020-10-06T23:24:47.520Z</time>
      </trkpt>
      <trkpt lat="59.00307" lon="22.54978">
        <ele>9.632492</ele>
        <time>2020-10-06T23:25:03.381Z</time>
      </trkpt>
      <trkpt lat="59.00277" lon="22.54787">
        <ele>9.277318</ele>
        <time>2020-10-06T23:25:25.118Z</time>
      </trkpt>
      <trkpt lat="59.00249" lon="22.54628">
        <ele>9.023366</ele>
        <time>2020-10-06T23:25:44.146Z</time>
      </trkpt>
      <trkpt lat="59.00123" lon="22.53947">
        <ele>7.419831</ele>
        <time>2020-10-06T23:27:01.602Z</time>
      </trkpt>
      <trkpt lat="59.00015" lon="22.53538">
        <ele>6.468402</ele>
        <time>2020-10-06T23:27:51.129Z</time>
      </trkpt>
      <trkpt lat="58.99999" lon="22.5349">
        <ele>6.345671</ele>
        <time>2020-10-06T23:27:57.111Z</time>
      </trkpt>
      <trkpt lat="58.9993" lon="22.53285">
        <ele>6.051718</ele>
        <time>2020-10-06T23:28:23.458Z</time>
      </trkpt>
      <trkpt lat="58.99876" lon="22.53171">
        <ele>6.158369</ele>
        <time>2020-10-06T23:28:41.259Z</time>
      </trkpt>
      <trkpt lat="58.99795" lon="22.53048">
        <ele>6.647165</ele>
        <time>2020-10-06T23:29:06.893Z</time>
      </trkpt>
      <trkpt lat="58.99736" lon="22.52968">
        <ele>7.302324</ele>
        <time>2020-10-06T23:29:25.948Z</time>
      </trkpt>
      <trkpt lat="58.99667" lon="22.52895">
        <ele>7.926794</ele>
        <time>2020-10-06T23:29:46.762Z</time>
      </trkpt>
      <trkpt lat="58.99593" lon="22.5283">
        <ele>8.190945</ele>
        <time>2020-10-06T23:30:06.948Z</time>
      </trkpt>
      <trkpt lat="58.99543" lon="22.52784">
        <ele>8.37173</ele>
        <time>2020-10-06T23:30:19.304Z</time>
      </trkpt>
      <trkpt lat="58.99508" lon="22.52732">
        <ele>8.383566</ele>
        <time>2020-10-06T23:30:28.742Z</time>
      </trkpt>
      <trkpt lat="58.99494" lon="22.52704">
        <ele>8.290214</ele>
        <time>2020-10-06T23:30:33.008Z</time>
      </trkpt>
      <trkpt lat="58.99461" lon="22.52639">
        <ele>8.076796</ele>
        <time>2020-10-06T23:30:42.524Z</time>
      </trkpt>
      <trkpt lat="58.99298" lon="22.52276">
        <ele>6.966698</ele>
        <time>2020-10-06T23:31:33.720Z</time>
      </trkpt>
      <trkpt lat="58.99278" lon="22.52234">
        <ele>6.839462</ele>
        <time>2020-10-06T23:31:39.957Z</time>
      </trkpt>
      <trkpt lat="58.9922" lon="22.52111">
        <ele>6.580193</ele>
        <time>2020-10-06T23:31:58.198Z</time>
      </trkpt>
      <trkpt lat="58.9919" lon="22.52049">
        <ele>6.448618</ele>
        <time>2020-10-06T23:32:07.458Z</time>
      </trkpt>
      <trkpt lat="58.99122" lon="22.51958">
        <ele>6.308617</ele>
        <time>2020-10-06T23:32:25.053Z</time>
      </trkpt>
      <trkpt lat="58.99107" lon="22.51939">
        <ele>6.311073</ele>
        <time>2020-10-06T23:32:28.837Z</time>
      </trkpt>
      <trkpt lat="58.99076" lon="22.51898">
        <ele>6.31633</ele>
        <time>2020-10-06T23:32:36.911Z</time>
      </trkpt>
      <trkpt lat="58.9881" lon="22.51569">
        <ele>6.96342</ele>
        <time>2020-10-06T23:33:50.550Z</time>
      </trkpt>
      <trkpt lat="58.98748" lon="22.51492">
        <ele>7.227867</ele>
        <time>2020-10-06T23:34:08.566Z</time>
      </trkpt>
      <trkpt lat="58.98606" lon="22.5135">
        <ele>7.511795</ele>
        <time>2020-10-06T23:34:45.706Z</time>
      </trkpt>
      <trkpt lat="58.98436" lon="22.51216">
        <ele>7.579298</ele>
        <time>2020-10-06T23:35:25.398Z</time>
      </trkpt>
      <trkpt lat="58.9838" lon="22.51181">
        <ele>7.586816</ele>
        <time>2020-10-06T23:35:39.239Z</time>
      </trkpt>
      <trkpt lat="58.98299" lon="22.51132">
        <ele>7.855979</ele>
        <time>2020-10-06T23:35:58.936Z</time>
      </trkpt>
      <trkpt lat="58.98302" lon="22.51108">
        <ele>7.907033</ele>
        <time>2020-10-06T23:36:02.879Z</time>
      </trkpt>
      <trkpt lat="58.9817" lon="22.51034">
        <ele>8.563109</ele>
        <time>2020-10-06T23:36:36.360Z</time>
      </trkpt>
      <trkpt lat="58.98098" lon="22.50974">
        <ele>9.094134</ele>
        <time>2020-10-06T23:36:55.291Z</time>
      </trkpt>
      <trkpt lat="58.9799" lon="22.50821">
        <ele>9.913733</ele>
        <time>2020-10-06T23:37:30.390Z</time>
      </trkpt>
      <trkpt lat="58.97948" lon="22.5074">
        <ele>10.239824</ele>
        <time>2020-10-06T23:37:45.270Z</time>
      </trkpt>
      <trkpt lat="58.97885" lon="22.50589">
        <ele>10.176964</ele>
        <time>2020-10-06T23:38:07.492Z</time>
      </trkpt>
      <trkpt lat="58.9778" lon="22.50316">
        <ele>8.808945</ele>
        <time>2020-10-06T23:38:41.375Z</time>
      </trkpt>
      <trkpt lat="58.97746" lon="22.50192">
        <ele>8.099725</ele>
        <time>2020-10-06T23:38:55.176Z</time>
      </trkpt>
      <trkpt lat="58.97736" lon="22.50135">
        <ele>7.797651</ele>
        <time>2020-10-06T23:39:01.026Z</time>
      </trkpt>
      <trkpt lat="58.97714" lon="22.49913">
        <ele>7.357524</ele>
        <time>2020-10-06T23:39:25.038Z</time>
      </trkpt>
      <trkpt lat="58.97709" lon="22.49845">
        <ele>7.305276</ele>
        <time>2020-10-06T23:39:32.913Z</time>
      </trkpt>
      <trkpt lat="58.97706" lon="22.49818">
        <ele>7.284347</ele>
        <time>2020-10-06T23:39:36.294Z</time>
      </trkpt>
      <trkpt lat="58.97696" lon="22.49702">
        <ele>7.287033</ele>
        <time>2020-10-06T23:39:50.431Z</time>
      </trkpt>
      <trkpt lat="58.97679" lon="22.49613">
        <ele>7.51938</ele>
        <time>2020-10-06T23:40:02.457Z</time>
      </trkpt>
      <trkpt lat="58.97663" lon="22.4957">
        <ele>7.651117</ele>
        <time>2020-10-06T23:40:09.341Z</time>
      </trkpt>
      <trkpt lat="58.97661" lon="22.49562">
        <ele>7.673263</ele>
        <time>2020-10-06T23:40:10.568Z</time>
      </trkpt>
      <trkpt lat="58.97648" lon="22.49518">
        <ele>7.798953</ele>
        <time>2020-10-06T23:40:17.211Z</time>
      </trkpt>
      <trkpt lat="58.97623" lon="22.49433">
        <ele>8.040016</ele>
        <time>2020-10-06T23:40:29.317Z</time>
      </trkpt>
      <trkpt lat="58.97617" lon="22.49409">
        <ele>8.075656</ele>
        <time>2020-10-06T23:40:32.614Z</time>
      </trkpt>
      <trkpt lat="58.976" lon="22.49356">
        <ele>8.065939</ele>
        <time>2020-10-06T23:40:40.083Z</time>
      </trkpt>
      <trkpt lat="58.97598" lon="22.49306">
        <ele>8.058201</ele>
        <time>2020-10-06T23:40:45.906Z</time>
      </trkpt>
      <trkpt lat="58.97592" lon="22.49286">
        <ele>8.054591</ele>
        <time>2020-10-06T23:40:48.677Z</time>
      </trkpt>
      <trkpt lat="58.97576" lon="22.49261">
        <ele>8.04836</ele>
        <time>2020-10-06T23:40:53.271Z</time>
      </trkpt>
      <trkpt lat="58.97568" lon="22.49232">
        <ele>8.043276</ele>
        <time>2020-10-06T23:40:57.039Z</time>
      </trkpt>
      <trkpt lat="58.975" lon="22.48877">
        <ele>7.691689</ele>
        <time>2020-10-06T23:41:37.906Z</time>
      </trkpt>
      <trkpt lat="58.97463" lon="22.48634">
        <ele>8.165503</ele>
        <time>2020-10-06T23:42:07.315Z</time>
      </trkpt>
      <trkpt lat="58.97452" lon="22.48508">
        <ele>8.664913</ele>
        <time>2020-10-06T23:42:24.536Z</time>
      </trkpt>
      <trkpt lat="58.97424" lon="22.48377">
        <ele>9.714762</ele>
        <time>2020-10-06T23:42:46.195Z</time>
      </trkpt>
      <trkpt lat="58.97424" lon="22.48344">
        <ele>10.063458</ele>
        <time>2020-10-06T23:42:51.636Z</time>
      </trkpt>
      <trkpt lat="58.97407" lon="22.48267">
        <ele>10.943737</ele>
        <time>2020-10-06T23:43:05.164Z</time>
      </trkpt>
      <trkpt lat="58.97405" lon="22.48211">
        <ele>11.534083</ele>
        <time>2020-10-06T23:43:14.693Z</time>
      </trkpt>
      <trkpt lat="58.97396" lon="22.48224">
        <ele>11.755088</ele>
        <time>2020-10-06T23:43:17.944Z</time>
      </trkpt>
      <trkpt lat="58.97376" lon="22.4827">
        <ele>12.395908</ele>
        <time>2020-10-06T23:43:27.603Z</time>
      </trkpt>
      <trkpt lat="58.97293" lon="22.48161">
        <ele>13.288551</ele>
        <time>2020-10-06T23:43:56.477Z</time>
      </trkpt>
      <trkpt lat="58.9713" lon="22.4796">
        <ele>13.414459</ele>
        <time>2020-10-06T23:44:37.723Z</time>
      </trkpt>
      <trkpt lat="58.96986" lon="22.47803">
        <ele>12.103689</ele>
        <time>2020-10-06T23:45:10.151Z</time>
      </trkpt>
      <trkpt lat="58.9689" lon="22.47711">
        <ele>10.939016</ele>
        <time>2020-10-06T23:45:30.733Z</time>
      </trkpt>
      <trkpt lat="58.9678" lon="22.47639">
        <ele>9.148837</ele>
        <time>2020-10-06T23:45:52.022Z</time>
      </trkpt>
      <trkpt lat="58.96733" lon="22.47621">
        <ele>8.422992</ele>
        <time>2020-10-06T23:46:00.435Z</time>
      </trkpt>
      <trkpt lat="58.96595" lon="22.4759">
        <ele>6.33605</ele>
        <time>2020-10-06T23:46:25.504Z</time>
      </trkpt>
      <trkpt lat="58.96534" lon="22.47587">
        <ele>5.711671</ele>
        <time>2020-10-06T23:46:37.358Z</time>
      </trkpt>
      <trkpt lat="58.96463" lon="22.47593">
        <ele>5.652869</ele>
        <time>2020-10-06T23:46:52.278Z</time>
      </trkpt>
      <trkpt lat="58.96247" lon="22.47662">
        <ele>6.450323</ele>
        <time>2020-10-06T23:47:45.591Z</time>
      </trkpt>
      <trkpt lat="58.96149" lon="22.47678">
        <ele>7.139137</ele>
        <time>2020-10-06T23:48:11.309Z</time>
      </trkpt>
      <trkpt lat="58.96114" lon="22.47665">
        <ele>7.402654</ele>
        <time>2020-10-06T23:48:20.541Z</time>
      </trkpt>
      <trkpt lat="58.9605" lon="22.47607">
        <ele>7.927712</ele>
        <time>2020-10-06T23:48:38.588Z</time>
      </trkpt>
      <trkpt lat="58.95959" lon="22.47457">
        <ele>8.261517</ele>
        <time>2020-10-06T23:49:06.177Z</time>
      </trkpt>
      <trkpt lat="58.95831" lon="22.47209">
        <ele>8.703374</ele>
        <time>2020-10-06T23:49:46.390Z</time>
      </trkpt>
      <trkpt lat="58.95777" lon="22.47079">
        <ele>8.994194</ele>
        <time>2020-10-06T23:50:07.942Z</time>
      </trkpt>
      <trkpt lat="58.95625" lon="22.46653">
        <ele>10.974459</ele>
        <time>2020-10-06T23:51:17.966Z</time>
      </trkpt>
      <trkpt lat="58.95602" lon="22.46515">
        <ele>11.266007</ele>
        <time>2020-10-06T23:51:34.672Z</time>
      </trkpt>
      <trkpt lat="58.95574" lon="22.46075">
        <ele>10.556609</ele>
        <time>2020-10-06T23:52:21.137Z</time>
      </trkpt>
      <trkpt lat="58.95534" lon="22.45458">
        <ele>11.564119</ele>
        <time>2020-10-06T23:53:38.891Z</time>
      </trkpt>
      <trkpt lat="58.95533" lon="22.45435">
        <ele>11.57812</ele>
        <time>2020-10-06T23:53:41.679Z</time>
      </trkpt>
      <trkpt lat="58.95501" lon="22.45093">
        <ele>11.313196</ele>
        <time>2020-10-06T23:54:20.826Z</time>
      </trkpt>
      <trkpt lat="58.95324" lon="22.43885">
        <ele>6.239512</ele>
        <time>2020-10-06T23:56:28.431Z</time>
      </trkpt>
      <trkpt lat="58.9531" lon="22.43826">
        <ele>6.024626</ele>
        <time>2020-10-06T23:56:35.356Z</time>
      </trkpt>
      <trkpt lat="58.95306" lon="22.43808">
        <ele>5.961307</ele>
        <time>2020-10-06T23:56:37.481Z</time>
      </trkpt>
      <trkpt lat="58.95234" lon="22.43512">
        <ele>5.837396</ele>
        <time>2020-10-06T23:57:14.456Z</time>
      </trkpt>
      <trkpt lat="58.95209" lon="22.43443">
        <ele>5.897904</ele>
        <time>2020-10-06T23:57:24.913Z</time>
      </trkpt>
      <trkpt lat="58.95123" lon="22.43205">
        <ele>6.741783</ele>
        <time>2020-10-06T23:58:02.506Z</time>
      </trkpt>
      <trkpt lat="58.94922" lon="22.42769">
        <ele>7.903818</ele>
        <time>2020-10-06T23:59:14.848Z</time>
      </trkpt>
      <trkpt lat="58.94881" lon="22.42702">
        <ele>8.029961</ele>
        <time>2020-10-06T23:59:26.124Z</time>
      </trkpt>
      <trkpt lat="58.94749" lon="22.42533">
        <ele>8.891251</ele>
        <time>2020-10-07T00:00:02.578Z</time>
      </trkpt>
      <trkpt lat="58.94647" lon="22.424">
        <ele>10.405233</ele>
        <time>2020-10-07T00:00:38.613Z</time>
      </trkpt>
      <trkpt lat="58.94589" lon="22.42307">
        <ele>11.608898</ele>
        <time>2020-10-07T00:01:01.375Z</time>
      </trkpt>
      <trkpt lat="58.94554" lon="22.42221">
        <ele>12.079003</ele>
        <time>2020-10-07T00:01:16.630Z</time>
      </trkpt>
      <trkpt lat="58.94521" lon="22.42137">
        <ele>12.13026</ele>
        <time>2020-10-07T00:01:29.500Z</time>
      </trkpt>
      <trkpt lat="58.94508" lon="22.42102">
        <ele>12.151481</ele>
        <time>2020-10-07T00:01:34.487Z</time>
      </trkpt>
      <trkpt lat="58.94428" lon="22.41883">
        <ele>12.030468</ele>
        <time>2020-10-07T00:02:02.351Z</time>
      </trkpt>
      <trkpt lat="58.94354" lon="22.41745">
        <ele>11.723726</ele>
        <time>2020-10-07T00:02:24.372Z</time>
      </trkpt>
      <trkpt lat="58.94179" lon="22.41483">
        <ele>12.012613</ele>
        <time>2020-10-07T00:03:15.422Z</time>
      </trkpt>
      <trkpt lat="58.94027" lon="22.41257">
        <ele>12.503148</ele>
        <time>2020-10-07T00:03:59.900Z</time>
      </trkpt>
      <trkpt lat="58.93925" lon="22.41057">
        <ele>13.072698</ele>
        <time>2020-10-07T00:04:35.428Z</time>
      </trkpt>
      <trkpt lat="58.93486" lon="22.39953">
        <ele>13.507738</ele>
        <time>2020-10-07T00:07:16.976Z</time>
      </trkpt>
      <trkpt lat="58.93447" lon="22.39863">
        <ele>13.375761</ele>
        <time>2020-10-07T00:07:30.667Z</time>
      </trkpt>
      <trkpt lat="58.93438" lon="22.39842">
        <ele>13.344824</ele>
        <time>2020-10-07T00:07:33.954Z</time>
      </trkpt>
      <trkpt lat="58.93358" lon="22.39631">
        <ele>12.869023</ele>
        <time>2020-10-07T00:08:02.075Z</time>
      </trkpt>
      <trkpt lat="58.93304" lon="22.39494">
        <ele>12.211457</ele>
        <time>2020-10-07T00:08:19.606Z</time>
      </trkpt>
      <trkpt lat="58.93239" lon="22.39295">
        <ele>11.536514</ele>
        <time>2020-10-07T00:08:43.580Z</time>
      </trkpt>
      <trkpt lat="58.93208" lon="22.39155">
        <ele>11.222531</ele>
        <time>2020-10-07T00:09:00.043Z</time>
      </trkpt>
      <trkpt lat="58.93174" lon="22.38879">
        <ele>11.679747</ele>
        <time>2020-10-07T00:09:34.833Z</time>
      </trkpt>
      <trkpt lat="58.93141" lon="22.38895">
        <ele>11.859079</ele>
        <time>2020-10-07T00:09:43.192Z</time>
      </trkpt>
      <trkpt lat="58.93033" lon="22.38972">
        <ele>12.649558</ele>
        <time>2020-10-07T00:10:13.201Z</time>
      </trkpt>
      <trkpt lat="58.92958" lon="22.39077">
        <ele>13.34775</ele>
        <time>2020-10-07T00:10:36.666Z</time>
      </trkpt>
      <trkpt lat="58.92915" lon="22.3911">
        <ele>13.47619</ele>
        <time>2020-10-07T00:10:47.797Z</time>
      </trkpt>
      <trkpt lat="58.92695" lon="22.39118">
        <ele>13.740259</ele>
        <time>2020-10-07T00:11:37.253Z</time>
      </trkpt>
      <trkpt lat="58.92664" lon="22.39112">
        <ele>13.74518</ele>
        <time>2020-10-07T00:11:44.358Z</time>
      </trkpt>
      <trkpt lat="58.9265" lon="22.39109">
        <ele>13.747389</ele>
        <time>2020-10-07T00:11:47.609Z</time>
      </trkpt>
      <trkpt lat="58.9252" lon="22.39033">
        <ele>13.65478</ele>
        <time>2020-10-07T00:12:17.388Z</time>
      </trkpt>
      <trkpt lat="58.92476" lon="22.39031">
        <ele>13.598467</ele>
        <time>2020-10-07T00:12:26.773Z</time>
      </trkpt>
      <trkpt lat="58.92333" lon="22.391">
        <ele>13.703403</ele>
        <time>2020-10-07T00:12:58.893Z</time>
      </trkpt>
      <trkpt lat="58.92242" lon="22.39164">
        <ele>13.962294</ele>
        <time>2020-10-07T00:13:22.017Z</time>
      </trkpt>
      <trkpt lat="58.92213" lon="22.39176">
        <ele>14.284107</ele>
        <time>2020-10-07T00:13:29.705Z</time>
      </trkpt>
      <trkpt lat="58.92195" lon="22.39169">
        <ele>14.477975</ele>
        <time>2020-10-07T00:13:34.616Z</time>
      </trkpt>
      <trkpt lat="58.92188" lon="22.39166">
        <ele>14.553974</ele>
        <time>2020-10-07T00:13:36.376Z</time>
      </trkpt>
      <trkpt lat="58.92149" lon="22.39151">
        <ele>14.984636</ele>
        <time>2020-10-07T00:13:46.918Z</time>
      </trkpt>
      <trkpt lat="58.92099" lon="22.39124">
        <ele>15.543695</ele>
        <time>2020-10-07T00:14:00.973Z</time>
      </trkpt>
      <trkpt lat="58.92094" lon="22.39121">
        <ele>15.605235</ele>
        <time>2020-10-07T00:14:02.769Z</time>
      </trkpt>
      <trkpt lat="58.92011" lon="22.39113">
        <ele>16.888514</ele>
        <time>2020-10-07T00:14:26.049Z</time>
      </trkpt>
      <trkpt lat="58.91902" lon="22.39131">
        <ele>18.748579</ele>
        <time>2020-10-07T00:14:58.316Z</time>
      </trkpt>
      <trkpt lat="58.91821" lon="22.39112">
        <ele>20.50737</ele>
        <time>2020-10-07T00:15:22.912Z</time>
      </trkpt>
      <trkpt lat="58.91769" lon="22.39099">
        <ele>21.675876</ele>
        <time>2020-10-07T00:15:39.256Z</time>
      </trkpt>
      <trkpt lat="58.91703" lon="22.39029">
        <ele>23.404773</ele>
        <time>2020-10-07T00:16:03.829Z</time>
      </trkpt>
      <trkpt lat="58.91646" lon="22.38944">
        <ele>25.227427</ele>
        <time>2020-10-07T00:16:27.813Z</time>
      </trkpt>
      <trkpt lat="58.9159" lon="22.38904">
        <ele>26.742622</ele>
        <time>2020-10-07T00:16:47.125Z</time>
      </trkpt>
      <trkpt lat="58.91564" lon="22.38885">
        <ele>27.412847</ele>
        <time>2020-10-07T00:16:55.888Z</time>
      </trkpt>
      <trkpt lat="58.91484" lon="22.38808">
        <ele>28.749836</ele>
        <time>2020-10-07T00:17:22.832Z</time>
      </trkpt>
      <trkpt lat="58.91403" lon="22.38778">
        <ele>29.993433</ele>
        <time>2020-10-07T00:17:44.976Z</time>
      </trkpt>
      <trkpt lat="58.91305" lon="22.38705">
        <ele>30.379513</ele>
        <time>2020-10-07T00:18:10.036Z</time>
      </trkpt>
      <trkpt lat="58.91242" lon="22.38701">
        <ele>30.568637</ele>
        <time>2020-10-07T00:18:24.327Z</time>
      </trkpt>
      <trkpt lat="58.9118" lon="22.38756">
        <ele>30.482859</ele>
        <time>2020-10-07T00:18:39.169Z</time>
      </trkpt>
      <trkpt lat="58.91075" lon="22.38936">
        <ele>30.096836</ele>
        <time>2020-10-07T00:19:08.560Z</time>
      </trkpt>
      <trkpt lat="58.90957" lon="22.39188">
        <ele>29.607719</ele>
        <time>2020-10-07T00:19:45.460Z</time>
      </trkpt>
      <trkpt lat="58.90935" lon="22.39267">
        <ele>29.952754</ele>
        <time>2020-10-07T00:19:55.980Z</time>
      </trkpt>
      <trkpt lat="58.90919" lon="22.39391">
        <ele>30.444835</ele>
        <time>2020-10-07T00:20:11.964Z</time>
      </trkpt>
      <trkpt lat="58.90903" lon="22.39457">
        <ele>30.727568</ele>
        <time>2020-10-07T00:20:22.757Z</time>
      </trkpt>
      <trkpt lat="58.90889" lon="22.39483">
        <ele>30.872313</ele>
        <time>2020-10-07T00:20:28.775Z</time>
      </trkpt>
      <trkpt lat="58.90863" lon="22.39513">
        <ele>31.289305</ele>
        <time>2020-10-07T00:20:37.937Z</time>
      </trkpt>
      <trkpt lat="58.90812" lon="22.39558">
        <ele>32.103278</ele>
        <time>2020-10-07T00:20:54.023Z</time>
      </trkpt>
      <trkpt lat="58.90801" lon="22.39554">
        <ele>32.268525</ele>
        <time>2020-10-07T00:20:57.692Z</time>
      </trkpt>
      <trkpt lat="58.90794" lon="22.39635">
        <ele>32.881126</ele>
        <time>2020-10-07T00:21:09.578Z</time>
      </trkpt>
      <trkpt lat="58.90784" lon="22.39779">
        <ele>33.514767</ele>
        <time>2020-10-07T00:21:29.464Z</time>
      </trkpt>
      <trkpt lat="58.9075" lon="22.40155">
        <ele>33.305699</ele>
        <time>2020-10-07T00:22:11.229Z</time>
      </trkpt>
      <trkpt lat="58.90726" lon="22.40286">
        <ele>32.974858</ele>
        <time>2020-10-07T00:22:25.933Z</time>
      </trkpt>
      <trkpt lat="58.90696" lon="22.40393">
        <ele>32.689669</ele>
        <time>2020-10-07T00:22:38.940Z</time>
      </trkpt>
      <trkpt lat="58.90665" lon="22.40467">
        <ele>32.50545</ele>
        <time>2020-10-07T00:22:49.324Z</time>
      </trkpt>
      <trkpt lat="58.90632" lon="22.40533">
        <ele>32.332649</ele>
        <time>2020-10-07T00:22:59.139Z</time>
      </trkpt>
      <trkpt lat="58.90053" lon="22.41561">
        <ele>29.703542</ele>
        <time>2020-10-07T00:25:45.225Z</time>
      </trkpt>
      <trkpt lat="58.89429" lon="22.42587">
        <ele>27.214823</ele>
        <time>2020-10-07T00:28:38.439Z</time>
      </trkpt>
      <trkpt lat="58.89354" lon="22.42716">
        <ele>27.056507</ele>
        <time>2020-10-07T00:29:00.182Z</time>
      </trkpt>
      <trkpt lat="58.89269" lon="22.42879">
        <ele>27.324228</ele>
        <time>2020-10-07T00:29:27.558Z</time>
      </trkpt>
      <trkpt lat="58.89206" lon="22.43023">
        <ele>27.648109</ele>
        <time>2020-10-07T00:29:51.481Z</time>
      </trkpt>
      <trkpt lat="58.89128" lon="22.43202">
        <ele>28.218949</ele>
        <time>2020-10-07T00:30:20.996Z</time>
      </trkpt>
      <trkpt lat="58.89074" lon="22.43314">
        <ele>28.244744</ele>
        <time>2020-10-07T00:30:39.459Z</time>
      </trkpt>
      <trkpt lat="58.88983" lon="22.43461">
        <ele>28.149449</ele>
        <time>2020-10-07T00:31:04.722Z</time>
      </trkpt>
      <trkpt lat="58.8878" lon="22.43685">
        <ele>27.048858</ele>
        <time>2020-10-07T00:31:53.098Z</time>
      </trkpt>
      <trkpt lat="58.88604" lon="22.43872">
        <ele>26.237563</ele>
        <time>2020-10-07T00:32:33.943Z</time>
      </trkpt>
      <trkpt lat="58.88215" lon="22.44295">
        <ele>25.668457</ele>
        <time>2020-10-07T00:34:12.550Z</time>
      </trkpt>
      <trkpt lat="58.88047" lon="22.44476">
        <ele>25.426893</ele>
        <time>2020-10-07T00:34:54.138Z</time>
      </trkpt>
      <trkpt lat="58.87841" lon="22.44715">
        <ele>25.165299</ele>
        <time>2020-10-07T00:35:47.385Z</time>
      </trkpt>
      <trkpt lat="58.87586" lon="22.45004">
        <ele>24.085179</ele>
        <time>2020-10-07T00:36:49.401Z</time>
      </trkpt>
      <trkpt lat="58.87425" lon="22.45166">
        <ele>22.673387</ele>
        <time>2020-10-07T00:37:25.067Z</time>
      </trkpt>
      <trkpt lat="58.87215" lon="22.4533">
        <ele>20.912655</ele>
        <time>2020-10-07T00:38:09.479Z</time>
      </trkpt>
      <trkpt lat="58.87121" lon="22.45411">
        <ele>20.622677</ele>
        <time>2020-10-07T00:38:31.388Z</time>
      </trkpt>
      <trkpt lat="58.87041" lon="22.45494">
        <ele>20.735678</ele>
        <time>2020-10-07T00:38:52.662Z</time>
      </trkpt>
      <trkpt lat="58.86281" lon="22.46409">
        <ele>24.106471</ele>
        <time>2020-10-07T00:42:26.809Z</time>
      </trkpt>
      <trkpt lat="58.86215" lon="22.46471">
        <ele>24.154918</ele>
        <time>2020-10-07T00:42:42.995Z</time>
      </trkpt>
      <trkpt lat="58.86182" lon="22.46483">
        <ele>24.17751</ele>
        <time>2020-10-07T00:42:50.401Z</time>
      </trkpt>
      <trkpt lat="58.86135" lon="22.46486">
        <ele>24.124487</ele>
        <time>2020-10-07T00:43:00.482Z</time>
      </trkpt>
      <trkpt lat="58.85528" lon="22.46401">
        <ele>22.117793</ele>
        <time>2020-10-07T00:45:09.854Z</time>
      </trkpt>
      <trkpt lat="58.85411" lon="22.46407">
        <ele>21.21293</ele>
        <time>2020-10-07T00:45:32.652Z</time>
      </trkpt>
      <trkpt lat="58.8528" lon="22.46443">
        <ele>19.492456</ele>
        <time>2020-10-07T00:45:57.422Z</time>
      </trkpt>
      <trkpt lat="58.85079" lon="22.46509">
        <ele>16.992253</ele>
        <time>2020-10-07T00:46:35.167Z</time>
      </trkpt>
      <trkpt lat="58.85052" lon="22.46518">
        <ele>17.004204</ele>
        <time>2020-10-07T00:46:40.572Z</time>
      </trkpt>
      <trkpt lat="58.83873" lon="22.46913">
        <ele>17.430588</ele>
        <time>2020-10-07T00:51:11.554Z</time>
      </trkpt>
      <trkpt lat="58.83734" lon="22.46945">
        <ele>17.068486</ele>
        <time>2020-10-07T00:51:40.693Z</time>
      </trkpt>
      <trkpt lat="58.83461" lon="22.46942">
        <ele>16.480463</ele>
        <time>2020-10-07T00:52:39.476Z</time>
      </trkpt>
      <trkpt lat="58.83164" lon="22.46935">
        <ele>16.567521</ele>
        <time>2020-10-07T00:53:46.006Z</time>
      </trkpt>
      <trkpt lat="58.82268" lon="22.46914">
        <ele>18.214032</ele>
        <time>2020-10-07T00:57:13.546Z</time>
      </trkpt>
      <trkpt lat="58.82205" lon="22.46928">
        <ele>18.062133</ele>
        <time>2020-10-07T00:57:26.598Z</time>
      </trkpt>
      <trkpt lat="58.81982" lon="22.47022">
        <ele>16.585119</ele>
        <time>2020-10-07T00:58:11.827Z</time>
      </trkpt>
      <trkpt lat="58.81855" lon="22.47106">
        <ele>15.965242</ele>
        <time>2020-10-07T00:58:40.020Z</time>
      </trkpt>
      <trkpt lat="58.81764" lon="22.4719">
        <ele>15.810501</ele>
        <time>2020-10-07T00:59:01.695Z</time>
      </trkpt>
      <trkpt lat="58.81665" lon="22.47295">
        <ele>16.075151</ele>
        <time>2020-10-07T00:59:27.355Z</time>
      </trkpt>
      <trkpt lat="58.81402" lon="22.47601">
        <ele>17.971949</ele>
        <time>2020-10-07T01:00:45.699Z</time>
      </trkpt>
      <trkpt lat="58.81224" lon="22.4779">
        <ele>17.27264</ele>
        <time>2020-10-07T01:01:27.728Z</time>
      </trkpt>
      <trkpt lat="58.81098" lon="22.4793">
        <ele>16.513886</ele>
        <time>2020-10-07T01:01:56.924Z</time>
      </trkpt>
      <trkpt lat="58.81074" lon="22.47958">
        <ele>16.611947</ele>
        <time>2020-10-07T01:02:02.783Z</time>
      </trkpt>
      <trkpt lat="58.80748" lon="22.48349">
        <ele>19.103885</ele>
        <time>2020-10-07T01:03:40.253Z</time>
      </trkpt>
      <trkpt lat="58.80689" lon="22.48396">
        <ele>19.485595</ele>
        <time>2020-10-07T01:03:56.347Z</time>
      </trkpt>
      <trkpt lat="58.80628" lon="22.48423">
        <ele>19.85677</ele>
        <time>2020-10-07T01:04:11.543Z</time>
      </trkpt>
      <trkpt lat="58.80331" lon="22.48476">
        <ele>19.818186</ele>
        <time>2020-10-07T01:05:18.813Z</time>
      </trkpt>
      <trkpt lat="58.79894" lon="22.48548">
        <ele>16.571633</ele>
        <time>2020-10-07T01:06:45.439Z</time>
      </trkpt>
      <trkpt lat="58.79812" lon="22.48554">
        <ele>15.876566</ele>
        <time>2020-10-07T01:07:01.375Z</time>
      </trkpt>
      <trkpt lat="58.79601" lon="22.48522">
        <ele>14.562078</ele>
        <time>2020-10-07T01:07:43.747Z</time>
      </trkpt>
      <trkpt lat="58.79592" lon="22.48517">
        <ele>14.518293</ele>
        <time>2020-10-07T01:07:45.686Z</time>
      </trkpt>
      <trkpt lat="58.79469" lon="22.48493">
        <ele>14.415876</ele>
        <time>2020-10-07T01:08:13.867Z</time>
      </trkpt>
      <trkpt lat="58.79427" lon="22.48488">
        <ele>14.473692</ele>
        <time>2020-10-07T01:08:23.983Z</time>
      </trkpt>
      <trkpt lat="58.79373" lon="22.48495">
        <ele>14.545819</ele>
        <time>2020-10-07T01:08:36.200Z</time>
      </trkpt>
      <trkpt lat="58.79346" lon="22.48505">
        <ele>14.464659</ele>
        <time>2020-10-07T01:08:42.499Z</time>
      </trkpt>
      <trkpt lat="58.79305" lon="22.48531">
        <ele>14.302128</ele>
        <time>2020-10-07T01:08:51.480Z</time>
      </trkpt>
      <trkpt lat="58.79192" lon="22.48645">
        <ele>13.806493</ele>
        <time>2020-10-07T01:09:17.633Z</time>
      </trkpt>
      <trkpt lat="58.79152" lon="22.48688">
        <ele>13.60585</ele>
        <time>2020-10-07T01:09:26.901Z</time>
      </trkpt>
      <trkpt lat="58.78897" lon="22.4895">
        <ele>12.464997</ele>
        <time>2020-10-07T01:10:27.841Z</time>
      </trkpt>
      <trkpt lat="58.78824" lon="22.49029">
        <ele>12.162056</ele>
        <time>2020-10-07T01:10:44.990Z</time>
      </trkpt>
      <trkpt lat="58.78798" lon="22.49054">
        <ele>12.055607</ele>
        <time>2020-10-07T01:10:51.027Z</time>
      </trkpt>
      <trkpt lat="58.78589" lon="22.49271">
        <ele>11.244636</ele>
        <time>2020-10-07T01:11:41.452Z</time>
      </trkpt>
      <trkpt lat="58.78534" lon="22.49331">
        <ele>11.094683</ele>
        <time>2020-10-07T01:11:54.568Z</time>
      </trkpt>
      <trkpt lat="58.78482" lon="22.49395">
        <ele>10.976187</ele>
        <time>2020-10-07T01:12:07.421Z</time>
      </trkpt>
      <trkpt lat="58.78248" lon="22.49761">
        <ele>11.160778</ele>
        <time>2020-10-07T01:13:16.231Z</time>
      </trkpt>
      <trkpt lat="58.77777" lon="22.50515">
        <ele>11.924038</ele>
        <time>2020-10-07T01:15:35.016Z</time>
      </trkpt>
      <trkpt lat="58.77711" lon="22.50606">
        <ele>12.196695</ele>
        <time>2020-10-07T01:15:54.781Z</time>
      </trkpt>
      <trkpt lat="58.77684" lon="22.50633">
        <ele>12.369631</ele>
        <time>2020-10-07T01:16:02.450Z</time>
      </trkpt>
      <trkpt lat="58.77661" lon="22.50651">
        <ele>12.50927</ele>
        <time>2020-10-07T01:16:08.562Z</time>
      </trkpt>
      <trkpt lat="58.77635" lon="22.50665">
        <ele>12.662545</ele>
        <time>2020-10-07T01:16:15.237Z</time>
      </trkpt>
      <trkpt lat="58.77619" lon="22.50667">
        <ele>12.754843</ele>
        <time>2020-10-07T01:16:19.379Z</time>
      </trkpt>
      <trkpt lat="58.77537" lon="22.50666">
        <ele>13.141507</ele>
        <time>2020-10-07T01:16:39.332Z</time>
      </trkpt>
      <trkpt lat="58.77148" lon="22.50598">
        <ele>13.615161</ele>
        <time>2020-10-07T01:18:07.514Z</time>
      </trkpt>
      <trkpt lat="58.77099" lon="22.50608">
        <ele>13.671186</ele>
        <time>2020-10-07T01:18:18.732Z</time>
      </trkpt>
      <trkpt lat="58.77068" lon="22.50614">
        <ele>13.707234</ele>
        <time>2020-10-07T01:18:25.989Z</time>
      </trkpt>
      <trkpt lat="58.77004" lon="22.50651">
        <ele>13.782855</ele>
        <time>2020-10-07T01:18:41.418Z</time>
      </trkpt>
      <trkpt lat="58.76859" lon="22.5077">
        <ele>13.95536</ele>
        <time>2020-10-07T01:19:17.238Z</time>
      </trkpt>
      <trkpt lat="58.76695" lon="22.50923">
        <ele>13.874269</ele>
        <time>2020-10-07T01:19:57.291Z</time>
      </trkpt>
      <trkpt lat="58.76578" lon="22.51">
        <ele>13.62949</ele>
        <time>2020-10-07T01:20:24.149Z</time>
      </trkpt>
      <trkpt lat="58.76451" lon="22.51039">
        <ele>13.202202</ele>
        <time>2020-10-07T01:20:51.368Z</time>
      </trkpt>
      <trkpt lat="58.76359" lon="22.51082">
        <ele>12.785346</ele>
        <time>2020-10-07T01:21:10.792Z</time>
      </trkpt>
      <trkpt lat="58.76273" lon="22.51153">
        <ele>12.370759</ele>
        <time>2020-10-07T01:21:29.950Z</time>
      </trkpt>
      <trkpt lat="58.76079" lon="22.51428">
        <ele>11.523112</ele>
        <time>2020-10-07T01:22:20.563Z</time>
      </trkpt>
      <trkpt lat="58.76022" lon="22.51479">
        <ele>11.375206</ele>
        <time>2020-10-07T01:22:34.262Z</time>
      </trkpt>
      <trkpt lat="58.75896" lon="22.5159">
        <ele>11.175385</ele>
        <time>2020-10-07T01:23:04.663Z</time>
      </trkpt>
      <trkpt lat="58.75806" lon="22.51643">
        <ele>10.871947</ele>
        <time>2020-10-07T01:23:24.652Z</time>
      </trkpt>
      <trkpt lat="58.7568" lon="22.51643">
        <ele>10.352771</ele>
        <time>2020-10-07T01:23:50.887Z</time>
      </trkpt>
      <trkpt lat="58.75613" lon="22.51636">
        <ele>9.930369</ele>
        <time>2020-10-07T01:24:04.586Z</time>
      </trkpt>
      <trkpt lat="58.75547" lon="22.5164">
        <ele>9.518375</ele>
        <time>2020-10-07T01:24:17.816Z</time>
      </trkpt>
      <trkpt lat="58.75456" lon="22.51691">
        <ele>8.795257</ele>
        <time>2020-10-07T01:24:36.433Z</time>
      </trkpt>
      <trkpt lat="58.75372" lon="22.51775">
        <ele>8.029099</ele>
        <time>2020-10-07T01:24:55.112Z</time>
      </trkpt>
      <trkpt lat="58.75356" lon="22.51798">
        <ele>7.880483</ele>
        <time>2020-10-07T01:24:58.998Z</time>
      </trkpt>
      <trkpt lat="58.75352" lon="22.51803">
        <ele>7.861373</ele>
        <time>2020-10-07T01:24:59.832Z</time>
      </trkpt>
      <trkpt lat="58.75278" lon="22.51906">
        <ele>7.428457</ele>
        <time>2020-10-07T01:25:18.480Z</time>
      </trkpt>
      <trkpt lat="58.74987" lon="22.52343">
        <ele>6.582638</ele>
        <time>2020-10-07T01:26:38.219Z</time>
      </trkpt>
      <trkpt lat="58.74842" lon="22.52496">
        <ele>6.508884</ele>
        <time>2020-10-07T01:27:14.815Z</time>
      </trkpt>
      <trkpt lat="58.7473" lon="22.52578">
        <ele>6.593709</ele>
        <time>2020-10-07T01:27:41.618Z</time>
      </trkpt>
      <trkpt lat="58.74677" lon="22.52618">
        <ele>6.727173</ele>
        <time>2020-10-07T01:27:54.894Z</time>
      </trkpt>
      <trkpt lat="58.74423" lon="22.52773">
        <ele>7.556074</ele>
        <time>2020-10-07T01:28:57.880Z</time>
      </trkpt>
      <trkpt lat="58.74093" lon="22.53117">
        <ele>8.322117</ele>
        <time>2020-10-07T01:30:24.286Z</time>
      </trkpt>
      <trkpt lat="58.74023" lon="22.53228">
        <ele>8.602448</ele>
        <time>2020-10-07T01:30:45.415Z</time>
      </trkpt>
      <trkpt lat="58.74014" lon="22.53252">
        <ele>8.650309</ele>
        <time>2020-10-07T01:30:49.136Z</time>
      </trkpt>
      <trkpt lat="58.73954" lon="22.5341">
        <ele>9.018084</ele>
        <time>2020-10-07T01:31:13.409Z</time>
      </trkpt>
      <trkpt lat="58.73819" lon="22.5395">
        <ele>10.420767</ele>
        <time>2020-10-07T01:32:28.530Z</time>
      </trkpt>
      <trkpt lat="58.73784" lon="22.5408">
        <ele>10.793557</ele>
        <time>2020-10-07T01:32:47.058Z</time>
      </trkpt>
      <trkpt lat="58.73757" lon="22.5416">
        <ele>11.040295</ele>
        <time>2020-10-07T01:32:59.196Z</time>
      </trkpt>
      <trkpt lat="58.73726" lon="22.54227">
        <ele>11.272678</ele>
        <time>2020-10-07T01:33:10.591Z</time>
      </trkpt>
      <trkpt lat="58.7367" lon="22.54317">
        <ele>11.442666</ele>
        <time>2020-10-07T01:33:27.958Z</time>
      </trkpt>
      <trkpt lat="58.73585" lon="22.54414">
        <ele>11.606668</ele>
        <time>2020-10-07T01:33:50.437Z</time>
      </trkpt>
      <trkpt lat="58.73555" lon="22.54433">
        <ele>11.629293</ele>
        <time>2020-10-07T01:33:57.463Z</time>
      </trkpt>
      <trkpt lat="58.73505" lon="22.54454">
        <ele>11.526023</ele>
        <time>2020-10-07T01:34:08.346Z</time>
      </trkpt>
      <trkpt lat="58.73402" lon="22.54487">
        <ele>11.311109</ele>
        <time>2020-10-07T01:34:30.527Z</time>
      </trkpt>
      <trkpt lat="58.73255" lon="22.54557">
        <ele>11.467497</ele>
        <time>2020-10-07T01:35:04.327Z</time>
      </trkpt>
      <trkpt lat="58.73245" lon="22.54562">
        <ele>11.481782</ele>
        <time>2020-10-07T01:35:06.899Z</time>
      </trkpt>
      <trkpt lat="58.73126" lon="22.54677">
        <ele>11.80249</ele>
        <time>2020-10-07T01:35:38.596Z</time>
      </trkpt>
      <trkpt lat="58.73054" lon="22.54783">
        <ele>12.018144</ele>
        <time>2020-10-07T01:35:59.892Z</time>
      </trkpt>
      <trkpt lat="58.72962" lon="22.54992">
        <ele>11.887678</ele>
        <time>2020-10-07T01:36:31.233Z</time>
      </trkpt>
      <trkpt lat="58.72819" lon="22.55363">
        <ele>11.231739</ele>
        <time>2020-10-07T01:37:21.468Z</time>
      </trkpt>
      <trkpt lat="58.72694" lon="22.55615">
        <ele>11.196652</ele>
        <time>2020-10-07T01:38:01.802Z</time>
      </trkpt>
      <trkpt lat="58.72578" lon="22.55851">
        <ele>11.530849</ele>
        <time>2020-10-07T01:38:41.218Z</time>
      </trkpt>
      <trkpt lat="58.72512" lon="22.55988">
        <ele>11.620487</ele>
        <time>2020-10-07T01:39:03.655Z</time>
      </trkpt>
      <trkpt lat="58.72451" lon="22.56089">
        <ele>11.636091</ele>
        <time>2020-10-07T01:39:21.471Z</time>
      </trkpt>
      <trkpt lat="58.72395" lon="22.56159">
        <ele>11.494222</ele>
        <time>2020-10-07T01:39:35.910Z</time>
      </trkpt>
      <trkpt lat="58.72328" lon="22.56215">
        <ele>11.339031</ele>
        <time>2020-10-07T01:39:51.391Z</time>
      </trkpt>
      <trkpt lat="58.72117" lon="22.5631">
        <ele>10.719106</ele>
        <time>2020-10-07T01:40:36.624Z</time>
      </trkpt>
      <trkpt lat="58.72006" lon="22.56369">
        <ele>11.072025</ele>
        <time>2020-10-07T01:41:03.666Z</time>
      </trkpt>
      <trkpt lat="58.71984" lon="22.56389">
        <ele>11.144659</ele>
        <time>2020-10-07T01:41:09.480Z</time>
      </trkpt>
      <trkpt lat="58.71962" lon="22.56408">
        <ele>11.219018</ele>
        <time>2020-10-07T01:41:15.646Z</time>
      </trkpt>
      <trkpt lat="58.71918" lon="22.56457">
        <ele>11.57756</ele>
        <time>2020-10-07T01:41:28.713Z</time>
      </trkpt>
      <trkpt lat="58.71889" lon="22.56503">
        <ele>11.841652</ele>
        <time>2020-10-07T01:41:38.436Z</time>
      </trkpt>
      <trkpt lat="58.71809" lon="22.56667">
        <ele>12.459652</ele>
        <time>2020-10-07T01:42:07.973Z</time>
      </trkpt>
      <trkpt lat="58.71724" lon="22.56911">
        <ele>12.29792</ele>
        <time>2020-10-07T01:42:40.683Z</time>
      </trkpt>
      <trkpt lat="58.71642" lon="22.57146">
        <ele>11.475258</ele>
        <time>2020-10-07T01:43:09.950Z</time>
      </trkpt>
      <trkpt lat="58.71596" lon="22.57279">
        <ele>11.233918</ele>
        <time>2020-10-07T01:43:27.243Z</time>
      </trkpt>
      <trkpt lat="58.71509" lon="22.57489">
        <ele>11.132958</ele>
        <time>2020-10-07T01:43:59.068Z</time>
      </trkpt>
      <trkpt lat="58.71451" lon="22.57613">
        <ele>11.227776</ele>
        <time>2020-10-07T01:44:19.137Z</time>
      </trkpt>
      <trkpt lat="58.71424" lon="22.57673">
        <ele>11.273363</ele>
        <time>2020-10-07T01:44:28.531Z</time>
      </trkpt>
      <trkpt lat="58.71399" lon="22.57729">
        <ele>11.315159</ele>
        <time>2020-10-07T01:44:36.995Z</time>
      </trkpt>
      <trkpt lat="58.71358" lon="22.57863">
        <ele>11.091301</ele>
        <time>2020-10-07T01:44:54.351Z</time>
      </trkpt>
      <trkpt lat="58.7132" lon="22.58005">
        <ele>10.83458</ele>
        <time>2020-10-07T01:45:11.765Z</time>
      </trkpt>
      <trkpt lat="58.71275" lon="22.58169">
        <ele>10.492432</ele>
        <time>2020-10-07T01:45:31.664Z</time>
      </trkpt>
      <trkpt lat="58.71194" lon="22.58467">
        <ele>10.096338</ele>
        <time>2020-10-07T01:46:08.835Z</time>
      </trkpt>
      <trkpt lat="58.71162" lon="22.58564">
        <ele>10.092345</ele>
        <time>2020-10-07T01:46:22.217Z</time>
      </trkpt>
      <trkpt lat="58.71089" lon="22.58681">
        <ele>10.494171</ele>
        <time>2020-10-07T01:46:44.485Z</time>
      </trkpt>
      <trkpt lat="58.71055" lon="22.58714">
        <ele>10.85347</ele>
        <time>2020-10-07T01:46:53.868Z</time>
      </trkpt>
      <trkpt lat="58.71002" lon="22.5874">
        <ele>11.3639</ele>
        <time>2020-10-07T01:47:07.930Z</time>
      </trkpt>
      <trkpt lat="58.70995" lon="22.58744">
        <ele>11.433521</ele>
        <time>2020-10-07T01:47:09.903Z</time>
      </trkpt>
      <trkpt lat="58.70969" lon="22.58757">
        <ele>11.688676</ele>
        <time>2020-10-07T01:47:17.653Z</time>
      </trkpt>
      <trkpt lat="58.70923" lon="22.58776">
        <ele>12.628721</ele>
        <time>2020-10-07T01:47:32.110Z</time>
      </trkpt>
      <trkpt lat="58.70896" lon="22.58791">
        <ele>13.242976</ele>
        <time>2020-10-07T01:47:40.835Z</time>
      </trkpt>
      <trkpt lat="58.7086" lon="22.58818">
        <ele>14.10523</ele>
        <time>2020-10-07T01:47:53.242Z</time>
      </trkpt>
      <trkpt lat="58.70838" lon="22.58847">
        <ele>14.71222</ele>
        <time>2020-10-07T01:48:01.979Z</time>
      </trkpt>
      <trkpt lat="58.70818" lon="22.58873">
        <ele>15.248181</ele>
        <time>2020-10-07T01:48:09.716Z</time>
      </trkpt>
      <trkpt lat="58.7079" lon="22.58927">
        <ele>15.989466</ele>
        <time>2020-10-07T01:48:22.347Z</time>
      </trkpt>
      <trkpt lat="58.70762" lon="22.5902">
        <ele>16.682785</ele>
        <time>2020-10-07T01:48:39.375Z</time>
      </trkpt>
      <trkpt lat="58.70739" lon="22.59175">
        <ele>17.729586</ele>
        <time>2020-10-07T01:49:02.308Z</time>
      </trkpt>
      <trkpt lat="58.70734" lon="22.59206">
        <ele>17.940773</ele>
        <time>2020-10-07T01:49:06.063Z</time>
      </trkpt>
      <trkpt lat="58.70707" lon="22.59415">
        <ele>17.11684</ele>
        <time>2020-10-07T01:49:28.002Z</time>
      </trkpt>
      <trkpt lat="58.70695" lon="22.59463">
        <ele>16.866368</ele>
        <time>2020-10-07T01:49:33.292Z</time>
      </trkpt>
      <trkpt lat="58.70689" lon="22.59484">
        <ele>16.753954</ele>
        <time>2020-10-07T01:49:35.491Z</time>
      </trkpt>
      <trkpt lat="58.70644" lon="22.59585">
        <ele>16.214232</ele>
        <time>2020-10-07T01:49:48.239Z</time>
      </trkpt>
      <trkpt lat="58.70634" lon="22.5961">
        <ele>16.104837</ele>
        <time>2020-10-07T01:49:51.396Z</time>
      </trkpt>
      <trkpt lat="58.70565" lon="22.59723">
        <ele>15.519419</ele>
        <time>2020-10-07T01:50:09.796Z</time>
      </trkpt>
      <trkpt lat="58.70551" lon="22.59743">
        <ele>15.400391</ele>
        <time>2020-10-07T01:50:13.704Z</time>
      </trkpt>
      <trkpt lat="58.70544" lon="22.59719">
        <ele>15.305194</ele>
        <time>2020-10-07T01:50:17.312Z</time>
      </trkpt>
      <trkpt lat="58.70533" lon="22.59669">
        <ele>15.250812</ele>
        <time>2020-10-07T01:50:23.822Z</time>
      </trkpt>
      <trkpt lat="58.70528" lon="22.59641">
        <ele>15.247366</ele>
        <time>2020-10-07T01:50:27.561Z</time>
      </trkpt>
      <trkpt lat="58.70521" lon="22.59605">
        <ele>15.242791</ele>
        <time>2020-10-07T01:50:32.442Z</time>
      </trkpt>
      <trkpt lat="58.70509" lon="22.59612">
        <ele>15.239981</ele>
        <time>2020-10-07T01:50:35.404Z</time>
      </trkpt>
      <trkpt lat="58.70491" lon="22.59507">
        <ele>15.227147</ele>
        <time>2020-10-07T01:50:48.576Z</time>
      </trkpt>
      <trkpt lat="58.70486" lon="22.59386">
        <ele>15.120095</ele>
        <time>2020-10-07T01:51:02.611Z</time>
      </trkpt>
      <trkpt lat="58.70487" lon="22.593">
        <ele>14.634548</ele>
        <time>2020-10-07T01:51:11.533Z</time>
      </trkpt>
      <trkpt lat="58.70472" lon="22.59101">
        <ele>13.511334</ele>
        <time>2020-10-07T01:51:30.879Z</time>
      </trkpt>
      <trkpt lat="58.70458" lon="22.59033">
        <ele>13.097316</ele>
        <time>2020-10-07T01:51:37.830Z</time>
      </trkpt>
      <trkpt lat="58.70435" lon="22.58971">
        <ele>12.647977</ele>
        <time>2020-10-07T01:51:45.289Z</time>
      </trkpt>
      <trkpt lat="58.70402" lon="22.58892">
        <ele>12.054917</ele>
        <time>2020-10-07T01:51:55.363Z</time>
      </trkpt>
      <trkpt lat="58.7038" lon="22.58839">
        <ele>11.658383</ele>
        <time>2020-10-07T01:52:02.213Z</time>
      </trkpt>
      <trkpt lat="58.70376" lon="22.58829">
        <ele>11.584334</ele>
        <time>2020-10-07T01:52:03.537Z</time>
      </trkpt>
      <trkpt lat="58.7029" lon="22.58676">
        <ele>10.480661</ele>
        <time>2020-10-07T01:52:26.512Z</time>
      </trkpt>
      <trkpt lat="58.702" lon="22.58489">
        <ele>9.387691</ele>
        <time>2020-10-07T01:52:52.415Z</time>
      </trkpt>
      <trkpt lat="58.70163" lon="22.58378">
        <ele>8.910714</ele>
        <time>2020-10-07T01:53:05.907Z</time>
      </trkpt>
      <trkpt lat="58.70127" lon="22.58285">
        <ele>8.493124</ele>
        <time>2020-10-07T01:53:18.176Z</time>
      </trkpt>
      <trkpt lat="58.7003" lon="22.57962">
        <ele>8.489651</ele>
        <time>2020-10-07T01:54:01.320Z</time>
      </trkpt>
      <trkpt lat="58.69935" lon="22.57803">
        <ele>9.544133</ele>
        <time>2020-10-07T01:54:33.647Z</time>
      </trkpt>
      <trkpt lat="58.69918" lon="22.57783">
        <ele>9.704476</ele>
        <time>2020-10-07T01:54:39.038Z</time>
      </trkpt>
      <trkpt lat="58.69887" lon="22.57744">
        <ele>9.999771</ele>
        <time>2020-10-07T01:54:49.333Z</time>
      </trkpt>
      <trkpt lat="58.69857" lon="22.57703">
        <ele>10.193241</ele>
        <time>2020-10-07T01:54:58.920Z</time>
      </trkpt>
      <trkpt lat="58.69806" lon="22.57599">
        <ele>10.592891</ele>
        <time>2020-10-07T01:55:18.021Z</time>
      </trkpt>
      <trkpt lat="58.69787" lon="22.57542">
        <ele>10.781684</ele>
        <time>2020-10-07T01:55:26.051Z</time>
      </trkpt>
      <trkpt lat="58.69773" lon="22.57479">
        <ele>10.850262</ele>
        <time>2020-10-07T01:55:33.860Z</time>
      </trkpt>
      <trkpt lat="58.69768" lon="22.57331">
        <ele>10.023777</ele>
        <time>2020-10-07T01:55:48.904Z</time>
      </trkpt>
      <trkpt lat="58.69765" lon="22.57306">
        <ele>9.880324</ele>
        <time>2020-10-07T01:55:51.242Z</time>
      </trkpt>
      <trkpt lat="58.6974" lon="22.57211">
        <ele>9.289918</ele>
        <time>2020-10-07T01:56:01.510Z</time>
      </trkpt>
      <trkpt lat="58.69734" lon="22.57141">
        <ele>8.931926</ele>
        <time>2020-10-07T01:56:08.440Z</time>
      </trkpt>
      <trkpt lat="58.69733" lon="22.57056">
        <ele>8.615105</ele>
        <time>2020-10-07T01:56:16.760Z</time>
      </trkpt>
      <trkpt lat="58.6973" lon="22.56952">
        <ele>8.227635</ele>
        <time>2020-10-07T01:56:27.570Z</time>
      </trkpt>
      <trkpt lat="58.69713" lon="22.56809">
        <ele>7.71893</ele>
        <time>2020-10-07T01:56:43.674Z</time>
      </trkpt>
      <trkpt lat="58.69711" lon="22.56759">
        <ele>7.723115</ele>
        <time>2020-10-07T01:56:49.522Z</time>
      </trkpt>
      <trkpt lat="58.69723" lon="22.56524">
        <ele>7.742864</ele>
        <time>2020-10-07T01:57:17.658Z</time>
      </trkpt>
      <trkpt lat="58.69722" lon="22.56452">
        <ele>7.729049</ele>
        <time>2020-10-07T01:57:25.929Z</time>
      </trkpt>
      <trkpt lat="58.69684" lon="22.55686">
        <ele>7.172761</ele>
        <time>2020-10-07T01:58:52.167Z</time>
      </trkpt>
      <trkpt lat="58.69669" lon="22.55588">
        <ele>7.236217</ele>
        <time>2020-10-07T01:59:04.287Z</time>
      </trkpt>
      <trkpt lat="58.6964" lon="22.55458">
        <ele>7.323564</ele>
        <time>2020-10-07T01:59:21.570Z</time>
      </trkpt>
      <trkpt lat="58.69627" lon="22.55386">
        <ele>7.524256</ele>
        <time>2020-10-07T01:59:31.091Z</time>
      </trkpt>
      <trkpt lat="58.69624" lon="22.55369">
        <ele>7.573818</ele>
        <time>2020-10-07T01:59:33.587Z</time>
      </trkpt>
      <trkpt lat="58.69612" lon="22.55323">
        <ele>7.712318</ele>
        <time>2020-10-07T01:59:39.874Z</time>
      </trkpt>
      <trkpt lat="58.69608" lon="22.5525">
        <ele>7.910693</ele>
        <time>2020-10-07T01:59:49.222Z</time>
      </trkpt>
      <trkpt lat="58.69626" lon="22.55101">
        <ele>8.299212</ele>
        <time>2020-10-07T02:00:09.010Z</time>
      </trkpt>
      <trkpt lat="58.69645" lon="22.54835">
        <ele>8.68919</ele>
        <time>2020-10-07T02:00:41.811Z</time>
      </trkpt>
      <trkpt lat="58.69656" lon="22.54732">
        <ele>8.749517</ele>
        <time>2020-10-07T02:00:54.101Z</time>
      </trkpt>
      <trkpt lat="58.69667" lon="22.54632">
        <ele>8.709342</ele>
        <time>2020-10-07T02:01:05.766Z</time>
      </trkpt>
      <trkpt lat="58.69676" lon="22.5456">
        <ele>8.680084</ele>
        <time>2020-10-07T02:01:14.204Z</time>
      </trkpt>
      <trkpt lat="58.69688" lon="22.54472">
        <ele>8.644264</ele>
        <time>2020-10-07T02:01:24.477Z</time>
      </trkpt>
      <trkpt lat="58.69703" lon="22.54381">
        <ele>8.582662</ele>
        <time>2020-10-07T02:01:35.175Z</time>
      </trkpt>
      <trkpt lat="58.69707" lon="22.54344">
        <ele>8.553561</ele>
        <time>2020-10-07T02:01:39.522Z</time>
      </trkpt>
      <trkpt lat="58.69735" lon="22.54096">
        <ele>8.355655</ele>
        <time>2020-10-07T02:02:08.406Z</time>
      </trkpt>
      <trkpt lat="58.69759" lon="22.53869">
        <ele>8.05406</ele>
        <time>2020-10-07T02:02:34.109Z</time>
      </trkpt>
      <trkpt lat="58.69768" lon="22.53813">
        <ele>7.976766</ele>
        <time>2020-10-07T02:02:40.622Z</time>
      </trkpt>
      <trkpt lat="58.69797" lon="22.537">
        <ele>7.762015</ele>
        <time>2020-10-07T02:02:54.221Z</time>
      </trkpt>
      <trkpt lat="58.69796" lon="22.53531">
        <ele>7.432369</ele>
        <time>2020-10-07T02:03:12.633Z</time>
      </trkpt>
      <trkpt lat="58.69786" lon="22.53292">
        <ele>6.919699</ele>
        <time>2020-10-07T02:03:39.119Z</time>
      </trkpt>
      <trkpt lat="58.69775" lon="22.53156">
        <ele>6.610302</ele>
        <time>2020-10-07T02:03:53.912Z</time>
      </trkpt>
      <trkpt lat="58.69775" lon="22.53089">
        <ele>6.4534</ele>
        <time>2020-10-07T02:04:01.097Z</time>
      </trkpt>
      <trkpt lat="58.69779" lon="22.52998">
        <ele>6.04313</ele>
        <time>2020-10-07T02:04:10.583Z</time>
      </trkpt>
      <trkpt lat="58.69749" lon="22.52986">
        <ele>5.782561</ele>
        <time>2020-10-07T02:04:16.697Z</time>
      </trkpt>
      <trkpt lat="58.69664" lon="22.52966">
        <ele>5.046437</ele>
        <time>2020-10-07T02:04:34.020Z</time>
      </trkpt>
      <trkpt lat="58.69645" lon="22.52952">
        <ele>4.878569</ele>
        <time>2020-10-07T02:04:38.138Z</time>
      </trkpt>
      <trkpt lat="58.69635" lon="22.52945">
        <ele>4.812258</ele>
        <time>2020-10-07T02:04:40.307Z</time>
      </trkpt>
      <trkpt lat="58.69616" lon="22.52918">
        <ele>4.665139</ele>
        <time>2020-10-07T02:04:44.981Z</time>
      </trkpt>
      <trkpt lat="58.69592" lon="22.52867">
        <ele>4.439555</ele>
        <time>2020-10-07T02:04:52.373Z</time>
      </trkpt>
      <trkpt lat="58.69559" lon="22.52763">
        <ele>4.037751</ele>
        <time>2020-10-07T02:05:05.809Z</time>
      </trkpt>
      <trkpt lat="58.69548" lon="22.52697">
        <ele>3.811174</ele>
        <time>2020-10-07T02:05:13.870Z</time>
      </trkpt>
      <trkpt lat="58.69524" lon="22.52513">
        <ele>3.93264</ele>
        <time>2020-10-07T02:05:37.273Z</time>
      </trkpt>
      <trkpt lat="58.69508" lon="22.52426">
        <ele>4.013701</ele>
        <time>2020-10-07T02:05:49.180Z</time>
      </trkpt>
      <trkpt lat="58.69499" lon="22.52393">
        <ele>4.045857</ele>
        <time>2020-10-07T02:05:53.961Z</time>
      </trkpt>
      <trkpt lat="58.6948" lon="22.52321">
        <ele>4.070947</ele>
        <time>2020-10-07T02:06:04.194Z</time>
      </trkpt>
      <trkpt lat="58.69473" lon="22.52275">
        <ele>4.062489</ele>
        <time>2020-10-07T02:06:09.913Z</time>
      </trkpt>
      <trkpt lat="58.6948" lon="22.52179">
        <ele>4.045387</ele>
        <time>2020-10-07T02:06:21.516Z</time>
      </trkpt>
      <trkpt lat="58.69491" lon="22.5212">
        <ele>4.034139</ele>
        <time>2020-10-07T02:06:28.730Z</time>
      </trkpt>
      <trkpt lat="58.69474" lon="22.52109">
        <ele>4.027966</ele>
        <time>2020-10-07T02:06:32.485Z</time>
      </trkpt>
      <trkpt lat="58.69438" lon="22.52117">
        <ele>3.983859</ele>
        <time>2020-10-07T02:06:39.976Z</time>
      </trkpt>
      <trkpt lat="58.69334" lon="22.52234">
        <ele>3.004868</ele>
        <time>2020-10-07T02:07:04.262Z</time>
      </trkpt>
      <trkpt lat="58.69177" lon="22.52195">
        <ele>1.576565</ele>
        <time>2020-10-07T02:07:34.226Z</time>
      </trkpt>
      <trkpt lat="58.6912" lon="22.52178">
        <ele>1.025253</ele>
        <time>2020-10-07T02:07:45.375Z</time>
      </trkpt>
      <trkpt lat="58.68871" lon="22.52064">
        <ele>0.175625</ele>
        <time>2020-10-07T02:08:21.028Z</time>
      </trkpt>
      <trkpt lat="58.68107" lon="22.53606">
        <time>2020-10-07T02:10:55.380Z</time>
      </trkpt>
      <trkpt lat="58.67011" lon="22.56094">
        <time>2020-10-07T02:14:51.712Z</time>
      </trkpt>
      <trkpt lat="58.66228" lon="22.57815">
        <time>2020-10-07T02:17:37.442Z</time>
      </trkpt>
      <trkpt lat="58.65936" lon="22.58667">
        <time>2020-10-07T02:18:51.365Z</time>
      </trkpt>
      <trkpt lat="58.64979" lon="22.61391">
        <time>2020-10-07T02:22:49.774Z</time>
      </trkpt>
      <trkpt lat="58.64093" lon="22.63953">
        <time>2020-10-07T02:26:32.975Z</time>
      </trkpt>
      <trkpt lat="58.63544" lon="22.6507">
        <time>2020-10-07T02:28:24.342Z</time>
      </trkpt>
      <trkpt lat="58.60911" lon="22.70647">
        <time>2020-10-07T02:37:30.725Z</time>
      </trkpt>
      <trkpt lat="58.60263" lon="22.72004">
        <time>2020-10-07T02:39:44.341Z</time>
      </trkpt>
      <trkpt lat="58.60171" lon="22.72133">
        <time>2020-10-07T02:40:00.248Z</time>
      </trkpt>
      <trkpt lat="58.60027" lon="22.72239">
        <time>2020-10-07T02:40:21.776Z</time>
      </trkpt>
      <trkpt lat="58.59916" lon="22.72296">
        <time>2020-10-07T02:40:37.722Z</time>
      </trkpt>
      <trkpt lat="58.59704" lon="22.72371">
        <ele>0.001544</ele>
        <time>2020-10-07T02:41:07.689Z</time>
      </trkpt>
      <trkpt lat="58.59598" lon="22.72375">
        <ele>0.063155</ele>
        <time>2020-10-07T02:41:22.503Z</time>
      </trkpt>
      <trkpt lat="58.59507" lon="22.72337">
        <ele>0.151759</ele>
        <time>2020-10-07T02:41:35.417Z</time>
      </trkpt>
      <trkpt lat="58.59254" lon="22.72084">
        <ele>1.011453</ele>
        <time>2020-10-07T02:42:15.134Z</time>
      </trkpt>
      <trkpt lat="58.59185" lon="22.71985">
        <ele>1.445207</ele>
        <time>2020-10-07T02:42:27.188Z</time>
      </trkpt>
      <trkpt lat="58.59175" lon="22.71835">
        <ele>2.162615</ele>
        <time>2020-10-07T02:42:38.223Z</time>
      </trkpt>
      <trkpt lat="58.59168" lon="22.71736">
        <ele>2.666241</ele>
        <time>2020-10-07T02:42:52.183Z</time>
      </trkpt>
      <trkpt lat="58.59153" lon="22.71667">
        <ele>3.044913</ele>
        <time>2020-10-07T02:43:02.705Z</time>
      </trkpt>
      <trkpt lat="58.59127" lon="22.71588">
        <ele>3.507194</ele>
        <time>2020-10-07T02:43:15.641Z</time>
      </trkpt>
      <trkpt lat="58.5911" lon="22.71535">
        <ele>3.816813</ele>
        <time>2020-10-07T02:43:24.419Z</time>
      </trkpt>
      <trkpt lat="58.58835" lon="22.706">
        <ele>8.484236</ele>
        <time>2020-10-07T02:45:49.653Z</time>
      </trkpt>
      <trkpt lat="58.58813" lon="22.7056">
        <ele>8.566074</ele>
        <time>2020-10-07T02:45:56.381Z</time>
      </trkpt>
      <trkpt lat="58.58779" lon="22.70548">
        <ele>8.657999</ele>
        <time>2020-10-07T02:46:03.748Z</time>
      </trkpt>
      <trkpt lat="58.58575" lon="22.70626">
        <ele>8.12321</ele>
        <time>2020-10-07T02:46:47.176Z</time>
      </trkpt>
      <trkpt lat="58.5851" lon="22.70636">
        <ele>8.00372</ele>
        <time>2020-10-07T02:47:01.122Z</time>
      </trkpt>
      <trkpt lat="58.58046" lon="22.70595">
        <ele>7.250045</ele>
        <time>2020-10-07T02:48:42.148Z</time>
      </trkpt>
      <trkpt lat="58.57881" lon="22.70603">
        <ele>7.143797</ele>
        <time>2020-10-07T02:49:17.020Z</time>
      </trkpt>
      <trkpt lat="58.57992" lon="22.69784">
        <ele>9.979576</ele>
        <time>2020-10-07T02:51:08.588Z</time>
      </trkpt>
      <trkpt lat="58.57998" lon="22.69684">
        <ele>10.309933</ele>
        <time>2020-10-07T02:51:22.845Z</time>
      </trkpt>
      <trkpt lat="58.57992" lon="22.69544">
        <ele>10.768812</ele>
        <time>2020-10-07T02:51:40.250Z</time>
      </trkpt>
      <trkpt lat="58.57979" lon="22.69409">
        <ele>10.505777</ele>
        <time>2020-10-07T02:51:55.753Z</time>
      </trkpt>
      <trkpt lat="58.5797" lon="22.69296">
        <ele>10.246507</ele>
        <time>2020-10-07T02:52:07.825Z</time>
      </trkpt>
      <trkpt lat="58.57957" lon="22.69099">
        <ele>9.892322</ele>
        <time>2020-10-07T02:52:28.316Z</time>
      </trkpt>
      <trkpt lat="58.5791" lon="22.6887">
        <ele>9.576809</ele>
        <time>2020-10-07T02:52:56.733Z</time>
      </trkpt>
      <trkpt lat="58.57891" lon="22.68802">
        <ele>9.635186</ele>
        <time>2020-10-07T02:53:06.168Z</time>
      </trkpt>
      <trkpt lat="58.57856" lon="22.68756">
        <ele>9.701779</ele>
        <time>2020-10-07T02:53:16.029Z</time>
      </trkpt>
      <trkpt lat="58.57832" lon="22.68741">
        <ele>9.741489</ele>
        <time>2020-10-07T02:53:21.899Z</time>
      </trkpt>
      <trkpt lat="58.57765" lon="22.68698">
        <ele>9.851795</ele>
        <time>2020-10-07T02:53:37.819Z</time>
      </trkpt>
      <trkpt lat="58.57565" lon="22.68631">
        <ele>9.949365</ele>
        <time>2020-10-07T02:54:22.898Z</time>
      </trkpt>
      <trkpt lat="58.57506" lon="22.68621">
        <ele>10.193644</ele>
        <time>2020-10-07T02:54:36.781Z</time>
      </trkpt>
      <trkpt lat="58.57397" lon="22.68627">
        <ele>10.672143</ele>
        <time>2020-10-07T02:55:03.558Z</time>
      </trkpt>
      <trkpt lat="58.57352" lon="22.68605">
        <ele>10.997468</ele>
        <time>2020-10-07T02:55:15.481Z</time>
      </trkpt>
      <trkpt lat="58.57295" lon="22.68558">
        <ele>11.428223</ele>
        <time>2020-10-07T02:55:31.477Z</time>
      </trkpt>
      <trkpt lat="58.57208" lon="22.68489">
        <ele>11.831806</ele>
        <time>2020-10-07T02:55:54.189Z</time>
      </trkpt>
      <trkpt lat="58.57203" lon="22.68482">
        <ele>11.825302</ele>
        <time>2020-10-07T02:55:56.004Z</time>
      </trkpt>
      <trkpt lat="58.57172" lon="22.68449">
        <ele>11.790708</ele>
        <time>2020-10-07T02:56:04.071Z</time>
      </trkpt>
      <trkpt lat="58.57139" lon="22.68385">
        <ele>11.744055</ele>
        <time>2020-10-07T02:56:14.367Z</time>
      </trkpt>
      <trkpt lat="58.57128" lon="22.68361">
        <ele>11.726968</ele>
        <time>2020-10-07T02:56:17.779Z</time>
      </trkpt>
      <trkpt lat="58.57112" lon="22.68318">
        <ele>11.700218</ele>
        <time>2020-10-07T02:56:23.558Z</time>
      </trkpt>
      <trkpt lat="58.57174" lon="22.68257">
        <ele>11.274406</ele>
        <time>2020-10-07T02:56:37.354Z</time>
      </trkpt>
      <trkpt lat="58.57185" lon="22.68238">
        <ele>11.159952</ele>
        <time>2020-10-07T02:56:40.177Z</time>
      </trkpt>
      <trkpt lat="58.57213" lon="22.6818">
        <ele>10.848032</ele>
        <time>2020-10-07T02:56:48.232Z</time>
      </trkpt>
      <trkpt lat="58.57237" lon="22.6808">
        <ele>10.410327</ele>
        <time>2020-10-07T02:56:59.618Z</time>
      </trkpt>
      <trkpt lat="58.57261" lon="22.6791">
        <ele>10.145446</ele>
        <time>2020-10-07T02:57:18.818Z</time>
      </trkpt>
      <trkpt lat="58.57261" lon="22.67882">
        <ele>10.113506</ele>
        <time>2020-10-07T02:57:22.011Z</time>
      </trkpt>
      <trkpt lat="58.57261" lon="22.67876">
        <ele>10.106845</ele>
        <time>2020-10-07T02:57:22.790Z</time>
      </trkpt>
      <trkpt lat="58.57257" lon="22.67841">
        <ele>10.06486</ele>
        <time>2020-10-07T02:57:27.032Z</time>
      </trkpt>
      <trkpt lat="58.57237" lon="22.67759">
        <ele>9.960774</ele>
        <time>2020-10-07T02:57:37.397Z</time>
      </trkpt>
      <trkpt lat="58.57227" lon="22.67719">
        <ele>9.93669</ele>
        <time>2020-10-07T02:57:42.233Z</time>
      </trkpt>
      <trkpt lat="58.57202" lon="22.67616">
        <ele>10.055556</ele>
        <time>2020-10-07T02:57:55.435Z</time>
      </trkpt>
      <trkpt lat="58.57179" lon="22.67501">
        <ele>10.184349</ele>
        <time>2020-10-07T02:58:10.048Z</time>
      </trkpt>
      <trkpt lat="58.57169" lon="22.67459">
        <ele>10.232095</ele>
        <time>2020-10-07T02:58:15.446Z</time>
      </trkpt>
      <trkpt lat="58.5716" lon="22.67418">
        <ele>10.279283</ele>
        <time>2020-10-07T02:58:21.779Z</time>
      </trkpt>
      <trkpt lat="58.57137" lon="22.67319">
        <ele>11.041709</ele>
        <time>2020-10-07T02:58:36.179Z</time>
      </trkpt>
      <trkpt lat="58.57134" lon="22.67308">
        <ele>11.130278</ele>
        <time>2020-10-07T02:58:38.055Z</time>
      </trkpt>
      <trkpt lat="58.5713" lon="22.67286">
        <ele>11.301924</ele>
        <time>2020-10-07T02:58:40.999Z</time>
      </trkpt>
      <trkpt lat="58.57127" lon="22.67262">
        <ele>11.486329</ele>
        <time>2020-10-07T02:58:44.421Z</time>
      </trkpt>
      <trkpt lat="58.57123" lon="22.67229">
        <ele>11.736045</ele>
        <time>2020-10-07T02:58:49.592Z</time>
      </trkpt>
      <trkpt lat="58.57121" lon="22.67199">
        <ele>11.952848</ele>
        <time>2020-10-07T02:58:53.577Z</time>
      </trkpt>
      <trkpt lat="58.57121" lon="22.67176">
        <ele>12.124676</ele>
        <time>2020-10-07T02:58:57.843Z</time>
      </trkpt>
      <trkpt lat="58.57126" lon="22.67099">
        <ele>12.690855</ele>
        <time>2020-10-07T02:59:10.230Z</time>
      </trkpt>
      <trkpt lat="58.57139" lon="22.67009">
        <ele>13.473005</ele>
        <time>2020-10-07T02:59:25.253Z</time>
      </trkpt>
      <trkpt lat="58.57165" lon="22.66932">
        <ele>14.255449</ele>
        <time>2020-10-07T02:59:39.925Z</time>
      </trkpt>
      <trkpt lat="58.57182" lon="22.66902">
        <ele>14.638097</ele>
        <time>2020-10-07T02:59:47.107Z</time>
      </trkpt>
      <trkpt lat="58.57265" lon="22.66759">
        <ele>15.780593</ele>
        <time>2020-10-07T03:00:16.407Z</time>
      </trkpt>
      <trkpt lat="58.57313" lon="22.66642">
        <ele>15.820399</ele>
        <time>2020-10-07T03:00:33.925Z</time>
      </trkpt>
      <trkpt lat="58.57337" lon="22.66512">
        <ele>15.711631</ele>
        <time>2020-10-07T03:00:48.610Z</time>
      </trkpt>
      <trkpt lat="58.57428" lon="22.65683">
        <ele>10.814843</ele>
        <time>2020-10-07T03:02:12.486Z</time>
      </trkpt>
      <trkpt lat="58.57488" lon="22.64858">
        <ele>6.946616</ele>
        <time>2020-10-07T03:03:37.347Z</time>
      </trkpt>
      <trkpt lat="58.575" lon="22.64684">
        <ele>7.17332</ele>
        <time>2020-10-07T03:03:58.087Z</time>
      </trkpt>
      <trkpt lat="58.57515" lon="22.64574">
        <ele>7.402368</ele>
        <time>2020-10-07T03:04:12.760Z</time>
      </trkpt>
      <trkpt lat="58.57537" lon="22.64494">
        <ele>7.633772</ele>
        <time>2020-10-07T03:04:25.137Z</time>
      </trkpt>
      <trkpt lat="58.57761" lon="22.63668">
        <ele>12.25584</ele>
        <time>2020-10-07T03:06:34.907Z</time>
      </trkpt>
      <trkpt lat="58.57772" lon="22.6363">
        <ele>12.390245</ele>
        <time>2020-10-07T03:06:39.612Z</time>
      </trkpt>
      <trkpt lat="58.579" lon="22.63033">
        <ele>10.269038</ele>
        <time>2020-10-07T03:07:46.387Z</time>
      </trkpt>
      <trkpt lat="58.57981" lon="22.62784">
        <ele>9.508247</ele>
        <time>2020-10-07T03:08:18.054Z</time>
      </trkpt>
      <trkpt lat="58.58092" lon="22.6252">
        <ele>8.947646</ele>
        <time>2020-10-07T03:08:55.120Z</time>
      </trkpt>
      <trkpt lat="58.58171" lon="22.62372">
        <ele>8.855202</ele>
        <time>2020-10-07T03:09:19.397Z</time>
      </trkpt>
      <trkpt lat="58.58218" lon="22.62285">
        <ele>9.057655</ele>
        <time>2020-10-07T03:09:34.508Z</time>
      </trkpt>
      <trkpt lat="58.58411" lon="22.6201">
        <ele>10.266732</ele>
        <time>2020-10-07T03:10:34.101Z</time>
      </trkpt>
      <trkpt lat="58.58578" lon="22.61819">
        <ele>11.266188</ele>
        <time>2020-10-07T03:11:21.326Z</time>
      </trkpt>
      <trkpt lat="58.58644" lon="22.61728">
        <ele>11.806785</ele>
        <time>2020-10-07T03:11:40.590Z</time>
      </trkpt>
      <trkpt lat="58.58755" lon="22.61495">
        <ele>13.525013</ele>
        <time>2020-10-07T03:12:23.031Z</time>
      </trkpt>
      <trkpt lat="58.58811" lon="22.61376">
        <ele>14.941635</ele>
        <time>2020-10-07T03:12:48.133Z</time>
      </trkpt>
      <trkpt lat="58.58936" lon="22.61017">
        <ele>19.768019</ele>
        <time>2020-10-07T03:14:00.516Z</time>
      </trkpt>
      <trkpt lat="58.58963" lon="22.60884">
        <ele>20.306321</ele>
        <time>2020-10-07T03:14:20.151Z</time>
      </trkpt>
      <trkpt lat="58.58988" lon="22.60817">
        <ele>20.615297</ele>
        <time>2020-10-07T03:14:30.417Z</time>
      </trkpt>
      <trkpt lat="58.59072" lon="22.60698">
        <ele>20.856936</ele>
        <time>2020-10-07T03:14:53.276Z</time>
      </trkpt>
      <trkpt lat="58.59088" lon="22.60674">
        <ele>20.796644</ele>
        <time>2020-10-07T03:14:57.276Z</time>
      </trkpt>
      <trkpt lat="58.591" lon="22.60686">
        <ele>20.758394</ele>
        <time>2020-10-07T03:15:00.266Z</time>
      </trkpt>
      <trkpt lat="58.59229" lon="22.60706">
        <ele>20.3064</ele>
        <time>2020-10-07T03:15:27.224Z</time>
      </trkpt>
      <trkpt lat="58.59306" lon="22.60693">
        <ele>19.914337</ele>
        <time>2020-10-07T03:15:43.687Z</time>
      </trkpt>
      <trkpt lat="58.5946" lon="22.60757">
        <ele>18.986228</ele>
        <time>2020-10-07T03:16:15.192Z</time>
      </trkpt>
      <trkpt lat="58.59654" lon="22.60805">
        <ele>17.794858</ele>
        <time>2020-10-07T03:16:54.833Z</time>
      </trkpt>
      <trkpt lat="58.59683" lon="22.60813">
        <ele>17.63041</ele>
        <time>2020-10-07T03:17:00.749Z</time>
      </trkpt>
      <trkpt lat="58.60109" lon="22.6059">
        <ele>15.341246</ele>
        <time>2020-10-07T03:18:31.390Z</time>
      </trkpt>
      <trkpt lat="58.60174" lon="22.60503">
        <ele>14.995525</ele>
        <time>2020-10-07T03:18:47.983Z</time>
      </trkpt>
      <trkpt lat="58.60332" lon="22.60332">
        <ele>14.293434</ele>
        <time>2020-10-07T03:19:25.511Z</time>
      </trkpt>
      <trkpt lat="58.60454" lon="22.60245">
        <ele>14.055893</ele>
        <time>2020-10-07T03:19:53.564Z</time>
      </trkpt>
      <trkpt lat="58.60662" lon="22.60044">
        <ele>13.726841</ele>
        <time>2020-10-07T03:20:46.720Z</time>
      </trkpt>
      <trkpt lat="58.60955" lon="22.59859">
        <ele>11.510917</ele>
        <time>2020-10-07T03:21:46.415Z</time>
      </trkpt>
      <trkpt lat="58.61287" lon="22.59512">
        <ele>10.905122</ele>
        <time>2020-10-07T03:23:09.729Z</time>
      </trkpt>
      <trkpt lat="58.61366" lon="22.59397">
        <ele>10.852154</ele>
        <time>2020-10-07T03:23:31.596Z</time>
      </trkpt>
      <trkpt lat="58.61641" lon="22.59137">
        <ele>10.655195</ele>
        <time>2020-10-07T03:24:37.872Z</time>
      </trkpt>
      <trkpt lat="58.61654" lon="22.59117">
        <ele>10.667348</ele>
        <time>2020-10-07T03:24:41.743Z</time>
      </trkpt>
      <trkpt lat="58.6173" lon="22.58996">
        <ele>11.602799</ele>
        <time>2020-10-07T03:25:06.938Z</time>
      </trkpt>
      <trkpt lat="58.61773" lon="22.58895">
        <ele>12.530372</ele>
        <time>2020-10-07T03:25:26.361Z</time>
      </trkpt>
      <trkpt lat="58.61802" lon="22.58781">
        <ele>13.591997</ele>
        <time>2020-10-07T03:25:46.287Z</time>
      </trkpt>
      <trkpt lat="58.61816" lon="22.58406">
        <ele>17.638453</ele>
        <time>2020-10-07T03:26:47.304Z</time>
      </trkpt>
      <trkpt lat="58.6184" lon="22.58215">
        <ele>19.489497</ele>
        <time>2020-10-07T03:27:17.807Z</time>
      </trkpt>
      <trkpt lat="58.61911" lon="22.57901">
        <ele>21.425507</ele>
        <time>2020-10-07T03:28:06.243Z</time>
      </trkpt>
      <trkpt lat="58.61971" lon="22.57687">
        <ele>21.123986</ele>
        <time>2020-10-07T03:28:34.047Z</time>
      </trkpt>
      <trkpt lat="58.62017" lon="22.57483">
        <ele>20.008315</ele>
        <time>2020-10-07T03:28:55.613Z</time>
      </trkpt>
      <trkpt lat="58.62049" lon="22.57395">
        <ele>18.996785</ele>
        <time>2020-10-07T03:29:05.362Z</time>
      </trkpt>
      <trkpt lat="58.62076" lon="22.5728">
        <ele>17.801928</ele>
        <time>2020-10-07T03:29:16.965Z</time>
      </trkpt>
      <trkpt lat="58.6208" lon="22.57252">
        <ele>17.525947</ele>
        <time>2020-10-07T03:29:19.562Z</time>
      </trkpt>
      <trkpt lat="58.62084" lon="22.57226">
        <ele>17.279677</ele>
        <time>2020-10-07T03:29:22.012Z</time>
      </trkpt>
      <trkpt lat="58.62092" lon="22.5694">
        <ele>15.933493</ele>
        <time>2020-10-07T03:29:50.243Z</time>
      </trkpt>
      <trkpt lat="58.62107" lon="22.56687">
        <ele>16.522632</ele>
        <time>2020-10-07T03:30:23.346Z</time>
      </trkpt>
      <trkpt lat="58.62128" lon="22.56485">
        <ele>17.574163</ele>
        <time>2020-10-07T03:30:53.821Z</time>
      </trkpt>
      <trkpt lat="58.62142" lon="22.56348">
        <ele>18.276246</ele>
        <time>2020-10-07T03:31:13.993Z</time>
      </trkpt>
      <trkpt lat="58.62145" lon="22.56272">
        <ele>18.659846</ele>
        <time>2020-10-07T03:31:24.264Z</time>
      </trkpt>
      <trkpt lat="58.62142" lon="22.56223">
        <ele>18.908343</ele>
        <time>2020-10-07T03:31:30.604Z</time>
      </trkpt>
      <trkpt lat="58.62136" lon="22.5617">
        <ele>19.066359</ele>
        <time>2020-10-07T03:31:37.257Z</time>
      </trkpt>
      <trkpt lat="58.62123" lon="22.56105">
        <ele>18.894049</ele>
        <time>2020-10-07T03:31:45.375Z</time>
      </trkpt>
      <trkpt lat="58.62056" lon="22.55791">
        <ele>18.155135</ele>
        <time>2020-10-07T03:32:20.472Z</time>
      </trkpt>
      <trkpt lat="58.61986" lon="22.55617">
        <ele>17.876169</ele>
        <time>2020-10-07T03:32:44.655Z</time>
      </trkpt>
      <trkpt lat="58.61805" lon="22.55362">
        <ele>18.985314</ele>
        <time>2020-10-07T03:33:41.367Z</time>
      </trkpt>
      <trkpt lat="58.61727" lon="22.55222">
        <ele>19.006863</ele>
        <time>2020-10-07T03:34:06.514Z</time>
      </trkpt>
      <trkpt lat="58.6167" lon="22.55102">
        <ele>18.603219</ele>
        <time>2020-10-07T03:34:23.241Z</time>
      </trkpt>
      <trkpt lat="58.61652" lon="22.55001">
        <ele>17.864719</ele>
        <time>2020-10-07T03:34:33.577Z</time>
      </trkpt>
      <trkpt lat="58.61647" lon="22.54887">
        <ele>17.079483</ele>
        <time>2020-10-07T03:34:44.288Z</time>
      </trkpt>
      <trkpt lat="58.61616" lon="22.54741">
        <ele>16.316151</ele>
        <time>2020-10-07T03:34:59.563Z</time>
      </trkpt>
      <trkpt lat="58.61584" lon="22.54552">
        <ele>15.625418</ele>
        <time>2020-10-07T03:35:21.095Z</time>
      </trkpt>
      <trkpt lat="58.61574" lon="22.54496">
        <ele>15.453605</ele>
        <time>2020-10-07T03:35:27.733Z</time>
      </trkpt>
      <trkpt lat="58.61568" lon="22.54458">
        <ele>15.494462</ele>
        <time>2020-10-07T03:35:32.395Z</time>
      </trkpt>
      <trkpt lat="58.61562" lon="22.54416">
        <ele>15.540026</ele>
        <time>2020-10-07T03:35:37.482Z</time>
      </trkpt>
      <trkpt lat="58.61542" lon="22.54286">
        <ele>15.680275</ele>
        <time>2020-10-07T03:35:53.942Z</time>
      </trkpt>
      <trkpt lat="58.61541" lon="22.54283">
        <ele>15.683765</ele>
        <time>2020-10-07T03:35:54.356Z</time>
      </trkpt>
      <trkpt lat="58.6152" lon="22.54201">
        <ele>15.778401</ele>
        <time>2020-10-07T03:36:05.814Z</time>
      </trkpt>
      <trkpt lat="58.615" lon="22.5414">
        <ele>15.982297</ele>
        <time>2020-10-07T03:36:14.486Z</time>
      </trkpt>
      <trkpt lat="58.61433" lon="22.53971">
        <ele>16.781802</ele>
        <time>2020-10-07T03:36:42.565Z</time>
      </trkpt>
      <trkpt lat="58.61407" lon="22.53923">
        <ele>17.038547</ele>
        <time>2020-10-07T03:36:52.801Z</time>
      </trkpt>
      <trkpt lat="58.61371" lon="22.53891">
        <ele>17.241998</ele>
        <time>2020-10-07T03:37:04.297Z</time>
      </trkpt>
      <trkpt lat="58.61357" lon="22.53879">
        <ele>17.310705</ele>
        <time>2020-10-07T03:37:08.664Z</time>
      </trkpt>
      <trkpt lat="58.61256" lon="22.53761">
        <ele>17.843877</ele>
        <time>2020-10-07T03:37:40.129Z</time>
      </trkpt>
      <trkpt lat="58.61205" lon="22.53681">
        <ele>17.566607</ele>
        <time>2020-10-07T03:37:55.458Z</time>
      </trkpt>
      <trkpt lat="58.61016" lon="22.5342">
        <ele>15.839677</ele>
        <time>2020-10-07T03:38:46.524Z</time>
      </trkpt>
      <trkpt lat="58.60815" lon="22.53028">
        <ele>14.338443</ele>
        <time>2020-10-07T03:39:51.595Z</time>
      </trkpt>
      <trkpt lat="58.60744" lon="22.52913">
        <ele>14.718529</ele>
        <time>2020-10-07T03:40:16.802Z</time>
      </trkpt>
      <trkpt lat="58.60608" lon="22.52732">
        <ele>15.434226</ele>
        <time>2020-10-07T03:41:03.012Z</time>
      </trkpt>
      <trkpt lat="58.60515" lon="22.52617">
        <ele>15.596567</ele>
        <time>2020-10-07T03:41:30.609Z</time>
      </trkpt>
      <trkpt lat="58.6038" lon="22.52468">
        <ele>15.023108</ele>
        <time>2020-10-07T03:42:06.238Z</time>
      </trkpt>
      <trkpt lat="58.60294" lon="22.52383">
        <ele>14.872042</ele>
        <time>2020-10-07T03:42:29.224Z</time>
      </trkpt>
      <trkpt lat="58.6018" lon="22.52287">
        <ele>14.916786</ele>
        <time>2020-10-07T03:43:00.481Z</time>
      </trkpt>
      <trkpt lat="58.60092" lon="22.52178">
        <ele>15.194367</ele>
        <time>2020-10-07T03:43:28.094Z</time>
      </trkpt>
      <trkpt lat="58.60067" lon="22.52116">
        <ele>15.337026</ele>
        <time>2020-10-07T03:43:38.703Z</time>
      </trkpt>
      <trkpt lat="58.60049" lon="22.5202">
        <ele>15.563453</ele>
        <time>2020-10-07T03:43:52.735Z</time>
      </trkpt>
      <trkpt lat="58.60035" lon="22.51842">
        <ele>15.960554</ele>
        <time>2020-10-07T03:44:17.387Z</time>
      </trkpt>
      <trkpt lat="58.60004" lon="22.51701">
        <ele>16.566697</ele>
        <time>2020-10-07T03:44:38.944Z</time>
      </trkpt>
      <trkpt lat="58.5994" lon="22.51537">
        <ele>17.438839</ele>
        <time>2020-10-07T03:45:09.751Z</time>
      </trkpt>
      <trkpt lat="58.59866" lon="22.51376">
        <ele>18.479513</ele>
        <time>2020-10-07T03:45:42.089Z</time>
      </trkpt>
      <trkpt lat="58.59775" lon="22.51297">
        <ele>19.253819</ele>
        <time>2020-10-07T03:46:10.033Z</time>
      </trkpt>
      <trkpt lat="58.59726" lon="22.5129">
        <ele>19.434435</ele>
        <time>2020-10-07T03:46:23.213Z</time>
      </trkpt>
      <trkpt lat="58.59693" lon="22.51299">
        <ele>19.556168</ele>
        <time>2020-10-07T03:46:31.824Z</time>
      </trkpt>
      <trkpt lat="58.59618" lon="22.5135">
        <ele>19.794733</ele>
        <time>2020-10-07T03:46:51.845Z</time>
      </trkpt>
      <trkpt lat="58.59549" lon="22.51493">
        <ele>19.630068</ele>
        <time>2020-10-07T03:47:16.252Z</time>
      </trkpt>
      <trkpt lat="58.59531" lon="22.51527">
        <ele>19.589481</ele>
        <time>2020-10-07T03:47:22.192Z</time>
      </trkpt>
      <trkpt lat="58.59509" lon="22.51578">
        <ele>19.53335</ele>
        <time>2020-10-07T03:47:30.415Z</time>
      </trkpt>
      <trkpt lat="58.5938" lon="22.51804">
        <ele>20.177619</ele>
        <time>2020-10-07T03:48:15.353Z</time>
      </trkpt>
      <trkpt lat="58.59313" lon="22.52011">
        <ele>22.265101</ele>
        <time>2020-10-07T03:48:54.574Z</time>
      </trkpt>
      <trkpt lat="58.59249" lon="22.52178">
        <ele>24.381436</ele>
        <time>2020-10-07T03:49:31.961Z</time>
      </trkpt>
      <trkpt lat="58.59153" lon="22.52356">
        <ele>27.331152</ele>
        <time>2020-10-07T03:50:17.162Z</time>
      </trkpt>
      <trkpt lat="58.59094" lon="22.52443">
        <ele>28.187593</ele>
        <time>2020-10-07T03:50:40.405Z</time>
      </trkpt>
      <trkpt lat="58.59057" lon="22.52484">
        <ele>28.643989</ele>
        <time>2020-10-07T03:50:52.803Z</time>
      </trkpt>
      <trkpt lat="58.58868" lon="22.52601">
        <ele>29.799099</ele>
        <time>2020-10-07T03:51:44.991Z</time>
      </trkpt>
      <trkpt lat="58.58757" lon="22.52745">
        <ele>29.871112</ele>
        <time>2020-10-07T03:52:18.878Z</time>
      </trkpt>
      <trkpt lat="58.58664" lon="22.52831">
        <ele>29.704855</ele>
        <time>2020-10-07T03:52:43.578Z</time>
      </trkpt>
      <trkpt lat="58.58634" lon="22.5289">
        <ele>29.368234</ele>
        <time>2020-10-07T03:52:53.433Z</time>
      </trkpt>
      <trkpt lat="58.58562" lon="22.53067">
        <ele>28.438471</ele>
        <time>2020-10-07T03:53:19.183Z</time>
      </trkpt>
      <trkpt lat="58.58524" lon="22.53126">
        <ele>27.892277</ele>
        <time>2020-10-07T03:53:29.818Z</time>
      </trkpt>
      <trkpt lat="58.5851" lon="22.53137">
        <ele>27.709358</ele>
        <time>2020-10-07T03:53:32.957Z</time>
      </trkpt>
      <trkpt lat="58.58344" lon="22.53274">
        <ele>25.40234</ele>
        <time>2020-10-07T03:54:10.973Z</time>
      </trkpt>
      <trkpt lat="58.58315" lon="22.533">
        <ele>24.942185</ele>
        <time>2020-10-07T03:54:17.735Z</time>
      </trkpt>
      <trkpt lat="58.58222" lon="22.53412">
        <ele>23.403114</ele>
        <time>2020-10-07T03:54:40.430Z</time>
      </trkpt>
      <trkpt lat="58.5822" lon="22.53413">
        <ele>23.379845</ele>
        <time>2020-10-07T03:54:40.742Z</time>
      </trkpt>
      <trkpt lat="58.57978" lon="22.53575">
        <ele>20.895659</ele>
        <time>2020-10-07T03:55:30.069Z</time>
      </trkpt>
      <trkpt lat="58.57812" lon="22.53685">
        <ele>20.109211</ele>
        <time>2020-10-07T03:56:08.176Z</time>
      </trkpt>
      <trkpt lat="58.5776" lon="22.53719">
        <ele>19.960605</ele>
        <time>2020-10-07T03:56:19.762Z</time>
      </trkpt>
      <trkpt lat="58.57754" lon="22.537">
        <ele>19.928275</ele>
        <time>2020-10-07T03:56:22.274Z</time>
      </trkpt>
      <trkpt lat="58.5773" lon="22.53627">
        <ele>19.746226</ele>
        <time>2020-10-07T03:56:31.515Z</time>
      </trkpt>
      <trkpt lat="58.57652" lon="22.53442">
        <ele>19.065029</ele>
        <time>2020-10-07T03:56:56.742Z</time>
      </trkpt>
      <trkpt lat="58.57439" lon="22.52937">
        <ele>17.556005</ele>
        <time>2020-10-07T03:58:07.348Z</time>
      </trkpt>
      <trkpt lat="58.57431" lon="22.52917">
        <ele>17.495182</ele>
        <time>2020-10-07T03:58:10.060Z</time>
      </trkpt>
      <trkpt lat="58.57411" lon="22.52841">
        <ele>17.2972</ele>
        <time>2020-10-07T03:58:19.183Z</time>
      </trkpt>
      <trkpt lat="58.57385" lon="22.52739">
        <ele>17.020076</ele>
        <time>2020-10-07T03:58:31.373Z</time>
      </trkpt>
      <trkpt lat="58.57369" lon="22.52625">
        <ele>16.734855</ele>
        <time>2020-10-07T03:58:43.912Z</time>
      </trkpt>
      <trkpt lat="58.57355" lon="22.52524">
        <ele>16.482002</ele>
        <time>2020-10-07T03:58:55.308Z</time>
      </trkpt>
      <trkpt lat="58.57343" lon="22.52321">
        <ele>15.955097</ele>
        <time>2020-10-07T03:59:17.580Z</time>
      </trkpt>
      <trkpt lat="58.57341" lon="22.51836">
        <ele>14.637562</ele>
        <time>2020-10-07T04:00:09.310Z</time>
      </trkpt>
      <trkpt lat="58.57323" lon="22.51595">
        <ele>14.303954</ele>
        <time>2020-10-07T04:00:35.915Z</time>
      </trkpt>
      <trkpt lat="58.57304" lon="22.51346">
        <ele>14.532368</ele>
        <time>2020-10-07T04:01:05.693Z</time>
      </trkpt>
      <trkpt lat="58.57284" lon="22.51193">
        <ele>14.934569</ele>
        <time>2020-10-07T04:01:26.354Z</time>
      </trkpt>
      <trkpt lat="58.57255" lon="22.51063">
        <ele>15.591593</ele>
        <time>2020-10-07T04:01:45.492Z</time>
      </trkpt>
      <trkpt lat="58.57244" lon="22.51015">
        <ele>15.882462</ele>
        <time>2020-10-07T04:01:52.758Z</time>
      </trkpt>
      <trkpt lat="58.57162" lon="22.5068">
        <ele>17.94674</ele>
        <time>2020-10-07T04:02:44.825Z</time>
      </trkpt>
      <trkpt lat="58.57136" lon="22.50517">
        <ele>18.902467</ele>
        <time>2020-10-07T04:03:08.484Z</time>
      </trkpt>
      <trkpt lat="58.57099" lon="22.50172">
        <ele>20.050219</ele>
        <time>2020-10-07T04:03:54.713Z</time>
      </trkpt>
      <trkpt lat="58.57081" lon="22.49744">
        <ele>19.238256</ele>
        <time>2020-10-07T04:04:42.322Z</time>
      </trkpt>
      <trkpt lat="58.57015" lon="22.4928">
        <ele>16.899682</ele>
        <time>2020-10-07T04:05:29.610Z</time>
      </trkpt>
      <trkpt lat="58.56995" lon="22.49179">
        <ele>16.386703</ele>
        <time>2020-10-07T04:05:41.216Z</time>
      </trkpt>
      <trkpt lat="58.56956" lon="22.49028">
        <ele>16.703911</ele>
        <time>2020-10-07T04:06:00.994Z</time>
      </trkpt>
      <trkpt lat="58.5692" lon="22.48794">
        <ele>17.298865</ele>
        <time>2020-10-07T04:06:33.849Z</time>
      </trkpt>
      <trkpt lat="58.56866" lon="22.48546">
        <ele>18.184806</ele>
        <time>2020-10-07T04:07:08.262Z</time>
      </trkpt>
      <trkpt lat="58.56844" lon="22.48442">
        <ele>18.611925</ele>
        <time>2020-10-07T04:07:22.484Z</time>
      </trkpt>
      <trkpt lat="58.56824" lon="22.4833">
        <ele>19.070602</ele>
        <time>2020-10-07T04:07:37.943Z</time>
      </trkpt>
      <trkpt lat="58.56798" lon="22.48063">
        <ele>20.232495</ele>
        <time>2020-10-07T04:08:15.207Z</time>
      </trkpt>
      <trkpt lat="58.56765" lon="22.47891">
        <ele>21.077453</ele>
        <time>2020-10-07T04:08:40.577Z</time>
      </trkpt>
      <trkpt lat="58.56718" lon="22.47722">
        <ele>21.067429</ele>
        <time>2020-10-07T04:09:03.706Z</time>
      </trkpt>
      <trkpt lat="58.56704" lon="22.47611">
        <ele>20.997702</ele>
        <time>2020-10-07T04:09:16.048Z</time>
      </trkpt>
      <trkpt lat="58.56706" lon="22.47471">
        <ele>20.63851</ele>
        <time>2020-10-07T04:09:30.586Z</time>
      </trkpt>
      <trkpt lat="58.56713" lon="22.47404">
        <ele>20.367196</ele>
        <time>2020-10-07T04:09:37.572Z</time>
      </trkpt>
      <trkpt lat="58.56748" lon="22.47255">
        <ele>19.711947</ele>
        <time>2020-10-07T04:09:54.474Z</time>
      </trkpt>
      <trkpt lat="58.56801" lon="22.47078">
        <ele>18.994554</ele>
        <time>2020-10-07T04:10:15.697Z</time>
      </trkpt>
      <trkpt lat="58.56942" lon="22.46715">
        <ele>17.79219</ele>
        <time>2020-10-07T04:11:04.122Z</time>
      </trkpt>
      <trkpt lat="58.57029" lon="22.46571">
        <ele>17.769927</ele>
        <time>2020-10-07T04:11:29.540Z</time>
      </trkpt>
      <trkpt lat="58.57087" lon="22.46451">
        <ele>17.897775</ele>
        <time>2020-10-07T04:11:49.275Z</time>
      </trkpt>
      <trkpt lat="58.57108" lon="22.46407">
        <ele>18.065852</ele>
        <time>2020-10-07T04:11:56.701Z</time>
      </trkpt>
      <trkpt lat="58.57131" lon="22.46343">
        <ele>18.407413</ele>
        <time>2020-10-07T04:12:06.947Z</time>
      </trkpt>
      <trkpt lat="58.57155" lon="22.4625">
        <ele>18.858347</ele>
        <time>2020-10-07T04:12:20.839Z</time>
      </trkpt>
      <trkpt lat="58.57183" lon="22.46181">
        <ele>19.246848</ele>
        <time>2020-10-07T04:12:33.290Z</time>
      </trkpt>
      <trkpt lat="58.57201" lon="22.4616">
        <ele>19.416271</ele>
        <time>2020-10-07T04:12:38.601Z</time>
      </trkpt>
      <trkpt lat="58.57223" lon="22.4615">
        <ele>19.615045</ele>
        <time>2020-10-07T04:12:44.835Z</time>
      </trkpt>
      <trkpt lat="58.57314" lon="22.46175">
        <ele>20.425747</ele>
        <time>2020-10-07T04:13:09.295Z</time>
      </trkpt>
      <trkpt lat="58.57353" lon="22.46168">
        <ele>20.768959</ele>
        <time>2020-10-07T04:13:19.674Z</time>
      </trkpt>
      <trkpt lat="58.57454" lon="22.45935">
        <ele>20.734911</ele>
        <time>2020-10-07T04:13:55.604Z</time>
      </trkpt>
      <trkpt lat="58.57545" lon="22.4583">
        <ele>19.793732</ele>
        <time>2020-10-07T04:14:16.051Z</time>
      </trkpt>
      <trkpt lat="58.57573" lon="22.45771">
        <ele>19.186863</ele>
        <time>2020-10-07T04:14:23.757Z</time>
      </trkpt>
      <trkpt lat="58.57608" lon="22.45668">
        <ele>18.255632</ele>
        <time>2020-10-07T04:14:35.234Z</time>
      </trkpt>
      <trkpt lat="58.57645" lon="22.45512">
        <ele>16.73806</ele>
        <time>2020-10-07T04:14:51.229Z</time>
      </trkpt>
      <trkpt lat="58.57666" lon="22.45415">
        <ele>15.781261</ele>
        <time>2020-10-07T04:15:01.022Z</time>
      </trkpt>
      <trkpt lat="58.57673" lon="22.45323">
        <ele>14.92812</ele>
        <time>2020-10-07T04:15:09.838Z</time>
      </trkpt>
      <trkpt lat="58.57666" lon="22.4508">
        <ele>13.000988</ele>
        <time>2020-10-07T04:15:32.999Z</time>
      </trkpt>
      <trkpt lat="58.5768" lon="22.44796">
        <ele>11.347877</ele>
        <time>2020-10-07T04:16:00.837Z</time>
      </trkpt>
      <trkpt lat="58.5768" lon="22.4476">
        <ele>11.18461</ele>
        <time>2020-10-07T04:16:04.486Z</time>
      </trkpt>
      <trkpt lat="58.57671" lon="22.44583">
        <ele>10.688104</ele>
        <time>2020-10-07T04:16:23.858Z</time>
      </trkpt>
      <trkpt lat="58.57638" lon="22.44353">
        <ele>11.246427</ele>
        <time>2020-10-07T04:16:54.003Z</time>
      </trkpt>
      <trkpt lat="58.57565" lon="22.43767">
        <ele>14.028813</ele>
        <time>2020-10-07T04:18:17.675Z</time>
      </trkpt>
      <trkpt lat="58.57551" lon="22.43462">
        <ele>15.266116</ele>
        <time>2020-10-07T04:18:55.905Z</time>
      </trkpt>
      <trkpt lat="58.57529" lon="22.43346">
        <ele>15.756455</ele>
        <time>2020-10-07T04:19:12.067Z</time>
      </trkpt>
      <trkpt lat="58.5743" lon="22.43053">
        <ele>17.89016</ele>
        <time>2020-10-07T04:20:02.850Z</time>
      </trkpt>
      <trkpt lat="58.57316" lon="22.4249">
        <ele>21.06306</ele>
        <time>2020-10-07T04:21:26.033Z</time>
      </trkpt>
      <trkpt lat="58.5731" lon="22.42357">
        <ele>21.6806</ele>
        <time>2020-10-07T04:21:43.403Z</time>
      </trkpt>
      <trkpt lat="58.57294" lon="22.42305">
        <ele>21.926147</ele>
        <time>2020-10-07T04:21:51.194Z</time>
      </trkpt>
      <trkpt lat="58.5728" lon="22.42263">
        <ele>22.128618</ele>
        <time>2020-10-07T04:21:57.923Z</time>
      </trkpt>
      <trkpt lat="58.57264" lon="22.42222">
        <ele>22.32697</ele>
        <time>2020-10-07T04:22:04.480Z</time>
      </trkpt>
      <trkpt lat="58.5724" lon="22.42179">
        <ele>22.579979</ele>
        <time>2020-10-07T04:22:12.814Z</time>
      </trkpt>
      <trkpt lat="58.57222" lon="22.42165">
        <ele>22.729186</ele>
        <time>2020-10-07T04:22:17.699Z</time>
      </trkpt>
      <trkpt lat="58.57203" lon="22.42162">
        <ele>22.87129</ele>
        <time>2020-10-07T04:22:22.614Z</time>
      </trkpt>
      <trkpt lat="58.5712" lon="22.42168">
        <ele>23.530062</ele>
        <time>2020-10-07T04:22:44.091Z</time>
      </trkpt>
      <trkpt lat="58.57025" lon="22.42205">
        <ele>24.318465</ele>
        <time>2020-10-07T04:23:09.284Z</time>
      </trkpt>
      <trkpt lat="58.56991" lon="22.42195">
        <ele>24.575688</ele>
        <time>2020-10-07T04:23:17.821Z</time>
      </trkpt>
      <trkpt lat="58.56961" lon="22.42143">
        <ele>24.659875</ele>
        <time>2020-10-07T04:23:27.799Z</time>
      </trkpt>
      <trkpt lat="58.56902" lon="22.41571">
        <ele>24.761925</ele>
        <time>2020-10-07T04:24:36.151Z</time>
      </trkpt>
      <trkpt lat="58.5689" lon="22.41324">
        <ele>23.860165</ele>
        <time>2020-10-07T04:25:01.562Z</time>
      </trkpt>
      <trkpt lat="58.56896" lon="22.41212">
        <ele>23.41335</ele>
        <time>2020-10-07T04:25:12.913Z</time>
      </trkpt>
      <trkpt lat="58.5688" lon="22.41144">
        <ele>23.423107</ele>
        <time>2020-10-07T04:25:20.760Z</time>
      </trkpt>
      <trkpt lat="58.56862" lon="22.41103">
        <ele>23.45324</ele>
        <time>2020-10-07T04:25:27.116Z</time>
      </trkpt>
      <trkpt lat="58.56857" lon="22.41094">
        <ele>23.460191</ele>
        <time>2020-10-07T04:25:28.240Z</time>
      </trkpt>
      <trkpt lat="58.56783" lon="22.41003">
        <ele>23.555071</ele>
        <time>2020-10-07T04:25:49.301Z</time>
      </trkpt>
      <trkpt lat="58.56744" lon="22.40933">
        <ele>23.967191</ele>
        <time>2020-10-07T04:26:02.848Z</time>
      </trkpt>
      <trkpt lat="58.56714" lon="22.40907">
        <ele>24.377695</ele>
        <time>2020-10-07T04:26:12.165Z</time>
      </trkpt>
      <trkpt lat="58.56666" lon="22.40903">
        <ele>24.985215</ele>
        <time>2020-10-07T04:26:26.172Z</time>
      </trkpt>
      <trkpt lat="58.5654" lon="22.40952">
        <ele>26.299825</ele>
        <time>2020-10-07T04:27:01.065Z</time>
      </trkpt>
      <trkpt lat="58.56468" lon="22.40938">
        <ele>26.870286</ele>
        <time>2020-10-07T04:27:19.212Z</time>
      </trkpt>
      <trkpt lat="58.56412" lon="22.40888">
        <ele>27.234008</ele>
        <time>2020-10-07T04:27:34.289Z</time>
      </trkpt>
      <trkpt lat="58.56311" lon="22.40729">
        <ele>27.184883</ele>
        <time>2020-10-07T04:28:03.592Z</time>
      </trkpt>
      <trkpt lat="58.56256" lon="22.40598">
        <ele>26.535024</ele>
        <time>2020-10-07T04:28:21.609Z</time>
      </trkpt>
      <trkpt lat="58.56213" lon="22.40397">
        <ele>25.19679</ele>
        <time>2020-10-07T04:28:42.659Z</time>
      </trkpt>
      <trkpt lat="58.56199" lon="22.40335">
        <ele>24.583643</ele>
        <time>2020-10-07T04:28:48.956Z</time>
      </trkpt>
      <trkpt lat="58.56189" lon="22.40271">
        <ele>23.883383</ele>
        <time>2020-10-07T04:28:55.007Z</time>
      </trkpt>
      <trkpt lat="58.56192" lon="22.40191">
        <ele>23.033065</ele>
        <time>2020-10-07T04:29:02.307Z</time>
      </trkpt>
      <trkpt lat="58.5621" lon="22.40082">
        <ele>21.828212</ele>
        <time>2020-10-07T04:29:12.519Z</time>
      </trkpt>
      <trkpt lat="58.56284" lon="22.3988">
        <ele>20.020407</ele>
        <time>2020-10-07T04:29:36.155Z</time>
      </trkpt>
      <trkpt lat="58.56299" lon="22.39802">
        <ele>19.467166</ele>
        <time>2020-10-07T04:29:44.731Z</time>
      </trkpt>
      <trkpt lat="58.56322" lon="22.3962">
        <ele>18.461902</ele>
        <time>2020-10-07T04:30:04.385Z</time>
      </trkpt>
      <trkpt lat="58.56333" lon="22.39534">
        <ele>18.036666</ele>
        <time>2020-10-07T04:30:13.546Z</time>
      </trkpt>
      <trkpt lat="58.56383" lon="22.39258">
        <ele>16.250353</ele>
        <time>2020-10-07T04:30:42.197Z</time>
      </trkpt>
      <trkpt lat="58.56407" lon="22.39059">
        <ele>14.934732</ele>
        <time>2020-10-07T04:31:16.955Z</time>
      </trkpt>
      <trkpt lat="58.56413" lon="22.38944">
        <ele>14.662253</ele>
        <time>2020-10-07T04:31:37.284Z</time>
      </trkpt>
      <trkpt lat="58.56333" lon="22.37622">
        <ele>12.195483</ele>
        <time>2020-10-07T04:35:46.991Z</time>
      </trkpt>
      <trkpt lat="58.5631" lon="22.37386">
        <ele>12.68304</ele>
        <time>2020-10-07T04:36:36.626Z</time>
      </trkpt>
      <trkpt lat="58.56296" lon="22.37295">
        <ele>13.26206</ele>
        <time>2020-10-07T04:36:57.226Z</time>
      </trkpt>
      <trkpt lat="58.5621" lon="22.37003">
        <ele>15.596049</ele>
        <time>2020-10-07T04:38:11.726Z</time>
      </trkpt>
      <trkpt lat="58.56156" lon="22.36653">
        <ele>18.593167</ele>
        <time>2020-10-07T04:39:34.936Z</time>
      </trkpt>
      <trkpt lat="58.56151" lon="22.36618">
        <ele>18.89575</ele>
        <time>2020-10-07T04:39:43.598Z</time>
      </trkpt>
      <trkpt lat="58.56152" lon="22.36559">
        <ele>19.384191</ele>
        <time>2020-10-07T04:39:56.966Z</time>
      </trkpt>
      <trkpt lat="58.56157" lon="22.36466">
        <ele>20.157606</ele>
        <time>2020-10-07T04:40:18.190Z</time>
      </trkpt>
      <trkpt lat="58.56155" lon="22.36418">
        <ele>20.558493</ele>
        <time>2020-10-07T04:40:29.248Z</time>
      </trkpt>
      <trkpt lat="58.56143" lon="22.36324">
        <ele>20.998761</ele>
        <time>2020-10-07T04:40:50.913Z</time>
      </trkpt>
      <trkpt lat="58.56153" lon="22.36104">
        <ele>21.885804</ele>
        <time>2020-10-07T04:41:36.482Z</time>
      </trkpt>
      <trkpt lat="58.56151" lon="22.35847">
        <ele>21.992978</ele>
        <time>2020-10-07T04:42:26.816Z</time>
      </trkpt>
      <trkpt lat="58.56123" lon="22.35628">
        <ele>21.744715</ele>
        <time>2020-10-07T04:43:09.439Z</time>
      </trkpt>
      <trkpt lat="58.56016" lon="22.3518">
        <ele>20.570591</ele>
        <time>2020-10-07T04:44:40.410Z</time>
      </trkpt>
      <trkpt lat="58.56006" lon="22.35084">
        <ele>20.31854</ele>
        <time>2020-10-07T04:44:58.537Z</time>
      </trkpt>
      <trkpt lat="58.56005" lon="22.34924">
        <ele>19.852381</ele>
        <time>2020-10-07T04:45:28.020Z</time>
      </trkpt>
      <trkpt lat="58.55997" lon="22.34796">
        <ele>19.477848</ele>
        <time>2020-10-07T04:45:51.705Z</time>
      </trkpt>
      <trkpt lat="58.56017" lon="22.34648">
        <ele>18.972058</ele>
        <time>2020-10-07T04:46:19.607Z</time>
      </trkpt>
      <trkpt lat="58.56021" lon="22.34583">
        <ele>18.742056</ele>
        <time>2020-10-07T04:46:31.385Z</time>
      </trkpt>
      <trkpt lat="58.56038" lon="22.34474">
        <ele>18.338097</ele>
        <time>2020-10-07T04:46:51.971Z</time>
      </trkpt>
      <trkpt lat="58.56034" lon="22.34217">
        <ele>17.517284</ele>
        <time>2020-10-07T04:47:38.389Z</time>
      </trkpt>
      <trkpt lat="58.56023" lon="22.34101">
        <ele>17.156803</ele>
        <time>2020-10-07T04:47:59.996Z</time>
      </trkpt>
      <trkpt lat="58.55979" lon="22.33884">
        <ele>17.160167</ele>
        <time>2020-10-07T04:48:44.752Z</time>
      </trkpt>
      <trkpt lat="58.55931" lon="22.33687">
        <ele>17.401373</ele>
        <time>2020-10-07T04:49:28.828Z</time>
      </trkpt>
      <trkpt lat="58.55924" lon="22.33611">
        <ele>17.573843</ele>
        <time>2020-10-07T04:49:44.829Z</time>
      </trkpt>
      <trkpt lat="58.55926" lon="22.33505">
        <ele>17.810554</ele>
        <time>2020-10-07T04:50:06.654Z</time>
      </trkpt>
      <trkpt lat="58.55916" lon="22.33325">
        <ele>18.014751</ele>
        <time>2020-10-07T04:50:43.018Z</time>
      </trkpt>
      <trkpt lat="58.55936" lon="22.33022">
        <ele>17.815817</ele>
        <time>2020-10-07T04:51:41.424Z</time>
      </trkpt>
      <trkpt lat="58.5597" lon="22.32862">
        <ele>17.15065</ele>
        <time>2020-10-07T04:52:13.460Z</time>
      </trkpt>
      <trkpt lat="58.55975" lon="22.3245">
        <ele>14.409801</ele>
        <time>2020-10-07T04:53:24.072Z</time>
      </trkpt>
      <trkpt lat="58.55979" lon="22.32395">
        <ele>13.97043</ele>
        <time>2020-10-07T04:53:29.206Z</time>
      </trkpt>
      <trkpt lat="58.55983" lon="22.32358">
        <ele>13.65391</ele>
        <time>2020-10-07T04:53:32.732Z</time>
      </trkpt>
      <trkpt lat="58.5599" lon="22.32288">
        <ele>13.066006</ele>
        <time>2020-10-07T04:53:39.390Z</time>
      </trkpt>
      <trkpt lat="58.55993" lon="22.32249">
        <ele>12.743316</ele>
        <time>2020-10-07T04:53:43.146Z</time>
      </trkpt>
      <trkpt lat="58.55998" lon="22.32075">
        <ele>11.305781</ele>
        <time>2020-10-07T04:53:59.479Z</time>
      </trkpt>
      <trkpt lat="58.56005" lon="22.31958">
        <ele>10.842647</ele>
        <time>2020-10-07T04:54:11.776Z</time>
      </trkpt>
      <trkpt lat="58.56008" lon="22.31924">
        <ele>10.745711</ele>
        <time>2020-10-07T04:54:15.457Z</time>
      </trkpt>
      <trkpt lat="58.56013" lon="22.31868">
        <ele>10.58826</ele>
        <time>2020-10-07T04:54:21.558Z</time>
      </trkpt>
      <trkpt lat="58.56036" lon="22.3159">
        <ele>10.270372</ele>
        <time>2020-10-07T04:54:53.266Z</time>
      </trkpt>
      <trkpt lat="58.56073" lon="22.31413">
        <ele>10.478971</ele>
        <time>2020-10-07T04:55:16.488Z</time>
      </trkpt>
      <trkpt lat="58.56084" lon="22.3137">
        <ele>10.618298</ele>
        <time>2020-10-07T04:55:22.673Z</time>
      </trkpt>
      <trkpt lat="58.56057" lon="22.31378">
        <ele>10.993758</ele>
        <time>2020-10-07T04:55:29.578Z</time>
      </trkpt>
      <trkpt lat="58.56002" lon="22.31399">
        <ele>11.777914</ele>
        <time>2020-10-07T04:55:44.843Z</time>
      </trkpt>
      <trkpt lat="58.55983" lon="22.31406">
        <ele>12.043585</ele>
        <time>2020-10-07T04:55:50.226Z</time>
      </trkpt>
      <trkpt lat="58.5576" lon="22.31493">
        <ele>15.936141</ele>
        <time>2020-10-07T04:56:59.344Z</time>
      </trkpt>
      <trkpt lat="58.55754" lon="22.31496">
        <ele>16.051201</ele>
        <time>2020-10-07T04:57:01.182Z</time>
      </trkpt>
      <trkpt lat="58.55698" lon="22.31517">
        <ele>16.576392</ele>
        <time>2020-10-07T04:57:16.821Z</time>
      </trkpt>
      <trkpt lat="58.55621" lon="22.31558">
        <ele>17.024276</ele>
        <time>2020-10-07T04:57:36.408Z</time>
      </trkpt>
      <trkpt lat="58.55529" lon="22.31652">
        <ele>17.238427</ele>
        <time>2020-10-07T04:57:58.847Z</time>
      </trkpt>
      <trkpt lat="58.55461" lon="22.31752">
        <ele>17.015467</ele>
        <time>2020-10-07T04:58:16.786Z</time>
      </trkpt>
      <trkpt lat="58.55428" lon="22.31816">
        <ele>16.892881</ele>
        <time>2020-10-07T04:58:26.736Z</time>
      </trkpt>
      <trkpt lat="58.55364" lon="22.31975">
        <ele>17.112733</ele>
        <time>2020-10-07T04:58:49.841Z</time>
      </trkpt>
      <trkpt lat="58.55327" lon="22.32122">
        <ele>17.365724</ele>
        <time>2020-10-07T04:59:10.580Z</time>
      </trkpt>
      <trkpt lat="58.55286" lon="22.32318">
        <ele>18.555381</ele>
        <time>2020-10-07T04:59:39.948Z</time>
      </trkpt>
      <trkpt lat="58.55227" lon="22.3255">
        <ele>19.903017</ele>
        <time>2020-10-07T05:00:17.201Z</time>
      </trkpt>
      <trkpt lat="58.55137" lon="22.32752">
        <ele>20.900073</ele>
        <time>2020-10-07T05:00:52.053Z</time>
      </trkpt>
      <trkpt lat="58.54922" lon="22.33178">
        <ele>20.616671</ele>
        <time>2020-10-07T05:01:59.099Z</time>
      </trkpt>
      <trkpt lat="58.54793" lon="22.33418">
        <ele>19.829211</ele>
        <time>2020-10-07T05:02:36.518Z</time>
      </trkpt>
      <trkpt lat="58.54697" lon="22.33553">
        <ele>18.836375</ele>
        <time>2020-10-07T05:03:00.369Z</time>
      </trkpt>
      <trkpt lat="58.54587" lon="22.3366">
        <ele>17.533526</ele>
        <time>2020-10-07T05:03:23.819Z</time>
      </trkpt>
      <trkpt lat="58.54477" lon="22.33729">
        <ele>16.012742</ele>
        <time>2020-10-07T05:03:45.084Z</time>
      </trkpt>
      <trkpt lat="58.54375" lon="22.33765">
        <ele>15.133786</ele>
        <time>2020-10-07T05:04:05.006Z</time>
      </trkpt>
      <trkpt lat="58.54278" lon="22.33774">
        <ele>14.435409</ele>
        <time>2020-10-07T05:04:24.981Z</time>
      </trkpt>
      <trkpt lat="58.54258" lon="22.33774">
        <ele>14.444325</ele>
        <time>2020-10-07T05:04:29.345Z</time>
      </trkpt>
      <trkpt lat="58.5396" lon="22.33772">
        <ele>14.793578</ele>
        <time>2020-10-07T05:05:37.128Z</time>
      </trkpt>
      <trkpt lat="58.53858" lon="22.33799">
        <ele>15.132539</ele>
        <time>2020-10-07T05:06:01.766Z</time>
      </trkpt>
      <trkpt lat="58.53783" lon="22.33834">
        <ele>15.451217</ele>
        <time>2020-10-07T05:06:20.409Z</time>
      </trkpt>
      <trkpt lat="58.53762" lon="22.33844">
        <ele>15.543471</ele>
        <time>2020-10-07T05:06:25.834Z</time>
      </trkpt>
      <trkpt lat="58.53257" lon="22.34084">
        <ele>17.296796</ele>
        <time>2020-10-07T05:08:28.880Z</time>
      </trkpt>
      <trkpt lat="58.53096" lon="22.34168">
        <ele>17.777113</ele>
        <time>2020-10-07T05:09:06.606Z</time>
      </trkpt>
      <trkpt lat="58.52959" lon="22.3424">
        <ele>18.7554</ele>
        <time>2020-10-07T05:09:42.743Z</time>
      </trkpt>
      <trkpt lat="58.52882" lon="22.343">
        <ele>19.512557</ele>
        <time>2020-10-07T05:10:05.103Z</time>
      </trkpt>
      <trkpt lat="58.52843" lon="22.34344">
        <ele>19.696692</ele>
        <time>2020-10-07T05:10:16.912Z</time>
      </trkpt>
      <trkpt lat="58.52827" lon="22.34363">
        <ele>19.759171</ele>
        <time>2020-10-07T05:10:21.664Z</time>
      </trkpt>
      <trkpt lat="58.52799" lon="22.34394">
        <ele>19.864155</ele>
        <time>2020-10-07T05:10:29.416Z</time>
      </trkpt>
      <trkpt lat="58.52718" lon="22.34508">
        <ele>20.069622</ele>
        <time>2020-10-07T05:10:51.740Z</time>
      </trkpt>
      <trkpt lat="58.52691" lon="22.34453">
        <ele>19.744112</ele>
        <time>2020-10-07T05:10:59.692Z</time>
      </trkpt>
      <trkpt lat="58.52606" lon="22.3429">
        <ele>18.758047</ele>
        <time>2020-10-07T05:11:23.000Z</time>
      </trkpt>
      <trkpt lat="58.52514" lon="22.34145">
        <ele>17.491426</ele>
        <time>2020-10-07T05:11:45.756Z</time>
      </trkpt>
      <trkpt lat="58.52172" lon="22.3368">
        <ele>13.158079</ele>
        <time>2020-10-07T05:13:06.156Z</time>
      </trkpt>
      <trkpt lat="58.51951" lon="22.33385">
        <ele>12.644425</ele>
        <time>2020-10-07T05:14:04.926Z</time>
      </trkpt>
      <trkpt lat="58.51902" lon="22.33327">
        <ele>12.612041</ele>
        <time>2020-10-07T05:14:17.911Z</time>
      </trkpt>
      <trkpt lat="58.51895" lon="22.3332">
        <ele>12.607865</ele>
        <time>2020-10-07T05:14:19.701Z</time>
      </trkpt>
      <trkpt lat="58.51853" lon="22.33234">
        <ele>12.565315</ele>
        <time>2020-10-07T05:14:33.441Z</time>
      </trkpt>
      <trkpt lat="58.51755" lon="22.32923">
        <ele>12.39338</ele>
        <time>2020-10-07T05:15:15.005Z</time>
      </trkpt>
      <trkpt lat="58.51712" lon="22.32717">
        <ele>12.267667</ele>
        <time>2020-10-07T05:15:39.825Z</time>
      </trkpt>
      <trkpt lat="58.51684" lon="22.32596">
        <ele>12.342969</ele>
        <time>2020-10-07T05:15:55.376Z</time>
      </trkpt>
      <trkpt lat="58.51654" lon="22.32474">
        <ele>12.524104</ele>
        <time>2020-10-07T05:16:11.842Z</time>
      </trkpt>
      <trkpt lat="58.51642" lon="22.32426">
        <ele>12.596332</ele>
        <time>2020-10-07T05:16:18.634Z</time>
      </trkpt>
      <trkpt lat="58.51631" lon="22.32384">
        <ele>12.659627</ele>
        <time>2020-10-07T05:16:24.605Z</time>
      </trkpt>
      <trkpt lat="58.51597" lon="22.32304">
        <ele>12.810608</ele>
        <time>2020-10-07T05:16:37.897Z</time>
      </trkpt>
      <trkpt lat="58.51518" lon="22.32153">
        <ele>13.134986</ele>
        <time>2020-10-07T05:17:04.412Z</time>
      </trkpt>
      <trkpt lat="58.51498" lon="22.32128">
        <ele>13.204805</ele>
        <time>2020-10-07T05:17:09.859Z</time>
      </trkpt>
      <trkpt lat="58.51413" lon="22.32026">
        <ele>12.657294</ele>
        <time>2020-10-07T05:17:30.708Z</time>
      </trkpt>
      <trkpt lat="58.51396" lon="22.32001">
        <ele>12.529627</ele>
        <time>2020-10-07T05:17:34.935Z</time>
      </trkpt>
      <trkpt lat="58.51373" lon="22.31946">
        <ele>12.309088</ele>
        <time>2020-10-07T05:17:42.064Z</time>
      </trkpt>
      <trkpt lat="58.51352" lon="22.31863">
        <ele>11.985535</ele>
        <time>2020-10-07T05:17:51.314Z</time>
      </trkpt>
      <trkpt lat="58.51334" lon="22.31778">
        <ele>11.61164</ele>
        <time>2020-10-07T05:18:00.823Z</time>
      </trkpt>
      <trkpt lat="58.51313" lon="22.31663">
        <ele>11.119208</ele>
        <time>2020-10-07T05:18:13.404Z</time>
      </trkpt>
      <trkpt lat="58.51305" lon="22.31637">
        <ele>11.000526</ele>
        <time>2020-10-07T05:18:16.518Z</time>
      </trkpt>
      <trkpt lat="58.51271" lon="22.31574">
        <ele>10.677634</ele>
        <time>2020-10-07T05:18:26.221Z</time>
      </trkpt>
      <trkpt lat="58.51135" lon="22.31464">
        <ele>9.978574</ele>
        <time>2020-10-07T05:18:57.128Z</time>
      </trkpt>
      <trkpt lat="58.51095" lon="22.31418">
        <ele>9.629365</ele>
        <time>2020-10-07T05:19:06.480Z</time>
      </trkpt>
      <trkpt lat="58.51059" lon="22.31358">
        <ele>9.194283</ele>
        <time>2020-10-07T05:19:15.935Z</time>
      </trkpt>
      <trkpt lat="58.51043" lon="22.31346">
        <ele>9.029887</ele>
        <time>2020-10-07T05:19:19.457Z</time>
      </trkpt>
      <trkpt lat="58.50941" lon="22.31346">
        <ele>8.088882</ele>
        <time>2020-10-07T05:19:38.952Z</time>
      </trkpt>
      <trkpt lat="58.50829" lon="22.31332">
        <ele>6.946172</ele>
        <time>2020-10-07T05:20:00.234Z</time>
      </trkpt>
      <trkpt lat="58.50712" lon="22.3136">
        <ele>6.523687</ele>
        <time>2020-10-07T05:20:23.914Z</time>
      </trkpt>
      <trkpt lat="58.5069" lon="22.31357">
        <ele>6.55261</ele>
        <time>2020-10-07T05:20:28.852Z</time>
      </trkpt>
      <trkpt lat="58.50668" lon="22.31342">
        <ele>6.582792</ele>
        <time>2020-10-07T05:20:34.217Z</time>
      </trkpt>
      <trkpt lat="58.5056" lon="22.31219">
        <ele>7.370428</ele>
        <time>2020-10-07T05:21:07.002Z</time>
      </trkpt>
      <trkpt lat="58.50475" lon="22.31146">
        <ele>8.479525</ele>
        <time>2020-10-07T05:21:33.108Z</time>
      </trkpt>
      <trkpt lat="58.50454" lon="22.31112">
        <ele>8.816525</ele>
        <time>2020-10-07T05:21:40.871Z</time>
      </trkpt>
      <trkpt lat="58.50439" lon="22.31073">
        <ele>8.956629</ele>
        <time>2020-10-07T05:21:47.628Z</time>
      </trkpt>
      <trkpt lat="58.50385" lon="22.30857">
        <ele>9.637936</ele>
        <time>2020-10-07T05:22:18.389Z</time>
      </trkpt>
      <trkpt lat="58.50325" lon="22.30719">
        <ele>9.585394</ele>
        <time>2020-10-07T05:22:38.229Z</time>
      </trkpt>
      <trkpt lat="58.50284" lon="22.30633">
        <ele>9.372935</ele>
        <time>2020-10-07T05:22:50.901Z</time>
      </trkpt>
      <trkpt lat="58.50278" lon="22.30619">
        <ele>9.339654</ele>
        <time>2020-10-07T05:22:52.885Z</time>
      </trkpt>
      <trkpt lat="58.50228" lon="22.30541">
        <ele>9.177178</ele>
        <time>2020-10-07T05:23:06.242Z</time>
      </trkpt>
      <trkpt lat="58.5017" lon="22.30476">
        <ele>9.164195</ele>
        <time>2020-10-07T05:23:20.824Z</time>
      </trkpt>
      <trkpt lat="58.50066" lon="22.30392">
        <ele>9.201117</ele>
        <time>2020-10-07T05:23:46.776Z</time>
      </trkpt>
      <trkpt lat="58.50021" lon="22.30375">
        <ele>9.341235</ele>
        <time>2020-10-07T05:23:57.795Z</time>
      </trkpt>
      <trkpt lat="58.49847" lon="22.30332">
        <ele>9.744421</ele>
        <time>2020-10-07T05:24:39.090Z</time>
      </trkpt>
      <trkpt lat="58.49764" lon="22.30356">
        <ele>9.822224</ele>
        <time>2020-10-07T05:24:57.983Z</time>
      </trkpt>
      <trkpt lat="58.49569" lon="22.30346">
        <ele>9.350308</ele>
        <time>2020-10-07T05:25:39.363Z</time>
      </trkpt>
      <trkpt lat="58.49483" lon="22.30328">
        <ele>9.110714</ele>
        <time>2020-10-07T05:25:57.397Z</time>
      </trkpt>
      <trkpt lat="58.49433" lon="22.30341">
        <ele>8.978464</ele>
        <time>2020-10-07T05:26:07.935Z</time>
      </trkpt>
      <trkpt lat="58.49298" lon="22.3041">
        <ele>8.959174</ele>
        <time>2020-10-07T05:26:38.661Z</time>
      </trkpt>
      <trkpt lat="58.49195" lon="22.30451">
        <ele>9.173001</ele>
        <time>2020-10-07T05:27:03.685Z</time>
      </trkpt>
      <trkpt lat="58.49149" lon="22.30439">
        <ele>9.397897</ele>
        <time>2020-10-07T05:27:15.185Z</time>
      </trkpt>
      <trkpt lat="58.48959" lon="22.3028">
        <ele>10.047584</ele>
        <time>2020-10-07T05:28:05.291Z</time>
      </trkpt>
      <trkpt lat="58.48821" lon="22.30117">
        <ele>9.818099</ele>
        <time>2020-10-07T05:28:39.502Z</time>
      </trkpt>
      <trkpt lat="58.48697" lon="22.29956">
        <ele>9.238153</ele>
        <time>2020-10-07T05:29:10.253Z</time>
      </trkpt>
      <trkpt lat="58.48665" lon="22.29895">
        <ele>9.167756</ele>
        <time>2020-10-07T05:29:20.020Z</time>
      </trkpt>
      <trkpt lat="58.48635" lon="22.29836">
        <ele>9.100991</ele>
        <time>2020-10-07T05:29:29.461Z</time>
      </trkpt>
      <trkpt lat="58.48596" lon="22.29718">
        <ele>9.013338</ele>
        <time>2020-10-07T05:29:45.776Z</time>
      </trkpt>
      <trkpt lat="58.48572" lon="22.29626">
        <ele>9.079352</ele>
        <time>2020-10-07T05:29:58.085Z</time>
      </trkpt>
      <trkpt lat="58.48556" lon="22.29467">
        <ele>9.184087</ele>
        <time>2020-10-07T05:30:17.597Z</time>
      </trkpt>
      <trkpt lat="58.48542" lon="22.29389">
        <ele>9.220121</ele>
        <time>2020-10-07T05:30:27.400Z</time>
      </trkpt>
      <trkpt lat="58.48526" lon="22.29335">
        <ele>9.206925</ele>
        <time>2020-10-07T05:30:34.738Z</time>
      </trkpt>
      <trkpt lat="58.48501" lon="22.29275">
        <ele>9.190614</ele>
        <time>2020-10-07T05:30:43.736Z</time>
      </trkpt>
      <trkpt lat="58.48492" lon="22.29257">
        <ele>9.18527</ele>
        <time>2020-10-07T05:30:46.661Z</time>
      </trkpt>
      <trkpt lat="58.48461" lon="22.29204">
        <ele>9.168598</ele>
        <time>2020-10-07T05:30:55.706Z</time>
      </trkpt>
      <trkpt lat="58.48438" lon="22.29148">
        <ele>9.15347</ele>
        <time>2020-10-07T05:31:03.836Z</time>
      </trkpt>
      <trkpt lat="58.48424" lon="22.29066">
        <ele>9.049473</ele>
        <time>2020-10-07T05:31:13.513Z</time>
      </trkpt>
      <trkpt lat="58.48414" lon="22.28842">
        <ele>8.75002</ele>
        <time>2020-10-07T05:31:38.587Z</time>
      </trkpt>
      <trkpt lat="58.48424" lon="22.28573">
        <ele>8.655698</ele>
        <time>2020-10-07T05:32:09.071Z</time>
      </trkpt>
      <trkpt lat="58.4844" lon="22.28422">
        <ele>8.743881</ele>
        <time>2020-10-07T05:32:27.532Z</time>
      </trkpt>
      <trkpt lat="58.48446" lon="22.28374">
        <ele>8.887501</ele>
        <time>2020-10-07T05:32:33.655Z</time>
      </trkpt>
      <trkpt lat="58.48508" lon="22.28011">
        <ele>9.970648</ele>
        <time>2020-10-07T05:33:23.833Z</time>
      </trkpt>
      <trkpt lat="58.48566" lon="22.27641">
        <ele>10.496575</ele>
        <time>2020-10-07T05:34:11.855Z</time>
      </trkpt>
      <trkpt lat="58.48576" lon="22.27545">
        <ele>10.462322</ele>
        <time>2020-10-07T05:34:22.611Z</time>
      </trkpt>
      <trkpt lat="58.48571" lon="22.27444">
        <ele>10.358002</ele>
        <time>2020-10-07T05:34:33.549Z</time>
      </trkpt>
      <trkpt lat="58.48525" lon="22.26973">
        <ele>8.902609</ele>
        <time>2020-10-07T05:35:23.916Z</time>
      </trkpt>
      <trkpt lat="58.4849" lon="22.26835">
        <ele>8.556344</ele>
        <time>2020-10-07T05:35:40.888Z</time>
      </trkpt>
      <trkpt lat="58.48419" lon="22.26669">
        <ele>8.389137</ele>
        <time>2020-10-07T05:36:05.461Z</time>
      </trkpt>
      <trkpt lat="58.48339" lon="22.2651">
        <ele>8.33488</ele>
        <time>2020-10-07T05:36:30.938Z</time>
      </trkpt>
      <trkpt lat="58.48242" lon="22.26372">
        <ele>8.442559</ele>
        <time>2020-10-07T05:36:58.390Z</time>
      </trkpt>
      <trkpt lat="58.48154" lon="22.26265">
        <ele>8.697754</ele>
        <time>2020-10-07T05:37:22.457Z</time>
      </trkpt>
      <trkpt lat="58.48114" lon="22.26207">
        <ele>8.850736</ele>
        <time>2020-10-07T05:37:34.238Z</time>
      </trkpt>
      <trkpt lat="58.47951" lon="22.25781">
        <ele>9.897824</ele>
        <time>2020-10-07T05:38:40.299Z</time>
      </trkpt>
      <trkpt lat="58.47832" lon="22.2547">
        <ele>10.685105</ele>
        <time>2020-10-07T05:39:28.424Z</time>
      </trkpt>
      <trkpt lat="58.4782" lon="22.25436">
        <ele>10.768635</ele>
        <time>2020-10-07T05:39:33.555Z</time>
      </trkpt>
      <trkpt lat="58.47814" lon="22.25422">
        <ele>10.805133</ele>
        <time>2020-10-07T05:39:35.846Z</time>
      </trkpt>
      <trkpt lat="58.47778" lon="22.25333">
        <ele>11.032279</ele>
        <time>2020-10-07T05:39:50.111Z</time>
      </trkpt>
      <trkpt lat="58.4776" lon="22.25284">
        <ele>11.134263</ele>
        <time>2020-10-07T05:39:57.409Z</time>
      </trkpt>
      <trkpt lat="58.47694" lon="22.25105">
        <ele>11.1194</ele>
        <time>2020-10-07T05:40:23.797Z</time>
      </trkpt>
      <trkpt lat="58.47576" lon="22.24796">
        <ele>10.49857</ele>
        <time>2020-10-07T05:41:05.443Z</time>
      </trkpt>
      <trkpt lat="58.47437" lon="22.24517">
        <ele>9.623745</ele>
        <time>2020-10-07T05:41:47.325Z</time>
      </trkpt>
      <trkpt lat="58.47263" lon="22.24262">
        <ele>8.990075</ele>
        <time>2020-10-07T05:42:33.364Z</time>
      </trkpt>
      <trkpt lat="58.46659" lon="22.23461">
        <ele>10.38905</ele>
        <time>2020-10-07T05:45:23.379Z</time>
      </trkpt>
      <trkpt lat="58.46622" lon="22.23413">
        <ele>10.494803</ele>
        <time>2020-10-07T05:45:33.334Z</time>
      </trkpt>
      <trkpt lat="58.46572" lon="22.23467">
        <ele>10.632356</ele>
        <time>2020-10-07T05:45:46.727Z</time>
      </trkpt>
      <trkpt lat="58.46491" lon="22.23554">
        <ele>11.241934</ele>
        <time>2020-10-07T05:46:08.942Z</time>
      </trkpt>
      <trkpt lat="58.46358" lon="22.23658">
        <ele>12.713192</ele>
        <time>2020-10-07T05:46:48.191Z</time>
      </trkpt>
      <trkpt lat="58.463" lon="22.23687">
        <ele>13.462222</ele>
        <time>2020-10-07T05:47:04.800Z</time>
      </trkpt>
      <trkpt lat="58.46243" lon="22.23724">
        <ele>14.228967</ele>
        <time>2020-10-07T05:47:21.557Z</time>
      </trkpt>
      <trkpt lat="58.46237" lon="22.23726">
        <ele>14.294172</ele>
        <time>2020-10-07T05:47:22.967Z</time>
      </trkpt>
      <trkpt lat="58.46181" lon="22.23759">
        <ele>14.951613</ele>
        <time>2020-10-07T05:47:38.696Z</time>
      </trkpt>
      <trkpt lat="58.46153" lon="22.23776">
        <ele>15.20955</ele>
        <time>2020-10-07T05:47:46.629Z</time>
      </trkpt>
      <trkpt lat="58.46056" lon="22.23831">
        <ele>16.070252</ele>
        <time>2020-10-07T05:48:11.934Z</time>
      </trkpt>
      <trkpt lat="58.45914" lon="22.23911">
        <ele>17.352306</ele>
        <time>2020-10-07T05:48:49.639Z</time>
      </trkpt>
      <trkpt lat="58.45688" lon="22.2404">
        <ele>19.811538</ele>
        <time>2020-10-07T05:49:52.427Z</time>
      </trkpt>
      <trkpt lat="58.45536" lon="22.24112">
        <ele>21.485378</ele>
        <time>2020-10-07T05:50:34.686Z</time>
      </trkpt>
      <trkpt lat="58.45348" lon="22.24164">
        <ele>23.097876</ele>
        <time>2020-10-07T05:51:22.692Z</time>
      </trkpt>
      <trkpt lat="58.44726" lon="22.2429">
        <ele>28.279705</ele>
        <time>2020-10-07T05:54:02.258Z</time>
      </trkpt>
      <trkpt lat="58.44699" lon="22.24301">
        <ele>28.564185</ele>
        <time>2020-10-07T05:54:09.397Z</time>
      </trkpt>
      <trkpt lat="58.44693" lon="22.24282">
        <ele>28.687248</ele>
        <time>2020-10-07T05:54:12.770Z</time>
      </trkpt>
      <trkpt lat="58.44684" lon="22.24266">
        <ele>28.823447</ele>
        <time>2020-10-07T05:54:16.299Z</time>
      </trkpt>
      <trkpt lat="58.44621" lon="22.2417">
        <ele>29.647386</ele>
        <time>2020-10-07T05:54:38.058Z</time>
      </trkpt>
      <trkpt lat="58.44555" lon="22.24065">
        <ele>30.449319</ele>
        <time>2020-10-07T05:55:01.576Z</time>
      </trkpt>
      <trkpt lat="58.44357" lon="22.23754">
        <ele>31.854587</ele>
        <time>2020-10-07T05:56:03.385Z</time>
      </trkpt>
      <trkpt lat="58.44105" lon="22.23355">
        <ele>31.550877</ele>
        <time>2020-10-07T05:57:14.587Z</time>
      </trkpt>
      <trkpt lat="58.4402" lon="22.23161">
        <ele>31.049132</ele>
        <time>2020-10-07T05:57:43.963Z</time>
      </trkpt>
      <trkpt lat="58.43949" lon="22.22953">
        <ele>29.994903</ele>
        <time>2020-10-07T05:58:09.193Z</time>
      </trkpt>
      <trkpt lat="58.43887" lon="22.22721">
        <ele>28.263337</ele>
        <time>2020-10-07T05:58:33.910Z</time>
      </trkpt>
      <trkpt lat="58.43791" lon="22.22212">
        <ele>27.512141</ele>
        <time>2020-10-07T05:59:34.132Z</time>
      </trkpt>
      <trkpt lat="58.43748" lon="22.22044">
        <ele>27.67217</ele>
        <time>2020-10-07T05:59:58.633Z</time>
      </trkpt>
      <trkpt lat="58.43724" lon="22.21969">
        <ele>27.825932</ele>
        <time>2020-10-07T06:00:09.729Z</time>
      </trkpt>
      <trkpt lat="58.43678" lon="22.21835">
        <ele>28.109435</ele>
        <time>2020-10-07T06:00:29.592Z</time>
      </trkpt>
      <trkpt lat="58.4363" lon="22.21729">
        <ele>28.225145</ele>
        <time>2020-10-07T06:00:45.127Z</time>
      </trkpt>
      <trkpt lat="58.43507" lon="22.2152">
        <ele>28.439673</ele>
        <time>2020-10-07T06:01:23.465Z</time>
      </trkpt>
      <trkpt lat="58.43385" lon="22.21341">
        <ele>28.785785</ele>
        <time>2020-10-07T06:01:59.495Z</time>
      </trkpt>
      <trkpt lat="58.43348" lon="22.21286">
        <ele>28.71821</ele>
        <time>2020-10-07T06:02:10.168Z</time>
      </trkpt>
      <trkpt lat="58.43339" lon="22.21271">
        <ele>28.70095</ele>
        <time>2020-10-07T06:02:12.722Z</time>
      </trkpt>
      <trkpt lat="58.43288" lon="22.21181">
        <ele>28.601482</ele>
        <time>2020-10-07T06:02:27.620Z</time>
      </trkpt>
      <trkpt lat="58.43241" lon="22.21085">
        <ele>28.484545</ele>
        <time>2020-10-07T06:02:41.883Z</time>
      </trkpt>
      <trkpt lat="58.43147" lon="22.20804">
        <ele>28.217118</ele>
        <time>2020-10-07T06:03:19.451Z</time>
      </trkpt>
      <trkpt lat="58.43087" lon="22.20523">
        <ele>28.500769</ele>
        <time>2020-10-07T06:03:55.878Z</time>
      </trkpt>
      <trkpt lat="58.43035" lon="22.19783">
        <ele>31.625453</ele>
        <time>2020-10-07T06:05:38.445Z</time>
      </trkpt>
      <trkpt lat="58.4297" lon="22.19266">
        <ele>31.144447</ele>
        <time>2020-10-07T06:06:36.516Z</time>
      </trkpt>
      <trkpt lat="58.42953" lon="22.19178">
        <ele>31.019734</ele>
        <time>2020-10-07T06:06:47.176Z</time>
      </trkpt>
      <trkpt lat="58.42923" lon="22.19031">
        <ele>31.426825</ele>
        <time>2020-10-07T06:07:06.589Z</time>
      </trkpt>
      <trkpt lat="58.42884" lon="22.18865">
        <ele>31.895543</ele>
        <time>2020-10-07T06:07:30.814Z</time>
      </trkpt>
      <trkpt lat="58.42784" lon="22.18546">
        <ele>33.27594</ele>
        <time>2020-10-07T06:08:20.619Z</time>
      </trkpt>
      <trkpt lat="58.42686" lon="22.18305">
        <ele>33.468852</ele>
        <time>2020-10-07T06:08:56.866Z</time>
      </trkpt>
      <trkpt lat="58.42531" lon="22.17994">
        <ele>32.573038</ele>
        <time>2020-10-07T06:09:43.585Z</time>
      </trkpt>
      <trkpt lat="58.42238" lon="22.17458">
        <ele>31.433961</ele>
        <time>2020-10-07T06:11:06.846Z</time>
      </trkpt>
      <trkpt lat="58.4209" lon="22.17188">
        <ele>33.410163</ele>
        <time>2020-10-07T06:12:05.502Z</time>
      </trkpt>
      <trkpt lat="58.42033" lon="22.17058">
        <ele>34.283571</ele>
        <time>2020-10-07T06:12:29.270Z</time>
      </trkpt>
      <trkpt lat="58.41968" lon="22.16848">
        <ele>34.13877</ele>
        <time>2020-10-07T06:12:57.380Z</time>
      </trkpt>
      <trkpt lat="58.41917" lon="22.16598">
        <ele>32.471861</ele>
        <time>2020-10-07T06:13:23.853Z</time>
      </trkpt>
      <trkpt lat="58.41896" lon="22.1636">
        <ele>29.969874</ele>
        <time>2020-10-07T06:13:46.060Z</time>
      </trkpt>
      <trkpt lat="58.41896" lon="22.1616">
        <ele>27.251453</ele>
        <time>2020-10-07T06:14:03.565Z</time>
      </trkpt>
      <trkpt lat="58.41898" lon="22.16057">
        <ele>25.853662</ele>
        <time>2020-10-07T06:14:12.581Z</time>
      </trkpt>
      <trkpt lat="58.41898" lon="22.16039">
        <ele>25.612939</ele>
        <time>2020-10-07T06:14:14.168Z</time>
      </trkpt>
      <trkpt lat="58.41906" lon="22.15839">
        <ele>22.938771</ele>
        <time>2020-10-07T06:14:31.819Z</time>
      </trkpt>
      <trkpt lat="58.41924" lon="22.1538">
        <ele>18.45502</ele>
        <time>2020-10-07T06:15:15.117Z</time>
      </trkpt>
      <trkpt lat="58.4193" lon="22.15262">
        <ele>17.609311</ele>
        <time>2020-10-07T06:15:26.558Z</time>
      </trkpt>
      <trkpt lat="58.41943" lon="22.14874">
        <ele>15.385715</ele>
        <time>2020-10-07T06:16:05.516Z</time>
      </trkpt>
      <trkpt lat="58.41933" lon="22.1467">
        <ele>14.616865</ele>
        <time>2020-10-07T06:16:27.713Z</time>
      </trkpt>
      <trkpt lat="58.41893" lon="22.14464">
        <ele>14.094402</ele>
        <time>2020-10-07T06:16:51.723Z</time>
      </trkpt>
      <trkpt lat="58.4184" lon="22.14284">
        <ele>13.515982</ele>
        <time>2020-10-07T06:17:13.949Z</time>
      </trkpt>
      <trkpt lat="58.41719" lon="22.13907">
        <ele>12.092507</ele>
        <time>2020-10-07T06:18:00.980Z</time>
      </trkpt>
      <trkpt lat="58.41713" lon="22.13851">
        <ele>11.897617</ele>
        <time>2020-10-07T06:18:06.969Z</time>
      </trkpt>
      <trkpt lat="58.41723" lon="22.13162">
        <ele>9.703523</ele>
        <time>2020-10-07T06:19:19.777Z</time>
      </trkpt>
      <trkpt lat="58.417" lon="22.13084">
        <ele>9.6726</ele>
        <time>2020-10-07T06:19:30.132Z</time>
      </trkpt>
      <trkpt lat="58.41717" lon="22.13053">
        <ele>9.692464</ele>
        <time>2020-10-07T06:19:35.591Z</time>
      </trkpt>
      <trkpt lat="58.4186" lon="22.12665">
        <ele>9.753853</ele>
        <time>2020-10-07T06:20:32.529Z</time>
      </trkpt>
      <trkpt lat="58.41941" lon="22.12415">
        <ele>9.425449</ele>
        <time>2020-10-07T06:21:04.369Z</time>
      </trkpt>
      <trkpt lat="58.41951" lon="22.12329">
        <ele>9.282204</ele>
        <time>2020-10-07T06:21:14.228Z</time>
      </trkpt>
      <trkpt lat="58.4194" lon="22.12256">
        <ele>9.208126</ele>
        <time>2020-10-07T06:21:23.066Z</time>
      </trkpt>
      <trkpt lat="58.4191" lon="22.12182">
        <ele>9.364746</ele>
        <time>2020-10-07T06:21:34.277Z</time>
      </trkpt>
      <trkpt lat="58.4187" lon="22.12106">
        <ele>9.547342</ele>
        <time>2020-10-07T06:21:47.947Z</time>
      </trkpt>
      <trkpt lat="58.41856" lon="22.12027">
        <ele>9.688251</ele>
        <time>2020-10-07T06:21:58.803Z</time>
      </trkpt>
      <trkpt lat="58.41845" lon="22.11743">
        <ele>9.977482</ele>
        <time>2020-10-07T06:22:34.311Z</time>
      </trkpt>
      <trkpt lat="58.41817" lon="22.11607">
        <ele>9.923099</ele>
        <time>2020-10-07T06:22:50.764Z</time>
      </trkpt>
      <trkpt lat="58.41741" lon="22.11327">
        <ele>8.87695</ele>
        <time>2020-10-07T06:23:23.690Z</time>
      </trkpt>
      <trkpt lat="58.4172" lon="22.11269">
        <ele>8.719521</ele>
        <time>2020-10-07T06:23:31.075Z</time>
      </trkpt>
      <trkpt lat="58.4165" lon="22.1114">
        <ele>8.305115</ele>
        <time>2020-10-07T06:23:51.360Z</time>
      </trkpt>
      <trkpt lat="58.41591" lon="22.11031">
        <ele>8.171822</ele>
        <time>2020-10-07T06:24:09.469Z</time>
      </trkpt>
      <trkpt lat="58.41546" lon="22.10913">
        <ele>8.21341</ele>
        <time>2020-10-07T06:24:26.756Z</time>
      </trkpt>
      <trkpt lat="58.41517" lon="22.10796">
        <ele>8.243481</ele>
        <time>2020-10-07T06:24:42.224Z</time>
      </trkpt>
      <trkpt lat="58.4149" lon="22.10565">
        <ele>8.21498</ele>
        <time>2020-10-07T06:25:09.599Z</time>
      </trkpt>
      <trkpt lat="58.41435" lon="22.09803">
        <ele>8.238936</ele>
        <time>2020-10-07T06:26:39.524Z</time>
      </trkpt>
      <trkpt lat="58.41424" lon="22.09452">
        <ele>8.531603</ele>
        <time>2020-10-07T06:27:22.018Z</time>
      </trkpt>
      <trkpt lat="58.41431" lon="22.09326">
        <ele>8.715603</ele>
        <time>2020-10-07T06:27:37.607Z</time>
      </trkpt>
      <trkpt lat="58.41448" lon="22.0921">
        <ele>8.891661</ele>
        <time>2020-10-07T06:27:52.561Z</time>
      </trkpt>
      <trkpt lat="58.41537" lon="22.08892">
        <ele>9.397863</ele>
        <time>2020-10-07T06:28:36.559Z</time>
      </trkpt>
      <trkpt lat="58.41556" lon="22.08766">
        <ele>9.558182</ele>
        <time>2020-10-07T06:28:52.382Z</time>
      </trkpt>
      <trkpt lat="58.41598" lon="22.08046">
        <ele>10.148247</ele>
        <time>2020-10-07T06:30:19.595Z</time>
      </trkpt>
      <trkpt lat="58.41616" lon="22.07932">
        <ele>10.18908</ele>
        <time>2020-10-07T06:30:33.573Z</time>
      </trkpt>
      <trkpt lat="58.41645" lon="22.0785">
        <ele>10.223483</ele>
        <time>2020-10-07T06:30:45.256Z</time>
      </trkpt>
      <trkpt lat="58.41779" lon="22.07611">
        <ele>10.449036</ele>
        <time>2020-10-07T06:31:26.804Z</time>
      </trkpt>
      <trkpt lat="58.41833" lon="22.07541">
        <ele>10.599147</ele>
        <time>2020-10-07T06:31:42.045Z</time>
      </trkpt>
      <trkpt lat="58.41851" lon="22.07532">
        <ele>10.647901</ele>
        <time>2020-10-07T06:31:46.465Z</time>
      </trkpt>
      <trkpt lat="58.41872" lon="22.07522">
        <ele>10.703811</ele>
        <time>2020-10-07T06:31:51.541Z</time>
      </trkpt>
      <trkpt lat="58.42287" lon="22.07409">
        <ele>11.762809</ele>
        <time>2020-10-07T06:33:29.250Z</time>
      </trkpt>
      <trkpt lat="58.42419" lon="22.07373">
        <ele>11.849685</ele>
        <time>2020-10-07T06:33:59.717Z</time>
      </trkpt>
      <trkpt lat="58.4254" lon="22.07351">
        <ele>11.688462</ele>
        <time>2020-10-07T06:34:26.249Z</time>
      </trkpt>
      <trkpt lat="58.42648" lon="22.07311">
        <ele>11.267437</ele>
        <time>2020-10-07T06:34:49.184Z</time>
      </trkpt>
      <trkpt lat="58.42829" lon="22.07209">
        <ele>10.018907</ele>
        <time>2020-10-07T06:35:26.983Z</time>
      </trkpt>
      <trkpt lat="58.42973" lon="22.07118">
        <ele>9.179582</ele>
        <time>2020-10-07T06:35:57.333Z</time>
      </trkpt>
      <trkpt lat="58.43201" lon="22.06874">
        <ele>8.852677</ele>
        <time>2020-10-07T06:36:53.833Z</time>
      </trkpt>
      <trkpt lat="58.43254" lon="22.06832">
        <ele>9.198046</ele>
        <time>2020-10-07T06:37:07.916Z</time>
      </trkpt>
      <trkpt lat="58.43332" lon="22.06783">
        <ele>9.692285</ele>
        <time>2020-10-07T06:37:29.352Z</time>
      </trkpt>
      <trkpt lat="58.43372" lon="22.06743">
        <ele>10.230821</ele>
        <time>2020-10-07T06:37:41.662Z</time>
      </trkpt>
      <trkpt lat="58.4341" lon="22.06691">
        <ele>10.817157</ele>
        <time>2020-10-07T06:37:54.843Z</time>
      </trkpt>
      <trkpt lat="58.43539" lon="22.06464">
        <ele>12.69371</ele>
        <time>2020-10-07T06:38:42.415Z</time>
      </trkpt>
      <trkpt lat="58.43647" lon="22.06333">
        <ele>13.615958</ele>
        <time>2020-10-07T06:39:13.970Z</time>
      </trkpt>
      <trkpt lat="58.43829" lon="22.06077">
        <ele>13.81138</ele>
        <time>2020-10-07T06:40:05.648Z</time>
      </trkpt>
      <trkpt lat="58.4404" lon="22.05865">
        <ele>12.920851</ele>
        <time>2020-10-07T06:40:55.733Z</time>
      </trkpt>
      <trkpt lat="58.44115" lon="22.05791">
        <ele>12.356273</ele>
        <time>2020-10-07T06:41:11.923Z</time>
      </trkpt>
      <trkpt lat="58.44144" lon="22.0577">
        <ele>12.106563</ele>
        <time>2020-10-07T06:41:17.919Z</time>
      </trkpt>
      <trkpt lat="58.44164" lon="22.05755">
        <ele>11.93691</ele>
        <time>2020-10-07T06:41:22.042Z</time>
      </trkpt>
      <trkpt lat="58.44271" lon="22.0572">
        <ele>11.29667</ele>
        <time>2020-10-07T06:41:43.889Z</time>
      </trkpt>
      <trkpt lat="58.44316" lon="22.05695">
        <ele>11.369273</ele>
        <time>2020-10-07T06:41:54.677Z</time>
      </trkpt>
      <trkpt lat="58.44398" lon="22.0561">
        <ele>11.513064</ele>
        <time>2020-10-07T06:42:17.083Z</time>
      </trkpt>
      <trkpt lat="58.44545" lon="22.05406">
        <ele>11.907154</ele>
        <time>2020-10-07T06:42:59.838Z</time>
      </trkpt>
      <trkpt lat="58.44727" lon="22.05277">
        <ele>11.333292</ele>
        <time>2020-10-07T06:43:40.749Z</time>
      </trkpt>
      <trkpt lat="58.44893" lon="22.05237">
        <ele>10.442663</ele>
        <time>2020-10-07T06:44:14.515Z</time>
      </trkpt>
      <trkpt lat="58.44954" lon="22.05259">
        <ele>10.498048</ele>
        <time>2020-10-07T06:44:27.697Z</time>
      </trkpt>
      <trkpt lat="58.45027" lon="22.05246">
        <ele>10.680369</ele>
        <time>2020-10-07T06:44:44.732Z</time>
      </trkpt>
      <trkpt lat="58.45075" lon="22.05214">
        <ele>10.806778</ele>
        <time>2020-10-07T06:44:57.401Z</time>
      </trkpt>
      <trkpt lat="58.45178" lon="22.05094">
        <ele>12.082149</ele>
        <time>2020-10-07T06:45:29.100Z</time>
      </trkpt>
      <trkpt lat="58.4534" lon="22.04936">
        <ele>14.644539</ele>
        <time>2020-10-07T06:46:19.917Z</time>
      </trkpt>
      <trkpt lat="58.45375" lon="22.04934">
        <ele>15.184987</ele>
        <time>2020-10-07T06:46:30.082Z</time>
      </trkpt>
      <trkpt lat="58.45432" lon="22.04885">
        <ele>16.329918</ele>
        <time>2020-10-07T06:46:49.285Z</time>
      </trkpt>
      <trkpt lat="58.45462" lon="22.04816">
        <ele>17.268505</ele>
        <time>2020-10-07T06:47:03.779Z</time>
      </trkpt>
      <trkpt lat="58.45497" lon="22.04602">
        <ele>19.504101</ele>
        <time>2020-10-07T06:47:39.515Z</time>
      </trkpt>
      <trkpt lat="58.45521" lon="22.04476">
        <ele>20.457613</ele>
        <time>2020-10-07T06:47:59.302Z</time>
      </trkpt>
      <trkpt lat="58.45574" lon="22.04381">
        <ele>21.448244</ele>
        <time>2020-10-07T06:48:18.808Z</time>
      </trkpt>
      <trkpt lat="58.45635" lon="22.04344">
        <ele>22.000411</ele>
        <time>2020-10-07T06:48:34.953Z</time>
      </trkpt>
      <trkpt lat="58.45737" lon="22.04314">
        <ele>22.704653</ele>
        <time>2020-10-07T06:49:00.873Z</time>
      </trkpt>
      <trkpt lat="58.45846" lon="22.0431">
        <ele>22.935002</ele>
        <time>2020-10-07T06:49:27.231Z</time>
      </trkpt>
      <trkpt lat="58.4598" lon="22.0425">
        <ele>22.567521</ele>
        <time>2020-10-07T06:49:56.452Z</time>
      </trkpt>
      <trkpt lat="58.46012" lon="22.04253">
        <ele>22.214929</ele>
        <time>2020-10-07T06:50:02.736Z</time>
      </trkpt>
      <trkpt lat="58.46029" lon="22.04263">
        <ele>22.014162</ele>
        <time>2020-10-07T06:50:06.253Z</time>
      </trkpt>
      <trkpt lat="58.46116" lon="22.04355">
        <ele>20.882497</ele>
        <time>2020-10-07T06:50:24.723Z</time>
      </trkpt>
      <trkpt lat="58.46138" lon="22.04385">
        <ele>20.293047</ele>
        <time>2020-10-07T06:50:29.417Z</time>
      </trkpt>
      <trkpt lat="58.46152" lon="22.04417">
        <ele>19.832531</ele>
        <time>2020-10-07T06:50:33.208Z</time>
      </trkpt>
      <trkpt lat="58.46168" lon="22.04485">
        <ele>19.010178</ele>
        <time>2020-10-07T06:50:39.710Z</time>
      </trkpt>
      <trkpt lat="58.46161" lon="22.04617">
        <ele>17.544616</ele>
        <time>2020-10-07T06:50:51.856Z</time>
      </trkpt>
      <trkpt lat="58.46162" lon="22.0463">
        <ele>17.406169</ele>
        <time>2020-10-07T06:50:52.889Z</time>
      </trkpt>
      <trkpt lat="58.46166" lon="22.04643">
        <ele>17.237461</ele>
        <time>2020-10-07T06:50:54.256Z</time>
      </trkpt>
      <trkpt lat="58.46181" lon="22.04664">
        <ele>17.172456</ele>
        <time>2020-10-07T06:50:57.994Z</time>
      </trkpt>
      <trkpt lat="58.46201" lon="22.04675">
        <ele>17.165182</ele>
        <time>2020-10-07T06:51:01.670Z</time>
      </trkpt>
      <trkpt lat="58.46228" lon="22.04682">
        <ele>17.155903</ele>
        <time>2020-10-07T06:51:06.989Z</time>
      </trkpt>
      <trkpt lat="58.46265" lon="22.04679">
        <ele>17.14306</ele>
        <time>2020-10-07T06:51:14.861Z</time>
      </trkpt>
      <trkpt lat="58.46325" lon="22.04651">
        <ele>17.121459</ele>
        <time>2020-10-07T06:51:30.230Z</time>
      </trkpt>
      <trkpt lat="58.46372" lon="22.04623">
        <ele>17.707887</ele>
        <time>2020-10-07T06:51:45.702Z</time>
      </trkpt>
      <trkpt lat="58.4641" lon="22.04587">
        <ele>18.487183</ele>
        <time>2020-10-07T06:51:58.924Z</time>
      </trkpt>
      <trkpt lat="58.46441" lon="22.04546">
        <ele>19.185029</ele>
        <time>2020-10-07T06:52:10.767Z</time>
      </trkpt>
      <trkpt lat="58.46536" lon="22.04329">
        <ele>20.68938</ele>
        <time>2020-10-07T06:52:53.173Z</time>
      </trkpt>
      <trkpt lat="58.46942" lon="22.03344">
        <ele>22.337108</ele>
        <time>2020-10-07T06:55:21.697Z</time>
      </trkpt>
      <trkpt lat="58.46947" lon="22.03321">
        <ele>22.375204</ele>
        <time>2020-10-07T06:55:24.515Z</time>
      </trkpt>
      <trkpt lat="58.46949" lon="22.03277">
        <ele>22.442937</ele>
        <time>2020-10-07T06:55:29.880Z</time>
      </trkpt>
      <trkpt lat="58.46925" lon="22.02906">
        <ele>23.157829</ele>
        <time>2020-10-07T06:56:16.528Z</time>
      </trkpt>
      <trkpt lat="58.46922" lon="22.02787">
        <ele>23.464755</ele>
        <time>2020-10-07T06:56:31.869Z</time>
      </trkpt>
      <trkpt lat="58.46892" lon="22.02579">
        <ele>23.973329</ele>
        <time>2020-10-07T06:56:59.767Z</time>
      </trkpt>
      <trkpt lat="58.46812" lon="22.02367">
        <ele>24.385085</ele>
        <time>2020-10-07T06:57:32.173Z</time>
      </trkpt>
      <trkpt lat="58.46774" lon="22.02221">
        <ele>24.064357</ele>
        <time>2020-10-07T06:57:50.748Z</time>
      </trkpt>
      <trkpt lat="58.46734" lon="22.01848">
        <ele>22.259031</ele>
        <time>2020-10-07T06:58:29.528Z</time>
      </trkpt>
      <trkpt lat="58.46719" lon="22.01666">
        <ele>20.804235</ele>
        <time>2020-10-07T06:58:46.946Z</time>
      </trkpt>
      <trkpt lat="58.46678" lon="22.01386">
        <ele>18.0204</ele>
        <time>2020-10-07T06:59:13.751Z</time>
      </trkpt>
      <trkpt lat="58.46643" lon="22.01175">
        <ele>16.511501</ele>
        <time>2020-10-07T06:59:35.322Z</time>
      </trkpt>
      <trkpt lat="58.46635" lon="22.01126">
        <ele>16.156297</ele>
        <time>2020-10-07T06:59:40.723Z</time>
      </trkpt>
      <trkpt lat="58.46607" lon="22.00948">
        <ele>15.275755</ele>
        <time>2020-10-07T06:59:59.808Z</time>
      </trkpt>
      <trkpt lat="58.46591" lon="22.00895">
        <ele>15.029712</ele>
        <time>2020-10-07T07:00:06.170Z</time>
      </trkpt>
      <trkpt lat="58.4657" lon="22.0085">
        <ele>14.782546</ele>
        <time>2020-10-07T07:00:12.550Z</time>
      </trkpt>
      <trkpt lat="58.46561" lon="22.00831">
        <ele>14.677803</ele>
        <time>2020-10-07T07:00:15.114Z</time>
      </trkpt>
      <trkpt lat="58.4654" lon="22.00787">
        <ele>14.440834</ele>
        <time>2020-10-07T07:00:21.336Z</time>
      </trkpt>
      <trkpt lat="58.46461" lon="22.00597">
        <ele>13.979556</ele>
        <time>2020-10-07T07:00:47.159Z</time>
      </trkpt>
      <trkpt lat="58.46436" lon="22.00512">
        <ele>13.79727</ele>
        <time>2020-10-07T07:00:58.759Z</time>
      </trkpt>
      <trkpt lat="58.46421" lon="22.00444">
        <ele>14.097374</ele>
        <time>2020-10-07T07:01:08.012Z</time>
      </trkpt>
      <trkpt lat="58.46404" lon="22.00319">
        <ele>14.622847</ele>
        <time>2020-10-07T07:01:25.218Z</time>
      </trkpt>
      <trkpt lat="58.46395" lon="22.00193">
        <ele>15.143331</ele>
        <time>2020-10-07T07:01:43.151Z</time>
      </trkpt>
      <trkpt lat="58.46381" lon="21.99824">
        <ele>17.084316</ele>
        <time>2020-10-07T07:02:34.884Z</time>
      </trkpt>
      <trkpt lat="58.46367" lon="21.99679">
        <ele>17.122648</ele>
        <time>2020-10-07T07:02:53.282Z</time>
      </trkpt>
      <trkpt lat="58.46354" lon="21.99594">
        <ele>17.145496</ele>
        <time>2020-10-07T07:03:03.326Z</time>
      </trkpt>
      <trkpt lat="58.46321" lon="21.99462">
        <ele>16.897077</ele>
        <time>2020-10-07T07:03:19.024Z</time>
      </trkpt>
      <trkpt lat="58.46281" lon="21.99358">
        <ele>16.219871</ele>
        <time>2020-10-07T07:03:31.932Z</time>
      </trkpt>
      <trkpt lat="58.46237" lon="21.99288">
        <ele>15.641647</ele>
        <time>2020-10-07T07:03:42.621Z</time>
      </trkpt>
      <trkpt lat="58.46195" lon="21.99244">
        <ele>15.263851</ele>
        <time>2020-10-07T07:03:51.769Z</time>
      </trkpt>
      <trkpt lat="58.46185" lon="21.99238">
        <ele>15.211412</ele>
        <time>2020-10-07T07:03:53.794Z</time>
      </trkpt>
      <trkpt lat="58.46172" lon="21.9923">
        <ele>15.148484</ele>
        <time>2020-10-07T07:03:56.332Z</time>
      </trkpt>
      <trkpt lat="58.46128" lon="21.99216">
        <ele>14.93616</ele>
        <time>2020-10-07T07:04:05.797Z</time>
      </trkpt>
      <trkpt lat="58.46032" lon="21.9921">
        <ele>14.506721</ele>
        <time>2020-10-07T07:04:26.324Z</time>
      </trkpt>
      <trkpt lat="58.45998" lon="21.9921">
        <ele>14.554896</ele>
        <time>2020-10-07T07:04:34.416Z</time>
      </trkpt>
      <trkpt lat="58.44139" lon="21.99173">
        <ele>17.304529</ele>
        <time>2020-10-07T07:11:39.244Z</time>
      </trkpt>
      <trkpt lat="58.43982" lon="21.9917">
        <ele>17.585423</ele>
        <time>2020-10-07T07:12:16.663Z</time>
      </trkpt>
      <trkpt lat="58.43604" lon="21.99164">
        <ele>17.94195</ele>
        <time>2020-10-07T07:13:41.248Z</time>
      </trkpt>
      <trkpt lat="58.42853" lon="21.99151">
        <ele>18.86812</ele>
        <time>2020-10-07T07:16:32.007Z</time>
      </trkpt>
      <trkpt lat="58.42507" lon="21.9914">
        <ele>19.740187</ele>
        <time>2020-10-07T07:17:53.175Z</time>
      </trkpt>
      <trkpt lat="58.42306" lon="21.99138">
        <ele>20.317256</ele>
        <time>2020-10-07T07:18:39.071Z</time>
      </trkpt>
      <trkpt lat="58.42167" lon="21.99135">
        <ele>20.833845</ele>
        <time>2020-10-07T07:19:14.288Z</time>
      </trkpt>
      <trkpt lat="58.4184" lon="21.99126">
        <ele>21.032532</ele>
        <time>2020-10-07T07:20:28.298Z</time>
      </trkpt>
      <trkpt lat="58.41684" lon="21.99117">
        <ele>20.060176</ele>
        <time>2020-10-07T07:20:59.399Z</time>
      </trkpt>
      <trkpt lat="58.41549" lon="21.99061">
        <ele>18.590025</ele>
        <time>2020-10-07T07:21:25.499Z</time>
      </trkpt>
      <trkpt lat="58.41492" lon="21.99027">
        <ele>17.909717</ele>
        <time>2020-10-07T07:21:36.820Z</time>
      </trkpt>
      <trkpt lat="58.41439" lon="21.98986">
        <ele>17.25096</ele>
        <time>2020-10-07T07:21:47.804Z</time>
      </trkpt>
      <trkpt lat="58.4129" lon="21.9884">
        <ele>15.24606</ele>
        <time>2020-10-07T07:22:19.825Z</time>
      </trkpt>
      <trkpt lat="58.41175" lon="21.9876">
        <ele>13.586385</ele>
        <time>2020-10-07T07:22:42.460Z</time>
      </trkpt>
      <trkpt lat="58.41081" lon="21.98723">
        <ele>12.035339</ele>
        <time>2020-10-07T07:22:59.946Z</time>
      </trkpt>
      <trkpt lat="58.41" lon="21.98692">
        <ele>10.773573</ele>
        <time>2020-10-07T07:23:14.981Z</time>
      </trkpt>
      <trkpt lat="58.40876" lon="21.98658">
        <ele>8.969478</ele>
        <time>2020-10-07T07:23:38.171Z</time>
      </trkpt>
      <trkpt lat="58.40803" lon="21.98624">
        <ele>8.203314</ele>
        <time>2020-10-07T07:23:52.310Z</time>
      </trkpt>
      <trkpt lat="58.40792" lon="21.98618">
        <ele>8.095078</ele>
        <time>2020-10-07T07:23:54.477Z</time>
      </trkpt>
      <trkpt lat="58.40692" lon="21.98594">
        <ele>7.167372</ele>
        <time>2020-10-07T07:24:14.463Z</time>
      </trkpt>
      <trkpt lat="58.40686" lon="21.98594">
        <ele>7.112082</ele>
        <time>2020-10-07T07:24:15.555Z</time>
      </trkpt>
      <trkpt lat="58.40633" lon="21.98594">
        <ele>7.078234</ele>
        <time>2020-10-07T07:24:26.703Z</time>
      </trkpt>
      <trkpt lat="58.40563" lon="21.98632">
        <ele>7.042253</ele>
        <time>2020-10-07T07:24:42.562Z</time>
      </trkpt>
      <trkpt lat="58.40512" lon="21.98697">
        <ele>7.049479</ele>
        <time>2020-10-07T07:24:57.237Z</time>
      </trkpt>
      <trkpt lat="58.40305" lon="21.9901">
        <ele>8.554956</ele>
        <time>2020-10-07T07:26:02.732Z</time>
      </trkpt>
      <trkpt lat="58.40217" lon="21.99168">
        <ele>9.069707</ele>
        <time>2020-10-07T07:26:32.274Z</time>
      </trkpt>
      <trkpt lat="58.40152" lon="21.99327">
        <ele>9.119413</ele>
        <time>2020-10-07T07:26:55.665Z</time>
      </trkpt>
      <trkpt lat="58.40131" lon="21.99434">
        <ele>9.136459</ele>
        <time>2020-10-07T07:27:08.451Z</time>
      </trkpt>
      <trkpt lat="58.40107" lon="21.9976">
        <ele>9.130234</ele>
        <time>2020-10-07T07:27:46.645Z</time>
      </trkpt>
      <trkpt lat="58.40073" lon="21.99944">
        <ele>9.42169</ele>
        <time>2020-10-07T07:28:11.331Z</time>
      </trkpt>
      <trkpt lat="58.40022" lon="22.00103">
        <ele>9.629826</ele>
        <time>2020-10-07T07:28:33.926Z</time>
      </trkpt>
      <trkpt lat="58.3998" lon="22.002">
        <ele>9.662817</ele>
        <time>2020-10-07T07:28:48.567Z</time>
      </trkpt>
      <trkpt lat="58.39953" lon="22.00254">
        <ele>9.682676</ele>
        <time>2020-10-07T07:28:57.257Z</time>
      </trkpt>
      <trkpt lat="58.39926" lon="22.00306">
        <ele>9.701789</ele>
        <time>2020-10-07T07:29:05.628Z</time>
      </trkpt>
      <trkpt lat="58.39411" lon="22.01022">
        <ele>11.261168</ele>
        <time>2020-10-07T07:31:34.432Z</time>
      </trkpt>
      <trkpt lat="58.38195" lon="22.02687">
        <ele>13.843377</ele>
        <time>2020-10-07T07:37:19.054Z</time>
      </trkpt>
      <trkpt lat="58.38118" lon="22.02829">
        <ele>13.590292</ele>
        <time>2020-10-07T07:37:41.620Z</time>
      </trkpt>
      <trkpt lat="58.38003" lon="22.03168">
        <ele>12.907536</ele>
        <time>2020-10-07T07:38:25.536Z</time>
      </trkpt>
      <trkpt lat="58.37913" lon="22.03357">
        <ele>12.737149</ele>
        <time>2020-10-07T07:38:55.466Z</time>
      </trkpt>
      <trkpt lat="58.37383" lon="22.04149">
        <ele>13.167347</ele>
        <time>2020-10-07T07:41:26.825Z</time>
      </trkpt>
      <trkpt lat="58.37352" lon="22.04196">
        <ele>13.274086</ele>
        <time>2020-10-07T07:41:36.229Z</time>
      </trkpt>
      <trkpt lat="58.37333" lon="22.04223">
        <ele>13.339946</ele>
        <time>2020-10-07T07:41:42.038Z</time>
      </trkpt>
      <trkpt lat="58.37297" lon="22.04282">
        <ele>13.467816</ele>
        <time>2020-10-07T07:41:53.298Z</time>
      </trkpt>
      <trkpt lat="58.37272" lon="22.04321">
        <ele>13.555789</ele>
        <time>2020-10-07T07:42:01.056Z</time>
      </trkpt>
      <trkpt lat="58.37035" lon="22.0467">
        <ele>14.238449</ele>
        <time>2020-10-07T07:43:09.585Z</time>
      </trkpt>
      <trkpt lat="58.36902" lon="22.04866">
        <ele>15.037687</ele>
        <time>2020-10-07T07:43:50.366Z</time>
      </trkpt>
      <trkpt lat="58.36804" lon="22.05012">
        <ele>15.843791</ele>
        <time>2020-10-07T07:44:22.107Z</time>
      </trkpt>
      <trkpt lat="58.36544" lon="22.05405">
        <ele>18.024285</ele>
        <time>2020-10-07T07:45:44.539Z</time>
      </trkpt>
      <trkpt lat="58.36428" lon="22.05581">
        <ele>19.030748</ele>
        <time>2020-10-07T07:46:22.073Z</time>
      </trkpt>
      <trkpt lat="58.36418" lon="22.05535">
        <ele>19.209238</ele>
        <time>2020-10-07T07:46:28.617Z</time>
      </trkpt>
      <trkpt lat="58.3641" lon="22.05498">
        <ele>19.255588</ele>
        <time>2020-10-07T07:46:33.730Z</time>
      </trkpt>
      <trkpt lat="58.36387" lon="22.05298">
        <ele>19.436747</ele>
        <time>2020-10-07T07:46:58.910Z</time>
      </trkpt>
      <trkpt lat="58.36316" lon="22.04705">
        <ele>18.607787</ele>
        <time>2020-10-07T07:48:06.646Z</time>
      </trkpt>
      <trkpt lat="58.36284" lon="22.04468">
        <ele>17.847539</ele>
        <time>2020-10-07T07:48:32.461Z</time>
      </trkpt>
      <trkpt lat="58.36277" lon="22.04411">
        <ele>17.586782</ele>
        <time>2020-10-07T07:48:38.565Z</time>
      </trkpt>
      <trkpt lat="58.3627" lon="22.04385">
        <ele>17.460576</ele>
        <time>2020-10-07T07:48:41.499Z</time>
      </trkpt>
      <trkpt lat="58.36259" lon="22.04356">
        <ele>17.299478</ele>
        <time>2020-10-07T07:48:45.180Z</time>
      </trkpt>
      <trkpt lat="58.36233" lon="22.04309">
        <ele>16.997803</ele>
        <time>2020-10-07T07:48:52.057Z</time>
      </trkpt>
      <trkpt lat="58.36193" lon="22.04234">
        <ele>16.617678</ele>
        <time>2020-10-07T07:49:03.007Z</time>
      </trkpt>
      <trkpt lat="58.36139" lon="22.04133">
        <ele>16.624748</ele>
        <time>2020-10-07T07:49:18.968Z</time>
      </trkpt>
      <trkpt lat="58.36016" lon="22.039">
        <ele>17.008918</ele>
        <time>2020-10-07T07:50:00.799Z</time>
      </trkpt>
      <trkpt lat="58.36001" lon="22.03872">
        <ele>17.10736</ele>
        <time>2020-10-07T07:50:06.390Z</time>
      </trkpt>
      <trkpt lat="58.35969" lon="22.03823">
        <ele>17.299593</ele>
        <time>2020-10-07T07:50:16.809Z</time>
      </trkpt>
      <trkpt lat="58.35883" lon="22.03687">
        <ele>16.824687</ele>
        <time>2020-10-07T07:50:42.193Z</time>
      </trkpt>
      <trkpt lat="58.35861" lon="22.03653">
        <ele>16.575495</ele>
        <time>2020-10-07T07:50:47.780Z</time>
      </trkpt>
      <trkpt lat="58.35786" lon="22.03577">
        <ele>15.703938</ele>
        <time>2020-10-07T07:51:03.060Z</time>
      </trkpt>
      <trkpt lat="58.35727" lon="22.03541">
        <ele>14.110717</ele>
        <time>2020-10-07T07:51:13.607Z</time>
      </trkpt>
      <trkpt lat="58.3571" lon="22.03531">
        <ele>13.632258</ele>
        <time>2020-10-07T07:51:16.649Z</time>
      </trkpt>
      <trkpt lat="58.35595" lon="22.03425">
        <ele>10.566702</ele>
        <time>2020-10-07T07:51:37.864Z</time>
      </trkpt>
      <trkpt lat="58.35493" lon="22.03331">
        <ele>8.352417</ele>
        <time>2020-10-07T07:51:57.733Z</time>
      </trkpt>
      <trkpt lat="58.3543" lon="22.03298">
        <ele>7.6337</ele>
        <time>2020-10-07T07:52:10.493Z</time>
      </trkpt>
      <trkpt lat="58.35357" lon="22.033">
        <ele>7.455394</ele>
        <time>2020-10-07T07:52:25.914Z</time>
      </trkpt>
      <trkpt lat="58.35326" lon="22.0331">
        <ele>7.378372</ele>
        <time>2020-10-07T07:52:33.142Z</time>
      </trkpt>
      <trkpt lat="58.35277" lon="22.0333">
        <ele>7.313675</ele>
        <time>2020-10-07T07:52:45.028Z</time>
      </trkpt>
      <trkpt lat="58.35201" lon="22.0334">
        <ele>7.653711</ele>
        <time>2020-10-07T07:53:03.218Z</time>
      </trkpt>
      <trkpt lat="58.34967" lon="22.03254">
        <ele>8.933257</ele>
        <time>2020-10-07T07:54:01.129Z</time>
      </trkpt>
      <trkpt lat="58.34699" lon="22.03155">
        <ele>11.412627</ele>
        <time>2020-10-07T07:55:11.529Z</time>
      </trkpt>
      <trkpt lat="58.34649" lon="22.03137">
        <ele>12.045146</ele>
        <time>2020-10-07T07:55:25.028Z</time>
      </trkpt>
      <trkpt lat="58.34305" lon="22.0301">
        <ele>17.739145</ele>
        <time>2020-10-07T07:57:07.071Z</time>
      </trkpt>
      <trkpt lat="58.33941" lon="22.02872">
        <ele>23.874772</ele>
        <time>2020-10-07T07:58:56.790Z</time>
      </trkpt>
      <trkpt lat="58.33726" lon="22.02797">
        <ele>25.316109</ele>
        <time>2020-10-07T07:59:50.477Z</time>
      </trkpt>
      <trkpt lat="58.33596" lon="22.02747">
        <ele>24.52871</ele>
        <time>2020-10-07T08:00:17.405Z</time>
      </trkpt>
      <trkpt lat="58.33055" lon="22.02537">
        <ele>17.27431</ele>
        <time>2020-10-07T08:01:59.177Z</time>
      </trkpt>
      <trkpt lat="58.32742" lon="22.02427">
        <ele>15.672402</ele>
        <time>2020-10-07T08:03:05.873Z</time>
      </trkpt>
      <trkpt lat="58.32354" lon="22.02273">
        <ele>14.786179</ele>
        <time>2020-10-07T08:04:30.500Z</time>
      </trkpt>
      <trkpt lat="58.32293" lon="22.02241">
        <ele>14.734943</ele>
        <time>2020-10-07T08:04:45.081Z</time>
      </trkpt>
      <trkpt lat="58.32195" lon="22.02215">
        <ele>14.879724</ele>
        <time>2020-10-07T08:05:07.884Z</time>
      </trkpt>
      <trkpt lat="58.32169" lon="22.02216">
        <ele>14.923222</ele>
        <time>2020-10-07T08:05:13.943Z</time>
      </trkpt>
      <trkpt lat="58.32155" lon="22.02219">
        <ele>14.945385</ele>
        <time>2020-10-07T08:05:16.988Z</time>
      </trkpt>
      <trkpt lat="58.32036" lon="22.02251">
        <ele>15.193937</ele>
        <time>2020-10-07T08:05:44.318Z</time>
      </trkpt>
      <trkpt lat="58.3192" lon="22.02297">
        <ele>15.506368</ele>
        <time>2020-10-07T08:06:11.983Z</time>
      </trkpt>
      <trkpt lat="58.31697" lon="22.02359">
        <ele>16.908629</ele>
        <time>2020-10-07T08:07:08.150Z</time>
      </trkpt>
      <trkpt lat="58.31365" lon="22.02462">
        <ele>19.093907</ele>
        <time>2020-10-07T08:08:32.182Z</time>
      </trkpt>
      <trkpt lat="58.31152" lon="22.02493">
        <ele>19.83884</ele>
        <time>2020-10-07T08:09:22.960Z</time>
      </trkpt>
      <trkpt lat="58.31018" lon="22.02477">
        <ele>19.991559</ele>
        <time>2020-10-07T08:09:53.253Z</time>
      </trkpt>
      <trkpt lat="58.30664" lon="22.02408">
        <ele>19.868781</ele>
        <time>2020-10-07T08:11:11.805Z</time>
      </trkpt>
      <trkpt lat="58.30582" lon="22.02425">
        <ele>19.75466</ele>
        <time>2020-10-07T08:11:30.011Z</time>
      </trkpt>
      <trkpt lat="58.30335" lon="22.02571">
        <ele>19.289291</ele>
        <time>2020-10-07T08:12:25.801Z</time>
      </trkpt>
      <trkpt lat="58.30176" lon="22.02673">
        <ele>18.865812</ele>
        <time>2020-10-07T08:13:01.418Z</time>
      </trkpt>
      <trkpt lat="58.30068" lon="22.02726">
        <ele>18.605424</ele>
        <time>2020-10-07T08:13:24.988Z</time>
      </trkpt>
      <trkpt lat="58.29991" lon="22.02736">
        <ele>18.427515</ele>
        <time>2020-10-07T08:13:41.290Z</time>
      </trkpt>
      <trkpt lat="58.29914" lon="22.02725">
        <ele>19.069162</ele>
        <time>2020-10-07T08:13:59.936Z</time>
      </trkpt>
      <trkpt lat="58.29877" lon="22.02708">
        <ele>19.427916</ele>
        <time>2020-10-07T08:14:10.116Z</time>
      </trkpt>
      <trkpt lat="58.29819" lon="22.02683">
        <ele>19.97549</ele>
        <time>2020-10-07T08:14:26.925Z</time>
      </trkpt>
      <trkpt lat="58.29679" lon="22.02584">
        <ele>21.686258</ele>
        <time>2020-10-07T08:15:09.219Z</time>
      </trkpt>
      <trkpt lat="58.29676" lon="22.02581">
        <ele>21.724438</ele>
        <time>2020-10-07T08:15:10.010Z</time>
      </trkpt>
      <trkpt lat="58.29545" lon="22.02489">
        <ele>21.926137</ele>
        <time>2020-10-07T08:15:41.765Z</time>
      </trkpt>
      <trkpt lat="58.29462" lon="22.02456">
        <ele>21.678844</ele>
        <time>2020-10-07T08:15:58.705Z</time>
      </trkpt>
      <trkpt lat="58.2937" lon="22.02436">
        <ele>20.746615</ele>
        <time>2020-10-07T08:16:16.935Z</time>
      </trkpt>
      <trkpt lat="58.29193" lon="22.02421">
        <ele>18.813757</ele>
        <time>2020-10-07T08:16:50.427Z</time>
      </trkpt>
      <trkpt lat="58.29012" lon="22.02406">
        <ele>16.887461</ele>
        <time>2020-10-07T08:17:24.891Z</time>
      </trkpt>
      <trkpt lat="58.28881" lon="22.02433">
        <ele>15.832328</ele>
        <time>2020-10-07T08:17:51.118Z</time>
      </trkpt>
      <trkpt lat="58.28755" lon="22.02502">
        <ele>15.157747</ele>
        <time>2020-10-07T08:18:18.298Z</time>
      </trkpt>
      <trkpt lat="58.28715" lon="22.02493">
        <ele>15.089974</ele>
        <time>2020-10-07T08:18:26.891Z</time>
      </trkpt>
      <trkpt lat="58.28544" lon="22.02402">
        <ele>14.861688</ele>
        <time>2020-10-07T08:19:05.670Z</time>
      </trkpt>
      <trkpt lat="58.2839" lon="22.0236">
        <ele>14.85393</ele>
        <time>2020-10-07T08:19:40.843Z</time>
      </trkpt>
      <trkpt lat="58.28293" lon="22.02358">
        <ele>14.682355</ele>
        <time>2020-10-07T08:20:02.010Z</time>
      </trkpt>
      <trkpt lat="58.27965" lon="22.0241">
        <ele>13.474876</ele>
        <time>2020-10-07T08:21:09.989Z</time>
      </trkpt>
      <trkpt lat="58.27754" lon="22.02443">
        <ele>13.193238</ele>
        <time>2020-10-07T08:21:56.532Z</time>
      </trkpt>
      <trkpt lat="58.27187" lon="22.02539">
        <ele>13.906163</ele>
        <time>2020-10-07T08:24:06.027Z</time>
      </trkpt>
      <trkpt lat="58.27094" lon="22.02554">
        <ele>14.188169</ele>
        <time>2020-10-07T08:24:28.364Z</time>
      </trkpt>
      <trkpt lat="58.27064" lon="22.02559">
        <ele>14.297786</ele>
        <time>2020-10-07T08:24:35.574Z</time>
      </trkpt>
      <trkpt lat="58.2682" lon="22.026">
        <ele>15.045414</ele>
        <time>2020-10-07T08:25:33.865Z</time>
      </trkpt>
      <trkpt lat="58.26824" lon="22.03321">
        <ele>14.827025</ele>
        <time>2020-10-07T08:27:53.444Z</time>
      </trkpt>
      <trkpt lat="58.26839" lon="22.03539">
        <ele>14.791674</ele>
        <time>2020-10-07T08:28:36.577Z</time>
      </trkpt>
      <trkpt lat="58.2686" lon="22.03691">
        <ele>14.760091</ele>
        <time>2020-10-07T08:29:07.081Z</time>
      </trkpt>
      <trkpt lat="58.26861" lon="22.03701">
        <ele>14.752907</ele>
        <time>2020-10-07T08:29:09.094Z</time>
      </trkpt>
      <trkpt lat="58.26881" lon="22.03802">
        <ele>14.678214</ele>
        <time>2020-10-07T08:29:29.877Z</time>
      </trkpt>
      <trkpt lat="58.26908" lon="22.03926">
        <ele>14.584443</ele>
        <time>2020-10-07T08:29:55.824Z</time>
      </trkpt>
      <trkpt lat="58.26964" lon="22.04125">
        <ele>14.451121</ele>
        <time>2020-10-07T08:30:39.181Z</time>
      </trkpt>
      <trkpt lat="58.26965" lon="22.04129">
        <ele>14.448905</ele>
        <time>2020-10-07T08:30:39.945Z</time>
      </trkpt>
      <trkpt lat="58.27018" lon="22.04265">
        <ele>14.357254</ele>
        <time>2020-10-07T08:31:12.701Z</time>
      </trkpt>
      <trkpt lat="58.2708" lon="22.044">
        <ele>14.637222</ele>
        <time>2020-10-07T08:31:48.340Z</time>
      </trkpt>
      <trkpt lat="58.27091" lon="22.0442">
        <ele>14.686445</ele>
        <time>2020-10-07T08:31:53.991Z</time>
      </trkpt>
      <trkpt lat="58.27155" lon="22.0454">
        <ele>15.067159</ele>
        <time>2020-10-07T08:32:29.257Z</time>
      </trkpt>
      <trkpt lat="58.27496" lon="22.05105">
        <ele>19.480214</ele>
        <time>2020-10-07T08:35:36.052Z</time>
      </trkpt>
      <trkpt lat="58.27576" lon="22.05294">
        <ele>20.508206</ele>
        <time>2020-10-07T08:36:27.164Z</time>
      </trkpt>
      <trkpt lat="58.27637" lon="22.05486">
        <ele>21.255942</ele>
        <time>2020-10-07T08:37:13.778Z</time>
      </trkpt>
      <trkpt lat="58.27687" lon="22.05693">
        <ele>22.362188</ele>
        <time>2020-10-07T08:38:01.595Z</time>
      </trkpt>
      <trkpt lat="58.27723" lon="22.05917">
        <ele>23.837771</ele>
        <time>2020-10-07T08:38:53.809Z</time>
      </trkpt>
      <trkpt lat="58.27741" lon="22.06084">
        <ele>25.200848</ele>
        <time>2020-10-07T08:39:33.395Z</time>
      </trkpt>
      <trkpt lat="58.27746" lon="22.06216">
        <ele>26.120995</ele>
        <time>2020-10-07T08:40:03.868Z</time>
      </trkpt>
      <trkpt lat="58.27748" lon="22.06336">
        <ele>26.815028</ele>
        <time>2020-10-07T08:40:30.887Z</time>
      </trkpt>
      <trkpt lat="58.27735" lon="22.06587">
        <ele>27.74224</ele>
        <time>2020-10-07T08:41:23.466Z</time>
      </trkpt>
      <trkpt lat="58.27739" lon="22.06625">
        <ele>27.744799</ele>
        <time>2020-10-07T08:41:31.223Z</time>
      </trkpt>
      <trkpt lat="58.2775" lon="22.0666">
        <ele>27.747402</ele>
        <time>2020-10-07T08:41:39.037Z</time>
      </trkpt>
      <trkpt lat="58.27706" lon="22.06755">
        <ele>27.755523</ele>
        <time>2020-10-07T08:41:53.319Z</time>
      </trkpt>
      <trkpt lat="58.27715" lon="22.06776">
        <ele>27.757211</ele>
        <time>2020-10-07T08:41:56.116Z</time>
      </trkpt>
      <trkpt lat="58.2772" lon="22.06802">
        <ele>27.723504</ele>
        <time>2020-10-07T08:41:59.206Z</time>
      </trkpt>
      <trkpt lat="58.2772" lon="22.06841">
        <ele>27.581667</ele>
        <time>2020-10-07T08:42:03.389Z</time>
      </trkpt>
      <trkpt lat="58.27703" lon="22.07193">
        <ele>26.239552</ele>
        <time>2020-10-07T08:42:40.444Z</time>
      </trkpt>
      <trkpt lat="58.27713" lon="22.07517">
        <ele>24.738659</ele>
        <time>2020-10-07T08:43:13.692Z</time>
      </trkpt>
      <trkpt lat="58.27741" lon="22.07824">
        <ele>23.443138</ele>
        <time>2020-10-07T08:43:46.096Z</time>
      </trkpt>
      <trkpt lat="58.27802" lon="22.08175">
        <ele>23.220142</ele>
        <time>2020-10-07T08:44:27.241Z</time>
      </trkpt>
      <trkpt lat="58.28087" lon="22.09565">
        <ele>33.373447</ele>
        <time>2020-10-07T08:48:02.156Z</time>
      </trkpt>
      <trkpt lat="58.28204" lon="22.09959">
        <ele>39.280929</ele>
        <time>2020-10-07T08:49:21.777Z</time>
      </trkpt>
      <trkpt lat="58.28265" lon="22.10092">
        <ele>41.411124</ele>
        <time>2020-10-07T08:49:52.893Z</time>
      </trkpt>
      <trkpt lat="58.2839" lon="22.10239">
        <ele>44.014881</ele>
        <time>2020-10-07T08:50:35.879Z</time>
      </trkpt>
      <trkpt lat="58.28479" lon="22.10343">
        <ele>44.656358</ele>
        <time>2020-10-07T08:51:01.790Z</time>
      </trkpt>
      <trkpt lat="58.28497" lon="22.10378">
        <ele>44.814223</ele>
        <time>2020-10-07T08:51:07.512Z</time>
      </trkpt>
      <trkpt lat="58.28548" lon="22.10479">
        <ele>44.878246</ele>
        <time>2020-10-07T08:51:23.263Z</time>
      </trkpt>
      <trkpt lat="58.28593" lon="22.10627">
        <ele>44.697707</ele>
        <time>2020-10-07T08:51:42.585Z</time>
      </trkpt>
      <trkpt lat="58.28614" lon="22.10781">
        <ele>44.678357</ele>
        <time>2020-10-07T08:52:00.495Z</time>
      </trkpt>
      <trkpt lat="58.28618" lon="22.10952">
        <ele>44.817126</ele>
        <time>2020-10-07T08:52:20.398Z</time>
      </trkpt>
      <trkpt lat="58.28538" lon="22.12464">
        <ele>50.47888</ele>
        <time>2020-10-07T08:55:42.505Z</time>
      </trkpt>
      <trkpt lat="58.28535" lon="22.12717">
        <ele>51.634046</ele>
        <time>2020-10-07T08:56:17.987Z</time>
      </trkpt>
      <trkpt lat="58.28532" lon="22.12865">
        <ele>51.329829</ele>
        <time>2020-10-07T08:56:36.235Z</time>
      </trkpt>
      <trkpt lat="58.28517" lon="22.1356">
        <ele>47.10722</ele>
        <time>2020-10-07T08:57:44.365Z</time>
      </trkpt>
      <trkpt lat="58.285" lon="22.13849">
        <ele>45.149607</ele>
        <time>2020-10-07T08:58:13.080Z</time>
      </trkpt>
      <trkpt lat="58.28468" lon="22.14183">
        <ele>43.647591</ele>
        <time>2020-10-07T08:58:47.597Z</time>
      </trkpt>
      <trkpt lat="58.28229" lon="22.16334">
        <ele>42.839064</ele>
        <time>2020-10-07T09:03:04.431Z</time>
      </trkpt>
      <trkpt lat="58.28166" lon="22.16798">
        <ele>42.182049</ele>
        <time>2020-10-07T09:03:57.076Z</time>
      </trkpt>
      <trkpt lat="58.28103" lon="22.17266">
        <ele>43.038289</ele>
        <time>2020-10-07T09:04:57.026Z</time>
      </trkpt>
      <trkpt lat="58.28088" lon="22.17426">
        <ele>43.55404</ele>
        <time>2020-10-07T09:05:18.983Z</time>
      </trkpt>
      <trkpt lat="58.28076" lon="22.17632">
        <ele>44.393581</ele>
        <time>2020-10-07T09:05:47.343Z</time>
      </trkpt>
      <trkpt lat="58.28076" lon="22.17678">
        <ele>44.584729</ele>
        <time>2020-10-07T09:05:53.635Z</time>
      </trkpt>
      <trkpt lat="58.28076" lon="22.17925">
        <ele>45.217482</ele>
        <time>2020-10-07T09:06:25.930Z</time>
      </trkpt>
      <trkpt lat="58.2809" lon="22.18212">
        <ele>45.33572</ele>
        <time>2020-10-07T09:06:59.752Z</time>
      </trkpt>
      <trkpt lat="58.28127" lon="22.18512">
        <ele>44.772283</ele>
        <time>2020-10-07T09:07:33.380Z</time>
      </trkpt>
      <trkpt lat="58.28184" lon="22.1879">
        <ele>43.97906</ele>
        <time>2020-10-07T09:08:05.572Z</time>
      </trkpt>
      <trkpt lat="58.28246" lon="22.19013">
        <ele>43.231538</ele>
        <time>2020-10-07T09:08:32.594Z</time>
      </trkpt>
      <trkpt lat="58.28321" lon="22.19234">
        <ele>42.68259</ele>
        <time>2020-10-07T09:09:01.166Z</time>
      </trkpt>
      <trkpt lat="58.28786" lon="22.2038">
        <ele>41.021413</ele>
        <time>2020-10-07T09:11:47.828Z</time>
      </trkpt>
      <trkpt lat="58.28817" lon="22.20471">
        <ele>40.446261</ele>
        <time>2020-10-07T09:11:58.211Z</time>
      </trkpt>
      <trkpt lat="58.28901" lon="22.20715">
        <ele>36.718607</ele>
        <time>2020-10-07T09:12:24.168Z</time>
      </trkpt>
      <trkpt lat="58.28973" lon="22.20955">
        <ele>32.698229</ele>
        <time>2020-10-07T09:12:48.076Z</time>
      </trkpt>
      <trkpt lat="58.29049" lon="22.2123">
        <ele>29.924831</ele>
        <time>2020-10-07T09:13:16.374Z</time>
      </trkpt>
      <trkpt lat="58.2891" lon="22.2131">
        <ele>30.317723</ele>
        <time>2020-10-07T09:14:12.965Z</time>
      </trkpt>
      <trkpt lat="58.28869" lon="22.2131">
        <ele>30.946469</ele>
        <time>2020-10-07T09:14:31.961Z</time>
      </trkpt>
      <trkpt lat="58.28829" lon="22.21273">
        <ele>31.629032</ele>
        <time>2020-10-07T09:14:52.898Z</time>
      </trkpt>
      <trkpt lat="58.28752" lon="22.21242">
        <ele>32.995963</ele>
        <time>2020-10-07T09:15:29.648Z</time>
      </trkpt>
      <trkpt lat="58.28682" lon="22.21181">
        <ele>34.389334</ele>
        <time>2020-10-07T09:16:04.549Z</time>
      </trkpt>
      <trkpt lat="58.28649" lon="22.21164">
        <ele>35.01278</ele>
        <time>2020-10-07T09:16:19.547Z</time>
      </trkpt>
      <trkpt lat="58.28255" lon="22.2127">
        <ele>34.569867</ele>
        <time>2020-10-07T09:18:44.839Z</time>
      </trkpt>
      <trkpt lat="58.28233" lon="22.21283">
        <ele>34.369324</ele>
        <time>2020-10-07T09:18:52.603Z</time>
      </trkpt>
      <trkpt lat="58.28188" lon="22.21315">
        <ele>33.967142</ele>
        <time>2020-10-07T09:19:08.370Z</time>
      </trkpt>
      <trkpt lat="58.27658" lon="22.21717">
        <ele>29.068862</ele>
        <time>2020-10-07T09:22:23.363Z</time>
      </trkpt>
      <trkpt lat="58.27608" lon="22.21772">
        <ele>28.680044</ele>
        <time>2020-10-07T09:22:43.576Z</time>
      </trkpt>
      <trkpt lat="58.27259" lon="22.22264">
        <ele>27.794379</ele>
        <time>2020-10-07T09:25:20.360Z</time>
      </trkpt>
      <trkpt lat="58.2694" lon="22.22537">
        <ele>30.214742</ele>
        <time>2020-10-07T09:27:41.220Z</time>
      </trkpt>
      <trkpt lat="58.26842" lon="22.22664">
        <ele>31.318325</ele>
        <time>2020-10-07T09:28:30.453Z</time>
      </trkpt>
      <trkpt lat="58.26669" lon="22.22826">
        <ele>32.80915</ele>
        <time>2020-10-07T09:29:48.380Z</time>
      </trkpt>
      <trkpt lat="58.26538" lon="22.22907">
        <ele>33.314307</ele>
        <time>2020-10-07T09:30:41.316Z</time>
      </trkpt>
      <trkpt lat="58.26488" lon="22.22947">
        <ele>33.387099</ele>
        <time>2020-10-07T09:31:01.620Z</time>
      </trkpt>
      <trkpt lat="58.26405" lon="22.22969">
        <ele>33.442783</ele>
        <time>2020-10-07T09:31:33.107Z</time>
      </trkpt>
      <trkpt lat="58.26333" lon="22.23002">
        <ele>33.42242</ele>
        <time>2020-10-07T09:32:00.748Z</time>
      </trkpt>
      <trkpt lat="58.26253" lon="22.23023">
        <ele>33.195343</ele>
        <time>2020-10-07T09:32:30.042Z</time>
      </trkpt>
      <trkpt lat="58.26176" lon="22.23043">
        <ele>32.977365</ele>
        <time>2020-10-07T09:32:57.524Z</time>
      </trkpt>
      <trkpt lat="58.26107" lon="22.23058">
        <ele>32.500644</ele>
        <time>2020-10-07T09:33:21.728Z</time>
      </trkpt>
      <trkpt lat="58.26042" lon="22.23084">
        <ele>32.035145</ele>
        <time>2020-10-07T09:33:44.628Z</time>
      </trkpt>
      <trkpt lat="58.25971" lon="22.23094">
        <ele>31.527763</ele>
        <time>2020-10-07T09:34:09.095Z</time>
      </trkpt>
      <trkpt lat="58.2581" lon="22.23067">
        <ele>30.403312</ele>
        <time>2020-10-07T09:35:04.923Z</time>
      </trkpt>
      <trkpt lat="58.25797" lon="22.23077">
        <ele>30.415035</ele>
        <time>2020-10-07T09:35:10.281Z</time>
      </trkpt>
      <trkpt lat="58.25794" lon="22.23119">
        <ele>30.43341</ele>
        <time>2020-10-07T09:35:18.055Z</time>
      </trkpt>
      <trkpt lat="58.25722" lon="22.23067">
        <ele>30.497719</ele>
        <time>2020-10-07T09:35:35.580Z</time>
      </trkpt>
      <trkpt lat="58.25423" lon="22.23004">
        <ele>31.560676</ele>
        <time>2020-10-07T09:36:48.944Z</time>
      </trkpt>
      <trkpt lat="58.2493" lon="22.22769">
        <ele>31.452954</ele>
        <time>2020-10-07T09:38:40.767Z</time>
      </trkpt>
      <trkpt lat="58.24846" lon="22.2273">
        <ele>31.294096</ele>
        <time>2020-10-07T09:38:59.404Z</time>
      </trkpt>
      <trkpt lat="58.24646" lon="22.22635">
        <ele>30.833335</ele>
        <time>2020-10-07T09:39:43.732Z</time>
      </trkpt>
      <trkpt lat="58.24516" lon="22.22606">
        <ele>30.288628</ele>
        <time>2020-10-07T09:40:11.231Z</time>
      </trkpt>
      <trkpt lat="58.24487" lon="22.22609">
        <ele>30.144404</ele>
        <time>2020-10-07T09:40:17.324Z</time>
      </trkpt>
      <trkpt lat="58.24428" lon="22.22613">
        <ele>29.852863</ele>
        <time>2020-10-07T09:40:29.128Z</time>
      </trkpt>
      <trkpt lat="58.24334" lon="22.22643">
        <ele>29.000715</ele>
        <time>2020-10-07T09:40:48.006Z</time>
      </trkpt>
      <trkpt lat="58.23867" lon="22.2282">
        <ele>24.412654</ele>
        <time>2020-10-07T09:42:19.771Z</time>
      </trkpt>
      <trkpt lat="58.23516" lon="22.22834">
        <ele>22.068274</ele>
        <time>2020-10-07T09:43:30.376Z</time>
      </trkpt>
      <trkpt lat="58.2332" lon="22.22775">
        <ele>21.580089</ele>
        <time>2020-10-07T09:44:13.598Z</time>
      </trkpt>
      <trkpt lat="58.23026" lon="22.2273">
        <ele>20.806672</ele>
        <time>2020-10-07T09:45:16.972Z</time>
      </trkpt>
      <trkpt lat="58.22998" lon="22.22732">
        <ele>20.672143</ele>
        <time>2020-10-07T09:45:22.422Z</time>
      </trkpt>
      <trkpt lat="58.22977" lon="22.22748">
        <ele>20.441186</ele>
        <time>2020-10-07T09:45:26.967Z</time>
      </trkpt>
      <trkpt lat="58.22946" lon="22.22799">
        <ele>20.033901</ele>
        <time>2020-10-07T09:45:34.994Z</time>
      </trkpt>
      <trkpt lat="58.22933" lon="22.22839">
        <ele>19.787797</ele>
        <time>2020-10-07T09:45:39.707Z</time>
      </trkpt>
      <trkpt lat="58.22897" lon="22.22993">
        <ele>18.91423</ele>
        <time>2020-10-07T09:45:56.590Z</time>
      </trkpt>
      <trkpt lat="58.22867" lon="22.2307">
        <ele>18.485704</ele>
        <time>2020-10-07T09:46:06.136Z</time>
      </trkpt>
      <trkpt lat="58.22543" lon="22.23647">
        <ele>15.273634</ele>
        <time>2020-10-07T09:47:34.455Z</time>
      </trkpt>
      <trkpt lat="58.2252" lon="22.23718">
        <ele>15.109506</ele>
        <time>2020-10-07T09:47:44.739Z</time>
      </trkpt>
      <trkpt lat="58.22494" lon="22.23843">
        <ele>15.433018</ele>
        <time>2020-10-07T09:48:02.003Z</time>
      </trkpt>
      <trkpt lat="58.22465" lon="22.23939">
        <ele>15.703199</ele>
        <time>2020-10-07T09:48:16.814Z</time>
      </trkpt>
      <trkpt lat="58.22436" lon="22.23999">
        <ele>15.900785</ele>
        <time>2020-10-07T09:48:27.271Z</time>
      </trkpt>
      <trkpt lat="58.22369" lon="22.24088">
        <ele>15.68824</ele>
        <time>2020-10-07T09:48:45.700Z</time>
      </trkpt>
      <trkpt lat="58.22066" lon="22.24444">
        <ele>14.326221</ele>
        <time>2020-10-07T09:49:57.144Z</time>
      </trkpt>
      <trkpt lat="58.21839" lon="22.24769">
        <ele>16.031588</ele>
        <time>2020-10-07T09:51:11.308Z</time>
      </trkpt>
      <trkpt lat="58.21683" lon="22.24986">
        <ele>15.793092</ele>
        <time>2020-10-07T09:51:52.755Z</time>
      </trkpt>
      <trkpt lat="58.21448" lon="22.25128">
        <ele>14.933555</ele>
        <time>2020-10-07T09:52:42.886Z</time>
      </trkpt>
      <trkpt lat="58.21423" lon="22.25136">
        <ele>14.951654</ele>
        <time>2020-10-07T09:52:48.611Z</time>
      </trkpt>
      <trkpt lat="58.21173" lon="22.25216">
        <ele>16.238629</ele>
        <time>2020-10-07T09:53:52.978Z</time>
      </trkpt>
      <trkpt lat="58.21166" lon="22.25219">
        <ele>16.257878</ele>
        <time>2020-10-07T09:53:55.145Z</time>
      </trkpt>
      <trkpt lat="58.20856" lon="22.25351">
        <ele>16.25805</ele>
        <time>2020-10-07T09:55:04.496Z</time>
      </trkpt>
      <trkpt lat="58.20703" lon="22.25421">
        <ele>16.661009</ele>
        <time>2020-10-07T09:55:41.343Z</time>
      </trkpt>
      <trkpt lat="58.20593" lon="22.25401">
        <ele>16.94193</ele>
        <time>2020-10-07T09:56:08.077Z</time>
      </trkpt>
      <trkpt lat="58.20552" lon="22.25387">
        <ele>17.004903</ele>
        <time>2020-10-07T09:56:17.778Z</time>
      </trkpt>
      <trkpt lat="58.20407" lon="22.25354">
        <ele>17.062365</ele>
        <time>2020-10-07T09:56:49.848Z</time>
      </trkpt>
      <trkpt lat="58.20158" lon="22.25302">
        <ele>16.766727</ele>
        <time>2020-10-07T09:57:44.160Z</time>
      </trkpt>
      <trkpt lat="58.19162" lon="22.25087">
        <ele>16.743908</ele>
        <time>2020-10-07T10:01:28.001Z</time>
      </trkpt>
      <trkpt lat="58.18933" lon="22.25042">
        <ele>16.445126</ele>
        <time>2020-10-07T10:02:18.056Z</time>
      </trkpt>
      <trkpt lat="58.18809" lon="22.25018">
        <ele>16.116476</ele>
        <time>2020-10-07T10:02:44.482Z</time>
      </trkpt>
      <trkpt lat="58.18697" lon="22.24994">
        <ele>15.671311</ele>
        <time>2020-10-07T10:03:08.141Z</time>
      </trkpt>
      <trkpt lat="58.18618" lon="22.25026">
        <ele>15.227348</ele>
        <time>2020-10-07T10:03:24.742Z</time>
      </trkpt>
      <trkpt lat="58.18548" lon="22.25064">
        <ele>14.789343</ele>
        <time>2020-10-07T10:03:39.489Z</time>
      </trkpt>
      <trkpt lat="58.18398" lon="22.25169">
        <ele>13.589172</ele>
        <time>2020-10-07T10:04:11.120Z</time>
      </trkpt>
      <trkpt lat="58.18304" lon="22.25294">
        <ele>12.881657</ele>
        <time>2020-10-07T10:04:33.808Z</time>
      </trkpt>
      <trkpt lat="58.18258" lon="22.25438">
        <ele>12.565883</ele>
        <time>2020-10-07T10:04:52.747Z</time>
      </trkpt>
      <trkpt lat="58.18241" lon="22.25537">
        <ele>12.431737</ele>
        <time>2020-10-07T10:05:04.923Z</time>
      </trkpt>
      <trkpt lat="58.18228" lon="22.25642">
        <ele>12.494438</ele>
        <time>2020-10-07T10:05:17.604Z</time>
      </trkpt>
      <trkpt lat="58.18307" lon="22.25712">
        <ele>12.590376</ele>
        <time>2020-10-07T10:05:38.590Z</time>
      </trkpt>
      <trkpt lat="58.18333" lon="22.25739">
        <ele>12.640556</ele>
        <time>2020-10-07T10:05:45.716Z</time>
      </trkpt>
      <trkpt lat="58.18358" lon="22.25759">
        <ele>12.734225</ele>
        <time>2020-10-07T10:05:52.133Z</time>
      </trkpt>
      <trkpt lat="58.18386" lon="22.25791">
        <ele>12.849518</ele>
        <time>2020-10-07T10:06:00.014Z</time>
      </trkpt>
      <trkpt lat="58.18467" lon="22.25895">
        <ele>13.189648</ele>
        <time>2020-10-07T10:06:24.258Z</time>
      </trkpt>
      <trkpt lat="58.1848" lon="22.25912">
        <ele>13.248735</ele>
        <time>2020-10-07T10:06:28.405Z</time>
      </trkpt>
      <trkpt lat="58.18528" lon="22.25977">
        <ele>13.662832</ele>
        <time>2020-10-07T10:06:43.866Z</time>
      </trkpt>
      <trkpt lat="58.18611" lon="22.26081">
        <ele>14.354219</ele>
        <time>2020-10-07T10:07:09.895Z</time>
      </trkpt>
      <trkpt lat="58.18645" lon="22.26139">
        <ele>14.642548</ele>
        <time>2020-10-07T10:07:21.757Z</time>
      </trkpt>
      <trkpt lat="58.18755" lon="22.26283">
        <ele>15.398371</ele>
        <time>2020-10-07T10:07:55.785Z</time>
      </trkpt>
      <trkpt lat="58.1878" lon="22.26318">
        <ele>15.541565</ele>
        <time>2020-10-07T10:08:03.458Z</time>
      </trkpt>
      <trkpt lat="58.18817" lon="22.26366">
        <ele>15.657349</ele>
        <time>2020-10-07T10:08:14.693Z</time>
      </trkpt>
      <trkpt lat="58.18831" lon="22.26385">
        <ele>15.70309</ele>
        <time>2020-10-07T10:08:19.137Z</time>
      </trkpt>
      <trkpt lat="58.19049" lon="22.26678">
        <ele>15.916416</ele>
        <time>2020-10-07T10:09:22.082Z</time>
      </trkpt>
      <trkpt lat="58.19123" lon="22.26786">
        <ele>15.546512</ele>
        <time>2020-10-07T10:09:42.225Z</time>
      </trkpt>
      <trkpt lat="58.19199" lon="22.26913">
        <ele>15.047821</ele>
        <time>2020-10-07T10:10:03.530Z</time>
      </trkpt>
      <trkpt lat="58.19268" lon="22.2706">
        <ele>14.818216</ele>
        <time>2020-10-07T10:10:26.217Z</time>
      </trkpt>
      <trkpt lat="58.19466" lon="22.27558">
        <ele>14.757419</ele>
        <time>2020-10-07T10:11:43.408Z</time>
      </trkpt>
      <trkpt lat="58.19556" lon="22.27765">
        <ele>14.664042</ele>
        <time>2020-10-07T10:12:16.076Z</time>
      </trkpt>
      <trkpt lat="58.19738" lon="22.28129">
        <ele>13.650571</ele>
        <time>2020-10-07T10:13:13.793Z</time>
      </trkpt>
      <trkpt lat="58.19797" lon="22.28243">
        <ele>13.331555</ele>
        <time>2020-10-07T10:13:31.730Z</time>
      </trkpt>
      <trkpt lat="58.19793" lon="22.28253">
        <ele>13.326637</ele>
        <time>2020-10-07T10:13:33.204Z</time>
      </trkpt>
      <trkpt lat="58.19854" lon="22.28359">
        <ele>13.268328</ele>
        <time>2020-10-07T10:13:50.837Z</time>
      </trkpt>
      <trkpt lat="58.2002" lon="22.28672">
        <ele>13.911783</ele>
        <time>2020-10-07T10:14:46.746Z</time>
      </trkpt>
      <trkpt lat="58.20158" lon="22.2893">
        <ele>14.686415</ele>
        <time>2020-10-07T10:15:33.599Z</time>
      </trkpt>
      <trkpt lat="58.20249" lon="22.29115">
        <ele>14.628531</ele>
        <time>2020-10-07T10:16:03.613Z</time>
      </trkpt>
      <trkpt lat="58.20253" lon="22.29125">
        <ele>14.624715</ele>
        <time>2020-10-07T10:16:04.924Z</time>
      </trkpt>
      <trkpt lat="58.2026" lon="22.29112">
        <ele>14.618928</ele>
        <time>2020-10-07T10:16:07.020Z</time>
      </trkpt>
      <trkpt lat="58.20323" lon="22.29278">
        <ele>14.243871</ele>
        <time>2020-10-07T10:16:30.475Z</time>
      </trkpt>
      <trkpt lat="58.20375" lon="22.29423">
        <ele>13.792054</ele>
        <time>2020-10-07T10:16:50.301Z</time>
      </trkpt>
      <trkpt lat="58.20382" lon="22.29442">
        <ele>13.733233</ele>
        <time>2020-10-07T10:16:52.839Z</time>
      </trkpt>
      <trkpt lat="58.20556" lon="22.29881">
        <ele>11.728934</ele>
        <time>2020-10-07T10:17:53.748Z</time>
      </trkpt>
      <trkpt lat="58.20697" lon="22.3018">
        <ele>10.01987</ele>
        <time>2020-10-07T10:18:37.130Z</time>
      </trkpt>
      <trkpt lat="58.20777" lon="22.30327">
        <ele>9.328149</ele>
        <time>2020-10-07T10:19:00.382Z</time>
      </trkpt>
      <trkpt lat="58.20824" lon="22.30416">
        <ele>9.001337</ele>
        <time>2020-10-07T10:19:14.628Z</time>
      </trkpt>
      <trkpt lat="58.20915" lon="22.30587">
        <ele>8.974329</ele>
        <time>2020-10-07T10:19:44.072Z</time>
      </trkpt>
      <trkpt lat="58.20959" lon="22.30684">
        <ele>9.122829</ele>
        <time>2020-10-07T10:20:01.031Z</time>
      </trkpt>
      <trkpt lat="58.21057" lon="22.30899">
        <ele>9.729299</ele>
        <time>2020-10-07T10:20:39.331Z</time>
      </trkpt>
      <trkpt lat="58.21453" lon="22.31825">
        <ele>10.972441</ele>
        <time>2020-10-07T10:23:09.896Z</time>
      </trkpt>
      <trkpt lat="58.21476" lon="22.31873">
        <ele>11.020836</ele>
        <time>2020-10-07T10:23:17.712Z</time>
      </trkpt>
      <trkpt lat="58.21483" lon="22.31902">
        <ele>11.043752</ele>
        <time>2020-10-07T10:23:21.328Z</time>
      </trkpt>
      <trkpt lat="58.21482" lon="22.31922">
        <ele>11.058623</ele>
        <time>2020-10-07T10:23:23.706Z</time>
      </trkpt>
      <trkpt lat="58.21476" lon="22.31929">
        <ele>11.068893</ele>
        <time>2020-10-07T10:23:25.251Z</time>
      </trkpt>
      <trkpt lat="58.21469" lon="22.31938">
        <ele>11.079961</ele>
        <time>2020-10-07T10:23:27.101Z</time>
      </trkpt>
      <trkpt lat="58.21469" lon="22.31952">
        <ele>11.09086</ele>
        <time>2020-10-07T10:23:28.792Z</time>
      </trkpt>
      <trkpt lat="58.21642" lon="22.32485">
        <ele>11.755939</ele>
        <time>2020-10-07T10:24:45.696Z</time>
      </trkpt>
      <trkpt lat="58.21646" lon="22.32495">
        <ele>11.763363</ele>
        <time>2020-10-07T10:24:47.145Z</time>
      </trkpt>
      <trkpt lat="58.21658" lon="22.32531">
        <ele>11.786716</ele>
        <time>2020-10-07T10:24:52.171Z</time>
      </trkpt>
      <trkpt lat="58.21848" lon="22.33123">
        <ele>12.289167</ele>
        <time>2020-10-07T10:26:14.758Z</time>
      </trkpt>
      <trkpt lat="58.21877" lon="22.33228">
        <ele>12.444839</ele>
        <time>2020-10-07T10:26:29.860Z</time>
      </trkpt>
      <trkpt lat="58.21887" lon="22.33296">
        <ele>12.649513</ele>
        <time>2020-10-07T10:26:39.099Z</time>
      </trkpt>
      <trkpt lat="58.2189" lon="22.33313">
        <ele>12.701587</ele>
        <time>2020-10-07T10:26:41.503Z</time>
      </trkpt>
      <trkpt lat="58.219" lon="22.33359">
        <ele>12.843657</ele>
        <time>2020-10-07T10:26:47.985Z</time>
      </trkpt>
      <trkpt lat="58.2191" lon="22.33479">
        <ele>13.193583</ele>
        <time>2020-10-07T10:27:04.075Z</time>
      </trkpt>
      <trkpt lat="58.21922" lon="22.33699">
        <ele>13.334259</ele>
        <time>2020-10-07T10:27:31.434Z</time>
      </trkpt>
      <trkpt lat="58.21935" lon="22.3393">
        <ele>13.113984</ele>
        <time>2020-10-07T10:27:57.089Z</time>
      </trkpt>
      <trkpt lat="58.2195" lon="22.34096">
        <ele>12.600104</ele>
        <time>2020-10-07T10:28:14.742Z</time>
      </trkpt>
      <trkpt lat="58.22067" lon="22.34958">
        <ele>10.456813</ele>
        <time>2020-10-07T10:29:52.154Z</time>
      </trkpt>
      <trkpt lat="58.22113" lon="22.35293">
        <ele>9.763663</ele>
        <time>2020-10-07T10:30:30.847Z</time>
      </trkpt>
      <trkpt lat="58.22138" lon="22.35458">
        <ele>9.242294</ele>
        <time>2020-10-07T10:30:49.461Z</time>
      </trkpt>
      <trkpt lat="58.22169" lon="22.35631">
        <ele>8.468172</ele>
        <time>2020-10-07T10:31:08.546Z</time>
      </trkpt>
      <trkpt lat="58.22234" lon="22.35903">
        <ele>6.794912</ele>
        <time>2020-10-07T10:31:38.374Z</time>
      </trkpt>
      <trkpt lat="58.22278" lon="22.3605">
        <ele>5.800748</ele>
        <time>2020-10-07T10:31:55.190Z</time>
      </trkpt>
      <trkpt lat="58.22431" lon="22.36464">
        <ele>3.261571</ele>
        <time>2020-10-07T10:32:47.171Z</time>
      </trkpt>
      <trkpt lat="58.22485" lon="22.36627">
        <ele>2.787329</ele>
        <time>2020-10-07T10:33:07.831Z</time>
      </trkpt>
      <trkpt lat="58.22504" lon="22.36696">
        <ele>2.594638</ele>
        <time>2020-10-07T10:33:16.464Z</time>
      </trkpt>
      <trkpt lat="58.22611" lon="22.37179">
        <ele>2.874366</ele>
        <time>2020-10-07T10:34:19.232Z</time>
      </trkpt>
      <trkpt lat="58.22616" lon="22.37201">
        <ele>2.914794</ele>
        <time>2020-10-07T10:34:22.312Z</time>
      </trkpt>
      <trkpt lat="58.22655" lon="22.3738">
        <ele>3.244456</ele>
        <time>2020-10-07T10:34:46.990Z</time>
      </trkpt>
      <trkpt lat="58.22668" lon="22.37414">
        <ele>3.302462</ele>
        <time>2020-10-07T10:34:52.433Z</time>
      </trkpt>
      <trkpt lat="58.22745" lon="22.37767">
        <ele>3.642982</ele>
        <time>2020-10-07T10:35:38.870Z</time>
      </trkpt>
      <trkpt lat="58.22768" lon="22.37885">
        <ele>3.59966</ele>
        <time>2020-10-07T10:35:53.256Z</time>
      </trkpt>
      <trkpt lat="58.22786" lon="22.37954">
        <ele>3.573359</ele>
        <time>2020-10-07T10:36:01.800Z</time>
      </trkpt>
      <trkpt lat="58.22828" lon="22.3814">
        <ele>3.544926</ele>
        <time>2020-10-07T10:36:25.219Z</time>
      </trkpt>
      <trkpt lat="58.22839" lon="22.38221">
        <ele>3.536697</ele>
        <time>2020-10-07T10:36:34.933Z</time>
      </trkpt>
      <trkpt lat="58.22842" lon="22.38254">
        <ele>3.533343</ele>
        <time>2020-10-07T10:36:39.327Z</time>
      </trkpt>
      <trkpt lat="58.22847" lon="22.38311">
        <ele>3.528709</ele>
        <time>2020-10-07T10:36:46.279Z</time>
      </trkpt>
      <trkpt lat="58.2285" lon="22.38427">
        <ele>3.586949</ele>
        <time>2020-10-07T10:37:00.179Z</time>
      </trkpt>
      <trkpt lat="58.22846" lon="22.38448">
        <ele>3.598306</ele>
        <time>2020-10-07T10:37:03.011Z</time>
      </trkpt>
      <trkpt lat="58.22847" lon="22.38453">
        <ele>3.600543</ele>
        <time>2020-10-07T10:37:03.609Z</time>
      </trkpt>
      <trkpt lat="58.22847" lon="22.38458">
        <ele>3.603424</ele>
        <time>2020-10-07T10:37:04.282Z</time>
      </trkpt>
      <trkpt lat="58.22852" lon="22.38478">
        <ele>3.614283</ele>
        <time>2020-10-07T10:37:06.824Z</time>
      </trkpt>
      <trkpt lat="58.22868" lon="22.38933">
        <ele>3.751135</ele>
        <time>2020-10-07T10:38:00.618Z</time>
      </trkpt>
      <trkpt lat="58.22885" lon="22.393">
        <ele>4.05509</ele>
        <time>2020-10-07T10:38:45.147Z</time>
      </trkpt>
      <trkpt lat="58.22885" lon="22.39304">
        <ele>4.05906</ele>
        <time>2020-10-07T10:38:45.798Z</time>
      </trkpt>
      <trkpt lat="58.22929" lon="22.40223">
        <ele>4.757584</ele>
        <time>2020-10-07T10:40:37.680Z</time>
      </trkpt>
      <trkpt lat="58.22945" lon="22.40394">
        <ele>4.714917</ele>
        <time>2020-10-07T10:40:57.356Z</time>
      </trkpt>
      <trkpt lat="58.22975" lon="22.40556">
        <ele>4.461415</ele>
        <time>2020-10-07T10:41:16.459Z</time>
      </trkpt>
      <trkpt lat="58.23071" lon="22.41019">
        <ele>4.144306</ele>
        <time>2020-10-07T10:42:13.036Z</time>
      </trkpt>
      <trkpt lat="58.23102" lon="22.41171">
        <ele>4.628437</ele>
        <time>2020-10-07T10:42:34.143Z</time>
      </trkpt>
      <trkpt lat="58.23109" lon="22.41253">
        <ele>4.875661</ele>
        <time>2020-10-07T10:42:45.424Z</time>
      </trkpt>
      <trkpt lat="58.2316" lon="22.4149">
        <ele>5.529783</ele>
        <time>2020-10-07T10:43:19.717Z</time>
      </trkpt>
      <trkpt lat="58.23604" lon="22.43015">
        <ele>5.735163</ele>
        <time>2020-10-07T10:46:44.064Z</time>
      </trkpt>
      <trkpt lat="58.23657" lon="22.43215">
        <ele>5.665635</ele>
        <time>2020-10-07T10:47:09.599Z</time>
      </trkpt>
      <trkpt lat="58.23707" lon="22.43368">
        <ele>5.615676</ele>
        <time>2020-10-07T10:47:30.591Z</time>
      </trkpt>
      <trkpt lat="58.23727" lon="22.4344">
        <ele>5.657425</ele>
        <time>2020-10-07T10:47:40.396Z</time>
      </trkpt>
      <trkpt lat="58.23749" lon="22.43515">
        <ele>5.817886</ele>
        <time>2020-10-07T10:47:50.974Z</time>
      </trkpt>
      <trkpt lat="58.23772" lon="22.43614">
        <ele>6.019213</ele>
        <time>2020-10-07T10:48:04.549Z</time>
      </trkpt>
      <trkpt lat="58.23812" lon="22.43734">
        <ele>6.284006</ele>
        <time>2020-10-07T10:48:22.677Z</time>
      </trkpt>
      <trkpt lat="58.23854" lon="22.43889">
        <ele>6.62445</ele>
        <time>2020-10-07T10:48:44.866Z</time>
      </trkpt>
      <trkpt lat="58.23851" lon="22.43931">
        <ele>6.708509</ele>
        <time>2020-10-07T10:48:50.190Z</time>
      </trkpt>
      <trkpt lat="58.23851" lon="22.43944">
        <ele>6.733091</ele>
        <time>2020-10-07T10:48:51.814Z</time>
      </trkpt>
      <trkpt lat="58.23854" lon="22.43963">
        <ele>6.771833</ele>
        <time>2020-10-07T10:48:54.284Z</time>
      </trkpt>
      <trkpt lat="58.23858" lon="22.43976">
        <ele>6.800807</ele>
        <time>2020-10-07T10:48:56.117Z</time>
      </trkpt>
      <trkpt lat="58.23864" lon="22.43988">
        <ele>6.833776</ele>
        <time>2020-10-07T10:48:58.132Z</time>
      </trkpt>
      <trkpt lat="58.23886" lon="22.44014">
        <ele>6.897313</ele>
        <time>2020-10-07T10:49:04.236Z</time>
      </trkpt>
      <trkpt lat="58.24112" lon="22.44827">
        <ele>6.314399</ele>
        <time>2020-10-07T10:50:49.960Z</time>
      </trkpt>
      <trkpt lat="58.2413" lon="22.44885">
        <ele>6.246522</ele>
        <time>2020-10-07T10:50:57.491Z</time>
      </trkpt>
      <trkpt lat="58.24139" lon="22.44907">
        <ele>6.218273</ele>
        <time>2020-10-07T10:51:00.488Z</time>
      </trkpt>
      <trkpt lat="58.24184" lon="22.45007">
        <ele>6.013122</ele>
        <time>2020-10-07T10:51:14.983Z</time>
      </trkpt>
      <trkpt lat="58.24209" lon="22.45053">
        <ele>5.907666</ele>
        <time>2020-10-07T10:51:22.448Z</time>
      </trkpt>
      <trkpt lat="58.2429" lon="22.45175">
        <ele>5.575167</ele>
        <time>2020-10-07T10:51:44.660Z</time>
      </trkpt>
      <trkpt lat="58.24348" lon="22.45261">
        <ele>5.297225</ele>
        <time>2020-10-07T10:52:00.113Z</time>
      </trkpt>
      <trkpt lat="58.24388" lon="22.45322">
        <ele>5.10139</ele>
        <time>2020-10-07T10:52:10.816Z</time>
      </trkpt>
      <trkpt lat="58.24558" lon="22.45579">
        <ele>3.825588</ele>
        <time>2020-10-07T10:52:54.832Z</time>
      </trkpt>
      <trkpt lat="58.24596" lon="22.45657">
        <ele>3.506657</ele>
        <time>2020-10-07T10:53:06.098Z</time>
      </trkpt>
      <trkpt lat="58.24621" lon="22.45739">
        <ele>3.219981</ele>
        <time>2020-10-07T10:53:16.271Z</time>
      </trkpt>
      <trkpt lat="58.24634" lon="22.45806">
        <ele>3.00389</ele>
        <time>2020-10-07T10:53:23.995Z</time>
      </trkpt>
      <trkpt lat="58.24644" lon="22.45897">
        <ele>2.825078</ele>
        <time>2020-10-07T10:53:34.036Z</time>
      </trkpt>
      <trkpt lat="58.24646" lon="22.45971">
        <ele>2.767276</ele>
        <time>2020-10-07T10:53:42.175Z</time>
      </trkpt>
      <trkpt lat="58.24632" lon="22.46211">
        <ele>2.641816</ele>
        <time>2020-10-07T10:54:10.357Z</time>
      </trkpt>
      <trkpt lat="58.24637" lon="22.46238">
        <ele>2.717542</ele>
        <time>2020-10-07T10:54:14.196Z</time>
      </trkpt>
      <trkpt lat="58.24644" lon="22.46241">
        <ele>2.752928</ele>
        <time>2020-10-07T10:54:15.985Z</time>
      </trkpt>
      <trkpt lat="58.24649" lon="22.46243">
        <ele>2.774958</ele>
        <time>2020-10-07T10:54:17.148Z</time>
      </trkpt>
      <trkpt lat="58.24648" lon="22.46262">
        <ele>2.825651</ele>
        <time>2020-10-07T10:54:19.646Z</time>
      </trkpt>
      <trkpt lat="58.24646" lon="22.46299">
        <ele>2.920008</ele>
        <time>2020-10-07T10:54:24.285Z</time>
      </trkpt>
      <trkpt lat="58.24638" lon="22.46465">
        <ele>3.349824</ele>
        <time>2020-10-07T10:54:45.851Z</time>
      </trkpt>
      <trkpt lat="58.24637" lon="22.46494">
        <ele>3.426912</ele>
        <time>2020-10-07T10:54:49.790Z</time>
      </trkpt>
      <trkpt lat="58.24633" lon="22.46635">
        <ele>3.697217</ele>
        <time>2020-10-07T10:55:08.302Z</time>
      </trkpt>
      <trkpt lat="58.24636" lon="22.46654">
        <ele>3.732838</ele>
        <time>2020-10-07T10:55:10.809Z</time>
      </trkpt>
      <trkpt lat="58.24639" lon="22.46673">
        <ele>3.769162</ele>
        <time>2020-10-07T10:55:13.371Z</time>
      </trkpt>
      <trkpt lat="58.24644" lon="22.46697">
        <ele>3.817343</ele>
        <time>2020-10-07T10:55:16.772Z</time>
      </trkpt>
      <trkpt lat="58.24648" lon="22.46718">
        <ele>3.857612</ele>
        <time>2020-10-07T10:55:19.490Z</time>
      </trkpt>
      <trkpt lat="58.24696" lon="22.46899">
        <ele>4.046409</ele>
        <time>2020-10-07T10:55:43.443Z</time>
      </trkpt>
      <trkpt lat="58.24725" lon="22.46973">
        <ele>3.978626</ele>
        <time>2020-10-07T10:55:53.897Z</time>
      </trkpt>
      <trkpt lat="58.24737" lon="22.47018">
        <ele>3.940804</ele>
        <time>2020-10-07T10:55:59.540Z</time>
      </trkpt>
      <trkpt lat="58.24738" lon="22.47041">
        <ele>3.923464</ele>
        <time>2020-10-07T10:56:02.169Z</time>
      </trkpt>
      <trkpt lat="58.24739" lon="22.4708">
        <ele>3.895269</ele>
        <time>2020-10-07T10:56:06.295Z</time>
      </trkpt>
      <trkpt lat="58.24824" lon="22.47308">
        <ele>4.259819</ele>
        <time>2020-10-07T10:56:38.981Z</time>
      </trkpt>
      <trkpt lat="58.24836" lon="22.47343">
        <ele>4.34128</ele>
        <time>2020-10-07T10:56:44.678Z</time>
      </trkpt>
      <trkpt lat="58.24853" lon="22.47392">
        <ele>4.455682</ele>
        <time>2020-10-07T10:56:52.708Z</time>
      </trkpt>
      <trkpt lat="58.24822" lon="22.4743">
        <ele>4.797824</ele>
        <time>2020-10-07T10:57:02.615Z</time>
      </trkpt>
      <trkpt lat="58.24807" lon="22.47449">
        <ele>5.030438</ele>
        <time>2020-10-07T10:57:07.441Z</time>
      </trkpt>
      <trkpt lat="58.24798" lon="22.47463">
        <ele>5.182032</ele>
        <time>2020-10-07T10:57:10.469Z</time>
      </trkpt>
      <trkpt lat="58.24795" lon="22.47477">
        <ele>5.289206</ele>
        <time>2020-10-07T10:57:12.798Z</time>
      </trkpt>
      <trkpt lat="58.248" lon="22.4751">
        <ele>5.52366</ele>
        <time>2020-10-07T10:57:17.784Z</time>
      </trkpt>
      <trkpt lat="58.24807" lon="22.47552">
        <ele>5.827871</ele>
        <time>2020-10-07T10:57:24.437Z</time>
      </trkpt>
      <trkpt lat="58.24827" lon="22.47624">
        <ele>6.389231</ele>
        <time>2020-10-07T10:57:36.365Z</time>
      </trkpt>
      <trkpt lat="58.24865" lon="22.47716">
        <ele>7.130049</ele>
        <time>2020-10-07T10:57:53.595Z</time>
      </trkpt>
      <trkpt lat="58.2488" lon="22.47744">
        <ele>7.347515</ele>
        <time>2020-10-07T10:57:59.377Z</time>
      </trkpt>
      <trkpt lat="58.24883" lon="22.47749">
        <ele>7.387199</ele>
        <time>2020-10-07T10:58:00.488Z</time>
      </trkpt>
      <trkpt lat="58.24906" lon="22.47785">
        <ele>7.698582</ele>
        <time>2020-10-07T10:58:08.454Z</time>
      </trkpt>
      <trkpt lat="58.2491" lon="22.47789">
        <ele>7.739183</ele>
        <time>2020-10-07T10:58:09.577Z</time>
      </trkpt>
      <trkpt lat="58.24941" lon="22.47819">
        <ele>8.104071</ele>
        <time>2020-10-07T10:58:18.903Z</time>
      </trkpt>
      <trkpt lat="58.24942" lon="22.47822">
        <ele>8.125181</ele>
        <time>2020-10-07T10:58:19.512Z</time>
      </trkpt>
      <trkpt lat="58.24949" lon="22.47838">
        <ele>8.234496</ele>
        <time>2020-10-07T10:58:22.296Z</time>
      </trkpt>
      <trkpt lat="58.24979" lon="22.47902">
        <ele>8.702245</ele>
        <time>2020-10-07T10:58:33.813Z</time>
      </trkpt>
      <trkpt lat="58.25008" lon="22.47966">
        <ele>8.925147</ele>
        <time>2020-10-07T10:58:44.585Z</time>
      </trkpt>
      <trkpt lat="58.25011" lon="22.47981">
        <ele>8.963645</ele>
        <time>2020-10-07T10:58:46.694Z</time>
      </trkpt>
      <trkpt lat="58.24988" lon="22.48061">
        <ele>9.186098</ele>
        <time>2020-10-07T10:58:58.389Z</time>
      </trkpt>
      <trkpt lat="58.2497" lon="22.48129">
        <ele>9.372104</ele>
        <time>2020-10-07T10:59:08.050Z</time>
      </trkpt>
      <trkpt lat="58.24964" lon="22.48152">
        <ele>9.437009</ele>
        <time>2020-10-07T10:59:11.311Z</time>
      </trkpt>
      <trkpt lat="58.2496" lon="22.48168">
        <ele>9.481285</ele>
        <time>2020-10-07T10:59:13.612Z</time>
      </trkpt>
      <trkpt lat="58.25034" lon="22.48296">
        <ele>9.631424</ele>
        <time>2020-10-07T10:59:35.983Z</time>
      </trkpt>
      <trkpt lat="58.25046" lon="22.48308">
        <ele>9.6425</ele>
        <time>2020-10-07T10:59:39.113Z</time>
      </trkpt>
      <trkpt lat="58.25062" lon="22.48324">
        <ele>9.656006</ele>
        <time>2020-10-07T10:59:42.998Z</time>
      </trkpt>
      <trkpt lat="58.25112" lon="22.4837">
        <ele>9.698841</ele>
        <time>2020-10-07T10:59:55.654Z</time>
      </trkpt>
      <trkpt lat="58.25148" lon="22.48402">
        <ele>9.786519</ele>
        <time>2020-10-07T11:00:04.696Z</time>
      </trkpt>
      <trkpt lat="58.25201" lon="22.48454">
        <ele>9.95257</ele>
        <time>2020-10-07T11:00:18.496Z</time>
      </trkpt>
      <trkpt lat="58.25224" lon="22.48476">
        <ele>10.022422</ele>
        <time>2020-10-07T11:00:24.299Z</time>
      </trkpt>
      <trkpt lat="58.25248" lon="22.48498">
        <ele>10.097714</ele>
        <time>2020-10-07T11:00:30.586Z</time>
      </trkpt>
      <trkpt lat="58.25265" lon="22.48508">
        <ele>10.147864</ele>
        <time>2020-10-07T11:00:34.935Z</time>
      </trkpt>
      <trkpt lat="58.25274" lon="22.48514">
        <ele>10.174023</ele>
        <time>2020-10-07T11:00:37.149Z</time>
      </trkpt>
      <trkpt lat="58.25287" lon="22.48517">
        <ele>10.209906</ele>
        <time>2020-10-07T11:00:40.170Z</time>
      </trkpt>
      <trkpt lat="58.25292" lon="22.48521">
        <ele>10.240405</ele>
        <time>2020-10-07T11:00:41.649Z</time>
      </trkpt>
      <trkpt lat="58.25298" lon="22.48529">
        <ele>10.278384</ele>
        <time>2020-10-07T11:00:43.973Z</time>
      </trkpt>
      <trkpt lat="58.2531" lon="22.48548">
        <ele>10.357068</ele>
        <time>2020-10-07T11:00:48.692Z</time>
      </trkpt>
      <trkpt lat="58.25324" lon="22.48587">
        <ele>10.490518</ele>
        <time>2020-10-07T11:00:55.112Z</time>
      </trkpt>
      <trkpt lat="58.25352" lon="22.4867">
        <ele>10.76043</ele>
        <time>2020-10-07T11:01:08.020Z</time>
      </trkpt>
      <trkpt lat="58.25411" lon="22.48863">
        <ele>11.094096</ele>
        <time>2020-10-07T11:01:36.577Z</time>
      </trkpt>
      <trkpt lat="58.25428" lon="22.48919">
        <ele>11.050878</ele>
        <time>2020-10-07T11:01:44.283Z</time>
      </trkpt>
      <trkpt lat="58.25435" lon="22.48947">
        <ele>11.030513</ele>
        <time>2020-10-07T11:01:47.889Z</time>
      </trkpt>
      <trkpt lat="58.25484" lon="22.4917">
        <ele>10.710343</ele>
        <time>2020-10-07T11:02:13.770Z</time>
      </trkpt>
      <trkpt lat="58.2549" lon="22.49192">
        <ele>10.640103</ele>
        <time>2020-10-07T11:02:16.501Z</time>
      </trkpt>
      <trkpt lat="58.25506" lon="22.49226">
        <ele>10.516576</ele>
        <time>2020-10-07T11:02:21.355Z</time>
      </trkpt>
      <trkpt lat="58.25526" lon="22.49274">
        <ele>10.348132</ele>
        <time>2020-10-07T11:02:27.901Z</time>
      </trkpt>
      <trkpt lat="58.25534" lon="22.49293">
        <ele>10.282317</ele>
        <time>2020-10-07T11:02:30.408Z</time>
      </trkpt>
      <trkpt lat="58.25611" lon="22.4942">
        <ele>9.84223</ele>
        <time>2020-10-07T11:02:51.824Z</time>
      </trkpt>
      <trkpt lat="58.25601" lon="22.49431">
        <ele>9.803881</ele>
        <time>2020-10-07T11:02:54.421Z</time>
      </trkpt>
      <trkpt lat="58.25605" lon="22.49442">
        <ele>9.781192</ele>
        <time>2020-10-07T11:02:56.001Z</time>
      </trkpt>
      <trkpt lat="58.25617" lon="22.49442">
        <ele>9.740799</ele>
        <time>2020-10-07T11:02:58.835Z</time>
      </trkpt>
      <trkpt lat="58.25737" lon="22.49695">
        <ele>9.261724</ele>
        <time>2020-10-07T11:03:37.000Z</time>
      </trkpt>
      <trkpt lat="58.25741" lon="22.4972">
        <ele>9.234361</ele>
        <time>2020-10-07T11:03:39.880Z</time>
      </trkpt>
      <trkpt lat="58.25805" lon="22.49859">
        <ele>9.048737</ele>
        <time>2020-10-07T11:04:00.846Z</time>
      </trkpt>
      <trkpt lat="58.25818" lon="22.49884">
        <ele>9.03536</ele>
        <time>2020-10-07T11:04:04.825Z</time>
      </trkpt>
      <trkpt lat="58.25822" lon="22.49894">
        <ele>9.030022</ele>
        <time>2020-10-07T11:04:06.440Z</time>
      </trkpt>
      <trkpt lat="58.25844" lon="22.49937">
        <ele>9.006905</ele>
        <time>2020-10-07T11:04:13.373Z</time>
      </trkpt>
      <trkpt lat="58.25848" lon="22.49958">
        <ele>8.99843</ele>
        <time>2020-10-07T11:04:15.946Z</time>
      </trkpt>
      <trkpt lat="58.25851" lon="22.49967">
        <ele>8.994242</ele>
        <time>2020-10-07T11:04:17.199Z</time>
      </trkpt>
      <trkpt lat="58.25857" lon="22.49961">
        <ele>8.989532</ele>
        <time>2020-10-07T11:04:18.687Z</time>
      </trkpt>
      <trkpt lat="58.25866" lon="22.49959">
        <ele>8.982863</ele>
        <time>2020-10-07T11:04:20.749Z</time>
      </trkpt>
      <trkpt lat="58.25871" lon="22.49956">
        <ele>8.97878</ele>
        <time>2020-10-07T11:04:21.965Z</time>
      </trkpt>
      <trkpt lat="58.25875" lon="22.49948">
        <ele>8.974641</ele>
        <time>2020-10-07T11:04:23.209Z</time>
      </trkpt>
      <trkpt lat="58.25894" lon="22.49869">
        <ele>8.940706</ele>
        <time>2020-10-07T11:04:33.425Z</time>
      </trkpt>
      <trkpt lat="58.25911" lon="22.49792">
        <ele>8.893862</ele>
        <time>2020-10-07T11:04:43.120Z</time>
      </trkpt>
      <trkpt lat="58.25972" lon="22.49502">
        <ele>8.648252</ele>
        <time>2020-10-07T11:05:18.536Z</time>
      </trkpt>
      <trkpt lat="58.26001" lon="22.49374">
        <ele>8.745162</ele>
        <time>2020-10-07T11:05:34.886Z</time>
      </trkpt>
      <trkpt lat="58.26028" lon="22.49247">
        <ele>8.840138</ele>
        <time>2020-10-07T11:05:51.927Z</time>
      </trkpt>
      <trkpt lat="58.26056" lon="22.4912">
        <ele>8.884459</ele>
        <time>2020-10-07T11:06:08.952Z</time>
      </trkpt>
      <trkpt lat="58.26076" lon="22.49027">
        <ele>8.887386</ele>
        <time>2020-10-07T11:06:20.945Z</time>
      </trkpt>
      <trkpt lat="58.261" lon="22.48914">
        <ele>8.890947</ele>
        <time>2020-10-07T11:06:35.169Z</time>
      </trkpt>
      <trkpt lat="58.26168" lon="22.48584">
        <ele>7.911988</ele>
        <time>2020-10-07T11:07:13.163Z</time>
      </trkpt>
      <trkpt lat="58.26182" lon="22.48518">
        <ele>7.594308</ele>
        <time>2020-10-07T11:07:20.568Z</time>
      </trkpt>
      <trkpt lat="58.26193" lon="22.48461">
        <ele>7.265467</ele>
        <time>2020-10-07T11:07:26.822Z</time>
      </trkpt>
      <trkpt lat="58.26207" lon="22.48418">
        <ele>6.992505</ele>
        <time>2020-10-07T11:07:31.973Z</time>
      </trkpt>
      <trkpt lat="58.26211" lon="22.48411">
        <ele>6.932241</ele>
        <time>2020-10-07T11:07:33.093Z</time>
      </trkpt>
      <trkpt lat="58.26215" lon="22.48409">
        <ele>6.890334</ele>
        <time>2020-10-07T11:07:33.874Z</time>
      </trkpt>
      <trkpt lat="58.26218" lon="22.48406">
        <ele>6.855073</ele>
        <time>2020-10-07T11:07:34.539Z</time>
      </trkpt>
      <trkpt lat="58.26222" lon="22.48396">
        <ele>6.785691</ele>
        <time>2020-10-07T11:07:35.866Z</time>
      </trkpt>
      <trkpt lat="58.26223" lon="22.4839">
        <ele>6.750377</ele>
        <time>2020-10-07T11:07:36.528Z</time>
      </trkpt>
      <trkpt lat="58.26222" lon="22.48384">
        <ele>6.717523</ele>
        <time>2020-10-07T11:07:37.133Z</time>
      </trkpt>
      <trkpt lat="58.26227" lon="22.48356">
        <ele>6.5618</ele>
        <time>2020-10-07T11:07:39.980Z</time>
      </trkpt>
      <trkpt lat="58.26234" lon="22.48334">
        <ele>6.420876</ele>
        <time>2020-10-07T11:07:42.601Z</time>
      </trkpt>
      <trkpt lat="58.26235" lon="22.48317">
        <ele>6.32794</ele>
        <time>2020-10-07T11:07:44.305Z</time>
      </trkpt>
      <trkpt lat="58.26248" lon="22.48284">
        <ele>6.10249</ele>
        <time>2020-10-07T11:07:48.392Z</time>
      </trkpt>
      <trkpt lat="58.26264" lon="22.48242">
        <ele>5.816514</ele>
        <time>2020-10-07T11:07:53.492Z</time>
      </trkpt>
      <trkpt lat="58.26289" lon="22.48145">
        <ele>5.210292</ele>
        <time>2020-10-07T11:08:04.314Z</time>
      </trkpt>
      <trkpt lat="58.26308" lon="22.48066">
        <ele>4.725547</ele>
        <time>2020-10-07T11:08:12.826Z</time>
      </trkpt>
      <trkpt lat="58.26324" lon="22.48002">
        <ele>4.324205</ele>
        <time>2020-10-07T11:08:19.912Z</time>
      </trkpt>
      <trkpt lat="58.26387" lon="22.47749">
        <ele>3.749043</ele>
        <time>2020-10-07T11:08:50.274Z</time>
      </trkpt>
      <trkpt lat="58.26393" lon="22.47724">
        <ele>3.714167</ele>
        <time>2020-10-07T11:08:53.699Z</time>
      </trkpt>
      <trkpt lat="58.26395" lon="22.47717">
        <ele>3.70537</ele>
        <time>2020-10-07T11:08:54.538Z</time>
      </trkpt>
      <trkpt lat="58.26427" lon="22.47596">
        <ele>3.759014</ele>
        <time>2020-10-07T11:09:11.610Z</time>
      </trkpt>
      <trkpt lat="58.26443" lon="22.4753">
        <ele>3.947747</ele>
        <time>2020-10-07T11:09:20.982Z</time>
      </trkpt>
      <trkpt lat="58.26454" lon="22.47485">
        <ele>4.077668</ele>
        <time>2020-10-07T11:09:27.538Z</time>
      </trkpt>
      <trkpt lat="58.26478" lon="22.47411">
        <ele>4.307999</ele>
        <time>2020-10-07T11:09:39.006Z</time>
      </trkpt>
      <trkpt lat="58.26507" lon="22.47349">
        <ele>4.509429</ele>
        <time>2020-10-07T11:09:49.448Z</time>
      </trkpt>
      <trkpt lat="58.26521" lon="22.47324">
        <ele>4.535799</ele>
        <time>2020-10-07T11:09:54.009Z</time>
      </trkpt>
      <trkpt lat="58.26544" lon="22.4728">
        <ele>4.581547</ele>
        <time>2020-10-07T11:10:01.803Z</time>
      </trkpt>
      <trkpt lat="58.26622" lon="22.47126">
        <ele>4.736299</ele>
        <time>2020-10-07T11:10:27.081Z</time>
      </trkpt>
      <trkpt lat="58.26636" lon="22.47094">
        <ele>4.74315</ele>
        <time>2020-10-07T11:10:31.871Z</time>
      </trkpt>
      <trkpt lat="58.26703" lon="22.46937">
        <ele>4.655364</ele>
        <time>2020-10-07T11:10:54.963Z</time>
      </trkpt>
      <trkpt lat="58.26712" lon="22.46917">
        <ele>4.64454</ele>
        <time>2020-10-07T11:10:57.777Z</time>
      </trkpt>
      <trkpt lat="58.26762" lon="22.46805">
        <ele>4.679594</ele>
        <time>2020-10-07T11:11:15.189Z</time>
      </trkpt>
      <trkpt lat="58.26783" lon="22.46759">
        <ele>4.76542</ele>
        <time>2020-10-07T11:11:22.400Z</time>
      </trkpt>
      <trkpt lat="58.26792" lon="22.46743">
        <ele>4.797948</ele>
        <time>2020-10-07T11:11:25.239Z</time>
      </trkpt>
      <trkpt lat="58.26804" lon="22.4672">
        <ele>4.842579</ele>
        <time>2020-10-07T11:11:28.981Z</time>
      </trkpt>
      <trkpt lat="58.26818" lon="22.46712">
        <ele>4.881284</ele>
        <time>2020-10-07T11:11:32.239Z</time>
      </trkpt>
      <trkpt lat="58.26834" lon="22.46711">
        <ele>4.924842</ele>
        <time>2020-10-07T11:11:36.030Z</time>
      </trkpt>
      <trkpt lat="58.26854" lon="22.46719">
        <ele>4.979006</ele>
        <time>2020-10-07T11:11:40.839Z</time>
      </trkpt>
      <trkpt lat="58.26866" lon="22.46714">
        <ele>5.011995</ele>
        <time>2020-10-07T11:11:43.894Z</time>
      </trkpt>
      <trkpt lat="58.26878" lon="22.46701">
        <ele>5.047775</ele>
        <time>2020-10-07T11:11:47.172Z</time>
      </trkpt>
      <trkpt lat="58.26882" lon="22.46694">
        <ele>5.062494</ele>
        <time>2020-10-07T11:11:48.578Z</time>
      </trkpt>
      <trkpt lat="58.2689" lon="22.46671">
        <ele>5.123295</ele>
        <time>2020-10-07T11:11:52.525Z</time>
      </trkpt>
      <trkpt lat="58.26893" lon="22.4664">
        <ele>5.218119</ele>
        <time>2020-10-07T11:11:56.783Z</time>
      </trkpt>
      <trkpt lat="58.26892" lon="22.46618">
        <ele>5.286872</ele>
        <time>2020-10-07T11:11:59.981Z</time>
      </trkpt>
      <trkpt lat="58.26903" lon="22.46596">
        <ele>5.379777</ele>
        <time>2020-10-07T11:12:04.052Z</time>
      </trkpt>
      <trkpt lat="58.26939" lon="22.46559">
        <ele>5.618037</ele>
        <time>2020-10-07T11:12:14.293Z</time>
      </trkpt>
      <trkpt lat="58.27022" lon="22.46539">
        <ele>6.098491</ele>
        <time>2020-10-07T11:12:34.452Z</time>
      </trkpt>
      <trkpt lat="58.27076" lon="22.46546">
        <ele>6.05007</ele>
        <time>2020-10-07T11:12:47.122Z</time>
      </trkpt>
      <trkpt lat="58.2725" lon="22.46616">
        <ele>5.660523</ele>
        <time>2020-10-07T11:13:24.657Z</time>
      </trkpt>
      <trkpt lat="58.274" lon="22.46648">
        <ele>5.109723</ele>
        <time>2020-10-07T11:13:55.742Z</time>
      </trkpt>
      <trkpt lat="58.27434" lon="22.46644">
        <ele>5.08567</ele>
        <time>2020-10-07T11:14:03.159Z</time>
      </trkpt>
      <trkpt lat="58.27445" lon="22.46643">
        <ele>5.078028</ele>
        <time>2020-10-07T11:14:05.476Z</time>
      </trkpt>
      <trkpt lat="58.27454" lon="22.46642">
        <ele>5.071788</ele>
        <time>2020-10-07T11:14:07.536Z</time>
      </trkpt>
      <trkpt lat="58.27552" lon="22.46622">
        <ele>5.002821</ele>
        <time>2020-10-07T11:14:29.656Z</time>
      </trkpt>
      <trkpt lat="58.27633" lon="22.46588">
        <ele>5.238148</ele>
        <time>2020-10-07T11:14:49.188Z</time>
      </trkpt>
      <trkpt lat="58.28226" lon="22.46177">
        <ele>7.226856</ele>
        <time>2020-10-07T11:17:18.086Z</time>
      </trkpt>
      <trkpt lat="58.28369" lon="22.46123">
        <ele>7.301544</ele>
        <time>2020-10-07T11:17:51.003Z</time>
      </trkpt>
      <trkpt lat="58.28375" lon="22.46122">
        <ele>7.30321</ele>
        <time>2020-10-07T11:17:52.472Z</time>
      </trkpt>
      <trkpt lat="58.28438" lon="22.46116">
        <ele>7.297953</ele>
        <time>2020-10-07T11:18:06.099Z</time>
      </trkpt>
      <trkpt lat="58.28481" lon="22.46119">
        <ele>7.265258</ele>
        <time>2020-10-07T11:18:15.496Z</time>
      </trkpt>
      <trkpt lat="58.29044" lon="22.46197">
        <ele>6.955298</ele>
        <time>2020-10-07T11:20:19.832Z</time>
      </trkpt>
      <trkpt lat="58.29196" lon="22.46203">
        <ele>7.071881</ele>
        <time>2020-10-07T11:20:53.983Z</time>
      </trkpt>
      <trkpt lat="58.29368" lon="22.46172">
        <ele>7.478814</ele>
        <time>2020-10-07T11:21:34.146Z</time>
      </trkpt>
      <trkpt lat="58.29526" lon="22.46112">
        <ele>8.042111</ele>
        <time>2020-10-07T11:22:12.767Z</time>
      </trkpt>
      <trkpt lat="58.30219" lon="22.45777">
        <ele>10.108317</ele>
        <time>2020-10-07T11:25:00.448Z</time>
      </trkpt>
      <trkpt lat="58.3031" lon="22.45747">
        <ele>10.191874</ele>
        <time>2020-10-07T11:25:20.934Z</time>
      </trkpt>
      <trkpt lat="58.3039" lon="22.45755">
        <ele>10.302273</ele>
        <time>2020-10-07T11:25:39.049Z</time>
      </trkpt>
      <trkpt lat="58.30445" lon="22.4578">
        <ele>10.446073</ele>
        <time>2020-10-07T11:25:52.186Z</time>
      </trkpt>
      <trkpt lat="58.30519" lon="22.45829">
        <ele>10.643815</ele>
        <time>2020-10-07T11:26:10.604Z</time>
      </trkpt>
      <trkpt lat="58.30535" lon="22.45839">
        <ele>10.68708</ele>
        <time>2020-10-07T11:26:14.707Z</time>
      </trkpt>
      <trkpt lat="58.30884" lon="22.46048">
        <ele>11.796468</ele>
        <time>2020-10-07T11:27:40.629Z</time>
      </trkpt>
      <trkpt lat="58.31634" lon="22.46394">
        <ele>14.199532</ele>
        <time>2020-10-07T11:30:41.476Z</time>
      </trkpt>
      <trkpt lat="58.3168" lon="22.46409">
        <ele>14.49216</ele>
        <time>2020-10-07T11:30:53.448Z</time>
      </trkpt>
      <trkpt lat="58.31747" lon="22.46445">
        <ele>14.9213</ele>
        <time>2020-10-07T11:31:11.056Z</time>
      </trkpt>
      <trkpt lat="58.31905" lon="22.46508">
        <ele>15.658194</ele>
        <time>2020-10-07T11:31:50.613Z</time>
      </trkpt>
      <trkpt lat="58.31986" lon="22.46499">
        <ele>15.711694</ele>
        <time>2020-10-07T11:32:08.903Z</time>
      </trkpt>
      <trkpt lat="58.32078" lon="22.46463">
        <ele>15.586251</ele>
        <time>2020-10-07T11:32:29.222Z</time>
      </trkpt>
      <trkpt lat="58.32558" lon="22.462">
        <ele>13.761058</ele>
        <time>2020-10-07T11:34:13.219Z</time>
      </trkpt>
      <trkpt lat="58.32667" lon="22.46133">
        <ele>13.659798</ele>
        <time>2020-10-07T11:34:38.440Z</time>
      </trkpt>
      <trkpt lat="58.32726" lon="22.46083">
        <ele>13.806871</ele>
        <time>2020-10-07T11:34:53.421Z</time>
      </trkpt>
      <trkpt lat="58.32789" lon="22.46011">
        <ele>13.972704</ele>
        <time>2020-10-07T11:35:10.705Z</time>
      </trkpt>
      <trkpt lat="58.32811" lon="22.45986">
        <ele>14.081176</ele>
        <time>2020-10-07T11:35:16.926Z</time>
      </trkpt>
      <trkpt lat="58.33319" lon="22.45394">
        <ele>16.657479</ele>
        <time>2020-10-07T11:37:39.837Z</time>
      </trkpt>
      <trkpt lat="58.33425" lon="22.45306">
        <ele>17.255028</ele>
        <time>2020-10-07T11:38:08.219Z</time>
      </trkpt>
      <trkpt lat="58.33532" lon="22.45238">
        <ele>18.018515</ele>
        <time>2020-10-07T11:38:36.501Z</time>
      </trkpt>
      <trkpt lat="58.33552" lon="22.45232">
        <ele>18.154723</ele>
        <time>2020-10-07T11:38:41.475Z</time>
      </trkpt>
      <trkpt lat="58.33632" lon="22.4521">
        <ele>18.575362</ele>
        <time>2020-10-07T11:39:01.566Z</time>
      </trkpt>
      <trkpt lat="58.33657" lon="22.45333">
        <ele>18.867687</ele>
        <time>2020-10-07T11:39:18.461Z</time>
      </trkpt>
      <trkpt lat="58.33723" lon="22.45634">
        <ele>19.092455</ele>
        <time>2020-10-07T11:39:57.306Z</time>
      </trkpt>
      <trkpt lat="58.33729" lon="22.45665">
        <ele>19.087784</ele>
        <time>2020-10-07T11:40:01.146Z</time>
      </trkpt>
      <trkpt lat="58.33731" lon="22.45673">
        <ele>19.086635</ele>
        <time>2020-10-07T11:40:02.000Z</time>
      </trkpt>
      <trkpt lat="58.33761" lon="22.45855">
        <ele>19.117299</ele>
        <time>2020-10-07T11:40:23.969Z</time>
      </trkpt>
      <trkpt lat="58.3377" lon="22.45958">
        <ele>19.160866</ele>
        <time>2020-10-07T11:40:36.058Z</time>
      </trkpt>
      <trkpt lat="58.33777" lon="22.4616">
        <ele>19.358904</ele>
        <time>2020-10-07T11:41:00.869Z</time>
      </trkpt>
      <trkpt lat="58.33779" lon="22.46245">
        <ele>19.541856</ele>
        <time>2020-10-07T11:41:11.706Z</time>
      </trkpt>
      <trkpt lat="58.33781" lon="22.46307">
        <ele>19.673949</ele>
        <time>2020-10-07T11:41:19.511Z</time>
      </trkpt>
      <trkpt lat="58.33785" lon="22.46435">
        <ele>19.946661</ele>
        <time>2020-10-07T11:41:35.834Z</time>
      </trkpt>
      <trkpt lat="58.33793" lon="22.46602">
        <ele>20.198722</ele>
        <time>2020-10-07T11:41:57.029Z</time>
      </trkpt>
      <trkpt lat="58.33798" lon="22.46647">
        <ele>20.267137</ele>
        <time>2020-10-07T11:42:02.670Z</time>
      </trkpt>
      <trkpt lat="58.33798" lon="22.46651">
        <ele>20.272852</ele>
        <time>2020-10-07T11:42:03.156Z</time>
      </trkpt>
      <trkpt lat="58.33807" lon="22.4672">
        <ele>20.380132</ele>
        <time>2020-10-07T11:42:11.895Z</time>
      </trkpt>
      <trkpt lat="58.33836" lon="22.46868">
        <ele>20.401785</ele>
        <time>2020-10-07T11:42:30.360Z</time>
      </trkpt>
      <trkpt lat="58.33893" lon="22.47049">
        <ele>20.280545</ele>
        <time>2020-10-07T11:42:54.095Z</time>
      </trkpt>
      <trkpt lat="58.33906" lon="22.47083">
        <ele>20.300094</ele>
        <time>2020-10-07T11:42:58.730Z</time>
      </trkpt>
      <trkpt lat="58.33957" lon="22.47218">
        <ele>20.751242</ele>
        <time>2020-10-07T11:43:18.754Z</time>
      </trkpt>
      <trkpt lat="58.34022" lon="22.47428">
        <ele>21.7241</ele>
        <time>2020-10-07T11:43:52.421Z</time>
      </trkpt>
      <trkpt lat="58.34053" lon="22.47593">
        <ele>22.866376</ele>
        <time>2020-10-07T11:44:18.197Z</time>
      </trkpt>
      <trkpt lat="58.3406" lon="22.47642">
        <ele>23.196299</ele>
        <time>2020-10-07T11:44:25.662Z</time>
      </trkpt>
      <trkpt lat="58.34065" lon="22.47694">
        <ele>23.502053</ele>
        <time>2020-10-07T11:44:33.260Z</time>
      </trkpt>
      <trkpt lat="58.34073" lon="22.47866">
        <ele>24.205498</ele>
        <time>2020-10-07T11:44:57.073Z</time>
      </trkpt>
      <trkpt lat="58.34066" lon="22.48033">
        <ele>24.846131</ele>
        <time>2020-10-07T11:45:18.312Z</time>
      </trkpt>
      <trkpt lat="58.34055" lon="22.48179">
        <ele>25.047688</ele>
        <time>2020-10-07T11:45:36.424Z</time>
      </trkpt>
      <trkpt lat="58.34054" lon="22.48194">
        <ele>25.068977</ele>
        <time>2020-10-07T11:45:38.172Z</time>
      </trkpt>
      <trkpt lat="58.34054" lon="22.482">
        <ele>25.076718</ele>
        <time>2020-10-07T11:45:39.072Z</time>
      </trkpt>
      <trkpt lat="58.33975" lon="22.4917">
        <ele>25.219927</ele>
        <time>2020-10-07T11:47:36.822Z</time>
      </trkpt>
      <trkpt lat="58.3397" lon="22.49315">
        <ele>24.708253</ele>
        <time>2020-10-07T11:47:51.543Z</time>
      </trkpt>
      <trkpt lat="58.33973" lon="22.49427">
        <ele>24.091074</ele>
        <time>2020-10-07T11:48:02.329Z</time>
      </trkpt>
      <trkpt lat="58.33983" lon="22.49679">
        <ele>22.143424</ele>
        <time>2020-10-07T11:48:26.250Z</time>
      </trkpt>
      <trkpt lat="58.33984" lon="22.49686">
        <ele>22.084578</ele>
        <time>2020-10-07T11:48:26.955Z</time>
      </trkpt>
      <trkpt lat="58.33991" lon="22.49877">
        <ele>21.823891</ele>
        <time>2020-10-07T11:48:47.260Z</time>
      </trkpt>
      <trkpt lat="58.33994" lon="22.49938">
        <ele>21.814483</ele>
        <time>2020-10-07T11:48:54.651Z</time>
      </trkpt>
      <trkpt lat="58.34" lon="22.50024">
        <ele>21.800965</ele>
        <time>2020-10-07T11:49:06.165Z</time>
      </trkpt>
      <trkpt lat="58.34017" lon="22.50149">
        <ele>22.254802</ele>
        <time>2020-10-07T11:49:24.243Z</time>
      </trkpt>
      <trkpt lat="58.34041" lon="22.50265">
        <ele>22.859932</ele>
        <time>2020-10-07T11:49:41.919Z</time>
      </trkpt>
      <trkpt lat="58.3407" lon="22.50372">
        <ele>23.451767</ele>
        <time>2020-10-07T11:49:58.192Z</time>
      </trkpt>
      <trkpt lat="58.34127" lon="22.50565">
        <ele>23.578338</ele>
        <time>2020-10-07T11:50:24.920Z</time>
      </trkpt>
      <trkpt lat="58.34186" lon="22.50767">
        <ele>23.683275</ele>
        <time>2020-10-07T11:50:51.021Z</time>
      </trkpt>
      <trkpt lat="58.34242" lon="22.50964">
        <ele>23.762351</ele>
        <time>2020-10-07T11:51:17.800Z</time>
      </trkpt>
      <trkpt lat="58.34303" lon="22.51179">
        <ele>24.179236</ele>
        <time>2020-10-07T11:51:48.499Z</time>
      </trkpt>
      <trkpt lat="58.34366" lon="22.51393">
        <ele>24.463147</ele>
        <time>2020-10-07T11:52:18.845Z</time>
      </trkpt>
      <trkpt lat="58.34514" lon="22.51912">
        <ele>24.520471</ele>
        <time>2020-10-07T11:53:28.006Z</time>
      </trkpt>
      <trkpt lat="58.34559" lon="22.52103">
        <ele>24.298105</ele>
        <time>2020-10-07T11:53:51.392Z</time>
      </trkpt>
      <trkpt lat="58.34578" lon="22.52229">
        <ele>24.23648</ele>
        <time>2020-10-07T11:54:06.175Z</time>
      </trkpt>
      <trkpt lat="58.34585" lon="22.52331">
        <ele>24.33284</ele>
        <time>2020-10-07T11:54:18.088Z</time>
      </trkpt>
      <trkpt lat="58.34599" lon="22.52808">
        <ele>25.155749</ele>
        <time>2020-10-07T11:55:18.191Z</time>
      </trkpt>
      <trkpt lat="58.34606" lon="22.5308">
        <ele>25.569846</ele>
        <time>2020-10-07T11:55:53.220Z</time>
      </trkpt>
      <trkpt lat="58.34606" lon="22.53089">
        <ele>25.581056</ele>
        <time>2020-10-07T11:55:54.391Z</time>
      </trkpt>
      <trkpt lat="58.34625" lon="22.53858">
        <ele>24.76429</ele>
        <time>2020-10-07T11:57:21.176Z</time>
      </trkpt>
      <trkpt lat="58.34645" lon="22.54105">
        <ele>23.67681</ele>
        <time>2020-10-07T11:57:46.598Z</time>
      </trkpt>
      <trkpt lat="58.34655" lon="22.54192">
        <ele>23.246564</ele>
        <time>2020-10-07T11:57:55.579Z</time>
      </trkpt>
      <trkpt lat="58.34675" lon="22.54341">
        <ele>22.705842</ele>
        <time>2020-10-07T11:58:11.384Z</time>
      </trkpt>
      <trkpt lat="58.34822" lon="22.55474">
        <ele>19.397515</ele>
        <time>2020-10-07T12:00:17.421Z</time>
      </trkpt>
      <trkpt lat="58.34834" lon="22.55571">
        <ele>19.166217</ele>
        <time>2020-10-07T12:00:28.505Z</time>
      </trkpt>
      <trkpt lat="58.34843" lon="22.5565">
        <ele>19.04204</ele>
        <time>2020-10-07T12:00:37.451Z</time>
      </trkpt>
      <trkpt lat="58.3485" lon="22.55733">
        <ele>18.913385</ele>
        <time>2020-10-07T12:00:46.791Z</time>
      </trkpt>
      <trkpt lat="58.34854" lon="22.55805">
        <ele>18.801937</ele>
        <time>2020-10-07T12:00:54.931Z</time>
      </trkpt>
      <trkpt lat="58.34857" lon="22.55918">
        <ele>18.638749</ele>
        <time>2020-10-07T12:01:07.320Z</time>
      </trkpt>
      <trkpt lat="58.34849" lon="22.56219">
        <ele>18.451314</ele>
        <time>2020-10-07T12:01:41.591Z</time>
      </trkpt>
      <trkpt lat="58.34804" lon="22.56901">
        <ele>19.48539</ele>
        <time>2020-10-07T12:03:07.158Z</time>
      </trkpt>
      <trkpt lat="58.34804" lon="22.5691">
        <ele>19.500312</ele>
        <time>2020-10-07T12:03:08.506Z</time>
      </trkpt>
      <trkpt lat="58.34791" lon="22.57092">
        <ele>19.813375</ele>
        <time>2020-10-07T12:03:30.564Z</time>
      </trkpt>
      <trkpt lat="58.34726" lon="22.57918">
        <ele>21.20923</ele>
        <time>2020-10-07T12:05:14.734Z</time>
      </trkpt>
      <trkpt lat="58.34724" lon="22.57942">
        <ele>21.248284</ele>
        <time>2020-10-07T12:05:17.800Z</time>
      </trkpt>
      <trkpt lat="58.34697" lon="22.58266">
        <ele>20.990026</ele>
        <time>2020-10-07T12:05:55.054Z</time>
      </trkpt>
      <trkpt lat="58.34669" lon="22.58601">
        <ele>20.158788</ele>
        <time>2020-10-07T12:06:31.344Z</time>
      </trkpt>
      <trkpt lat="58.34664" lon="22.58625">
        <ele>20.100092</ele>
        <time>2020-10-07T12:06:34.075Z</time>
      </trkpt>
      <trkpt lat="58.34744" lon="22.58752">
        <ele>20.158005</ele>
        <time>2020-10-07T12:06:56.697Z</time>
      </trkpt>
      <trkpt lat="58.34824" lon="22.58878">
        <ele>20.417379</ele>
        <time>2020-10-07T12:07:21.634Z</time>
      </trkpt>
      <trkpt lat="58.34983" lon="22.59123">
        <ele>21.813481</ele>
        <time>2020-10-07T12:08:14.000Z</time>
      </trkpt>
      <trkpt lat="58.35363" lon="22.5971">
        <ele>23.991888</ele>
        <time>2020-10-07T12:10:12.097Z</time>
      </trkpt>
      <trkpt lat="58.35653" lon="22.60156">
        <ele>22.76999</ele>
        <time>2020-10-07T12:11:29.656Z</time>
      </trkpt>
      <trkpt lat="58.35986" lon="22.60686">
        <ele>23.074864</ele>
        <time>2020-10-07T12:13:08.739Z</time>
      </trkpt>
      <trkpt lat="58.36206" lon="22.61034">
        <ele>22.63974</ele>
        <time>2020-10-07T12:14:10.715Z</time>
      </trkpt>
      <trkpt lat="58.36235" lon="22.61079">
        <ele>22.439891</ele>
        <time>2020-10-07T12:14:18.237Z</time>
      </trkpt>
      <trkpt lat="58.36348" lon="22.6125">
        <ele>21.837781</ele>
        <time>2020-10-07T12:14:47.204Z</time>
      </trkpt>
      <trkpt lat="58.36463" lon="22.61406">
        <ele>22.37323</ele>
        <time>2020-10-07T12:15:20.044Z</time>
      </trkpt>
      <trkpt lat="58.36551" lon="22.61512">
        <ele>24.034139</ele>
        <time>2020-10-07T12:15:50.533Z</time>
      </trkpt>
      <trkpt lat="58.36641" lon="22.61613">
        <ele>25.968435</ele>
        <time>2020-10-07T12:16:23.695Z</time>
      </trkpt>
      <trkpt lat="58.36713" lon="22.61689">
        <ele>26.960682</ele>
        <time>2020-10-07T12:16:48.813Z</time>
      </trkpt>
      <trkpt lat="58.36924" lon="22.61871">
        <ele>27.698799</ele>
        <time>2020-10-07T12:17:42.407Z</time>
      </trkpt>
      <trkpt lat="58.36971" lon="22.61908">
        <ele>27.439559</ele>
        <time>2020-10-07T12:17:51.734Z</time>
      </trkpt>
      <trkpt lat="58.37107" lon="22.6201">
        <ele>25.553571</ele>
        <time>2020-10-07T12:18:18.293Z</time>
      </trkpt>
      <trkpt lat="58.37207" lon="22.62086">
        <ele>25.366709</ele>
        <time>2020-10-07T12:18:41.107Z</time>
      </trkpt>
      <trkpt lat="58.3725" lon="22.62118">
        <ele>25.41094</ele>
        <time>2020-10-07T12:18:52.557Z</time>
      </trkpt>
      <trkpt lat="58.37332" lon="22.62177">
        <ele>25.582873</ele>
        <time>2020-10-07T12:19:14.681Z</time>
      </trkpt>
      <trkpt lat="58.37398" lon="22.62229">
        <ele>25.804387</ele>
        <time>2020-10-07T12:19:31.911Z</time>
      </trkpt>
      <trkpt lat="58.37434" lon="22.62256">
        <ele>25.924633</ele>
        <time>2020-10-07T12:19:40.741Z</time>
      </trkpt>
      <trkpt lat="58.37713" lon="22.62463">
        <ele>24.854485</ele>
        <time>2020-10-07T12:20:43.281Z</time>
      </trkpt>
      <trkpt lat="58.37831" lon="22.62593">
        <ele>24.169543</ele>
        <time>2020-10-07T12:21:10.657Z</time>
      </trkpt>
      <trkpt lat="58.37882" lon="22.62664">
        <ele>23.929374</ele>
        <time>2020-10-07T12:21:23.431Z</time>
      </trkpt>
      <trkpt lat="58.37984" lon="22.62846">
        <ele>23.969347</ele>
        <time>2020-10-07T12:21:54.752Z</time>
      </trkpt>
      <trkpt lat="58.38452" lon="22.63959">
        <ele>27.490567</ele>
        <time>2020-10-07T12:24:55.806Z</time>
      </trkpt>
      <trkpt lat="58.38661" lon="22.64446">
        <ele>30.192734</ele>
        <time>2020-10-07T12:26:21.533Z</time>
      </trkpt>
      <trkpt lat="58.38773" lon="22.64706">
        <ele>30.764034</ele>
        <time>2020-10-07T12:27:05.858Z</time>
      </trkpt>
      <trkpt lat="58.38799" lon="22.64773">
        <ele>30.587672</ele>
        <time>2020-10-07T12:27:14.610Z</time>
      </trkpt>
      <trkpt lat="58.38645" lon="22.64926">
        <ele>29.692381</ele>
        <time>2020-10-07T12:27:47.378Z</time>
      </trkpt>
      <trkpt lat="58.38414" lon="22.65157">
        <ele>29.719911</ele>
        <time>2020-10-07T12:28:48.474Z</time>
      </trkpt>
      <trkpt lat="58.38013" lon="22.65558">
        <ele>29.374022</ele>
        <time>2020-10-07T12:30:28.923Z</time>
      </trkpt>
      <trkpt lat="58.37813" lon="22.65758">
        <ele>28.379399</ele>
        <time>2020-10-07T12:31:13.999Z</time>
      </trkpt>
      <trkpt lat="58.37486" lon="22.66085">
        <ele>28.984081</ele>
        <time>2020-10-07T12:32:41.002Z</time>
      </trkpt>
      <trkpt lat="58.3732" lon="22.66189">
        <ele>28.363159</ele>
        <time>2020-10-07T12:33:18.001Z</time>
      </trkpt>
      <trkpt lat="58.3694" lon="22.66349">
        <ele>24.690233</ele>
        <time>2020-10-07T12:34:33.288Z</time>
      </trkpt>
      <trkpt lat="58.36934" lon="22.66352">
        <ele>24.637409</ele>
        <time>2020-10-07T12:34:34.468Z</time>
      </trkpt>
      <trkpt lat="58.36884" lon="22.66377">
        <ele>24.259413</ele>
        <time>2020-10-07T12:34:44.266Z</time>
      </trkpt>
      <trkpt lat="58.3681" lon="22.66426">
        <ele>23.68287</ele>
        <time>2020-10-07T12:34:59.640Z</time>
      </trkpt>
      <trkpt lat="58.36819" lon="22.66461">
        <ele>23.530365</ele>
        <time>2020-10-07T12:35:03.827Z</time>
      </trkpt>
      <trkpt lat="58.3696" lon="22.6677">
        <ele>23.606736</ele>
        <time>2020-10-07T12:35:52.250Z</time>
      </trkpt>
      <trkpt lat="58.36995" lon="22.66818">
        <ele>23.892728</ele>
        <time>2020-10-07T12:36:03.616Z</time>
      </trkpt>
      <trkpt lat="58.37058" lon="22.66892">
        <ele>24.374926</ele>
        <time>2020-10-07T12:36:23.303Z</time>
      </trkpt>
      <trkpt lat="58.37064" lon="22.66899">
        <ele>24.418894</ele>
        <time>2020-10-07T12:36:25.352Z</time>
      </trkpt>
      <trkpt lat="58.37085" lon="22.66934">
        <ele>24.600876</ele>
        <time>2020-10-07T12:36:31.793Z</time>
      </trkpt>
      <trkpt lat="58.371" lon="22.66974">
        <ele>24.690508</ele>
        <time>2020-10-07T12:36:37.903Z</time>
      </trkpt>
      <trkpt lat="58.37106" lon="22.66992">
        <ele>24.640886</ele>
        <time>2020-10-07T12:36:40.336Z</time>
      </trkpt>
      <trkpt lat="58.37123" lon="22.67058">
        <ele>24.468578</ele>
        <time>2020-10-07T12:36:48.643Z</time>
      </trkpt>
      <trkpt lat="58.37123" lon="22.67067">
        <ele>24.449124</ele>
        <time>2020-10-07T12:36:49.745Z</time>
      </trkpt>
      <trkpt lat="58.37134" lon="22.67133">
        <ele>24.284438</ele>
        <time>2020-10-07T12:36:57.515Z</time>
      </trkpt>
      <trkpt lat="58.37143" lon="22.67175">
        <ele>24.179114</ele>
        <time>2020-10-07T12:37:02.295Z</time>
      </trkpt>
      <trkpt lat="58.37147" lon="22.67193">
        <ele>24.132394</ele>
        <time>2020-10-07T12:37:04.377Z</time>
      </trkpt>
      <trkpt lat="58.37167" lon="22.6727">
        <ele>23.932013</ele>
        <time>2020-10-07T12:37:13.327Z</time>
      </trkpt>
      <trkpt lat="58.37175" lon="22.67314">
        <ele>23.668719</ele>
        <time>2020-10-07T12:37:17.835Z</time>
      </trkpt>
      <trkpt lat="58.37187" lon="22.67392">
        <ele>23.173467</ele>
        <time>2020-10-07T12:37:25.612Z</time>
      </trkpt>
      <trkpt lat="58.37189" lon="22.67461">
        <ele>22.750732</ele>
        <time>2020-10-07T12:37:32.283Z</time>
      </trkpt>
      <trkpt lat="58.37185" lon="22.67501">
        <ele>22.505555</ele>
        <time>2020-10-07T12:37:36.268Z</time>
      </trkpt>
      <trkpt lat="58.37179" lon="22.67542">
        <ele>22.24381</ele>
        <time>2020-10-07T12:37:40.584Z</time>
      </trkpt>
      <trkpt lat="58.37178" lon="22.67543">
        <ele>22.234563</ele>
        <time>2020-10-07T12:37:40.756Z</time>
      </trkpt>
      <trkpt lat="58.37167" lon="22.67602">
        <ele>21.853116</ele>
        <time>2020-10-07T12:37:47.117Z</time>
      </trkpt>
      <trkpt lat="58.37124" lon="22.67841">
        <ele>21.308558</ele>
        <time>2020-10-07T12:38:14.863Z</time>
      </trkpt>
      <trkpt lat="58.37114" lon="22.67892">
        <ele>21.193563</ele>
        <time>2020-10-07T12:38:20.810Z</time>
      </trkpt>
      <trkpt lat="58.3711" lon="22.67913">
        <ele>21.145806</ele>
        <time>2020-10-07T12:38:23.438Z</time>
      </trkpt>
      <trkpt lat="58.371" lon="22.67966">
        <ele>21.178029</ele>
        <time>2020-10-07T12:38:29.799Z</time>
      </trkpt>
      <trkpt lat="58.37097" lon="22.67985">
        <ele>21.211593</ele>
        <time>2020-10-07T12:38:32.210Z</time>
      </trkpt>
      <trkpt lat="58.37085" lon="22.68046">
        <ele>21.323233</ele>
        <time>2020-10-07T12:38:40.251Z</time>
      </trkpt>
      <trkpt lat="58.37078" lon="22.68083">
        <ele>21.39005</ele>
        <time>2020-10-07T12:38:45.176Z</time>
      </trkpt>
      <trkpt lat="58.37063" lon="22.68168">
        <ele>21.54522</ele>
        <time>2020-10-07T12:38:57.654Z</time>
      </trkpt>
      <trkpt lat="58.37059" lon="22.68194">
        <ele>21.59114</ele>
        <time>2020-10-07T12:39:01.147Z</time>
      </trkpt>
      <trkpt lat="58.37058" lon="22.68203">
        <ele>21.606844</ele>
        <time>2020-10-07T12:39:02.314Z</time>
      </trkpt>
      <trkpt lat="58.37054" lon="22.68283">
        <ele>21.640115</ele>
        <time>2020-10-07T12:39:12.139Z</time>
      </trkpt>
      <trkpt lat="58.37052" lon="22.68357">
        <ele>21.479218</ele>
        <time>2020-10-07T12:39:20.232Z</time>
      </trkpt>
      <trkpt lat="58.37057" lon="22.68427">
        <ele>21.325175</ele>
        <time>2020-10-07T12:39:27.926Z</time>
      </trkpt>
      <trkpt lat="58.37048" lon="22.68433">
        <ele>21.284662</ele>
        <time>2020-10-07T12:39:29.913Z</time>
      </trkpt>
      <trkpt lat="58.37015" lon="22.68454">
        <ele>21.139839</ele>
        <time>2020-10-07T12:39:37.133Z</time>
      </trkpt>
      <trkpt lat="58.37001" lon="22.68461">
        <ele>21.082213</ele>
        <time>2020-10-07T12:39:39.906Z</time>
      </trkpt>
      <trkpt lat="58.36979" lon="22.68471">
        <ele>20.985259</ele>
        <time>2020-10-07T12:39:44.648Z</time>
      </trkpt>
      <trkpt lat="58.36967" lon="22.68476">
        <ele>20.916152</ele>
        <time>2020-10-07T12:39:47.020Z</time>
      </trkpt>
      <trkpt lat="58.3695" lon="22.6848">
        <ele>20.769115</ele>
        <time>2020-10-07T12:39:50.359Z</time>
      </trkpt>
      <trkpt lat="58.36928" lon="22.68487">
        <ele>20.573463</ele>
        <time>2020-10-07T12:39:54.592Z</time>
      </trkpt>
      <trkpt lat="58.36897" lon="22.68486">
        <ele>20.30506</ele>
        <time>2020-10-07T12:40:00.324Z</time>
      </trkpt>
      <trkpt lat="58.36888" lon="22.68486">
        <ele>20.223146</ele>
        <time>2020-10-07T12:40:02.004Z</time>
      </trkpt>
      <trkpt lat="58.36755" lon="22.68464">
        <ele>19.357033</ele>
        <time>2020-10-07T12:40:28.791Z</time>
      </trkpt>
      <trkpt lat="58.36733" lon="22.6846">
        <ele>19.341249</ele>
        <time>2020-10-07T12:40:33.441Z</time>
      </trkpt>
      <trkpt lat="58.36728" lon="22.6846">
        <ele>19.337734</ele>
        <time>2020-10-07T12:40:34.663Z</time>
      </trkpt>
      <trkpt lat="58.36502" lon="22.68428">
        <ele>19.269304</ele>
        <time>2020-10-07T12:41:26.895Z</time>
      </trkpt>
      <trkpt lat="58.36459" lon="22.68422">
        <ele>19.274809</ele>
        <time>2020-10-07T12:41:35.950Z</time>
      </trkpt>
      <trkpt lat="58.36291" lon="22.68403">
        <ele>19.164203</ele>
        <time>2020-10-07T12:42:12.324Z</time>
      </trkpt>
      <trkpt lat="58.36217" lon="22.68393">
        <ele>19.222889</ele>
        <time>2020-10-07T12:42:29.431Z</time>
      </trkpt>
      <trkpt lat="58.35127" lon="22.68249">
        <ele>21.107723</ele>
        <time>2020-10-07T12:46:43.529Z</time>
      </trkpt>
      <trkpt lat="58.34982" lon="22.68229">
        <ele>19.425867</ele>
        <time>2020-10-07T12:47:09.751Z</time>
      </trkpt>
      <trkpt lat="58.34958" lon="22.68226">
        <ele>19.156662</ele>
        <time>2020-10-07T12:47:13.911Z</time>
      </trkpt>
      <trkpt lat="58.35034" lon="22.68458">
        <ele>17.591371</ele>
        <time>2020-10-07T12:47:41.468Z</time>
      </trkpt>
      <trkpt lat="58.35091" lon="22.68722">
        <ele>18.070652</ele>
        <time>2020-10-07T12:48:18.124Z</time>
      </trkpt>
      <trkpt lat="58.35126" lon="22.68946">
        <ele>18.607159</ele>
        <time>2020-10-07T12:48:48.238Z</time>
      </trkpt>
      <trkpt lat="58.35162" lon="22.69366">
        <ele>19.366359</ele>
        <time>2020-10-07T12:49:41.020Z</time>
      </trkpt>
      <trkpt lat="58.35179" lon="22.6958">
        <ele>19.326268</ele>
        <time>2020-10-07T12:50:06.666Z</time>
      </trkpt>
      <trkpt lat="58.35201" lon="22.69854">
        <ele>18.927001</ele>
        <time>2020-10-07T12:50:37.119Z</time>
      </trkpt>
      <trkpt lat="58.35209" lon="22.69913">
        <ele>18.774771</ele>
        <time>2020-10-07T12:50:43.578Z</time>
      </trkpt>
      <trkpt lat="58.35226" lon="22.70036">
        <ele>18.454614</ele>
        <time>2020-10-07T12:50:57.268Z</time>
      </trkpt>
      <trkpt lat="58.35264" lon="22.7021">
        <ele>18.133846</ele>
        <time>2020-10-07T12:51:17.981Z</time>
      </trkpt>
      <trkpt lat="58.3533" lon="22.7041">
        <ele>17.878111</ele>
        <time>2020-10-07T12:51:45.239Z</time>
      </trkpt>
      <trkpt lat="58.35405" lon="22.70576">
        <ele>17.539286</ele>
        <time>2020-10-07T12:52:10.069Z</time>
      </trkpt>
      <trkpt lat="58.35377" lon="22.70629">
        <ele>17.423025</ele>
        <time>2020-10-07T12:52:18.601Z</time>
      </trkpt>
      <trkpt lat="58.35339" lon="22.70715">
        <ele>17.179029</ele>
        <time>2020-10-07T12:52:31.258Z</time>
      </trkpt>
      <trkpt lat="58.35319" lon="22.70783">
        <ele>16.975637</ele>
        <time>2020-10-07T12:52:39.941Z</time>
      </trkpt>
      <trkpt lat="58.35304" lon="22.70851">
        <ele>16.782644</ele>
        <time>2020-10-07T12:52:48.123Z</time>
      </trkpt>
      <trkpt lat="58.35296" lon="22.70913">
        <ele>16.616211</ele>
        <time>2020-10-07T12:52:55.335Z</time>
      </trkpt>
      <trkpt lat="58.35292" lon="22.70976">
        <ele>16.454764</ele>
        <time>2020-10-07T12:53:02.613Z</time>
      </trkpt>
      <trkpt lat="58.35293" lon="22.71048">
        <ele>16.438212</ele>
        <time>2020-10-07T12:53:10.984Z</time>
      </trkpt>
      <trkpt lat="58.35385" lon="22.72237">
        <ele>16.269717</ele>
        <time>2020-10-07T12:55:37.401Z</time>
      </trkpt>
      <trkpt lat="58.35597" lon="22.7309">
        <ele>16.97703</ele>
        <time>2020-10-07T12:57:35.657Z</time>
      </trkpt>
      <trkpt lat="58.35687" lon="22.73759">
        <ele>17.380644</ele>
        <time>2020-10-07T12:59:01.554Z</time>
      </trkpt>
      <trkpt lat="58.35696" lon="22.74326">
        <ele>17.592738</ele>
        <time>2020-10-07T13:00:11.307Z</time>
      </trkpt>
      <trkpt lat="58.35732" lon="22.74738">
        <ele>17.640037</ele>
        <time>2020-10-07T13:01:02.848Z</time>
      </trkpt>
      <trkpt lat="58.35841" lon="22.75304">
        <ele>17.298149</ele>
        <time>2020-10-07T13:02:15.251Z</time>
      </trkpt>
      <trkpt lat="58.36057" lon="22.75991">
        <ele>15.656696</ele>
        <time>2020-10-07T13:03:46.583Z</time>
      </trkpt>
      <trkpt lat="58.36201" lon="22.76489">
        <ele>14.712078</ele>
        <time>2020-10-07T13:04:52.455Z</time>
      </trkpt>
      <trkpt lat="58.36273" lon="22.77055">
        <ele>13.970497</ele>
        <time>2020-10-07T13:06:00.600Z</time>
      </trkpt>
      <trkpt lat="58.36259" lon="22.78064">
        <ele>13.826526</ele>
        <time>2020-10-07T13:08:02.644Z</time>
      </trkpt>
      <trkpt lat="58.36255" lon="22.78413">
        <ele>14.364512</ele>
        <time>2020-10-07T13:08:48.957Z</time>
      </trkpt>
      <trkpt lat="58.36254" lon="22.78546">
        <ele>14.3878</ele>
        <time>2020-10-07T13:09:05.183Z</time>
      </trkpt>
      <trkpt lat="58.36242" lon="22.78824">
        <ele>13.797184</ele>
        <time>2020-10-07T13:09:36.507Z</time>
      </trkpt>
      <trkpt lat="58.36201" lon="22.79098">
        <ele>13.10995</ele>
        <time>2020-10-07T13:10:08.636Z</time>
      </trkpt>
      <trkpt lat="58.36048" lon="22.7963">
        <ele>12.267584</ele>
        <time>2020-10-07T13:11:20.174Z</time>
      </trkpt>
      <trkpt lat="58.35985" lon="22.7986">
        <ele>11.915402</ele>
        <time>2020-10-07T13:11:50.159Z</time>
      </trkpt>
      <trkpt lat="58.35841" lon="22.80387">
        <ele>10.914214</ele>
        <time>2020-10-07T13:12:59.707Z</time>
      </trkpt>
      <trkpt lat="58.35774" lon="22.80633">
        <ele>9.721653</ele>
        <time>2020-10-07T13:13:29.363Z</time>
      </trkpt>
      <trkpt lat="58.35708" lon="22.80859">
        <ele>8.820197</ele>
        <time>2020-10-07T13:13:57.447Z</time>
      </trkpt>
      <trkpt lat="58.35697" lon="22.80899">
        <ele>8.672289</ele>
        <time>2020-10-07T13:14:02.537Z</time>
      </trkpt>
      <trkpt lat="58.35654" lon="22.81093">
        <ele>8.266494</ele>
        <time>2020-10-07T13:14:27.169Z</time>
      </trkpt>
      <trkpt lat="58.35599" lon="22.81363">
        <ele>7.959867</ele>
        <time>2020-10-07T13:15:01.539Z</time>
      </trkpt>
      <trkpt lat="58.35555" lon="22.81736">
        <ele>7.695536</ele>
        <time>2020-10-07T13:15:46.552Z</time>
      </trkpt>
      <trkpt lat="58.35528" lon="22.82077">
        <ele>7.865163</ele>
        <time>2020-10-07T13:16:29.995Z</time>
      </trkpt>
      <trkpt lat="58.35525" lon="22.82492">
        <ele>7.962274</ele>
        <time>2020-10-07T13:17:22.036Z</time>
      </trkpt>
      <trkpt lat="58.35525" lon="22.82633">
        <ele>7.887112</ele>
        <time>2020-10-07T13:17:38.254Z</time>
      </trkpt>
      <trkpt lat="58.3553" lon="22.82806">
        <ele>7.433809</ele>
        <time>2020-10-07T13:17:57.588Z</time>
      </trkpt>
      <trkpt lat="58.35557" lon="22.83">
        <ele>6.913607</ele>
        <time>2020-10-07T13:18:20.168Z</time>
      </trkpt>
      <trkpt lat="58.35607" lon="22.83213">
        <ele>6.726437</ele>
        <time>2020-10-07T13:18:47.789Z</time>
      </trkpt>
      <trkpt lat="58.35659" lon="22.83398">
        <ele>6.660207</ele>
        <time>2020-10-07T13:19:13.577Z</time>
      </trkpt>
      <trkpt lat="58.35666" lon="22.83421">
        <ele>6.661577</ele>
        <time>2020-10-07T13:19:16.856Z</time>
      </trkpt>
      <trkpt lat="58.35671" lon="22.83441">
        <ele>6.662764</ele>
        <time>2020-10-07T13:19:19.718Z</time>
      </trkpt>
      <trkpt lat="58.3582" lon="22.83993">
        <ele>6.567901</ele>
        <time>2020-10-07T13:20:34.714Z</time>
      </trkpt>
      <trkpt lat="58.35914" lon="22.84477">
        <ele>6.414154</ele>
        <time>2020-10-07T13:21:36.838Z</time>
      </trkpt>
      <trkpt lat="58.3597" lon="22.84718">
        <ele>6.71135</ele>
        <time>2020-10-07T13:22:09.841Z</time>
      </trkpt>
      <trkpt lat="58.36021" lon="22.84915">
        <ele>7.104711</ele>
        <time>2020-10-07T13:22:38.716Z</time>
      </trkpt>
      <trkpt lat="58.36092" lon="22.85138">
        <ele>7.694244</ele>
        <time>2020-10-07T13:23:13.244Z</time>
      </trkpt>
      <trkpt lat="58.36335" lon="22.8584">
        <ele>8.378646</ele>
        <time>2020-10-07T13:24:57.113Z</time>
      </trkpt>
      <trkpt lat="58.36524" lon="22.86388">
        <ele>10.390501</ele>
        <time>2020-10-07T13:26:26.582Z</time>
      </trkpt>
      <trkpt lat="58.36548" lon="22.86459">
        <ele>10.624768</ele>
        <time>2020-10-07T13:26:37.915Z</time>
      </trkpt>
      <trkpt lat="58.36607" lon="22.86647">
        <ele>11.17078</ele>
        <time>2020-10-07T13:27:06.556Z</time>
      </trkpt>
      <trkpt lat="58.36651" lon="22.86797">
        <ele>11.514404</ele>
        <time>2020-10-07T13:27:28.555Z</time>
      </trkpt>
      <trkpt lat="58.36786" lon="22.87247">
        <ele>12.748007</ele>
        <time>2020-10-07T13:28:36.309Z</time>
      </trkpt>
      <trkpt lat="58.36967" lon="22.87847">
        <ele>15.449878</ele>
        <time>2020-10-07T13:30:11.981Z</time>
      </trkpt>
      <trkpt lat="58.37063" lon="22.88163">
        <ele>16.521611</ele>
        <time>2020-10-07T13:31:02.056Z</time>
      </trkpt>
      <trkpt lat="58.37124" lon="22.88364">
        <ele>16.795179</ele>
        <time>2020-10-07T13:31:30.886Z</time>
      </trkpt>
      <trkpt lat="58.37229" lon="22.88721">
        <ele>15.507875</ele>
        <time>2020-10-07T13:32:15.775Z</time>
      </trkpt>
      <trkpt lat="58.37488" lon="22.89981">
        <ele>12.025556</ele>
        <time>2020-10-07T13:34:49.121Z</time>
      </trkpt>
      <trkpt lat="58.37644" lon="22.90777">
        <ele>10.192986</ele>
        <time>2020-10-07T13:36:26.086Z</time>
      </trkpt>
      <trkpt lat="58.37776" lon="22.91835">
        <ele>7.771977</ele>
        <time>2020-10-07T13:38:30.492Z</time>
      </trkpt>
      <trkpt lat="58.37845" lon="22.92069">
        <ele>7.071368</ele>
        <time>2020-10-07T13:39:00.666Z</time>
      </trkpt>
      <trkpt lat="58.37965" lon="22.92368">
        <ele>6.098099</ele>
        <time>2020-10-07T13:39:42.762Z</time>
      </trkpt>
      <trkpt lat="58.38025" lon="22.92541">
        <ele>5.905894</ele>
        <time>2020-10-07T13:40:06.834Z</time>
      </trkpt>
      <trkpt lat="58.3848" lon="22.93705">
        <ele>7.125543</ele>
        <time>2020-10-07T13:43:10.830Z</time>
      </trkpt>
      <trkpt lat="58.3864" lon="22.94115">
        <ele>6.3824</ele>
        <time>2020-10-07T13:44:09.457Z</time>
      </trkpt>
      <trkpt lat="58.38705" lon="22.94285">
        <ele>5.974472</ele>
        <time>2020-10-07T13:44:33.446Z</time>
      </trkpt>
      <trkpt lat="58.38758" lon="22.94445">
        <ele>5.689605</ele>
        <time>2020-10-07T13:44:55.163Z</time>
      </trkpt>
      <trkpt lat="58.38905" lon="22.94925">
        <ele>5.717268</ele>
        <time>2020-10-07T13:46:02.652Z</time>
      </trkpt>
      <trkpt lat="58.39366" lon="22.96417">
        <ele>10.374531</ele>
        <time>2020-10-07T13:49:53.818Z</time>
      </trkpt>
      <trkpt lat="58.3975" lon="22.97665">
        <ele>9.853775</ele>
        <time>2020-10-07T13:52:47.152Z</time>
      </trkpt>
      <trkpt lat="58.39819" lon="22.97888">
        <ele>10.060937</ele>
        <time>2020-10-07T13:53:19.037Z</time>
      </trkpt>
      <trkpt lat="58.39849" lon="22.98">
        <ele>10.259817</ele>
        <time>2020-10-07T13:53:35.555Z</time>
      </trkpt>
      <trkpt lat="58.39891" lon="22.98221">
        <ele>10.862325</ele>
        <time>2020-10-07T13:54:07.374Z</time>
      </trkpt>
      <trkpt lat="58.39993" lon="22.98845">
        <ele>11.608497</ele>
        <time>2020-10-07T13:55:29.346Z</time>
      </trkpt>
      <trkpt lat="58.40019" lon="22.98957">
        <ele>11.760016</ele>
        <time>2020-10-07T13:55:44.765Z</time>
      </trkpt>
      <trkpt lat="58.40051" lon="22.99066">
        <ele>11.999591</ele>
        <time>2020-10-07T13:56:00.829Z</time>
      </trkpt>
      <trkpt lat="58.40093" lon="22.99176">
        <ele>12.261606</ele>
        <time>2020-10-07T13:56:18.689Z</time>
      </trkpt>
      <trkpt lat="58.40143" lon="22.99277">
        <ele>12.59778</ele>
        <time>2020-10-07T13:56:37.069Z</time>
      </trkpt>
      <trkpt lat="58.40195" lon="22.99364">
        <ele>12.954582</ele>
        <time>2020-10-07T13:56:54.750Z</time>
      </trkpt>
      <trkpt lat="58.40256" lon="22.99442">
        <ele>13.283913</ele>
        <time>2020-10-07T13:57:13.230Z</time>
      </trkpt>
      <trkpt lat="58.4036" lon="22.99553">
        <ele>13.415118</ele>
        <time>2020-10-07T13:57:41.658Z</time>
      </trkpt>
      <trkpt lat="58.40511" lon="22.99714">
        <ele>13.262299</ele>
        <time>2020-10-07T13:58:20.663Z</time>
      </trkpt>
      <trkpt lat="58.40788" lon="23.00003">
        <ele>13.05198</ele>
        <time>2020-10-07T13:59:32.904Z</time>
      </trkpt>
      <trkpt lat="58.40794" lon="23.00008">
        <ele>13.052062</ele>
        <time>2020-10-07T13:59:34.371Z</time>
      </trkpt>
      <trkpt lat="58.41226" lon="23.00453">
        <ele>13.105849</ele>
        <time>2020-10-07T14:01:28.894Z</time>
      </trkpt>
      <trkpt lat="58.41267" lon="23.0049">
        <ele>13.123869</ele>
        <time>2020-10-07T14:01:39.285Z</time>
      </trkpt>
      <trkpt lat="58.41354" lon="23.00561">
        <ele>13.161788</ele>
        <time>2020-10-07T14:02:01.302Z</time>
      </trkpt>
      <trkpt lat="58.4146" lon="23.00633">
        <ele>13.66972</ele>
        <time>2020-10-07T14:02:28.739Z</time>
      </trkpt>
      <trkpt lat="58.41635" lon="23.00702">
        <ele>14.904834</ele>
        <time>2020-10-07T14:03:16.005Z</time>
      </trkpt>
      <trkpt lat="58.41825" lon="23.00723">
        <ele>16.304605</ele>
        <time>2020-10-07T14:04:06.658Z</time>
      </trkpt>
      <trkpt lat="58.41905" lon="23.00716">
        <ele>16.707374</ele>
        <time>2020-10-07T14:04:27.021Z</time>
      </trkpt>
      <trkpt lat="58.42065" lon="23.00692">
        <ele>16.637482</ele>
        <time>2020-10-07T14:05:03.577Z</time>
      </trkpt>
      <trkpt lat="58.42199" lon="23.00618">
        <ele>15.668036</ele>
        <time>2020-10-07T14:05:32.627Z</time>
      </trkpt>
      <trkpt lat="58.42282" lon="23.00567">
        <ele>15.117611</ele>
        <time>2020-10-07T14:05:50.491Z</time>
      </trkpt>
      <trkpt lat="58.42649" lon="23.00265">
        <ele>13.141368</ele>
        <time>2020-10-07T14:07:16.799Z</time>
      </trkpt>
      <trkpt lat="58.42674" lon="23.00246">
        <ele>13.05211</ele>
        <time>2020-10-07T14:07:22.668Z</time>
      </trkpt>
      <trkpt lat="58.42684" lon="23.00238">
        <ele>13.015726</ele>
        <time>2020-10-07T14:07:25.078Z</time>
      </trkpt>
      <trkpt lat="58.42711" lon="23.00221">
        <ele>12.917471</ele>
        <time>2020-10-07T14:07:31.477Z</time>
      </trkpt>
      <trkpt lat="58.42725" lon="23.00213">
        <ele>12.87001</ele>
        <time>2020-10-07T14:07:34.632Z</time>
      </trkpt>
      <trkpt lat="58.4279" lon="23.00174">
        <ele>12.767008</ele>
        <time>2020-10-07T14:07:50.227Z</time>
      </trkpt>
      <trkpt lat="58.42855" lon="23.00153">
        <ele>12.695018</ele>
        <time>2020-10-07T14:08:05.311Z</time>
      </trkpt>
      <trkpt lat="58.42932" lon="23.00129">
        <ele>12.614451</ele>
        <time>2020-10-07T14:08:23.237Z</time>
      </trkpt>
      <trkpt lat="58.431" lon="23.00151">
        <ele>12.463989</ele>
        <time>2020-10-07T14:09:01.689Z</time>
      </trkpt>
      <trkpt lat="58.432" lon="23.00199">
        <ele>12.26898</ele>
        <time>2020-10-07T14:09:24.783Z</time>
      </trkpt>
      <trkpt lat="58.43356" lon="23.00333">
        <ele>11.901678</ele>
        <time>2020-10-07T14:10:03.081Z</time>
      </trkpt>
      <trkpt lat="58.43462" lon="23.00486">
        <ele>11.570181</ele>
        <time>2020-10-07T14:10:32.810Z</time>
      </trkpt>
      <trkpt lat="58.43642" lon="23.00769">
        <ele>10.957843</ele>
        <time>2020-10-07T14:11:24.402Z</time>
      </trkpt>
      <trkpt lat="58.44013" lon="23.01352">
        <ele>10.257744</ele>
        <time>2020-10-07T14:13:13.017Z</time>
      </trkpt>
      <trkpt lat="58.4421" lon="23.01662">
        <ele>10.586332</ele>
        <time>2020-10-07T14:14:14.727Z</time>
      </trkpt>
      <trkpt lat="58.44542" lon="23.0218">
        <ele>10.696384</ele>
        <time>2020-10-07T14:15:53.270Z</time>
      </trkpt>
      <trkpt lat="58.44546" lon="23.02187">
        <ele>10.72361</ele>
        <time>2020-10-07T14:15:54.579Z</time>
      </trkpt>
      <trkpt lat="58.44655" lon="23.02358">
        <ele>11.461091</ele>
        <time>2020-10-07T14:16:31.714Z</time>
      </trkpt>
      <trkpt lat="58.44723" lon="23.02453">
        <ele>11.408702</ele>
        <time>2020-10-07T14:16:52.271Z</time>
      </trkpt>
      <trkpt lat="58.44775" lon="23.02524">
        <ele>11.26202</ele>
        <time>2020-10-07T14:17:06.341Z</time>
      </trkpt>
      <trkpt lat="58.44816" lon="23.02557">
        <ele>11.159654</ele>
        <time>2020-10-07T14:17:15.711Z</time>
      </trkpt>
      <trkpt lat="58.44894" lon="23.02621">
        <ele>10.464854</ele>
        <time>2020-10-07T14:17:32.704Z</time>
      </trkpt>
      <trkpt lat="58.44988" lon="23.02656">
        <ele>9.64568</ele>
        <time>2020-10-07T14:17:52.320Z</time>
      </trkpt>
      <trkpt lat="58.45042" lon="23.02677">
        <ele>9.379802</ele>
        <time>2020-10-07T14:18:04.185Z</time>
      </trkpt>
      <trkpt lat="58.45116" lon="23.02675">
        <ele>9.060071</ele>
        <time>2020-10-07T14:18:20.140Z</time>
      </trkpt>
      <trkpt lat="58.45211" lon="23.02668">
        <ele>8.854534</ele>
        <time>2020-10-07T14:18:41.431Z</time>
      </trkpt>
      <trkpt lat="58.45332" lon="23.02659">
        <ele>8.975561</ele>
        <time>2020-10-07T14:19:10.393Z</time>
      </trkpt>
      <trkpt lat="58.45353" lon="23.02657">
        <ele>8.998712</ele>
        <time>2020-10-07T14:19:15.598Z</time>
      </trkpt>
      <trkpt lat="58.45417" lon="23.02653">
        <ele>9.148077</ele>
        <time>2020-10-07T14:19:31.147Z</time>
      </trkpt>
      <trkpt lat="58.45439" lon="23.02651">
        <ele>9.198408</ele>
        <time>2020-10-07T14:19:36.261Z</time>
      </trkpt>
      <trkpt lat="58.45447" lon="23.02651">
        <ele>9.218073</ele>
        <time>2020-10-07T14:19:38.325Z</time>
      </trkpt>
      <trkpt lat="58.45604" lon="23.02639">
        <ele>9.710572</ele>
        <time>2020-10-07T14:20:16.082Z</time>
      </trkpt>
      <trkpt lat="58.45688" lon="23.02633">
        <ele>10.054942</ele>
        <time>2020-10-07T14:20:36.566Z</time>
      </trkpt>
      <trkpt lat="58.45904" lon="23.02617">
        <ele>12.177514</ele>
        <time>2020-10-07T14:21:35.965Z</time>
      </trkpt>
      <trkpt lat="58.45913" lon="23.02616">
        <ele>12.281381</ele>
        <time>2020-10-07T14:21:38.436Z</time>
      </trkpt>
      <trkpt lat="58.45941" lon="23.02615">
        <ele>12.630056</ele>
        <time>2020-10-07T14:21:46.609Z</time>
      </trkpt>
      <trkpt lat="58.46" lon="23.02612">
        <ele>13.368201</ele>
        <time>2020-10-07T14:22:03.830Z</time>
      </trkpt>
      <trkpt lat="58.46008" lon="23.02612">
        <ele>13.463418</ele>
        <time>2020-10-07T14:22:05.989Z</time>
      </trkpt>
      <trkpt lat="58.46039" lon="23.02611">
        <ele>13.841767</ele>
        <time>2020-10-07T14:22:14.682Z</time>
      </trkpt>
      <trkpt lat="58.46092" lon="23.02616">
        <ele>14.307698</ele>
        <time>2020-10-07T14:22:29.467Z</time>
      </trkpt>
      <trkpt lat="58.4621" lon="23.02661">
        <ele>14.704261</ele>
        <time>2020-10-07T14:22:59.130Z</time>
      </trkpt>
      <trkpt lat="58.46219" lon="23.02668">
        <ele>14.737044</ele>
        <time>2020-10-07T14:23:01.412Z</time>
      </trkpt>
      <trkpt lat="58.4629" lon="23.02725">
        <ele>14.657695</ele>
        <time>2020-10-07T14:23:18.216Z</time>
      </trkpt>
      <trkpt lat="58.46325" lon="23.02753">
        <ele>14.520427</ele>
        <time>2020-10-07T14:23:26.594Z</time>
      </trkpt>
      <trkpt lat="58.46518" lon="23.02979">
        <ele>13.71839</ele>
        <time>2020-10-07T14:24:15.787Z</time>
      </trkpt>
      <trkpt lat="58.4671" lon="23.03199">
        <ele>13.390999</ele>
        <time>2020-10-07T14:25:06.497Z</time>
      </trkpt>
      <trkpt lat="58.47117" lon="23.03666">
        <ele>14.1958</ele>
        <time>2020-10-07T14:27:01.596Z</time>
      </trkpt>
      <trkpt lat="58.4725" lon="23.03817">
        <ele>13.736437</ele>
        <time>2020-10-07T14:27:35.038Z</time>
      </trkpt>
      <trkpt lat="58.47344" lon="23.03889">
        <ele>13.216408</ele>
        <time>2020-10-07T14:27:56.506Z</time>
      </trkpt>
      <trkpt lat="58.47375" lon="23.03912">
        <ele>13.056101</ele>
        <time>2020-10-07T14:28:03.555Z</time>
      </trkpt>
      <trkpt lat="58.47486" lon="23.0395">
        <ele>12.50341</ele>
        <time>2020-10-07T14:28:28.060Z</time>
      </trkpt>
      <trkpt lat="58.4798" lon="23.04007">
        <ele>10.129419</ele>
        <time>2020-10-07T14:30:15.067Z</time>
      </trkpt>
      <trkpt lat="58.48155" lon="23.04027">
        <ele>9.281309</ele>
        <time>2020-10-07T14:30:51.950Z</time>
      </trkpt>
      <trkpt lat="58.48194" lon="23.04031">
        <ele>9.103854</ele>
        <time>2020-10-07T14:31:00.375Z</time>
      </trkpt>
      <trkpt lat="58.48692" lon="23.04087">
        <ele>9.059303</ele>
        <time>2020-10-07T14:32:56.139Z</time>
      </trkpt>
      <trkpt lat="58.48771" lon="23.04096">
        <ele>9.183041</ele>
        <time>2020-10-07T14:33:15.725Z</time>
      </trkpt>
      <trkpt lat="58.49001" lon="23.04067">
        <ele>9.531318</ele>
        <time>2020-10-07T14:34:12.031Z</time>
      </trkpt>
      <trkpt lat="58.49461" lon="23.03959">
        <ele>8.227433</ele>
        <time>2020-10-07T14:35:52.277Z</time>
      </trkpt>
      <trkpt lat="58.49771" lon="23.03886">
        <ele>10.632685</ele>
        <time>2020-10-07T14:37:16.514Z</time>
      </trkpt>
      <trkpt lat="58.49829" lon="23.03875">
        <ele>11.129322</ele>
        <time>2020-10-07T14:37:31.978Z</time>
      </trkpt>
      <trkpt lat="58.49939" lon="23.03856">
        <ele>11.707456</ele>
        <time>2020-10-07T14:38:00.642Z</time>
      </trkpt>
      <trkpt lat="58.50189" lon="23.03796">
        <ele>12.450435</ele>
        <time>2020-10-07T14:39:01.015Z</time>
      </trkpt>
      <trkpt lat="58.5023" lon="23.03786">
        <ele>12.515506</ele>
        <time>2020-10-07T14:39:10.978Z</time>
      </trkpt>
      <trkpt lat="58.50632" lon="23.03697">
        <ele>12.927436</ele>
        <time>2020-10-07T14:40:47.067Z</time>
      </trkpt>
      <trkpt lat="58.51422" lon="23.03487">
        <ele>12.350298</ele>
        <time>2020-10-07T14:43:49.077Z</time>
      </trkpt>
      <trkpt lat="58.51591" lon="23.03443">
        <ele>12.431446</ele>
        <time>2020-10-07T14:44:28.974Z</time>
      </trkpt>
      <trkpt lat="58.51948" lon="23.03358">
        <ele>12.851677</ele>
        <time>2020-10-07T14:45:54.684Z</time>
      </trkpt>
      <trkpt lat="58.52064" lon="23.03324">
        <ele>12.778252</ele>
        <time>2020-10-07T14:46:21.702Z</time>
      </trkpt>
      <trkpt lat="58.52189" lon="23.03297">
        <ele>12.55081</ele>
        <time>2020-10-07T14:46:49.804Z</time>
      </trkpt>
      <trkpt lat="58.5226" lon="23.03322">
        <ele>12.301519</ele>
        <time>2020-10-07T14:47:05.769Z</time>
      </trkpt>
      <trkpt lat="58.52445" lon="23.03488">
        <ele>11.553504</ele>
        <time>2020-10-07T14:47:50.349Z</time>
      </trkpt>
      <trkpt lat="58.52665" lon="23.03669">
        <ele>10.634854</ele>
        <time>2020-10-07T14:48:42.317Z</time>
      </trkpt>
      <trkpt lat="58.52967" lon="23.03932">
        <ele>10.61278</ele>
        <time>2020-10-07T14:49:57.278Z</time>
      </trkpt>
      <trkpt lat="58.53054" lon="23.0401">
        <ele>10.294024</ele>
        <time>2020-10-07T14:50:17.240Z</time>
      </trkpt>
      <trkpt lat="58.5317" lon="23.04108">
        <ele>9.815508</ele>
        <time>2020-10-07T14:50:43.198Z</time>
      </trkpt>
      <trkpt lat="58.53252" lon="23.04201">
        <ele>9.670428</ele>
        <time>2020-10-07T14:51:04.225Z</time>
      </trkpt>
      <trkpt lat="58.53328" lon="23.04314">
        <ele>9.49864</ele>
        <time>2020-10-07T14:51:25.485Z</time>
      </trkpt>
      <trkpt lat="58.5356" lon="23.04666">
        <ele>8.739969</ele>
        <time>2020-10-07T14:52:28.465Z</time>
      </trkpt>
      <trkpt lat="58.53648" lon="23.04787">
        <ele>8.574767</ele>
        <time>2020-10-07T14:52:51.486Z</time>
      </trkpt>
      <trkpt lat="58.53716" lon="23.04859">
        <ele>8.49415</ele>
        <time>2020-10-07T14:53:08.722Z</time>
      </trkpt>
      <trkpt lat="58.54036" lon="23.05115">
        <ele>8.853519</ele>
        <time>2020-10-07T14:54:27.849Z</time>
      </trkpt>
      <trkpt lat="58.54627" lon="23.05713">
        <ele>9.044427</ele>
        <time>2020-10-07T14:56:57.019Z</time>
      </trkpt>
      <trkpt lat="58.55227" lon="23.06297">
        <ele>9.267883</ele>
        <time>2020-10-07T14:59:28.984Z</time>
      </trkpt>
      <trkpt lat="58.55526" lon="23.06564">
        <ele>7.636474</ele>
        <time>2020-10-07T15:00:36.721Z</time>
      </trkpt>
      <trkpt lat="58.55575" lon="23.06612">
        <ele>7.215955</ele>
        <time>2020-10-07T15:00:47.521Z</time>
      </trkpt>
      <trkpt lat="58.5561" lon="23.06659">
        <ele>6.88952</ele>
        <time>2020-10-07T15:00:55.953Z</time>
      </trkpt>
      <trkpt lat="58.55636" lon="23.06704">
        <ele>6.618186</ele>
        <time>2020-10-07T15:01:02.936Z</time>
      </trkpt>
      <trkpt lat="58.55644" lon="23.06719">
        <ele>6.531662</ele>
        <time>2020-10-07T15:01:05.178Z</time>
      </trkpt>
      <trkpt lat="58.55671" lon="23.06777">
        <ele>6.272131</ele>
        <time>2020-10-07T15:01:13.252Z</time>
      </trkpt>
      <trkpt lat="58.55696" lon="23.06838">
        <ele>6.080849</ele>
        <time>2020-10-07T15:01:21.272Z</time>
      </trkpt>
      <trkpt lat="58.55769" lon="23.07006">
        <ele>5.538967</ele>
        <time>2020-10-07T15:01:44.956Z</time>
      </trkpt>
      <trkpt lat="58.55844" lon="23.07185">
        <ele>5.768023</ele>
        <time>2020-10-07T15:02:12.183Z</time>
      </trkpt>
      <trkpt lat="58.5586" lon="23.07224">
        <ele>5.82898</ele>
        <time>2020-10-07T15:02:18.529Z</time>
      </trkpt>
      <trkpt lat="58.55869" lon="23.07252">
        <ele>5.868177</ele>
        <time>2020-10-07T15:02:22.711Z</time>
      </trkpt>
      <trkpt lat="58.55892" lon="23.07336">
        <ele>6.042979</ele>
        <time>2020-10-07T15:02:34.970Z</time>
      </trkpt>
      <trkpt lat="58.55901" lon="23.07386">
        <ele>6.170005</ele>
        <time>2020-10-07T15:02:41.639Z</time>
      </trkpt>
      <trkpt lat="58.55902" lon="23.07392">
        <ele>6.184687</ele>
        <time>2020-10-07T15:02:42.397Z</time>
      </trkpt>
      <trkpt lat="58.55903" lon="23.074">
        <ele>6.207053</ele>
        <time>2020-10-07T15:02:43.626Z</time>
      </trkpt>
      <trkpt lat="58.55909" lon="23.07429">
        <ele>6.280451</ele>
        <time>2020-10-07T15:02:47.471Z</time>
      </trkpt>
      <trkpt lat="58.5592" lon="23.07515">
        <ele>6.493195</ele>
        <time>2020-10-07T15:02:58.670Z</time>
      </trkpt>
      <trkpt lat="58.55922" lon="23.07551">
        <ele>6.582016</ele>
        <time>2020-10-07T15:03:03.306Z</time>
      </trkpt>
      <trkpt lat="58.55929" lon="23.07636">
        <ele>6.763666</ele>
        <time>2020-10-07T15:03:13.964Z</time>
      </trkpt>
      <trkpt lat="58.55931" lon="23.07665">
        <ele>6.777816</ele>
        <time>2020-10-07T15:03:17.506Z</time>
      </trkpt>
      <trkpt lat="58.55932" lon="23.07682">
        <ele>6.786087</ele>
        <time>2020-10-07T15:03:19.545Z</time>
      </trkpt>
      <trkpt lat="58.5594" lon="23.07804">
        <ele>6.846329</ele>
        <time>2020-10-07T15:03:34.029Z</time>
      </trkpt>
      <trkpt lat="58.55948" lon="23.07917">
        <ele>6.902109</ele>
        <time>2020-10-07T15:03:47.404Z</time>
      </trkpt>
      <trkpt lat="58.55948" lon="23.0799">
        <ele>6.943056</ele>
        <time>2020-10-07T15:03:56.002Z</time>
      </trkpt>
      <trkpt lat="58.55944" lon="23.08113">
        <ele>7.029009</ele>
        <time>2020-10-07T15:04:10.573Z</time>
      </trkpt>
      <trkpt lat="58.55942" lon="23.08125">
        <ele>7.037532</ele>
        <time>2020-10-07T15:04:12.051Z</time>
      </trkpt>
      <trkpt lat="58.55936" lon="23.08172">
        <ele>7.072265</ele>
        <time>2020-10-07T15:04:18.040Z</time>
      </trkpt>
      <trkpt lat="58.55933" lon="23.08195">
        <ele>7.088614</ele>
        <time>2020-10-07T15:04:20.898Z</time>
      </trkpt>
      <trkpt lat="58.5593" lon="23.0821">
        <ele>7.100186</ele>
        <time>2020-10-07T15:04:22.888Z</time>
      </trkpt>
      <trkpt lat="58.55926" lon="23.08229">
        <ele>7.113815</ele>
        <time>2020-10-07T15:04:25.196Z</time>
      </trkpt>
      <trkpt lat="58.55915" lon="23.0828">
        <ele>7.152584</ele>
        <time>2020-10-07T15:04:31.922Z</time>
      </trkpt>
      <trkpt lat="58.55911" lon="23.08296">
        <ele>7.16534</ele>
        <time>2020-10-07T15:04:33.949Z</time>
      </trkpt>
      <trkpt lat="58.55895" lon="23.08362">
        <ele>7.073127</ele>
        <time>2020-10-07T15:04:42.289Z</time>
      </trkpt>
      <trkpt lat="58.55885" lon="23.08397">
        <ele>7.018671</ele>
        <time>2020-10-07T15:04:46.991Z</time>
      </trkpt>
      <trkpt lat="58.55877" lon="23.08422">
        <ele>6.978684</ele>
        <time>2020-10-07T15:04:50.305Z</time>
      </trkpt>
      <trkpt lat="58.55856" lon="23.08495">
        <ele>6.866371</ele>
        <time>2020-10-07T15:04:59.590Z</time>
      </trkpt>
      <trkpt lat="58.55849" lon="23.08522">
        <ele>6.825232</ele>
        <time>2020-10-07T15:05:03.038Z</time>
      </trkpt>
      <trkpt lat="58.55839" lon="23.08563">
        <ele>6.765232</ele>
        <time>2020-10-07T15:05:07.849Z</time>
      </trkpt>
      <trkpt lat="58.55793" lon="23.08844">
        <ele>5.911396</ele>
        <time>2020-10-07T15:05:38.807Z</time>
      </trkpt>
      <trkpt lat="58.55778" lon="23.08943">
        <ele>5.591755</ele>
        <time>2020-10-07T15:05:49.658Z</time>
      </trkpt>
      <trkpt lat="58.55741" lon="23.09148">
        <ele>5.258329</ele>
        <time>2020-10-07T15:06:13.547Z</time>
      </trkpt>
      <trkpt lat="58.55736" lon="23.09181">
        <ele>5.206264</ele>
        <time>2020-10-07T15:06:17.546Z</time>
      </trkpt>
      <trkpt lat="58.55686" lon="23.09443">
        <ele>4.804198</ele>
        <time>2020-10-07T15:06:49.352Z</time>
      </trkpt>
      <trkpt lat="58.55674" lon="23.09483">
        <ele>4.738912</ele>
        <time>2020-10-07T15:06:54.567Z</time>
      </trkpt>
      <trkpt lat="58.55633" lon="23.0961">
        <ele>4.473312</ele>
        <time>2020-10-07T15:07:10.643Z</time>
      </trkpt>
      <trkpt lat="58.55618" lon="23.0966">
        <ele>4.315899</ele>
        <time>2020-10-07T15:07:16.793Z</time>
      </trkpt>
      <trkpt lat="58.55575" lon="23.09802">
        <ele>3.86876</ele>
        <time>2020-10-07T15:07:33.957Z</time>
      </trkpt>
      <trkpt lat="58.55454" lon="23.10237">
        <ele>3.416086</ele>
        <time>2020-10-07T15:08:29.398Z</time>
      </trkpt>
      <trkpt lat="58.55175" lon="23.11243">
        <ele>5.146174</ele>
        <time>2020-10-07T15:10:49.790Z</time>
      </trkpt>
      <trkpt lat="58.55138" lon="23.11379">
        <ele>5.367085</ele>
        <time>2020-10-07T15:11:08.293Z</time>
      </trkpt>
      <trkpt lat="58.55104" lon="23.11502">
        <ele>5.60514</ele>
        <time>2020-10-07T15:11:25.603Z</time>
      </trkpt>
      <trkpt lat="58.55049" lon="23.11687">
        <ele>5.97775</ele>
        <time>2020-10-07T15:11:52.745Z</time>
      </trkpt>
      <trkpt lat="58.54847" lon="23.12335">
        <ele>4.572807</ele>
        <time>2020-10-07T15:13:15.348Z</time>
      </trkpt>
      <trkpt lat="58.54834" lon="23.12382">
        <ele>4.377975</ele>
        <time>2020-10-07T15:13:20.843Z</time>
      </trkpt>
      <trkpt lat="58.54817" lon="23.12481">
        <ele>4.006499</ele>
        <time>2020-10-07T15:13:31.477Z</time>
      </trkpt>
      <trkpt lat="58.54811" lon="23.12635">
        <ele>3.50787</ele>
        <time>2020-10-07T15:13:47.467Z</time>
      </trkpt>
      <trkpt lat="58.54879" lon="23.13475">
        <ele>2.876716</ele>
        <time>2020-10-07T15:15:24.477Z</time>
      </trkpt>
      <trkpt lat="58.5489" lon="23.1356">
        <ele>2.86211</ele>
        <time>2020-10-07T15:15:34.724Z</time>
      </trkpt>
      <trkpt lat="58.54907" lon="23.1363">
        <ele>2.848941</ele>
        <time>2020-10-07T15:15:43.724Z</time>
      </trkpt>
      <trkpt lat="58.5491" lon="23.13645">
        <ele>2.842586</ele>
        <time>2020-10-07T15:15:45.726Z</time>
      </trkpt>
      <trkpt lat="58.54909" lon="23.1366">
        <ele>2.836612</ele>
        <time>2020-10-07T15:15:47.525Z</time>
      </trkpt>
      <trkpt lat="58.54904" lon="23.13672">
        <ele>2.83074</ele>
        <time>2020-10-07T15:15:49.301Z</time>
      </trkpt>
      <trkpt lat="58.54898" lon="23.13675">
        <ele>2.826139</ele>
        <time>2020-10-07T15:15:50.679Z</time>
      </trkpt>
      <trkpt lat="58.55033" lon="23.13869">
        <ele>2.687602</ele>
        <time>2020-10-07T15:16:27.618Z</time>
      </trkpt>
      <trkpt lat="58.55078" lon="23.13935">
        <ele>2.607583</ele>
        <time>2020-10-07T15:16:39.921Z</time>
      </trkpt>
      <trkpt lat="58.55192" lon="23.14098">
        <ele>2.433932</ele>
        <time>2020-10-07T15:17:10.981Z</time>
      </trkpt>
      <trkpt lat="58.5536" lon="23.14341">
        <ele>2.309633</ele>
        <time>2020-10-07T15:17:57.249Z</time>
      </trkpt>
      <trkpt lat="58.56328" lon="23.15731">
        <ele>1.937713</ele>
        <time>2020-10-07T15:22:25.375Z</time>
      </trkpt>
      <trkpt lat="58.5645" lon="23.15908">
        <ele>2.004885</ele>
        <time>2020-10-07T15:23:00.273Z</time>
      </trkpt>
      <trkpt lat="58.56724" lon="23.163">
        <ele>1.256004</ele>
        <time>2020-10-07T15:24:13.176Z</time>
      </trkpt>
      <trkpt lat="58.56739" lon="23.1633">
        <ele>1.207879</ele>
        <time>2020-10-07T15:24:17.803Z</time>
      </trkpt>
      <trkpt lat="58.56808" lon="23.16429">
        <ele>1.457955</ele>
        <time>2020-10-07T15:24:37.435Z</time>
      </trkpt>
      <trkpt lat="58.56811" lon="23.16434">
        <ele>1.469683</ele>
        <time>2020-10-07T15:24:38.280Z</time>
      </trkpt>
      <trkpt lat="58.5687" lon="23.16517">
        <ele>1.693488</ele>
        <time>2020-10-07T15:24:56.071Z</time>
      </trkpt>
      <trkpt lat="58.56951" lon="23.16633">
        <ele>2.301754</ele>
        <time>2020-10-07T15:25:21.593Z</time>
      </trkpt>
      <trkpt lat="58.56971" lon="23.16653">
        <ele>2.45353</ele>
        <time>2020-10-07T15:25:27.393Z</time>
      </trkpt>
      <trkpt lat="58.56979" lon="23.1666">
        <ele>2.50974</ele>
        <time>2020-10-07T15:25:29.417Z</time>
      </trkpt>
      <trkpt lat="58.5699" lon="23.16669">
        <ele>2.59442</ele>
        <time>2020-10-07T15:25:32.557Z</time>
      </trkpt>
      <trkpt lat="58.57009" lon="23.16684">
        <ele>2.727057</ele>
        <time>2020-10-07T15:25:37.413Z</time>
      </trkpt>
      <trkpt lat="58.57044" lon="23.16713">
        <ele>2.96955</ele>
        <time>2020-10-07T15:25:46.817Z</time>
      </trkpt>
      <trkpt lat="58.57082" lon="23.1674">
        <ele>3.116265</ele>
        <time>2020-10-07T15:25:56.730Z</time>
      </trkpt>
      <trkpt lat="58.57094" lon="23.1673">
        <ele>3.166072</ele>
        <time>2020-10-07T15:26:00.120Z</time>
      </trkpt>
      <trkpt lat="58.5711" lon="23.16642">
        <ele>3.343012</ele>
        <time>2020-10-07T15:26:11.719Z</time>
      </trkpt>
      <trkpt lat="58.57148" lon="23.16656">
        <ele>3.484905</ele>
        <time>2020-10-07T15:26:20.790Z</time>
      </trkpt>
      <trkpt lat="58.57198" lon="23.16671">
        <ele>3.641668</ele>
        <time>2020-10-07T15:26:32.317Z</time>
      </trkpt>
      <trkpt lat="58.57296" lon="23.16682">
        <ele>3.846299</ele>
        <time>2020-10-07T15:26:54.891Z</time>
      </trkpt>
      <trkpt lat="58.57439" lon="23.16662">
        <ele>4.120125</ele>
        <time>2020-10-07T15:27:28.147Z</time>
      </trkpt>
      <trkpt lat="58.57517" lon="23.16641">
        <ele>4.258732</ele>
        <time>2020-10-07T15:27:46.369Z</time>
      </trkpt>
      <trkpt lat="58.57986" lon="23.16511">
        <ele>4.677766</ele>
        <time>2020-10-07T15:29:32.758Z</time>
      </trkpt>
      <trkpt lat="58.58063" lon="23.16489">
        <ele>4.862592</ele>
        <time>2020-10-07T15:29:51.395Z</time>
      </trkpt>
      <trkpt lat="58.58171" lon="23.16461">
        <ele>5.350082</ele>
        <time>2020-10-07T15:30:17.688Z</time>
      </trkpt>
      <trkpt lat="58.58252" lon="23.16455">
        <ele>5.733686</ele>
        <time>2020-10-07T15:30:37.193Z</time>
      </trkpt>
      <trkpt lat="58.58289" lon="23.16459">
        <ele>5.930641</ele>
        <time>2020-10-07T15:30:46.046Z</time>
      </trkpt>
      <trkpt lat="58.58372" lon="23.16475">
        <ele>6.382147</ele>
        <time>2020-10-07T15:31:06.256Z</time>
      </trkpt>
      <trkpt lat="58.58413" lon="23.16486">
        <ele>6.607119</ele>
        <time>2020-10-07T15:31:16.565Z</time>
      </trkpt>
      <trkpt lat="58.58541" lon="23.16542">
        <ele>7.645535</ele>
        <time>2020-10-07T15:31:49.925Z</time>
      </trkpt>
      <trkpt lat="58.58565" lon="23.16554">
        <ele>7.856215</ele>
        <time>2020-10-07T15:31:56.514Z</time>
      </trkpt>
      <trkpt lat="58.58976" lon="23.16742">
        <ele>11.932698</ele>
        <time>2020-10-07T15:33:46.423Z</time>
      </trkpt>
      <trkpt lat="58.59016" lon="23.16764">
        <ele>12.472928</ele>
        <time>2020-10-07T15:33:58.012Z</time>
      </trkpt>
      <trkpt lat="58.59662" lon="23.17066">
        <ele>20.94698</ele>
        <time>2020-10-07T15:37:01.210Z</time>
      </trkpt>
      <trkpt lat="58.59784" lon="23.17131">
        <ele>21.923384</ele>
        <time>2020-10-07T15:37:33.122Z</time>
      </trkpt>
      <trkpt lat="58.59851" lon="23.17199">
        <ele>22.426806</ele>
        <time>2020-10-07T15:37:51.813Z</time>
      </trkpt>
      <trkpt lat="58.59903" lon="23.17282">
        <ele>22.766459</ele>
        <time>2020-10-07T15:38:08.386Z</time>
      </trkpt>
      <trkpt lat="58.59937" lon="23.17349">
        <ele>23.006786</ele>
        <time>2020-10-07T15:38:20.061Z</time>
      </trkpt>
      <trkpt lat="58.59994" lon="23.17507">
        <ele>23.319741</ele>
        <time>2020-10-07T15:38:43.921Z</time>
      </trkpt>
      <trkpt lat="58.60016" lon="23.17595">
        <ele>23.430977</ele>
        <time>2020-10-07T15:38:55.828Z</time>
      </trkpt>
      <trkpt lat="58.60094" lon="23.18087">
        <ele>23.203216</ele>
        <time>2020-10-07T15:39:55.118Z</time>
      </trkpt>
      <trkpt lat="58.60148" lon="23.18454">
        <ele>21.460617</ele>
        <time>2020-10-07T15:40:33.954Z</time>
      </trkpt>
      <trkpt lat="58.60172" lon="23.18628">
        <ele>20.325804</ele>
        <time>2020-10-07T15:40:51.417Z</time>
      </trkpt>
      <trkpt lat="58.60188" lon="23.18779">
        <ele>19.568117</ele>
        <time>2020-10-07T15:41:06.552Z</time>
      </trkpt>
      <trkpt lat="58.602" lon="23.18916">
        <ele>19.09271</ele>
        <time>2020-10-07T15:41:20.861Z</time>
      </trkpt>
      <trkpt lat="58.60208" lon="23.19028">
        <ele>18.706989</ele>
        <time>2020-10-07T15:41:33.252Z</time>
      </trkpt>
      <trkpt lat="58.60231" lon="23.1938">
        <ele>18.90549</ele>
        <time>2020-10-07T15:42:16.226Z</time>
      </trkpt>
      <trkpt lat="58.60252" lon="23.19672">
        <ele>18.704539</ele>
        <time>2020-10-07T15:42:49.678Z</time>
      </trkpt>
      <trkpt lat="58.60289" lon="23.19973">
        <ele>18.260664</ele>
        <time>2020-10-07T15:43:23.604Z</time>
      </trkpt>
      <trkpt lat="58.60343" lon="23.20342">
        <ele>17.977757</ele>
        <time>2020-10-07T15:44:06.876Z</time>
      </trkpt>
      <trkpt lat="58.60398" lon="23.20738">
        <ele>18.67461</ele>
        <time>2020-10-07T15:44:57.258Z</time>
      </trkpt>
      <trkpt lat="58.6042" lon="23.20897">
        <ele>19.532571</ele>
        <time>2020-10-07T15:45:19.865Z</time>
      </trkpt>
      <trkpt lat="58.60589" lon="23.20723">
        <ele>21.35911</ele>
        <time>2020-10-07T15:46:11.163Z</time>
      </trkpt>
      <trkpt lat="58.60976" lon="23.20307">
        <ele>24.401345</ele>
        <time>2020-10-07T15:48:00.909Z</time>
      </trkpt>
      <trkpt lat="58.61004" lon="23.20272">
        <ele>24.743939</ele>
        <time>2020-10-07T15:48:09.819Z</time>
      </trkpt>
      <trkpt lat="58.61136" lon="23.20104">
        <ele>26.309853</ele>
        <time>2020-10-07T15:48:52.341Z</time>
      </trkpt>
      <trkpt lat="58.61295" lon="23.19944">
        <ele>27.368306</ele>
        <time>2020-10-07T15:49:36.604Z</time>
      </trkpt>
      <trkpt lat="58.61471" lon="23.19798">
        <ele>27.567274</ele>
        <time>2020-10-07T15:50:20.033Z</time>
      </trkpt>
      <trkpt lat="58.61522" lon="23.1974">
        <ele>27.41202</ele>
        <time>2020-10-07T15:50:32.913Z</time>
      </trkpt>
      <trkpt lat="58.61548" lon="23.19711">
        <ele>27.333285</ele>
        <time>2020-10-07T15:50:39.308Z</time>
      </trkpt>
      <trkpt lat="58.61565" lon="23.19691">
        <ele>27.282001</ele>
        <time>2020-10-07T15:50:43.389Z</time>
      </trkpt>
      <trkpt lat="58.61755" lon="23.19451">
        <ele>26.317232</ele>
        <time>2020-10-07T15:51:29.860Z</time>
      </trkpt>
      <trkpt lat="58.61801" lon="23.19392">
        <ele>26.411572</ele>
        <time>2020-10-07T15:51:42.205Z</time>
      </trkpt>
      <trkpt lat="58.61873" lon="23.19316">
        <ele>26.550257</ele>
        <time>2020-10-07T15:52:01.634Z</time>
      </trkpt>
      <trkpt lat="58.61997" lon="23.19239">
        <ele>26.902262</ele>
        <time>2020-10-07T15:52:33.529Z</time>
      </trkpt>
      <trkpt lat="58.6212" lon="23.19212">
        <ele>26.996082</ele>
        <time>2020-10-07T15:53:01.640Z</time>
      </trkpt>
      <trkpt lat="58.62351" lon="23.19199">
        <ele>25.73488</ele>
        <time>2020-10-07T15:53:48.067Z</time>
      </trkpt>
      <trkpt lat="58.62395" lon="23.19179">
        <ele>25.437051</ele>
        <time>2020-10-07T15:53:57.187Z</time>
      </trkpt>
      <trkpt lat="58.6251" lon="23.19114">
        <ele>24.841181</ele>
        <time>2020-10-07T15:54:21.683Z</time>
      </trkpt>
      <trkpt lat="58.62918" lon="23.18869">
        <ele>22.972206</ele>
        <time>2020-10-07T15:55:51.272Z</time>
      </trkpt>
      <trkpt lat="58.62957" lon="23.18834">
        <ele>22.731095</ele>
        <time>2020-10-07T15:55:59.711Z</time>
      </trkpt>
      <trkpt lat="58.62976" lon="23.18813">
        <ele>22.515867</ele>
        <time>2020-10-07T15:56:04.046Z</time>
      </trkpt>
      <trkpt lat="58.62983" lon="23.18804">
        <ele>22.434311</ele>
        <time>2020-10-07T15:56:05.656Z</time>
      </trkpt>
      <trkpt lat="58.62997" lon="23.18787">
        <ele>22.279075</ele>
        <time>2020-10-07T15:56:08.741Z</time>
      </trkpt>
      <trkpt lat="58.63046" lon="23.18709">
        <ele>21.661007</ele>
        <time>2020-10-07T15:56:20.964Z</time>
      </trkpt>
      <trkpt lat="58.63096" lon="23.1857">
        <ele>20.981981</ele>
        <time>2020-10-07T15:56:37.994Z</time>
      </trkpt>
      <trkpt lat="58.63153" lon="23.18381">
        <ele>20.742773</ele>
        <time>2020-10-07T15:57:02.159Z</time>
      </trkpt>
      <trkpt lat="58.63277" lon="23.17964">
        <ele>21.540947</ele>
        <time>2020-10-07T15:58:02.918Z</time>
      </trkpt>
      <trkpt lat="58.63336" lon="23.17813">
        <ele>21.826807</ele>
        <time>2020-10-07T15:58:26.465Z</time>
      </trkpt>
      <trkpt lat="58.63449" lon="23.17622">
        <ele>21.942051</ele>
        <time>2020-10-07T15:58:59.921Z</time>
      </trkpt>
      <trkpt lat="58.63601" lon="23.17456">
        <ele>22.044705</ele>
        <time>2020-10-07T15:59:38.244Z</time>
      </trkpt>
      <trkpt lat="58.63606" lon="23.1745">
        <ele>22.055253</ele>
        <time>2020-10-07T15:59:39.903Z</time>
      </trkpt>
      <trkpt lat="58.63784" lon="23.17265">
        <ele>22.483379</ele>
        <time>2020-10-07T16:00:27.687Z</time>
      </trkpt>
      <trkpt lat="58.63799" lon="23.17254">
        <ele>22.523347</ele>
        <time>2020-10-07T16:00:31.512Z</time>
      </trkpt>
      <trkpt lat="58.63886" lon="23.1719">
        <ele>22.602842</ele>
        <time>2020-10-07T16:00:52.392Z</time>
      </trkpt>
      <trkpt lat="58.64027" lon="23.17143">
        <ele>22.504989</ele>
        <time>2020-10-07T16:01:23.703Z</time>
      </trkpt>
      <trkpt lat="58.64358" lon="23.17153">
        <ele>21.931031</ele>
        <time>2020-10-07T16:02:35.602Z</time>
      </trkpt>
      <trkpt lat="58.64366" lon="23.17153">
        <ele>21.911697</ele>
        <time>2020-10-07T16:02:37.357Z</time>
      </trkpt>
      <trkpt lat="58.64433" lon="23.17155">
        <ele>21.446658</ele>
        <time>2020-10-07T16:02:50.859Z</time>
      </trkpt>
      <trkpt lat="58.64945" lon="23.17164">
        <ele>17.622218</ele>
        <time>2020-10-07T16:04:31.961Z</time>
      </trkpt>
      <trkpt lat="58.65197" lon="23.17172">
        <ele>17.070271</ele>
        <time>2020-10-07T16:05:26.788Z</time>
      </trkpt>
      <trkpt lat="58.65617" lon="23.17181">
        <ele>17.063872</ele>
        <time>2020-10-07T16:07:00.496Z</time>
      </trkpt>
      <trkpt lat="58.6575" lon="23.17214">
        <ele>17.348667</ele>
        <time>2020-10-07T16:07:31.249Z</time>
      </trkpt>
      <trkpt lat="58.65765" lon="23.17218">
        <ele>17.384523</ele>
        <time>2020-10-07T16:07:34.789Z</time>
      </trkpt>
      <trkpt lat="58.65792" lon="23.17225">
        <ele>17.449751</ele>
        <time>2020-10-07T16:07:41.281Z</time>
      </trkpt>
      <trkpt lat="58.65916" lon="23.17274">
        <ele>17.977362</ele>
        <time>2020-10-07T16:08:11.486Z</time>
      </trkpt>
      <trkpt lat="58.66122" lon="23.17398">
        <ele>19.020377</ele>
        <time>2020-10-07T16:09:04.175Z</time>
      </trkpt>
      <trkpt lat="58.66128" lon="23.17402">
        <ele>19.051616</ele>
        <time>2020-10-07T16:09:05.778Z</time>
      </trkpt>
      <trkpt lat="58.66386" lon="23.17567">
        <ele>19.99965</ele>
        <time>2020-10-07T16:10:10.141Z</time>
      </trkpt>
      <trkpt lat="58.66511" lon="23.17684">
        <ele>20.244569</ele>
        <time>2020-10-07T16:10:42.060Z</time>
      </trkpt>
      <trkpt lat="58.66612" lon="23.17814">
        <ele>20.203841</ele>
        <time>2020-10-07T16:11:08.923Z</time>
      </trkpt>
      <trkpt lat="58.66705" lon="23.17976">
        <ele>20.019599</ele>
        <time>2020-10-07T16:11:36.091Z</time>
      </trkpt>
      <trkpt lat="58.66923" lon="23.18485">
        <ele>19.448606</ele>
        <time>2020-10-07T16:12:50.039Z</time>
      </trkpt>
      <trkpt lat="58.67023" lon="23.1873">
        <ele>19.300762</ele>
        <time>2020-10-07T16:13:25.847Z</time>
      </trkpt>
      <trkpt lat="58.67078" lon="23.18875">
        <ele>19.247512</ele>
        <time>2020-10-07T16:13:46.575Z</time>
      </trkpt>
      <trkpt lat="58.67103" lon="23.18942">
        <ele>19.245122</ele>
        <time>2020-10-07T16:13:56.000Z</time>
      </trkpt>
      <trkpt lat="58.67116" lon="23.1899">
        <ele>19.298533</ele>
        <time>2020-10-07T16:14:02.346Z</time>
      </trkpt>
      <trkpt lat="58.67152" lon="23.19131">
        <ele>19.454215</ele>
        <time>2020-10-07T16:14:21.349Z</time>
      </trkpt>
      <trkpt lat="58.67168" lon="23.19193">
        <ele>19.522061</ele>
        <time>2020-10-07T16:14:29.874Z</time>
      </trkpt>
      <trkpt lat="58.6721" lon="23.19385">
        <ele>19.602793</ele>
        <time>2020-10-07T16:14:55.048Z</time>
      </trkpt>
      <trkpt lat="58.67222" lon="23.19461">
        <ele>19.619368</ele>
        <time>2020-10-07T16:15:04.161Z</time>
      </trkpt>
      <trkpt lat="58.6724" lon="23.19572">
        <ele>19.617179</ele>
        <time>2020-10-07T16:15:17.365Z</time>
      </trkpt>
      <trkpt lat="58.67251" lon="23.19657">
        <ele>19.400667</ele>
        <time>2020-10-07T16:15:26.940Z</time>
      </trkpt>
      <trkpt lat="58.67276" lon="23.19845">
        <ele>18.919677</ele>
        <time>2020-10-07T16:15:47.429Z</time>
      </trkpt>
      <trkpt lat="58.67288" lon="23.20008">
        <ele>18.5979</ele>
        <time>2020-10-07T16:16:05.113Z</time>
      </trkpt>
      <trkpt lat="58.67277" lon="23.20193">
        <ele>18.279377</ele>
        <time>2020-10-07T16:16:25.714Z</time>
      </trkpt>
      <trkpt lat="58.67248" lon="23.20342">
        <ele>18.155766</ele>
        <time>2020-10-07T16:16:43.795Z</time>
      </trkpt>
      <trkpt lat="58.67208" lon="23.20454">
        <ele>18.107872</ele>
        <time>2020-10-07T16:16:59.535Z</time>
      </trkpt>
      <trkpt lat="58.67191" lon="23.205">
        <ele>18.088454</ele>
        <time>2020-10-07T16:17:05.979Z</time>
      </trkpt>
      <trkpt lat="58.67252" lon="23.2125">
        <ele>17.791278</ele>
        <time>2020-10-07T16:19:31.369Z</time>
      </trkpt>
      <trkpt lat="58.67262" lon="23.21374">
        <ele>17.760974</ele>
        <time>2020-10-07T16:19:55.463Z</time>
      </trkpt>
      <trkpt lat="58.67276" lon="23.21662">
        <ele>17.802807</ele>
        <time>2020-10-07T16:20:51.380Z</time>
      </trkpt>
      <trkpt lat="58.67266" lon="23.21944">
        <ele>18.079581</ele>
        <time>2020-10-07T16:21:47.527Z</time>
      </trkpt>
      <trkpt lat="58.67248" lon="23.22117">
        <ele>18.253871</ele>
        <time>2020-10-07T16:22:22.416Z</time>
      </trkpt>
      <trkpt lat="58.67239" lon="23.22166">
        <ele>18.305305</ele>
        <time>2020-10-07T16:22:32.675Z</time>
      </trkpt>
      <trkpt lat="58.67223" lon="23.22264">
        <ele>18.405142</ele>
        <time>2020-10-07T16:22:53.005Z</time>
      </trkpt>
      <trkpt lat="58.67203" lon="23.22361">
        <ele>18.492218</ele>
        <time>2020-10-07T16:23:13.580Z</time>
      </trkpt>
      <trkpt lat="58.67081" lon="23.22802">
        <ele>18.865755</ele>
        <time>2020-10-07T16:24:51.768Z</time>
      </trkpt>
      <trkpt lat="58.66922" lon="23.23379">
        <ele>18.974253</ele>
        <time>2020-10-07T16:26:58.599Z</time>
      </trkpt>
      <trkpt lat="58.66919" lon="23.23388">
        <ele>18.971898</ele>
        <time>2020-10-07T16:27:00.574Z</time>
      </trkpt>
      <trkpt lat="58.66848" lon="23.23646">
        <ele>18.291747</ele>
        <time>2020-10-07T16:27:55.756Z</time>
      </trkpt>
      <trkpt lat="58.66775" lon="23.23908">
        <ele>16.993474</ele>
        <time>2020-10-07T16:28:47.296Z</time>
      </trkpt>
      <trkpt lat="58.66744" lon="23.2402">
        <ele>16.317212</ele>
        <time>2020-10-07T16:29:08.908Z</time>
      </trkpt>
      <trkpt lat="58.66541" lon="23.24758">
        <ele>14.383229</ele>
        <time>2020-10-07T16:31:43.875Z</time>
      </trkpt>
      <trkpt lat="58.66453" lon="23.25083">
        <ele>14.565154</ele>
        <time>2020-10-07T16:32:55.559Z</time>
      </trkpt>
      <trkpt lat="58.6625" lon="23.25826">
        <ele>16.317929</ele>
        <time>2020-10-07T16:35:46.338Z</time>
      </trkpt>
      <trkpt lat="58.66249" lon="23.2583">
        <ele>16.327083</ele>
        <time>2020-10-07T16:35:47.399Z</time>
      </trkpt>
      <trkpt lat="58.66142" lon="23.26222">
        <ele>16.588873</ele>
        <time>2020-10-07T16:37:13.406Z</time>
      </trkpt>
      <trkpt lat="58.66005" lon="23.26728">
        <ele>16.632929</ele>
        <time>2020-10-07T16:39:03.586Z</time>
      </trkpt>
      <trkpt lat="58.66004" lon="23.26733">
        <ele>16.633781</ele>
        <time>2020-10-07T16:39:04.680Z</time>
      </trkpt>
      <trkpt lat="58.65854" lon="23.27405">
        <ele>16.783027</ele>
        <time>2020-10-07T16:41:27.132Z</time>
      </trkpt>
      <trkpt lat="58.65834" lon="23.27497">
        <ele>16.757311</ele>
        <time>2020-10-07T16:41:46.022Z</time>
      </trkpt>
      <trkpt lat="58.65805" lon="23.2762">
        <ele>16.495385</ele>
        <time>2020-10-07T16:42:11.734Z</time>
      </trkpt>
      <trkpt lat="58.6579" lon="23.27682">
        <ele>16.365516</ele>
        <time>2020-10-07T16:42:24.408Z</time>
      </trkpt>
      <trkpt lat="58.65722" lon="23.27884">
        <ele>15.762875</ele>
        <time>2020-10-07T16:43:08.458Z</time>
      </trkpt>
      <trkpt lat="58.65701" lon="23.2793">
        <ele>15.565759</ele>
        <time>2020-10-07T16:43:19.564Z</time>
      </trkpt>
      <trkpt lat="58.65637" lon="23.28069">
        <ele>14.965593</ele>
        <time>2020-10-07T16:43:53.291Z</time>
      </trkpt>
      <trkpt lat="58.65618" lon="23.28101">
        <ele>14.787066</ele>
        <time>2020-10-07T16:44:02.087Z</time>
      </trkpt>
      <trkpt lat="58.65557" lon="23.28203">
        <ele>14.216161</ele>
        <time>2020-10-07T16:44:29.911Z</time>
      </trkpt>
      <trkpt lat="58.65504" lon="23.2829">
        <ele>13.728187</ele>
        <time>2020-10-07T16:44:53.898Z</time>
      </trkpt>
      <trkpt lat="58.65492" lon="23.28308">
        <ele>13.649812</ele>
        <time>2020-10-07T16:44:59.250Z</time>
      </trkpt>
      <trkpt lat="58.65415" lon="23.28436">
        <ele>13.133755</ele>
        <time>2020-10-07T16:45:35.062Z</time>
      </trkpt>
      <trkpt lat="58.65388" lon="23.2848">
        <ele>12.952869</ele>
        <time>2020-10-07T16:45:47.636Z</time>
      </trkpt>
      <trkpt lat="58.64952" lon="23.2909">
        <ele>12.301773</ele>
        <time>2020-10-07T16:49:05.654Z</time>
      </trkpt>
      <trkpt lat="58.64938" lon="23.29109">
        <ele>12.294386</ele>
        <time>2020-10-07T16:49:11.749Z</time>
      </trkpt>
      <trkpt lat="58.64825" lon="23.29271">
        <ele>12.688045</ele>
        <time>2020-10-07T16:50:05.930Z</time>
      </trkpt>
      <trkpt lat="58.64717" lon="23.29471">
        <ele>13.190939</ele>
        <time>2020-10-07T16:51:04.563Z</time>
      </trkpt>
      <trkpt lat="58.64649" lon="23.29647">
        <ele>13.402271</ele>
        <time>2020-10-07T16:51:48.050Z</time>
      </trkpt>
      <trkpt lat="58.64609" lon="23.29787">
        <ele>13.264795</ele>
        <time>2020-10-07T16:52:18.306Z</time>
      </trkpt>
      <trkpt lat="58.64596" lon="23.29831">
        <ele>13.22124</ele>
        <time>2020-10-07T16:52:27.767Z</time>
      </trkpt>
      <trkpt lat="58.64583" lon="23.29885">
        <ele>13.170022</ele>
        <time>2020-10-07T16:52:38.780Z</time>
      </trkpt>
      <trkpt lat="58.64565" lon="23.29975">
        <ele>12.933337</ele>
        <time>2020-10-07T16:52:56.767Z</time>
      </trkpt>
      <trkpt lat="58.64525" lon="23.30157">
        <ele>12.432717</ele>
        <time>2020-10-07T16:53:32.883Z</time>
      </trkpt>
      <trkpt lat="58.6448" lon="23.30364">
        <ele>11.98974</ele>
        <time>2020-10-07T16:54:14.231Z</time>
      </trkpt>
      <trkpt lat="58.64412" lon="23.30616">
        <ele>11.772147</ele>
        <time>2020-10-07T16:55:07.705Z</time>
      </trkpt>
      <trkpt lat="58.64325" lon="23.30837">
        <ele>12.161604</ele>
        <time>2020-10-07T16:56:03.252Z</time>
      </trkpt>
      <trkpt lat="58.64259" lon="23.30964">
        <ele>12.93194</ele>
        <time>2020-10-07T16:56:41.395Z</time>
      </trkpt>
      <trkpt lat="58.64157" lon="23.31104">
        <ele>13.864158</ele>
        <time>2020-10-07T16:57:32.999Z</time>
      </trkpt>
      <trkpt lat="58.64054" lon="23.3122">
        <ele>14.638653</ele>
        <time>2020-10-07T16:58:20.243Z</time>
      </trkpt>
      <trkpt lat="58.63955" lon="23.31298">
        <ele>14.469844</ele>
        <time>2020-10-07T16:58:59.451Z</time>
      </trkpt>
      <trkpt lat="58.63776" lon="23.31409">
        <ele>13.863917</ele>
        <time>2020-10-07T17:00:06.141Z</time>
      </trkpt>
      <trkpt lat="58.63338" lon="23.31679">
        <ele>12.344753</ele>
        <time>2020-10-07T17:02:51.227Z</time>
      </trkpt>
      <trkpt lat="58.63096" lon="23.31836">
        <ele>11.763047</ele>
        <time>2020-10-07T17:04:24.233Z</time>
      </trkpt>
      <trkpt lat="58.62999" lon="23.31866">
        <ele>11.643202</ele>
        <time>2020-10-07T17:04:59.775Z</time>
      </trkpt>
      <trkpt lat="58.62933" lon="23.31856">
        <ele>11.751428</ele>
        <time>2020-10-07T17:05:24.212Z</time>
      </trkpt>
      <trkpt lat="58.62867" lon="23.31815">
        <ele>11.864486</ele>
        <time>2020-10-07T17:05:50.825Z</time>
      </trkpt>
      <trkpt lat="58.62597" lon="23.31514">
        <ele>14.803223</ele>
        <time>2020-10-07T17:08:00.000Z</time>
      </trkpt>
      <trkpt lat="58.62503" lon="23.3144">
        <ele>15.586785</ele>
        <time>2020-10-07T17:08:40.662Z</time>
      </trkpt>
      <trkpt lat="58.61934" lon="23.31283">
        <ele>17.417776</ele>
        <time>2020-10-07T17:12:22.533Z</time>
      </trkpt>
      <trkpt lat="58.61813" lon="23.31203">
        <ele>16.900214</ele>
        <time>2020-10-07T17:13:07.324Z</time>
      </trkpt>
      <trkpt lat="58.61761" lon="23.31148">
        <ele>16.333346</ele>
        <time>2020-10-07T17:13:27.060Z</time>
      </trkpt>
      <trkpt lat="58.61732" lon="23.31117">
        <ele>16.004552</ele>
        <time>2020-10-07T17:13:38.425Z</time>
      </trkpt>
      <trkpt lat="58.61718" lon="23.31102">
        <ele>15.855255</ele>
        <time>2020-10-07T17:13:43.479Z</time>
      </trkpt>
      <trkpt lat="58.61668" lon="23.31037">
        <ele>15.315752</ele>
        <time>2020-10-07T17:14:03.965Z</time>
      </trkpt>
      <trkpt lat="58.61595" lon="23.30897">
        <ele>14.827935</ele>
        <time>2020-10-07T17:14:40.102Z</time>
      </trkpt>
      <trkpt lat="58.61493" lon="23.30617">
        <ele>14.39041</ele>
        <time>2020-10-07T17:15:46.259Z</time>
      </trkpt>
      <trkpt lat="58.6135" lon="23.30182">
        <ele>13.772163</ele>
        <time>2020-10-07T17:17:23.188Z</time>
      </trkpt>
      <trkpt lat="58.61349" lon="23.30178">
        <ele>13.764128</ele>
        <time>2020-10-07T17:17:23.997Z</time>
      </trkpt>
      <trkpt lat="58.61348" lon="23.30175">
        <ele>13.75675</ele>
        <time>2020-10-07T17:17:24.675Z</time>
      </trkpt>
      <trkpt lat="58.61208" lon="23.2975">
        <ele>12.891624</ele>
        <time>2020-10-07T17:18:58.497Z</time>
      </trkpt>
      <trkpt lat="58.61187" lon="23.29803">
        <ele>12.788483</ele>
        <time>2020-10-07T17:19:06.079Z</time>
      </trkpt>
      <trkpt lat="58.61185" lon="23.29808">
        <ele>12.779502</ele>
        <time>2020-10-07T17:19:06.790Z</time>
      </trkpt>
      <trkpt lat="58.6117" lon="23.29863">
        <ele>12.683886</ele>
        <time>2020-10-07T17:19:13.810Z</time>
      </trkpt>
      <trkpt lat="58.61142" lon="23.29919">
        <ele>12.554261</ele>
        <time>2020-10-07T17:19:22.608Z</time>
      </trkpt>
      <trkpt lat="58.61059" lon="23.2999">
        <ele>12.262454</ele>
        <time>2020-10-07T17:19:41.910Z</time>
      </trkpt>
      <trkpt lat="58.60979" lon="23.30073">
        <ele>11.854473</ele>
        <time>2020-10-07T17:20:00.583Z</time>
      </trkpt>
      <trkpt lat="58.60959" lon="23.30122">
        <ele>11.651227</ele>
        <time>2020-10-07T17:20:07.149Z</time>
      </trkpt>
      <trkpt lat="58.60864" lon="23.30481">
        <ele>10.502586</ele>
        <time>2020-10-07T17:20:49.320Z</time>
      </trkpt>
      <trkpt lat="58.60849" lon="23.30693">
        <ele>10.206178</ele>
        <time>2020-10-07T17:21:13.375Z</time>
      </trkpt>
      <trkpt lat="58.60833" lon="23.3078">
        <ele>10.316276</ele>
        <time>2020-10-07T17:21:24.441Z</time>
      </trkpt>
      <trkpt lat="58.60815" lon="23.30839">
        <ele>10.399206</ele>
        <time>2020-10-07T17:21:33.127Z</time>
      </trkpt>
      <trkpt lat="58.60737" lon="23.3098">
        <ele>10.739157</ele>
        <time>2020-10-07T17:21:58.711Z</time>
      </trkpt>
      <trkpt lat="58.60707" lon="23.31071">
        <ele>10.991219</ele>
        <time>2020-10-07T17:22:12.371Z</time>
      </trkpt>
      <trkpt lat="58.60694" lon="23.31103">
        <ele>11.087885</ele>
        <time>2020-10-07T17:22:17.540Z</time>
      </trkpt>
      <trkpt lat="58.60678" lon="23.31134">
        <ele>11.191185</ele>
        <time>2020-10-07T17:22:23.098Z</time>
      </trkpt>
      <trkpt lat="58.60549" lon="23.31325">
        <ele>11.781277</ele>
        <time>2020-10-07T17:23:02.137Z</time>
      </trkpt>
      <trkpt lat="58.60513" lon="23.3137">
        <ele>11.925708</ele>
        <time>2020-10-07T17:23:12.109Z</time>
      </trkpt>
      <trkpt lat="58.6051" lon="23.31374">
        <ele>11.937823</ele>
        <time>2020-10-07T17:23:13.119Z</time>
      </trkpt>
      <trkpt lat="58.60358" lon="23.31546">
        <ele>11.837639</ele>
        <time>2020-10-07T17:23:51.382Z</time>
      </trkpt>
      <trkpt lat="58.60248" lon="23.3163">
        <ele>12.291739</ele>
        <time>2020-10-07T17:24:17.893Z</time>
      </trkpt>
      <trkpt lat="58.60127" lon="23.3179">
        <ele>13.525904</ele>
        <time>2020-10-07T17:24:56.832Z</time>
      </trkpt>
      <trkpt lat="58.60079" lon="23.31854">
        <ele>14.25534</ele>
        <time>2020-10-07T17:25:13.473Z</time>
      </trkpt>
      <trkpt lat="58.59984" lon="23.31981">
        <ele>15.42382</ele>
        <time>2020-10-07T17:25:44.875Z</time>
      </trkpt>
      <trkpt lat="58.59977" lon="23.3198">
        <ele>15.482284</ele>
        <time>2020-10-07T17:25:46.630Z</time>
      </trkpt>
      <trkpt lat="58.59973" lon="23.31977">
        <ele>15.515476</ele>
        <time>2020-10-07T17:25:47.672Z</time>
      </trkpt>
      <trkpt lat="58.59969" lon="23.31967">
        <ele>15.571078</ele>
        <time>2020-10-07T17:25:49.355Z</time>
      </trkpt>
      <trkpt lat="58.59928" lon="23.32053">
        <ele>16.08654</ele>
        <time>2020-10-07T17:26:04.563Z</time>
      </trkpt>
      <trkpt lat="58.59883" lon="23.32134">
        <ele>16.535123</ele>
        <time>2020-10-07T17:26:19.360Z</time>
      </trkpt>
      <trkpt lat="58.59704" lon="23.32434">
        <ele>17.916149</ele>
        <time>2020-10-07T17:27:18.498Z</time>
      </trkpt>
      <trkpt lat="58.59661" lon="23.32505">
        <ele>18.22337</ele>
        <time>2020-10-07T17:27:32.738Z</time>
      </trkpt>
      <trkpt lat="58.59594" lon="23.32616">
        <ele>18.199079</ele>
        <time>2020-10-07T17:27:52.982Z</time>
      </trkpt>
      <trkpt lat="58.59522" lon="23.32736">
        <ele>17.81271</ele>
        <time>2020-10-07T17:28:12.741Z</time>
      </trkpt>
      <trkpt lat="58.59269" lon="23.33163">
        <ele>14.6354</ele>
        <time>2020-10-07T17:29:17.044Z</time>
      </trkpt>
      <trkpt lat="58.59231" lon="23.33239">
        <ele>14.16484</ele>
        <time>2020-10-07T17:29:28.454Z</time>
      </trkpt>
      <trkpt lat="58.59215" lon="23.3327">
        <ele>14.136693</ele>
        <time>2020-10-07T17:29:33.351Z</time>
      </trkpt>
      <trkpt lat="58.59089" lon="23.33523">
        <ele>13.841221</ele>
        <time>2020-10-07T17:30:14.012Z</time>
      </trkpt>
      <trkpt lat="58.58875" lon="23.33984">
        <ele>12.506914</ele>
        <time>2020-10-07T17:31:20.389Z</time>
      </trkpt>
      <trkpt lat="58.58615" lon="23.34536">
        <ele>12.188886</ele>
        <time>2020-10-07T17:32:45.061Z</time>
      </trkpt>
      <trkpt lat="58.58389" lon="23.35013">
        <ele>13.784719</ele>
        <time>2020-10-07T17:34:07.636Z</time>
      </trkpt>
      <trkpt lat="58.58271" lon="23.35276">
        <ele>14.000806</ele>
        <time>2020-10-07T17:34:48.980Z</time>
      </trkpt>
      <trkpt lat="58.57952" lon="23.36154">
        <ele>12.559342</ele>
        <time>2020-10-07T17:36:47.748Z</time>
      </trkpt>
      <trkpt lat="58.57891" lon="23.36324">
        <ele>12.202677</ele>
        <time>2020-10-07T17:37:10.218Z</time>
      </trkpt>
      <trkpt lat="58.57595" lon="23.3714">
        <ele>11.184214</ele>
        <time>2020-10-07T17:39:02.332Z</time>
      </trkpt>
      <trkpt lat="58.57532" lon="23.37314">
        <ele>10.932447</ele>
        <time>2020-10-07T17:39:26.165Z</time>
      </trkpt>
      <trkpt lat="58.5743" lon="23.37595">
        <ele>10.328713</ele>
        <time>2020-10-07T17:40:03.607Z</time>
      </trkpt>
      <trkpt lat="58.57281" lon="23.38011">
        <ele>9.342246</ele>
        <time>2020-10-07T17:40:59.451Z</time>
      </trkpt>
      <trkpt lat="58.57262" lon="23.38081">
        <ele>9.159916</ele>
        <time>2020-10-07T17:41:07.910Z</time>
      </trkpt>
      <trkpt lat="58.57233" lon="23.38287">
        <ele>8.170575</ele>
        <time>2020-10-07T17:41:30.010Z</time>
      </trkpt>
      <trkpt lat="58.5723" lon="23.38328">
        <ele>7.945204</ele>
        <time>2020-10-07T17:41:34.057Z</time>
      </trkpt>
      <trkpt lat="58.57227" lon="23.38377">
        <ele>7.677792</ele>
        <time>2020-10-07T17:41:38.867Z</time>
      </trkpt>
      <trkpt lat="58.57227" lon="23.38477">
        <ele>7.132472</ele>
        <time>2020-10-07T17:41:48.636Z</time>
      </trkpt>
      <trkpt lat="58.5723" lon="23.38535">
        <ele>6.828183</ele>
        <time>2020-10-07T17:41:54.291Z</time>
      </trkpt>
      <trkpt lat="58.57235" lon="23.38589">
        <ele>6.538424</ele>
        <time>2020-10-07T17:41:59.825Z</time>
      </trkpt>
      <trkpt lat="58.57246" lon="23.38672">
        <ele>6.086322</ele>
        <time>2020-10-07T17:42:08.514Z</time>
      </trkpt>
      <trkpt lat="58.5726" lon="23.38763">
        <ele>5.58348</ele>
        <time>2020-10-07T17:42:18.416Z</time>
      </trkpt>
      <trkpt lat="58.57264" lon="23.38777">
        <ele>5.503049</ele>
        <time>2020-10-07T17:42:19.955Z</time>
      </trkpt>
      <trkpt lat="58.57268" lon="23.38788">
        <ele>5.435014</ele>
        <time>2020-10-07T17:42:21.253Z</time>
      </trkpt>
      <trkpt lat="58.57273" lon="23.38806">
        <ele>5.322764</ele>
        <time>2020-10-07T17:42:23.333Z</time>
      </trkpt>
      <trkpt lat="58.57276" lon="23.38814">
        <ele>5.275951</ele>
        <time>2020-10-07T17:42:24.285Z</time>
      </trkpt>
      <trkpt lat="58.57278" lon="23.3882">
        <ele>5.243398</ele>
        <time>2020-10-07T17:42:24.957Z</time>
      </trkpt>
      <trkpt lat="58.57282" lon="23.38828">
        <ele>5.189064</ele>
        <time>2020-10-07T17:42:26.143Z</time>
      </trkpt>
      <trkpt lat="58.57287" lon="23.38838">
        <ele>5.115642</ele>
        <time>2020-10-07T17:42:27.691Z</time>
      </trkpt>
      <trkpt lat="58.57293" lon="23.38853">
        <ele>5.02372</ele>
        <time>2020-10-07T17:42:29.549Z</time>
      </trkpt>
      <trkpt lat="58.573" lon="23.38877">
        <ele>4.888062</ele>
        <time>2020-10-07T17:42:32.320Z</time>
      </trkpt>
      <trkpt lat="58.57319" lon="23.39017">
        <ele>4.17403</ele>
        <time>2020-10-07T17:42:47.399Z</time>
      </trkpt>
      <trkpt lat="58.57324" lon="23.39036">
        <ele>4.071298</ele>
        <time>2020-10-07T17:42:49.574Z</time>
      </trkpt>
      <trkpt lat="58.5733" lon="23.39071">
        <ele>3.890781</ele>
        <time>2020-10-07T17:42:53.146Z</time>
      </trkpt>
      <trkpt lat="58.57332" lon="23.39115">
        <ele>3.670142</ele>
        <time>2020-10-07T17:42:57.677Z</time>
      </trkpt>
      <trkpt lat="58.57321" lon="23.39337">
        <ele>2.575602</ele>
        <time>2020-10-07T17:43:19.570Z</time>
      </trkpt>
      <trkpt lat="58.57319" lon="23.39341">
        <ele>2.550212</ele>
        <time>2020-10-07T17:43:20.027Z</time>
      </trkpt>
      <trkpt lat="58.57317" lon="23.39345">
        <ele>2.519383</ele>
        <time>2020-10-07T17:43:20.666Z</time>
      </trkpt>
      <trkpt lat="58.57313" lon="23.39355">
        <ele>2.455227</ele>
        <time>2020-10-07T17:43:22.048Z</time>
      </trkpt>
      <trkpt lat="58.57311" lon="23.39364">
        <ele>2.408536</ele>
        <time>2020-10-07T17:43:23.070Z</time>
      </trkpt>
      <trkpt lat="58.57308" lon="23.39372">
        <ele>2.360976</ele>
        <time>2020-10-07T17:43:24.104Z</time>
      </trkpt>
      <trkpt lat="58.57306" lon="23.39388">
        <ele>2.28407</ele>
        <time>2020-10-07T17:43:25.777Z</time>
      </trkpt>
      <trkpt lat="58.57308" lon="23.39415">
        <ele>2.150369</ele>
        <time>2020-10-07T17:43:28.598Z</time>
      </trkpt>
      <trkpt lat="58.57322" lon="23.39513">
        <ele>1.928362</ele>
        <time>2020-10-07T17:43:36.031Z</time>
      </trkpt>
      <trkpt lat="58.57596" lon="23.5041">
        <ele>0.099314</ele>
        <time>2020-10-07T17:56:49.444Z</time>
      </trkpt>
      <trkpt lat="58.57503" lon="23.50834">
        <ele>0.814749</ele>
        <time>2020-10-07T17:57:22.939Z</time>
      </trkpt>
      <trkpt lat="58.57484" lon="23.50852">
        <ele>1.015827</ele>
        <time>2020-10-07T17:57:28.191Z</time>
      </trkpt>
      <trkpt lat="58.57466" lon="23.50879">
        <ele>1.233629</ele>
        <time>2020-10-07T17:57:34.126Z</time>
      </trkpt>
      <trkpt lat="58.57447" lon="23.50908">
        <ele>1.464325</ele>
        <time>2020-10-07T17:57:40.361Z</time>
      </trkpt>
      <trkpt lat="58.57305" lon="23.51056">
        <ele>3.131359</ele>
        <time>2020-10-07T17:58:24.990Z</time>
      </trkpt>
      <trkpt lat="58.57286" lon="23.51074">
        <ele>3.370815</ele>
        <time>2020-10-07T17:58:30.833Z</time>
      </trkpt>
      <trkpt lat="58.57273" lon="23.51091">
        <ele>3.550061</ele>
        <time>2020-10-07T17:58:34.969Z</time>
      </trkpt>
      <trkpt lat="58.57249" lon="23.51142">
        <ele>3.952383</ele>
        <time>2020-10-07T17:58:44.342Z</time>
      </trkpt>
      <trkpt lat="58.57242" lon="23.51178">
        <ele>4.187049</ele>
        <time>2020-10-07T17:58:49.847Z</time>
      </trkpt>
      <trkpt lat="58.57243" lon="23.51187">
        <ele>4.24347</ele>
        <time>2020-10-07T17:58:51.082Z</time>
      </trkpt>
      <trkpt lat="58.57243" lon="23.51197">
        <ele>4.302096</ele>
        <time>2020-10-07T17:58:52.378Z</time>
      </trkpt>
      <trkpt lat="58.57234" lon="23.51216">
        <ele>4.380643</ele>
        <time>2020-10-07T17:58:55.754Z</time>
      </trkpt>
      <trkpt lat="58.57216" lon="23.51271">
        <ele>4.515849</ele>
        <time>2020-10-07T17:59:04.177Z</time>
      </trkpt>
      <trkpt lat="58.57201" lon="23.51369">
        <ele>4.732541</ele>
        <time>2020-10-07T17:59:17.050Z</time>
      </trkpt>
      <trkpt lat="58.57197" lon="23.5142">
        <ele>4.841515</ele>
        <time>2020-10-07T17:59:23.261Z</time>
      </trkpt>
      <trkpt lat="58.57197" lon="23.51509">
        <ele>5.028729</ele>
        <time>2020-10-07T17:59:33.717Z</time>
      </trkpt>
      <trkpt lat="58.57199" lon="23.51546">
        <ele>5.078803</ele>
        <time>2020-10-07T17:59:38.054Z</time>
      </trkpt>
      <trkpt lat="58.57202" lon="23.51618">
        <ele>5.11646</ele>
        <time>2020-10-07T17:59:46.518Z</time>
      </trkpt>
      <trkpt lat="58.57203" lon="23.51654">
        <ele>5.135211</ele>
        <time>2020-10-07T17:59:50.713Z</time>
      </trkpt>
      <trkpt lat="58.57218" lon="23.51985">
        <ele>5.51669</ele>
        <time>2020-10-07T18:00:30.421Z</time>
      </trkpt>
      <trkpt lat="58.57226" lon="23.52033">
        <ele>5.638667</ele>
        <time>2020-10-07T18:00:36.952Z</time>
      </trkpt>
      <trkpt lat="58.57221" lon="23.52037">
        <ele>5.661293</ele>
        <time>2020-10-07T18:00:40.457Z</time>
      </trkpt>
      <trkpt lat="58.57233" lon="23.5208">
        <ele>5.776891</ele>
        <time>2020-10-07T18:00:46.673Z</time>
      </trkpt>
      <trkpt lat="58.5722" lon="23.52096">
        <ele>5.844041</ele>
        <time>2020-10-07T18:00:50.485Z</time>
      </trkpt>
      <trkpt lat="58.57183" lon="23.52132">
        <ele>6.034101</ele>
        <time>2020-10-07T18:01:01.237Z</time>
      </trkpt>
      <trkpt lat="58.57152" lon="23.52161">
        <ele>6.226683</ele>
        <time>2020-10-07T18:01:10.236Z</time>
      </trkpt>
      <trkpt lat="58.57141" lon="23.52176">
        <ele>6.30361</ele>
        <time>2020-10-07T18:01:13.677Z</time>
      </trkpt>
      <trkpt lat="58.57136" lon="23.52202">
        <ele>6.389623</ele>
        <time>2020-10-07T18:01:17.590Z</time>
      </trkpt>
      <trkpt lat="58.57149" lon="23.52588">
        <ele>7.280405</ele>
        <time>2020-10-07T18:02:08.547Z</time>
      </trkpt>
      <trkpt lat="58.57163" lon="23.52937">
        <ele>7.534063</ele>
        <time>2020-10-07T18:02:51.111Z</time>
      </trkpt>
      <trkpt lat="58.57172" lon="23.53136">
        <ele>7.579537</ele>
        <time>2020-10-07T18:03:15.419Z</time>
      </trkpt>
      <trkpt lat="58.57194" lon="23.53302">
        <ele>7.65157</ele>
        <time>2020-10-07T18:03:36.579Z</time>
      </trkpt>
      <trkpt lat="58.57196" lon="23.53311">
        <ele>7.655509</ele>
        <time>2020-10-07T18:03:37.949Z</time>
      </trkpt>
      <trkpt lat="58.57245" lon="23.53513">
        <ele>7.586938</ele>
        <time>2020-10-07T18:04:05.373Z</time>
      </trkpt>
      <trkpt lat="58.57464" lon="23.54247">
        <ele>5.966168</ele>
        <time>2020-10-07T18:05:40.972Z</time>
      </trkpt>
      <trkpt lat="58.57475" lon="23.54283">
        <ele>5.899061</ele>
        <time>2020-10-07T18:05:45.870Z</time>
      </trkpt>
      <trkpt lat="58.57648" lon="23.54876">
        <ele>5.354542</ele>
        <time>2020-10-07T18:07:07.082Z</time>
      </trkpt>
      <trkpt lat="58.57945" lon="23.55896">
        <ele>2.704701</ele>
        <time>2020-10-07T18:09:18.902Z</time>
      </trkpt>
      <trkpt lat="58.58017" lon="23.56145">
        <ele>2.063873</ele>
        <time>2020-10-07T18:09:51.224Z</time>
      </trkpt>
      <trkpt lat="58.5806" lon="23.56291">
        <ele>2.014272</ele>
        <time>2020-10-07T18:10:10.770Z</time>
      </trkpt>
      <trkpt lat="58.58082" lon="23.56367">
        <ele>2.009602</ele>
        <time>2020-10-07T18:10:21.187Z</time>
      </trkpt>
      <trkpt lat="58.58085" lon="23.56376">
        <ele>2.009004</ele>
        <time>2020-10-07T18:10:22.536Z</time>
      </trkpt>
      <trkpt lat="58.58089" lon="23.56391">
        <ele>2.008084</ele>
        <time>2020-10-07T18:10:24.663Z</time>
      </trkpt>
      <trkpt lat="58.58118" lon="23.56481">
        <ele>2.109358</ele>
        <time>2020-10-07T18:10:37.820Z</time>
      </trkpt>
      <trkpt lat="58.58213" lon="23.56728">
        <ele>3.454185</ele>
        <time>2020-10-07T18:11:20.608Z</time>
      </trkpt>
      <trkpt lat="58.58249" lon="23.56824">
        <ele>4.218392</ele>
        <time>2020-10-07T18:11:38.444Z</time>
      </trkpt>
      <trkpt lat="58.58338" lon="23.57056">
        <ele>6.000656</ele>
        <time>2020-10-07T18:12:21.626Z</time>
      </trkpt>
      <trkpt lat="58.58588" lon="23.57713">
        <ele>7.575066</ele>
        <time>2020-10-07T18:14:07.562Z</time>
      </trkpt>
      <trkpt lat="58.5859" lon="23.57733">
        <ele>7.546804</ele>
        <time>2020-10-07T18:14:09.852Z</time>
      </trkpt>
      <trkpt lat="58.58436" lon="23.58488">
        <ele>4.269276</ele>
        <time>2020-10-07T18:15:35.985Z</time>
      </trkpt>
      <trkpt lat="58.58378" lon="23.58569">
        <ele>4.107945</ele>
        <time>2020-10-07T18:15:51.773Z</time>
      </trkpt>
      <trkpt lat="58.5834" lon="23.58714">
        <ele>4.082266</ele>
        <time>2020-10-07T18:16:11.784Z</time>
      </trkpt>
      <trkpt lat="58.58261" lon="23.58854">
        <ele>4.246812</ele>
        <time>2020-10-07T18:16:38.561Z</time>
      </trkpt>
      <trkpt lat="58.58226" lon="23.58963">
        <ele>4.422113</ele>
        <time>2020-10-07T18:16:54.869Z</time>
      </trkpt>
      <trkpt lat="58.58097" lon="23.59555">
        <ele>4.395014</ele>
        <time>2020-10-07T18:18:12.186Z</time>
      </trkpt>
      <trkpt lat="58.58056" lon="23.59654">
        <ele>4.353031</ele>
        <time>2020-10-07T18:18:27.014Z</time>
      </trkpt>
      <trkpt lat="58.57956" lon="23.59804">
        <ele>4.538953</ele>
        <time>2020-10-07T18:18:56.749Z</time>
      </trkpt>
      <trkpt lat="58.5795" lon="23.59854">
        <ele>4.580601</ele>
        <time>2020-10-07T18:19:03.248Z</time>
      </trkpt>
      <trkpt lat="58.57953" lon="23.59931">
        <ele>4.666371</ele>
        <time>2020-10-07T18:19:13.185Z</time>
      </trkpt>
      <trkpt lat="58.5791" lon="23.60164">
        <ele>5.234728</ele>
        <time>2020-10-07T18:19:45.778Z</time>
      </trkpt>
      <trkpt lat="58.57874" lon="23.60266">
        <ele>5.442365</ele>
        <time>2020-10-07T18:20:01.858Z</time>
      </trkpt>
      <trkpt lat="58.57859" lon="23.60366">
        <ele>5.490285</ele>
        <time>2020-10-07T18:20:14.941Z</time>
      </trkpt>
      <trkpt lat="58.57602" lon="23.60239">
        <ele>5.405868</ele>
        <time>2020-10-07T18:21:12.772Z</time>
      </trkpt>
      <trkpt lat="58.57539" lon="23.60208">
        <ele>5.469217</ele>
        <time>2020-10-07T18:21:26.957Z</time>
      </trkpt>
      <trkpt lat="58.56917" lon="23.599">
        <ele>6.721944</ele>
        <time>2020-10-07T18:23:55.588Z</time>
      </trkpt>
      <trkpt lat="58.56872" lon="23.59885">
        <ele>6.84767</ele>
        <time>2020-10-07T18:24:06.370Z</time>
      </trkpt>
      <trkpt lat="58.56844" lon="23.59887">
        <ele>6.950967</ele>
        <time>2020-10-07T18:24:13.043Z</time>
      </trkpt>
      <trkpt lat="58.56798" lon="23.59889">
        <ele>7.116832</ele>
        <time>2020-10-07T18:24:23.903Z</time>
      </trkpt>
      <trkpt lat="58.56758" lon="23.59878">
        <ele>7.263734</ele>
        <time>2020-10-07T18:24:33.475Z</time>
      </trkpt>
      <trkpt lat="58.56687" lon="23.598">
        <ele>7.564416</ele>
        <time>2020-10-07T18:24:53.217Z</time>
      </trkpt>
      <trkpt lat="58.56589" lon="23.59747">
        <ele>7.941394</ele>
        <time>2020-10-07T18:25:17.468Z</time>
      </trkpt>
      <trkpt lat="58.56549" lon="23.59757">
        <ele>8.090075</ele>
        <time>2020-10-07T18:25:26.910Z</time>
      </trkpt>
      <trkpt lat="58.56514" lon="23.59752">
        <ele>8.188553</ele>
        <time>2020-10-07T18:25:34.919Z</time>
      </trkpt>
      <trkpt lat="58.56354" lon="23.59653">
        <ele>8.673006</ele>
        <time>2020-10-07T18:26:14.351Z</time>
      </trkpt>
      <trkpt lat="58.56311" lon="23.59654">
        <ele>8.873082</ele>
        <time>2020-10-07T18:26:24.668Z</time>
      </trkpt>
      <trkpt lat="58.56102" lon="23.59696">
        <ele>9.834576</ele>
        <time>2020-10-07T18:27:15.894Z</time>
      </trkpt>
      <trkpt lat="58.56036" lon="23.5971">
        <ele>10.135586</ele>
        <time>2020-10-07T18:27:31.748Z</time>
      </trkpt>
      <trkpt lat="58.55925" lon="23.59728">
        <ele>10.527045</ele>
        <time>2020-10-07T18:27:57.851Z</time>
      </trkpt>
      <trkpt lat="58.55896" lon="23.5974">
        <ele>10.624095</ele>
        <time>2020-10-07T18:28:04.857Z</time>
      </trkpt>
      <trkpt lat="58.55783" lon="23.59784">
        <ele>11.04927</ele>
        <time>2020-10-07T18:28:32.273Z</time>
      </trkpt>
      <trkpt lat="58.55769" lon="23.59789">
        <ele>11.107239</ele>
        <time>2020-10-07T18:28:35.684Z</time>
      </trkpt>
      <trkpt lat="58.55711" lon="23.598">
        <ele>11.351681</ele>
        <time>2020-10-07T18:28:50.086Z</time>
      </trkpt>
      <trkpt lat="58.55534" lon="23.59799">
        <ele>11.683945</ele>
        <time>2020-10-07T18:29:31.440Z</time>
      </trkpt>
      <trkpt lat="58.55432" lon="23.59799">
        <ele>11.431604</ele>
        <time>2020-10-07T18:29:53.038Z</time>
      </trkpt>
      <trkpt lat="58.55327" lon="23.59825">
        <ele>10.724098</ele>
        <time>2020-10-07T18:30:14.087Z</time>
      </trkpt>
      <trkpt lat="58.55192" lon="23.59982">
        <ele>9.430067</ele>
        <time>2020-10-07T18:30:44.964Z</time>
      </trkpt>
      <trkpt lat="58.55169" lon="23.60029">
        <ele>9.143915</ele>
        <time>2020-10-07T18:30:51.556Z</time>
      </trkpt>
      <trkpt lat="58.55167" lon="23.60034">
        <ele>9.112487</ele>
        <time>2020-10-07T18:30:52.272Z</time>
      </trkpt>
      <trkpt lat="58.5497" lon="23.60439">
        <ele>7.570595</ele>
        <time>2020-10-07T18:31:50.973Z</time>
      </trkpt>
      <trkpt lat="58.54886" lon="23.60589">
        <ele>7.351862</ele>
        <time>2020-10-07T18:32:16.465Z</time>
      </trkpt>
      <trkpt lat="58.5482" lon="23.60688">
        <ele>7.462378</ele>
        <time>2020-10-07T18:32:35.613Z</time>
      </trkpt>
      <trkpt lat="58.54809" lon="23.60696">
        <ele>7.478135</ele>
        <time>2020-10-07T18:32:38.484Z</time>
      </trkpt>
      <trkpt lat="58.54796" lon="23.607">
        <ele>7.496021</ele>
        <time>2020-10-07T18:32:41.467Z</time>
      </trkpt>
      <trkpt lat="58.54722" lon="23.6071">
        <ele>7.588999</ele>
        <time>2020-10-07T18:32:58.248Z</time>
      </trkpt>
      <trkpt lat="58.54668" lon="23.60746">
        <ele>7.658361</ele>
        <time>2020-10-07T18:33:11.568Z</time>
      </trkpt>
      <trkpt lat="58.5463" lon="23.60783">
        <ele>7.709418</ele>
        <time>2020-10-07T18:33:21.090Z</time>
      </trkpt>
      <trkpt lat="58.54579" lon="23.60836">
        <ele>7.781276</ele>
        <time>2020-10-07T18:33:34.378Z</time>
      </trkpt>
      <trkpt lat="58.54543" lon="23.60878">
        <ele>7.836685</ele>
        <time>2020-10-07T18:33:43.883Z</time>
      </trkpt>
      <trkpt lat="58.54404" lon="23.61107">
        <ele>8.140161</ele>
        <time>2020-10-07T18:34:26.026Z</time>
      </trkpt>
      <trkpt lat="58.54359" lon="23.61214">
        <ele>8.307294</ele>
        <time>2020-10-07T18:34:42.346Z</time>
      </trkpt>
      <trkpt lat="58.54337" lon="23.61304">
        <ele>8.430731</ele>
        <time>2020-10-07T18:34:54.497Z</time>
      </trkpt>
      <trkpt lat="58.54323" lon="23.6143">
        <ele>8.926469</ele>
        <time>2020-10-07T18:35:10.792Z</time>
      </trkpt>
      <trkpt lat="58.54324" lon="23.61519">
        <ele>9.270416</ele>
        <time>2020-10-07T18:35:22.946Z</time>
      </trkpt>
      <trkpt lat="58.54312" lon="23.61628">
        <ele>9.699365</ele>
        <time>2020-10-07T18:35:38.285Z</time>
      </trkpt>
      <trkpt lat="58.54249" lon="23.61768">
        <ele>10.232342</ele>
        <time>2020-10-07T18:36:03.195Z</time>
      </trkpt>
      <trkpt lat="58.54224" lon="23.61822">
        <ele>10.433428</ele>
        <time>2020-10-07T18:36:18.040Z</time>
      </trkpt>
      <trkpt lat="58.54091" lon="23.62094">
        <ele>10.532411</ele>
        <time>2020-10-07T18:37:29.676Z</time>
      </trkpt>
      <trkpt lat="58.54036" lon="23.62152">
        <ele>10.408298</ele>
        <time>2020-10-07T18:37:52.399Z</time>
      </trkpt>
      <trkpt lat="58.54018" lon="23.6217">
        <ele>10.348496</ele>
        <time>2020-10-07T18:37:59.669Z</time>
      </trkpt>
      <trkpt lat="58.53871" lon="23.62457">
        <ele>9.512398</ele>
        <time>2020-10-07T18:39:15.195Z</time>
      </trkpt>
      <trkpt lat="58.53864" lon="23.62497">
        <ele>9.384161</ele>
        <time>2020-10-07T18:39:22.904Z</time>
      </trkpt>
      <trkpt lat="58.53809" lon="23.6268">
        <ele>8.66917</ele>
        <time>2020-10-07T18:40:00.943Z</time>
      </trkpt>
      <trkpt lat="58.53787" lon="23.62714">
        <ele>8.428537</ele>
        <time>2020-10-07T18:40:10.481Z</time>
      </trkpt>
      <trkpt lat="58.53732" lon="23.62734">
        <ele>7.95619</ele>
        <time>2020-10-07T18:40:29.300Z</time>
      </trkpt>
      <trkpt lat="58.537" lon="23.62848">
        <ele>7.383318</ele>
        <time>2020-10-07T18:40:52.578Z</time>
      </trkpt>
      <trkpt lat="58.53694" lon="23.62909">
        <ele>7.234813</ele>
        <time>2020-10-07T18:41:03.874Z</time>
      </trkpt>
      <trkpt lat="58.53706" lon="23.62943">
        <ele>7.140135</ele>
        <time>2020-10-07T18:41:11.607Z</time>
      </trkpt>
      <trkpt lat="58.53787" lon="23.63011">
        <ele>6.755426</ele>
        <time>2020-10-07T18:41:43.142Z</time>
      </trkpt>
      <trkpt lat="58.5381" lon="23.63053">
        <ele>6.616178</ele>
        <time>2020-10-07T18:41:54.548Z</time>
      </trkpt>
      <trkpt lat="58.5383" lon="23.63105">
        <ele>6.53399</ele>
        <time>2020-10-07T18:42:06.719Z</time>
      </trkpt>
      <trkpt lat="58.53862" lon="23.63139">
        <ele>6.463647</ele>
        <time>2020-10-07T18:42:19.836Z</time>
      </trkpt>
      <trkpt lat="58.5389" lon="23.63167">
        <ele>6.402793</ele>
        <time>2020-10-07T18:42:31.198Z</time>
      </trkpt>
      <trkpt lat="58.53944" lon="23.63217">
        <ele>6.286754</ele>
        <time>2020-10-07T18:42:53.019Z</time>
      </trkpt>
      <trkpt lat="58.53993" lon="23.6323">
        <ele>6.331752</ele>
        <time>2020-10-07T18:43:11.559Z</time>
      </trkpt>
      <trkpt lat="58.54053" lon="23.63292">
        <ele>6.601044</ele>
        <time>2020-10-07T18:43:37.550Z</time>
      </trkpt>
      <trkpt lat="58.54094" lon="23.63322">
        <ele>6.770737</ele>
        <time>2020-10-07T18:43:54.561Z</time>
      </trkpt>
      <trkpt lat="58.54119" lon="23.63381">
        <ele>6.928705</ele>
        <time>2020-10-07T18:44:10.734Z</time>
      </trkpt>
      <trkpt lat="58.54133" lon="23.63452">
        <ele>7.23858</ele>
        <time>2020-10-07T18:44:26.856Z</time>
      </trkpt>
      <trkpt lat="58.54159" lon="23.64121">
        <ele>9.942718</ele>
        <time>2020-10-07T18:46:48.908Z</time>
      </trkpt>
      <trkpt lat="58.54141" lon="23.64215">
        <ele>9.982368</ele>
        <time>2020-10-07T18:47:09.198Z</time>
      </trkpt>
      <trkpt lat="58.53812" lon="23.65361">
        <ele>10.132865</ele>
        <time>2020-10-07T18:51:22.504Z</time>
      </trkpt>
      <trkpt lat="58.53796" lon="23.65448">
        <ele>9.963283</ele>
        <time>2020-10-07T18:51:39.765Z</time>
      </trkpt>
      <trkpt lat="58.53788" lon="23.65547">
        <ele>9.77827</ele>
        <time>2020-10-07T18:51:58.379Z</time>
      </trkpt>
      <trkpt lat="58.53813" lon="23.65662">
        <ele>9.469534</ele>
        <time>2020-10-07T18:52:21.356Z</time>
      </trkpt>
      <trkpt lat="58.53973" lon="23.66083">
        <ele>7.740841</ele>
        <time>2020-10-07T18:53:55.832Z</time>
      </trkpt>
      <trkpt lat="58.54131" lon="23.66449">
        <ele>6.369478</ele>
        <time>2020-10-07T18:55:23.046Z</time>
      </trkpt>
      <trkpt lat="58.54187" lon="23.66579">
        <ele>6.219073</ele>
        <time>2020-10-07T18:55:54.690Z</time>
      </trkpt>
      <trkpt lat="58.54189" lon="23.6661">
        <ele>6.19128</ele>
        <time>2020-10-07T18:56:00.559Z</time>
      </trkpt>
      <trkpt lat="58.54109" lon="23.66795">
        <ele>6.280059</ele>
        <time>2020-10-07T18:56:47.811Z</time>
      </trkpt>
      <trkpt lat="58.54093" lon="23.66943">
        <ele>6.568677</ele>
        <time>2020-10-07T18:57:18.979Z</time>
      </trkpt>
      <trkpt lat="58.54021" lon="23.67194">
        <ele>6.878319</ele>
        <time>2020-10-07T18:58:16.620Z</time>
      </trkpt>
      <trkpt lat="58.53989" lon="23.67253">
        <ele>6.940174</ele>
        <time>2020-10-07T18:58:33.098Z</time>
      </trkpt>
      <trkpt lat="58.53955" lon="23.6733">
        <ele>6.895595</ele>
        <time>2020-10-07T18:58:52.241Z</time>
      </trkpt>
      <trkpt lat="58.53832" lon="23.67473">
        <ele>6.322776</ele>
        <time>2020-10-07T18:59:43.067Z</time>
      </trkpt>
      <trkpt lat="58.53822" lon="23.67493">
        <ele>6.264522</ele>
        <time>2020-10-07T18:59:48.345Z</time>
      </trkpt>
      <trkpt lat="58.53819" lon="23.67507">
        <ele>6.233479</ele>
        <time>2020-10-07T18:59:51.274Z</time>
      </trkpt>
      <trkpt lat="58.53816" lon="23.67516">
        <ele>6.213292</ele>
        <time>2020-10-07T18:59:53.131Z</time>
      </trkpt>
      <trkpt lat="58.53813" lon="23.67539">
        <ele>6.164716</ele>
        <time>2020-10-07T18:59:57.508Z</time>
      </trkpt>
      <trkpt lat="58.53811" lon="23.67579">
        <ele>6.084725</ele>
        <time>2020-10-07T19:00:05.118Z</time>
      </trkpt>
      <trkpt lat="58.5381" lon="23.67604">
        <ele>6.033196</ele>
        <time>2020-10-07T19:00:09.768Z</time>
      </trkpt>
      <trkpt lat="58.53808" lon="23.67979">
        <ele>5.312632</ele>
        <time>2020-10-07T19:01:19.870Z</time>
      </trkpt>
      <trkpt lat="58.53821" lon="23.68057">
        <ele>5.164916</ele>
        <time>2020-10-07T19:01:35.338Z</time>
      </trkpt>
      <trkpt lat="58.53826" lon="23.68091">
        <ele>5.102486</ele>
        <time>2020-10-07T19:01:41.894Z</time>
      </trkpt>
      <trkpt lat="58.53822" lon="23.68156">
        <ele>4.984513</ele>
        <time>2020-10-07T19:01:54.229Z</time>
      </trkpt>
      <trkpt lat="58.53796" lon="23.68279">
        <ele>4.893063</ele>
        <time>2020-10-07T19:02:18.921Z</time>
      </trkpt>
      <trkpt lat="58.53812" lon="23.68519">
        <ele>4.81257</ele>
        <time>2020-10-07T19:03:05.666Z</time>
      </trkpt>
      <trkpt lat="58.53807" lon="23.68598">
        <ele>5.065114</ele>
        <time>2020-10-07T19:03:21.734Z</time>
      </trkpt>
      <trkpt lat="58.53794" lon="23.68672">
        <ele>5.315395</ele>
        <time>2020-10-07T19:03:37.959Z</time>
      </trkpt>
      <trkpt lat="58.53734" lon="23.68899">
        <ele>6.218123</ele>
        <time>2020-10-07T19:04:31.741Z</time>
      </trkpt>
      <trkpt lat="58.53717" lon="23.69001">
        <ele>6.68614</ele>
        <time>2020-10-07T19:04:54.875Z</time>
      </trkpt>
      <trkpt lat="58.53717" lon="23.69069">
        <ele>6.984217</ele>
        <time>2020-10-07T19:05:09.473Z</time>
      </trkpt>
      <trkpt lat="58.5373" lon="23.69212">
        <ele>7.470681</ele>
        <time>2020-10-07T19:05:39.702Z</time>
      </trkpt>
      <trkpt lat="58.5374" lon="23.69299">
        <ele>7.629927</ele>
        <time>2020-10-07T19:05:58.002Z</time>
      </trkpt>
      <trkpt lat="58.53685" lon="23.69332">
        <ele>7.826318</ele>
        <time>2020-10-07T19:06:11.993Z</time>
      </trkpt>
      <trkpt lat="58.53189" lon="23.69631">
        <ele>8.218147</ele>
        <time>2020-10-07T19:08:12.696Z</time>
      </trkpt>
      <trkpt lat="58.53155" lon="23.69656">
        <ele>8.285928</ele>
        <time>2020-10-07T19:08:21.773Z</time>
      </trkpt>
      <trkpt lat="58.53106" lon="23.69707">
        <ele>8.38743</ele>
        <time>2020-10-07T19:08:35.906Z</time>
      </trkpt>
      <trkpt lat="58.53089" lon="23.69734">
        <ele>8.426475</ele>
        <time>2020-10-07T19:08:41.501Z</time>
      </trkpt>
      <trkpt lat="58.53074" lon="23.69759">
        <ele>8.460672</ele>
        <time>2020-10-07T19:08:46.585Z</time>
      </trkpt>
      <trkpt lat="58.53042" lon="23.69811">
        <ele>8.534142</ele>
        <time>2020-10-07T19:08:56.840Z</time>
      </trkpt>
      <trkpt lat="58.52985" lon="23.69913">
        <ele>8.591643</ele>
        <time>2020-10-07T19:09:14.562Z</time>
      </trkpt>
      <trkpt lat="58.52964" lon="23.69961">
        <ele>8.373513</ele>
        <time>2020-10-07T19:09:21.987Z</time>
      </trkpt>
      <trkpt lat="58.52941" lon="23.70038">
        <ele>8.068812</ele>
        <time>2020-10-07T19:09:31.640Z</time>
      </trkpt>
      <trkpt lat="58.52927" lon="23.70084">
        <ele>7.881019</ele>
        <time>2020-10-07T19:09:37.426Z</time>
      </trkpt>
      <trkpt lat="58.52898" lon="23.70166">
        <ele>7.539674</ele>
        <time>2020-10-07T19:09:47.966Z</time>
      </trkpt>
      <trkpt lat="58.52828" lon="23.70314">
        <ele>6.726515</ele>
        <time>2020-10-07T19:10:09.160Z</time>
      </trkpt>
      <trkpt lat="58.52798" lon="23.7035">
        <ele>6.446753</ele>
        <time>2020-10-07T19:10:16.592Z</time>
      </trkpt>
      <trkpt lat="58.52765" lon="23.70352">
        <ele>6.184061</ele>
        <time>2020-10-07T19:10:23.576Z</time>
      </trkpt>
      <trkpt lat="58.52707" lon="23.70323">
        <ele>5.87475</ele>
        <time>2020-10-07T19:10:36.269Z</time>
      </trkpt>
      <trkpt lat="58.52663" lon="23.70301">
        <ele>5.699923</ele>
        <time>2020-10-07T19:10:45.973Z</time>
      </trkpt>
      <trkpt lat="58.52636" lon="23.70282">
        <ele>5.586039</ele>
        <time>2020-10-07T19:10:52.271Z</time>
      </trkpt>
      <trkpt lat="58.51903" lon="23.69778">
        <ele>4.519921</ele>
        <time>2020-10-07T19:13:49.485Z</time>
      </trkpt>
      <trkpt lat="58.51633" lon="23.69598">
        <ele>4.463452</ele>
        <time>2020-10-07T19:14:55.263Z</time>
      </trkpt>
      <trkpt lat="58.5159" lon="23.69574">
        <ele>4.476219</ele>
        <time>2020-10-07T19:15:05.940Z</time>
      </trkpt>
      <trkpt lat="58.51549" lon="23.69565">
        <ele>4.488202</ele>
        <time>2020-10-07T19:15:15.584Z</time>
      </trkpt>
      <trkpt lat="58.5141" lon="23.69562">
        <ele>4.540368</ele>
        <time>2020-10-07T19:15:48.837Z</time>
      </trkpt>
      <trkpt lat="58.51283" lon="23.6956">
        <ele>4.396104</ele>
        <time>2020-10-07T19:16:17.138Z</time>
      </trkpt>
      <trkpt lat="58.51137" lon="23.69559">
        <ele>4.385762</ele>
        <time>2020-10-07T19:16:50.301Z</time>
      </trkpt>
      <trkpt lat="58.51064" lon="23.69559">
        <ele>4.555225</ele>
        <time>2020-10-07T19:17:08.093Z</time>
      </trkpt>
      <trkpt lat="58.50987" lon="23.69568">
        <ele>4.816458</ele>
        <time>2020-10-07T19:17:27.673Z</time>
      </trkpt>
      <trkpt lat="58.50828" lon="23.69581">
        <ele>5.623083</ele>
        <time>2020-10-07T19:18:08.129Z</time>
      </trkpt>
      <trkpt lat="58.50683" lon="23.69582">
        <ele>6.042561</ele>
        <time>2020-10-07T19:18:43.565Z</time>
      </trkpt>
      <trkpt lat="58.50529" lon="23.69599">
        <ele>6.156637</ele>
        <time>2020-10-07T19:19:19.918Z</time>
      </trkpt>
      <trkpt lat="58.50254" lon="23.69636">
        <ele>5.676438</ele>
        <time>2020-10-07T19:20:21.626Z</time>
      </trkpt>
      <trkpt lat="58.5014" lon="23.69655">
        <ele>5.386532</ele>
        <time>2020-10-07T19:20:46.946Z</time>
      </trkpt>
      <trkpt lat="58.49888" lon="23.69693">
        <ele>5.248465</ele>
        <time>2020-10-07T19:21:44.992Z</time>
      </trkpt>
      <trkpt lat="58.49773" lon="23.6971">
        <ele>5.316243</ele>
        <time>2020-10-07T19:22:11.578Z</time>
      </trkpt>
      <trkpt lat="58.49507" lon="23.6975">
        <ele>6.878316</ele>
        <time>2020-10-07T19:23:20.958Z</time>
      </trkpt>
      <trkpt lat="58.49348" lon="23.69774">
        <ele>7.735196</ele>
        <time>2020-10-07T19:24:00.647Z</time>
      </trkpt>
      <trkpt lat="58.49314" lon="23.69779">
        <ele>7.912729</ele>
        <time>2020-10-07T19:24:09.162Z</time>
      </trkpt>
      <trkpt lat="58.49265" lon="23.69803">
        <ele>8.175948</ele>
        <time>2020-10-07T19:24:21.934Z</time>
      </trkpt>
      <trkpt lat="58.49228" lon="23.6982">
        <ele>8.371539</ele>
        <time>2020-10-07T19:24:31.607Z</time>
      </trkpt>
      <trkpt lat="58.48966" lon="23.69979">
        <ele>10.581616</ele>
        <time>2020-10-07T19:25:44.728Z</time>
      </trkpt>
      <trkpt lat="58.48713" lon="23.70125">
        <ele>12.59153</ele>
        <time>2020-10-07T19:26:54.538Z</time>
      </trkpt>
      <trkpt lat="58.47534" lon="23.70751">
        <ele>17.536651</ele>
        <time>2020-10-07T19:31:54.991Z</time>
      </trkpt>
      <trkpt lat="58.47416" lon="23.70824">
        <ele>19.833016</ele>
        <time>2020-10-07T19:32:34.307Z</time>
      </trkpt>
      <trkpt lat="58.47335" lon="23.70898">
        <ele>21.928395</ele>
        <time>2020-10-07T19:33:04.930Z</time>
      </trkpt>
      <trkpt lat="58.47261" lon="23.70991">
        <ele>23.989618</ele>
        <time>2020-10-07T19:33:34.871Z</time>
      </trkpt>
      <trkpt lat="58.47202" lon="23.71074">
        <ele>25.688826</ele>
        <time>2020-10-07T19:33:58.187Z</time>
      </trkpt>
      <trkpt lat="58.47169" lon="23.71125">
        <ele>26.514466</ele>
        <time>2020-10-07T19:34:11.332Z</time>
      </trkpt>
      <trkpt lat="58.47109" lon="23.71232">
        <ele>27.652934</ele>
        <time>2020-10-07T19:34:35.398Z</time>
      </trkpt>
      <trkpt lat="58.46823" lon="23.71865">
        <ele>32.601027</ele>
        <time>2020-10-07T19:36:35.717Z</time>
      </trkpt>
      <trkpt lat="58.46743" lon="23.71987">
        <ele>33.243593</ele>
        <time>2020-10-07T19:37:03.685Z</time>
      </trkpt>
      <trkpt lat="58.46657" lon="23.72141">
        <ele>33.415821</ele>
        <time>2020-10-07T19:37:32.070Z</time>
      </trkpt>
      <trkpt lat="58.46553" lon="23.72333">
        <ele>32.211678</ele>
        <time>2020-10-07T19:38:00.910Z</time>
      </trkpt>
      <trkpt lat="58.46513" lon="23.72421">
        <ele>31.606118</ele>
        <time>2020-10-07T19:38:12.731Z</time>
      </trkpt>
      <trkpt lat="58.46363" lon="23.7277">
        <ele>29.915905</ele>
        <time>2020-10-07T19:39:01.960Z</time>
      </trkpt>
      <trkpt lat="58.46339" lon="23.7282">
        <ele>29.752677</ele>
        <time>2020-10-07T19:39:10.073Z</time>
      </trkpt>
      <trkpt lat="58.46304" lon="23.72878">
        <ele>29.67958</ele>
        <time>2020-10-07T19:39:20.954Z</time>
      </trkpt>
      <trkpt lat="58.46059" lon="23.73194">
        <ele>30.220392</ele>
        <time>2020-10-07T19:40:31.911Z</time>
      </trkpt>
      <trkpt lat="58.45765" lon="23.7355">
        <ele>30.754672</ele>
        <time>2020-10-07T19:41:56.459Z</time>
      </trkpt>
      <trkpt lat="58.45616" lon="23.73688">
        <ele>30.023368</ele>
        <time>2020-10-07T19:42:31.646Z</time>
      </trkpt>
      <trkpt lat="58.45169" lon="23.7408">
        <ele>26.540848</ele>
        <time>2020-10-07T19:44:14.071Z</time>
      </trkpt>
      <trkpt lat="58.45105" lon="23.74134">
        <ele>26.159819</ele>
        <time>2020-10-07T19:44:29.053Z</time>
      </trkpt>
      <trkpt lat="58.44973" lon="23.74249">
        <ele>25.604592</ele>
        <time>2020-10-07T19:45:00.877Z</time>
      </trkpt>
      <trkpt lat="58.44955" lon="23.74264">
        <ele>25.545242</ele>
        <time>2020-10-07T19:45:05.172Z</time>
      </trkpt>
      <trkpt lat="58.44838" lon="23.74368">
        <ele>25.196654</ele>
        <time>2020-10-07T19:45:34.175Z</time>
      </trkpt>
      <trkpt lat="58.44828" lon="23.74377">
        <ele>25.170837</ele>
        <time>2020-10-07T19:45:36.627Z</time>
      </trkpt>
      <trkpt lat="58.44655" lon="23.74532">
        <ele>24.763096</ele>
        <time>2020-10-07T19:46:19.278Z</time>
      </trkpt>
      <trkpt lat="58.44505" lon="23.74657">
        <ele>24.529767</ele>
        <time>2020-10-07T19:46:56.255Z</time>
      </trkpt>
      <trkpt lat="58.44421" lon="23.74705">
        <ele>24.457607</ele>
        <time>2020-10-07T19:47:16.241Z</time>
      </trkpt>
      <trkpt lat="58.44377" lon="23.74722">
        <ele>24.580283</ele>
        <time>2020-10-07T19:47:26.667Z</time>
      </trkpt>
      <trkpt lat="58.44295" lon="23.74735">
        <ele>24.99207</ele>
        <time>2020-10-07T19:47:46.545Z</time>
      </trkpt>
      <trkpt lat="58.44288" lon="23.74733">
        <ele>25.02892</ele>
        <time>2020-10-07T19:47:48.364Z</time>
      </trkpt>
      <trkpt lat="58.44272" lon="23.7473">
        <ele>25.109693</ele>
        <time>2020-10-07T19:47:52.348Z</time>
      </trkpt>
      <trkpt lat="58.44085" lon="23.74695">
        <ele>27.338584</ele>
        <time>2020-10-07T19:48:45.613Z</time>
      </trkpt>
      <trkpt lat="58.44021" lon="23.74683">
        <ele>28.190088</ele>
        <time>2020-10-07T19:49:05.677Z</time>
      </trkpt>
      <trkpt lat="58.44007" lon="23.74681">
        <ele>28.35262</ele>
        <time>2020-10-07T19:49:09.799Z</time>
      </trkpt>
      <trkpt lat="58.43986" lon="23.74675">
        <ele>28.601234</ele>
        <time>2020-10-07T19:49:16.096Z</time>
      </trkpt>
      <trkpt lat="58.43917" lon="23.74646">
        <ele>29.438419</ele>
        <time>2020-10-07T19:49:36.404Z</time>
      </trkpt>
      <trkpt lat="58.43822" lon="23.74606">
        <ele>29.841223</ele>
        <time>2020-10-07T19:50:00.397Z</time>
      </trkpt>
      <trkpt lat="58.43519" lon="23.746">
        <ele>28.081069</ele>
        <time>2020-10-07T19:51:04.012Z</time>
      </trkpt>
      <trkpt lat="58.43464" lon="23.74616">
        <ele>27.486546</ele>
        <time>2020-10-07T19:51:15.100Z</time>
      </trkpt>
      <trkpt lat="58.43405" lon="23.74649">
        <ele>26.78167</ele>
        <time>2020-10-07T19:51:27.228Z</time>
      </trkpt>
      <trkpt lat="58.43333" lon="23.74712">
        <ele>25.954223</ele>
        <time>2020-10-07T19:51:42.914Z</time>
      </trkpt>
      <trkpt lat="58.43278" lon="23.74795">
        <ele>25.730313</ele>
        <time>2020-10-07T19:51:57.741Z</time>
      </trkpt>
      <trkpt lat="58.43205" lon="23.74931">
        <ele>25.412174</ele>
        <time>2020-10-07T19:52:21.097Z</time>
      </trkpt>
      <trkpt lat="58.43174" lon="23.74986">
        <ele>25.603758</ele>
        <time>2020-10-07T19:52:31.665Z</time>
      </trkpt>
      <trkpt lat="58.42981" lon="23.75327">
        <ele>26.685319</ele>
        <time>2020-10-07T19:53:38.268Z</time>
      </trkpt>
      <trkpt lat="58.42945" lon="23.75394">
        <ele>26.866703</ele>
        <time>2020-10-07T19:53:50.079Z</time>
      </trkpt>
      <trkpt lat="58.42923" lon="23.75435">
        <ele>26.896607</ele>
        <time>2020-10-07T19:53:57.267Z</time>
      </trkpt>
      <trkpt lat="58.42913" lon="23.75451">
        <ele>26.904386</ele>
        <time>2020-10-07T19:54:00.328Z</time>
      </trkpt>
      <trkpt lat="58.42888" lon="23.75487">
        <ele>26.922603</ele>
        <time>2020-10-07T19:54:07.551Z</time>
      </trkpt>
      <trkpt lat="58.42864" lon="23.75513">
        <ele>26.938866</ele>
        <time>2020-10-07T19:54:13.948Z</time>
      </trkpt>
      <trkpt lat="58.42848" lon="23.75524">
        <ele>26.94873</ele>
        <time>2020-10-07T19:54:17.793Z</time>
      </trkpt>
      <trkpt lat="58.42632" lon="23.75673">
        <ele>27.298316</ele>
        <time>2020-10-07T19:55:12.506Z</time>
      </trkpt>
      <trkpt lat="58.42573" lon="23.75708">
        <ele>27.549261</ele>
        <time>2020-10-07T19:55:27.812Z</time>
      </trkpt>
      <trkpt lat="58.42552" lon="23.75695">
        <ele>27.652848</ele>
        <time>2020-10-07T19:55:33.423Z</time>
      </trkpt>
      <trkpt lat="58.42384" lon="23.7563">
        <ele>28.360909</ele>
        <time>2020-10-07T19:56:17.026Z</time>
      </trkpt>
      <trkpt lat="58.42333" lon="23.75619">
        <ele>28.513398</ele>
        <time>2020-10-07T19:56:29.422Z</time>
      </trkpt>
      <trkpt lat="58.42308" lon="23.75644">
        <ele>28.600046</ele>
        <time>2020-10-07T19:56:36.379Z</time>
      </trkpt>
      <trkpt lat="58.42204" lon="23.75884">
        <ele>28.616931</ele>
        <time>2020-10-07T19:57:13.630Z</time>
      </trkpt>
      <trkpt lat="58.42207" lon="23.75897">
        <ele>28.610938</ele>
        <time>2020-10-07T19:57:15.342Z</time>
      </trkpt>
      <trkpt lat="58.42185" lon="23.75926">
        <ele>28.589671</ele>
        <time>2020-10-07T19:57:21.189Z</time>
      </trkpt>
      <trkpt lat="58.42157" lon="23.75986">
        <ele>28.64689</ele>
        <time>2020-10-07T19:57:30.948Z</time>
      </trkpt>
      <trkpt lat="58.42109" lon="23.76092">
        <ele>28.925374</ele>
        <time>2020-10-07T19:57:48.456Z</time>
      </trkpt>
      <trkpt lat="58.42" lon="23.76346">
        <ele>29.657024</ele>
        <time>2020-10-07T19:58:32.874Z</time>
      </trkpt>
      <trkpt lat="58.41924" lon="23.76516">
        <ele>29.998337</ele>
        <time>2020-10-07T19:59:02.100Z</time>
      </trkpt>
      <trkpt lat="58.41901" lon="23.76556">
        <ele>29.846752</ele>
        <time>2020-10-07T19:59:09.252Z</time>
      </trkpt>
      <trkpt lat="58.41884" lon="23.76581">
        <ele>29.745474</ele>
        <time>2020-10-07T19:59:13.787Z</time>
      </trkpt>
      <trkpt lat="58.41839" lon="23.76637">
        <ele>29.487688</ele>
        <time>2020-10-07T19:59:25.228Z</time>
      </trkpt>
      <trkpt lat="58.41835" lon="23.76641">
        <ele>29.468613</ele>
        <time>2020-10-07T19:59:26.034Z</time>
      </trkpt>
      <trkpt lat="58.41767" lon="23.76728">
        <ele>28.864892</ele>
        <time>2020-10-07T19:59:42.555Z</time>
      </trkpt>
      <trkpt lat="58.41682" lon="23.76833">
        <ele>27.771444</ele>
        <time>2020-10-07T20:00:02.619Z</time>
      </trkpt>
      <trkpt lat="58.41545" lon="23.76981">
        <ele>26.297502</ele>
        <time>2020-10-07T20:00:34.557Z</time>
      </trkpt>
      <trkpt lat="58.4141" lon="23.77102">
        <ele>25.303496</ele>
        <time>2020-10-07T20:01:05.807Z</time>
      </trkpt>
      <trkpt lat="58.41252" lon="23.77244">
        <ele>24.579055</ele>
        <time>2020-10-07T20:01:44.628Z</time>
      </trkpt>
      <trkpt lat="58.40986" lon="23.77506">
        <ele>23.64183</ele>
        <time>2020-10-07T20:02:50.618Z</time>
      </trkpt>
      <trkpt lat="58.40886" lon="23.77579">
        <ele>23.410006</ele>
        <time>2020-10-07T20:03:14.504Z</time>
      </trkpt>
      <trkpt lat="58.4082" lon="23.77629">
        <ele>23.242534</ele>
        <time>2020-10-07T20:03:30.446Z</time>
      </trkpt>
      <trkpt lat="58.40685" lon="23.77684">
        <ele>22.822909</ele>
        <time>2020-10-07T20:04:01.029Z</time>
      </trkpt>
      <trkpt lat="58.40611" lon="23.77699">
        <ele>22.635632</ele>
        <time>2020-10-07T20:04:17.365Z</time>
      </trkpt>
      <trkpt lat="58.4041" lon="23.77717">
        <ele>22.35536</ele>
        <time>2020-10-07T20:05:02.600Z</time>
      </trkpt>
      <trkpt lat="58.40276" lon="23.7775">
        <ele>22.43909</ele>
        <time>2020-10-07T20:05:34.886Z</time>
      </trkpt>
      <trkpt lat="58.39669" lon="23.77992">
        <ele>23.893569</ele>
        <time>2020-10-07T20:08:04.871Z</time>
      </trkpt>
      <trkpt lat="58.39556" lon="23.78031">
        <ele>24.080425</ele>
        <time>2020-10-07T20:08:31.925Z</time>
      </trkpt>
      <trkpt lat="58.39452" lon="23.7809">
        <ele>24.265893</ele>
        <time>2020-10-07T20:08:57.539Z</time>
      </trkpt>
      <trkpt lat="58.3908" lon="23.78442">
        <ele>25.464872</ele>
        <time>2020-10-07T20:10:39.574Z</time>
      </trkpt>
      <trkpt lat="58.39042" lon="23.78489">
        <ele>25.446613</ele>
        <time>2020-10-07T20:10:50.090Z</time>
      </trkpt>
      <trkpt lat="58.38979" lon="23.78589">
        <ele>25.413515</ele>
        <time>2020-10-07T20:11:08.620Z</time>
      </trkpt>
      <trkpt lat="58.38853" lon="23.7891">
        <ele>24.790376</ele>
        <time>2020-10-07T20:11:55.390Z</time>
      </trkpt>
      <trkpt lat="58.3882" lon="23.78963">
        <ele>24.372818</ele>
        <time>2020-10-07T20:12:04.637Z</time>
      </trkpt>
      <trkpt lat="58.38789" lon="23.78998">
        <ele>24.032669</ele>
        <time>2020-10-07T20:12:11.951Z</time>
      </trkpt>
      <trkpt lat="58.38767" lon="23.79024">
        <ele>23.779024</ele>
        <time>2020-10-07T20:12:17.181Z</time>
      </trkpt>
      <trkpt lat="58.38657" lon="23.7912">
        <ele>22.463513</ele>
        <time>2020-10-07T20:12:41.037Z</time>
      </trkpt>
      <trkpt lat="58.38639" lon="23.79136">
        <ele>22.211367</ele>
        <time>2020-10-07T20:12:44.717Z</time>
      </trkpt>
      <trkpt lat="58.38577" lon="23.79199">
        <ele>21.302778</ele>
        <time>2020-10-07T20:12:58.343Z</time>
      </trkpt>
      <trkpt lat="58.38519" lon="23.79276">
        <ele>20.566268</ele>
        <time>2020-10-07T20:13:12.633Z</time>
      </trkpt>
      <trkpt lat="58.38397" lon="23.79474">
        <ele>19.436862</ele>
        <time>2020-10-07T20:13:46.686Z</time>
      </trkpt>
      <trkpt lat="58.38345" lon="23.79574">
        <ele>18.864924</ele>
        <time>2020-10-07T20:14:02.200Z</time>
      </trkpt>
      <trkpt lat="58.38323" lon="23.79599">
        <ele>18.671264</ele>
        <time>2020-10-07T20:14:07.358Z</time>
      </trkpt>
      <trkpt lat="58.38285" lon="23.79617">
        <ele>18.367148</ele>
        <time>2020-10-07T20:14:15.442Z</time>
      </trkpt>
      <trkpt lat="58.38167" lon="23.79618">
        <ele>17.684799</ele>
        <time>2020-10-07T20:14:39.737Z</time>
      </trkpt>
      <trkpt lat="58.38089" lon="23.79633">
        <ele>17.284116</ele>
        <time>2020-10-07T20:14:56.944Z</time>
      </trkpt>
      <trkpt lat="58.37967" lon="23.79644">
        <ele>17.375211</ele>
        <time>2020-10-07T20:15:26.043Z</time>
      </trkpt>
      <trkpt lat="58.37932" lon="23.79667">
        <ele>17.431545</ele>
        <time>2020-10-07T20:15:35.081Z</time>
      </trkpt>
      <trkpt lat="58.3788" lon="23.79714">
        <ele>17.445526</ele>
        <time>2020-10-07T20:15:49.078Z</time>
      </trkpt>
      <trkpt lat="58.37805" lon="23.79754">
        <ele>17.295718</ele>
        <time>2020-10-07T20:16:07.293Z</time>
      </trkpt>
      <trkpt lat="58.3773" lon="23.79825">
        <ele>17.115368</ele>
        <time>2020-10-07T20:16:25.363Z</time>
      </trkpt>
      <trkpt lat="58.37675" lon="23.79863">
        <ele>16.736373</ele>
        <time>2020-10-07T20:16:37.286Z</time>
      </trkpt>
      <trkpt lat="58.37549" lon="23.79926">
        <ele>15.926091</ele>
        <time>2020-10-07T20:17:04.634Z</time>
      </trkpt>
      <trkpt lat="58.37521" lon="23.7994">
        <ele>15.838394</ele>
        <time>2020-10-07T20:17:11.189Z</time>
      </trkpt>
      <trkpt lat="58.37491" lon="23.79956">
        <ele>15.744158</ele>
        <time>2020-10-07T20:17:18.277Z</time>
      </trkpt>
      <trkpt lat="58.37428" lon="23.79991">
        <ele>15.547153</ele>
        <time>2020-10-07T20:17:32.865Z</time>
      </trkpt>
      <trkpt lat="58.37386" lon="23.80014">
        <ele>15.413305</ele>
        <time>2020-10-07T20:17:42.653Z</time>
      </trkpt>
      <trkpt lat="58.37365" lon="23.80022">
        <ele>15.32562</ele>
        <time>2020-10-07T20:17:47.516Z</time>
      </trkpt>
      <trkpt lat="58.37347" lon="23.80027">
        <ele>15.250879</ele>
        <time>2020-10-07T20:17:51.597Z</time>
      </trkpt>
      <trkpt lat="58.3732" lon="23.80029">
        <ele>15.141503</ele>
        <time>2020-10-07T20:17:57.607Z</time>
      </trkpt>
      <trkpt lat="58.37259" lon="23.8003">
        <ele>14.894997</ele>
        <time>2020-10-07T20:18:10.930Z</time>
      </trkpt>
      <trkpt lat="58.37235" lon="23.80031">
        <ele>14.799859</ele>
        <time>2020-10-07T20:18:15.881Z</time>
      </trkpt>
      <trkpt lat="58.37135" lon="23.80051">
        <ele>14.453264</ele>
        <time>2020-10-07T20:18:37.081Z</time>
      </trkpt>
      <trkpt lat="58.37063" lon="23.80079">
        <ele>14.214365</ele>
        <time>2020-10-07T20:18:53.741Z</time>
      </trkpt>
      <trkpt lat="58.36949" lon="23.80137">
        <ele>14.071949</ele>
        <time>2020-10-07T20:19:20.989Z</time>
      </trkpt>
      <trkpt lat="58.3689" lon="23.80138">
        <ele>14.043766</ele>
        <time>2020-10-07T20:19:34.629Z</time>
      </trkpt>
      <trkpt lat="58.36829" lon="23.80138">
        <ele>13.944116</ele>
        <time>2020-10-07T20:19:48.643Z</time>
      </trkpt>
      <trkpt lat="58.36775" lon="23.80163">
        <ele>13.772733</ele>
        <time>2020-10-07T20:20:01.040Z</time>
      </trkpt>
      <trkpt lat="58.36721" lon="23.80219">
        <ele>13.580971</ele>
        <time>2020-10-07T20:20:14.477Z</time>
      </trkpt>
      <trkpt lat="58.36554" lon="23.80455">
        <ele>12.775113</ele>
        <time>2020-10-07T20:20:59.814Z</time>
      </trkpt>
      <trkpt lat="58.36466" lon="23.8056">
        <ele>12.293851</ele>
        <time>2020-10-07T20:21:22.248Z</time>
      </trkpt>
      <trkpt lat="58.36417" lon="23.80639">
        <ele>11.992123</ele>
        <time>2020-10-07T20:21:36.022Z</time>
      </trkpt>
      <trkpt lat="58.36387" lon="23.80717">
        <ele>11.734996</ele>
        <time>2020-10-07T20:21:47.007Z</time>
      </trkpt>
      <trkpt lat="58.36385" lon="23.80725">
        <ele>11.708732</ele>
        <time>2020-10-07T20:21:48.024Z</time>
      </trkpt>
      <trkpt lat="58.36361" lon="23.80831">
        <ele>11.389273</ele>
        <time>2020-10-07T20:22:01.044Z</time>
      </trkpt>
      <trkpt lat="58.36344" lon="23.80954">
        <ele>11.036847</ele>
        <time>2020-10-07T20:22:15.290Z</time>
      </trkpt>
      <trkpt lat="58.36332" lon="23.81084">
        <ele>10.690792</ele>
        <time>2020-10-07T20:22:30.180Z</time>
      </trkpt>
      <trkpt lat="58.36322" lon="23.81297">
        <ele>10.14356</ele>
        <time>2020-10-07T20:22:54.320Z</time>
      </trkpt>
      <trkpt lat="58.36328" lon="23.81451">
        <ele>9.790486</ele>
        <time>2020-10-07T20:23:11.943Z</time>
      </trkpt>
      <trkpt lat="58.36371" lon="23.81843">
        <ele>8.857718</ele>
        <time>2020-10-07T20:23:57.736Z</time>
      </trkpt>
      <trkpt lat="58.36369" lon="23.82003">
        <ele>8.459613</ele>
        <time>2020-10-07T20:24:15.800Z</time>
      </trkpt>
      <trkpt lat="58.36354" lon="23.82091">
        <ele>8.113189</ele>
        <time>2020-10-07T20:24:26.127Z</time>
      </trkpt>
      <trkpt lat="58.3623" lon="23.82517">
        <ele>6.432995</ele>
        <time>2020-10-07T20:25:19.290Z</time>
      </trkpt>
      <trkpt lat="58.36218" lon="23.82574">
        <ele>6.242012</ele>
        <time>2020-10-07T20:25:26.275Z</time>
      </trkpt>
      <trkpt lat="58.36211" lon="23.82635">
        <ele>6.120344</ele>
        <time>2020-10-07T20:25:33.496Z</time>
      </trkpt>
      <trkpt lat="58.36212" lon="23.82766">
        <ele>6.295692</ele>
        <time>2020-10-07T20:25:49.619Z</time>
      </trkpt>
      <trkpt lat="58.3622" lon="23.82833">
        <ele>6.387966</ele>
        <time>2020-10-07T20:25:58.562Z</time>
      </trkpt>
      <trkpt lat="58.36281" lon="23.8312">
        <ele>6.989941</ele>
        <time>2020-10-07T20:26:40.576Z</time>
      </trkpt>
      <trkpt lat="58.36295" lon="23.83208">
        <ele>7.20726</ele>
        <time>2020-10-07T20:26:52.593Z</time>
      </trkpt>
      <trkpt lat="58.36299" lon="23.83263">
        <ele>7.338686</ele>
        <time>2020-10-07T20:26:59.532Z</time>
      </trkpt>
      <trkpt lat="58.36298" lon="23.83437">
        <ele>7.164086</ele>
        <time>2020-10-07T20:27:20.101Z</time>
      </trkpt>
      <trkpt lat="58.36294" lon="23.83535">
        <ele>7.038248</ele>
        <time>2020-10-07T20:27:31.377Z</time>
      </trkpt>
      <trkpt lat="58.36293" lon="23.83554">
        <ele>7.01397</ele>
        <time>2020-10-07T20:27:33.407Z</time>
      </trkpt>
      <trkpt lat="58.36272" lon="23.83664">
        <ele>6.873885</ele>
        <time>2020-10-07T20:27:46.926Z</time>
      </trkpt>
      <trkpt lat="58.36135" lon="23.84073">
        <ele>6.416937</ele>
        <time>2020-10-07T20:28:44.522Z</time>
      </trkpt>
      <trkpt lat="58.36113" lon="23.84122">
        <ele>6.369069</ele>
        <time>2020-10-07T20:28:52.212Z</time>
      </trkpt>
      <trkpt lat="58.36087" lon="23.84163">
        <ele>6.321203</ele>
        <time>2020-10-07T20:29:00.030Z</time>
      </trkpt>
      <trkpt lat="58.36042" lon="23.84207">
        <ele>6.297419</ele>
        <time>2020-10-07T20:29:11.615Z</time>
      </trkpt>
      <trkpt lat="58.3598" lon="23.8428">
        <ele>6.27901</ele>
        <time>2020-10-07T20:29:28.484Z</time>
      </trkpt>
      <trkpt lat="58.35958" lon="23.84311">
        <ele>6.27218</ele>
        <time>2020-10-07T20:29:34.839Z</time>
      </trkpt>
      <trkpt lat="58.35918" lon="23.84396">
        <ele>6.234705</ele>
        <time>2020-10-07T20:29:48.795Z</time>
      </trkpt>
      <trkpt lat="58.35849" lon="23.84626">
        <ele>6.05241</ele>
        <time>2020-10-07T20:30:20.420Z</time>
      </trkpt>
      <trkpt lat="58.35807" lon="23.84737">
        <ele>5.951994</ele>
        <time>2020-10-07T20:30:36.368Z</time>
      </trkpt>
      <trkpt lat="58.35753" lon="23.84832">
        <ele>5.846652</ele>
        <time>2020-10-07T20:30:52.875Z</time>
      </trkpt>
      <trkpt lat="58.35667" lon="23.8495">
        <ele>5.882841</ele>
        <time>2020-10-07T20:31:17.470Z</time>
      </trkpt>
      <trkpt lat="58.35584" lon="23.85064">
        <ele>6.112226</ele>
        <time>2020-10-07T20:31:42.471Z</time>
      </trkpt>
      <trkpt lat="58.35546" lon="23.85118">
        <ele>6.231807</ele>
        <time>2020-10-07T20:31:54.555Z</time>
      </trkpt>
      <trkpt lat="58.35537" lon="23.85131">
        <ele>6.263655</ele>
        <time>2020-10-07T20:31:57.274Z</time>
      </trkpt>
      <trkpt lat="58.35496" lon="23.85188">
        <ele>6.40684</ele>
        <time>2020-10-07T20:32:09.744Z</time>
      </trkpt>
      <trkpt lat="58.35494" lon="23.85191">
        <ele>6.414459</ele>
        <time>2020-10-07T20:32:10.494Z</time>
      </trkpt>
      <trkpt lat="58.35443" lon="23.85287">
        <ele>6.618914</ele>
        <time>2020-10-07T20:32:27.731Z</time>
      </trkpt>
      <trkpt lat="58.35422" lon="23.8533">
        <ele>6.685848</ele>
        <time>2020-10-07T20:32:34.965Z</time>
      </trkpt>
      <trkpt lat="58.35401" lon="23.85382">
        <ele>6.699821</ele>
        <time>2020-10-07T20:32:43.133Z</time>
      </trkpt>
      <trkpt lat="58.35368" lon="23.85493">
        <ele>6.726761</ele>
        <time>2020-10-07T20:32:58.546Z</time>
      </trkpt>
      <trkpt lat="58.3536" lon="23.8552">
        <ele>6.733254</ele>
        <time>2020-10-07T20:33:02.175Z</time>
      </trkpt>
      <trkpt lat="58.35175" lon="23.86234">
        <ele>7.229635</ele>
        <time>2020-10-07T20:34:40.770Z</time>
      </trkpt>
      <trkpt lat="58.35143" lon="23.86403">
        <ele>7.745877</ele>
        <time>2020-10-07T20:35:05.250Z</time>
      </trkpt>
      <trkpt lat="58.35098" lon="23.86739">
        <ele>8.307321</ele>
        <time>2020-10-07T20:35:51.978Z</time>
      </trkpt>
      <trkpt lat="58.35067" lon="23.87152">
        <ele>7.642822</ele>
        <time>2020-10-07T20:36:39.034Z</time>
      </trkpt>
      <trkpt lat="58.35066" lon="23.87383">
        <ele>7.030551</ele>
        <time>2020-10-07T20:37:04.574Z</time>
      </trkpt>
      <trkpt lat="58.35076" lon="23.87616">
        <ele>6.554772</ele>
        <time>2020-10-07T20:37:31.486Z</time>
      </trkpt>
      <trkpt lat="58.35079" lon="23.87671">
        <ele>6.557967</ele>
        <time>2020-10-07T20:37:38.089Z</time>
      </trkpt>
      <trkpt lat="58.35124" lon="23.88084">
        <ele>6.909268</ele>
        <time>2020-10-07T20:38:30.989Z</time>
      </trkpt>
      <trkpt lat="58.35139" lon="23.88193">
        <ele>7.12047</ele>
        <time>2020-10-07T20:38:45.803Z</time>
      </trkpt>
      <trkpt lat="58.3539" lon="23.89477">
        <ele>12.243013</ele>
        <time>2020-10-07T20:41:53.528Z</time>
      </trkpt>
      <trkpt lat="58.35445" lon="23.89747">
        <ele>13.516016</ele>
        <time>2020-10-07T20:42:34.091Z</time>
      </trkpt>
      <trkpt lat="58.35496" lon="23.89963">
        <ele>14.621926</ele>
        <time>2020-10-07T20:43:07.670Z</time>
      </trkpt>
      <trkpt lat="58.35587" lon="23.90486">
        <ele>17.211435</ele>
        <time>2020-10-07T20:44:25.327Z</time>
      </trkpt>
      <trkpt lat="58.35587" lon="23.90546">
        <ele>17.359949</ele>
        <time>2020-10-07T20:44:33.469Z</time>
      </trkpt>
      <trkpt lat="58.35578" lon="23.90587">
        <ele>17.466673</ele>
        <time>2020-10-07T20:44:39.490Z</time>
      </trkpt>
      <trkpt lat="58.3518" lon="23.911">
        <ele>19.801189</ele>
        <time>2020-10-07T20:46:39.268Z</time>
      </trkpt>
      <trkpt lat="58.35132" lon="23.91188">
        <ele>20.644014</ele>
        <time>2020-10-07T20:46:57.543Z</time>
      </trkpt>
      <trkpt lat="58.35038" lon="23.91308">
        <ele>22.168966</ele>
        <time>2020-10-07T20:47:30.941Z</time>
      </trkpt>
      <trkpt lat="58.34965" lon="23.91397">
        <ele>23.082146</ele>
        <time>2020-10-07T20:47:56.633Z</time>
      </trkpt>
      <trkpt lat="58.3491" lon="23.91471">
        <ele>23.788662</ele>
        <time>2020-10-07T20:48:15.013Z</time>
      </trkpt>
      <trkpt lat="58.34849" lon="23.91553">
        <ele>23.661824</ele>
        <time>2020-10-07T20:48:33.060Z</time>
      </trkpt>
      <trkpt lat="58.34734" lon="23.91728">
        <ele>22.0075</ele>
        <time>2020-10-07T20:49:01.341Z</time>
      </trkpt>
      <trkpt lat="58.3469" lon="23.91808">
        <ele>20.791128</ele>
        <time>2020-10-07T20:49:12.360Z</time>
      </trkpt>
      <trkpt lat="58.34675" lon="23.91842">
        <ele>20.317985</ele>
        <time>2020-10-07T20:49:16.571Z</time>
      </trkpt>
      <trkpt lat="58.34666" lon="23.91891">
        <ele>19.77599</ele>
        <time>2020-10-07T20:49:21.518Z</time>
      </trkpt>
      <trkpt lat="58.34658" lon="23.91944">
        <ele>19.204576</ele>
        <time>2020-10-07T20:49:26.828Z</time>
      </trkpt>
      <trkpt lat="58.34657" lon="23.92005">
        <ele>18.602794</ele>
        <time>2020-10-07T20:49:32.820Z</time>
      </trkpt>
      <trkpt lat="58.34663" lon="23.92211">
        <ele>17.753647</ele>
        <time>2020-10-07T20:49:54.595Z</time>
      </trkpt>
      <trkpt lat="58.34665" lon="23.92274">
        <ele>17.491636</ele>
        <time>2020-10-07T20:50:02.362Z</time>
      </trkpt>
      <trkpt lat="58.34681" lon="23.92624">
        <ele>16.959181</ele>
        <time>2020-10-07T20:50:45.054Z</time>
      </trkpt>
      <trkpt lat="58.34741" lon="23.93326">
        <ele>14.727549</ele>
        <time>2020-10-07T20:52:03.107Z</time>
      </trkpt>
      <trkpt lat="58.34747" lon="23.93398">
        <ele>14.72248</ele>
        <time>2020-10-07T20:52:11.747Z</time>
      </trkpt>
      <trkpt lat="58.34768" lon="23.9369">
        <ele>15.447315</ele>
        <time>2020-10-07T20:52:50.968Z</time>
      </trkpt>
      <trkpt lat="58.34775" lon="23.93904">
        <ele>17.056761</ele>
        <time>2020-10-07T20:53:23.802Z</time>
      </trkpt>
      <trkpt lat="58.34748" lon="23.94445">
        <ele>21.223508</ele>
        <time>2020-10-07T20:54:49.466Z</time>
      </trkpt>
      <trkpt lat="58.34708" lon="23.94695">
        <ele>22.012293</ele>
        <time>2020-10-07T20:55:24.179Z</time>
      </trkpt>
      <trkpt lat="58.34641" lon="23.94991">
        <ele>20.975856</ele>
        <time>2020-10-07T20:55:58.738Z</time>
      </trkpt>
      <trkpt lat="58.34605" lon="23.95099">
        <ele>20.932005</ele>
        <time>2020-10-07T20:56:12.724Z</time>
      </trkpt>
      <trkpt lat="58.34432" lon="23.95527">
        <ele>22.247683</ele>
        <time>2020-10-07T20:57:25.569Z</time>
      </trkpt>
      <trkpt lat="58.34418" lon="23.95571">
        <ele>22.441358</ele>
        <time>2020-10-07T20:57:33.262Z</time>
      </trkpt>
      <trkpt lat="58.344" lon="23.95623">
        <ele>22.555504</ele>
        <time>2020-10-07T20:57:42.032Z</time>
      </trkpt>
      <trkpt lat="58.34385" lon="23.95689">
        <ele>22.68498</ele>
        <time>2020-10-07T20:57:52.133Z</time>
      </trkpt>
      <trkpt lat="58.34354" lon="23.95877">
        <ele>23.035727</ele>
        <time>2020-10-07T20:58:17.144Z</time>
      </trkpt>
      <trkpt lat="58.34327" lon="23.95983">
        <ele>22.47167</ele>
        <time>2020-10-07T20:58:30.139Z</time>
      </trkpt>
      <trkpt lat="58.34224" lon="23.9625">
        <ele>20.607499</ele>
        <time>2020-10-07T20:59:03.786Z</time>
      </trkpt>
      <trkpt lat="58.3421" lon="23.96298">
        <ele>20.316207</ele>
        <time>2020-10-07T20:59:09.423Z</time>
      </trkpt>
      <trkpt lat="58.34173" lon="23.9643">
        <ele>19.511278</ele>
        <time>2020-10-07T20:59:25.801Z</time>
      </trkpt>
      <trkpt lat="58.34134" lon="23.96533">
        <ele>19.1792</ele>
        <time>2020-10-07T20:59:40.115Z</time>
      </trkpt>
      <trkpt lat="58.33983" lon="23.96936">
        <ele>19.002859</ele>
        <time>2020-10-07T21:00:39.538Z</time>
      </trkpt>
      <trkpt lat="58.3395" lon="23.97116">
        <ele>19.328506</ele>
        <time>2020-10-07T21:01:04.661Z</time>
      </trkpt>
      <trkpt lat="58.33942" lon="23.97218">
        <ele>19.67894</ele>
        <time>2020-10-07T21:01:18.464Z</time>
      </trkpt>
      <trkpt lat="58.33942" lon="23.97382">
        <ele>20.243384</ele>
        <time>2020-10-07T21:01:41.186Z</time>
      </trkpt>
      <trkpt lat="58.33929" lon="23.97467">
        <ele>20.613638</ele>
        <time>2020-10-07T21:01:53.614Z</time>
      </trkpt>
      <trkpt lat="58.33915" lon="23.9752">
        <ele>20.868391</ele>
        <time>2020-10-07T21:02:02.606Z</time>
      </trkpt>
      <trkpt lat="58.33899" lon="23.97729">
        <ele>21.656405</ele>
        <time>2020-10-07T21:02:31.299Z</time>
      </trkpt>
      <trkpt lat="58.33876" lon="23.97807">
        <ele>21.61539</ele>
        <time>2020-10-07T21:02:42.837Z</time>
      </trkpt>
      <trkpt lat="58.33868" lon="23.97838">
        <ele>21.598942</ele>
        <time>2020-10-07T21:02:47.049Z</time>
      </trkpt>
      <trkpt lat="58.33836" lon="23.97986">
        <ele>21.524588</ele>
        <time>2020-10-07T21:03:05.997Z</time>
      </trkpt>
      <trkpt lat="58.33791" lon="23.98324">
        <ele>20.177754</ele>
        <time>2020-10-07T21:03:43.350Z</time>
      </trkpt>
      <trkpt lat="58.33757" lon="23.98529">
        <ele>19.424731</ele>
        <time>2020-10-07T21:04:07.235Z</time>
      </trkpt>
      <trkpt lat="58.33711" lon="23.98666">
        <ele>18.873315</ele>
        <time>2020-10-07T21:04:25.523Z</time>
      </trkpt>
      <trkpt lat="58.3367" lon="23.98841">
        <ele>18.119426</ele>
        <time>2020-10-07T21:04:46.795Z</time>
      </trkpt>
      <trkpt lat="58.33648" lon="23.98971">
        <ele>17.586604</ele>
        <time>2020-10-07T21:05:01.378Z</time>
      </trkpt>
      <trkpt lat="58.33628" lon="23.99048">
        <ele>17.270216</ele>
        <time>2020-10-07T21:05:10.717Z</time>
      </trkpt>
      <trkpt lat="58.33614" lon="23.99079">
        <ele>17.121871</ele>
        <time>2020-10-07T21:05:15.191Z</time>
      </trkpt>
      <trkpt lat="58.33575" lon="23.9916">
        <ele>16.727427</ele>
        <time>2020-10-07T21:05:27.299Z</time>
      </trkpt>
      <trkpt lat="58.33569" lon="23.99174">
        <ele>16.661278</ele>
        <time>2020-10-07T21:05:29.350Z</time>
      </trkpt>
      <trkpt lat="58.33536" lon="23.99285">
        <ele>16.280688</ele>
        <time>2020-10-07T21:05:43.559Z</time>
      </trkpt>
      <trkpt lat="58.33516" lon="23.99354">
        <ele>16.203303</ele>
        <time>2020-10-07T21:05:52.706Z</time>
      </trkpt>
      <trkpt lat="58.33485" lon="23.99401">
        <ele>16.132057</ele>
        <time>2020-10-07T21:06:01.355Z</time>
      </trkpt>
      <trkpt lat="58.33451" lon="23.99448">
        <ele>16.054549</ele>
        <time>2020-10-07T21:06:10.994Z</time>
      </trkpt>
      <trkpt lat="58.33451" lon="23.99499">
        <ele>16.004769</ele>
        <time>2020-10-07T21:06:17.285Z</time>
      </trkpt>
      <trkpt lat="58.33453" lon="23.9966">
        <ele>16.338096</ele>
        <time>2020-10-07T21:06:37.791Z</time>
      </trkpt>
      <trkpt lat="58.33446" lon="23.99742">
        <ele>16.564856</ele>
        <time>2020-10-07T21:06:48.972Z</time>
      </trkpt>
      <trkpt lat="58.33438" lon="23.99795">
        <ele>16.712028</ele>
        <time>2020-10-07T21:06:56.480Z</time>
      </trkpt>
      <trkpt lat="58.33434" lon="23.99819">
        <ele>16.780887</ele>
        <time>2020-10-07T21:07:00.055Z</time>
      </trkpt>
      <trkpt lat="58.33431" lon="23.99843">
        <ele>16.847375</ele>
        <time>2020-10-07T21:07:03.517Z</time>
      </trkpt>
      <trkpt lat="58.33412" lon="23.99954">
        <ele>17.282141</ele>
        <time>2020-10-07T21:07:19.788Z</time>
      </trkpt>
      <trkpt lat="58.33393" lon="24.00069">
        <ele>17.762147</ele>
        <time>2020-10-07T21:07:36.541Z</time>
      </trkpt>
      <trkpt lat="58.3338" lon="24.00151">
        <ele>18.102816</ele>
        <time>2020-10-07T21:07:48.307Z</time>
      </trkpt>
      <trkpt lat="58.33351" lon="24.00324">
        <ele>18.592005</ele>
        <time>2020-10-07T21:08:12.606Z</time>
      </trkpt>
      <trkpt lat="58.33332" lon="24.00451">
        <ele>18.89767</ele>
        <time>2020-10-07T21:08:29.617Z</time>
      </trkpt>
      <trkpt lat="58.33301" lon="24.0062">
        <ele>19.215795</ele>
        <time>2020-10-07T21:08:52.975Z</time>
      </trkpt>
      <trkpt lat="58.33195" lon="24.00926">
        <ele>19.434524</ele>
        <time>2020-10-07T21:09:39.185Z</time>
      </trkpt>
      <trkpt lat="58.33089" lon="24.01184">
        <ele>19.059819</ele>
        <time>2020-10-07T21:10:16.830Z</time>
      </trkpt>
      <trkpt lat="58.32976" lon="24.01434">
        <ele>18.938951</ele>
        <time>2020-10-07T21:10:55.147Z</time>
      </trkpt>
      <trkpt lat="58.32951" lon="24.01481">
        <ele>19.097071</ele>
        <time>2020-10-07T21:11:04.041Z</time>
      </trkpt>
      <trkpt lat="58.32938" lon="24.01505">
        <ele>19.177378</ele>
        <time>2020-10-07T21:11:08.714Z</time>
      </trkpt>
      <trkpt lat="58.32903" lon="24.01572">
        <ele>19.404944</ele>
        <time>2020-10-07T21:11:22.087Z</time>
      </trkpt>
      <trkpt lat="58.32855" lon="24.0166">
        <ele>19.751949</ele>
        <time>2020-10-07T21:11:40.486Z</time>
      </trkpt>
      <trkpt lat="58.32687" lon="24.01898">
        <ele>20.320274</ele>
        <time>2020-10-07T21:12:32.507Z</time>
      </trkpt>
      <trkpt lat="58.32606" lon="24.02007">
        <ele>20.065993</ele>
        <time>2020-10-07T21:12:53.143Z</time>
      </trkpt>
      <trkpt lat="58.32569" lon="24.02058">
        <ele>19.932967</ele>
        <time>2020-10-07T21:13:02.579Z</time>
      </trkpt>
      <trkpt lat="58.32468" lon="24.02206">
        <ele>19.556755</ele>
        <time>2020-10-07T21:13:30.701Z</time>
      </trkpt>
      <trkpt lat="58.32424" lon="24.02284">
        <ele>19.82275</ele>
        <time>2020-10-07T21:13:45.880Z</time>
      </trkpt>
      <trkpt lat="58.32147" lon="24.02771">
        <ele>22.461035</ele>
        <time>2020-10-07T21:15:25.541Z</time>
      </trkpt>
      <trkpt lat="58.31982" lon="24.0308">
        <ele>23.317658</ele>
        <time>2020-10-07T21:16:21.908Z</time>
      </trkpt>
      <trkpt lat="58.31837" lon="24.03341">
        <ele>23.834541</ele>
        <time>2020-10-07T21:17:10.722Z</time>
      </trkpt>
      <trkpt lat="58.31627" lon="24.03785">
        <ele>23.815107</ele>
        <time>2020-10-07T21:18:24.971Z</time>
      </trkpt>
      <trkpt lat="58.31292" lon="24.04313">
        <ele>21.640084</ele>
        <time>2020-10-07T21:19:57.576Z</time>
      </trkpt>
      <trkpt lat="58.30881" lon="24.04917">
        <ele>17.765395</ele>
        <time>2020-10-07T21:21:44.976Z</time>
      </trkpt>
      <trkpt lat="58.30832" lon="24.04999">
        <ele>17.578256</ele>
        <time>2020-10-07T21:21:59.714Z</time>
      </trkpt>
      <trkpt lat="58.30623" lon="24.05342">
        <ele>18.056581</ele>
        <time>2020-10-07T21:23:06.535Z</time>
      </trkpt>
      <trkpt lat="58.3042" lon="24.05692">
        <ele>18.645979</ele>
        <time>2020-10-07T21:24:12.045Z</time>
      </trkpt>
      <trkpt lat="58.30294" lon="24.05877">
        <ele>19.317868</ele>
        <time>2020-10-07T21:24:52.187Z</time>
      </trkpt>
      <trkpt lat="58.30143" lon="24.06093">
        <ele>19.727332</ele>
        <time>2020-10-07T21:25:38.656Z</time>
      </trkpt>
      <trkpt lat="58.29683" lon="24.06535">
        <ele>17.75171</ele>
        <time>2020-10-07T21:27:30.280Z</time>
      </trkpt>
      <trkpt lat="58.29557" lon="24.06677">
        <ele>17.696858</ele>
        <time>2020-10-07T21:28:02.920Z</time>
      </trkpt>
      <trkpt lat="58.29531" lon="24.06727">
        <ele>17.766688</ele>
        <time>2020-10-07T21:28:12.644Z</time>
      </trkpt>
      <trkpt lat="58.29499" lon="24.06806">
        <ele>18.323228</ele>
        <time>2020-10-07T21:28:26.963Z</time>
      </trkpt>
      <trkpt lat="58.29434" lon="24.06962">
        <ele>19.436087</ele>
        <time>2020-10-07T21:28:56.606Z</time>
      </trkpt>
      <trkpt lat="58.29391" lon="24.07065">
        <ele>19.818348</ele>
        <time>2020-10-07T21:29:15.502Z</time>
      </trkpt>
      <trkpt lat="58.29375" lon="24.07097">
        <ele>19.916481</ele>
        <time>2020-10-07T21:29:21.641Z</time>
      </trkpt>
      <trkpt lat="58.29361" lon="24.07116">
        <ele>19.987298</ele>
        <time>2020-10-07T21:29:26.101Z</time>
      </trkpt>
      <trkpt lat="58.29321" lon="24.07168">
        <ele>20.186331</ele>
        <time>2020-10-07T21:29:37.327Z</time>
      </trkpt>
      <trkpt lat="58.29222" lon="24.07261">
        <ele>20.174049</ele>
        <time>2020-10-07T21:30:01.493Z</time>
      </trkpt>
      <trkpt lat="58.29037" lon="24.07363">
        <ele>19.809632</ele>
        <time>2020-10-07T21:30:45.096Z</time>
      </trkpt>
      <trkpt lat="58.29002" lon="24.07388">
        <ele>19.755482</ele>
        <time>2020-10-07T21:30:53.680Z</time>
      </trkpt>
      <trkpt lat="58.28953" lon="24.07423">
        <ele>19.680827</ele>
        <time>2020-10-07T21:31:05.498Z</time>
      </trkpt>
      <trkpt lat="58.28882" lon="24.07472">
        <ele>19.514822</ele>
        <time>2020-10-07T21:31:22.533Z</time>
      </trkpt>
      <trkpt lat="58.28811" lon="24.07532">
        <ele>19.338817</ele>
        <time>2020-10-07T21:31:40.045Z</time>
      </trkpt>
      <trkpt lat="58.28742" lon="24.07621">
        <ele>19.047337</ele>
        <time>2020-10-07T21:31:58.200Z</time>
      </trkpt>
      <trkpt lat="58.28704" lon="24.07683">
        <ele>18.836469</ele>
        <time>2020-10-07T21:32:08.987Z</time>
      </trkpt>
      <trkpt lat="58.28638" lon="24.07771">
        <ele>18.501319</ele>
        <time>2020-10-07T21:32:26.516Z</time>
      </trkpt>
      <trkpt lat="58.28599" lon="24.07814">
        <ele>18.386775</ele>
        <time>2020-10-07T21:32:36.579Z</time>
      </trkpt>
      <trkpt lat="58.2856" lon="24.07858">
        <ele>18.273654</ele>
        <time>2020-10-07T21:32:46.475Z</time>
      </trkpt>
      <trkpt lat="58.28476" lon="24.07951">
        <ele>18.053266</ele>
        <time>2020-10-07T21:33:08.235Z</time>
      </trkpt>
      <trkpt lat="58.28382" lon="24.08063">
        <ele>18.001634</ele>
        <time>2020-10-07T21:33:34.280Z</time>
      </trkpt>
      <trkpt lat="58.28301" lon="24.08158">
        <ele>17.856186</ele>
        <time>2020-10-07T21:33:56.034Z</time>
      </trkpt>
      <trkpt lat="58.28275" lon="24.08196">
        <ele>17.751866</ele>
        <time>2020-10-07T21:34:03.388Z</time>
      </trkpt>
      <trkpt lat="58.28148" lon="24.08433">
        <ele>16.97837</ele>
        <time>2020-10-07T21:34:41.810Z</time>
      </trkpt>
      <trkpt lat="58.2811" lon="24.08461">
        <ele>16.721427</ele>
        <time>2020-10-07T21:34:50.443Z</time>
      </trkpt>
      <trkpt lat="58.27843" lon="24.08565">
        <ele>15.052712</ele>
        <time>2020-10-07T21:35:47.353Z</time>
      </trkpt>
      <trkpt lat="58.27781" lon="24.08621">
        <ele>15.10812</ele>
        <time>2020-10-07T21:36:02.998Z</time>
      </trkpt>
      <trkpt lat="58.27734" lon="24.0868">
        <ele>15.153398</ele>
        <time>2020-10-07T21:36:16.648Z</time>
      </trkpt>
      <trkpt lat="58.27574" lon="24.08957">
        <ele>16.463913</ele>
        <time>2020-10-07T21:37:13.335Z</time>
      </trkpt>
      <trkpt lat="58.27547" lon="24.09043">
        <ele>16.850947</ele>
        <time>2020-10-07T21:37:26.736Z</time>
      </trkpt>
      <trkpt lat="58.27523" lon="24.09141">
        <ele>17.274226</ele>
        <time>2020-10-07T21:37:41.446Z</time>
      </trkpt>
      <trkpt lat="58.27494" lon="24.09211">
        <ele>17.617137</ele>
        <time>2020-10-07T21:37:53.219Z</time>
      </trkpt>
      <trkpt lat="58.27363" lon="24.09463">
        <ele>20.004795</ele>
        <time>2020-10-07T21:38:46.730Z</time>
      </trkpt>
      <trkpt lat="58.27307" lon="24.09593">
        <ele>21.06935</ele>
        <time>2020-10-07T21:39:12.941Z</time>
      </trkpt>
      <trkpt lat="58.2727" lon="24.09674">
        <ele>21.741251</ele>
        <time>2020-10-07T21:39:29.072Z</time>
      </trkpt>
      <trkpt lat="58.27257" lon="24.09702">
        <ele>21.971625</ele>
        <time>2020-10-07T21:39:34.371Z</time>
      </trkpt>
      <trkpt lat="58.27215" lon="24.09764">
        <ele>22.239289</ele>
        <time>2020-10-07T21:39:48.196Z</time>
      </trkpt>
      <trkpt lat="58.2706" lon="24.09955">
        <ele>21.446244</ele>
        <time>2020-10-07T21:40:27.564Z</time>
      </trkpt>
      <trkpt lat="58.26883" lon="24.1019">
        <ele>19.15716</ele>
        <time>2020-10-07T21:41:10.970Z</time>
      </trkpt>
      <trkpt lat="58.26643" lon="24.10534">
        <ele>15.263326</ele>
        <time>2020-10-07T21:42:09.393Z</time>
      </trkpt>
      <trkpt lat="58.26612" lon="24.10587">
        <ele>15.074804</ele>
        <time>2020-10-07T21:42:17.951Z</time>
      </trkpt>
      <trkpt lat="58.26574" lon="24.10673">
        <ele>14.809624</ele>
        <time>2020-10-07T21:42:30.593Z</time>
      </trkpt>
      <trkpt lat="58.26557" lon="24.10715">
        <ele>14.684209</ele>
        <time>2020-10-07T21:42:36.835Z</time>
      </trkpt>
      <trkpt lat="58.26528" lon="24.10814">
        <ele>14.524548</ele>
        <time>2020-10-07T21:42:50.864Z</time>
      </trkpt>
      <trkpt lat="58.26519" lon="24.10858">
        <ele>14.608031</ele>
        <time>2020-10-07T21:42:56.826Z</time>
      </trkpt>
      <trkpt lat="58.26484" lon="24.11071">
        <ele>15.009789</ele>
        <time>2020-10-07T21:43:26.685Z</time>
      </trkpt>
      <trkpt lat="58.26463" lon="24.11227">
        <ele>15.140754</ele>
        <time>2020-10-07T21:43:47.026Z</time>
      </trkpt>
      <trkpt lat="58.26461" lon="24.11247">
        <ele>15.149403</ele>
        <time>2020-10-07T21:43:49.791Z</time>
      </trkpt>
      <trkpt lat="58.26463" lon="24.11315">
        <ele>15.179035</ele>
        <time>2020-10-07T21:43:58.129Z</time>
      </trkpt>
      <trkpt lat="58.26463" lon="24.11319">
        <ele>15.180946</ele>
        <time>2020-10-07T21:43:58.546Z</time>
      </trkpt>
      <trkpt lat="58.26473" lon="24.11507">
        <ele>15.257048</ele>
        <time>2020-10-07T21:44:21.446Z</time>
      </trkpt>
      <trkpt lat="58.26495" lon="24.11671">
        <ele>15.312868</ele>
        <time>2020-10-07T21:44:42.136Z</time>
      </trkpt>
      <trkpt lat="58.26529" lon="24.11985">
        <ele>15.520366</ele>
        <time>2020-10-07T21:45:22.799Z</time>
      </trkpt>
      <trkpt lat="58.26562" lon="24.12077">
        <ele>15.613114</ele>
        <time>2020-10-07T21:45:36.779Z</time>
      </trkpt>
      <trkpt lat="58.2658" lon="24.1211">
        <ele>15.608504</ele>
        <time>2020-10-07T21:45:42.676Z</time>
      </trkpt>
      <trkpt lat="58.26598" lon="24.12134">
        <ele>15.553725</ele>
        <time>2020-10-07T21:45:47.659Z</time>
      </trkpt>
      <trkpt lat="58.2662" lon="24.12146">
        <ele>15.497877</ele>
        <time>2020-10-07T21:45:52.747Z</time>
      </trkpt>
      <trkpt lat="58.26707" lon="24.12178">
        <ele>15.276649</ele>
        <time>2020-10-07T21:46:12.181Z</time>
      </trkpt>
      <trkpt lat="58.26774" lon="24.12208">
        <ele>15.066865</ele>
        <time>2020-10-07T21:46:27.539Z</time>
      </trkpt>
      <trkpt lat="58.26818" lon="24.12227">
        <ele>14.904005</ele>
        <time>2020-10-07T21:46:37.433Z</time>
      </trkpt>
      <trkpt lat="58.26926" lon="24.12266">
        <ele>14.523641</ele>
        <time>2020-10-07T21:47:01.429Z</time>
      </trkpt>
      <trkpt lat="58.26986" lon="24.12287">
        <ele>14.404587</ele>
        <time>2020-10-07T21:47:14.773Z</time>
      </trkpt>
      <trkpt lat="58.27176" lon="24.12356">
        <ele>14.499887</ele>
        <time>2020-10-07T21:47:59.045Z</time>
      </trkpt>
      <trkpt lat="58.27646" lon="24.12557">
        <ele>16.756469</ele>
        <time>2020-10-07T21:50:00.844Z</time>
      </trkpt>
      <trkpt lat="58.27722" lon="24.12605">
        <ele>17.488701</ele>
        <time>2020-10-07T21:50:22.476Z</time>
      </trkpt>
      <trkpt lat="58.27783" lon="24.12664">
        <ele>18.111013</ele>
        <time>2020-10-07T21:50:41.244Z</time>
      </trkpt>
      <trkpt lat="58.28174" lon="24.1309">
        <ele>22.349029</ele>
        <time>2020-10-07T21:52:44.579Z</time>
      </trkpt>
      <trkpt lat="58.28383" lon="24.134">
        <ele>22.667236</ele>
        <time>2020-10-07T21:53:46.460Z</time>
      </trkpt>
      <trkpt lat="58.28441" lon="24.13511">
        <ele>22.125618</ele>
        <time>2020-10-07T21:54:03.480Z</time>
      </trkpt>
      <trkpt lat="58.28465" lon="24.1356">
        <ele>21.864599</ele>
        <time>2020-10-07T21:54:10.747Z</time>
      </trkpt>
      <trkpt lat="58.28559" lon="24.13789">
        <ele>21.059459</ele>
        <time>2020-10-07T21:54:42.216Z</time>
      </trkpt>
      <trkpt lat="58.28592" lon="24.13917">
        <ele>20.801882</ele>
        <time>2020-10-07T21:54:59.382Z</time>
      </trkpt>
      <trkpt lat="58.28669" lon="24.14297">
        <ele>21.122005</ele>
        <time>2020-10-07T21:55:51.806Z</time>
      </trkpt>
      <trkpt lat="58.28704" lon="24.14674">
        <ele>20.758276</ele>
        <time>2020-10-07T21:56:38.485Z</time>
      </trkpt>
      <trkpt lat="58.28723" lon="24.14771">
        <ele>20.141073</ele>
        <time>2020-10-07T21:56:49.615Z</time>
      </trkpt>
      <trkpt lat="58.28759" lon="24.14907">
        <ele>19.237269</ele>
        <time>2020-10-07T21:57:04.838Z</time>
      </trkpt>
      <trkpt lat="58.28786" lon="24.14977">
        <ele>18.555338</ele>
        <time>2020-10-07T21:57:13.411Z</time>
      </trkpt>
      <trkpt lat="58.28823" lon="24.1505">
        <ele>17.677864</ele>
        <time>2020-10-07T21:57:23.378Z</time>
      </trkpt>
      <trkpt lat="58.28844" lon="24.15085">
        <ele>17.216489</ele>
        <time>2020-10-07T21:57:28.670Z</time>
      </trkpt>
      <trkpt lat="58.28888" lon="24.1515">
        <ele>16.30731</ele>
        <time>2020-10-07T21:57:39.262Z</time>
      </trkpt>
      <trkpt lat="58.28937" lon="24.15207">
        <ele>15.70344</ele>
        <time>2020-10-07T21:57:50.584Z</time>
      </trkpt>
      <trkpt lat="58.29179" lon="24.15367">
        <ele>13.760857</ele>
        <time>2020-10-07T21:58:44.290Z</time>
      </trkpt>
      <trkpt lat="58.29356" lon="24.15513">
        <ele>12.659365</ele>
        <time>2020-10-07T21:59:25.570Z</time>
      </trkpt>
      <trkpt lat="58.29624" lon="24.1584">
        <ele>11.07928</ele>
        <time>2020-10-07T22:00:32.980Z</time>
      </trkpt>
      <trkpt lat="58.29875" lon="24.16225">
        <ele>11.386265</ele>
        <time>2020-10-07T22:01:50.746Z</time>
      </trkpt>
      <trkpt lat="58.30131" lon="24.17104">
        <ele>12.277221</ele>
        <time>2020-10-07T22:03:57.538Z</time>
      </trkpt>
      <trkpt lat="58.30269" lon="24.17607">
        <ele>12.19014</ele>
        <time>2020-10-07T22:05:05.451Z</time>
      </trkpt>
      <trkpt lat="58.30297" lon="24.17708">
        <ele>12.653671</ele>
        <time>2020-10-07T22:05:20.029Z</time>
      </trkpt>
      <trkpt lat="58.30393" lon="24.18045">
        <ele>15.119817</ele>
        <time>2020-10-07T22:06:17.940Z</time>
      </trkpt>
      <trkpt lat="58.30409" lon="24.18115">
        <ele>15.744808</ele>
        <time>2020-10-07T22:06:30.385Z</time>
      </trkpt>
      <trkpt lat="58.30427" lon="24.18217">
        <ele>16.629591</ele>
        <time>2020-10-07T22:06:47.477Z</time>
      </trkpt>
      <trkpt lat="58.30436" lon="24.18322">
        <ele>17.157527</ele>
        <time>2020-10-07T22:07:03.958Z</time>
      </trkpt>
      <trkpt lat="58.30471" lon="24.19302">
        <ele>20.237362</ele>
        <time>2020-10-07T22:09:14.861Z</time>
      </trkpt>
      <trkpt lat="58.30445" lon="24.20652">
        <ele>22.521346</ele>
        <time>2020-10-07T22:12:08.529Z</time>
      </trkpt>
      <trkpt lat="58.30378" lon="24.21649">
        <ele>24.557116</ele>
        <time>2020-10-07T22:14:19.724Z</time>
      </trkpt>
      <trkpt lat="58.30303" lon="24.22479">
        <ele>25.411015</ele>
        <time>2020-10-07T22:16:06.378Z</time>
      </trkpt>
      <trkpt lat="58.30253" lon="24.23133">
        <ele>25.06821</ele>
        <time>2020-10-07T22:17:24.738Z</time>
      </trkpt>
      <trkpt lat="58.30186" lon="24.23602">
        <ele>25.45893</ele>
        <time>2020-10-07T22:18:26.214Z</time>
      </trkpt>
      <trkpt lat="58.3011" lon="24.24005">
        <ele>26.030544</ele>
        <time>2020-10-07T22:19:21.509Z</time>
      </trkpt>
      <trkpt lat="58.29951" lon="24.24583">
        <ele>24.939835</ele>
        <time>2020-10-07T22:20:36.940Z</time>
      </trkpt>
      <trkpt lat="58.29936" lon="24.24651">
        <ele>24.678859</ele>
        <time>2020-10-07T22:20:45.244Z</time>
      </trkpt>
      <trkpt lat="58.29929" lon="24.24706">
        <ele>24.438754</ele>
        <time>2020-10-07T22:20:51.525Z</time>
      </trkpt>
      <trkpt lat="58.29925" lon="24.24767">
        <ele>24.18147</ele>
        <time>2020-10-07T22:20:58.186Z</time>
      </trkpt>
      <trkpt lat="58.29927" lon="24.24837">
        <ele>23.883243</ele>
        <time>2020-10-07T22:21:05.791Z</time>
      </trkpt>
      <trkpt lat="58.29936" lon="24.24954">
        <ele>23.391796</ele>
        <time>2020-10-07T22:21:18.052Z</time>
      </trkpt>
      <trkpt lat="58.29952" lon="24.25044">
        <ele>23.06538</ele>
        <time>2020-10-07T22:21:28.275Z</time>
      </trkpt>
      <trkpt lat="58.29973" lon="24.25112">
        <ele>22.794896</ele>
        <time>2020-10-07T22:21:37.011Z</time>
      </trkpt>
      <trkpt lat="58.29989" lon="24.25145">
        <ele>22.642383</ele>
        <time>2020-10-07T22:21:41.798Z</time>
      </trkpt>
      <trkpt lat="58.30013" lon="24.25185">
        <ele>22.431774</ele>
        <time>2020-10-07T22:21:48.990Z</time>
      </trkpt>
      <trkpt lat="58.30039" lon="24.25221">
        <ele>22.278606</ele>
        <time>2020-10-07T22:21:56.196Z</time>
      </trkpt>
      <trkpt lat="58.30088" lon="24.25268">
        <ele>22.411402</ele>
        <time>2020-10-07T22:22:09.135Z</time>
      </trkpt>
      <trkpt lat="58.30155" lon="24.25316">
        <ele>22.584376</ele>
        <time>2020-10-07T22:22:27.180Z</time>
      </trkpt>
      <trkpt lat="58.30393" lon="24.25441">
        <ele>23.21156</ele>
        <time>2020-10-07T22:23:27.049Z</time>
      </trkpt>
      <trkpt lat="58.30473" lon="24.25475">
        <ele>23.45867</ele>
        <time>2020-10-07T22:23:46.869Z</time>
      </trkpt>
      <trkpt lat="58.30893" lon="24.25615">
        <ele>24.998103</ele>
        <time>2020-10-07T22:25:32.142Z</time>
      </trkpt>
      <trkpt lat="58.31164" lon="24.25609">
        <ele>25.857902</ele>
        <time>2020-10-07T22:26:38.823Z</time>
      </trkpt>
      <trkpt lat="58.31273" lon="24.25596">
        <ele>26.037714</ele>
        <time>2020-10-07T22:27:04.545Z</time>
      </trkpt>
      <trkpt lat="58.31908" lon="24.2548">
        <ele>24.89409</ele>
        <time>2020-10-07T22:29:29.140Z</time>
      </trkpt>
      <trkpt lat="58.32075" lon="24.25466">
        <ele>23.25411</ele>
        <time>2020-10-07T22:30:03.449Z</time>
      </trkpt>
      <trkpt lat="58.32102" lon="24.25462">
        <ele>22.870177</ele>
        <time>2020-10-07T22:30:08.638Z</time>
      </trkpt>
      <trkpt lat="58.32183" lon="24.2546">
        <ele>21.55323</ele>
        <time>2020-10-07T22:30:23.596Z</time>
      </trkpt>
      <trkpt lat="58.32265" lon="24.25462">
        <ele>19.811311</ele>
        <time>2020-10-07T22:30:38.313Z</time>
      </trkpt>
      <trkpt lat="58.32325" lon="24.25475">
        <ele>18.530369</ele>
        <time>2020-10-07T22:30:49.167Z</time>
      </trkpt>
      <trkpt lat="58.32545" lon="24.25551">
        <ele>15.182348</ele>
        <time>2020-10-07T22:31:32.305Z</time>
      </trkpt>
      <trkpt lat="58.32717" lon="24.25563">
        <ele>13.473052</ele>
        <time>2020-10-07T22:32:07.362Z</time>
      </trkpt>
      <trkpt lat="58.32803" lon="24.25579">
        <ele>12.895129</ele>
        <time>2020-10-07T22:32:25.575Z</time>
      </trkpt>
      <trkpt lat="58.32862" lon="24.256">
        <ele>12.496537</ele>
        <time>2020-10-07T22:32:38.473Z</time>
      </trkpt>
      <trkpt lat="58.32909" lon="24.25622">
        <ele>12.357109</ele>
        <time>2020-10-07T22:32:48.905Z</time>
      </trkpt>
      <trkpt lat="58.32925" lon="24.25633">
        <ele>12.326771</ele>
        <time>2020-10-07T22:32:52.812Z</time>
      </trkpt>
      <trkpt lat="58.3294" lon="24.25637">
        <ele>12.301025</ele>
        <time>2020-10-07T22:32:56.141Z</time>
      </trkpt>
      <trkpt lat="58.32954" lon="24.25641">
        <ele>12.27632</ele>
        <time>2020-10-07T22:32:59.392Z</time>
      </trkpt>
      <trkpt lat="58.33161" lon="24.25722">
        <ele>11.975753</ele>
        <time>2020-10-07T22:33:47.947Z</time>
      </trkpt>
      <trkpt lat="58.33356" lon="24.25788">
        <ele>11.806134</ele>
        <time>2020-10-07T22:34:32.707Z</time>
      </trkpt>
      <trkpt lat="58.3337" lon="24.2579">
        <ele>11.796779</ele>
        <time>2020-10-07T22:34:35.733Z</time>
      </trkpt>
      <trkpt lat="58.33378" lon="24.25791">
        <ele>11.79054</ele>
        <time>2020-10-07T22:34:37.834Z</time>
      </trkpt>
      <trkpt lat="58.33403" lon="24.25795">
        <ele>11.773106</ele>
        <time>2020-10-07T22:34:43.655Z</time>
      </trkpt>
      <trkpt lat="58.33507" lon="24.25777">
        <ele>12.233118</ele>
        <time>2020-10-07T22:35:09.147Z</time>
      </trkpt>
      <trkpt lat="58.3353" lon="24.25778">
        <ele>12.335768</ele>
        <time>2020-10-07T22:35:15.063Z</time>
      </trkpt>
      <trkpt lat="58.33548" lon="24.2578">
        <ele>12.41496</ele>
        <time>2020-10-07T22:35:19.649Z</time>
      </trkpt>
      <trkpt lat="58.33602" lon="24.25808">
        <ele>12.835967</ele>
        <time>2020-10-07T22:35:33.856Z</time>
      </trkpt>
      <trkpt lat="58.33758" lon="24.25925">
        <ele>15.008169</ele>
        <time>2020-10-07T22:36:21.290Z</time>
      </trkpt>
      <trkpt lat="58.33849" lon="24.25983">
        <ele>17.33505</ele>
        <time>2020-10-07T22:36:52.817Z</time>
      </trkpt>
      <trkpt lat="58.33853" lon="24.25987">
        <ele>17.450271</ele>
        <time>2020-10-07T22:36:55.003Z</time>
      </trkpt>
      <trkpt lat="58.33989" lon="24.26092">
        <ele>20.623739</ele>
        <time>2020-10-07T22:37:44.722Z</time>
      </trkpt>
      <trkpt lat="58.34145" lon="24.26098">
        <ele>23.024373</ele>
        <time>2020-10-07T22:38:29.525Z</time>
      </trkpt>
      <trkpt lat="58.34384" lon="24.25933">
        <ele>24.197113</ele>
        <time>2020-10-07T22:39:33.328Z</time>
      </trkpt>
      <trkpt lat="58.3477" lon="24.25791">
        <ele>22.419505</ele>
        <time>2020-10-07T22:40:57.696Z</time>
      </trkpt>
      <trkpt lat="58.35288" lon="24.25669">
        <ele>18.276639</ele>
        <time>2020-10-07T22:42:45.502Z</time>
      </trkpt>
      <trkpt lat="58.35368" lon="24.25657">
        <ele>17.582698</ele>
        <time>2020-10-07T22:43:02.004Z</time>
      </trkpt>
      <trkpt lat="58.3554" lon="24.25656">
        <ele>15.832703</ele>
        <time>2020-10-07T22:43:37.441Z</time>
      </trkpt>
      <trkpt lat="58.35676" lon="24.25665">
        <ele>13.864757</ele>
        <time>2020-10-07T22:44:03.448Z</time>
      </trkpt>
      <trkpt lat="58.35723" lon="24.25684">
        <ele>13.155546</ele>
        <time>2020-10-07T22:44:12.320Z</time>
      </trkpt>
      <trkpt lat="58.35745" lon="24.25694">
        <ele>12.81685</ele>
        <time>2020-10-07T22:44:16.588Z</time>
      </trkpt>
      <trkpt lat="58.35763" lon="24.25702">
        <ele>12.529161</ele>
        <time>2020-10-07T22:44:20.159Z</time>
      </trkpt>
      <trkpt lat="58.35843" lon="24.2575">
        <ele>11.259674</ele>
        <time>2020-10-07T22:44:36.296Z</time>
      </trkpt>
      <trkpt lat="58.35914" lon="24.25802">
        <ele>10.646794</ele>
        <time>2020-10-07T22:44:51.720Z</time>
      </trkpt>
      <trkpt lat="58.35977" lon="24.25862">
        <ele>10.20063</ele>
        <time>2020-10-07T22:45:06.799Z</time>
      </trkpt>
      <trkpt lat="58.36083" lon="24.25984">
        <ele>9.841809</ele>
        <time>2020-10-07T22:45:34.479Z</time>
      </trkpt>
      <trkpt lat="58.36214" lon="24.26137">
        <ele>9.827726</ele>
        <time>2020-10-07T22:46:10.384Z</time>
      </trkpt>
      <trkpt lat="58.36288" lon="24.26235">
        <ele>9.93468</ele>
        <time>2020-10-07T22:46:31.981Z</time>
      </trkpt>
      <trkpt lat="58.36381" lon="24.26312">
        <ele>10.033629</ele>
        <time>2020-10-07T22:46:56.070Z</time>
      </trkpt>
      <trkpt lat="58.36389" lon="24.26319">
        <ele>10.041431</ele>
        <time>2020-10-07T22:46:58.369Z</time>
      </trkpt>
      <trkpt lat="58.36534" lon="24.26368">
        <ele>9.993026</ele>
        <time>2020-10-07T22:47:32.803Z</time>
      </trkpt>
      <trkpt lat="58.36553" lon="24.26383">
        <ele>9.911685</ele>
        <time>2020-10-07T22:47:37.214Z</time>
      </trkpt>
      <trkpt lat="58.36607" lon="24.26421">
        <ele>9.686937</ele>
        <time>2020-10-07T22:47:49.253Z</time>
      </trkpt>
      <trkpt lat="58.36639" lon="24.26458">
        <ele>9.540571</ele>
        <time>2020-10-07T22:47:56.837Z</time>
      </trkpt>
      <trkpt lat="58.36746" lon="24.26603">
        <ele>8.866838</ele>
        <time>2020-10-07T22:48:22.724Z</time>
      </trkpt>
      <trkpt lat="58.3684" lon="24.26711">
        <ele>8.589342</ele>
        <time>2020-10-07T22:48:46.194Z</time>
      </trkpt>
      <trkpt lat="58.36888" lon="24.26762">
        <ele>8.81521</ele>
        <time>2020-10-07T22:48:59.112Z</time>
      </trkpt>
      <trkpt lat="58.36891" lon="24.26766">
        <ele>8.829352</ele>
        <time>2020-10-07T22:49:00.028Z</time>
      </trkpt>
      <trkpt lat="58.3693" lon="24.26806">
        <ele>9.012927</ele>
        <time>2020-10-07T22:49:11.114Z</time>
      </trkpt>
      <trkpt lat="58.36985" lon="24.26852">
        <ele>9.276268</ele>
        <time>2020-10-07T22:49:26.530Z</time>
      </trkpt>
      <trkpt lat="58.37054" lon="24.26897">
        <ele>9.661201</ele>
        <time>2020-10-07T22:49:45.631Z</time>
      </trkpt>
      <trkpt lat="58.3711" lon="24.26924">
        <ele>9.963531</ele>
        <time>2020-10-07T22:49:59.260Z</time>
      </trkpt>
      <trkpt lat="58.3716" lon="24.26945">
        <ele>10.078504</ele>
        <time>2020-10-07T22:50:10.651Z</time>
      </trkpt>
      <trkpt lat="58.37208" lon="24.26958">
        <ele>9.92642</ele>
        <time>2020-10-07T22:50:21.018Z</time>
      </trkpt>
      <trkpt lat="58.37374" lon="24.26999">
        <ele>9.472584</ele>
        <time>2020-10-07T22:50:55.398Z</time>
      </trkpt>
      <trkpt lat="58.37764" lon="24.27095">
        <ele>9.163979</ele>
        <time>2020-10-07T22:52:22.309Z</time>
      </trkpt>
      <trkpt lat="58.3798" lon="24.2716">
        <ele>9.275199</ele>
        <time>2020-10-07T22:53:11.662Z</time>
      </trkpt>
      <trkpt lat="58.38313" lon="24.27243">
        <ele>9.502122</ele>
        <time>2020-10-07T22:54:27.258Z</time>
      </trkpt>
      <trkpt lat="58.38504" lon="24.27284">
        <ele>9.836508</ele>
        <time>2020-10-07T22:55:12.017Z</time>
      </trkpt>
      <trkpt lat="58.38549" lon="24.27299">
        <ele>9.930021</ele>
        <time>2020-10-07T22:55:22.697Z</time>
      </trkpt>
      <trkpt lat="58.38655" lon="24.27353">
        <ele>9.885051</ele>
        <time>2020-10-07T22:55:47.174Z</time>
      </trkpt>
      <trkpt lat="58.38672" lon="24.2736">
        <ele>9.869557</ele>
        <time>2020-10-07T22:55:50.859Z</time>
      </trkpt>
      <trkpt lat="58.3875" lon="24.27403">
        <ele>9.78686</ele>
        <time>2020-10-07T22:56:08.301Z</time>
      </trkpt>
      <trkpt lat="58.38833" lon="24.27451">
        <ele>9.641691</ele>
        <time>2020-10-07T22:56:26.502Z</time>
      </trkpt>
      <trkpt lat="58.38992" lon="24.2757">
        <ele>9.572416</ele>
        <time>2020-10-07T22:57:04.367Z</time>
      </trkpt>
      <trkpt lat="58.39072" lon="24.27638">
        <ele>9.644848</ele>
        <time>2020-10-07T22:57:24.781Z</time>
      </trkpt>
      <trkpt lat="58.39139" lon="24.27711">
        <ele>9.390553</ele>
        <time>2020-10-07T22:57:41.882Z</time>
      </trkpt>
      <trkpt lat="58.39167" lon="24.27747">
        <ele>9.269009</ele>
        <time>2020-10-07T22:57:48.940Z</time>
      </trkpt>
      <trkpt lat="58.39195" lon="24.27788">
        <ele>9.142709</ele>
        <time>2020-10-07T22:57:56.110Z</time>
      </trkpt>
      <trkpt lat="58.39221" lon="24.27833">
        <ele>9.017253</ele>
        <time>2020-10-07T22:58:03.116Z</time>
      </trkpt>
      <trkpt lat="58.39269" lon="24.27925">
        <ele>8.558618</ele>
        <time>2020-10-07T22:58:16.680Z</time>
      </trkpt>
      <trkpt lat="58.39317" lon="24.28024">
        <ele>8.07052</ele>
        <time>2020-10-07T22:58:30.589Z</time>
      </trkpt>
      <trkpt lat="58.39388" lon="24.28163">
        <ele>7.678627</ele>
        <time>2020-10-07T22:58:51.735Z</time>
      </trkpt>
      <trkpt lat="58.39517" lon="24.28445">
        <ele>7.469934</ele>
        <time>2020-10-07T22:59:35.359Z</time>
      </trkpt>
      <trkpt lat="58.39596" lon="24.28636">
        <ele>7.4236</ele>
        <time>2020-10-07T23:00:03.735Z</time>
      </trkpt>
      <trkpt lat="58.39633" lon="24.28731">
        <ele>7.414472</ele>
        <time>2020-10-07T23:00:17.304Z</time>
      </trkpt>
      <trkpt lat="58.3971" lon="24.28931">
        <ele>7.4</ele>
        <time>2020-10-07T23:00:46.166Z</time>
      </trkpt>
      <trkpt lat="58.39871" lon="24.2935">
        <ele>7.435545</ele>
        <time>2020-10-07T23:01:47.117Z</time>
      </trkpt>
      <trkpt lat="58.39932" lon="24.29514">
        <ele>7.496397</ele>
        <time>2020-10-07T23:02:10.870Z</time>
      </trkpt>
      <trkpt lat="58.39968" lon="24.29603">
        <ele>7.549058</ele>
        <time>2020-10-07T23:02:24.377Z</time>
      </trkpt>
      <trkpt lat="58.40019" lon="24.29723">
        <ele>7.649765</ele>
        <time>2020-10-07T23:02:42.790Z</time>
      </trkpt>
      <trkpt lat="58.40074" lon="24.29825">
        <ele>7.915406</ele>
        <time>2020-10-07T23:03:00.561Z</time>
      </trkpt>
      <trkpt lat="58.40092" lon="24.29856">
        <ele>7.998778</ele>
        <time>2020-10-07T23:03:06.274Z</time>
      </trkpt>
      <trkpt lat="58.40094" lon="24.2986">
        <ele>8.009342</ele>
        <time>2020-10-07T23:03:06.932Z</time>
      </trkpt>
      <trkpt lat="58.40188" lon="24.30001">
        <ele>8.566482</ele>
        <time>2020-10-07T23:03:35.951Z</time>
      </trkpt>
      <trkpt lat="58.40309" lon="24.30182">
        <ele>9.507467</ele>
        <time>2020-10-07T23:04:14.150Z</time>
      </trkpt>
      <trkpt lat="58.4036" lon="24.30258">
        <ele>9.915804</ele>
        <time>2020-10-07T23:04:30.529Z</time>
      </trkpt>
      <trkpt lat="58.40442" lon="24.30395">
        <ele>10.550971</ele>
        <time>2020-10-07T23:04:57.378Z</time>
      </trkpt>
      <trkpt lat="58.40472" lon="24.30453">
        <ele>10.713411</ele>
        <time>2020-10-07T23:05:07.485Z</time>
      </trkpt>
      <trkpt lat="58.4049" lon="24.30505">
        <ele>10.839969</ele>
        <time>2020-10-07T23:05:15.255Z</time>
      </trkpt>
      <trkpt lat="58.40546" lon="24.307">
        <ele>11.214082</ele>
        <time>2020-10-07T23:05:42.939Z</time>
      </trkpt>
      <trkpt lat="58.40554" lon="24.30732">
        <ele>11.244124</ele>
        <time>2020-10-07T23:05:47.090Z</time>
      </trkpt>
      <trkpt lat="58.40584" lon="24.3085">
        <ele>11.354916</ele>
        <time>2020-10-07T23:06:02.793Z</time>
      </trkpt>
      <trkpt lat="58.40611" lon="24.30958">
        <ele>11.479257</ele>
        <time>2020-10-07T23:06:16.850Z</time>
      </trkpt>
      <trkpt lat="58.40629" lon="24.31049">
        <ele>11.825991</ele>
        <time>2020-10-07T23:06:28.551Z</time>
      </trkpt>
      <trkpt lat="58.4064" lon="24.31111">
        <ele>12.062065</ele>
        <time>2020-10-07T23:06:36.896Z</time>
      </trkpt>
      <trkpt lat="58.40653" lon="24.3121">
        <ele>12.429463</ele>
        <time>2020-10-07T23:06:50.380Z</time>
      </trkpt>
      <trkpt lat="58.40661" lon="24.31272">
        <ele>12.658302</ele>
        <time>2020-10-07T23:06:59.215Z</time>
      </trkpt>
      <trkpt lat="58.40675" lon="24.31742">
        <ele>17.056536</ele>
        <time>2020-10-07T23:08:14.037Z</time>
      </trkpt>
      <trkpt lat="58.40706" lon="24.32009">
        <ele>18.893847</ele>
        <time>2020-10-07T23:08:54.839Z</time>
      </trkpt>
      <trkpt lat="58.40715" lon="24.3212">
        <ele>18.795997</ele>
        <time>2020-10-07T23:09:08.423Z</time>
      </trkpt>
      <trkpt lat="58.40719" lon="24.32173">
        <ele>18.749155</ele>
        <time>2020-10-07T23:09:14.293Z</time>
      </trkpt>
      <trkpt lat="58.40721" lon="24.32206">
        <ele>18.720627</ele>
        <time>2020-10-07T23:09:17.726Z</time>
      </trkpt>
      <trkpt lat="58.40728" lon="24.32417">
        <ele>17.568711</ele>
        <time>2020-10-07T23:09:38.206Z</time>
      </trkpt>
      <trkpt lat="58.40729" lon="24.32551">
        <ele>16.356179</ele>
        <time>2020-10-07T23:09:50.641Z</time>
      </trkpt>
      <trkpt lat="58.4074" lon="24.32755">
        <ele>14.831411</ele>
        <time>2020-10-07T23:10:09.757Z</time>
      </trkpt>
      <trkpt lat="58.40761" lon="24.32834">
        <ele>14.284457</ele>
        <time>2020-10-07T23:10:18.583Z</time>
      </trkpt>
      <trkpt lat="58.4077" lon="24.32874">
        <ele>14.016037</ele>
        <time>2020-10-07T23:10:23.021Z</time>
      </trkpt>
      <trkpt lat="58.40774" lon="24.32892">
        <ele>13.898757</ele>
        <time>2020-10-07T23:10:25.074Z</time>
      </trkpt>
      <trkpt lat="58.408" lon="24.33015">
        <ele>13.468993</ele>
        <time>2020-10-07T23:10:39.639Z</time>
      </trkpt>
      <trkpt lat="58.4083" lon="24.33151">
        <ele>13.604796</ele>
        <time>2020-10-07T23:10:57.312Z</time>
      </trkpt>
      <trkpt lat="58.41157" lon="24.34658">
        <ele>16.669777</ele>
        <time>2020-10-07T23:14:27.608Z</time>
      </trkpt>
      <trkpt lat="58.41215" lon="24.34918">
        <ele>13.510873</ele>
        <time>2020-10-07T23:14:51.774Z</time>
      </trkpt>
      <trkpt lat="58.41231" lon="24.35018">
        <ele>11.899121</ele>
        <time>2020-10-07T23:15:00.451Z</time>
      </trkpt>
      <trkpt lat="58.41238" lon="24.35078">
        <ele>10.950663</ele>
        <time>2020-10-07T23:15:05.755Z</time>
      </trkpt>
      <trkpt lat="58.41241" lon="24.35157">
        <ele>9.730769</ele>
        <time>2020-10-07T23:15:12.817Z</time>
      </trkpt>
      <trkpt lat="58.41245" lon="24.35265">
        <ele>8.820708</ele>
        <time>2020-10-07T23:15:23.046Z</time>
      </trkpt>
      <trkpt lat="58.41249" lon="24.35376">
        <ele>8.376831</ele>
        <time>2020-10-07T23:15:34.562Z</time>
      </trkpt>
      <trkpt lat="58.41251" lon="24.3544">
        <ele>8.117865</ele>
        <time>2020-10-07T23:15:41.682Z</time>
      </trkpt>
      <trkpt lat="58.41254" lon="24.3548">
        <ele>7.957016</ele>
        <time>2020-10-07T23:15:46.294Z</time>
      </trkpt>
      <trkpt lat="58.41259" lon="24.35521">
        <ele>7.789856</ele>
        <time>2020-10-07T23:15:51.089Z</time>
      </trkpt>
      <trkpt lat="58.41264" lon="24.35559">
        <ele>7.689596</ele>
        <time>2020-10-07T23:15:55.771Z</time>
      </trkpt>
      <trkpt lat="58.41272" lon="24.35599">
        <ele>7.642906</ele>
        <time>2020-10-07T23:16:00.803Z</time>
      </trkpt>
      <trkpt lat="58.4129" lon="24.357">
        <ele>7.526933</ele>
        <time>2020-10-07T23:16:12.976Z</time>
      </trkpt>
      <trkpt lat="58.41292" lon="24.35715">
        <ele>7.509753</ele>
        <time>2020-10-07T23:16:14.723Z</time>
      </trkpt>
      <trkpt lat="58.41305" lon="24.35786">
        <ele>7.426796</ele>
        <time>2020-10-07T23:16:22.999Z</time>
      </trkpt>
      <trkpt lat="58.41308" lon="24.35804">
        <ele>7.406821</ele>
        <time>2020-10-07T23:16:24.990Z</time>
      </trkpt>
      <trkpt lat="58.41311" lon="24.35818">
        <ele>7.38995</ele>
        <time>2020-10-07T23:16:26.668Z</time>
      </trkpt>
      <trkpt lat="58.41326" lon="24.35881">
        <ele>7.322114</ele>
        <time>2020-10-07T23:16:34.239Z</time>
      </trkpt>
      <trkpt lat="58.41356" lon="24.35974">
        <ele>7.244489</ele>
        <time>2020-10-07T23:16:46.745Z</time>
      </trkpt>
      <trkpt lat="58.41371" lon="24.36025">
        <ele>7.202723</ele>
        <time>2020-10-07T23:16:53.663Z</time>
      </trkpt>
      <trkpt lat="58.41403" lon="24.3612">
        <ele>7.123183</ele>
        <time>2020-10-07T23:17:06.520Z</time>
      </trkpt>
      <trkpt lat="58.41434" lon="24.36211">
        <ele>7.098602</ele>
        <time>2020-10-07T23:17:18.927Z</time>
      </trkpt>
      <trkpt lat="58.41422" lon="24.36234">
        <ele>7.10183</ele>
        <time>2020-10-07T23:17:22.673Z</time>
      </trkpt>
      <trkpt lat="58.41414" lon="24.36254">
        <ele>7.104402</ele>
        <time>2020-10-07T23:17:25.772Z</time>
      </trkpt>
      <trkpt lat="58.41398" lon="24.36289">
        <ele>7.109138</ele>
        <time>2020-10-07T23:17:31.394Z</time>
      </trkpt>
      <trkpt lat="58.41384" lon="24.36319">
        <ele>7.113134</ele>
        <time>2020-10-07T23:17:36.309Z</time>
      </trkpt>
      <trkpt lat="58.4136" lon="24.36366">
        <ele>7.119747</ele>
        <time>2020-10-07T23:17:44.115Z</time>
      </trkpt>
      <trkpt lat="58.41342" lon="24.36394">
        <ele>7.124189</ele>
        <time>2020-10-07T23:17:49.180Z</time>
      </trkpt>
      <trkpt lat="58.41332" lon="24.36403">
        <ele>7.126279</ele>
        <time>2020-10-07T23:17:51.649Z</time>
      </trkpt>
      <trkpt lat="58.41295" lon="24.36437">
        <ele>7.037204</ele>
        <time>2020-10-07T23:18:00.323Z</time>
      </trkpt>
      <trkpt lat="58.41285" lon="24.36447">
        <ele>7.01005</ele>
        <time>2020-10-07T23:18:02.716Z</time>
      </trkpt>
      <trkpt lat="58.41265" lon="24.36474">
        <ele>6.955103</ele>
        <time>2020-10-07T23:18:07.963Z</time>
      </trkpt>
      <trkpt lat="58.41253" lon="24.36501">
        <ele>6.912342</ele>
        <time>2020-10-07T23:18:11.860Z</time>
      </trkpt>
      <trkpt lat="58.41243" lon="24.3653">
        <ele>6.870417</ele>
        <time>2020-10-07T23:18:15.947Z</time>
      </trkpt>
      <trkpt lat="58.41232" lon="24.36526">
        <ele>6.844118</ele>
        <time>2020-10-07T23:18:18.396Z</time>
      </trkpt>
      <trkpt lat="58.4122" lon="24.3657">
        <ele>6.783613</ele>
        <time>2020-10-07T23:18:24.210Z</time>
      </trkpt>
      <trkpt lat="58.41218" lon="24.36576">
        <ele>6.774985</ele>
        <time>2020-10-07T23:18:24.937Z</time>
      </trkpt>
      <trkpt lat="58.41205" lon="24.36626">
        <ele>6.707467</ele>
        <time>2020-10-07T23:18:31.146Z</time>
      </trkpt>
      <trkpt lat="58.41187" lon="24.36721">
        <ele>6.544761</ele>
        <time>2020-10-07T23:18:42.104Z</time>
      </trkpt>
      <trkpt lat="58.41183" lon="24.36785">
        <ele>6.442001</ele>
        <time>2020-10-07T23:18:49.184Z</time>
      </trkpt>
      <trkpt lat="58.4122" lon="24.36966">
        <ele>6.152157</ele>
        <time>2020-10-07T23:19:11.041Z</time>
      </trkpt>
      <trkpt lat="58.41233" lon="24.37023">
        <ele>6.11755</ele>
        <time>2020-10-07T23:19:18.154Z</time>
      </trkpt>
      <trkpt lat="58.41242" lon="24.37063">
        <ele>6.09357</ele>
        <time>2020-10-07T23:19:23.041Z</time>
      </trkpt>
      <trkpt lat="58.41254" lon="24.37134">
        <ele>6.052373</ele>
        <time>2020-10-07T23:19:31.482Z</time>
      </trkpt>
      <trkpt lat="58.41259" lon="24.37238">
        <ele>5.994294</ele>
        <time>2020-10-07T23:19:43.378Z</time>
      </trkpt>
      <trkpt lat="58.4125" lon="24.37496">
        <ele>6.486413</ele>
        <time>2020-10-07T23:20:14.404Z</time>
      </trkpt>
      <trkpt lat="58.41181" lon="24.38023">
        <ele>9.123605</ele>
        <time>2020-10-07T23:21:29.636Z</time>
      </trkpt>
      <trkpt lat="58.41142" lon="24.38242">
        <ele>10.650067</ele>
        <time>2020-10-07T23:22:03.528Z</time>
      </trkpt>
      <trkpt lat="58.41127" lon="24.38303">
        <ele>11.015783</ele>
        <time>2020-10-07T23:22:13.142Z</time>
      </trkpt>
      <trkpt lat="58.41109" lon="24.3838">
        <ele>11.357878</ele>
        <time>2020-10-07T23:22:24.832Z</time>
      </trkpt>
      <trkpt lat="58.41093" lon="24.38448">
        <ele>11.661177</ele>
        <time>2020-10-07T23:22:34.870Z</time>
      </trkpt>
      <trkpt lat="58.41089" lon="24.38465">
        <ele>11.735974</ele>
        <time>2020-10-07T23:22:37.437Z</time>
      </trkpt>
      <trkpt lat="58.41082" lon="24.38495">
        <ele>11.870163</ele>
        <time>2020-10-07T23:22:41.595Z</time>
      </trkpt>
      <trkpt lat="58.41033" lon="24.38654">
        <ele>12.220891</ele>
        <time>2020-10-07T23:23:04.404Z</time>
      </trkpt>
      <trkpt lat="58.40958" lon="24.3886">
        <ele>12.049052</ele>
        <time>2020-10-07T23:23:32.934Z</time>
      </trkpt>
      <trkpt lat="58.40922" lon="24.38948">
        <ele>11.374788</ele>
        <time>2020-10-07T23:23:44.672Z</time>
      </trkpt>
      <trkpt lat="58.40807" lon="24.39191">
        <ele>9.218751</ele>
        <time>2020-10-07T23:24:15.861Z</time>
      </trkpt>
      <trkpt lat="58.40774" lon="24.39259">
        <ele>8.583406</ele>
        <time>2020-10-07T23:24:24.666Z</time>
      </trkpt>
      <trkpt lat="58.40727" lon="24.39357">
        <ele>7.670414</ele>
        <time>2020-10-07T23:24:37.964Z</time>
      </trkpt>
      <trkpt lat="58.4067" lon="24.39476">
        <ele>7.13319</ele>
        <time>2020-10-07T23:24:54.962Z</time>
      </trkpt>
      <trkpt lat="58.40621" lon="24.39581">
        <ele>6.783964</ele>
        <time>2020-10-07T23:25:10.963Z</time>
      </trkpt>
      <trkpt lat="58.40589" lon="24.3965">
        <ele>6.544142</ele>
        <time>2020-10-07T23:25:21.086Z</time>
      </trkpt>
      <trkpt lat="58.40542" lon="24.39768">
        <ele>6.08411</ele>
        <time>2020-10-07T23:25:37.105Z</time>
      </trkpt>
      <trkpt lat="58.40516" lon="24.39841">
        <ele>5.811398</ele>
        <time>2020-10-07T23:25:46.226Z</time>
      </trkpt>
      <trkpt lat="58.40507" lon="24.3987">
        <ele>5.704495</ele>
        <time>2020-10-07T23:25:49.837Z</time>
      </trkpt>
      <trkpt lat="58.40484" lon="24.39946">
        <ele>5.509018</ele>
        <time>2020-10-07T23:25:59.156Z</time>
      </trkpt>
      <trkpt lat="58.40483" lon="24.39951">
        <ele>5.504248</ele>
        <time>2020-10-07T23:25:59.631Z</time>
      </trkpt>
      <trkpt lat="58.40463" lon="24.40025">
        <ele>5.428449</ele>
        <time>2020-10-07T23:26:08.521Z</time>
      </trkpt>
      <trkpt lat="58.4041" lon="24.40282">
        <ele>5.340161</ele>
        <time>2020-10-07T23:26:40.987Z</time>
      </trkpt>
      <trkpt lat="58.40395" lon="24.40315">
        <ele>5.429139</ele>
        <time>2020-10-07T23:26:46.684Z</time>
      </trkpt>
      <trkpt lat="58.40394" lon="24.40331">
        <ele>5.462584</ele>
        <time>2020-10-07T23:26:48.901Z</time>
      </trkpt>
      <trkpt lat="58.40393" lon="24.40338">
        <ele>5.476243</ele>
        <time>2020-10-07T23:26:49.758Z</time>
      </trkpt>
      <trkpt lat="58.40392" lon="24.40344">
        <ele>5.488946</ele>
        <time>2020-10-07T23:26:50.559Z</time>
      </trkpt>
      <trkpt lat="58.40389" lon="24.40353">
        <ele>5.512237</ele>
        <time>2020-10-07T23:26:51.997Z</time>
      </trkpt>
      <trkpt lat="58.40384" lon="24.40365">
        <ele>5.540567</ele>
        <time>2020-10-07T23:26:53.763Z</time>
      </trkpt>
      <trkpt lat="58.4039" lon="24.40393">
        <ele>5.601743</ele>
        <time>2020-10-07T23:26:57.800Z</time>
      </trkpt>
      <trkpt lat="58.4039" lon="24.40455">
        <ele>5.728323</ele>
        <time>2020-10-07T23:27:05.755Z</time>
      </trkpt>
      <trkpt lat="58.4038" lon="24.40595">
        <ele>5.867691</ele>
        <time>2020-10-07T23:27:23.497Z</time>
      </trkpt>
      <trkpt lat="58.40376" lon="24.40641">
        <ele>5.808941</ele>
        <time>2020-10-07T23:27:29.216Z</time>
      </trkpt>
      <trkpt lat="58.40334" lon="24.41133">
        <ele>4.946436</ele>
        <time>2020-10-07T23:28:23.464Z</time>
      </trkpt>
      <trkpt lat="58.40308" lon="24.41408">
        <ele>4.566948</ele>
        <time>2020-10-07T23:28:54.275Z</time>
      </trkpt>
      <trkpt lat="58.40284" lon="24.41605">
        <ele>4.440866</ele>
        <time>2020-10-07T23:29:18.039Z</time>
      </trkpt>
      <trkpt lat="58.40269" lon="24.41714">
        <ele>4.490875</ele>
        <time>2020-10-07T23:29:31.476Z</time>
      </trkpt>
      <trkpt lat="58.40243" lon="24.41848">
        <ele>4.554756</ele>
        <time>2020-10-07T23:29:48.514Z</time>
      </trkpt>
      <trkpt lat="58.40233" lon="24.41915">
        <ele>4.567434</ele>
        <time>2020-10-07T23:29:56.715Z</time>
      </trkpt>
      <trkpt lat="58.40231" lon="24.41949">
        <ele>4.55644</ele>
        <time>2020-10-07T23:30:00.653Z</time>
      </trkpt>
      <trkpt lat="58.40169" lon="24.42362">
        <ele>4.381312</ele>
        <time>2020-10-07T23:30:49.919Z</time>
      </trkpt>
      <trkpt lat="58.40165" lon="24.42396">
        <ele>4.361219</ele>
        <time>2020-10-07T23:30:53.974Z</time>
      </trkpt>
      <trkpt lat="58.40164" lon="24.42405">
        <ele>4.356126</ele>
        <time>2020-10-07T23:30:54.922Z</time>
      </trkpt>
      <trkpt lat="58.40142" lon="24.42501">
        <ele>4.295494</ele>
        <time>2020-10-07T23:31:07.050Z</time>
      </trkpt>
      <trkpt lat="58.4011" lon="24.42705">
        <ele>4.21707</ele>
        <time>2020-10-07T23:31:31.630Z</time>
      </trkpt>
      <trkpt lat="58.40105" lon="24.42725">
        <ele>4.210102</ele>
        <time>2020-10-07T23:31:34.283Z</time>
      </trkpt>
      <trkpt lat="58.40101" lon="24.42741">
        <ele>4.204531</ele>
        <time>2020-10-07T23:31:36.438Z</time>
      </trkpt>
      <trkpt lat="58.40094" lon="24.42822">
        <ele>4.179619</ele>
        <time>2020-10-07T23:31:45.903Z</time>
      </trkpt>
      <trkpt lat="58.4006" lon="24.43009">
        <ele>4.10594</ele>
        <time>2020-10-07T23:32:08.645Z</time>
      </trkpt>
      <trkpt lat="58.40045" lon="24.43079">
        <ele>4.075408</ele>
        <time>2020-10-07T23:32:17.465Z</time>
      </trkpt>
      <trkpt lat="58.40033" lon="24.43104">
        <ele>4.062314</ele>
        <time>2020-10-07T23:32:21.301Z</time>
      </trkpt>
      <trkpt lat="58.4003" lon="24.43116">
        <ele>4.056666</ele>
        <time>2020-10-07T23:32:22.903Z</time>
      </trkpt>
      <trkpt lat="58.40028" lon="24.43128">
        <ele>4.051894</ele>
        <time>2020-10-07T23:32:24.277Z</time>
      </trkpt>
      <trkpt lat="58.40024" lon="24.43192">
        <ele>4.025997</ele>
        <time>2020-10-07T23:32:31.815Z</time>
      </trkpt>
      <trkpt lat="58.40018" lon="24.43221">
        <ele>4.022636</ele>
        <time>2020-10-07T23:32:35.400Z</time>
      </trkpt>
      <trkpt lat="58.40012" lon="24.4325">
        <ele>4.020389</ele>
        <time>2020-10-07T23:32:39.085Z</time>
      </trkpt>
      <trkpt lat="58.39998" lon="24.43291">
        <ele>4.016871</ele>
        <time>2020-10-07T23:32:44.876Z</time>
      </trkpt>
      <trkpt lat="58.39996" lon="24.43323">
        <ele>4.014527</ele>
        <time>2020-10-07T23:32:48.686Z</time>
      </trkpt>
      <trkpt lat="58.39928" lon="24.43653">
        <ele>3.896143</ele>
        <time>2020-10-07T23:33:29.933Z</time>
      </trkpt>
      <trkpt lat="58.3992" lon="24.43693">
        <ele>3.86695</ele>
        <time>2020-10-07T23:33:34.805Z</time>
      </trkpt>
      <trkpt lat="58.39916" lon="24.43713">
        <ele>3.852226</ele>
        <time>2020-10-07T23:33:37.164Z</time>
      </trkpt>
      <trkpt lat="58.39905" lon="24.43744">
        <ele>3.827</ele>
        <time>2020-10-07T23:33:41.326Z</time>
      </trkpt>
      <trkpt lat="58.39864" lon="24.43946">
        <ele>3.64673</ele>
        <time>2020-10-07T23:34:05.573Z</time>
      </trkpt>
      <trkpt lat="58.39855" lon="24.4396">
        <ele>3.626107</ele>
        <time>2020-10-07T23:34:07.975Z</time>
      </trkpt>
      <trkpt lat="58.39847" lon="24.4398">
        <ele>3.603119</ele>
        <time>2020-10-07T23:34:10.671Z</time>
      </trkpt>
      <trkpt lat="58.39846" lon="24.43987">
        <ele>3.59578</ele>
        <time>2020-10-07T23:34:11.642Z</time>
      </trkpt>
      <trkpt lat="58.39843" lon="24.44039">
        <ele>3.546745</ele>
        <time>2020-10-07T23:34:17.530Z</time>
      </trkpt>
      <trkpt lat="58.39726" lon="24.44604">
        <ele>3.31606</ele>
        <time>2020-10-07T23:35:27.683Z</time>
      </trkpt>
      <trkpt lat="58.39699" lon="24.44709">
        <ele>3.346263</ele>
        <time>2020-10-07T23:35:41.623Z</time>
      </trkpt>
      <trkpt lat="58.3969" lon="24.44724">
        <ele>3.35226</ele>
        <time>2020-10-07T23:35:44.321Z</time>
      </trkpt>
      <trkpt lat="58.39685" lon="24.44751">
        <ele>3.359609</ele>
        <time>2020-10-07T23:35:47.789Z</time>
      </trkpt>
      <trkpt lat="58.3968" lon="24.44778">
        <ele>3.376451</ele>
        <time>2020-10-07T23:35:51.250Z</time>
      </trkpt>
      <trkpt lat="58.39678" lon="24.44787">
        <ele>3.391999</ele>
        <time>2020-10-07T23:35:52.432Z</time>
      </trkpt>
      <trkpt lat="58.39674" lon="24.44806">
        <ele>3.422775</ele>
        <time>2020-10-07T23:35:54.860Z</time>
      </trkpt>
      <trkpt lat="58.39671" lon="24.44821">
        <ele>3.445923</ele>
        <time>2020-10-07T23:35:56.810Z</time>
      </trkpt>
      <trkpt lat="58.39673" lon="24.44878">
        <ele>3.53315</ele>
        <time>2020-10-07T23:36:03.726Z</time>
      </trkpt>
      <trkpt lat="58.39587" lon="24.45265">
        <ele>4.057901</ele>
        <time>2020-10-07T23:36:55.625Z</time>
      </trkpt>
      <trkpt lat="58.39579" lon="24.45285">
        <ele>4.080615</ele>
        <time>2020-10-07T23:36:58.636Z</time>
      </trkpt>
      <trkpt lat="58.39576" lon="24.453">
        <ele>4.095408</ele>
        <time>2020-10-07T23:37:00.642Z</time>
      </trkpt>
      <trkpt lat="58.39574" lon="24.45306">
        <ele>4.101532</ele>
        <time>2020-10-07T23:37:01.447Z</time>
      </trkpt>
      <trkpt lat="58.39573" lon="24.45313">
        <ele>4.108224</ele>
        <time>2020-10-07T23:37:02.334Z</time>
      </trkpt>
      <trkpt lat="58.39571" lon="24.45324">
        <ele>4.118974</ele>
        <time>2020-10-07T23:37:03.677Z</time>
      </trkpt>
      <trkpt lat="58.3957" lon="24.4535">
        <ele>4.1426</ele>
        <time>2020-10-07T23:37:06.783Z</time>
      </trkpt>
      <trkpt lat="58.39547" lon="24.45445">
        <ele>4.203411</ele>
        <time>2020-10-07T23:37:19.120Z</time>
      </trkpt>
      <trkpt lat="58.39489" lon="24.45653">
        <ele>4.225963</ele>
        <time>2020-10-07T23:37:46.661Z</time>
      </trkpt>
      <trkpt lat="58.3948" lon="24.45679">
        <ele>4.228948</ele>
        <time>2020-10-07T23:37:50.362Z</time>
      </trkpt>
      <trkpt lat="58.3946" lon="24.45741">
        <ele>4.278234</ele>
        <time>2020-10-07T23:37:58.799Z</time>
      </trkpt>
      <trkpt lat="58.39418" lon="24.45869">
        <ele>4.457804</ele>
        <time>2020-10-07T23:38:16.879Z</time>
      </trkpt>
      <trkpt lat="58.39403" lon="24.45898">
        <ele>4.506641</ele>
        <time>2020-10-07T23:38:22.052Z</time>
      </trkpt>
      <trkpt lat="58.39402" lon="24.45898">
        <ele>4.507627</ele>
        <time>2020-10-07T23:38:22.202Z</time>
      </trkpt>
      <trkpt lat="58.39399" lon="24.45908">
        <ele>4.520933</ele>
        <time>2020-10-07T23:38:23.538Z</time>
      </trkpt>
      <trkpt lat="58.39399" lon="24.4591">
        <ele>4.523273</ele>
        <time>2020-10-07T23:38:23.710Z</time>
      </trkpt>
      <trkpt lat="58.39388" lon="24.45952">
        <ele>4.579121</ele>
        <time>2020-10-07T23:38:29.634Z</time>
      </trkpt>
      <trkpt lat="58.39377" lon="24.45988">
        <ele>4.62867</ele>
        <time>2020-10-07T23:38:34.626Z</time>
      </trkpt>
      <trkpt lat="58.39373" lon="24.46002">
        <ele>4.658789</ele>
        <time>2020-10-07T23:38:36.827Z</time>
      </trkpt>
      <trkpt lat="58.39274" lon="24.4623">
        <ele>5.509849</ele>
        <time>2020-10-07T23:39:14.951Z</time>
      </trkpt>
      <trkpt lat="58.3927" lon="24.46241">
        <ele>5.548975</ele>
        <time>2020-10-07T23:39:16.869Z</time>
      </trkpt>
      <trkpt lat="58.39265" lon="24.46255">
        <ele>5.599718</ele>
        <time>2020-10-07T23:39:19.039Z</time>
      </trkpt>
      <trkpt lat="58.3926" lon="24.46267">
        <ele>5.636233</ele>
        <time>2020-10-07T23:39:21.066Z</time>
      </trkpt>
      <trkpt lat="58.39216" lon="24.46359">
        <ele>5.790729</ele>
        <time>2020-10-07T23:39:36.726Z</time>
      </trkpt>
      <trkpt lat="58.39187" lon="24.46422">
        <ele>5.894302</ele>
        <time>2020-10-07T23:39:46.932Z</time>
      </trkpt>
      <trkpt lat="58.39184" lon="24.46429">
        <ele>5.904809</ele>
        <time>2020-10-07T23:39:47.873Z</time>
      </trkpt>
      <trkpt lat="58.39168" lon="24.4646">
        <ele>5.959697</ele>
        <time>2020-10-07T23:39:53.278Z</time>
      </trkpt>
      <trkpt lat="58.39113" lon="24.46578">
        <ele>5.980664</ele>
        <time>2020-10-07T23:40:11.388Z</time>
      </trkpt>
      <trkpt lat="58.39113" lon="24.4658">
        <ele>5.978861</ele>
        <time>2020-10-07T23:40:11.566Z</time>
      </trkpt>
      <trkpt lat="58.3911" lon="24.46586">
        <ele>5.970554</ele>
        <time>2020-10-07T23:40:12.585Z</time>
      </trkpt>
      <trkpt lat="58.39066" lon="24.46678">
        <ele>5.854801</ele>
        <time>2020-10-07T23:40:26.389Z</time>
      </trkpt>
      <trkpt lat="58.39045" lon="24.46724">
        <ele>5.798344</ele>
        <time>2020-10-07T23:40:33.183Z</time>
      </trkpt>
      <trkpt lat="58.39043" lon="24.46727">
        <ele>5.794788</ele>
        <time>2020-10-07T23:40:33.600Z</time>
      </trkpt>
      <trkpt lat="58.39036" lon="24.46744">
        <ele>5.773952</ele>
        <time>2020-10-07T23:40:36.082Z</time>
      </trkpt>
      <trkpt lat="58.39024" lon="24.46783">
        <ele>5.738747</ele>
        <time>2020-10-07T23:40:41.337Z</time>
      </trkpt>
      <trkpt lat="58.38995" lon="24.46922">
        <ele>5.845008</ele>
        <time>2020-10-07T23:40:58.864Z</time>
      </trkpt>
      <trkpt lat="58.38993" lon="24.46929">
        <ele>5.850533</ele>
        <time>2020-10-07T23:40:59.807Z</time>
      </trkpt>
      <trkpt lat="58.38958" lon="24.47105">
        <ele>5.986532</ele>
        <time>2020-10-07T23:41:22.739Z</time>
      </trkpt>
      <trkpt lat="58.38956" lon="24.47116">
        <ele>5.999345</ele>
        <time>2020-10-07T23:41:24.158Z</time>
      </trkpt>
      <trkpt lat="58.38907" lon="24.47356">
        <ele>6.282554</ele>
        <time>2020-10-07T23:41:56.068Z</time>
      </trkpt>
      <trkpt lat="58.38905" lon="24.47366">
        <ele>6.294119</ele>
        <time>2020-10-07T23:41:57.303Z</time>
      </trkpt>
      <trkpt lat="58.38876" lon="24.47513">
        <ele>6.183618</ele>
        <time>2020-10-07T23:42:15.794Z</time>
      </trkpt>
      <trkpt lat="58.38835" lon="24.47726">
        <ele>5.79622</ele>
        <time>2020-10-07T23:42:40.335Z</time>
      </trkpt>
      <trkpt lat="58.38832" lon="24.47741">
        <ele>5.768966</ele>
        <time>2020-10-07T23:42:42.038Z</time>
      </trkpt>
      <trkpt lat="58.38803" lon="24.47904">
        <ele>5.284855</ele>
        <time>2020-10-07T23:43:00.489Z</time>
      </trkpt>
      <trkpt lat="58.38789" lon="24.47997">
        <ele>5.012802</ele>
        <time>2020-10-07T23:43:10.781Z</time>
      </trkpt>
      <trkpt lat="58.38779" lon="24.48077">
        <ele>4.808463</ele>
        <time>2020-10-07T23:43:19.539Z</time>
      </trkpt>
      <trkpt lat="58.3878" lon="24.48148">
        <ele>4.840656</ele>
        <time>2020-10-07T23:43:27.341Z</time>
      </trkpt>
      <trkpt lat="58.38784" lon="24.48159">
        <ele>4.846239</ele>
        <time>2020-10-07T23:43:28.655Z</time>
      </trkpt>
      <trkpt lat="58.38785" lon="24.48145">
        <ele>4.852804</ele>
        <time>2020-10-07T23:43:30.922Z</time>
      </trkpt>
      <trkpt lat="58.38792" lon="24.48159">
        <ele>4.862001</ele>
        <time>2020-10-07T23:43:33.288Z</time>
      </trkpt>
      <trkpt lat="58.38803" lon="24.48166">
        <ele>4.871809</ele>
        <time>2020-10-07T23:43:35.886Z</time>
      </trkpt>
      <trkpt lat="58.3882" lon="24.4817">
        <ele>4.886524</ele>
        <time>2020-10-07T23:43:39.756Z</time>
      </trkpt>
      <trkpt lat="58.38887" lon="24.4818">
        <ele>4.944297</ele>
        <time>2020-10-07T23:43:55.729Z</time>
      </trkpt>
      <trkpt lat="58.38914" lon="24.48184">
        <ele>5.007481</ele>
        <time>2020-10-07T23:44:02.294Z</time>
      </trkpt>
      <trkpt lat="58.38936" lon="24.48189">
        <ele>5.126196</ele>
        <time>2020-10-07T23:44:07.759Z</time>
      </trkpt>
      <trkpt lat="58.38953" lon="24.48197">
        <ele>5.21768</ele>
        <time>2020-10-07T23:44:12.104Z</time>
      </trkpt>
      <trkpt lat="58.3897" lon="24.48209">
        <ele>5.314854</ele>
        <time>2020-10-07T23:44:16.645Z</time>
      </trkpt>
      <trkpt lat="58.38986" lon="24.48237">
        <ele>5.426218</ele>
        <time>2020-10-07T23:44:21.932Z</time>
      </trkpt>
      <trkpt lat="58.39035" lon="24.48307">
        <ele>5.752532</ele>
        <time>2020-10-07T23:44:37.310Z</time>
      </trkpt>
      <trkpt lat="58.39042" lon="24.48323">
        <ele>5.809655</ele>
        <time>2020-10-07T23:44:40.043Z</time>
      </trkpt>
      <trkpt lat="58.39047" lon="24.48363">
        <ele>5.914903</ele>
        <time>2020-10-07T23:44:45.178Z</time>
      </trkpt>
      <trkpt lat="58.39053" lon="24.48417">
        <ele>5.972204</ele>
        <time>2020-10-07T23:44:52.012Z</time>
      </trkpt>
      <trkpt lat="58.39054" lon="24.48432">
        <ele>5.987557</ele>
        <time>2020-10-07T23:44:53.778Z</time>
      </trkpt>
      <trkpt lat="58.39063" lon="24.48518">
        <ele>6.07798</ele>
        <time>2020-10-07T23:45:04.073Z</time>
      </trkpt>
      <trkpt lat="58.39063" lon="24.48525">
        <ele>6.085317</ele>
        <time>2020-10-07T23:45:04.927Z</time>
      </trkpt>
      <trkpt lat="58.39076" lon="24.48659">
        <ele>6.226854</ele>
        <time>2020-10-07T23:45:21.136Z</time>
      </trkpt>
      <trkpt lat="58.39078" lon="24.48676">
        <ele>6.244996</ele>
        <time>2020-10-07T23:45:23.234Z</time>
      </trkpt>
      <trkpt lat="58.39086" lon="24.48763">
        <ele>6.4093</ele>
        <time>2020-10-07T23:45:34.047Z</time>
      </trkpt>
      <trkpt lat="58.39087" lon="24.48771">
        <ele>6.427197</ele>
        <time>2020-10-07T23:45:35.096Z</time>
      </trkpt>
      <trkpt lat="58.39089" lon="24.48792">
        <ele>6.471731</ele>
        <time>2020-10-07T23:45:37.797Z</time>
      </trkpt>
      <trkpt lat="58.39101" lon="24.48926">
        <ele>6.756413</ele>
        <time>2020-10-07T23:45:54.753Z</time>
      </trkpt>
      <trkpt lat="58.39114" lon="24.49052">
        <ele>6.986336</ele>
        <time>2020-10-07T23:46:11.004Z</time>
      </trkpt>
      <trkpt lat="58.3912" lon="24.49116">
        <ele>6.993705</ele>
        <time>2020-10-07T23:46:19.482Z</time>
      </trkpt>
      <trkpt lat="58.39125" lon="24.4917">
        <ele>7.000002</ele>
        <time>2020-10-07T23:46:26.551Z</time>
      </trkpt>
      <trkpt lat="58.39129" lon="24.49214">
        <ele>7.00519</ele>
        <time>2020-10-07T23:46:32.316Z</time>
      </trkpt>
      <trkpt lat="58.39133" lon="24.49258">
        <ele>7.010316</ele>
        <time>2020-10-07T23:46:37.383Z</time>
      </trkpt>
      <trkpt lat="58.39135" lon="24.4928">
        <ele>7.012896</ele>
        <time>2020-10-07T23:46:40.041Z</time>
      </trkpt>
      <trkpt lat="58.39136" lon="24.49291">
        <ele>7.014109</ele>
        <time>2020-10-07T23:46:41.282Z</time>
      </trkpt>
      <trkpt lat="58.39147" lon="24.49396">
        <ele>6.886756</ele>
        <time>2020-10-07T23:46:52.563Z</time>
      </trkpt>
      <trkpt lat="58.39151" lon="24.49441">
        <ele>6.650819</ele>
        <time>2020-10-07T23:46:57.266Z</time>
      </trkpt>
      <trkpt lat="58.39154" lon="24.49487">
        <ele>6.407097</ele>
        <time>2020-10-07T23:47:01.723Z</time>
      </trkpt>
      <trkpt lat="58.39155" lon="24.49497">
        <ele>6.353797</ele>
        <time>2020-10-07T23:47:02.775Z</time>
      </trkpt>
      <trkpt lat="58.3915" lon="24.49499">
        <ele>6.297258</ele>
        <time>2020-10-07T23:47:03.905Z</time>
      </trkpt>
      <trkpt lat="58.39144" lon="24.49501">
        <ele>6.241701</ele>
        <time>2020-10-07T23:47:05.017Z</time>
      </trkpt>
      <trkpt lat="58.39141" lon="24.49502">
        <ele>6.206467</ele>
        <time>2020-10-07T23:47:05.551Z</time>
      </trkpt>
      <trkpt lat="58.39079" lon="24.49518">
        <ele>5.588512</ele>
        <time>2020-10-07T23:47:17.612Z</time>
      </trkpt>
      <trkpt lat="58.39029" lon="24.49532">
        <ele>5.214273</ele>
        <time>2020-10-07T23:47:27.001Z</time>
      </trkpt>
      <trkpt lat="58.39025" lon="24.49531">
        <ele>5.209476</ele>
        <time>2020-10-07T23:47:27.769Z</time>
      </trkpt>
      <trkpt lat="58.39025" lon="24.49542">
        <ele>5.202254</ele>
        <time>2020-10-07T23:47:28.974Z</time>
      </trkpt>
      <trkpt lat="58.39023" lon="24.49548">
        <ele>5.19698</ele>
        <time>2020-10-07T23:47:29.895Z</time>
      </trkpt>
      <trkpt lat="58.39017" lon="24.49552">
        <ele>5.188997</ele>
        <time>2020-10-07T23:47:31.232Z</time>
      </trkpt>
      <trkpt lat="58.38783" lon="24.49616">
        <ele>5.455124</ele>
        <time>2020-10-07T23:48:27.773Z</time>
      </trkpt>
      <trkpt lat="58.38775" lon="24.49618">
        <ele>5.496839</ele>
        <time>2020-10-07T23:48:30.112Z</time>
      </trkpt>
      <trkpt lat="58.38766" lon="24.49611">
        <ele>5.545093</ele>
        <time>2020-10-07T23:48:32.553Z</time>
      </trkpt>
      <trkpt lat="58.38763" lon="24.49597">
        <ele>5.582594</ele>
        <time>2020-10-07T23:48:34.437Z</time>
      </trkpt>
      <trkpt lat="58.38764" lon="24.4958">
        <ele>5.628014</ele>
        <time>2020-10-07T23:48:36.998Z</time>
      </trkpt>
      <trkpt lat="58.38761" lon="24.4958">
        <ele>5.643309</ele>
        <time>2020-10-07T23:48:39.129Z</time>
      </trkpt>
      <trkpt lat="58.38757" lon="24.4958">
        <ele>5.660712</ele>
        <time>2020-10-07T23:48:41.603Z</time>
      </trkpt>
      <trkpt lat="58.38761" lon="24.49618">
        <ele>5.759875</ele>
        <time>2020-10-07T23:48:47.813Z</time>
      </trkpt>
      <trkpt lat="58.38738" lon="24.49602">
        <ele>5.883557</ele>
        <time>2020-10-07T23:48:54.368Z</time>
      </trkpt>
      <trkpt lat="58.38727" lon="24.49594">
        <ele>5.973412</ele>
        <time>2020-10-07T23:48:57.282Z</time>
      </trkpt>
      <trkpt lat="58.38723" lon="24.49592">
        <ele>6.005786</ele>
        <time>2020-10-07T23:48:58.370Z</time>
      </trkpt>
      <trkpt lat="58.38698" lon="24.49576">
        <ele>6.224311</ele>
        <time>2020-10-07T23:49:05.270Z</time>
      </trkpt>
      <trkpt lat="58.38637" lon="24.49573">
        <ele>6.730429</ele>
        <time>2020-10-07T23:49:21.286Z</time>
      </trkpt>
      <trkpt lat="58.38611" lon="24.49578">
        <ele>6.943207</ele>
        <time>2020-10-07T23:49:27.691Z</time>
      </trkpt>
      <trkpt lat="58.38606" lon="24.49579">
        <ele>6.984002</ele>
        <time>2020-10-07T23:49:28.964Z</time>
      </trkpt>
      <trkpt lat="58.38569" lon="24.49588">
        <ele>7.292249</ele>
        <time>2020-10-07T23:49:38.457Z</time>
      </trkpt>
      <trkpt lat="58.38504" lon="24.49598">
        <ele>7.62458</ele>
        <time>2020-10-07T23:49:54.856Z</time>
      </trkpt>
      <trkpt lat="58.38473" lon="24.49602">
        <ele>7.764123</ele>
        <time>2020-10-07T23:50:02.555Z</time>
      </trkpt>
      <trkpt lat="58.38444" lon="24.49607">
        <ele>7.898311</ele>
        <time>2020-10-07T23:50:09.839Z</time>
      </trkpt>
      <trkpt lat="58.3838" lon="24.49615">
        <ele>8.184018</ele>
        <time>2020-10-07T23:50:24.274Z</time>
      </trkpt>
      <trkpt lat="58.38374" lon="24.49613">
        <ele>8.198198</ele>
        <time>2020-10-07T23:50:25.595Z</time>
      </trkpt>
      <trkpt lat="58.38306" lon="24.49622">
        <ele>8.331228</ele>
        <time>2020-10-07T23:50:40.702Z</time>
      </trkpt>
      <trkpt lat="58.383" lon="24.49623">
        <ele>8.342303</ele>
        <time>2020-10-07T23:50:42.089Z</time>
      </trkpt>
      <trkpt lat="58.38294" lon="24.49625">
        <ele>8.353365</ele>
        <time>2020-10-07T23:50:43.471Z</time>
      </trkpt>
      <trkpt lat="58.38301" lon="24.49766">
        <ele>8.49696</ele>
        <time>2020-10-07T23:51:01.365Z</time>
      </trkpt>
      <trkpt lat="58.38299" lon="24.49774">
        <ele>8.506134</ele>
        <time>2020-10-07T23:51:02.337Z</time>
      </trkpt>
      <trkpt lat="58.38299" lon="24.4978">
        <ele>8.511509</ele>
        <time>2020-10-07T23:51:02.965Z</time>
      </trkpt>
      <trkpt lat="58.383" lon="24.49789">
        <ele>8.521341</ele>
        <time>2020-10-07T23:51:04.091Z</time>
      </trkpt>
      <trkpt lat="58.38301" lon="24.49803">
        <ele>8.535386</ele>
        <time>2020-10-07T23:51:05.805Z</time>
      </trkpt>
      <trkpt lat="58.38304" lon="24.49868">
        <ele>8.528921</ele>
        <time>2020-10-07T23:51:13.729Z</time>
      </trkpt>
      <trkpt lat="58.38307" lon="24.49969">
        <ele>8.517098</ele>
        <time>2020-10-07T23:51:25.873Z</time>
      </trkpt>
      <trkpt lat="58.38308" lon="24.49978">
        <ele>8.516019</ele>
        <time>2020-10-07T23:51:26.843Z</time>
      </trkpt>
      <trkpt lat="58.38308" lon="24.49996">
        <ele>8.513908</ele>
        <time>2020-10-07T23:51:28.876Z</time>
      </trkpt>
      <trkpt lat="58.38312" lon="24.50061">
        <ele>8.506333</ele>
        <time>2020-10-07T23:51:36.218Z</time>
      </trkpt>
      <trkpt lat="58.38314" lon="24.50134">
        <ele>8.497732</ele>
        <time>2020-10-07T23:51:44.884Z</time>
      </trkpt>
      <trkpt lat="58.38312" lon="24.5015">
        <ele>8.488334</ele>
        <time>2020-10-07T23:51:46.707Z</time>
      </trkpt>
      <trkpt lat="58.38224" lon="24.50187">
        <ele>8.146532</ele>
        <time>2020-10-07T23:52:05.207Z</time>
      </trkpt>
      <trkpt lat="58.38216" lon="24.5019">
        <ele>8.11579</ele>
        <time>2020-10-07T23:52:06.829Z</time>
      </trkpt>
      <trkpt lat="58.38218" lon="24.50205">
        <ele>8.086395</ele>
        <time>2020-10-07T23:52:08.459Z</time>
      </trkpt>
      <trkpt lat="58.38135" lon="24.50234">
        <ele>7.811275</ele>
        <time>2020-10-07T23:52:25.989Z</time>
      </trkpt>
      <trkpt lat="58.38129" lon="24.50237">
        <ele>7.810634</ele>
        <time>2020-10-07T23:52:27.293Z</time>
      </trkpt>
      <trkpt lat="58.38118" lon="24.5024">
        <ele>7.809414</ele>
        <time>2020-10-07T23:52:29.666Z</time>
      </trkpt>
      <trkpt lat="58.38102" lon="24.50245">
        <ele>7.807544</ele>
        <time>2020-10-07T23:52:33.392Z</time>
      </trkpt>
      <trkpt lat="58.38096" lon="24.50245">
        <ele>7.806947</ele>
        <time>2020-10-07T23:52:34.676Z</time>
      </trkpt>
      <trkpt lat="58.38023" lon="24.50159">
        <ele>7.797385</ele>
        <time>2020-10-07T23:52:54.308Z</time>
      </trkpt>
      <trkpt lat="58.37977" lon="24.50107">
        <ele>7.809223</ele>
        <time>2020-10-07T23:53:06.182Z</time>
      </trkpt>
      <trkpt lat="58.37911" lon="24.50026">
        <ele>7.930259</ele>
        <time>2020-10-07T23:53:23.792Z</time>
      </trkpt>
      <trkpt lat="58.37811" lon="24.49907">
        <ele>8.031246</ele>
        <time>2020-10-07T23:53:51.553Z</time>
      </trkpt>
      <trkpt lat="58.37802" lon="24.49897">
        <ele>8.016298</ele>
        <time>2020-10-07T23:53:53.827Z</time>
      </trkpt>
      <trkpt lat="58.37796" lon="24.49888">
        <ele>8.004706</ele>
        <time>2020-10-07T23:53:55.592Z</time>
      </trkpt>
      <trkpt lat="58.37791" lon="24.49879">
        <ele>7.994983</ele>
        <time>2020-10-07T23:53:57.068Z</time>
      </trkpt>
      <trkpt lat="58.37785" lon="24.49872">
        <ele>7.985044</ele>
        <time>2020-10-07T23:53:58.633Z</time>
      </trkpt>
      <trkpt lat="58.37784" lon="24.4987">
        <ele>7.982129</ele>
        <time>2020-10-07T23:53:59.085Z</time>
      </trkpt>
      <trkpt lat="58.37751" lon="24.49832">
        <ele>7.925906</ele>
        <time>2020-10-07T23:54:07.524Z</time>
      </trkpt>
      <trkpt lat="58.37688" lon="24.49758">
        <ele>7.818185</ele>
        <time>2020-10-07T23:54:23.000Z</time>
      </trkpt>
      <trkpt lat="58.37649" lon="24.49712">
        <ele>7.558011</ele>
        <time>2020-10-07T23:54:32.411Z</time>
      </trkpt>
      <trkpt lat="58.37641" lon="24.49714">
        <ele>7.510903</ele>
        <time>2020-10-07T23:54:33.936Z</time>
      </trkpt>
      <trkpt lat="58.37632" lon="24.49716">
        <ele>7.45435</ele>
        <time>2020-10-07T23:54:35.767Z</time>
      </trkpt>
      <trkpt lat="58.37621" lon="24.49719">
        <ele>7.383509</ele>
        <time>2020-10-07T23:54:38.077Z</time>
      </trkpt>
      <trkpt lat="58.37613" lon="24.49717">
        <ele>7.330206</ele>
        <time>2020-10-07T23:54:39.758Z</time>
      </trkpt>
      <trkpt lat="58.37593" lon="24.49699">
        <ele>7.19194</ele>
        <time>2020-10-07T23:54:44.095Z</time>
      </trkpt>
      <trkpt lat="58.37582" lon="24.49704">
        <ele>7.121349</ele>
        <time>2020-10-07T23:54:46.324Z</time>
      </trkpt>
      <trkpt lat="58.37574" lon="24.49717">
        <ele>7.054558</ele>
        <time>2020-10-07T23:54:48.568Z</time>
      </trkpt>
      <trkpt lat="58.37564" lon="24.49711">
        <ele>6.988737</ele>
        <time>2020-10-07T23:54:50.574Z</time>
      </trkpt>
      <trkpt lat="58.37559" lon="24.49706">
        <ele>6.950646</ele>
        <time>2020-10-07T23:54:51.763Z</time>
      </trkpt>
      <trkpt lat="58.37557" lon="24.49699">
        <ele>6.924591</ele>
        <time>2020-10-07T23:54:52.558Z</time>
      </trkpt>
      <trkpt lat="58.37543" lon="24.49752">
        <ele>6.729546</ele>
        <time>2020-10-07T23:54:58.658Z</time>
      </trkpt>
      <trkpt lat="58.37541" lon="24.49759">
        <ele>6.701765</ele>
        <time>2020-10-07T23:54:59.525Z</time>
      </trkpt>
      <trkpt lat="58.37515" lon="24.49854">
        <ele>6.537796</ele>
        <time>2020-10-07T23:55:11.466Z</time>
      </trkpt>
      <trkpt lat="58.37509" lon="24.49848">
        <ele>6.518743</ele>
        <time>2020-10-07T23:55:13.365Z</time>
      </trkpt>
      <trkpt lat="58.37499" lon="24.49869">
        <ele>6.479966</ele>
        <time>2020-10-07T23:55:18.701Z</time>
      </trkpt>
      <trkpt lat="58.37499" lon="24.49869">
        <ele>6.479966</ele>
        <time>2020-10-07T23:55:18.726Z</time>
      </trkpt>
      <trkpt lat="58.37508" lon="24.49879">
        <ele>6.451252</ele>
        <time>2020-10-07T23:55:26.273Z</time>
      </trkpt>
      <trkpt lat="58.37495" lon="24.49928">
        <ele>6.37479</ele>
        <time>2020-10-07T23:55:32.557Z</time>
      </trkpt>
      <trkpt lat="58.37479" lon="24.49988">
        <ele>6.280836</ele>
        <time>2020-10-07T23:55:40.503Z</time>
      </trkpt>
      <trkpt lat="58.37436" lon="24.50147">
        <ele>5.803662</ele>
        <time>2020-10-07T23:56:00.433Z</time>
      </trkpt>
      <trkpt lat="58.37429" lon="24.50174">
        <ele>5.699731</ele>
        <time>2020-10-07T23:56:03.595Z</time>
      </trkpt>
      <trkpt lat="58.37387" lon="24.50331">
        <ele>5.113525</ele>
        <time>2020-10-07T23:56:21.948Z</time>
      </trkpt>
      <trkpt lat="58.37365" lon="24.50414">
        <ele>4.697094</ele>
        <time>2020-10-07T23:56:31.297Z</time>
      </trkpt>
      <trkpt lat="58.37357" lon="24.50442">
        <ele>4.545197</ele>
        <time>2020-10-07T23:56:34.479Z</time>
      </trkpt>
      <trkpt lat="58.37263" lon="24.50792">
        <ele>2.999281</ele>
        <time>2020-10-07T23:57:14.970Z</time>
      </trkpt>
      <trkpt lat="58.37262" lon="24.50808">
        <ele>2.956578</ele>
        <time>2020-10-07T23:57:16.843Z</time>
      </trkpt>
      <trkpt lat="58.3726" lon="24.50821">
        <ele>2.920541</ele>
        <time>2020-10-07T23:57:18.346Z</time>
      </trkpt>
      <trkpt lat="58.37259" lon="24.50834">
        <ele>2.885509</ele>
        <time>2020-10-07T23:57:19.759Z</time>
      </trkpt>
      <trkpt lat="58.37256" lon="24.50863">
        <ele>2.805452</ele>
        <time>2020-10-07T23:57:23.207Z</time>
      </trkpt>
      <trkpt lat="58.37253" lon="24.50902">
        <ele>2.701243</ele>
        <time>2020-10-07T23:57:27.555Z</time>
      </trkpt>
      <trkpt lat="58.3725" lon="24.50978">
        <ele>2.504827</ele>
        <time>2020-10-07T23:57:36.264Z</time>
      </trkpt>
      <trkpt lat="58.37252" lon="24.51022">
        <ele>2.503307</ele>
        <time>2020-10-07T23:57:41.408Z</time>
      </trkpt>
      <trkpt lat="58.37251" lon="24.51088">
        <ele>2.50101</ele>
        <time>2020-10-07T23:57:49.095Z</time>
      </trkpt>
      <trkpt lat="58.37253" lon="24.51146">
        <ele>2.499001</ele>
        <time>2020-10-07T23:57:55.928Z</time>
      </trkpt>
      <trkpt lat="58.37255" lon="24.51179">
        <ele>2.497858</ele>
        <time>2020-10-07T23:57:59.840Z</time>
      </trkpt>
      <trkpt lat="58.37259" lon="24.51206">
        <ele>2.496862</ele>
        <time>2020-10-07T23:58:03.357Z</time>
      </trkpt>
      <trkpt lat="58.37318" lon="24.51414">
        <ele>2.326802</ele>
        <time>2020-10-07T23:58:31.001Z</time>
      </trkpt>
      <trkpt lat="58.37305" lon="24.51448">
        <ele>2.271596</ele>
        <time>2020-10-07T23:58:35.580Z</time>
      </trkpt>
      <trkpt lat="58.373" lon="24.51464">
        <ele>2.247437</ele>
        <time>2020-10-07T23:58:37.764Z</time>
      </trkpt>
      <trkpt lat="58.37293" lon="24.51504">
        <ele>2.191539</ele>
        <time>2020-10-07T23:58:42.332Z</time>
      </trkpt>
      <trkpt lat="58.37291" lon="24.51525">
        <ele>2.164623</ele>
        <time>2020-10-07T23:58:44.735Z</time>
      </trkpt>
      <trkpt lat="58.37281" lon="24.51546">
        <ele>2.12517</ele>
        <time>2020-10-07T23:58:47.859Z</time>
      </trkpt>
      <trkpt lat="58.37221" lon="24.5165">
        <ele>1.912177</ele>
        <time>2020-10-07T23:59:04.596Z</time>
      </trkpt>
      <trkpt lat="58.37203" lon="24.51724">
        <ele>1.79488</ele>
        <time>2020-10-07T23:59:13.818Z</time>
      </trkpt>
      <trkpt lat="58.37196" lon="24.51778">
        <ele>1.715357</ele>
        <time>2020-10-07T23:59:19.865Z</time>
      </trkpt>
      <trkpt lat="58.37194" lon="24.51853">
        <ele>1.606626</ele>
        <time>2020-10-07T23:59:28.471Z</time>
      </trkpt>
      <trkpt lat="58.37179" lon="24.5196">
        <ele>1.658025</ele>
        <time>2020-10-07T23:59:41.399Z</time>
      </trkpt>
      <trkpt lat="58.37151" lon="24.52053">
        <ele>1.818733</ele>
        <time>2020-10-07T23:59:54.197Z</time>
      </trkpt>
      <trkpt lat="58.37081" lon="24.52199">
        <ele>2.190728</ele>
        <time>2020-10-08T00:00:19.402Z</time>
      </trkpt>
      <trkpt lat="58.3706" lon="24.52255">
        <ele>2.443591</ele>
        <time>2020-10-08T00:00:28.688Z</time>
      </trkpt>
      <trkpt lat="58.37041" lon="24.52333">
        <ele>2.75684</ele>
        <time>2020-10-08T00:00:40.338Z</time>
      </trkpt>
      <trkpt lat="58.37034" lon="24.52391">
        <ele>2.972186</ele>
        <time>2020-10-08T00:00:48.180Z</time>
      </trkpt>
      <trkpt lat="58.37032" lon="24.52459">
        <ele>3.223614</ele>
        <time>2020-10-08T00:00:57.261Z</time>
      </trkpt>
      <trkpt lat="58.3703" lon="24.52513">
        <ele>3.348787</ele>
        <time>2020-10-08T00:01:04.172Z</time>
      </trkpt>
      <trkpt lat="58.3703" lon="24.52516">
        <ele>3.352517</ele>
        <time>2020-10-08T00:01:04.655Z</time>
      </trkpt>
      <trkpt lat="58.37031" lon="24.52535">
        <ele>3.371185</ele>
        <time>2020-10-08T00:01:07.098Z</time>
      </trkpt>
      <trkpt lat="58.37033" lon="24.52552">
        <ele>3.388047</ele>
        <time>2020-10-08T00:01:09.248Z</time>
      </trkpt>
      <trkpt lat="58.37034" lon="24.52555">
        <ele>3.390911</ele>
        <time>2020-10-08T00:01:09.739Z</time>
      </trkpt>
      <trkpt lat="58.37037" lon="24.52571">
        <ele>3.408091</ele>
        <time>2020-10-08T00:01:11.826Z</time>
      </trkpt>
      <trkpt lat="58.37065" lon="24.52706">
        <ele>3.54946</ele>
        <time>2020-10-08T00:01:29.511Z</time>
      </trkpt>
      <trkpt lat="58.37068" lon="24.52751">
        <ele>3.593501</ele>
        <time>2020-10-08T00:01:34.949Z</time>
      </trkpt>
      <trkpt lat="58.3707" lon="24.52811">
        <ele>3.652855</ele>
        <time>2020-10-08T00:01:41.786Z</time>
      </trkpt>
      <trkpt lat="58.37068" lon="24.5288">
        <ele>3.520961</ele>
        <time>2020-10-08T00:01:49.275Z</time>
      </trkpt>
      <trkpt lat="58.37059" lon="24.52944">
        <ele>3.37822</ele>
        <time>2020-10-08T00:01:56.402Z</time>
      </trkpt>
      <trkpt lat="58.37045" lon="24.53004">
        <ele>3.236639</ele>
        <time>2020-10-08T00:02:03.475Z</time>
      </trkpt>
      <trkpt lat="58.37019" lon="24.5308">
        <ele>3.040646</ele>
        <time>2020-10-08T00:02:13.372Z</time>
      </trkpt>
      <trkpt lat="58.36979" lon="24.53162">
        <ele>2.857328</ele>
        <time>2020-10-08T00:02:25.688Z</time>
      </trkpt>
      <trkpt lat="58.36908" lon="24.53256">
        <ele>2.673816</ele>
        <time>2020-10-08T00:02:44.085Z</time>
      </trkpt>
      <trkpt lat="58.36884" lon="24.53296">
        <ele>2.605964</ele>
        <time>2020-10-08T00:02:51.003Z</time>
      </trkpt>
      <trkpt lat="58.36862" lon="24.53347">
        <ele>2.537701</ele>
        <time>2020-10-08T00:02:58.676Z</time>
      </trkpt>
      <trkpt lat="58.36842" lon="24.53331">
        <ele>2.560791</ele>
        <time>2020-10-08T00:03:03.600Z</time>
      </trkpt>
      <trkpt lat="58.36836" lon="24.53332">
        <ele>2.566864</ele>
        <time>2020-10-08T00:03:04.843Z</time>
      </trkpt>
      <trkpt lat="58.36826" lon="24.53348">
        <ele>2.580166</ele>
        <time>2020-10-08T00:03:07.736Z</time>
      </trkpt>
      <trkpt lat="58.36794" lon="24.53465">
        <ele>2.652851</ele>
        <time>2020-10-08T00:03:23.490Z</time>
      </trkpt>
      <trkpt lat="58.36727" lon="24.53639">
        <ele>2.805371</ele>
        <time>2020-10-08T00:03:49.591Z</time>
      </trkpt>
      <trkpt lat="58.36687" lon="24.53785">
        <ele>2.96281</ele>
        <time>2020-10-08T00:04:09.832Z</time>
      </trkpt>
      <trkpt lat="58.3665" lon="24.53863">
        <ele>3.052597</ele>
        <time>2020-10-08T00:04:22.400Z</time>
      </trkpt>
      <trkpt lat="58.36623" lon="24.53942">
        <ele>3.068517</ele>
        <time>2020-10-08T00:04:33.514Z</time>
      </trkpt>
      <trkpt lat="58.36595" lon="24.54068">
        <ele>3.091749</ele>
        <time>2020-10-08T00:04:49.514Z</time>
      </trkpt>
      <trkpt lat="58.36583" lon="24.54083">
        <ele>3.096363</ele>
        <time>2020-10-08T00:04:52.704Z</time>
      </trkpt>
      <trkpt lat="58.36572" lon="24.54091">
        <ele>3.100139</ele>
        <time>2020-10-08T00:04:55.245Z</time>
      </trkpt>
      <trkpt lat="58.36517" lon="24.54192">
        <ele>3.302315</ele>
        <time>2020-10-08T00:05:12.373Z</time>
      </trkpt>
      <trkpt lat="58.36476" lon="24.54252">
        <ele>3.500493</ele>
        <time>2020-10-08T00:05:24.243Z</time>
      </trkpt>
      <trkpt lat="58.36377" lon="24.54422">
        <ele>4.29629</ele>
        <time>2020-10-08T00:05:57.740Z</time>
      </trkpt>
      <trkpt lat="58.3631" lon="24.54564">
        <ele>5.20328</ele>
        <time>2020-10-08T00:06:24.596Z</time>
      </trkpt>
      <trkpt lat="58.36303" lon="24.54583">
        <ele>5.316809</ele>
        <time>2020-10-08T00:06:28.228Z</time>
      </trkpt>
      <trkpt lat="58.36291" lon="24.54608">
        <ele>5.451188</ele>
        <time>2020-10-08T00:06:32.623Z</time>
      </trkpt>
      <trkpt lat="58.36081" lon="24.54987">
        <ele>6.59369</ele>
        <time>2020-10-08T00:07:41.475Z</time>
      </trkpt>
      <trkpt lat="58.35985" lon="24.55196">
        <ele>6.727076</ele>
        <time>2020-10-08T00:08:13.932Z</time>
      </trkpt>
      <trkpt lat="58.3591" lon="24.55315">
        <ele>6.702549</ele>
        <time>2020-10-08T00:08:35.694Z</time>
      </trkpt>
      <trkpt lat="58.35868" lon="24.55386">
        <ele>6.727528</ele>
        <time>2020-10-08T00:08:47.990Z</time>
      </trkpt>
      <trkpt lat="58.35747" lon="24.55565">
        <ele>6.799152</ele>
        <time>2020-10-08T00:09:23.968Z</time>
      </trkpt>
      <trkpt lat="58.3574" lon="24.55576">
        <ele>6.803756</ele>
        <time>2020-10-08T00:09:26.205Z</time>
      </trkpt>
      <trkpt lat="58.35683" lon="24.55661">
        <ele>6.839283</ele>
        <time>2020-10-08T00:09:43.244Z</time>
      </trkpt>
      <trkpt lat="58.35614" lon="24.5576">
        <ele>6.833867</ele>
        <time>2020-10-08T00:10:03.514Z</time>
      </trkpt>
      <trkpt lat="58.35564" lon="24.55834">
        <ele>6.671855</ele>
        <time>2020-10-08T00:10:17.876Z</time>
      </trkpt>
      <trkpt lat="58.35513" lon="24.5591">
        <ele>6.505328</ele>
        <time>2020-10-08T00:10:32.082Z</time>
      </trkpt>
      <trkpt lat="58.35431" lon="24.5603">
        <ele>6.174827</ele>
        <time>2020-10-08T00:10:54.353Z</time>
      </trkpt>
      <trkpt lat="58.35361" lon="24.56133">
        <ele>5.86015</ele>
        <time>2020-10-08T00:11:13.669Z</time>
      </trkpt>
      <trkpt lat="58.35232" lon="24.56323">
        <ele>5.526731</ele>
        <time>2020-10-08T00:11:50.395Z</time>
      </trkpt>
      <trkpt lat="58.35103" lon="24.56511">
        <ele>5.402536</ele>
        <time>2020-10-08T00:12:27.547Z</time>
      </trkpt>
      <trkpt lat="58.34843" lon="24.56885">
        <ele>5.753798</ele>
        <time>2020-10-08T00:13:44.813Z</time>
      </trkpt>
      <trkpt lat="58.3471" lon="24.57076">
        <ele>6.094352</ele>
        <time>2020-10-08T00:14:25.250Z</time>
      </trkpt>
      <trkpt lat="58.34646" lon="24.57167">
        <ele>6.279005</ele>
        <time>2020-10-08T00:14:45.261Z</time>
      </trkpt>
      <trkpt lat="58.34616" lon="24.5721">
        <ele>6.365621</ele>
        <time>2020-10-08T00:14:53.650Z</time>
      </trkpt>
      <trkpt lat="58.34599" lon="24.57235">
        <ele>6.416998</ele>
        <time>2020-10-08T00:14:58.171Z</time>
      </trkpt>
      <trkpt lat="58.34601" lon="24.57258">
        <ele>6.446154</ele>
        <time>2020-10-08T00:15:00.929Z</time>
      </trkpt>
      <trkpt lat="58.34622" lon="24.57325">
        <ele>6.544038</ele>
        <time>2020-10-08T00:15:09.736Z</time>
      </trkpt>
      <trkpt lat="58.34671" lon="24.57472">
        <ele>6.763459</ele>
        <time>2020-10-08T00:15:30.803Z</time>
      </trkpt>
      <trkpt lat="58.34742" lon="24.57694">
        <ele>9.553129</ele>
        <time>2020-10-08T00:16:10.928Z</time>
      </trkpt>
      <trkpt lat="58.34746" lon="24.57705">
        <ele>9.704788</ele>
        <time>2020-10-08T00:16:13.452Z</time>
      </trkpt>
      <trkpt lat="58.34749" lon="24.57714">
        <ele>9.812032</ele>
        <time>2020-10-08T00:16:15.341Z</time>
      </trkpt>
      <trkpt lat="58.34783" lon="24.5781">
        <ele>11.290318</ele>
        <time>2020-10-08T00:16:37.732Z</time>
      </trkpt>
      <trkpt lat="58.34829" lon="24.57949">
        <ele>13.780962</ele>
        <time>2020-10-08T00:17:08.857Z</time>
      </trkpt>
      <trkpt lat="58.34871" lon="24.58082">
        <ele>15.829554</ele>
        <time>2020-10-08T00:17:34.486Z</time>
      </trkpt>
      <trkpt lat="58.34871" lon="24.58082">
        <ele>15.829554</ele>
        <time>2020-10-08T00:17:34.493Z</time>
      </trkpt>
      <trkpt lat="58.34929" lon="24.58267">
        <ele>17.024718</ele>
        <time>2020-10-08T00:18:04.044Z</time>
      </trkpt>
      <trkpt lat="58.34906" lon="24.58291">
        <ele>17.30497</ele>
        <time>2020-10-08T00:18:10.600Z</time>
      </trkpt>
      <trkpt lat="58.34781" lon="24.58416">
        <ele>18.400093</ele>
        <time>2020-10-08T00:18:45.653Z</time>
      </trkpt>
      <trkpt lat="58.34764" lon="24.58373">
        <ele>18.608254</ele>
        <time>2020-10-08T00:18:53.110Z</time>
      </trkpt>
      <trkpt lat="58.34762" lon="24.58368">
        <ele>18.631906</ele>
        <time>2020-10-08T00:18:54.076Z</time>
      </trkpt>
      <trkpt lat="58.34718" lon="24.58414">
        <ele>18.948835</ele>
        <time>2020-10-08T00:19:06.888Z</time>
      </trkpt>
      <trkpt lat="58.34435" lon="24.58628">
        <ele>20.166028</ele>
        <time>2020-10-08T00:20:19.524Z</time>
      </trkpt>
      <trkpt lat="58.3391" lon="24.59">
        <ele>20.401818</ele>
        <time>2020-10-08T00:22:24.697Z</time>
      </trkpt>
      <trkpt lat="58.3313" lon="24.5952">
        <ele>20.589117</ele>
        <time>2020-10-08T00:25:29.817Z</time>
      </trkpt>
      <trkpt lat="58.32906" lon="24.59633">
        <ele>20.235907</ele>
        <time>2020-10-08T00:26:21.301Z</time>
      </trkpt>
      <trkpt lat="58.32604" lon="24.59704">
        <ele>17.313823</ele>
        <time>2020-10-08T00:27:20.017Z</time>
      </trkpt>
      <trkpt lat="58.3232" lon="24.59758">
        <ele>13.841379</ele>
        <time>2020-10-08T00:28:12.795Z</time>
      </trkpt>
      <trkpt lat="58.32323" lon="24.5979">
        <ele>13.83607</ele>
        <time>2020-10-08T00:28:16.435Z</time>
      </trkpt>
      <trkpt lat="58.32095" lon="24.59856">
        <ele>13.737553</ele>
        <time>2020-10-08T00:29:10.513Z</time>
      </trkpt>
      <trkpt lat="58.32061" lon="24.59868">
        <ele>13.715831</ele>
        <time>2020-10-08T00:29:17.721Z</time>
      </trkpt>
      <trkpt lat="58.31921" lon="24.5994">
        <ele>13.700648</ele>
        <time>2020-10-08T00:29:48.308Z</time>
      </trkpt>
      <trkpt lat="58.31907" lon="24.59925">
        <ele>13.705803</ele>
        <time>2020-10-08T00:29:51.478Z</time>
      </trkpt>
      <trkpt lat="58.31528" lon="24.59766">
        <ele>15.663145</ele>
        <time>2020-10-08T00:31:25.904Z</time>
      </trkpt>
      <trkpt lat="58.31445" lon="24.59735">
        <ele>16.407458</ele>
        <time>2020-10-08T00:31:49.705Z</time>
      </trkpt>
      <trkpt lat="58.31437" lon="24.59732">
        <ele>16.489434</ele>
        <time>2020-10-08T00:31:52.152Z</time>
      </trkpt>
      <trkpt lat="58.30991" lon="24.59555">
        <ele>20.397961</ele>
        <time>2020-10-08T00:33:51.414Z</time>
      </trkpt>
      <trkpt lat="58.30875" lon="24.59509">
        <ele>19.528778</ele>
        <time>2020-10-08T00:34:14.792Z</time>
      </trkpt>
      <trkpt lat="58.30721" lon="24.59447">
        <ele>17.141013</ele>
        <time>2020-10-08T00:34:42.302Z</time>
      </trkpt>
      <trkpt lat="58.30602" lon="24.59363">
        <ele>15.124431</ele>
        <time>2020-10-08T00:35:05.470Z</time>
      </trkpt>
      <trkpt lat="58.30324" lon="24.59161">
        <ele>13.958162</ele>
        <time>2020-10-08T00:36:08.600Z</time>
      </trkpt>
      <trkpt lat="58.3022" lon="24.59087">
        <ele>13.897159</ele>
        <time>2020-10-08T00:36:32.345Z</time>
      </trkpt>
      <trkpt lat="58.30161" lon="24.59044">
        <ele>14.043005</ele>
        <time>2020-10-08T00:36:46.283Z</time>
      </trkpt>
      <trkpt lat="58.29988" lon="24.58919">
        <ele>14.951157</ele>
        <time>2020-10-08T00:37:32.951Z</time>
      </trkpt>
      <trkpt lat="58.29841" lon="24.58821">
        <ele>15.590902</ele>
        <time>2020-10-08T00:38:11.070Z</time>
      </trkpt>
      <trkpt lat="58.2981" lon="24.58823">
        <ele>15.664647</ele>
        <time>2020-10-08T00:38:18.135Z</time>
      </trkpt>
      <trkpt lat="58.29797" lon="24.58836">
        <ele>15.698635</ele>
        <time>2020-10-08T00:38:21.647Z</time>
      </trkpt>
      <trkpt lat="58.29789" lon="24.58787">
        <ele>15.76184</ele>
        <time>2020-10-08T00:38:27.568Z</time>
      </trkpt>
      <trkpt lat="58.29781" lon="24.58731">
        <ele>15.763942</ele>
        <time>2020-10-08T00:38:34.360Z</time>
      </trkpt>
      <trkpt lat="58.29766" lon="24.58665">
        <ele>15.637444</ele>
        <time>2020-10-08T00:38:42.743Z</time>
      </trkpt>
      <trkpt lat="58.29706" lon="24.58515">
        <ele>15.307493</ele>
        <time>2020-10-08T00:39:03.935Z</time>
      </trkpt>
      <trkpt lat="58.2956" lon="24.58308">
        <ele>15.304731</ele>
        <time>2020-10-08T00:39:45.458Z</time>
      </trkpt>
      <trkpt lat="58.29533" lon="24.58291">
        <ele>15.323122</ele>
        <time>2020-10-08T00:39:52.767Z</time>
      </trkpt>
      <trkpt lat="58.295" lon="24.58293">
        <ele>15.529031</ele>
        <time>2020-10-08T00:40:01.707Z</time>
      </trkpt>
      <trkpt lat="58.29406" lon="24.5823">
        <ele>16.153233</ele>
        <time>2020-10-08T00:40:28.097Z</time>
      </trkpt>
      <trkpt lat="58.29376" lon="24.5821">
        <ele>16.351997</ele>
        <time>2020-10-08T00:40:36.273Z</time>
      </trkpt>
      <trkpt lat="58.29308" lon="24.58142">
        <ele>16.315806</ele>
        <time>2020-10-08T00:40:54.797Z</time>
      </trkpt>
      <trkpt lat="58.29237" lon="24.58013">
        <ele>16.098507</ele>
        <time>2020-10-08T00:41:15.219Z</time>
      </trkpt>
      <trkpt lat="58.2916" lon="24.57917">
        <ele>16.442245</ele>
        <time>2020-10-08T00:41:36.971Z</time>
      </trkpt>
      <trkpt lat="58.29134" lon="24.57877">
        <ele>16.621139</ele>
        <time>2020-10-08T00:41:45.615Z</time>
      </trkpt>
      <trkpt lat="58.29121" lon="24.57836">
        <ele>16.75928</ele>
        <time>2020-10-08T00:41:52.527Z</time>
      </trkpt>
      <trkpt lat="58.29108" lon="24.57823">
        <ele>16.837902</ele>
        <time>2020-10-08T00:41:55.913Z</time>
      </trkpt>
      <trkpt lat="58.291" lon="24.57822">
        <ele>16.880688</ele>
        <time>2020-10-08T00:41:58.224Z</time>
      </trkpt>
      <trkpt lat="58.29067" lon="24.57819">
        <ele>17.075694</ele>
        <time>2020-10-08T00:42:06.925Z</time>
      </trkpt>
      <trkpt lat="58.29055" lon="24.57816">
        <ele>17.178918</ele>
        <time>2020-10-08T00:42:10.362Z</time>
      </trkpt>
      <trkpt lat="58.2902" lon="24.57785">
        <ele>17.501771</ele>
        <time>2020-10-08T00:42:20.344Z</time>
      </trkpt>
      <trkpt lat="58.29" lon="24.57773">
        <ele>17.678319</ele>
        <time>2020-10-08T00:42:25.857Z</time>
      </trkpt>
      <trkpt lat="58.2898" lon="24.57751">
        <ele>17.87192</ele>
        <time>2020-10-08T00:42:32.080Z</time>
      </trkpt>
      <trkpt lat="58.28933" lon="24.57729">
        <ele>18.281414</ele>
        <time>2020-10-08T00:42:45.058Z</time>
      </trkpt>
      <trkpt lat="58.28882" lon="24.57721">
        <ele>18.663544</ele>
        <time>2020-10-08T00:42:56.644Z</time>
      </trkpt>
      <trkpt lat="58.28862" lon="24.57719">
        <ele>18.785922</ele>
        <time>2020-10-08T00:43:01.254Z</time>
      </trkpt>
      <trkpt lat="58.28859" lon="24.57719">
        <ele>18.803395</ele>
        <time>2020-10-08T00:43:02.239Z</time>
      </trkpt>
      <trkpt lat="58.28795" lon="24.57717">
        <ele>19.203188</ele>
        <time>2020-10-08T00:43:18.204Z</time>
      </trkpt>
      <trkpt lat="58.28748" lon="24.57687">
        <ele>19.513481</ele>
        <time>2020-10-08T00:43:31.646Z</time>
      </trkpt>
      <trkpt lat="58.28709" lon="24.57674">
        <ele>19.653457</ele>
        <time>2020-10-08T00:43:42.697Z</time>
      </trkpt>
      <trkpt lat="58.28698" lon="24.57676">
        <ele>19.651722</ele>
        <time>2020-10-08T00:43:45.501Z</time>
      </trkpt>
      <trkpt lat="58.28609" lon="24.57606">
        <ele>19.636011</ele>
        <time>2020-10-08T00:44:08.174Z</time>
      </trkpt>
      <trkpt lat="58.28541" lon="24.57574">
        <ele>19.364486</ele>
        <time>2020-10-08T00:44:22.037Z</time>
      </trkpt>
      <trkpt lat="58.28354" lon="24.57521">
        <ele>16.211506</ele>
        <time>2020-10-08T00:44:54.919Z</time>
      </trkpt>
      <trkpt lat="58.28324" lon="24.5753">
        <ele>16.141807</ele>
        <time>2020-10-08T00:45:00.665Z</time>
      </trkpt>
      <trkpt lat="58.2831" lon="24.57541">
        <ele>16.108674</ele>
        <time>2020-10-08T00:45:03.490Z</time>
      </trkpt>
      <trkpt lat="58.2825" lon="24.57443">
        <ele>15.929692</ele>
        <time>2020-10-08T00:45:21.404Z</time>
      </trkpt>
      <trkpt lat="58.28247" lon="24.57437">
        <ele>15.919527</ele>
        <time>2020-10-08T00:45:22.573Z</time>
      </trkpt>
      <trkpt lat="58.28167" lon="24.57293">
        <ele>17.322974</ele>
        <time>2020-10-08T00:45:55.407Z</time>
      </trkpt>
      <trkpt lat="58.28089" lon="24.57158">
        <ele>19.082874</ele>
        <time>2020-10-08T00:46:27.579Z</time>
      </trkpt>
      <trkpt lat="58.28055" lon="24.571">
        <ele>19.393438</ele>
        <time>2020-10-08T00:46:39.849Z</time>
      </trkpt>
      <trkpt lat="58.28" lon="24.57004">
        <ele>19.909441</ele>
        <time>2020-10-08T00:46:58.284Z</time>
      </trkpt>
      <trkpt lat="58.2799" lon="24.56985">
        <ele>20.007551</ele>
        <time>2020-10-08T00:47:01.542Z</time>
      </trkpt>
      <trkpt lat="58.27926" lon="24.56874">
        <ele>20.12443</ele>
        <time>2020-10-08T00:47:20.173Z</time>
      </trkpt>
      <trkpt lat="58.27845" lon="24.56732">
        <ele>19.816824</ele>
        <time>2020-10-08T00:47:43.274Z</time>
      </trkpt>
      <trkpt lat="58.27676" lon="24.5644">
        <ele>19.313114</ele>
        <time>2020-10-08T00:48:32.061Z</time>
      </trkpt>
      <trkpt lat="58.27673" lon="24.56436">
        <ele>19.31047</ele>
        <time>2020-10-08T00:48:33.029Z</time>
      </trkpt>
      <trkpt lat="58.27634" lon="24.56374">
        <ele>19.270022</ele>
        <time>2020-10-08T00:48:44.348Z</time>
      </trkpt>
      <trkpt lat="58.27586" lon="24.56301">
        <ele>19.221749</ele>
        <time>2020-10-08T00:48:57.958Z</time>
      </trkpt>
      <trkpt lat="58.27515" lon="24.56196">
        <ele>18.955898</ele>
        <time>2020-10-08T00:49:17.405Z</time>
      </trkpt>
      <trkpt lat="58.27465" lon="24.56122">
        <ele>18.680247</ele>
        <time>2020-10-08T00:49:30.448Z</time>
      </trkpt>
      <trkpt lat="58.2741" lon="24.56041">
        <ele>18.357901</ele>
        <time>2020-10-08T00:49:44.639Z</time>
      </trkpt>
      <trkpt lat="58.27357" lon="24.55966">
        <ele>17.908874</ele>
        <time>2020-10-08T00:49:57.973Z</time>
      </trkpt>
      <trkpt lat="58.27342" lon="24.55946">
        <ele>17.786573</ele>
        <time>2020-10-08T00:50:01.592Z</time>
      </trkpt>
      <trkpt lat="58.27238" lon="24.55811">
        <ele>17.055837</ele>
        <time>2020-10-08T00:50:26.737Z</time>
      </trkpt>
      <trkpt lat="58.27139" lon="24.55696">
        <ele>16.638564</ele>
        <time>2020-10-08T00:50:51.050Z</time>
      </trkpt>
      <trkpt lat="58.27039" lon="24.55584">
        <ele>17.063921</ele>
        <time>2020-10-08T00:51:18.173Z</time>
      </trkpt>
      <trkpt lat="58.27026" lon="24.55569">
        <ele>17.149386</ele>
        <time>2020-10-08T00:51:22.050Z</time>
      </trkpt>
      <trkpt lat="58.26799" lon="24.55316">
        <ele>19.220417</ele>
        <time>2020-10-08T00:52:30.289Z</time>
      </trkpt>
      <trkpt lat="58.26639" lon="24.55155">
        <ele>20.362784</ele>
        <time>2020-10-08T00:53:15.042Z</time>
      </trkpt>
      <trkpt lat="58.2645" lon="24.54965">
        <ele>21.339334</ele>
        <time>2020-10-08T00:54:06.929Z</time>
      </trkpt>
      <trkpt lat="58.26358" lon="24.54858">
        <ele>21.721603</ele>
        <time>2020-10-08T00:54:32.182Z</time>
      </trkpt>
      <trkpt lat="58.26213" lon="24.54655">
        <ele>22.389864</ele>
        <time>2020-10-08T00:55:14.970Z</time>
      </trkpt>
      <trkpt lat="58.26064" lon="24.54406">
        <ele>22.889085</ele>
        <time>2020-10-08T00:56:01.982Z</time>
      </trkpt>
      <trkpt lat="58.25904" lon="24.54123">
        <ele>22.231044</ele>
        <time>2020-10-08T00:56:47.190Z</time>
      </trkpt>
      <trkpt lat="58.25806" lon="24.53927">
        <ele>22.025505</ele>
        <time>2020-10-08T00:57:18.461Z</time>
      </trkpt>
      <trkpt lat="58.25703" lon="24.53702">
        <ele>21.567034</ele>
        <time>2020-10-08T00:57:53.417Z</time>
      </trkpt>
      <trkpt lat="58.25535" lon="24.53276">
        <ele>17.990576</ele>
        <time>2020-10-08T00:58:46.118Z</time>
      </trkpt>
      <trkpt lat="58.25531" lon="24.53266">
        <ele>17.869102</ele>
        <time>2020-10-08T00:58:47.196Z</time>
      </trkpt>
      <trkpt lat="58.25478" lon="24.53129">
        <ele>16.203667</ele>
        <time>2020-10-08T00:59:02.685Z</time>
      </trkpt>
      <trkpt lat="58.25344" lon="24.52807">
        <ele>12.747336</ele>
        <time>2020-10-08T00:59:41.445Z</time>
      </trkpt>
      <trkpt lat="58.25332" lon="24.52782">
        <ele>12.644846</ele>
        <time>2020-10-08T00:59:45.184Z</time>
      </trkpt>
      <trkpt lat="58.25297" lon="24.52709">
        <ele>12.343012</ele>
        <time>2020-10-08T00:59:56.600Z</time>
      </trkpt>
      <trkpt lat="58.2525" lon="24.52618">
        <ele>11.953961</ele>
        <time>2020-10-08T01:00:10.510Z</time>
      </trkpt>
      <trkpt lat="58.25216" lon="24.52559">
        <ele>11.811902</ele>
        <time>2020-10-08T01:00:20.309Z</time>
      </trkpt>
      <trkpt lat="58.25184" lon="24.52502">
        <ele>11.779294</ele>
        <time>2020-10-08T01:00:30.029Z</time>
      </trkpt>
      <trkpt lat="58.2513" lon="24.52409">
        <ele>11.725915</ele>
        <time>2020-10-08T01:00:46.430Z</time>
      </trkpt>
      <trkpt lat="58.25111" lon="24.52376">
        <ele>11.706724</ele>
        <time>2020-10-08T01:00:52.333Z</time>
      </trkpt>
      <trkpt lat="58.25048" lon="24.52268">
        <ele>11.663994</ele>
        <time>2020-10-08T01:01:10.166Z</time>
      </trkpt>
      <trkpt lat="58.25042" lon="24.52257">
        <ele>11.659836</ele>
        <time>2020-10-08T01:01:12.341Z</time>
      </trkpt>
      <trkpt lat="58.2501" lon="24.52201">
        <ele>11.639491</ele>
        <time>2020-10-08T01:01:22.456Z</time>
      </trkpt>
      <trkpt lat="58.24959" lon="24.52115">
        <ele>11.58455</ele>
        <time>2020-10-08T01:01:37.631Z</time>
      </trkpt>
      <trkpt lat="58.24911" lon="24.52034">
        <ele>11.424273</ele>
        <time>2020-10-08T01:01:51.000Z</time>
      </trkpt>
      <trkpt lat="58.24894" lon="24.52006">
        <ele>11.367952</ele>
        <time>2020-10-08T01:01:55.654Z</time>
      </trkpt>
      <trkpt lat="58.24851" lon="24.51941">
        <ele>11.23216</ele>
        <time>2020-10-08T01:02:07.124Z</time>
      </trkpt>
      <trkpt lat="58.24829" lon="24.51909">
        <ele>11.168717</ele>
        <time>2020-10-08T01:02:13.515Z</time>
      </trkpt>
      <trkpt lat="58.24757" lon="24.51812">
        <ele>11.352535</ele>
        <time>2020-10-08T01:02:33.367Z</time>
      </trkpt>
      <trkpt lat="58.24752" lon="24.51807">
        <ele>11.362879</ele>
        <time>2020-10-08T01:02:34.602Z</time>
      </trkpt>
      <trkpt lat="58.24723" lon="24.51773">
        <ele>11.434944</ele>
        <time>2020-10-08T01:02:42.569Z</time>
      </trkpt>
      <trkpt lat="58.24714" lon="24.51763">
        <ele>11.455943</ele>
        <time>2020-10-08T01:02:45.077Z</time>
      </trkpt>
      <trkpt lat="58.24684" lon="24.5173">
        <ele>11.528711</ele>
        <time>2020-10-08T01:02:53.425Z</time>
      </trkpt>
      <trkpt lat="58.24628" lon="24.51674">
        <ele>11.814592</ele>
        <time>2020-10-08T01:03:08.929Z</time>
      </trkpt>
      <trkpt lat="58.24615" lon="24.51662">
        <ele>11.881688</ele>
        <time>2020-10-08T01:03:12.466Z</time>
      </trkpt>
      <trkpt lat="58.2458" lon="24.51628">
        <ele>12.068566</ele>
        <time>2020-10-08T01:03:22.281Z</time>
      </trkpt>
      <trkpt lat="58.24518" lon="24.51571">
        <ele>12.392059</ele>
        <time>2020-10-08T01:03:38.479Z</time>
      </trkpt>
      <trkpt lat="58.24463" lon="24.51521">
        <ele>12.432337</ele>
        <time>2020-10-08T01:03:52.945Z</time>
      </trkpt>
      <trkpt lat="58.24316" lon="24.51386">
        <ele>12.380248</ele>
        <time>2020-10-08T01:04:29.126Z</time>
      </trkpt>
      <trkpt lat="58.23957" lon="24.51061">
        <ele>10.890563</ele>
        <time>2020-10-08T01:05:52.308Z</time>
      </trkpt>
      <trkpt lat="58.23859" lon="24.50972">
        <ele>10.34337</ele>
        <time>2020-10-08T01:06:14.187Z</time>
      </trkpt>
      <trkpt lat="58.23679" lon="24.50808">
        <ele>9.523805</ele>
        <time>2020-10-08T01:06:55.313Z</time>
      </trkpt>
      <trkpt lat="58.23635" lon="24.50768">
        <ele>9.524181</ele>
        <time>2020-10-08T01:07:06.435Z</time>
      </trkpt>
      <trkpt lat="58.23629" lon="24.50762">
        <ele>9.524238</ele>
        <time>2020-10-08T01:07:08.062Z</time>
      </trkpt>
      <trkpt lat="58.23576" lon="24.50714">
        <ele>9.524687</ele>
        <time>2020-10-08T01:07:21.788Z</time>
      </trkpt>
      <trkpt lat="58.23284" lon="24.50447">
        <ele>9.950972</ele>
        <time>2020-10-08T01:08:35.120Z</time>
      </trkpt>
      <trkpt lat="58.23177" lon="24.50349">
        <ele>10.470259</ele>
        <time>2020-10-08T01:09:03.414Z</time>
      </trkpt>
      <trkpt lat="58.23109" lon="24.5027">
        <ele>11.047942</ele>
        <time>2020-10-08T01:09:23.705Z</time>
      </trkpt>
      <trkpt lat="58.23073" lon="24.50229">
        <ele>11.348737</ele>
        <time>2020-10-08T01:09:34.555Z</time>
      </trkpt>
      <trkpt lat="58.23005" lon="24.50125">
        <ele>11.934504</ele>
        <time>2020-10-08T01:09:57.536Z</time>
      </trkpt>
      <trkpt lat="58.22967" lon="24.50059">
        <ele>12.276069</ele>
        <time>2020-10-08T01:10:10.828Z</time>
      </trkpt>
      <trkpt lat="58.22946" lon="24.50022">
        <ele>12.464918</ele>
        <time>2020-10-08T01:10:17.583Z</time>
      </trkpt>
      <trkpt lat="58.22638" lon="24.49459">
        <ele>12.502791</ele>
        <time>2020-10-08T01:11:51.787Z</time>
      </trkpt>
      <trkpt lat="58.22517" lon="24.4928">
        <ele>12.701533</ele>
        <time>2020-10-08T01:12:27.009Z</time>
      </trkpt>
      <trkpt lat="58.22365" lon="24.49132">
        <ele>12.963107</ele>
        <time>2020-10-08T01:13:06.757Z</time>
      </trkpt>
      <trkpt lat="58.22204" lon="24.49038">
        <ele>12.654492</ele>
        <time>2020-10-08T01:13:42.654Z</time>
      </trkpt>
      <trkpt lat="58.2219" lon="24.4903">
        <ele>12.655135</ele>
        <time>2020-10-08T01:13:45.656Z</time>
      </trkpt>
      <trkpt lat="58.22065" lon="24.48961">
        <ele>12.674958</ele>
        <time>2020-10-08T01:14:14.347Z</time>
      </trkpt>
      <trkpt lat="58.22057" lon="24.48957">
        <ele>12.676249</ele>
        <time>2020-10-08T01:14:16.303Z</time>
      </trkpt>
      <trkpt lat="58.22023" lon="24.48938">
        <ele>12.69971</ele>
        <time>2020-10-08T01:14:24.880Z</time>
      </trkpt>
      <trkpt lat="58.21937" lon="24.4889">
        <ele>12.923213</ele>
        <time>2020-10-08T01:14:46.133Z</time>
      </trkpt>
      <trkpt lat="58.21892" lon="24.48864">
        <ele>13.041945</ele>
        <time>2020-10-08T01:14:57.479Z</time>
      </trkpt>
      <trkpt lat="58.21854" lon="24.48839">
        <ele>13.123707</ele>
        <time>2020-10-08T01:15:06.400Z</time>
      </trkpt>
      <trkpt lat="58.21744" lon="24.48776">
        <ele>12.965118</ele>
        <time>2020-10-08T01:15:31.188Z</time>
      </trkpt>
      <trkpt lat="58.21666" lon="24.48731">
        <ele>12.913783</ele>
        <time>2020-10-08T01:15:48.472Z</time>
      </trkpt>
      <trkpt lat="58.21593" lon="24.48698">
        <ele>13.025986</ele>
        <time>2020-10-08T01:16:05.312Z</time>
      </trkpt>
      <trkpt lat="58.21562" lon="24.48685">
        <ele>13.073616</ele>
        <time>2020-10-08T01:16:12.753Z</time>
      </trkpt>
      <trkpt lat="58.21479" lon="24.48654">
        <ele>13.280804</ele>
        <time>2020-10-08T01:16:33.202Z</time>
      </trkpt>
      <trkpt lat="58.21373" lon="24.48625">
        <ele>13.704222</ele>
        <time>2020-10-08T01:16:59.101Z</time>
      </trkpt>
      <trkpt lat="58.21225" lon="24.48587">
        <ele>13.860042</ele>
        <time>2020-10-08T01:17:33.406Z</time>
      </trkpt>
      <trkpt lat="58.21102" lon="24.48558">
        <ele>13.601186</ele>
        <time>2020-10-08T01:17:59.782Z</time>
      </trkpt>
      <trkpt lat="58.21012" lon="24.48538">
        <ele>13.171258</ele>
        <time>2020-10-08T01:18:18.018Z</time>
      </trkpt>
      <trkpt lat="58.20956" lon="24.48532">
        <ele>13.041544</ele>
        <time>2020-10-08T01:18:29.440Z</time>
      </trkpt>
      <trkpt lat="58.20922" lon="24.4853">
        <ele>13.116459</ele>
        <time>2020-10-08T01:18:36.699Z</time>
      </trkpt>
      <trkpt lat="58.2086" lon="24.48531">
        <ele>13.249692</ele>
        <time>2020-10-08T01:18:50.530Z</time>
      </trkpt>
      <trkpt lat="58.20809" lon="24.48533">
        <ele>13.361459</ele>
        <time>2020-10-08T01:19:03.031Z</time>
      </trkpt>
      <trkpt lat="58.20638" lon="24.4854">
        <ele>15.987093</ele>
        <time>2020-10-08T01:19:52.421Z</time>
      </trkpt>
      <trkpt lat="58.20594" lon="24.48542">
        <ele>16.733173</ele>
        <time>2020-10-08T01:20:06.351Z</time>
      </trkpt>
      <trkpt lat="58.2047" lon="24.48549">
        <ele>18.888302</ele>
        <time>2020-10-08T01:20:43.584Z</time>
      </trkpt>
      <trkpt lat="58.20431" lon="24.48551">
        <ele>19.504347</ele>
        <time>2020-10-08T01:20:54.633Z</time>
      </trkpt>
      <trkpt lat="58.20193" lon="24.48563">
        <ele>20.13349</ele>
        <time>2020-10-08T01:21:50.845Z</time>
      </trkpt>
      <trkpt lat="58.20106" lon="24.48571">
        <ele>19.819802</ele>
        <time>2020-10-08T01:22:08.167Z</time>
      </trkpt>
      <trkpt lat="58.20058" lon="24.48581">
        <ele>19.576846</ele>
        <time>2020-10-08T01:22:17.606Z</time>
      </trkpt>
      <trkpt lat="58.19859" lon="24.48677">
        <ele>18.449571</ele>
        <time>2020-10-08T01:22:58.841Z</time>
      </trkpt>
      <trkpt lat="58.19767" lon="24.48723">
        <ele>18.445869</ele>
        <time>2020-10-08T01:23:20.373Z</time>
      </trkpt>
      <trkpt lat="58.19588" lon="24.48815">
        <ele>19.018232</ele>
        <time>2020-10-08T01:24:05.704Z</time>
      </trkpt>
      <trkpt lat="58.19458" lon="24.48881">
        <ele>18.990458</ele>
        <time>2020-10-08T01:24:35.653Z</time>
      </trkpt>
      <trkpt lat="58.19324" lon="24.48949">
        <ele>18.836039</ele>
        <time>2020-10-08T01:25:04.541Z</time>
      </trkpt>
      <trkpt lat="58.19227" lon="24.48998">
        <ele>18.791794</ele>
        <time>2020-10-08T01:25:26.152Z</time>
      </trkpt>
      <trkpt lat="58.19024" lon="24.49089">
        <ele>20.674876</ele>
        <time>2020-10-08T01:26:21.549Z</time>
      </trkpt>
      <trkpt lat="58.18886" lon="24.49131">
        <ele>22.225959</ele>
        <time>2020-10-08T01:27:00.379Z</time>
      </trkpt>
      <trkpt lat="58.18519" lon="24.49219">
        <ele>23.532766</ele>
        <time>2020-10-08T01:28:26.645Z</time>
      </trkpt>
      <trkpt lat="58.18504" lon="24.49221">
        <ele>23.567326</ele>
        <time>2020-10-08T01:28:30.082Z</time>
      </trkpt>
      <trkpt lat="58.18448" lon="24.49229">
        <ele>23.724126</ele>
        <time>2020-10-08T01:28:42.809Z</time>
      </trkpt>
      <trkpt lat="58.18161" lon="24.49269">
        <ele>24.527233</ele>
        <time>2020-10-08T01:29:51.355Z</time>
      </trkpt>
      <trkpt lat="58.18086" lon="24.4928">
        <ele>24.369923</ele>
        <time>2020-10-08T01:30:07.471Z</time>
      </trkpt>
      <trkpt lat="58.17967" lon="24.49298">
        <ele>23.879626</ele>
        <time>2020-10-08T01:30:31.715Z</time>
      </trkpt>
      <trkpt lat="58.17497" lon="24.49396">
        <ele>20.951371</ele>
        <time>2020-10-08T01:32:07.819Z</time>
      </trkpt>
      <trkpt lat="58.17347" lon="24.49449">
        <ele>19.978067</ele>
        <time>2020-10-08T01:32:38.149Z</time>
      </trkpt>
      <trkpt lat="58.17328" lon="24.49455">
        <ele>19.858681</ele>
        <time>2020-10-08T01:32:42.016Z</time>
      </trkpt>
      <trkpt lat="58.17097" lon="24.49529">
        <ele>18.751787</ele>
        <time>2020-10-08T01:33:30.361Z</time>
      </trkpt>
      <trkpt lat="58.1684" lon="24.49582">
        <ele>18.273983</ele>
        <time>2020-10-08T01:34:25.687Z</time>
      </trkpt>
      <trkpt lat="58.16467" lon="24.49723">
        <ele>19.752778</ele>
        <time>2020-10-08T01:35:57.022Z</time>
      </trkpt>
      <trkpt lat="58.16457" lon="24.49725">
        <ele>19.813939</ele>
        <time>2020-10-08T01:35:59.511Z</time>
      </trkpt>
      <trkpt lat="58.1634" lon="24.49754">
        <ele>20.561638</ele>
        <time>2020-10-08T01:36:29.576Z</time>
      </trkpt>
      <trkpt lat="58.16041" lon="24.49809">
        <ele>22.12539</ele>
        <time>2020-10-08T01:37:44.006Z</time>
      </trkpt>
      <trkpt lat="58.15719" lon="24.49858">
        <ele>21.064574</ele>
        <time>2020-10-08T01:38:51.375Z</time>
      </trkpt>
      <trkpt lat="58.1538" lon="24.49857">
        <ele>19.154558</ele>
        <time>2020-10-08T01:39:59.040Z</time>
      </trkpt>
      <trkpt lat="58.15306" lon="24.4988">
        <ele>18.942285</ele>
        <time>2020-10-08T01:40:15.586Z</time>
      </trkpt>
      <trkpt lat="58.15299" lon="24.49883">
        <ele>18.921406</ele>
        <time>2020-10-08T01:40:17.275Z</time>
      </trkpt>
      <trkpt lat="58.15098" lon="24.49946">
        <ele>19.686527</ele>
        <time>2020-10-08T01:41:06.756Z</time>
      </trkpt>
      <trkpt lat="58.14905" lon="24.50047">
        <ele>20.065249</ele>
        <time>2020-10-08T01:41:52.387Z</time>
      </trkpt>
      <trkpt lat="58.14777" lon="24.50159">
        <ele>20.460483</ele>
        <time>2020-10-08T01:42:24.967Z</time>
      </trkpt>
      <trkpt lat="58.14694" lon="24.50256">
        <ele>21.059165</ele>
        <time>2020-10-08T01:42:49.658Z</time>
      </trkpt>
      <trkpt lat="58.14646" lon="24.50313">
        <ele>21.426509</ele>
        <time>2020-10-08T01:43:04.149Z</time>
      </trkpt>
      <trkpt lat="58.1449" lon="24.50492">
        <ele>22.320676</ele>
        <time>2020-10-08T01:43:48.360Z</time>
      </trkpt>
      <trkpt lat="58.1446" lon="24.50521">
        <ele>22.471846</ele>
        <time>2020-10-08T01:43:56.110Z</time>
      </trkpt>
      <trkpt lat="58.14385" lon="24.50583">
        <ele>22.785237</ele>
        <time>2020-10-08T01:44:15.414Z</time>
      </trkpt>
      <trkpt lat="58.14291" lon="24.5063">
        <ele>23.156759</ele>
        <time>2020-10-08T01:44:38.886Z</time>
      </trkpt>
      <trkpt lat="58.14044" lon="24.50671">
        <ele>23.853084</ele>
        <time>2020-10-08T01:45:37.471Z</time>
      </trkpt>
      <trkpt lat="58.13957" lon="24.50713">
        <ele>23.955642</ele>
        <time>2020-10-08T01:45:57.555Z</time>
      </trkpt>
      <trkpt lat="58.13913" lon="24.50742">
        <ele>23.902483</ele>
        <time>2020-10-08T01:46:07.683Z</time>
      </trkpt>
      <trkpt lat="58.13858" lon="24.50791">
        <ele>23.70836</ele>
        <time>2020-10-08T01:46:20.950Z</time>
      </trkpt>
      <trkpt lat="58.13487" lon="24.5113">
        <ele>21.407951</ele>
        <time>2020-10-08T01:47:46.993Z</time>
      </trkpt>
      <trkpt lat="58.13481" lon="24.51135">
        <ele>21.337846</ele>
        <time>2020-10-08T01:47:48.134Z</time>
      </trkpt>
      <trkpt lat="58.13463" lon="24.51152">
        <ele>21.133157</ele>
        <time>2020-10-08T01:47:51.505Z</time>
      </trkpt>
      <trkpt lat="58.13436" lon="24.51175">
        <ele>20.552005</ele>
        <time>2020-10-08T01:47:56.552Z</time>
      </trkpt>
      <trkpt lat="58.13405" lon="24.51199">
        <ele>19.563336</ele>
        <time>2020-10-08T01:48:02.072Z</time>
      </trkpt>
      <trkpt lat="58.13381" lon="24.51215">
        <ele>18.818946</ele>
        <time>2020-10-08T01:48:06.164Z</time>
      </trkpt>
      <trkpt lat="58.13375" lon="24.51219">
        <ele>18.605837</ele>
        <time>2020-10-08T01:48:07.337Z</time>
      </trkpt>
      <trkpt lat="58.1334" lon="24.51243">
        <ele>17.525494</ele>
        <time>2020-10-08T01:48:13.242Z</time>
      </trkpt>
      <trkpt lat="58.13224" lon="24.51288">
        <ele>14.879172</ele>
        <time>2020-10-08T01:48:32.746Z</time>
      </trkpt>
      <trkpt lat="58.1313" lon="24.51299">
        <ele>13.57709</ele>
        <time>2020-10-08T01:48:50.608Z</time>
      </trkpt>
      <trkpt lat="58.13024" lon="24.5129">
        <ele>13.670129</ele>
        <time>2020-10-08T01:49:16.701Z</time>
      </trkpt>
      <trkpt lat="58.13008" lon="24.51127">
        <ele>14.276882</ele>
        <time>2020-10-08T01:49:39.941Z</time>
      </trkpt>
      <trkpt lat="58.12985" lon="24.51072">
        <ele>14.435156</ele>
        <time>2020-10-08T01:49:49.725Z</time>
      </trkpt>
      <trkpt lat="58.12855" lon="24.50924">
        <ele>14.71754</ele>
        <time>2020-10-08T01:50:24.060Z</time>
      </trkpt>
      <trkpt lat="58.12801" lon="24.50887">
        <ele>14.626769</ele>
        <time>2020-10-08T01:50:35.839Z</time>
      </trkpt>
      <trkpt lat="58.12768" lon="24.50875">
        <ele>14.552287</ele>
        <time>2020-10-08T01:50:43.033Z</time>
      </trkpt>
      <trkpt lat="58.12751" lon="24.50873">
        <ele>14.517325</ele>
        <time>2020-10-08T01:50:46.531Z</time>
      </trkpt>
      <trkpt lat="58.12723" lon="24.5087">
        <ele>14.456033</ele>
        <time>2020-10-08T01:50:52.512Z</time>
      </trkpt>
      <trkpt lat="58.12703" lon="24.50867">
        <ele>14.411207</ele>
        <time>2020-10-08T01:50:56.916Z</time>
      </trkpt>
      <trkpt lat="58.12687" lon="24.50866">
        <ele>14.377974</ele>
        <time>2020-10-08T01:51:00.248Z</time>
      </trkpt>
      <trkpt lat="58.12264" lon="24.50829">
        <ele>14.634122</ele>
        <time>2020-10-08T01:52:36.714Z</time>
      </trkpt>
      <trkpt lat="58.12178" lon="24.50824">
        <ele>14.615993</ele>
        <time>2020-10-08T01:52:55.347Z</time>
      </trkpt>
      <trkpt lat="58.12152" lon="24.50822">
        <ele>14.610429</ele>
        <time>2020-10-08T01:53:00.997Z</time>
      </trkpt>
      <trkpt lat="58.12033" lon="24.50792">
        <ele>14.903395</ele>
        <time>2020-10-08T01:53:27.760Z</time>
      </trkpt>
      <trkpt lat="58.11976" lon="24.50788">
        <ele>15.07251</ele>
        <time>2020-10-08T01:53:41.738Z</time>
      </trkpt>
      <trkpt lat="58.11964" lon="24.50791">
        <ele>15.108471</ele>
        <time>2020-10-08T01:53:44.730Z</time>
      </trkpt>
      <trkpt lat="58.11928" lon="24.508">
        <ele>15.325661</ele>
        <time>2020-10-08T01:53:54.082Z</time>
      </trkpt>
      <trkpt lat="58.11837" lon="24.50856">
        <ele>16.005191</ele>
        <time>2020-10-08T01:54:18.699Z</time>
      </trkpt>
      <trkpt lat="58.11798" lon="24.50871">
        <ele>16.296378</ele>
        <time>2020-10-08T01:54:29.139Z</time>
      </trkpt>
      <trkpt lat="58.11764" lon="24.50872">
        <ele>16.38385</ele>
        <time>2020-10-08T01:54:37.337Z</time>
      </trkpt>
      <trkpt lat="58.11597" lon="24.50809">
        <ele>15.880108</ele>
        <time>2020-10-08T01:55:12.967Z</time>
      </trkpt>
      <trkpt lat="58.11547" lon="24.50779">
        <ele>15.563178</ele>
        <time>2020-10-08T01:55:22.952Z</time>
      </trkpt>
      <trkpt lat="58.1149" lon="24.50724">
        <ele>15.172564</ele>
        <time>2020-10-08T01:55:35.496Z</time>
      </trkpt>
      <trkpt lat="58.11437" lon="24.50691">
        <ele>14.832012</ele>
        <time>2020-10-08T01:55:47.061Z</time>
      </trkpt>
      <trkpt lat="58.11382" lon="24.50678">
        <ele>15.051274</ele>
        <time>2020-10-08T01:55:59.599Z</time>
      </trkpt>
      <trkpt lat="58.11274" lon="24.5068">
        <ele>15.525133</ele>
        <time>2020-10-08T01:56:26.508Z</time>
      </trkpt>
      <trkpt lat="58.10947" lon="24.50745">
        <ele>18.296898</ele>
        <time>2020-10-08T01:57:51.876Z</time>
      </trkpt>
      <trkpt lat="58.10876" lon="24.50751">
        <ele>18.772242</ele>
        <time>2020-10-08T01:58:09.306Z</time>
      </trkpt>
      <trkpt lat="58.1081" lon="24.50743">
        <ele>18.978341</ele>
        <time>2020-10-08T01:58:25.298Z</time>
      </trkpt>
      <trkpt lat="58.10732" lon="24.50718">
        <ele>19.226946</ele>
        <time>2020-10-08T01:58:43.972Z</time>
      </trkpt>
      <trkpt lat="58.10613" lon="24.50635">
        <ele>18.733694</ele>
        <time>2020-10-08T01:59:10.870Z</time>
      </trkpt>
      <trkpt lat="58.10523" lon="24.50577">
        <ele>18.275078</ele>
        <time>2020-10-08T01:59:29.387Z</time>
      </trkpt>
      <trkpt lat="58.10437" lon="24.5056">
        <ele>17.822525</ele>
        <time>2020-10-08T01:59:46.256Z</time>
      </trkpt>
      <trkpt lat="58.1003" lon="24.50522">
        <ele>18.068629</ele>
        <time>2020-10-08T02:01:18.623Z</time>
      </trkpt>
      <trkpt lat="58.0976" lon="24.50508">
        <ele>20.054028</ele>
        <time>2020-10-08T02:02:30.038Z</time>
      </trkpt>
      <trkpt lat="58.09565" lon="24.50513">
        <ele>19.847147</ele>
        <time>2020-10-08T02:03:11.999Z</time>
      </trkpt>
      <trkpt lat="58.09483" lon="24.5053">
        <ele>19.346907</ele>
        <time>2020-10-08T02:03:28.043Z</time>
      </trkpt>
      <trkpt lat="58.09341" lon="24.5057">
        <ele>18.004115</ele>
        <time>2020-10-08T02:03:55.489Z</time>
      </trkpt>
      <trkpt lat="58.0923" lon="24.50585">
        <ele>17.574687</ele>
        <time>2020-10-08T02:04:17.873Z</time>
      </trkpt>
      <trkpt lat="58.09073" lon="24.50599">
        <ele>17.696945</ele>
        <time>2020-10-08T02:04:55.727Z</time>
      </trkpt>
      <trkpt lat="58.09042" lon="24.50602">
        <ele>17.776316</ele>
        <time>2020-10-08T02:05:03.608Z</time>
      </trkpt>
      <trkpt lat="58.08994" lon="24.50595">
        <ele>17.90085</ele>
        <time>2020-10-08T02:05:15.071Z</time>
      </trkpt>
      <trkpt lat="58.0892" lon="24.5057">
        <ele>17.780031</ele>
        <time>2020-10-08T02:05:31.717Z</time>
      </trkpt>
      <trkpt lat="58.08873" lon="24.5055">
        <ele>17.081892</ele>
        <time>2020-10-08T02:05:41.106Z</time>
      </trkpt>
      <trkpt lat="58.08745" lon="24.50473">
        <ele>15.027621</ele>
        <time>2020-10-08T02:06:04.762Z</time>
      </trkpt>
      <trkpt lat="58.08636" lon="24.50396">
        <ele>12.808944</ele>
        <time>2020-10-08T02:06:24.963Z</time>
      </trkpt>
      <trkpt lat="58.08586" lon="24.50362">
        <ele>11.928431</ele>
        <time>2020-10-08T02:06:34.728Z</time>
      </trkpt>
      <trkpt lat="58.08557" lon="24.50342">
        <ele>11.736425</ele>
        <time>2020-10-08T02:06:40.764Z</time>
      </trkpt>
      <trkpt lat="58.08549" lon="24.50337">
        <ele>11.690275</ele>
        <time>2020-10-08T02:06:42.235Z</time>
      </trkpt>
      <trkpt lat="58.08516" lon="24.50313">
        <ele>11.470664</ele>
        <time>2020-10-08T02:06:49.387Z</time>
      </trkpt>
      <trkpt lat="58.08489" lon="24.50293">
        <ele>11.297311</ele>
        <time>2020-10-08T02:06:55.245Z</time>
      </trkpt>
      <trkpt lat="58.08473" lon="24.50282">
        <ele>11.193755</ele>
        <time>2020-10-08T02:06:58.875Z</time>
      </trkpt>
      <trkpt lat="58.08437" lon="24.50255">
        <ele>10.955383</ele>
        <time>2020-10-08T02:07:07.480Z</time>
      </trkpt>
      <trkpt lat="58.08394" lon="24.50224">
        <ele>10.957759</ele>
        <time>2020-10-08T02:07:18.188Z</time>
      </trkpt>
      <trkpt lat="58.08344" lon="24.50188">
        <ele>11.048688</ele>
        <time>2020-10-08T02:07:30.803Z</time>
      </trkpt>
      <trkpt lat="58.0824" lon="24.50111">
        <ele>11.238692</ele>
        <time>2020-10-08T02:07:56.304Z</time>
      </trkpt>
      <trkpt lat="58.08207" lon="24.50088">
        <ele>11.297265</ele>
        <time>2020-10-08T02:08:04.308Z</time>
      </trkpt>
      <trkpt lat="58.08085" lon="24.49985">
        <ele>11.527633</ele>
        <time>2020-10-08T02:08:34.878Z</time>
      </trkpt>
      <trkpt lat="58.08084" lon="24.49985">
        <ele>11.529487</ele>
        <time>2020-10-08T02:08:35.197Z</time>
      </trkpt>
      <trkpt lat="58.08019" lon="24.49927">
        <ele>11.680918</ele>
        <time>2020-10-08T02:08:51.926Z</time>
      </trkpt>
      <trkpt lat="58.07976" lon="24.49888">
        <ele>11.780985</ele>
        <time>2020-10-08T02:09:02.977Z</time>
      </trkpt>
      <trkpt lat="58.07955" lon="24.49866">
        <ele>11.83259</ele>
        <time>2020-10-08T02:09:08.699Z</time>
      </trkpt>
      <trkpt lat="58.0768" lon="24.49608">
        <ele>12.153519</ele>
        <time>2020-10-08T02:10:18.261Z</time>
      </trkpt>
      <trkpt lat="58.07672" lon="24.496">
        <ele>12.163896</ele>
        <time>2020-10-08T02:10:20.248Z</time>
      </trkpt>
      <trkpt lat="58.07326" lon="24.49269">
        <ele>12.707102</ele>
        <time>2020-10-08T02:11:47.848Z</time>
      </trkpt>
      <trkpt lat="58.07254" lon="24.49223">
        <ele>13.008605</ele>
        <time>2020-10-08T02:12:06.727Z</time>
      </trkpt>
      <trkpt lat="58.0722" lon="24.49199">
        <ele>13.228583</ele>
        <time>2020-10-08T02:12:16.020Z</time>
      </trkpt>
      <trkpt lat="58.07191" lon="24.49178">
        <ele>13.410241</ele>
        <time>2020-10-08T02:12:23.632Z</time>
      </trkpt>
      <trkpt lat="58.07175" lon="24.49166">
        <ele>13.515932</ele>
        <time>2020-10-08T02:12:28.113Z</time>
      </trkpt>
      <trkpt lat="58.07112" lon="24.49124">
        <ele>13.890831</ele>
        <time>2020-10-08T02:12:44.454Z</time>
      </trkpt>
      <trkpt lat="58.06749" lon="24.48882">
        <ele>15.332309</ele>
        <time>2020-10-08T02:14:13.610Z</time>
      </trkpt>
      <trkpt lat="58.06667" lon="24.48824">
        <ele>16.566555</ele>
        <time>2020-10-08T02:14:39.387Z</time>
      </trkpt>
      <trkpt lat="58.06584" lon="24.48766">
        <ele>17.667581</ele>
        <time>2020-10-08T02:15:05.525Z</time>
      </trkpt>
      <trkpt lat="58.06497" lon="24.48707">
        <ele>18.493474</ele>
        <time>2020-10-08T02:15:30.094Z</time>
      </trkpt>
      <trkpt lat="58.06417" lon="24.48644">
        <ele>19.027902</ele>
        <time>2020-10-08T02:15:50.153Z</time>
      </trkpt>
      <trkpt lat="58.06352" lon="24.48577">
        <ele>19.017042</ele>
        <time>2020-10-08T02:16:06.358Z</time>
      </trkpt>
      <trkpt lat="58.06081" lon="24.48207">
        <ele>18.497381</ele>
        <time>2020-10-08T02:17:19.251Z</time>
      </trkpt>
      <trkpt lat="58.05967" lon="24.48111">
        <ele>17.968307</ele>
        <time>2020-10-08T02:17:44.840Z</time>
      </trkpt>
      <trkpt lat="58.05833" lon="24.48027">
        <ele>17.100901</ele>
        <time>2020-10-08T02:18:13.006Z</time>
      </trkpt>
      <trkpt lat="58.05721" lon="24.47973">
        <ele>16.932453</ele>
        <time>2020-10-08T02:18:37.383Z</time>
      </trkpt>
      <trkpt lat="58.05523" lon="24.47879">
        <ele>17.35927</ele>
        <time>2020-10-08T02:19:25.475Z</time>
      </trkpt>
      <trkpt lat="58.05117" lon="24.47749">
        <ele>19.26877</ele>
        <time>2020-10-08T02:21:05.657Z</time>
      </trkpt>
      <trkpt lat="58.05107" lon="24.47742">
        <ele>19.303215</ele>
        <time>2020-10-08T02:21:08.361Z</time>
      </trkpt>
      <trkpt lat="58.0497" lon="24.4765">
        <ele>19.505292</ele>
        <time>2020-10-08T02:21:41.892Z</time>
      </trkpt>
      <trkpt lat="58.04714" lon="24.47495">
        <ele>19.055426</ele>
        <time>2020-10-08T02:22:38.395Z</time>
      </trkpt>
      <trkpt lat="58.04628" lon="24.47421">
        <ele>19.125149</ele>
        <time>2020-10-08T02:23:00.159Z</time>
      </trkpt>
      <trkpt lat="58.04549" lon="24.47337">
        <ele>19.477275</ele>
        <time>2020-10-08T02:23:22.278Z</time>
      </trkpt>
      <trkpt lat="58.04408" lon="24.47166">
        <ele>20.240752</ele>
        <time>2020-10-08T02:24:03.474Z</time>
      </trkpt>
      <trkpt lat="58.04247" lon="24.46956">
        <ele>20.467737</ele>
        <time>2020-10-08T02:24:48.864Z</time>
      </trkpt>
      <trkpt lat="58.04028" lon="24.46672">
        <ele>19.247181</ele>
        <time>2020-10-08T02:25:42.987Z</time>
      </trkpt>
      <trkpt lat="58.03928" lon="24.46535">
        <ele>18.348096</ele>
        <time>2020-10-08T02:26:07.602Z</time>
      </trkpt>
      <trkpt lat="58.0386" lon="24.46456">
        <ele>17.735996</ele>
        <time>2020-10-08T02:26:23.507Z</time>
      </trkpt>
      <trkpt lat="58.03706" lon="24.46336">
        <ele>16.03535</ele>
        <time>2020-10-08T02:26:55.826Z</time>
      </trkpt>
      <trkpt lat="58.03562" lon="24.46192">
        <ele>14.411747</ele>
        <time>2020-10-08T02:27:26.364Z</time>
      </trkpt>
      <trkpt lat="58.03519" lon="24.46163">
        <ele>14.1597</ele>
        <time>2020-10-08T02:27:35.632Z</time>
      </trkpt>
      <trkpt lat="58.0348" lon="24.46137">
        <ele>14.413044</ele>
        <time>2020-10-08T02:27:44.777Z</time>
      </trkpt>
      <trkpt lat="58.03225" lon="24.4601">
        <ele>16.38088</ele>
        <time>2020-10-08T02:28:55.268Z</time>
      </trkpt>
      <trkpt lat="58.02854" lon="24.45875">
        <ele>17.479586</ele>
        <time>2020-10-08T02:30:22.880Z</time>
      </trkpt>
      <trkpt lat="58.02723" lon="24.45815">
        <ele>17.218474</ele>
        <time>2020-10-08T02:30:52.237Z</time>
      </trkpt>
      <trkpt lat="58.02626" lon="24.45752">
        <ele>16.798226</ele>
        <time>2020-10-08T02:31:13.267Z</time>
      </trkpt>
      <trkpt lat="58.02416" lon="24.45568">
        <ele>15.604836</ele>
        <time>2020-10-08T02:31:59.430Z</time>
      </trkpt>
      <trkpt lat="58.02279" lon="24.45467">
        <ele>15.547448</ele>
        <time>2020-10-08T02:32:34.107Z</time>
      </trkpt>
      <trkpt lat="58.02246" lon="24.45447">
        <ele>15.62345</ele>
        <time>2020-10-08T02:32:42.583Z</time>
      </trkpt>
      <trkpt lat="58.02156" lon="24.45429">
        <ele>15.824754</ele>
        <time>2020-10-08T02:33:03.489Z</time>
      </trkpt>
      <trkpt lat="58.02023" lon="24.45396">
        <ele>15.032296</ele>
        <time>2020-10-08T02:33:30.862Z</time>
      </trkpt>
      <trkpt lat="58.02004" lon="24.45388">
        <ele>14.913183</ele>
        <time>2020-10-08T02:33:34.601Z</time>
      </trkpt>
      <trkpt lat="58.01925" lon="24.45349">
        <ele>14.376515</ele>
        <time>2020-10-08T02:33:50.405Z</time>
      </trkpt>
      <trkpt lat="58.01888" lon="24.45314">
        <ele>14.100714</ele>
        <time>2020-10-08T02:33:58.656Z</time>
      </trkpt>
      <trkpt lat="58.01871" lon="24.45295">
        <ele>13.966776</ele>
        <time>2020-10-08T02:34:02.799Z</time>
      </trkpt>
      <trkpt lat="58.01749" lon="24.45158">
        <ele>12.840826</ele>
        <time>2020-10-08T02:34:32.357Z</time>
      </trkpt>
      <trkpt lat="58.01691" lon="24.45115">
        <ele>12.287897</ele>
        <time>2020-10-08T02:34:44.315Z</time>
      </trkpt>
      <trkpt lat="58.0142" lon="24.45006">
        <ele>8.904241</ele>
        <time>2020-10-08T02:35:34.960Z</time>
      </trkpt>
      <trkpt lat="58.01398" lon="24.45">
        <ele>8.781791</ele>
        <time>2020-10-08T02:35:39.667Z</time>
      </trkpt>
      <trkpt lat="58.01349" lon="24.44991">
        <ele>8.51889</ele>
        <time>2020-10-08T02:35:50.498Z</time>
      </trkpt>
      <trkpt lat="58.01318" lon="24.44985">
        <ele>8.353146</ele>
        <time>2020-10-08T02:35:57.415Z</time>
      </trkpt>
      <trkpt lat="58.01271" lon="24.44975">
        <ele>8.224038</ele>
        <time>2020-10-08T02:36:08.615Z</time>
      </trkpt>
      <trkpt lat="58.01245" lon="24.44966">
        <ele>8.210498</ele>
        <time>2020-10-08T02:36:14.734Z</time>
      </trkpt>
      <trkpt lat="58.0121" lon="24.44952">
        <ele>8.192192</ele>
        <time>2020-10-08T02:36:23.049Z</time>
      </trkpt>
      <trkpt lat="58.01117" lon="24.44906">
        <ele>8.124899</ele>
        <time>2020-10-08T02:36:43.732Z</time>
      </trkpt>
      <trkpt lat="58.01084" lon="24.44882">
        <ele>7.972857</ele>
        <time>2020-10-08T02:36:50.884Z</time>
      </trkpt>
      <trkpt lat="58.00922" lon="24.44764">
        <ele>7.317713</ele>
        <time>2020-10-08T02:37:26.571Z</time>
      </trkpt>
      <trkpt lat="58.00888" lon="24.44737">
        <ele>7.254</ele>
        <time>2020-10-08T02:37:34.799Z</time>
      </trkpt>
      <trkpt lat="58.00806" lon="24.44676">
        <ele>7.103941</ele>
        <time>2020-10-08T02:37:54.050Z</time>
      </trkpt>
      <trkpt lat="58.00709" lon="24.44599">
        <ele>7.173628</ele>
        <time>2020-10-08T02:38:17.370Z</time>
      </trkpt>
      <trkpt lat="58.00691" lon="24.44583">
        <ele>7.199261</ele>
        <time>2020-10-08T02:38:21.964Z</time>
      </trkpt>
      <trkpt lat="58.00623" lon="24.44511">
        <ele>7.302222</ele>
        <time>2020-10-08T02:38:40.152Z</time>
      </trkpt>
      <trkpt lat="58.00586" lon="24.4446">
        <ele>7.44937</ele>
        <time>2020-10-08T02:38:50.922Z</time>
      </trkpt>
      <trkpt lat="58.00534" lon="24.44368">
        <ele>7.678897</ele>
        <time>2020-10-08T02:39:07.922Z</time>
      </trkpt>
      <trkpt lat="58.00414" lon="24.44139">
        <ele>7.972495</ele>
        <time>2020-10-08T02:39:47.893Z</time>
      </trkpt>
      <trkpt lat="58.00247" lon="24.43873">
        <ele>7.67901</ele>
        <time>2020-10-08T02:40:35.074Z</time>
      </trkpt>
      <trkpt lat="58.00166" lon="24.43757">
        <ele>7.564769</ele>
        <time>2020-10-08T02:40:56.464Z</time>
      </trkpt>
      <trkpt lat="58.00105" lon="24.43656">
        <ele>7.518201</ele>
        <time>2020-10-08T02:41:14.754Z</time>
      </trkpt>
      <trkpt lat="58.00072" lon="24.43605">
        <ele>7.603918</ele>
        <time>2020-10-08T02:41:24.564Z</time>
      </trkpt>
      <trkpt lat="58.00035" lon="24.43553">
        <ele>7.918923</ele>
        <time>2020-10-08T02:41:35.207Z</time>
      </trkpt>
      <trkpt lat="57.99934" lon="24.43431">
        <ele>8.754799</ele>
        <time>2020-10-08T02:42:06.125Z</time>
      </trkpt>
      <trkpt lat="57.99897" lon="24.43386">
        <ele>9.559042</ele>
        <time>2020-10-08T02:42:18.069Z</time>
      </trkpt>
      <trkpt lat="57.99805" lon="24.43274">
        <ele>11.569132</ele>
        <time>2020-10-08T02:42:50.762Z</time>
      </trkpt>
      <trkpt lat="57.99715" lon="24.43199">
        <ele>13.809797</ele>
        <time>2020-10-08T02:43:23.676Z</time>
      </trkpt>
      <trkpt lat="57.99541" lon="24.43012">
        <ele>17.651882</ele>
        <time>2020-10-08T02:44:26.520Z</time>
      </trkpt>
      <trkpt lat="57.99265" lon="24.42771">
        <ele>19.55358</ele>
        <time>2020-10-08T02:45:38.386Z</time>
      </trkpt>
      <trkpt lat="57.99232" lon="24.42742">
        <ele>19.667015</ele>
        <time>2020-10-08T02:45:46.532Z</time>
      </trkpt>
      <trkpt lat="57.9914" lon="24.42649">
        <ele>19.986362</ele>
        <time>2020-10-08T02:46:10.976Z</time>
      </trkpt>
      <trkpt lat="57.99046" lon="24.42558">
        <ele>20.734786</ele>
        <time>2020-10-08T02:46:37.608Z</time>
      </trkpt>
      <trkpt lat="57.98873" lon="24.424">
        <ele>22.19068</ele>
        <time>2020-10-08T02:47:26.967Z</time>
      </trkpt>
      <trkpt lat="57.98762" lon="24.42295">
        <ele>22.952755</ele>
        <time>2020-10-08T02:47:57.831Z</time>
      </trkpt>
      <trkpt lat="57.98733" lon="24.42271">
        <ele>23.082125</ele>
        <time>2020-10-08T02:48:05.293Z</time>
      </trkpt>
      <trkpt lat="57.98727" lon="24.42263">
        <ele>23.114154</ele>
        <time>2020-10-08T02:48:07.166Z</time>
      </trkpt>
      <trkpt lat="57.98723" lon="24.42259">
        <ele>23.133907</ele>
        <time>2020-10-08T02:48:08.305Z</time>
      </trkpt>
      <trkpt lat="57.98688" lon="24.42227">
        <ele>23.296583</ele>
        <time>2020-10-08T02:48:17.552Z</time>
      </trkpt>
      <trkpt lat="57.98598" lon="24.42095">
        <ele>23.301949</ele>
        <time>2020-10-08T02:48:43.601Z</time>
      </trkpt>
      <trkpt lat="57.98528" lon="24.4197">
        <ele>23.115674</ele>
        <time>2020-10-08T02:49:03.773Z</time>
      </trkpt>
      <trkpt lat="57.98388" lon="24.41826">
        <ele>22.259125</ele>
        <time>2020-10-08T02:49:35.859Z</time>
      </trkpt>
      <trkpt lat="57.98283" lon="24.41732">
        <ele>22.184312</ele>
        <time>2020-10-08T02:50:00.867Z</time>
      </trkpt>
      <trkpt lat="57.98176" lon="24.41661">
        <ele>22.381657</ele>
        <time>2020-10-08T02:50:27.853Z</time>
      </trkpt>
      <trkpt lat="57.98045" lon="24.416">
        <ele>23.099453</ele>
        <time>2020-10-08T02:51:01.204Z</time>
      </trkpt>
      <trkpt lat="57.98014" lon="24.41582">
        <ele>23.211975</ele>
        <time>2020-10-08T02:51:09.001Z</time>
      </trkpt>
      <trkpt lat="57.97954" lon="24.41547">
        <ele>23.169145</ele>
        <time>2020-10-08T02:51:23.846Z</time>
      </trkpt>
      <trkpt lat="57.97779" lon="24.41427">
        <ele>22.537169</ele>
        <time>2020-10-08T02:52:02.879Z</time>
      </trkpt>
      <trkpt lat="57.97607" lon="24.41296">
        <ele>20.869282</ele>
        <time>2020-10-08T02:52:38.856Z</time>
      </trkpt>
      <trkpt lat="57.97485" lon="24.41219">
        <ele>19.552237</ele>
        <time>2020-10-08T02:53:02.934Z</time>
      </trkpt>
      <trkpt lat="57.97303" lon="24.41117">
        <ele>18.583049</ele>
        <time>2020-10-08T02:53:41.471Z</time>
      </trkpt>
      <trkpt lat="57.97289" lon="24.4111">
        <ele>18.626862</ele>
        <time>2020-10-08T02:53:44.891Z</time>
      </trkpt>
      <trkpt lat="57.97256" lon="24.41088">
        <ele>18.733779</ele>
        <time>2020-10-08T02:53:53.212Z</time>
      </trkpt>
      <trkpt lat="57.97215" lon="24.41059">
        <ele>18.868484</ele>
        <time>2020-10-08T02:54:04.205Z</time>
      </trkpt>
      <trkpt lat="57.97031" lon="24.40918">
        <ele>20.222558</ele>
        <time>2020-10-08T02:54:55.398Z</time>
      </trkpt>
      <trkpt lat="57.96917" lon="24.40852">
        <ele>20.731818</ele>
        <time>2020-10-08T02:55:23.799Z</time>
      </trkpt>
      <trkpt lat="57.96881" lon="24.40841">
        <ele>20.853506</ele>
        <time>2020-10-08T02:55:32.206Z</time>
      </trkpt>
      <trkpt lat="57.96825" lon="24.40824">
        <ele>21.052644</ele>
        <time>2020-10-08T02:55:45.399Z</time>
      </trkpt>
      <trkpt lat="57.96718" lon="24.40788">
        <ele>21.501257</ele>
        <time>2020-10-08T02:56:10.980Z</time>
      </trkpt>
      <trkpt lat="57.96516" lon="24.40683">
        <ele>22.40638</ele>
        <time>2020-10-08T02:57:02.668Z</time>
      </trkpt>
      <trkpt lat="57.96279" lon="24.40537">
        <ele>22.290679</ele>
        <time>2020-10-08T02:57:57.836Z</time>
      </trkpt>
      <trkpt lat="57.96112" lon="24.40426">
        <ele>20.873475</ele>
        <time>2020-10-08T02:58:32.755Z</time>
      </trkpt>
      <trkpt lat="57.96082" lon="24.40406">
        <ele>20.428857</ele>
        <time>2020-10-08T02:58:38.699Z</time>
      </trkpt>
      <trkpt lat="57.96024" lon="24.40344">
        <ele>19.499597</ele>
        <time>2020-10-08T02:58:50.915Z</time>
      </trkpt>
      <trkpt lat="57.95837" lon="24.40135">
        <ele>16.336944</ele>
        <time>2020-10-08T02:59:30.546Z</time>
      </trkpt>
      <trkpt lat="57.95596" lon="24.39905">
        <ele>14.190148</ele>
        <time>2020-10-08T03:00:24.504Z</time>
      </trkpt>
      <trkpt lat="57.95579" lon="24.39889">
        <ele>14.052855</ele>
        <time>2020-10-08T03:00:28.420Z</time>
      </trkpt>
      <trkpt lat="57.95504" lon="24.39819">
        <ele>13.454568</ele>
        <time>2020-10-08T03:00:45.092Z</time>
      </trkpt>
      <trkpt lat="57.95442" lon="24.39735">
        <ele>12.756351</ele>
        <time>2020-10-08T03:01:00.445Z</time>
      </trkpt>
      <trkpt lat="57.95344" lon="24.39572">
        <ele>11.77845</ele>
        <time>2020-10-08T03:01:25.489Z</time>
      </trkpt>
      <trkpt lat="57.95293" lon="24.39505">
        <ele>11.623398</ele>
        <time>2020-10-08T03:01:37.789Z</time>
      </trkpt>
      <trkpt lat="57.95219" lon="24.39425">
        <ele>11.407938</ele>
        <time>2020-10-08T03:01:56.890Z</time>
      </trkpt>
      <trkpt lat="57.94999" lon="24.39209">
        <ele>15.051213</ele>
        <time>2020-10-08T03:03:09.073Z</time>
      </trkpt>
      <trkpt lat="57.94963" lon="24.39176">
        <ele>15.599758</ele>
        <time>2020-10-08T03:03:20.610Z</time>
      </trkpt>
      <trkpt lat="57.94946" lon="24.39168">
        <ele>15.840272</ele>
        <time>2020-10-08T03:03:25.412Z</time>
      </trkpt>
      <trkpt lat="57.94839" lon="24.39136">
        <ele>16.764906</ele>
        <time>2020-10-08T03:03:53.382Z</time>
      </trkpt>
      <trkpt lat="57.9456" lon="24.39123">
        <ele>17.118057</ele>
        <time>2020-10-08T03:04:56.157Z</time>
      </trkpt>
      <trkpt lat="57.94282" lon="24.39157">
        <ele>16.732424</ele>
        <time>2020-10-08T03:05:55.792Z</time>
      </trkpt>
      <trkpt lat="57.94057" lon="24.39184">
        <ele>16.677036</ele>
        <time>2020-10-08T03:06:46.806Z</time>
      </trkpt>
      <trkpt lat="57.93908" lon="24.39202">
        <ele>16.256325</ele>
        <time>2020-10-08T03:07:18.808Z</time>
      </trkpt>
      <trkpt lat="57.93844" lon="24.39196">
        <ele>15.949521</ele>
        <time>2020-10-08T03:07:31.772Z</time>
      </trkpt>
      <trkpt lat="57.93754" lon="24.39186">
        <ele>15.226512</ele>
        <time>2020-10-08T03:07:49.608Z</time>
      </trkpt>
      <trkpt lat="57.93518" lon="24.39162">
        <ele>13.164208</ele>
        <time>2020-10-08T03:08:35.180Z</time>
      </trkpt>
      <trkpt lat="57.93466" lon="24.39176">
        <ele>12.752334</ele>
        <time>2020-10-08T03:08:45.928Z</time>
      </trkpt>
      <trkpt lat="57.93428" lon="24.39186">
        <ele>12.667845</ele>
        <time>2020-10-08T03:08:54.170Z</time>
      </trkpt>
      <trkpt lat="57.93383" lon="24.39198">
        <ele>12.673389</ele>
        <time>2020-10-08T03:09:04.142Z</time>
      </trkpt>
      <trkpt lat="57.93292" lon="24.39204">
        <ele>12.684567</ele>
        <time>2020-10-08T03:09:25.127Z</time>
      </trkpt>
      <trkpt lat="57.93137" lon="24.3918">
        <ele>12.684718</ele>
        <time>2020-10-08T03:10:00.168Z</time>
      </trkpt>
      <trkpt lat="57.93052" lon="24.39171">
        <ele>12.577031</ele>
        <time>2020-10-08T03:10:18.629Z</time>
      </trkpt>
      <trkpt lat="57.92738" lon="24.39122">
        <ele>11.878065</ele>
        <time>2020-10-08T03:11:25.726Z</time>
      </trkpt>
      <trkpt lat="57.92631" lon="24.39097">
        <ele>11.830906</ele>
        <time>2020-10-08T03:11:50.342Z</time>
      </trkpt>
      <trkpt lat="57.9251" lon="24.3905">
        <ele>11.361173</ele>
        <time>2020-10-08T03:12:17.070Z</time>
      </trkpt>
      <trkpt lat="57.92392" lon="24.39002">
        <ele>10.330518</ele>
        <time>2020-10-08T03:12:40.402Z</time>
      </trkpt>
      <trkpt lat="57.92354" lon="24.38978">
        <ele>9.783941</ele>
        <time>2020-10-08T03:12:47.660Z</time>
      </trkpt>
      <trkpt lat="57.92348" lon="24.38975">
        <ele>9.685995</ele>
        <time>2020-10-08T03:12:48.731Z</time>
      </trkpt>
      <trkpt lat="57.9228" lon="24.38917">
        <ele>8.571102</ele>
        <time>2020-10-08T03:13:02.216Z</time>
      </trkpt>
      <trkpt lat="57.92218" lon="24.38876">
        <ele>7.585693</ele>
        <time>2020-10-08T03:13:14.356Z</time>
      </trkpt>
      <trkpt lat="57.92125" lon="24.38835">
        <ele>6.901037</ele>
        <time>2020-10-08T03:13:32.606Z</time>
      </trkpt>
      <trkpt lat="57.92102" lon="24.38825">
        <ele>6.733278</ele>
        <time>2020-10-08T03:13:37.250Z</time>
      </trkpt>
      <trkpt lat="57.92099" lon="24.38824">
        <ele>6.713573</ele>
        <time>2020-10-08T03:13:37.809Z</time>
      </trkpt>
      <trkpt lat="57.92088" lon="24.38819">
        <ele>6.631982</ele>
        <time>2020-10-08T03:13:40.132Z</time>
      </trkpt>
      <trkpt lat="57.92087" lon="24.38819">
        <ele>6.623058</ele>
        <time>2020-10-08T03:13:40.374Z</time>
      </trkpt>
      <trkpt lat="57.9208" lon="24.38815">
        <ele>6.571096</ele>
        <time>2020-10-08T03:13:41.887Z</time>
      </trkpt>
      <trkpt lat="57.92054" lon="24.388">
        <ele>6.380416</ele>
        <time>2020-10-08T03:13:47.826Z</time>
      </trkpt>
      <trkpt lat="57.91995" lon="24.38756">
        <ele>6.955204</ele>
        <time>2020-10-08T03:14:03.071Z</time>
      </trkpt>
      <trkpt lat="57.91966" lon="24.38737">
        <ele>7.349168</ele>
        <time>2020-10-08T03:14:11.119Z</time>
      </trkpt>
      <trkpt lat="57.91946" lon="24.38724">
        <ele>7.620183</ele>
        <time>2020-10-08T03:14:17.352Z</time>
      </trkpt>
      <trkpt lat="57.9192" lon="24.38707">
        <ele>7.970713</ele>
        <time>2020-10-08T03:14:24.833Z</time>
      </trkpt>
      <trkpt lat="57.91919" lon="24.38706">
        <ele>7.989578</ele>
        <time>2020-10-08T03:14:25.852Z</time>
      </trkpt>
      <trkpt lat="57.91818" lon="24.38665">
        <ele>9.73308</ele>
        <time>2020-10-08T03:14:57.997Z</time>
      </trkpt>
      <trkpt lat="57.91795" lon="24.38655">
        <ele>10.206447</ele>
        <time>2020-10-08T03:15:06.080Z</time>
      </trkpt>
      <trkpt lat="57.91745" lon="24.38635">
        <ele>11.242289</ele>
        <time>2020-10-08T03:15:21.870Z</time>
      </trkpt>
      <trkpt lat="57.91667" lon="24.38606">
        <ele>12.406144</ele>
        <time>2020-10-08T03:15:44.344Z</time>
      </trkpt>
      <trkpt lat="57.91603" lon="24.38583">
        <ele>12.763082</ele>
        <time>2020-10-08T03:16:00.522Z</time>
      </trkpt>
      <trkpt lat="57.91509" lon="24.38548">
        <ele>13.265227</ele>
        <time>2020-10-08T03:16:21.750Z</time>
      </trkpt>
      <trkpt lat="57.91436" lon="24.38512">
        <ele>13.513742</ele>
        <time>2020-10-08T03:16:38.434Z</time>
      </trkpt>
      <trkpt lat="57.91206" lon="24.38382">
        <ele>14.859735</ele>
        <time>2020-10-08T03:17:38.256Z</time>
      </trkpt>
      <trkpt lat="57.91128" lon="24.38331">
        <ele>15.444999</ele>
        <time>2020-10-08T03:17:59.848Z</time>
      </trkpt>
      <trkpt lat="57.91022" lon="24.38264">
        <ele>16.229903</ele>
        <time>2020-10-08T03:18:27.927Z</time>
      </trkpt>
      <trkpt lat="57.90858" lon="24.38141">
        <ele>16.618042</ele>
        <time>2020-10-08T03:19:08.819Z</time>
      </trkpt>
      <trkpt lat="57.90834" lon="24.38122">
        <ele>16.641341</ele>
        <time>2020-10-08T03:19:14.601Z</time>
      </trkpt>
      <trkpt lat="57.90646" lon="24.38018">
        <ele>16.091831</ele>
        <time>2020-10-08T03:19:56.028Z</time>
      </trkpt>
      <trkpt lat="57.90425" lon="24.37841">
        <ele>15.613841</ele>
        <time>2020-10-08T03:20:46.571Z</time>
      </trkpt>
      <trkpt lat="57.90409" lon="24.37831">
        <ele>15.622881</ele>
        <time>2020-10-08T03:20:50.438Z</time>
      </trkpt>
      <trkpt lat="57.90262" lon="24.37725">
        <ele>15.986609</ele>
        <time>2020-10-08T03:21:28.211Z</time>
      </trkpt>
      <trkpt lat="57.90112" lon="24.37627">
        <ele>16.386</ele>
        <time>2020-10-08T03:22:06.385Z</time>
      </trkpt>
      <trkpt lat="57.89922" lon="24.37469">
        <ele>15.657445</ele>
        <time>2020-10-08T03:22:50.088Z</time>
      </trkpt>
      <trkpt lat="57.89782" lon="24.37404">
        <ele>14.483708</ele>
        <time>2020-10-08T03:23:17.881Z</time>
      </trkpt>
      <trkpt lat="57.89718" lon="24.37371">
        <ele>13.865418</ele>
        <time>2020-10-08T03:23:30.503Z</time>
      </trkpt>
      <trkpt lat="57.8943" lon="24.37193">
        <ele>11.772697</ele>
        <time>2020-10-08T03:24:31.277Z</time>
      </trkpt>
      <trkpt lat="57.89348" lon="24.37151">
        <ele>11.433689</ele>
        <time>2020-10-08T03:24:48.999Z</time>
      </trkpt>
      <trkpt lat="57.89242" lon="24.37079">
        <ele>11.738248</ele>
        <time>2020-10-08T03:25:14.449Z</time>
      </trkpt>
      <trkpt lat="57.8917" lon="24.37026">
        <ele>12.215282</ele>
        <time>2020-10-08T03:25:34.088Z</time>
      </trkpt>
      <trkpt lat="57.89056" lon="24.36942">
        <ele>13.560185</ele>
        <time>2020-10-08T03:26:08.281Z</time>
      </trkpt>
      <trkpt lat="57.88964" lon="24.36888">
        <ele>14.59153</ele>
        <time>2020-10-08T03:26:34.489Z</time>
      </trkpt>
      <trkpt lat="57.88922" lon="24.36861">
        <ele>14.430834</ele>
        <time>2020-10-08T03:26:45.551Z</time>
      </trkpt>
      <trkpt lat="57.88344" lon="24.36622">
        <ele>11.826156</ele>
        <time>2020-10-08T03:28:47.042Z</time>
      </trkpt>
      <trkpt lat="57.88294" lon="24.36598">
        <ele>11.421037</ele>
        <time>2020-10-08T03:28:57.031Z</time>
      </trkpt>
      <trkpt lat="57.88195" lon="24.36527">
        <ele>10.304411</ele>
        <time>2020-10-08T03:29:17.130Z</time>
      </trkpt>
      <trkpt lat="57.8808" lon="24.36429">
        <ele>8.862084</ele>
        <time>2020-10-08T03:29:41.218Z</time>
      </trkpt>
      <trkpt lat="57.88068" lon="24.36423">
        <ele>8.726078</ele>
        <time>2020-10-08T03:29:43.489Z</time>
      </trkpt>
      <trkpt lat="57.87857" lon="24.36304">
        <ele>6.54003</ele>
        <time>2020-10-08T03:30:25.292Z</time>
      </trkpt>
      <trkpt lat="57.87837" lon="24.36294">
        <ele>6.388786</ele>
        <time>2020-10-08T03:30:29.462Z</time>
      </trkpt>
      <trkpt lat="57.87768" lon="24.36259">
        <ele>5.86972</ele>
        <time>2020-10-08T03:30:44.460Z</time>
      </trkpt>
      <trkpt lat="57.8775" lon="24.3625">
        <ele>5.83945</ele>
        <time>2020-10-08T03:30:48.551Z</time>
      </trkpt>
      <trkpt lat="57.87686" lon="24.36216">
        <ele>5.845799</ele>
        <time>2020-10-08T03:31:03.620Z</time>
      </trkpt>
      <trkpt lat="57.87662" lon="24.36201">
        <ele>5.848221</ele>
        <time>2020-10-08T03:31:09.471Z</time>
      </trkpt>
      <trkpt lat="57.87649" lon="24.36195">
        <ele>5.849489</ele>
        <time>2020-10-08T03:31:12.501Z</time>
      </trkpt>
      <trkpt lat="57.87574" lon="24.36181">
        <ele>5.814583</ele>
        <time>2020-10-08T03:31:29.651Z</time>
      </trkpt>
      <trkpt lat="57.87468" lon="24.36126">
        <ele>5.533314</ele>
        <time>2020-10-08T03:31:52.925Z</time>
      </trkpt>
      <trkpt lat="57.87455" lon="24.36117">
        <ele>5.498164</ele>
        <time>2020-10-08T03:31:55.705Z</time>
      </trkpt>
      <trkpt lat="57.87406" lon="24.36096">
        <ele>5.394309</ele>
        <time>2020-10-08T03:32:06.296Z</time>
      </trkpt>
      <trkpt lat="57.87397" lon="24.36093">
        <ele>5.395157</ele>
        <time>2020-10-08T03:32:08.112Z</time>
      </trkpt>
      <trkpt lat="57.87384" lon="24.36089">
        <ele>5.396495</ele>
        <time>2020-10-08T03:32:10.908Z</time>
      </trkpt>
      <trkpt lat="57.87349" lon="24.36085">
        <ele>5.400035</ele>
        <time>2020-10-08T03:32:18.524Z</time>
      </trkpt>
      <trkpt lat="57.87325" lon="24.36083">
        <ele>5.402458</ele>
        <time>2020-10-08T03:32:23.842Z</time>
      </trkpt>
      <trkpt lat="57.87322" lon="24.36082">
        <ele>5.402779</ele>
        <time>2020-10-08T03:32:24.524Z</time>
      </trkpt>
      <trkpt lat="57.87294" lon="24.3608">
        <ele>5.405543</ele>
        <time>2020-10-08T03:32:30.638Z</time>
      </trkpt>
      <trkpt lat="57.87226" lon="24.36076">
        <ele>5.465421</ele>
        <time>2020-10-08T03:32:46.655Z</time>
      </trkpt>
      <trkpt lat="57.87215" lon="24.36075">
        <ele>5.521022</ele>
        <time>2020-10-08T03:32:49.218Z</time>
      </trkpt>
      <trkpt lat="57.87169" lon="24.36072">
        <ele>5.762608</ele>
        <time>2020-10-08T03:33:00.594Z</time>
      </trkpt>
      <trkpt lat="57.8706" lon="24.36069">
        <ele>6.325513</ele>
        <time>2020-10-08T03:33:27.608Z</time>
      </trkpt>
      <trkpt lat="57.87059" lon="24.36069">
        <ele>6.332263</ele>
        <time>2020-10-08T03:33:27.972Z</time>
      </trkpt>
      <trkpt lat="57.87026" lon="24.36066">
        <ele>6.439942</ele>
        <time>2020-10-08T03:33:35.901Z</time>
      </trkpt>
      <trkpt lat="57.87005" lon="24.3606">
        <ele>6.506003</ele>
        <time>2020-10-08T03:33:40.987Z</time>
      </trkpt>
      <trkpt lat="57.86963" lon="24.36046">
        <ele>6.63703</ele>
        <time>2020-10-08T03:33:50.875Z</time>
      </trkpt>
      <trkpt lat="57.86937" lon="24.3604">
        <ele>6.715786</ele>
        <time>2020-10-08T03:33:56.827Z</time>
      </trkpt>
      <trkpt lat="57.8682" lon="24.36004">
        <ele>7.123934</ele>
        <time>2020-10-08T03:34:24.167Z</time>
      </trkpt>
      <trkpt lat="57.8676" lon="24.35986">
        <ele>7.358519</ele>
        <time>2020-10-08T03:34:38.450Z</time>
      </trkpt>
      <trkpt lat="57.86666" lon="24.35956">
        <ele>7.822689</ele>
        <time>2020-10-08T03:35:02.282Z</time>
      </trkpt>
      <trkpt lat="57.8665" lon="24.35951">
        <ele>7.927477</ele>
        <time>2020-10-08T03:35:06.242Z</time>
      </trkpt>
      <trkpt lat="57.86639" lon="24.35947">
        <ele>8.003326</ele>
        <time>2020-10-08T03:35:09.156Z</time>
      </trkpt>
      <trkpt lat="57.8662" lon="24.35941">
        <ele>8.130234</ele>
        <time>2020-10-08T03:35:13.904Z</time>
      </trkpt>
      <trkpt lat="57.86593" lon="24.35932">
        <ele>8.312235</ele>
        <time>2020-10-08T03:35:20.773Z</time>
      </trkpt>
      <trkpt lat="57.86558" lon="24.35918">
        <ele>8.548622</ele>
        <time>2020-10-08T03:35:29.735Z</time>
      </trkpt>
      <trkpt lat="57.8653" lon="24.35909">
        <ele>8.735189</ele>
        <time>2020-10-08T03:35:36.857Z</time>
      </trkpt>
      <trkpt lat="57.86493" lon="24.35897">
        <ele>8.710888</ele>
        <time>2020-10-08T03:35:46.267Z</time>
      </trkpt>
      <trkpt lat="57.86452" lon="24.35882">
        <ele>8.621061</ele>
        <time>2020-10-08T03:35:56.188Z</time>
      </trkpt>
      <trkpt lat="57.86429" lon="24.35875">
        <ele>8.572431</ele>
        <time>2020-10-08T03:36:01.172Z</time>
      </trkpt>
      <trkpt lat="57.86357" lon="24.35853">
        <ele>8.418158</ele>
        <time>2020-10-08T03:36:15.554Z</time>
      </trkpt>
      <trkpt lat="57.86347" lon="24.35853">
        <ele>8.397161</ele>
        <time>2020-10-08T03:36:17.506Z</time>
      </trkpt>
      <trkpt lat="57.86344" lon="24.35875">
        <ele>8.288092</ele>
        <time>2020-10-08T03:36:19.840Z</time>
      </trkpt>
      <trkpt lat="57.86331" lon="24.35976">
        <ele>7.772399</ele>
        <time>2020-10-08T03:36:30.664Z</time>
      </trkpt>
      <trkpt lat="57.86323" lon="24.36041">
        <ele>7.437765</ele>
        <time>2020-10-08T03:36:37.565Z</time>
      </trkpt>
      <trkpt lat="57.86307" lon="24.36152">
        <ele>6.868489</ele>
        <time>2020-10-08T03:36:49.158Z</time>
      </trkpt>
      <trkpt lat="57.86303" lon="24.36184">
        <ele>6.712746</ele>
        <time>2020-10-08T03:36:52.586Z</time>
      </trkpt>
      <trkpt lat="57.8629" lon="24.36274">
        <ele>6.624878</ele>
        <time>2020-10-08T03:37:02.613Z</time>
      </trkpt>
      <trkpt lat="57.86287" lon="24.3629">
        <ele>6.609583</ele>
        <time>2020-10-08T03:37:04.395Z</time>
      </trkpt>
      <trkpt lat="57.86271" lon="24.36397">
        <ele>6.504552</ele>
        <time>2020-10-08T03:37:17.733Z</time>
      </trkpt>
      <trkpt lat="57.86258" lon="24.36489">
        <ele>6.415413</ele>
        <time>2020-10-08T03:37:29.450Z</time>
      </trkpt>
      <trkpt lat="57.86217" lon="24.36768">
        <ele>6.923139</ele>
        <time>2020-10-08T03:38:06.285Z</time>
      </trkpt>
      <trkpt lat="57.86205" lon="24.3685">
        <ele>7.069067</ele>
        <time>2020-10-08T03:38:17.038Z</time>
      </trkpt>
      <trkpt lat="57.86196" lon="24.36916">
        <ele>7.120032</ele>
        <time>2020-10-08T03:38:25.390Z</time>
      </trkpt>
      <trkpt lat="57.86184" lon="24.37006">
        <ele>7.189949</ele>
        <time>2020-10-08T03:38:36.637Z</time>
      </trkpt>
      <trkpt lat="57.86144" lon="24.37283">
        <ele>7.360324</ele>
        <time>2020-10-08T03:39:11.447Z</time>
      </trkpt>
      <trkpt lat="57.86104" lon="24.37553">
        <ele>7.334392</ele>
        <time>2020-10-08T03:39:44.932Z</time>
      </trkpt>
      <trkpt lat="57.86095" lon="24.37608">
        <ele>7.244405</ele>
        <time>2020-10-08T03:39:51.496Z</time>
      </trkpt>
      <trkpt lat="57.86083" lon="24.37691">
        <ele>7.108975</ele>
        <time>2020-10-08T03:40:01.143Z</time>
      </trkpt>
      <trkpt lat="57.86073" lon="24.37754">
        <ele>7.005426</ele>
        <time>2020-10-08T03:40:08.365Z</time>
      </trkpt>
      <trkpt lat="57.86038" lon="24.37995">
        <ele>6.622638</ele>
        <time>2020-10-08T03:40:35.784Z</time>
      </trkpt>
      <trkpt lat="57.86015" lon="24.38152">
        <ele>6.415894</ele>
        <time>2020-10-08T03:40:54.659Z</time>
      </trkpt>
      <trkpt lat="57.85984" lon="24.38365">
        <ele>6.732759</ele>
        <time>2020-10-08T03:41:22.409Z</time>
      </trkpt>
      <trkpt lat="57.85981" lon="24.38383">
        <ele>6.758825</ele>
        <time>2020-10-08T03:41:24.664Z</time>
      </trkpt>
      <trkpt lat="57.85965" lon="24.38492">
        <ele>6.948245</ele>
        <time>2020-10-08T03:41:38.909Z</time>
      </trkpt>
      <trkpt lat="57.85872" lon="24.39132">
        <ele>8.558152</ele>
        <time>2020-10-08T03:43:04.423Z</time>
      </trkpt>
      <trkpt lat="57.85755" lon="24.39926">
        <ele>10.115719</ele>
        <time>2020-10-08T03:44:47.999Z</time>
      </trkpt>
      <trkpt lat="57.8569" lon="24.40366">
        <ele>11.260518</ele>
        <time>2020-10-08T03:45:47.526Z</time>
      </trkpt>
      <trkpt lat="57.85571" lon="24.4118">
        <ele>12.204786</ele>
        <time>2020-10-08T03:47:30.822Z</time>
      </trkpt>
      <trkpt lat="57.85564" lon="24.41224">
        <ele>12.282154</ele>
        <time>2020-10-08T03:47:36.490Z</time>
      </trkpt>
      <trkpt lat="57.85505" lon="24.41625">
        <ele>13.125958</ele>
        <time>2020-10-08T03:48:29.691Z</time>
      </trkpt>
      <trkpt lat="57.85396" lon="24.42357">
        <ele>14.999257</ele>
        <time>2020-10-08T03:50:07.412Z</time>
      </trkpt>
      <trkpt lat="57.85309" lon="24.42937">
        <ele>16.791532</ele>
        <time>2020-10-08T03:51:24.872Z</time>
      </trkpt>
      <trkpt lat="57.85303" lon="24.42981">
        <ele>16.959375</ele>
        <time>2020-10-08T03:51:31.423Z</time>
      </trkpt>
      <trkpt lat="57.85278" lon="24.43148">
        <ele>18.008003</ele>
        <time>2020-10-08T03:51:57.001Z</time>
      </trkpt>
      <trkpt lat="57.85241" lon="24.43418">
        <ele>19.739152</ele>
        <time>2020-10-08T03:52:38.042Z</time>
      </trkpt>
      <trkpt lat="57.85141" lon="24.44094">
        <ele>22.507336</ele>
        <time>2020-10-08T03:54:10.745Z</time>
      </trkpt>
      <trkpt lat="57.85082" lon="24.44507">
        <ele>25.348577</ele>
        <time>2020-10-08T03:55:11.715Z</time>
      </trkpt>
      <trkpt lat="57.84924" lon="24.45569">
        <ele>37.535064</ele>
        <time>2020-10-08T03:58:13.074Z</time>
      </trkpt>
      <trkpt lat="57.8491" lon="24.45666">
        <ele>38.604751</ele>
        <time>2020-10-08T03:58:30.037Z</time>
      </trkpt>
      <trkpt lat="57.84902" lon="24.45755">
        <ele>39.421354</ele>
        <time>2020-10-08T03:58:44.865Z</time>
      </trkpt>
      <trkpt lat="57.8489" lon="24.4581">
        <ele>39.954844</ele>
        <time>2020-10-08T03:58:55.157Z</time>
      </trkpt>
      <trkpt lat="57.84859" lon="24.46022">
        <ele>41.280329</ele>
        <time>2020-10-08T03:59:30.063Z</time>
      </trkpt>
      <trkpt lat="57.84851" lon="24.46125">
        <ele>41.193199</ele>
        <time>2020-10-08T03:59:44.095Z</time>
      </trkpt>
      <trkpt lat="57.84883" lon="24.48274">
        <ele>30.864335</ele>
        <time>2020-10-08T04:03:54.420Z</time>
      </trkpt>
      <trkpt lat="57.84871" lon="24.48381">
        <ele>30.147118</ele>
        <time>2020-10-08T04:04:06.532Z</time>
      </trkpt>
      <trkpt lat="57.84881" lon="24.484">
        <ele>29.958929</ele>
        <time>2020-10-08T04:04:09.221Z</time>
      </trkpt>
      <trkpt lat="57.84837" lon="24.48643">
        <ele>28.106698</ele>
        <time>2020-10-08T04:04:34.578Z</time>
      </trkpt>
      <trkpt lat="57.84788" lon="24.48858">
        <ele>26.838241</ele>
        <time>2020-10-08T04:04:57.681Z</time>
      </trkpt>
      <trkpt lat="57.84724" lon="24.49083">
        <ele>26.741085</ele>
        <time>2020-10-08T04:05:27.183Z</time>
      </trkpt>
      <trkpt lat="57.84689" lon="24.49198">
        <ele>27.092916</ele>
        <time>2020-10-08T04:05:45.471Z</time>
      </trkpt>
      <trkpt lat="57.84435" lon="24.50067">
        <ele>34.492235</ele>
        <time>2020-10-08T04:08:13.376Z</time>
      </trkpt>
      <trkpt lat="57.84286" lon="24.5059">
        <ele>40.071029</ele>
        <time>2020-10-08T04:09:48.393Z</time>
      </trkpt>
      <trkpt lat="57.84112" lon="24.51178">
        <ele>43.383736</ele>
        <time>2020-10-08T04:11:22.872Z</time>
      </trkpt>
      <trkpt lat="57.84107" lon="24.51262">
        <ele>43.506492</ele>
        <time>2020-10-08T04:11:32.790Z</time>
      </trkpt>
      <trkpt lat="57.84084" lon="24.51351">
        <ele>43.320892</ele>
        <time>2020-10-08T04:11:43.565Z</time>
      </trkpt>
      <trkpt lat="57.83913" lon="24.51946">
        <ele>36.430017</ele>
        <time>2020-10-08T04:12:46.546Z</time>
      </trkpt>
      <trkpt lat="57.83873" lon="24.52077">
        <ele>35.500661</ele>
        <time>2020-10-08T04:13:01.385Z</time>
      </trkpt>
      <trkpt lat="57.83845" lon="24.52154">
        <ele>34.932265</ele>
        <time>2020-10-08T04:13:11.191Z</time>
      </trkpt>
      <trkpt lat="57.83823" lon="24.52143">
        <ele>34.673204</ele>
        <time>2020-10-08T04:13:19.091Z</time>
      </trkpt>
      <trkpt lat="57.837" lon="24.52412">
        <ele>34.489341</ele>
        <time>2020-10-08T04:14:29.423Z</time>
      </trkpt>
      <trkpt lat="57.83539" lon="24.52748">
        <ele>34.964552</ele>
        <time>2020-10-08T04:15:59.215Z</time>
      </trkpt>
      <trkpt lat="57.83071" lon="24.53752">
        <ele>40.442805</ele>
        <time>2020-10-08T04:20:47.105Z</time>
      </trkpt>
      <trkpt lat="57.82838" lon="24.54459">
        <ele>43.579605</ele>
        <time>2020-10-08T04:23:44.743Z</time>
      </trkpt>
      <trkpt lat="57.82789" lon="24.54582">
        <ele>43.915271</ele>
        <time>2020-10-08T04:24:16.648Z</time>
      </trkpt>
      <trkpt lat="57.82658" lon="24.54854">
        <ele>43.837182</ele>
        <time>2020-10-08T04:25:29.249Z</time>
      </trkpt>
      <trkpt lat="57.8228" lon="24.55692">
        <ele>41.391522</ele>
        <time>2020-10-08T04:28:55.463Z</time>
      </trkpt>
      <trkpt lat="57.82274" lon="24.55707">
        <ele>41.379441</ele>
        <time>2020-10-08T04:28:59.258Z</time>
      </trkpt>
      <trkpt lat="57.8216" lon="24.55972">
        <ele>41.567018</ele>
        <time>2020-10-08T04:30:09.428Z</time>
      </trkpt>
      <trkpt lat="57.81922" lon="24.56514">
        <ele>41.665632</ele>
        <time>2020-10-08T04:32:29.609Z</time>
      </trkpt>
      <trkpt lat="57.81781" lon="24.56796">
        <ele>40.880571</ele>
        <time>2020-10-08T04:33:40.758Z</time>
      </trkpt>
      <trkpt lat="57.81653" lon="24.56945">
        <ele>41.950494</ele>
        <time>2020-10-08T04:34:39.499Z</time>
      </trkpt>
      <trkpt lat="57.81648" lon="24.56949">
        <ele>42.007126</ele>
        <time>2020-10-08T04:34:42.189Z</time>
      </trkpt>
      <trkpt lat="57.81583" lon="24.56996">
        <ele>42.809279</ele>
        <time>2020-10-08T04:35:13.904Z</time>
      </trkpt>
      <trkpt lat="57.81488" lon="24.57046">
        <ele>44.50746</ele>
        <time>2020-10-08T04:36:00.042Z</time>
      </trkpt>
      <trkpt lat="57.81455" lon="24.57063">
        <ele>45.093429</ele>
        <time>2020-10-08T04:36:15.476Z</time>
      </trkpt>
      <trkpt lat="57.80623" lon="24.57483">
        <ele>44.992899</ele>
        <time>2020-10-08T04:39:32.627Z</time>
      </trkpt>
      <trkpt lat="57.80604" lon="24.57528">
        <ele>44.934874</ele>
        <time>2020-10-08T04:39:39.335Z</time>
      </trkpt>
      <trkpt lat="57.80563" lon="24.57496">
        <ele>44.842033</ele>
        <time>2020-10-08T04:39:49.034Z</time>
      </trkpt>
      <trkpt lat="57.80489" lon="24.57437">
        <ele>44.498799</ele>
        <time>2020-10-08T04:40:06.690Z</time>
      </trkpt>
      <trkpt lat="57.8044" lon="24.57393">
        <ele>44.268149</ele>
        <time>2020-10-08T04:40:18.444Z</time>
      </trkpt>
      <trkpt lat="57.80426" lon="24.57372">
        <ele>44.191867</ele>
        <time>2020-10-08T04:40:22.496Z</time>
      </trkpt>
      <trkpt lat="57.80367" lon="24.57201">
        <ele>43.325468</ele>
        <time>2020-10-08T04:40:45.336Z</time>
      </trkpt>
      <trkpt lat="57.80272" lon="24.56963">
        <ele>41.83761</ele>
        <time>2020-10-08T04:41:16.877Z</time>
      </trkpt>
      <trkpt lat="57.80167" lon="24.56836">
        <ele>40.663844</ele>
        <time>2020-10-08T04:41:42.289Z</time>
      </trkpt>
      <trkpt lat="57.80141" lon="24.56654">
        <ele>40.398594</ele>
        <time>2020-10-08T04:42:04.148Z</time>
      </trkpt>
      <trkpt lat="57.80067" lon="24.56457">
        <ele>40.247456</ele>
        <time>2020-10-08T04:42:34.798Z</time>
      </trkpt>
      <trkpt lat="57.79924" lon="24.56448">
        <ele>40.246722</ele>
        <time>2020-10-08T04:43:08.467Z</time>
      </trkpt>
      <trkpt lat="57.79762" lon="24.56394">
        <ele>39.668245</ele>
        <time>2020-10-08T04:43:44.002Z</time>
      </trkpt>
      <trkpt lat="57.79626" lon="24.56393">
        <ele>39.103241</ele>
        <time>2020-10-08T04:44:13.103Z</time>
      </trkpt>
      <trkpt lat="57.79035" lon="24.5652">
        <ele>39.178967</ele>
        <time>2020-10-08T04:46:30.918Z</time>
      </trkpt>
      <trkpt lat="57.78883" lon="24.56553">
        <ele>40.383757</ele>
        <time>2020-10-08T04:47:12.644Z</time>
      </trkpt>
      <trkpt lat="57.78819" lon="24.56562">
        <ele>40.613896</ele>
        <time>2020-10-08T04:47:29.840Z</time>
      </trkpt>
      <trkpt lat="57.7876" lon="24.56513">
        <ele>40.795729</ele>
        <time>2020-10-08T04:47:45.903Z</time>
      </trkpt>
      <trkpt lat="57.78396" lon="24.56265">
        <ele>39.804507</ele>
        <time>2020-10-08T04:49:10.626Z</time>
      </trkpt>
      <trkpt lat="57.7814" lon="24.56211">
        <ele>39.196651</ele>
        <time>2020-10-08T04:50:07.113Z</time>
      </trkpt>
      <trkpt lat="57.7798" lon="24.56144">
        <ele>39.529724</ele>
        <time>2020-10-08T04:50:48.085Z</time>
      </trkpt>
      <trkpt lat="57.77931" lon="24.56084">
        <ele>39.617886</ele>
        <time>2020-10-08T04:51:02.745Z</time>
      </trkpt>
      <trkpt lat="57.77894" lon="24.55989">
        <ele>39.712425</ele>
        <time>2020-10-08T04:51:17.596Z</time>
      </trkpt>
      <trkpt lat="57.77897" lon="24.55953">
        <ele>39.741826</ele>
        <time>2020-10-08T04:51:22.026Z</time>
      </trkpt>
      <trkpt lat="57.77876" lon="24.55808">
        <ele>39.342062</ele>
        <time>2020-10-08T04:51:39.254Z</time>
      </trkpt>
      <trkpt lat="57.77827" lon="24.55697">
        <ele>38.883565</ele>
        <time>2020-10-08T04:51:55.206Z</time>
      </trkpt>
      <trkpt lat="57.77756" lon="24.5552">
        <ele>38.256027</ele>
        <time>2020-10-08T04:52:20.209Z</time>
      </trkpt>
      <trkpt lat="57.77583" lon="24.55591">
        <ele>37.618244</ele>
        <time>2020-10-08T04:52:59.163Z</time>
      </trkpt>
      <trkpt lat="57.77565" lon="24.55525">
        <ele>37.541505</ele>
        <time>2020-10-08T04:53:08.093Z</time>
      </trkpt>
      <trkpt lat="57.77547" lon="24.55467">
        <ele>37.470259</ele>
        <time>2020-10-08T04:53:16.432Z</time>
      </trkpt>
      <trkpt lat="57.77436" lon="24.55139">
        <ele>37.353307</ele>
        <time>2020-10-08T04:54:04.552Z</time>
      </trkpt>
      <trkpt lat="57.77324" lon="24.54801">
        <ele>37.043078</ele>
        <time>2020-10-08T04:54:52.244Z</time>
      </trkpt>
      <trkpt lat="57.77307" lon="24.54762">
        <ele>37.028175</ele>
        <time>2020-10-08T04:54:58.209Z</time>
      </trkpt>
      <trkpt lat="57.77264" lon="24.54679">
        <ele>36.994152</ele>
        <time>2020-10-08T04:55:12.204Z</time>
      </trkpt>
      <trkpt lat="57.77225" lon="24.54602">
        <ele>36.968308</ele>
        <time>2020-10-08T04:55:25.837Z</time>
      </trkpt>
      <trkpt lat="57.7716" lon="24.54466">
        <ele>37.098166</ele>
        <time>2020-10-08T04:55:48.484Z</time>
      </trkpt>
      <trkpt lat="57.77143" lon="24.5444">
        <ele>37.12733</ele>
        <time>2020-10-08T04:55:53.779Z</time>
      </trkpt>
      <trkpt lat="57.7712" lon="24.5441">
        <ele>37.165017</ele>
        <time>2020-10-08T04:56:00.437Z</time>
      </trkpt>
      <trkpt lat="57.77062" lon="24.54355">
        <ele>37.317038</ele>
        <time>2020-10-08T04:56:16.307Z</time>
      </trkpt>
      <trkpt lat="57.77055" lon="24.54369">
        <ele>37.349898</ele>
        <time>2020-10-08T04:56:18.958Z</time>
      </trkpt>
      <trkpt lat="57.77043" lon="24.54418">
        <ele>37.441825</ele>
        <time>2020-10-08T04:56:25.857Z</time>
      </trkpt>
      <trkpt lat="57.77037" lon="24.54434">
        <ele>37.474404</ele>
        <time>2020-10-08T04:56:28.466Z</time>
      </trkpt>
      <trkpt lat="57.77033" lon="24.54444">
        <ele>37.495827</ele>
        <time>2020-10-08T04:56:30.029Z</time>
      </trkpt>
      <trkpt lat="57.77027" lon="24.54453">
        <ele>37.521084</ele>
        <time>2020-10-08T04:56:31.817Z</time>
      </trkpt>
      <trkpt lat="57.77022" lon="24.54456">
        <ele>37.537214</ele>
        <time>2020-10-08T04:56:32.935Z</time>
      </trkpt>
      <trkpt lat="57.76997" lon="24.54434">
        <ele>37.624584</ele>
        <time>2020-10-08T04:56:39.462Z</time>
      </trkpt>
      <trkpt lat="57.76983" lon="24.54434">
        <ele>37.670274</ele>
        <time>2020-10-08T04:56:42.980Z</time>
      </trkpt>
      <trkpt lat="57.76956" lon="24.54534">
        <ele>37.888189</ele>
        <time>2020-10-08T04:56:58.250Z</time>
      </trkpt>
      <trkpt lat="57.76939" lon="24.54517">
        <ele>37.970519</ele>
        <time>2020-10-08T04:57:03.244Z</time>
      </trkpt>
      <trkpt lat="57.76935" lon="24.54501">
        <ele>38.009366</ele>
        <time>2020-10-08T04:57:05.622Z</time>
      </trkpt>
      <trkpt lat="57.76937" lon="24.54473">
        <ele>38.074248</ele>
        <time>2020-10-08T04:57:09.445Z</time>
      </trkpt>
      <trkpt lat="57.76931" lon="24.54452">
        <ele>38.129446</ele>
        <time>2020-10-08T04:57:12.759Z</time>
      </trkpt>
      <trkpt lat="57.76913" lon="24.54436">
        <ele>38.212291</ele>
        <time>2020-10-08T04:57:17.609Z</time>
      </trkpt>
      <trkpt lat="57.76909" lon="24.54433">
        <ele>38.233196</ele>
        <time>2020-10-08T04:57:18.894Z</time>
      </trkpt>
      <trkpt lat="57.76897" lon="24.54426">
        <ele>38.286786</ele>
        <time>2020-10-08T04:57:21.977Z</time>
      </trkpt>
      <trkpt lat="57.76894" lon="24.54424">
        <ele>38.30066</ele>
        <time>2020-10-08T04:57:22.830Z</time>
      </trkpt>
      <trkpt lat="57.76849" lon="24.5442">
        <ele>38.494657</ele>
        <time>2020-10-08T04:57:33.677Z</time>
      </trkpt>
      <trkpt lat="57.76831" lon="24.54412">
        <ele>38.552885</ele>
        <time>2020-10-08T04:57:37.926Z</time>
      </trkpt>
      <trkpt lat="57.76813" lon="24.54447">
        <ele>38.560138</ele>
        <time>2020-10-08T04:57:43.700Z</time>
      </trkpt>
      <trkpt lat="57.76785" lon="24.54489">
        <ele>38.569908</ele>
        <time>2020-10-08T04:57:51.665Z</time>
      </trkpt>
      <trkpt lat="57.76721" lon="24.54592">
        <ele>38.593249</ele>
        <time>2020-10-08T04:58:10.567Z</time>
      </trkpt>
      <trkpt lat="57.76701" lon="24.54626">
        <ele>38.600833</ele>
        <time>2020-10-08T04:58:16.560Z</time>
      </trkpt>
      <trkpt lat="57.76642" lon="24.54722">
        <ele>38.719826</ele>
        <time>2020-10-08T04:58:34.152Z</time>
      </trkpt>
      <trkpt lat="57.76589" lon="24.54821">
        <ele>38.835519</ele>
        <time>2020-10-08T04:58:51.459Z</time>
      </trkpt>
      <trkpt lat="57.76553" lon="24.54913">
        <ele>38.931187</ele>
        <time>2020-10-08T04:59:05.767Z</time>
      </trkpt>
      <trkpt lat="57.76404" lon="24.5554">
        <ele>39.922106</ele>
        <time>2020-10-08T05:00:29.157Z</time>
      </trkpt>
      <trkpt lat="57.76362" lon="24.55716">
        <ele>41.16764</ele>
        <time>2020-10-08T05:00:57.921Z</time>
      </trkpt>
      <trkpt lat="57.76284" lon="24.55644">
        <ele>41.925967</ele>
        <time>2020-10-08T05:01:24.517Z</time>
      </trkpt>
      <trkpt lat="57.76207" lon="24.55562">
        <ele>42.446537</ele>
        <time>2020-10-08T05:01:47.334Z</time>
      </trkpt>
      <trkpt lat="57.7614" lon="24.55909">
        <ele>40.946681</ele>
        <time>2020-10-08T05:02:24.211Z</time>
      </trkpt>
      <trkpt lat="57.76066" lon="24.56308">
        <ele>39.354099</ele>
        <time>2020-10-08T05:03:08.928Z</time>
      </trkpt>
      <trkpt lat="57.76039" lon="24.56439">
        <ele>39.539129</ele>
        <time>2020-10-08T05:03:26.458Z</time>
      </trkpt>
      <trkpt lat="57.75983" lon="24.5674">
        <ele>40.180043</ele>
        <time>2020-10-08T05:04:08.830Z</time>
      </trkpt>
      <trkpt lat="57.75961" lon="24.5682">
        <ele>40.41903</ele>
        <time>2020-10-08T05:04:20.332Z</time>
      </trkpt>
      <trkpt lat="57.75938" lon="24.56904">
        <ele>40.661642</ele>
        <time>2020-10-08T05:04:32.257Z</time>
      </trkpt>
      <trkpt lat="57.75857" lon="24.57147">
        <ele>40.852032</ele>
        <time>2020-10-08T05:05:07.100Z</time>
      </trkpt>
      <trkpt lat="57.75803" lon="24.57286">
        <ele>40.815113</ele>
        <time>2020-10-08T05:05:27.366Z</time>
      </trkpt>
      <trkpt lat="57.75739" lon="24.57434">
        <ele>40.715517</ele>
        <time>2020-10-08T05:05:49.533Z</time>
      </trkpt>
      <trkpt lat="57.75614" lon="24.57705">
        <ele>40.550211</ele>
        <time>2020-10-08T05:06:31.366Z</time>
      </trkpt>
      <trkpt lat="57.75607" lon="24.57719">
        <ele>40.553378</ele>
        <time>2020-10-08T05:06:33.685Z</time>
      </trkpt>
      <trkpt lat="57.75513" lon="24.57901">
        <ele>40.597018</ele>
        <time>2020-10-08T05:07:04.324Z</time>
      </trkpt>
      <trkpt lat="57.75232" lon="24.5837">
        <ele>39.924348</ele>
        <time>2020-10-08T05:08:25.942Z</time>
      </trkpt>
      <trkpt lat="57.75143" lon="24.58557">
        <ele>39.661886</ele>
        <time>2020-10-08T05:08:53.451Z</time>
      </trkpt>
      <trkpt lat="57.75116" lon="24.58626">
        <ele>39.574818</ele>
        <time>2020-10-08T05:09:03.437Z</time>
      </trkpt>
      <trkpt lat="57.75023" lon="24.58864">
        <ele>40.394089</ele>
        <time>2020-10-08T05:09:42.291Z</time>
      </trkpt>
      <trkpt lat="57.74987" lon="24.58932">
        <ele>40.684788</ele>
        <time>2020-10-08T05:09:55.776Z</time>
      </trkpt>
      <trkpt lat="57.74913" lon="24.59043">
        <ele>41.102689</ele>
        <time>2020-10-08T05:10:19.205Z</time>
      </trkpt>
      <trkpt lat="57.74875" lon="24.59085">
        <ele>41.295983</ele>
        <time>2020-10-08T05:10:29.424Z</time>
      </trkpt>
      <trkpt lat="57.74844" lon="24.59109">
        <ele>41.426553</ele>
        <time>2020-10-08T05:10:37.000Z</time>
      </trkpt>
      <trkpt lat="57.74812" lon="24.5913">
        <ele>41.439185</ele>
        <time>2020-10-08T05:10:44.535Z</time>
      </trkpt>
      <trkpt lat="57.74702" lon="24.59173">
        <ele>41.481215</ele>
        <time>2020-10-08T05:11:09.180Z</time>
      </trkpt>
      <trkpt lat="57.74465" lon="24.59232">
        <ele>41.895245</ele>
        <time>2020-10-08T05:12:04.294Z</time>
      </trkpt>
      <trkpt lat="57.74394" lon="24.59259">
        <ele>42.0529</ele>
        <time>2020-10-08T05:12:21.213Z</time>
      </trkpt>
      <trkpt lat="57.74328" lon="24.59297">
        <ele>42.202945</ele>
        <time>2020-10-08T05:12:37.266Z</time>
      </trkpt>
      <trkpt lat="57.74262" lon="24.59344">
        <ele>42.341736</ele>
        <time>2020-10-08T05:12:53.616Z</time>
      </trkpt>
      <trkpt lat="57.73787" lon="24.59727">
        <ele>43.315125</ele>
        <time>2020-10-08T05:14:52.411Z</time>
      </trkpt>
      <trkpt lat="57.73675" lon="24.59834">
        <ele>43.569029</ele>
        <time>2020-10-08T05:15:21.642Z</time>
      </trkpt>
      <trkpt lat="57.72817" lon="24.60842">
        <ele>44.550977</ele>
        <time>2020-10-08T05:19:12.329Z</time>
      </trkpt>
      <trkpt lat="57.7277" lon="24.60882">
        <ele>44.482143</ele>
        <time>2020-10-08T05:19:23.342Z</time>
      </trkpt>
      <trkpt lat="57.7276" lon="24.6089">
        <ele>44.468527</ele>
        <time>2020-10-08T05:19:25.411Z</time>
      </trkpt>
      <trkpt lat="57.72677" lon="24.60933">
        <ele>43.936685</ele>
        <time>2020-10-08T05:19:43.049Z</time>
      </trkpt>
      <trkpt lat="57.72629" lon="24.60944">
        <ele>43.572235</ele>
        <time>2020-10-08T05:19:52.509Z</time>
      </trkpt>
      <trkpt lat="57.72603" lon="24.6095">
        <ele>43.373965</ele>
        <time>2020-10-08T05:19:57.575Z</time>
      </trkpt>
      <trkpt lat="57.7251" lon="24.6097">
        <ele>42.647577</ele>
        <time>2020-10-08T05:20:15.831Z</time>
      </trkpt>
      <trkpt lat="57.7249" lon="24.60974">
        <ele>42.486215</ele>
        <time>2020-10-08T05:20:19.709Z</time>
      </trkpt>
      <trkpt lat="57.72198" lon="24.61053">
        <ele>40.476099</ele>
        <time>2020-10-08T05:21:19.040Z</time>
      </trkpt>
      <trkpt lat="57.7209" lon="24.61106">
        <ele>40.374342</ele>
        <time>2020-10-08T05:21:43.418Z</time>
      </trkpt>
      <trkpt lat="57.72017" lon="24.61161">
        <ele>40.409512</ele>
        <time>2020-10-08T05:22:01.419Z</time>
      </trkpt>
      <trkpt lat="57.71939" lon="24.61233">
        <ele>40.761696</ele>
        <time>2020-10-08T05:22:22.081Z</time>
      </trkpt>
      <trkpt lat="57.71879" lon="24.61306">
        <ele>41.052444</ele>
        <time>2020-10-08T05:22:39.439Z</time>
      </trkpt>
      <trkpt lat="57.71817" lon="24.6139">
        <ele>41.51452</ele>
        <time>2020-10-08T05:22:58.303Z</time>
      </trkpt>
      <trkpt lat="57.71709" lon="24.6157">
        <ele>42.370785</ele>
        <time>2020-10-08T05:23:34.320Z</time>
      </trkpt>
      <trkpt lat="57.71626" lon="24.6177">
        <ele>43.119255</ele>
        <time>2020-10-08T05:24:07.495Z</time>
      </trkpt>
      <trkpt lat="57.71586" lon="24.61892">
        <ele>43.151512</ele>
        <time>2020-10-08T05:24:25.398Z</time>
      </trkpt>
      <trkpt lat="57.71561" lon="24.61996">
        <ele>43.163355</ele>
        <time>2020-10-08T05:24:38.947Z</time>
      </trkpt>
      <trkpt lat="57.71397" lon="24.62825">
        <ele>41.650566</ele>
        <time>2020-10-08T05:26:17.191Z</time>
      </trkpt>
      <trkpt lat="57.71306" lon="24.63352">
        <ele>42.454976</ele>
        <time>2020-10-08T05:27:27.767Z</time>
      </trkpt>
      <trkpt lat="57.71263" lon="24.6352">
        <ele>43.03951</ele>
        <time>2020-10-08T05:27:52.224Z</time>
      </trkpt>
      <trkpt lat="57.71163" lon="24.63817">
        <ele>44.123977</ele>
        <time>2020-10-08T05:28:38.812Z</time>
      </trkpt>
      <trkpt lat="57.71104" lon="24.63985">
        <ele>44.694556</ele>
        <time>2020-10-08T05:29:04.907Z</time>
      </trkpt>
      <trkpt lat="57.7103" lon="24.64195">
        <ele>45.309215</ele>
        <time>2020-10-08T05:29:37.278Z</time>
      </trkpt>
      <trkpt lat="57.70918" lon="24.64518">
        <ele>46.043499</ele>
        <time>2020-10-08T05:30:26.892Z</time>
      </trkpt>
      <trkpt lat="57.7085" lon="24.64685">
        <ele>45.664999</ele>
        <time>2020-10-08T05:30:50.850Z</time>
      </trkpt>
      <trkpt lat="57.70799" lon="24.64766">
        <ele>45.355337</ele>
        <time>2020-10-08T05:31:03.988Z</time>
      </trkpt>
      <trkpt lat="57.70738" lon="24.6484">
        <ele>44.754235</ele>
        <time>2020-10-08T05:31:17.992Z</time>
      </trkpt>
      <trkpt lat="57.70665" lon="24.64906">
        <ele>44.092872</ele>
        <time>2020-10-08T05:31:33.884Z</time>
      </trkpt>
      <trkpt lat="57.70611" lon="24.64945">
        <ele>44.221647</ele>
        <time>2020-10-08T05:31:46.170Z</time>
      </trkpt>
      <trkpt lat="57.70314" lon="24.65167">
        <ele>46.096161</ele>
        <time>2020-10-08T05:33:07.419Z</time>
      </trkpt>
      <trkpt lat="57.70312" lon="24.65195">
        <ele>46.079697</ele>
        <time>2020-10-08T05:33:10.979Z</time>
      </trkpt>
      <trkpt lat="57.70308" lon="24.65267">
        <ele>46.037353</ele>
        <time>2020-10-08T05:33:20.026Z</time>
      </trkpt>
      <trkpt lat="57.70307" lon="24.65281">
        <ele>46.029544</ele>
        <time>2020-10-08T05:33:21.734Z</time>
      </trkpt>
      <trkpt lat="57.70307" lon="24.65367">
        <ele>45.97949</ele>
        <time>2020-10-08T05:33:32.018Z</time>
      </trkpt>
      <trkpt lat="57.70315" lon="24.65456">
        <ele>45.927168</ele>
        <time>2020-10-08T05:33:42.085Z</time>
      </trkpt>
      <trkpt lat="57.70316" lon="24.65463">
        <ele>45.923095</ele>
        <time>2020-10-08T05:33:42.701Z</time>
      </trkpt>
      <trkpt lat="57.70349" lon="24.65639">
        <ele>45.453717</ele>
        <time>2020-10-08T05:34:02.047Z</time>
      </trkpt>
      <trkpt lat="57.70365" lon="24.65724">
        <ele>45.203615</ele>
        <time>2020-10-08T05:34:11.248Z</time>
      </trkpt>
      <trkpt lat="57.70373" lon="24.65819">
        <ele>45.032758</ele>
        <time>2020-10-08T05:34:23.944Z</time>
      </trkpt>
      <trkpt lat="57.70378" lon="24.65899">
        <ele>45.342022</ele>
        <time>2020-10-08T05:34:34.763Z</time>
      </trkpt>
      <trkpt lat="57.7038" lon="24.65994">
        <ele>45.711711</ele>
        <time>2020-10-08T05:34:47.666Z</time>
      </trkpt>
      <trkpt lat="57.7038" lon="24.66002">
        <ele>45.743374</ele>
        <time>2020-10-08T05:34:49.088Z</time>
      </trkpt>
      <trkpt lat="57.70381" lon="24.6608">
        <ele>46.04182</ele>
        <time>2020-10-08T05:35:00.095Z</time>
      </trkpt>
      <trkpt lat="57.70378" lon="24.66207">
        <ele>46.26774</ele>
        <time>2020-10-08T05:35:17.036Z</time>
      </trkpt>
      <trkpt lat="57.70364" lon="24.66337">
        <ele>46.251217</ele>
        <time>2020-10-08T05:35:33.726Z</time>
      </trkpt>
      <trkpt lat="57.70341" lon="24.66422">
        <ele>46.239248</ele>
        <time>2020-10-08T05:35:43.763Z</time>
      </trkpt>
      <trkpt lat="57.70333" lon="24.66452">
        <ele>46.235031</ele>
        <time>2020-10-08T05:35:47.337Z</time>
      </trkpt>
      <trkpt lat="57.70316" lon="24.66511">
        <ele>46.30442</ele>
        <time>2020-10-08T05:35:54.547Z</time>
      </trkpt>
      <trkpt lat="57.70295" lon="24.66582">
        <ele>46.400518</ele>
        <time>2020-10-08T05:36:03.756Z</time>
      </trkpt>
      <trkpt lat="57.70269" lon="24.66655">
        <ele>46.506052</ele>
        <time>2020-10-08T05:36:14.910Z</time>
      </trkpt>
      <trkpt lat="57.70249" lon="24.66687">
        <ele>46.564196</ele>
        <time>2020-10-08T05:36:21.638Z</time>
      </trkpt>
      <trkpt lat="57.70243" lon="24.66696">
        <ele>46.580871</ele>
        <time>2020-10-08T05:36:23.655Z</time>
      </trkpt>
      <trkpt lat="57.70222" lon="24.66729">
        <ele>46.666514</ele>
        <time>2020-10-08T05:36:30.982Z</time>
      </trkpt>
      <trkpt lat="57.70205" lon="24.66755">
        <ele>46.906787</ele>
        <time>2020-10-08T05:36:36.804Z</time>
      </trkpt>
      <trkpt lat="57.70192" lon="24.66778">
        <ele>47.10777</ele>
        <time>2020-10-08T05:36:41.691Z</time>
      </trkpt>
      <trkpt lat="57.70186" lon="24.66789">
        <ele>47.195727</ele>
        <time>2020-10-08T05:36:43.874Z</time>
      </trkpt>
      <trkpt lat="57.70175" lon="24.66813">
        <ele>47.384178</ele>
        <time>2020-10-08T05:36:48.550Z</time>
      </trkpt>
      <trkpt lat="57.70158" lon="24.66844">
        <ele>47.644457</ele>
        <time>2020-10-08T05:36:55.035Z</time>
      </trkpt>
      <trkpt lat="57.70148" lon="24.66863">
        <ele>47.79943</ele>
        <time>2020-10-08T05:36:58.946Z</time>
      </trkpt>
      <trkpt lat="57.70091" lon="24.66966">
        <ele>48.643045</ele>
        <time>2020-10-08T05:37:20.586Z</time>
      </trkpt>
      <trkpt lat="57.6999" lon="24.67201">
        <ele>49.635221</ele>
        <time>2020-10-08T05:37:59.593Z</time>
      </trkpt>
      <trkpt lat="57.69983" lon="24.67211">
        <ele>49.688796</ele>
        <time>2020-10-08T05:38:02.034Z</time>
      </trkpt>
      <trkpt lat="57.69987" lon="24.67225">
        <ele>49.744237</ele>
        <time>2020-10-08T05:38:04.302Z</time>
      </trkpt>
      <trkpt lat="57.69983" lon="24.67211">
        <ele>49.806979</ele>
        <time>2020-10-08T05:38:07.060Z</time>
      </trkpt>
      <trkpt lat="57.69974" lon="24.67223">
        <ele>49.895713</ele>
        <time>2020-10-08T05:38:09.493Z</time>
      </trkpt>
      <trkpt lat="57.69914" lon="24.67266">
        <ele>50.390935</ele>
        <time>2020-10-08T05:38:25.547Z</time>
      </trkpt>
      <trkpt lat="57.69908" lon="24.67271">
        <ele>50.445744</ele>
        <time>2020-10-08T05:38:27.053Z</time>
      </trkpt>
      <trkpt lat="57.69898" lon="24.67278">
        <ele>50.528545</ele>
        <time>2020-10-08T05:38:30.122Z</time>
      </trkpt>
      <trkpt lat="57.69849" lon="24.67336">
        <ele>50.975182</ele>
        <time>2020-10-08T05:38:44.783Z</time>
      </trkpt>
      <trkpt lat="57.69735" lon="24.67458">
        <ele>52.339543</ele>
        <time>2020-10-08T05:39:19.836Z</time>
      </trkpt>
      <trkpt lat="57.69713" lon="24.67481">
        <ele>52.609255</ele>
        <time>2020-10-08T05:39:26.676Z</time>
      </trkpt>
      <trkpt lat="57.697" lon="24.67492">
        <ele>52.768389</ele>
        <time>2020-10-08T05:39:30.817Z</time>
      </trkpt>
      <trkpt lat="57.6966" lon="24.67525">
        <ele>53.160187</ele>
        <time>2020-10-08T05:39:42.519Z</time>
      </trkpt>
      <trkpt lat="57.6965" lon="24.67534">
        <ele>53.227331</ele>
        <time>2020-10-08T05:39:45.282Z</time>
      </trkpt>
      <trkpt lat="57.69631" lon="24.6755">
        <ele>53.354704</ele>
        <time>2020-10-08T05:39:50.808Z</time>
      </trkpt>
      <trkpt lat="57.69598" lon="24.67587">
        <ele>53.59213</ele>
        <time>2020-10-08T05:40:00.520Z</time>
      </trkpt>
      <trkpt lat="57.69573" lon="24.67623">
        <ele>53.786634</ele>
        <time>2020-10-08T05:40:08.302Z</time>
      </trkpt>
      <trkpt lat="57.69538" lon="24.67498">
        <ele>54.051289</ele>
        <time>2020-10-08T05:40:26.133Z</time>
      </trkpt>
      <trkpt lat="57.69498" lon="24.67351">
        <ele>53.415649</ele>
        <time>2020-10-08T05:40:44.545Z</time>
      </trkpt>
      <trkpt lat="57.69485" lon="24.67293">
        <ele>53.173888</ele>
        <time>2020-10-08T05:40:50.905Z</time>
      </trkpt>
      <trkpt lat="57.69446" lon="24.67149">
        <ele>52.219028</ele>
        <time>2020-10-08T05:41:06.694Z</time>
      </trkpt>
      <trkpt lat="57.69418" lon="24.6703">
        <ele>51.185732</ele>
        <time>2020-10-08T05:41:19.216Z</time>
      </trkpt>
      <trkpt lat="57.69398" lon="24.66937">
        <ele>50.385645</ele>
        <time>2020-10-08T05:41:29.075Z</time>
      </trkpt>
      <trkpt lat="57.69364" lon="24.66756">
        <ele>49.763517</ele>
        <time>2020-10-08T05:41:49.259Z</time>
      </trkpt>
      <trkpt lat="57.69343" lon="24.66616">
        <ele>49.397606</ele>
        <time>2020-10-08T05:42:06.267Z</time>
      </trkpt>
      <trkpt lat="57.69304" lon="24.66329">
        <ele>49.988524</ele>
        <time>2020-10-08T05:42:43.913Z</time>
      </trkpt>
      <trkpt lat="57.69275" lon="24.66122">
        <ele>50.644869</ele>
        <time>2020-10-08T05:43:13.587Z</time>
      </trkpt>
      <trkpt lat="57.69253" lon="24.65954">
        <ele>51.225307</ele>
        <time>2020-10-08T05:43:36.548Z</time>
      </trkpt>
      <trkpt lat="57.69252" lon="24.65928">
        <ele>51.256171</ele>
        <time>2020-10-08T05:43:40.187Z</time>
      </trkpt>
      <trkpt lat="57.69024" lon="24.6609">
        <ele>50.540628</ele>
        <time>2020-10-08T05:44:30.228Z</time>
      </trkpt>
      <trkpt lat="57.6902" lon="24.66093">
        <ele>50.533253</ele>
        <time>2020-10-08T05:44:30.956Z</time>
      </trkpt>
      <trkpt lat="57.68302" lon="24.66616">
        <ele>49.650007</ele>
        <time>2020-10-08T05:47:18.883Z</time>
      </trkpt>
      <trkpt lat="57.68153" lon="24.6668">
        <ele>50.588989</ele>
        <time>2020-10-08T05:47:58.763Z</time>
      </trkpt>
      <trkpt lat="57.68068" lon="24.66709">
        <ele>51.270758</ele>
        <time>2020-10-08T05:48:21.016Z</time>
      </trkpt>
      <trkpt lat="57.68053" lon="24.66715">
        <ele>51.281228</ele>
        <time>2020-10-08T05:48:25.057Z</time>
      </trkpt>
      <trkpt lat="57.67827" lon="24.66794">
        <ele>51.157213</ele>
        <time>2020-10-08T05:49:15.312Z</time>
      </trkpt>
      <trkpt lat="57.6779" lon="24.66806">
        <ele>51.036814</ele>
        <time>2020-10-08T05:49:22.850Z</time>
      </trkpt>
      <trkpt lat="57.6765" lon="24.66855">
        <ele>50.632944</ele>
        <time>2020-10-08T05:49:52.552Z</time>
      </trkpt>
      <trkpt lat="57.67533" lon="24.66894">
        <ele>50.389139</ele>
        <time>2020-10-08T05:50:18.417Z</time>
      </trkpt>
      <trkpt lat="57.67471" lon="24.66916">
        <ele>50.485694</ele>
        <time>2020-10-08T05:50:32.783Z</time>
      </trkpt>
      <trkpt lat="57.67217" lon="24.6701">
        <ele>50.865825</ele>
        <time>2020-10-08T05:51:32.854Z</time>
      </trkpt>
      <trkpt lat="57.67106" lon="24.67058">
        <ele>50.659094</ele>
        <time>2020-10-08T05:51:57.350Z</time>
      </trkpt>
      <trkpt lat="57.67003" lon="24.671">
        <ele>50.377244</ele>
        <time>2020-10-08T05:52:19.273Z</time>
      </trkpt>
      <trkpt lat="57.66936" lon="24.67129">
        <ele>50.333517</ele>
        <time>2020-10-08T05:52:33.848Z</time>
      </trkpt>
      <trkpt lat="57.66801" lon="24.67187">
        <ele>50.404376</ele>
        <time>2020-10-08T05:53:05.645Z</time>
      </trkpt>
      <trkpt lat="57.66701" lon="24.67223">
        <ele>50.760327</ele>
        <time>2020-10-08T05:53:30.264Z</time>
      </trkpt>
      <trkpt lat="57.6664" lon="24.67235">
        <ele>50.931712</ele>
        <time>2020-10-08T05:53:44.487Z</time>
      </trkpt>
      <trkpt lat="57.66583" lon="24.67238">
        <ele>51.02409</ele>
        <time>2020-10-08T05:53:57.664Z</time>
      </trkpt>
      <trkpt lat="57.66563" lon="24.67239">
        <ele>51.057091</ele>
        <time>2020-10-08T05:54:02.332Z</time>
      </trkpt>
      <trkpt lat="57.66502" lon="24.67242">
        <ele>51.154647</ele>
        <time>2020-10-08T05:54:16.078Z</time>
      </trkpt>
      <trkpt lat="57.66473" lon="24.67236">
        <ele>51.195595</ele>
        <time>2020-10-08T05:54:22.794Z</time>
      </trkpt>
      <trkpt lat="57.66444" lon="24.67227">
        <ele>51.220362</ele>
        <time>2020-10-08T05:54:29.372Z</time>
      </trkpt>
      <trkpt lat="57.66371" lon="24.67191">
        <ele>51.284596</ele>
        <time>2020-10-08T05:54:46.416Z</time>
      </trkpt>
      <trkpt lat="57.66221" lon="24.67088">
        <ele>51.366483</ele>
        <time>2020-10-08T05:55:22.307Z</time>
      </trkpt>
      <trkpt lat="57.65373" lon="24.66354">
        <ele>51.12129</ele>
        <time>2020-10-08T05:58:50.288Z</time>
      </trkpt>
      <trkpt lat="57.65297" lon="24.66294">
        <ele>51.016548</ele>
        <time>2020-10-08T05:59:07.371Z</time>
      </trkpt>
      <trkpt lat="57.65246" lon="24.66254">
        <ele>50.96534</ele>
        <time>2020-10-08T05:59:19.039Z</time>
      </trkpt>
      <trkpt lat="57.65002" lon="24.66097">
        <ele>51.205047</ele>
        <time>2020-10-08T06:00:18.321Z</time>
      </trkpt>
      <trkpt lat="57.64203" lon="24.65558">
        <ele>52.905059</ele>
        <time>2020-10-08T06:03:34.786Z</time>
      </trkpt>
      <trkpt lat="57.64076" lon="24.65473">
        <ele>52.687934</ele>
        <time>2020-10-08T06:04:04.646Z</time>
      </trkpt>
      <trkpt lat="57.63966" lon="24.65399">
        <ele>52.153575</ele>
        <time>2020-10-08T06:04:28.397Z</time>
      </trkpt>
      <trkpt lat="57.63727" lon="24.65238">
        <ele>50.342252</ele>
        <time>2020-10-08T06:05:18.181Z</time>
      </trkpt>
      <trkpt lat="57.63682" lon="24.65214">
        <ele>50.133808</ele>
        <time>2020-10-08T06:05:28.024Z</time>
      </trkpt>
      <trkpt lat="57.63654" lon="24.65199">
        <ele>50.000436</ele>
        <time>2020-10-08T06:05:34.556Z</time>
      </trkpt>
      <trkpt lat="57.63599" lon="24.6518">
        <ele>49.951845</ele>
        <time>2020-10-08T06:05:47.047Z</time>
      </trkpt>
      <trkpt lat="57.63547" lon="24.65169">
        <ele>50.031334</ele>
        <time>2020-10-08T06:05:59.336Z</time>
      </trkpt>
      <trkpt lat="57.63489" lon="24.65175">
        <ele>50.118523</ele>
        <time>2020-10-08T06:06:12.924Z</time>
      </trkpt>
      <trkpt lat="57.63438" lon="24.6519">
        <ele>50.15345</ele>
        <time>2020-10-08T06:06:24.623Z</time>
      </trkpt>
      <trkpt lat="57.6336" lon="24.65227">
        <ele>50.062116</ele>
        <time>2020-10-08T06:06:42.340Z</time>
      </trkpt>
      <trkpt lat="57.63158" lon="24.65369">
        <ele>49.715112</ele>
        <time>2020-10-08T06:07:28.124Z</time>
      </trkpt>
      <trkpt lat="57.63072" lon="24.654">
        <ele>49.682475</ele>
        <time>2020-10-08T06:07:47.847Z</time>
      </trkpt>
      <trkpt lat="57.63004" lon="24.65414">
        <ele>49.781599</ele>
        <time>2020-10-08T06:08:03.557Z</time>
      </trkpt>
      <trkpt lat="57.62964" lon="24.65424">
        <ele>49.840544</ele>
        <time>2020-10-08T06:08:13.094Z</time>
      </trkpt>
      <trkpt lat="57.62778" lon="24.65464">
        <ele>50.199192</ele>
        <time>2020-10-08T06:08:56.575Z</time>
      </trkpt>
      <trkpt lat="57.62749" lon="24.65474">
        <ele>50.239316</ele>
        <time>2020-10-08T06:09:03.287Z</time>
      </trkpt>
      <trkpt lat="57.62744" lon="24.65475">
        <ele>50.233546</ele>
        <time>2020-10-08T06:09:04.267Z</time>
      </trkpt>
      <trkpt lat="57.62663" lon="24.65519">
        <ele>50.132235</ele>
        <time>2020-10-08T06:09:22.567Z</time>
      </trkpt>
      <trkpt lat="57.6252" lon="24.65621">
        <ele>50.042917</ele>
        <time>2020-10-08T06:09:55.561Z</time>
      </trkpt>
      <trkpt lat="57.62502" lon="24.65635">
        <ele>50.046793</ele>
        <time>2020-10-08T06:09:59.854Z</time>
      </trkpt>
      <trkpt lat="57.62396" lon="24.65717">
        <ele>50.180021</ele>
        <time>2020-10-08T06:10:26.265Z</time>
      </trkpt>
      <trkpt lat="57.62334" lon="24.65755">
        <ele>50.509866</ele>
        <time>2020-10-08T06:10:42.426Z</time>
      </trkpt>
      <trkpt lat="57.62301" lon="24.65767">
        <ele>50.677954</ele>
        <time>2020-10-08T06:10:50.706Z</time>
      </trkpt>
      <trkpt lat="57.62227" lon="24.65793">
        <ele>51.0304</ele>
        <time>2020-10-08T06:11:09.390Z</time>
      </trkpt>
      <trkpt lat="57.62055" lon="24.65864">
        <ele>51.638866</ele>
        <time>2020-10-08T06:11:50.938Z</time>
      </trkpt>
      <trkpt lat="57.61973" lon="24.65887">
        <ele>51.889096</ele>
        <time>2020-10-08T06:12:09.352Z</time>
      </trkpt>
      <trkpt lat="57.61872" lon="24.65927">
        <ele>52.283344</ele>
        <time>2020-10-08T06:12:34.264Z</time>
      </trkpt>
      <trkpt lat="57.61818" lon="24.65939">
        <ele>52.669263</ele>
        <time>2020-10-08T06:12:48.011Z</time>
      </trkpt>
      <trkpt lat="57.61811" lon="24.6594">
        <ele>52.718293</ele>
        <time>2020-10-08T06:12:49.871Z</time>
      </trkpt>
      <trkpt lat="57.61745" lon="24.65949">
        <ele>53.18714</ele>
        <time>2020-10-08T06:13:06.795Z</time>
      </trkpt>
      <trkpt lat="57.61688" lon="24.6595">
        <ele>53.470666</ele>
        <time>2020-10-08T06:13:21.448Z</time>
      </trkpt>
      <trkpt lat="57.61543" lon="24.65917">
        <ele>53.796568</ele>
        <time>2020-10-08T06:13:55.281Z</time>
      </trkpt>
      <trkpt lat="57.61226" lon="24.65806">
        <ele>52.418194</ele>
        <time>2020-10-08T06:15:01.260Z</time>
      </trkpt>
      <trkpt lat="57.6116" lon="24.65773">
        <ele>52.198568</ele>
        <time>2020-10-08T06:15:15.900Z</time>
      </trkpt>
      <trkpt lat="57.61122" lon="24.65748">
        <ele>52.171167</ele>
        <time>2020-10-08T06:15:24.705Z</time>
      </trkpt>
      <trkpt lat="57.61083" lon="24.65718">
        <ele>52.141954</ele>
        <time>2020-10-08T06:15:34.225Z</time>
      </trkpt>
      <trkpt lat="57.61049" lon="24.65693">
        <ele>52.117355</ele>
        <time>2020-10-08T06:15:42.315Z</time>
      </trkpt>
      <trkpt lat="57.61027" lon="24.65674">
        <ele>52.100955</ele>
        <time>2020-10-08T06:15:47.710Z</time>
      </trkpt>
      <trkpt lat="57.61006" lon="24.65656">
        <ele>52.088543</ele>
        <time>2020-10-08T06:15:52.891Z</time>
      </trkpt>
      <trkpt lat="57.60996" lon="24.65649">
        <ele>52.085918</ele>
        <time>2020-10-08T06:15:55.323Z</time>
      </trkpt>
      <trkpt lat="57.60965" lon="24.65635">
        <ele>52.078281</ele>
        <time>2020-10-08T06:16:02.248Z</time>
      </trkpt>
      <trkpt lat="57.6092" lon="24.65629">
        <ele>52.067506</ele>
        <time>2020-10-08T06:16:12.023Z</time>
      </trkpt>
      <trkpt lat="57.60741" lon="24.65652">
        <ele>52.195788</ele>
        <time>2020-10-08T06:16:52.555Z</time>
      </trkpt>
      <trkpt lat="57.60598" lon="24.65665">
        <ele>52.370697</ele>
        <time>2020-10-08T06:17:25.913Z</time>
      </trkpt>
      <trkpt lat="57.60305" lon="24.65693">
        <ele>52.350851</ele>
        <time>2020-10-08T06:18:30.910Z</time>
      </trkpt>
      <trkpt lat="57.60262" lon="24.6571">
        <ele>52.305032</ele>
        <time>2020-10-08T06:18:40.273Z</time>
      </trkpt>
      <trkpt lat="57.60224" lon="24.65748">
        <ele>52.256148</ele>
        <time>2020-10-08T06:18:49.593Z</time>
      </trkpt>
      <trkpt lat="57.60168" lon="24.65824">
        <ele>52.177426</ele>
        <time>2020-10-08T06:19:04.791Z</time>
      </trkpt>
      <trkpt lat="57.60052" lon="24.6598">
        <ele>52.252319</ele>
        <time>2020-10-08T06:19:36.711Z</time>
      </trkpt>
      <trkpt lat="57.6002" lon="24.66014">
        <ele>52.287984</ele>
        <time>2020-10-08T06:19:45.149Z</time>
      </trkpt>
      <trkpt lat="57.59998" lon="24.66029">
        <ele>52.31122</ele>
        <time>2020-10-08T06:19:50.630Z</time>
      </trkpt>
      <trkpt lat="57.59978" lon="24.66034">
        <ele>52.359274</ele>
        <time>2020-10-08T06:19:55.221Z</time>
      </trkpt>
      <trkpt lat="57.59264" lon="24.65925">
        <ele>54.773277</ele>
        <time>2020-10-08T06:22:44.693Z</time>
      </trkpt>
      <trkpt lat="57.59225" lon="24.65931">
        <ele>54.871563</ele>
        <time>2020-10-08T06:22:53.988Z</time>
      </trkpt>
      <trkpt lat="57.59018" lon="24.66045">
        <ele>55.188988</ele>
        <time>2020-10-08T06:23:43.998Z</time>
      </trkpt>
      <trkpt lat="57.58684" lon="24.66075">
        <ele>55.161993</ele>
        <time>2020-10-08T06:24:55.695Z</time>
      </trkpt>
      <trkpt lat="57.58639" lon="24.66076">
        <ele>55.458567</ele>
        <time>2020-10-08T06:25:06.684Z</time>
      </trkpt>
      <trkpt lat="57.58622" lon="24.6607">
        <ele>55.578128</ele>
        <time>2020-10-08T06:25:11.548Z</time>
      </trkpt>
      <trkpt lat="57.58604" lon="24.66062">
        <ele>55.698469</ele>
        <time>2020-10-08T06:25:16.095Z</time>
      </trkpt>
      <trkpt lat="57.58488" lon="24.66">
        <ele>57.303724</ele>
        <time>2020-10-08T06:25:50.820Z</time>
      </trkpt>
      <trkpt lat="57.58342" lon="24.65924">
        <ele>59.624932</ele>
        <time>2020-10-08T06:26:35.507Z</time>
      </trkpt>
      <trkpt lat="57.58315" lon="24.65912">
        <ele>59.982169</ele>
        <time>2020-10-08T06:26:43.300Z</time>
      </trkpt>
      <trkpt lat="57.58271" lon="24.6593">
        <ele>60.558251</ele>
        <time>2020-10-08T06:26:55.652Z</time>
      </trkpt>
      <trkpt lat="57.58105" lon="24.66096">
        <ele>61.919279</ele>
        <time>2020-10-08T06:27:42.412Z</time>
      </trkpt>
      <trkpt lat="57.58034" lon="24.66149">
        <ele>62.093956</ele>
        <time>2020-10-08T06:27:59.789Z</time>
      </trkpt>
      <trkpt lat="57.57951" lon="24.66197">
        <ele>61.924823</ele>
        <time>2020-10-08T06:28:18.756Z</time>
      </trkpt>
      <trkpt lat="57.57782" lon="24.66267">
        <ele>61.3129</ele>
        <time>2020-10-08T06:28:54.602Z</time>
      </trkpt>
      <trkpt lat="57.57764" lon="24.66271">
        <ele>61.230403</ele>
        <time>2020-10-08T06:28:58.365Z</time>
      </trkpt>
      <trkpt lat="57.57697" lon="24.66283">
        <ele>60.960987</ele>
        <time>2020-10-08T06:29:12.069Z</time>
      </trkpt>
      <trkpt lat="57.57262" lon="24.66337">
        <ele>59.719368</ele>
        <time>2020-10-08T06:30:45.114Z</time>
      </trkpt>
      <trkpt lat="57.57218" lon="24.66343">
        <ele>59.567243</ele>
        <time>2020-10-08T06:30:54.548Z</time>
      </trkpt>
      <trkpt lat="57.57149" lon="24.66357">
        <ele>59.32106</ele>
        <time>2020-10-08T06:31:09.026Z</time>
      </trkpt>
      <trkpt lat="57.56968" lon="24.66426">
        <ele>58.686565</ele>
        <time>2020-10-08T06:31:47.496Z</time>
      </trkpt>
      <trkpt lat="57.56727" lon="24.66522">
        <ele>58.28475</ele>
        <time>2020-10-08T06:32:41.444Z</time>
      </trkpt>
      <trkpt lat="57.56538" lon="24.66597">
        <ele>58.018633</ele>
        <time>2020-10-08T06:33:23.146Z</time>
      </trkpt>
      <trkpt lat="57.56365" lon="24.66668">
        <ele>58.12093</ele>
        <time>2020-10-08T06:34:02.113Z</time>
      </trkpt>
      <trkpt lat="57.56129" lon="24.66759">
        <ele>59.559911</ele>
        <time>2020-10-08T06:35:01.720Z</time>
      </trkpt>
      <trkpt lat="57.55709" lon="24.66931">
        <ele>64.963303</ele>
        <time>2020-10-08T06:37:04.735Z</time>
      </trkpt>
      <trkpt lat="57.55346" lon="24.67069">
        <ele>61.416267</ele>
        <time>2020-10-08T06:38:13.869Z</time>
      </trkpt>
      <trkpt lat="57.55137" lon="24.67174">
        <ele>59.899625</ele>
        <time>2020-10-08T06:38:57.321Z</time>
      </trkpt>
      <trkpt lat="57.55072" lon="24.67211">
        <ele>59.587487</ele>
        <time>2020-10-08T06:39:11.754Z</time>
      </trkpt>
      <trkpt lat="57.54999" lon="24.67267">
        <ele>59.749271</ele>
        <time>2020-10-08T06:39:29.403Z</time>
      </trkpt>
      <trkpt lat="57.54929" lon="24.67321">
        <ele>59.938334</ele>
        <time>2020-10-08T06:39:47.271Z</time>
      </trkpt>
      <trkpt lat="57.54891" lon="24.6735">
        <ele>60.113647</ele>
        <time>2020-10-08T06:39:57.410Z</time>
      </trkpt>
      <trkpt lat="57.54657" lon="24.67563">
        <ele>62.729211</ele>
        <time>2020-10-08T06:41:06.103Z</time>
      </trkpt>
      <trkpt lat="57.5455" lon="24.67683">
        <ele>63.984583</ele>
        <time>2020-10-08T06:41:40.420Z</time>
      </trkpt>
      <trkpt lat="57.54383" lon="24.67892">
        <ele>64.524578</ele>
        <time>2020-10-08T06:42:29.268Z</time>
      </trkpt>
      <trkpt lat="57.54359" lon="24.67923">
        <ele>64.29942</ele>
        <time>2020-10-08T06:42:34.965Z</time>
      </trkpt>
      <trkpt lat="57.54125" lon="24.68216">
        <ele>61.138545</ele>
        <time>2020-10-08T06:43:26.695Z</time>
      </trkpt>
      <trkpt lat="57.54057" lon="24.68291">
        <ele>61.506006</ele>
        <time>2020-10-08T06:43:44.086Z</time>
      </trkpt>
      <trkpt lat="57.53911" lon="24.68435">
        <ele>63.093017</ele>
        <time>2020-10-08T06:44:30.394Z</time>
      </trkpt>
      <trkpt lat="57.53767" lon="24.68561">
        <ele>65.235134</ele>
        <time>2020-10-08T06:45:16.886Z</time>
      </trkpt>
      <trkpt lat="57.537" lon="24.68606">
        <ele>65.856007</ele>
        <time>2020-10-08T06:45:34.996Z</time>
      </trkpt>
      <trkpt lat="57.53549" lon="24.68685">
        <ele>66.408293</ele>
        <time>2020-10-08T06:46:10.607Z</time>
      </trkpt>
      <trkpt lat="57.53497" lon="24.68712">
        <ele>66.440131</ele>
        <time>2020-10-08T06:46:22.450Z</time>
      </trkpt>
      <trkpt lat="57.53393" lon="24.68767">
        <ele>66.517665</ele>
        <time>2020-10-08T06:46:46.659Z</time>
      </trkpt>
      <trkpt lat="57.53188" lon="24.68868">
        <ele>66.73327</ele>
        <time>2020-10-08T06:47:34.982Z</time>
      </trkpt>
      <trkpt lat="57.53137" lon="24.6888">
        <ele>66.796572</ele>
        <time>2020-10-08T06:47:46.820Z</time>
      </trkpt>
      <trkpt lat="57.52863" lon="24.68938">
        <ele>66.942605</ele>
        <time>2020-10-08T06:48:49.687Z</time>
      </trkpt>
      <trkpt lat="57.52846" lon="24.68944">
        <ele>66.915055</ele>
        <time>2020-10-08T06:48:53.300Z</time>
      </trkpt>
      <trkpt lat="57.5254" lon="24.69014">
        <ele>65.690622</ele>
        <time>2020-10-08T06:49:56.674Z</time>
      </trkpt>
      <trkpt lat="57.52505" lon="24.69021">
        <ele>65.566198</ele>
        <time>2020-10-08T06:50:04.164Z</time>
      </trkpt>
      <trkpt lat="57.52466" lon="24.69018">
        <ele>65.426325</ele>
        <time>2020-10-08T06:50:12.614Z</time>
      </trkpt>
      <trkpt lat="57.5243" lon="24.69004">
        <ele>65.296438</ele>
        <time>2020-10-08T06:50:20.394Z</time>
      </trkpt>
      <trkpt lat="57.52391" lon="24.68977">
        <ele>65.184359</ele>
        <time>2020-10-08T06:50:29.139Z</time>
      </trkpt>
      <trkpt lat="57.52357" lon="24.68949">
        <ele>65.114309</ele>
        <time>2020-10-08T06:50:36.919Z</time>
      </trkpt>
      <trkpt lat="57.52236" lon="24.68842">
        <ele>64.955635</ele>
        <time>2020-10-08T06:51:05.622Z</time>
      </trkpt>
      <trkpt lat="57.52023" lon="24.68647">
        <ele>66.787901</ele>
        <time>2020-10-08T06:52:05.419Z</time>
      </trkpt>
      <trkpt lat="57.52005" lon="24.68637">
        <ele>67.02416</ele>
        <time>2020-10-08T06:52:10.873Z</time>
      </trkpt>
      <trkpt lat="57.51982" lon="24.68636">
        <ele>67.316539</ele>
        <time>2020-10-08T06:52:17.738Z</time>
      </trkpt>
      <trkpt lat="57.51932" lon="24.68654">
        <ele>67.949906</ele>
        <time>2020-10-08T06:52:32.262Z</time>
      </trkpt>
      <trkpt lat="57.51924" lon="24.68661">
        <ele>68.059725</ele>
        <time>2020-10-08T06:52:34.950Z</time>
      </trkpt>
      <trkpt lat="57.51918" lon="24.68668">
        <ele>68.149118</ele>
        <time>2020-10-08T06:52:36.932Z</time>
      </trkpt>
      <trkpt lat="57.51901" lon="24.68684">
        <ele>68.2819</ele>
        <time>2020-10-08T06:52:42.321Z</time>
      </trkpt>
      <trkpt lat="57.51803" lon="24.68822">
        <ele>69.114755</ele>
        <time>2020-10-08T06:53:14.471Z</time>
      </trkpt>
      <trkpt lat="57.51782" lon="24.68835">
        <ele>69.263401</ele>
        <time>2020-10-08T06:53:19.378Z</time>
      </trkpt>
      <trkpt lat="57.51741" lon="24.68857">
        <ele>69.08175</ele>
        <time>2020-10-08T06:53:28.083Z</time>
      </trkpt>
      <trkpt lat="57.51524" lon="24.68969">
        <ele>66.464358</ele>
        <time>2020-10-08T06:54:09.942Z</time>
      </trkpt>
      <trkpt lat="57.51467" lon="24.69">
        <ele>65.754604</ele>
        <time>2020-10-08T06:54:21.154Z</time>
      </trkpt>
      <trkpt lat="57.51297" lon="24.69095">
        <ele>63.772828</ele>
        <time>2020-10-08T06:54:55.785Z</time>
      </trkpt>
      <trkpt lat="57.51261" lon="24.69115">
        <ele>63.364361</ele>
        <time>2020-10-08T06:55:02.858Z</time>
      </trkpt>
      <trkpt lat="57.51233" lon="24.6919">
        <ele>62.454819</ele>
        <time>2020-10-08T06:55:11.769Z</time>
      </trkpt>
      <trkpt lat="57.5121" lon="24.69238">
        <ele>61.692074</ele>
        <time>2020-10-08T06:55:17.971Z</time>
      </trkpt>
      <trkpt lat="57.51043" lon="24.69537">
        <ele>56.343771</ele>
        <time>2020-10-08T06:55:57.310Z</time>
      </trkpt>
      <trkpt lat="57.51002" lon="24.69603">
        <ele>55.025187</ele>
        <time>2020-10-08T06:56:06.755Z</time>
      </trkpt>
      <trkpt lat="57.50991" lon="24.69624">
        <ele>54.729489</ele>
        <time>2020-10-08T06:56:09.381Z</time>
      </trkpt>
      <trkpt lat="57.50979" lon="24.69654">
        <ele>54.380459</ele>
        <time>2020-10-08T06:56:12.946Z</time>
      </trkpt>
      <trkpt lat="57.50963" lon="24.69713">
        <ele>53.766373</ele>
        <time>2020-10-08T06:56:19.174Z</time>
      </trkpt>
      <trkpt lat="57.50944" lon="24.69759">
        <ele>53.222973</ele>
        <time>2020-10-08T06:56:24.723Z</time>
      </trkpt>
      <trkpt lat="57.50939" lon="24.69759">
        <ele>53.14664</ele>
        <time>2020-10-08T06:56:25.572Z</time>
      </trkpt>
      <trkpt lat="57.50935" lon="24.69762">
        <ele>53.069024</ele>
        <time>2020-10-08T06:56:26.367Z</time>
      </trkpt>
      <trkpt lat="57.5093" lon="24.69768">
        <ele>52.96909</ele>
        <time>2020-10-08T06:56:27.392Z</time>
      </trkpt>
      <trkpt lat="57.50927" lon="24.69777">
        <ele>52.868672</ele>
        <time>2020-10-08T06:56:28.421Z</time>
      </trkpt>
      <trkpt lat="57.50926" lon="24.69786">
        <ele>52.77993</ele>
        <time>2020-10-08T06:56:29.323Z</time>
      </trkpt>
      <trkpt lat="57.50933" lon="24.69811">
        <ele>52.522846</ele>
        <time>2020-10-08T06:56:32.150Z</time>
      </trkpt>
      <trkpt lat="57.50937" lon="24.69815">
        <ele>52.433191</ele>
        <time>2020-10-08T06:56:33.080Z</time>
      </trkpt>
      <trkpt lat="57.50952" lon="24.69843">
        <ele>52.067667</ele>
        <time>2020-10-08T06:56:36.936Z</time>
      </trkpt>
      <trkpt lat="57.50961" lon="24.69896">
        <ele>51.852991</ele>
        <time>2020-10-08T06:56:42.740Z</time>
      </trkpt>
      <trkpt lat="57.50967" lon="24.69934">
        <ele>51.913269</ele>
        <time>2020-10-08T06:56:46.958Z</time>
      </trkpt>
      <trkpt lat="57.50974" lon="24.69987">
        <ele>51.999392</ele>
        <time>2020-10-08T06:56:52.995Z</time>
      </trkpt>
      <trkpt lat="57.50978" lon="24.70025">
        <ele>52.059499</ele>
        <time>2020-10-08T06:56:57.646Z</time>
      </trkpt>
      <trkpt lat="57.50991" lon="24.70171">
        <ele>52.29042</ele>
        <time>2020-10-08T06:57:18.019Z</time>
      </trkpt>
      <trkpt lat="57.50995" lon="24.70254">
        <ele>52.979118</ele>
        <time>2020-10-08T06:57:30.926Z</time>
      </trkpt>
      <trkpt lat="57.50995" lon="24.70325">
        <ele>53.779911</ele>
        <time>2020-10-08T06:57:43.590Z</time>
      </trkpt>
      <trkpt lat="57.51002" lon="24.70533">
        <ele>56.12327</ele>
        <time>2020-10-08T06:58:19.683Z</time>
      </trkpt>
      <trkpt lat="57.51011" lon="24.70563">
        <ele>56.197317</ele>
        <time>2020-10-08T06:58:25.598Z</time>
      </trkpt>
      <trkpt lat="57.50992" lon="24.70562">
        <ele>56.273474</ele>
        <time>2020-10-08T06:58:30.492Z</time>
      </trkpt>
      <trkpt lat="57.50964" lon="24.70561">
        <ele>56.389118</ele>
        <time>2020-10-08T06:58:37.902Z</time>
      </trkpt>
      <trkpt lat="57.50916" lon="24.7056">
        <ele>56.582528</ele>
        <time>2020-10-08T06:58:48.958Z</time>
      </trkpt>
      <trkpt lat="57.50869" lon="24.70558">
        <ele>56.772352</ele>
        <time>2020-10-08T06:58:59.772Z</time>
      </trkpt>
      <trkpt lat="57.50831" lon="24.70557">
        <ele>56.851424</ele>
        <time>2020-10-08T06:59:07.500Z</time>
      </trkpt>
      <trkpt lat="57.50788" lon="24.70561">
        <ele>56.867943</ele>
        <time>2020-10-08T06:59:16.356Z</time>
      </trkpt>
      <trkpt lat="57.5075" lon="24.70574">
        <ele>56.882652</ele>
        <time>2020-10-08T06:59:24.938Z</time>
      </trkpt>
      <trkpt lat="57.50677" lon="24.70611">
        <ele>56.911678</ele>
        <time>2020-10-08T06:59:44.006Z</time>
      </trkpt>
      <trkpt lat="57.50644" lon="24.70628">
        <ele>57.134561</ele>
        <time>2020-10-08T06:59:53.883Z</time>
      </trkpt>
      <trkpt lat="57.50615" lon="24.70643">
        <ele>57.341255</ele>
        <time>2020-10-08T07:00:02.679Z</time>
      </trkpt>
      <trkpt lat="57.50606" lon="24.70649">
        <ele>57.409785</ele>
        <time>2020-10-08T07:00:05.485Z</time>
      </trkpt>
      <trkpt lat="57.50564" lon="24.70675">
        <ele>57.716796</ele>
        <time>2020-10-08T07:00:17.381Z</time>
      </trkpt>
      <trkpt lat="57.50556" lon="24.70679">
        <ele>57.769326</ele>
        <time>2020-10-08T07:00:19.371Z</time>
      </trkpt>
      <trkpt lat="57.50499" lon="24.7072">
        <ele>58.11599</ele>
        <time>2020-10-08T07:00:34.287Z</time>
      </trkpt>
      <trkpt lat="57.50474" lon="24.70739">
        <ele>57.914465</ele>
        <time>2020-10-08T07:00:40.158Z</time>
      </trkpt>
      <trkpt lat="57.50473" lon="24.70729">
        <ele>57.872226</ele>
        <time>2020-10-08T07:00:41.461Z</time>
      </trkpt>
      <trkpt lat="57.50465" lon="24.70683">
        <ele>57.670862</ele>
        <time>2020-10-08T07:00:48.623Z</time>
      </trkpt>
      <trkpt lat="57.50462" lon="24.70664">
        <ele>57.590817</ele>
        <time>2020-10-08T07:00:51.186Z</time>
      </trkpt>
      <trkpt lat="57.50458" lon="24.70654">
        <ele>57.535525</ele>
        <time>2020-10-08T07:00:53.117Z</time>
      </trkpt>
      <trkpt lat="57.50425" lon="24.70612">
        <ele>57.225356</ele>
        <time>2020-10-08T07:01:03.320Z</time>
      </trkpt>
      <trkpt lat="57.50407" lon="24.70587">
        <ele>57.052686</ele>
        <time>2020-10-08T07:01:09.300Z</time>
      </trkpt>
      <trkpt lat="57.50387" lon="24.70555">
        <ele>56.847899</ele>
        <time>2020-10-08T07:01:16.506Z</time>
      </trkpt>
      <trkpt lat="57.50383" lon="24.70548">
        <ele>56.806776</ele>
        <time>2020-10-08T07:01:18.024Z</time>
      </trkpt>
      <trkpt lat="57.50376" lon="24.70552">
        <ele>56.757117</ele>
        <time>2020-10-08T07:01:20.016Z</time>
      </trkpt>
      <trkpt lat="57.50314" lon="24.70532">
        <ele>56.375666</ele>
        <time>2020-10-08T07:01:41.340Z</time>
      </trkpt>
      <trkpt lat="57.50296" lon="24.70525">
        <ele>56.264394</ele>
        <time>2020-10-08T07:01:47.271Z</time>
      </trkpt>
      <trkpt lat="57.50304" lon="24.70575">
        <ele>56.092775</ele>
        <time>2020-10-08T07:01:55.227Z</time>
      </trkpt>
      <trkpt lat="57.50277" lon="24.70592">
        <ele>55.918877</ele>
        <time>2020-10-08T07:02:03.590Z</time>
      </trkpt>
      <trkpt lat="57.50275" lon="24.70583">
        <ele>55.886249</ele>
        <time>2020-10-08T07:02:04.685Z</time>
      </trkpt>
      <trkpt lat="57.50266" lon="24.70549">
        <ele>55.766693</ele>
        <time>2020-10-08T07:02:08.916Z</time>
      </trkpt>
      <trkpt lat="57.50262" lon="24.70529">
        <ele>55.696701</ele>
        <time>2020-10-08T07:02:11.763Z</time>
      </trkpt>
      <trkpt lat="57.5023" lon="24.70527">
        <ele>55.868317</ele>
        <time>2020-10-08T07:02:21.492Z</time>
      </trkpt>
      <trkpt lat="57.50209" lon="24.7053">
        <ele>55.999395</ele>
        <time>2020-10-08T07:02:27.777Z</time>
      </trkpt>
      <trkpt lat="57.50201" lon="24.70524">
        <ele>56.050553</ele>
        <time>2020-10-08T07:02:30.411Z</time>
      </trkpt>
      <trkpt lat="57.50196" lon="24.70532">
        <ele>56.093236</ele>
        <time>2020-10-08T07:02:32.425Z</time>
      </trkpt>
      <trkpt lat="57.50198" lon="24.70606">
        <ele>56.339035</ele>
        <time>2020-10-08T07:02:42.244Z</time>
      </trkpt>
      <trkpt lat="57.50199" lon="24.70611">
        <ele>56.355149</ele>
        <time>2020-10-08T07:02:43.041Z</time>
      </trkpt>
      <trkpt lat="57.50197" lon="24.70611">
        <ele>56.365624</ele>
        <time>2020-10-08T07:02:43.635Z</time>
      </trkpt>
      <trkpt lat="57.50171" lon="24.70611">
        <ele>56.526372</ele>
        <time>2020-10-08T07:02:51.350Z</time>
      </trkpt>
      <trkpt lat="57.5014" lon="24.70552">
        <ele>56.808949</ele>
        <time>2020-10-08T07:03:06.727Z</time>
      </trkpt>
      <trkpt lat="57.50128" lon="24.7054">
        <ele>56.954036</ele>
        <time>2020-10-08T07:03:11.231Z</time>
      </trkpt>
      <trkpt lat="57.50113" lon="24.70535">
        <ele>57.117965</ele>
        <time>2020-10-08T07:03:16.553Z</time>
      </trkpt>
      <trkpt lat="57.50061" lon="24.70542">
        <ele>57.672061</ele>
        <time>2020-10-08T07:03:34.518Z</time>
      </trkpt>
      <trkpt lat="57.50039" lon="24.70523">
        <ele>57.930618</ele>
        <time>2020-10-08T07:03:42.599Z</time>
      </trkpt>
      <trkpt lat="57.49986" lon="24.70517">
        <ele>58.50481</ele>
        <time>2020-10-08T07:04:00.456Z</time>
      </trkpt>
      <trkpt lat="57.4996" lon="24.70501">
        <ele>58.749208</ele>
        <time>2020-10-08T07:04:09.528Z</time>
      </trkpt>
      <trkpt lat="57.49896" lon="24.70518">
        <ele>58.981403</ele>
        <time>2020-10-08T07:04:29.971Z</time>
      </trkpt>
      <trkpt lat="57.49859" lon="24.70545">
        <ele>59.127736</ele>
        <time>2020-10-08T07:04:42.380Z</time>
      </trkpt>
      <trkpt lat="57.49757" lon="24.70566">
        <ele>59.338706</ele>
        <time>2020-10-08T07:05:12.396Z</time>
      </trkpt>
      <trkpt lat="57.49668" lon="24.70551">
        <ele>59.236914</ele>
        <time>2020-10-08T07:05:37.774Z</time>
      </trkpt>
      <trkpt lat="57.49494" lon="24.70582">
        <ele>59.600784</ele>
        <time>2020-10-08T07:06:28.429Z</time>
      </trkpt>
      <trkpt lat="57.49317" lon="24.70575">
        <ele>61.685713</ele>
        <time>2020-10-08T07:07:28.536Z</time>
      </trkpt>
      <trkpt lat="57.49298" lon="24.7057">
        <ele>62.007631</ele>
        <time>2020-10-08T07:07:36.146Z</time>
      </trkpt>
      <trkpt lat="57.49291" lon="24.70652">
        <ele>62.727703</ele>
        <time>2020-10-08T07:07:51.419Z</time>
      </trkpt>
      <trkpt lat="57.49282" lon="24.70679">
        <ele>63.014429</ele>
        <time>2020-10-08T07:07:56.995Z</time>
      </trkpt>
      <trkpt lat="57.4927" lon="24.7068">
        <ele>63.216581</ele>
        <time>2020-10-08T07:08:00.967Z</time>
      </trkpt>
      <trkpt lat="57.49246" lon="24.70891">
        <ele>65.173577</ele>
        <time>2020-10-08T07:08:37.337Z</time>
      </trkpt>
      <trkpt lat="57.49162" lon="24.70881">
        <ele>65.789373</ele>
        <time>2020-10-08T07:08:57.062Z</time>
      </trkpt>
      <trkpt lat="57.49121" lon="24.70878">
        <ele>65.813985</ele>
        <time>2020-10-08T07:09:05.768Z</time>
      </trkpt>
      <trkpt lat="57.49068" lon="24.70886">
        <ele>65.846017</ele>
        <time>2020-10-08T07:09:16.412Z</time>
      </trkpt>
      <trkpt lat="57.48731" lon="24.70988">
        <ele>67.277299</ele>
        <time>2020-10-08T07:10:38.907Z</time>
      </trkpt>
      <trkpt lat="57.48718" lon="24.70992">
        <ele>67.347255</ele>
        <time>2020-10-08T07:10:42.453Z</time>
      </trkpt>
      <trkpt lat="57.48646" lon="24.71013">
        <ele>67.600167</ele>
        <time>2020-10-08T07:11:00.216Z</time>
      </trkpt>
      <trkpt lat="57.48599" lon="24.71028">
        <ele>67.648262</ele>
        <time>2020-10-08T07:11:11.380Z</time>
      </trkpt>
      <trkpt lat="57.48585" lon="24.71032">
        <ele>67.66253</ele>
        <time>2020-10-08T07:11:14.639Z</time>
      </trkpt>
      <trkpt lat="57.48563" lon="24.71038">
        <ele>67.685107</ele>
        <time>2020-10-08T07:11:19.833Z</time>
      </trkpt>
      <trkpt lat="57.48532" lon="24.71047">
        <ele>67.716947</ele>
        <time>2020-10-08T07:11:26.695Z</time>
      </trkpt>
      <trkpt lat="57.48254" lon="24.71027">
        <ele>66.41463</ele>
        <time>2020-10-08T07:12:24.767Z</time>
      </trkpt>
      <trkpt lat="57.47747" lon="24.71146">
        <ele>61.312746</ele>
        <time>2020-10-08T07:14:02.615Z</time>
      </trkpt>
      <trkpt lat="57.47701" lon="24.71139">
        <ele>60.949135</ele>
        <time>2020-10-08T07:14:11.313Z</time>
      </trkpt>
      <trkpt lat="57.47541" lon="24.71066">
        <ele>60.07376</ele>
        <time>2020-10-08T07:14:44.942Z</time>
      </trkpt>
      <trkpt lat="57.47489" lon="24.71069">
        <ele>59.994135</ele>
        <time>2020-10-08T07:14:56.518Z</time>
      </trkpt>
      <trkpt lat="57.47467" lon="24.71083">
        <ele>59.958935</ele>
        <time>2020-10-08T07:15:01.617Z</time>
      </trkpt>
      <trkpt lat="57.47463" lon="24.71087">
        <ele>59.951025</ele>
        <time>2020-10-08T07:15:02.918Z</time>
      </trkpt>
      <trkpt lat="57.47423" lon="24.71125">
        <ele>59.935131</ele>
        <time>2020-10-08T07:15:13.065Z</time>
      </trkpt>
      <trkpt lat="57.47388" lon="24.71159">
        <ele>60.038941</ele>
        <time>2020-10-08T07:15:22.347Z</time>
      </trkpt>
      <trkpt lat="57.47337" lon="24.7119">
        <ele>60.180813</ele>
        <time>2020-10-08T07:15:35.261Z</time>
      </trkpt>
      <trkpt lat="57.47298" lon="24.71199">
        <ele>60.282875</ele>
        <time>2020-10-08T07:15:44.260Z</time>
      </trkpt>
      <trkpt lat="57.46985" lon="24.71187">
        <ele>61.05249</ele>
        <time>2020-10-08T07:16:56.779Z</time>
      </trkpt>
      <trkpt lat="57.46917" lon="24.71187">
        <ele>61.240937</ele>
        <time>2020-10-08T07:17:12.887Z</time>
      </trkpt>
      <trkpt lat="57.46876" lon="24.71194">
        <ele>61.371836</ele>
        <time>2020-10-08T07:17:22.642Z</time>
      </trkpt>
      <trkpt lat="57.46687" lon="24.71237">
        <ele>61.98772</ele>
        <time>2020-10-08T07:18:07.744Z</time>
      </trkpt>
      <trkpt lat="57.46637" lon="24.71267">
        <ele>62.129026</ele>
        <time>2020-10-08T07:18:19.900Z</time>
      </trkpt>
      <trkpt lat="57.46547" lon="24.71343">
        <ele>62.465625</ele>
        <time>2020-10-08T07:18:42.728Z</time>
      </trkpt>
      <trkpt lat="57.46513" lon="24.71378">
        <ele>62.814892</ele>
        <time>2020-10-08T07:18:51.837Z</time>
      </trkpt>
      <trkpt lat="57.46474" lon="24.71423">
        <ele>63.233758</ele>
        <time>2020-10-08T07:19:03.318Z</time>
      </trkpt>
      <trkpt lat="57.46431" lon="24.71499">
        <ele>63.77981</ele>
        <time>2020-10-08T07:19:19.160Z</time>
      </trkpt>
      <trkpt lat="57.46306" lon="24.71723">
        <ele>66.88231</ele>
        <time>2020-10-08T07:20:11.108Z</time>
      </trkpt>
      <trkpt lat="57.46265" lon="24.71791">
        <ele>67.886389</ele>
        <time>2020-10-08T07:20:28.321Z</time>
      </trkpt>
      <trkpt lat="57.46224" lon="24.71841">
        <ele>68.707458</ele>
        <time>2020-10-08T07:20:43.409Z</time>
      </trkpt>
      <trkpt lat="57.46218" lon="24.71846">
        <ele>68.823282</ele>
        <time>2020-10-08T07:20:45.532Z</time>
      </trkpt>
      <trkpt lat="57.46181" lon="24.71868">
        <ele>69.460186</ele>
        <time>2020-10-08T07:20:56.812Z</time>
      </trkpt>
      <trkpt lat="57.46037" lon="24.71945">
        <ele>70.970142</ele>
        <time>2020-10-08T07:21:36.725Z</time>
      </trkpt>
      <trkpt lat="57.45741" lon="24.72131">
        <ele>71.468656</ele>
        <time>2020-10-08T07:22:46.009Z</time>
      </trkpt>
      <trkpt lat="57.45613" lon="24.72211">
        <ele>71.632143</ele>
        <time>2020-10-08T07:23:16.786Z</time>
      </trkpt>
      <trkpt lat="57.45356" lon="24.72402">
        <ele>72.55583</ele>
        <time>2020-10-08T07:24:25.055Z</time>
      </trkpt>
      <trkpt lat="57.45279" lon="24.72447">
        <ele>72.486616</ele>
        <time>2020-10-08T07:24:41.567Z</time>
      </trkpt>
      <trkpt lat="57.45225" lon="24.72468">
        <ele>71.496488</ele>
        <time>2020-10-08T07:24:51.871Z</time>
      </trkpt>
      <trkpt lat="57.45138" lon="24.72486">
        <ele>69.710263</ele>
        <time>2020-10-08T07:25:07.053Z</time>
      </trkpt>
      <trkpt lat="57.45069" lon="24.72486">
        <ele>68.200851</ele>
        <time>2020-10-08T07:25:18.518Z</time>
      </trkpt>
      <trkpt lat="57.44971" lon="24.72476">
        <ele>65.805661</ele>
        <time>2020-10-08T07:25:35.091Z</time>
      </trkpt>
      <trkpt lat="57.44843" lon="24.72455">
        <ele>63.83488</ele>
        <time>2020-10-08T07:25:57.780Z</time>
      </trkpt>
      <trkpt lat="57.44816" lon="24.72452">
        <ele>63.612739</ele>
        <time>2020-10-08T07:26:02.951Z</time>
      </trkpt>
      <trkpt lat="57.44511" lon="24.72411">
        <ele>63.723712</ele>
        <time>2020-10-08T07:27:14.647Z</time>
      </trkpt>
      <trkpt lat="57.44426" lon="24.72401">
        <ele>64.149201</ele>
        <time>2020-10-08T07:27:36.224Z</time>
      </trkpt>
      <trkpt lat="57.44335" lon="24.72371">
        <ele>64.329185</ele>
        <time>2020-10-08T07:27:58.271Z</time>
      </trkpt>
      <trkpt lat="57.44206" lon="24.72287">
        <ele>64.092879</ele>
        <time>2020-10-08T07:28:27.041Z</time>
      </trkpt>
      <trkpt lat="57.44172" lon="24.72266">
        <ele>63.898143</ele>
        <time>2020-10-08T07:28:34.231Z</time>
      </trkpt>
      <trkpt lat="57.44141" lon="24.72239">
        <ele>63.7117</ele>
        <time>2020-10-08T07:28:41.008Z</time>
      </trkpt>
      <trkpt lat="57.44098" lon="24.72181">
        <ele>63.418556</ele>
        <time>2020-10-08T07:28:51.796Z</time>
      </trkpt>
      <trkpt lat="57.43995" lon="24.72018">
        <ele>62.957789</ele>
        <time>2020-10-08T07:29:20.323Z</time>
      </trkpt>
      <trkpt lat="57.4396" lon="24.71974">
        <ele>62.881982</ele>
        <time>2020-10-08T07:29:29.309Z</time>
      </trkpt>
      <trkpt lat="57.43542" lon="24.71634">
        <ele>62.87188</ele>
        <time>2020-10-08T07:31:10.456Z</time>
      </trkpt>
      <trkpt lat="57.43465" lon="24.71587">
        <ele>63.335019</ele>
        <time>2020-10-08T07:31:30.138Z</time>
      </trkpt>
      <trkpt lat="57.43338" lon="24.71532">
        <ele>64.625492</ele>
        <time>2020-10-08T07:32:04.963Z</time>
      </trkpt>
      <trkpt lat="57.43332" lon="24.71529">
        <ele>64.709714</ele>
        <time>2020-10-08T07:32:06.908Z</time>
      </trkpt>
      <trkpt lat="57.43194" lon="24.7146">
        <ele>66.679322</ele>
        <time>2020-10-08T07:32:46.913Z</time>
      </trkpt>
      <trkpt lat="57.43162" lon="24.71442">
        <ele>67.172523</ele>
        <time>2020-10-08T07:32:56.260Z</time>
      </trkpt>
      <trkpt lat="57.43116" lon="24.71403">
        <ele>67.929003</ele>
        <time>2020-10-08T07:33:10.627Z</time>
      </trkpt>
      <trkpt lat="57.43054" lon="24.71326">
        <ele>69.049674</ele>
        <time>2020-10-08T07:33:31.679Z</time>
      </trkpt>
      <trkpt lat="57.43013" lon="24.71275">
        <ele>69.859724</ele>
        <time>2020-10-08T07:33:45.667Z</time>
      </trkpt>
      <trkpt lat="57.42897" lon="24.7112">
        <ele>72.028484</ele>
        <time>2020-10-08T07:34:27.825Z</time>
      </trkpt>
      <trkpt lat="57.42851" lon="24.7106">
        <ele>72.585374</ele>
        <time>2020-10-08T07:34:43.207Z</time>
      </trkpt>
      <trkpt lat="57.42777" lon="24.70965">
        <ele>73.471029</ele>
        <time>2020-10-08T07:35:05.150Z</time>
      </trkpt>
      <trkpt lat="57.42739" lon="24.70916">
        <ele>73.828042</ele>
        <time>2020-10-08T07:35:16.498Z</time>
      </trkpt>
      <trkpt lat="57.42692" lon="24.70874">
        <ele>74.213935</ele>
        <time>2020-10-08T07:35:28.487Z</time>
      </trkpt>
      <trkpt lat="57.42624" lon="24.70824">
        <ele>74.757483</ele>
        <time>2020-10-08T07:35:46.952Z</time>
      </trkpt>
      <trkpt lat="57.42605" lon="24.70813">
        <ele>74.983102</ele>
        <time>2020-10-08T07:35:52.460Z</time>
      </trkpt>
      <trkpt lat="57.42256" lon="24.70578">
        <ele>82.653103</ele>
        <time>2020-10-08T07:37:46.752Z</time>
      </trkpt>
      <trkpt lat="57.42179" lon="24.70508">
        <ele>84.42419</ele>
        <time>2020-10-08T07:38:14.612Z</time>
      </trkpt>
      <trkpt lat="57.4159" lon="24.69868">
        <ele>95.280207</ele>
        <time>2020-10-08T07:41:30.176Z</time>
      </trkpt>
      <trkpt lat="57.41514" lon="24.69799">
        <ele>96.221301</ele>
        <time>2020-10-08T07:41:52.174Z</time>
      </trkpt>
      <trkpt lat="57.41277" lon="24.69608">
        <ele>97.531765</ele>
        <time>2020-10-08T07:42:56.353Z</time>
      </trkpt>
      <trkpt lat="57.41216" lon="24.69561">
        <ele>97.361289</ele>
        <time>2020-10-08T07:43:10.581Z</time>
      </trkpt>
      <trkpt lat="57.4113" lon="24.69494">
        <ele>96.566593</ele>
        <time>2020-10-08T07:43:28.616Z</time>
      </trkpt>
      <trkpt lat="57.41053" lon="24.69434">
        <ele>94.783832</ele>
        <time>2020-10-08T07:43:43.253Z</time>
      </trkpt>
      <trkpt lat="57.40677" lon="24.69141">
        <ele>83.426863</ele>
        <time>2020-10-08T07:44:51.100Z</time>
      </trkpt>
      <trkpt lat="57.4059" lon="24.69103">
        <ele>80.868468</ele>
        <time>2020-10-08T07:45:05.638Z</time>
      </trkpt>
      <trkpt lat="57.40507" lon="24.69083">
        <ele>78.472386</ele>
        <time>2020-10-08T07:45:19.559Z</time>
      </trkpt>
      <trkpt lat="57.40437" lon="24.69081">
        <ele>76.955382</ele>
        <time>2020-10-08T07:45:31.537Z</time>
      </trkpt>
      <trkpt lat="57.40111" lon="24.6911">
        <ele>71.597524</ele>
        <time>2020-10-08T07:46:31.505Z</time>
      </trkpt>
      <trkpt lat="57.40092" lon="24.69109">
        <ele>71.260299</ele>
        <time>2020-10-08T07:46:34.885Z</time>
      </trkpt>
      <trkpt lat="57.40036" lon="24.69106">
        <ele>70.268157</ele>
        <time>2020-10-08T07:46:44.845Z</time>
      </trkpt>
      <trkpt lat="57.39994" lon="24.69106">
        <ele>69.514182</ele>
        <time>2020-10-08T07:46:52.383Z</time>
      </trkpt>
      <trkpt lat="57.39955" lon="24.69098">
        <ele>68.820078</ele>
        <time>2020-10-08T07:46:59.377Z</time>
      </trkpt>
      <trkpt lat="57.39871" lon="24.69082">
        <ele>68.054908</ele>
        <time>2020-10-08T07:47:14.838Z</time>
      </trkpt>
      <trkpt lat="57.39666" lon="24.6905">
        <ele>67.766863</ele>
        <time>2020-10-08T07:47:59.595Z</time>
      </trkpt>
      <trkpt lat="57.39399" lon="24.69009">
        <ele>69.932318</ele>
        <time>2020-10-08T07:49:13.559Z</time>
      </trkpt>
      <trkpt lat="57.38988" lon="24.68941">
        <ele>63.819902</ele>
        <time>2020-10-08T07:50:27.493Z</time>
      </trkpt>
      <trkpt lat="57.3894" lon="24.68932">
        <ele>63.29181</ele>
        <time>2020-10-08T07:50:36.759Z</time>
      </trkpt>
      <trkpt lat="57.3877" lon="24.68881">
        <ele>62.186784</ele>
        <time>2020-10-08T07:51:12.472Z</time>
      </trkpt>
      <trkpt lat="57.38667" lon="24.68834">
        <ele>61.790418</ele>
        <time>2020-10-08T07:51:35.668Z</time>
      </trkpt>
      <trkpt lat="57.38574" lon="24.68786">
        <ele>61.300001</ele>
        <time>2020-10-08T07:51:55.474Z</time>
      </trkpt>
      <trkpt lat="57.38429" lon="24.68681">
        <ele>60.235296</ele>
        <time>2020-10-08T07:52:26.222Z</time>
      </trkpt>
      <trkpt lat="57.38257" lon="24.68541">
        <ele>58.896526</ele>
        <time>2020-10-08T07:53:03.715Z</time>
      </trkpt>
      <trkpt lat="57.38212" lon="24.68488">
        <ele>58.544674</ele>
        <time>2020-10-08T07:53:14.587Z</time>
      </trkpt>
      <trkpt lat="57.38157" lon="24.68399">
        <ele>58.4083</ele>
        <time>2020-10-08T07:53:29.634Z</time>
      </trkpt>
      <trkpt lat="57.38137" lon="24.68367">
        <ele>58.406651</ele>
        <time>2020-10-08T07:53:35.208Z</time>
      </trkpt>
      <trkpt lat="57.38109" lon="24.68322">
        <ele>58.40431</ele>
        <time>2020-10-08T07:53:43.531Z</time>
      </trkpt>
      <trkpt lat="57.38072" lon="24.68291">
        <ele>58.401759</ele>
        <time>2020-10-08T07:53:53.177Z</time>
      </trkpt>
      <trkpt lat="57.38039" lon="24.68283">
        <ele>58.479578</ele>
        <time>2020-10-08T07:54:01.315Z</time>
      </trkpt>
      <trkpt lat="57.37991" lon="24.68297">
        <ele>58.854282</ele>
        <time>2020-10-08T07:54:13.425Z</time>
      </trkpt>
      <trkpt lat="57.3792" lon="24.68328">
        <ele>59.419373</ele>
        <time>2020-10-08T07:54:32.526Z</time>
      </trkpt>
      <trkpt lat="57.37883" lon="24.68345">
        <ele>59.711923</ele>
        <time>2020-10-08T07:54:42.377Z</time>
      </trkpt>
      <trkpt lat="57.37774" lon="24.68398">
        <ele>60.05789</ele>
        <time>2020-10-08T07:55:10.310Z</time>
      </trkpt>
      <trkpt lat="57.37676" lon="24.68484">
        <ele>60.100716</ele>
        <time>2020-10-08T07:55:33.370Z</time>
      </trkpt>
      <trkpt lat="57.37639" lon="24.6852">
        <ele>59.883872</ele>
        <time>2020-10-08T07:55:42.047Z</time>
      </trkpt>
      <trkpt lat="57.37613" lon="24.68533">
        <ele>59.746713</ele>
        <time>2020-10-08T07:55:47.458Z</time>
      </trkpt>
      <trkpt lat="57.37553" lon="24.68551">
        <ele>59.431166</ele>
        <time>2020-10-08T07:55:59.816Z</time>
      </trkpt>
      <trkpt lat="57.37486" lon="24.68545">
        <ele>59.056182</ele>
        <time>2020-10-08T07:56:13.303Z</time>
      </trkpt>
      <trkpt lat="57.3745" lon="24.68538">
        <ele>58.84686</ele>
        <time>2020-10-08T07:56:20.681Z</time>
      </trkpt>
      <trkpt lat="57.37406" lon="24.68523">
        <ele>58.593624</ele>
        <time>2020-10-08T07:56:29.703Z</time>
      </trkpt>
      <trkpt lat="57.37359" lon="24.68502">
        <ele>58.312654</ele>
        <time>2020-10-08T07:56:39.780Z</time>
      </trkpt>
      <trkpt lat="57.37325" lon="24.6848">
        <ele>58.111198</ele>
        <time>2020-10-08T07:56:47.321Z</time>
      </trkpt>
      <trkpt lat="57.37277" lon="24.68443">
        <ele>57.821122</ele>
        <time>2020-10-08T07:56:58.256Z</time>
      </trkpt>
      <trkpt lat="57.37227" lon="24.68393">
        <ele>57.503569</ele>
        <time>2020-10-08T07:57:09.920Z</time>
      </trkpt>
      <trkpt lat="57.37186" lon="24.68344">
        <ele>57.113746</ele>
        <time>2020-10-08T07:57:19.618Z</time>
      </trkpt>
      <trkpt lat="57.37146" lon="24.68283">
        <ele>56.234097</ele>
        <time>2020-10-08T07:57:29.551Z</time>
      </trkpt>
      <trkpt lat="57.3709" lon="24.68172">
        <ele>54.859936</ele>
        <time>2020-10-08T07:57:44.043Z</time>
      </trkpt>
      <trkpt lat="57.36987" lon="24.6793">
        <ele>52.069465</ele>
        <time>2020-10-08T07:58:12.782Z</time>
      </trkpt>
      <trkpt lat="57.36977" lon="24.67904">
        <ele>51.784074</ele>
        <time>2020-10-08T07:58:16.008Z</time>
      </trkpt>
      <trkpt lat="57.3694" lon="24.67817">
        <ele>51.492776</ele>
        <time>2020-10-08T07:58:28.348Z</time>
      </trkpt>
      <trkpt lat="57.36816" lon="24.67535">
        <ele>53.185688</ele>
        <time>2020-10-08T07:59:22.441Z</time>
      </trkpt>
      <trkpt lat="57.36765" lon="24.67432">
        <ele>53.843785</ele>
        <time>2020-10-08T07:59:42.196Z</time>
      </trkpt>
      <trkpt lat="57.36728" lon="24.67375">
        <ele>54.270881</ele>
        <time>2020-10-08T07:59:53.776Z</time>
      </trkpt>
      <trkpt lat="57.3665" lon="24.67275">
        <ele>54.622987</ele>
        <time>2020-10-08T08:00:15.885Z</time>
      </trkpt>
      <trkpt lat="57.36618" lon="24.67245">
        <ele>54.730827</ele>
        <time>2020-10-08T08:00:23.881Z</time>
      </trkpt>
      <trkpt lat="57.36559" lon="24.67197">
        <ele>54.940599</ele>
        <time>2020-10-08T08:00:39.008Z</time>
      </trkpt>
      <trkpt lat="57.36511" lon="24.67169">
        <ele>55.424438</ele>
        <time>2020-10-08T08:00:51.615Z</time>
      </trkpt>
      <trkpt lat="57.364" lon="24.67122">
        <ele>56.51536</ele>
        <time>2020-10-08T08:01:22.235Z</time>
      </trkpt>
      <trkpt lat="57.36084" lon="24.67003">
        <ele>59.467957</ele>
        <time>2020-10-08T08:02:48.397Z</time>
      </trkpt>
      <trkpt lat="57.35686" lon="24.66852">
        <ele>57.902233</ele>
        <time>2020-10-08T08:04:12.321Z</time>
      </trkpt>
      <trkpt lat="57.35635" lon="24.66834">
        <ele>57.067933</ele>
        <time>2020-10-08T08:04:22.088Z</time>
      </trkpt>
      <trkpt lat="57.35471" lon="24.66756">
        <ele>54.23571</ele>
        <time>2020-10-08T08:04:52.014Z</time>
      </trkpt>
      <trkpt lat="57.35431" lon="24.66729">
        <ele>53.54583</ele>
        <time>2020-10-08T08:04:59.352Z</time>
      </trkpt>
      <trkpt lat="57.35322" lon="24.66658">
        <ele>51.983822</ele>
        <time>2020-10-08T08:05:20.778Z</time>
      </trkpt>
      <trkpt lat="57.35304" lon="24.66644">
        <ele>52.047644</ele>
        <time>2020-10-08T08:05:24.651Z</time>
      </trkpt>
      <trkpt lat="57.35263" lon="24.66617">
        <ele>52.194557</ele>
        <time>2020-10-08T08:05:34.422Z</time>
      </trkpt>
      <trkpt lat="57.35162" lon="24.66552">
        <ele>52.613398</ele>
        <time>2020-10-08T08:06:02.467Z</time>
      </trkpt>
      <trkpt lat="57.35087" lon="24.66501">
        <ele>53.73665</ele>
        <time>2020-10-08T08:06:25.329Z</time>
      </trkpt>
      <trkpt lat="57.3486" lon="24.66346">
        <ele>57.362099</ele>
        <time>2020-10-08T08:07:33.025Z</time>
      </trkpt>
      <trkpt lat="57.34829" lon="24.66315">
        <ele>57.924699</ele>
        <time>2020-10-08T08:07:43.242Z</time>
      </trkpt>
      <trkpt lat="57.34781" lon="24.66241">
        <ele>59.2858</ele>
        <time>2020-10-08T08:08:02.323Z</time>
      </trkpt>
      <trkpt lat="57.34723" lon="24.66125">
        <ele>61.166971</ele>
        <time>2020-10-08T08:08:29.834Z</time>
      </trkpt>
      <trkpt lat="57.34713" lon="24.66107">
        <ele>61.471179</ele>
        <time>2020-10-08T08:08:34.287Z</time>
      </trkpt>
      <trkpt lat="57.34693" lon="24.66068">
        <ele>62.006422</ele>
        <time>2020-10-08T08:08:43.440Z</time>
      </trkpt>
      <trkpt lat="57.34686" lon="24.66056">
        <ele>62.143205</ele>
        <time>2020-10-08T08:08:46.364Z</time>
      </trkpt>
      <trkpt lat="57.34669" lon="24.66018">
        <ele>62.538269</ele>
        <time>2020-10-08T08:08:54.453Z</time>
      </trkpt>
      <trkpt lat="57.34647" lon="24.65979">
        <ele>62.992151</ele>
        <time>2020-10-08T08:09:03.569Z</time>
      </trkpt>
      <trkpt lat="57.34628" lon="24.65939">
        <ele>63.419733</ele>
        <time>2020-10-08T08:09:11.771Z</time>
      </trkpt>
      <trkpt lat="57.34603" lon="24.65901">
        <ele>63.900763</ele>
        <time>2020-10-08T08:09:20.555Z</time>
      </trkpt>
      <trkpt lat="57.34575" lon="24.65868">
        <ele>64.391708</ele>
        <time>2020-10-08T08:09:28.905Z</time>
      </trkpt>
      <trkpt lat="57.3454" lon="24.65835">
        <ele>64.470819</ele>
        <time>2020-10-08T08:09:38.138Z</time>
      </trkpt>
      <trkpt lat="57.34504" lon="24.65802">
        <ele>64.478876</ele>
        <time>2020-10-08T08:09:46.892Z</time>
      </trkpt>
      <trkpt lat="57.34476" lon="24.65789">
        <ele>64.484726</ele>
        <time>2020-10-08T08:09:53.087Z</time>
      </trkpt>
      <trkpt lat="57.34381" lon="24.6575">
        <ele>64.535134</ele>
        <time>2020-10-08T08:10:14.052Z</time>
      </trkpt>
      <trkpt lat="57.34204" lon="24.6567">
        <ele>64.94125</ele>
        <time>2020-10-08T08:10:56.459Z</time>
      </trkpt>
      <trkpt lat="57.34097" lon="24.65566">
        <ele>65.644234</ele>
        <time>2020-10-08T08:11:26.239Z</time>
      </trkpt>
      <trkpt lat="57.34077" lon="24.65546">
        <ele>65.777965</ele>
        <time>2020-10-08T08:11:31.861Z</time>
      </trkpt>
      <trkpt lat="57.34049" lon="24.65519">
        <ele>66.026775</ele>
        <time>2020-10-08T08:11:39.758Z</time>
      </trkpt>
      <trkpt lat="57.33857" lon="24.65311">
        <ele>67.815965</ele>
        <time>2020-10-08T08:12:38.525Z</time>
      </trkpt>
      <trkpt lat="57.33458" lon="24.64684">
        <ele>69.040453</ele>
        <time>2020-10-08T08:14:41.549Z</time>
      </trkpt>
      <trkpt lat="57.33375" lon="24.64546">
        <ele>67.754674</ele>
        <time>2020-10-08T08:15:02.009Z</time>
      </trkpt>
      <trkpt lat="57.33355" lon="24.64518">
        <ele>67.435889</ele>
        <time>2020-10-08T08:15:06.436Z</time>
      </trkpt>
      <trkpt lat="57.33318" lon="24.64462">
        <ele>66.222326</ele>
        <time>2020-10-08T08:15:14.572Z</time>
      </trkpt>
      <trkpt lat="57.33269" lon="24.64412">
        <ele>64.793551</ele>
        <time>2020-10-08T08:15:23.913Z</time>
      </trkpt>
      <trkpt lat="57.33139" lon="24.64316">
        <ele>61.379322</ele>
        <time>2020-10-08T08:15:47.471Z</time>
      </trkpt>
      <trkpt lat="57.33092" lon="24.64285">
        <ele>60.230049</ele>
        <time>2020-10-08T08:15:56.239Z</time>
      </trkpt>
      <trkpt lat="57.32999" lon="24.64223">
        <ele>58.135252</ele>
        <time>2020-10-08T08:16:13.543Z</time>
      </trkpt>
      <trkpt lat="57.32919" lon="24.64172">
        <ele>56.576445</ele>
        <time>2020-10-08T08:16:28.628Z</time>
      </trkpt>
      <trkpt lat="57.32864" lon="24.64138">
        <ele>55.522622</ele>
        <time>2020-10-08T08:16:38.972Z</time>
      </trkpt>
      <trkpt lat="57.32816" lon="24.64112">
        <ele>55.309564</ele>
        <time>2020-10-08T08:16:48.146Z</time>
      </trkpt>
      <trkpt lat="57.32681" lon="24.64049">
        <ele>55.002311</ele>
        <time>2020-10-08T08:17:18.780Z</time>
      </trkpt>
      <trkpt lat="57.32631" lon="24.64028">
        <ele>55.941442</ele>
        <time>2020-10-08T08:17:33.619Z</time>
      </trkpt>
      <trkpt lat="57.3261" lon="24.64019">
        <ele>56.343327</ele>
        <time>2020-10-08T08:17:40.374Z</time>
      </trkpt>
      <trkpt lat="57.32566" lon="24.64003">
        <ele>57.175933</ele>
        <time>2020-10-08T08:17:54.043Z</time>
      </trkpt>
      <trkpt lat="57.32537" lon="24.63993">
        <ele>57.740812</ele>
        <time>2020-10-08T08:18:03.850Z</time>
      </trkpt>
      <trkpt lat="57.32526" lon="24.6399">
        <ele>57.946854</ele>
        <time>2020-10-08T08:18:07.153Z</time>
      </trkpt>
      <trkpt lat="57.32486" lon="24.63991">
        <ele>58.543801</ele>
        <time>2020-10-08T08:18:20.020Z</time>
      </trkpt>
      <trkpt lat="57.32439" lon="24.63999">
        <ele>59.167602</ele>
        <time>2020-10-08T08:18:35.471Z</time>
      </trkpt>
      <trkpt lat="57.3235" lon="24.64036">
        <ele>60.369462</ele>
        <time>2020-10-08T08:18:58.483Z</time>
      </trkpt>
      <trkpt lat="57.32299" lon="24.64058">
        <ele>60.519175</ele>
        <time>2020-10-08T08:19:10.234Z</time>
      </trkpt>
      <trkpt lat="57.32245" lon="24.64086">
        <ele>60.41355</ele>
        <time>2020-10-08T08:19:22.270Z</time>
      </trkpt>
      <trkpt lat="57.32105" lon="24.64151">
        <ele>60.29613</ele>
        <time>2020-10-08T08:19:52.187Z</time>
      </trkpt>
      <trkpt lat="57.32063" lon="24.64162">
        <ele>60.332845</ele>
        <time>2020-10-08T08:20:01.534Z</time>
      </trkpt>
      <trkpt lat="57.31841" lon="24.64176">
        <ele>60.977342</ele>
        <time>2020-10-08T08:20:55.458Z</time>
      </trkpt>
      <trkpt lat="57.31798" lon="24.64187">
        <ele>61.118711</ele>
        <time>2020-10-08T08:21:06.003Z</time>
      </trkpt>
      <trkpt lat="57.3167" lon="24.6422">
        <ele>60.597037</ele>
        <time>2020-10-08T08:21:33.611Z</time>
      </trkpt>
      <trkpt lat="57.31441" lon="24.64278">
        <ele>58.517611</ele>
        <time>2020-10-08T08:22:17.603Z</time>
      </trkpt>
      <trkpt lat="57.31348" lon="24.64302">
        <ele>58.302088</ele>
        <time>2020-10-08T08:22:37.259Z</time>
      </trkpt>
      <trkpt lat="57.31003" lon="24.64392">
        <ele>58.477639</ele>
        <time>2020-10-08T08:23:56.850Z</time>
      </trkpt>
      <trkpt lat="57.30896" lon="24.6442">
        <ele>58.611961</ele>
        <time>2020-10-08T08:24:21.443Z</time>
      </trkpt>
      <trkpt lat="57.30798" lon="24.64448">
        <ele>58.770522</ele>
        <time>2020-10-08T08:24:43.987Z</time>
      </trkpt>
      <trkpt lat="57.30716" lon="24.64465">
        <ele>58.930359</ele>
        <time>2020-10-08T08:25:02.955Z</time>
      </trkpt>
      <trkpt lat="57.3051" lon="24.64502">
        <ele>59.696204</ele>
        <time>2020-10-08T08:25:51.867Z</time>
      </trkpt>
      <trkpt lat="57.30446" lon="24.6453">
        <ele>60.054753</ele>
        <time>2020-10-08T08:26:08.027Z</time>
      </trkpt>
      <trkpt lat="57.30169" lon="24.6476">
        <ele>61.919189</ele>
        <time>2020-10-08T08:27:24.684Z</time>
      </trkpt>
      <trkpt lat="57.30127" lon="24.648">
        <ele>62.03798</ele>
        <time>2020-10-08T08:27:36.302Z</time>
      </trkpt>
      <trkpt lat="57.30099" lon="24.64827">
        <ele>62.116546</ele>
        <time>2020-10-08T08:27:43.700Z</time>
      </trkpt>
      <trkpt lat="57.29909" lon="24.65011">
        <ele>61.332674</ele>
        <time>2020-10-08T08:28:27.748Z</time>
      </trkpt>
      <trkpt lat="57.29828" lon="24.65094">
        <ele>60.801237</ele>
        <time>2020-10-08T08:28:46.037Z</time>
      </trkpt>
      <trkpt lat="57.29661" lon="24.65252">
        <ele>59.914413</ele>
        <time>2020-10-08T08:29:24.643Z</time>
      </trkpt>
      <trkpt lat="57.29612" lon="24.65298">
        <ele>59.721615</ele>
        <time>2020-10-08T08:29:36.326Z</time>
      </trkpt>
      <trkpt lat="57.29555" lon="24.65348">
        <ele>59.643889</ele>
        <time>2020-10-08T08:29:50.007Z</time>
      </trkpt>
      <trkpt lat="57.29437" lon="24.65444">
        <ele>59.891038</ele>
        <time>2020-10-08T08:30:19.634Z</time>
      </trkpt>
      <trkpt lat="57.29322" lon="24.65546">
        <ele>60.673852</ele>
        <time>2020-10-08T08:30:51.765Z</time>
      </trkpt>
      <trkpt lat="57.2922" lon="24.65629">
        <ele>61.496109</ele>
        <time>2020-10-08T08:31:19.928Z</time>
      </trkpt>
      <trkpt lat="57.29148" lon="24.65676">
        <ele>62.112981</ele>
        <time>2020-10-08T08:31:39.560Z</time>
      </trkpt>
      <trkpt lat="57.29089" lon="24.65703">
        <ele>62.603255</ele>
        <time>2020-10-08T08:31:55.090Z</time>
      </trkpt>
      <trkpt lat="57.29044" lon="24.65714">
        <ele>62.90266</ele>
        <time>2020-10-08T08:32:06.456Z</time>
      </trkpt>
      <trkpt lat="57.29001" lon="24.65722">
        <ele>63.181003</ele>
        <time>2020-10-08T08:32:17.455Z</time>
      </trkpt>
      <trkpt lat="57.28928" lon="24.65735">
        <ele>63.640104</ele>
        <time>2020-10-08T08:32:35.451Z</time>
      </trkpt>
      <trkpt lat="57.28796" lon="24.65759">
        <ele>64.184526</ele>
        <time>2020-10-08T08:33:07.139Z</time>
      </trkpt>
      <trkpt lat="57.28788" lon="24.65762">
        <ele>64.213059</ele>
        <time>2020-10-08T08:33:09.047Z</time>
      </trkpt>
      <trkpt lat="57.28757" lon="24.65772">
        <ele>64.325771</ele>
        <time>2020-10-08T08:33:16.502Z</time>
      </trkpt>
      <trkpt lat="57.287" lon="24.65787">
        <ele>64.474598</ele>
        <time>2020-10-08T08:33:29.900Z</time>
      </trkpt>
      <trkpt lat="57.28558" lon="24.6582">
        <ele>64.659972</ele>
        <time>2020-10-08T08:34:02.549Z</time>
      </trkpt>
      <trkpt lat="57.28407" lon="24.65844">
        <ele>64.711655</ele>
        <time>2020-10-08T08:34:36.196Z</time>
      </trkpt>
      <trkpt lat="57.28189" lon="24.65867">
        <ele>64.78908</ele>
        <time>2020-10-08T08:35:25.094Z</time>
      </trkpt>
      <trkpt lat="57.28101" lon="24.6589">
        <ele>64.586195</ele>
        <time>2020-10-08T08:35:44.980Z</time>
      </trkpt>
      <trkpt lat="57.2802" lon="24.65914">
        <ele>64.393022</ele>
        <time>2020-10-08T08:36:02.446Z</time>
      </trkpt>
      <trkpt lat="57.2786" lon="24.6592">
        <ele>63.285619</ele>
        <time>2020-10-08T08:36:34.367Z</time>
      </trkpt>
      <trkpt lat="57.27808" lon="24.65932">
        <ele>62.869919</ele>
        <time>2020-10-08T08:36:44.439Z</time>
      </trkpt>
      <trkpt lat="57.27765" lon="24.65954">
        <ele>62.464583</ele>
        <time>2020-10-08T08:36:53.102Z</time>
      </trkpt>
      <trkpt lat="57.27638" lon="24.66032">
        <ele>61.384351</ele>
        <time>2020-10-08T08:37:19.179Z</time>
      </trkpt>
      <trkpt lat="57.27558" lon="24.66106">
        <ele>61.14163</ele>
        <time>2020-10-08T08:37:37.741Z</time>
      </trkpt>
      <trkpt lat="57.27517" lon="24.6616">
        <ele>61.004907</ele>
        <time>2020-10-08T08:37:49.266Z</time>
      </trkpt>
      <trkpt lat="57.27445" lon="24.66272">
        <ele>61.1907</ele>
        <time>2020-10-08T08:38:11.598Z</time>
      </trkpt>
      <trkpt lat="57.27431" lon="24.66293">
        <ele>61.248585</ele>
        <time>2020-10-08T08:38:16.058Z</time>
      </trkpt>
      <trkpt lat="57.27328" lon="24.66459">
        <ele>61.393309</ele>
        <time>2020-10-08T08:38:48.162Z</time>
      </trkpt>
      <trkpt lat="57.27315" lon="24.66478">
        <ele>61.341985</ele>
        <time>2020-10-08T08:38:51.944Z</time>
      </trkpt>
      <trkpt lat="57.27273" lon="24.66536">
        <ele>61.184573</ele>
        <time>2020-10-08T08:39:02.890Z</time>
      </trkpt>
      <trkpt lat="57.27213" lon="24.66623">
        <ele>60.812892</ele>
        <time>2020-10-08T08:39:18.217Z</time>
      </trkpt>
      <trkpt lat="57.27182" lon="24.66658">
        <ele>60.334251</ele>
        <time>2020-10-08T08:39:25.156Z</time>
      </trkpt>
      <trkpt lat="57.27077" lon="24.66716">
        <ele>58.88666</ele>
        <time>2020-10-08T08:39:45.297Z</time>
      </trkpt>
      <trkpt lat="57.27024" lon="24.66748">
        <ele>58.2514</ele>
        <time>2020-10-08T08:39:55.248Z</time>
      </trkpt>
      <trkpt lat="57.2688" lon="24.66824">
        <ele>56.778401</ele>
        <time>2020-10-08T08:40:24.162Z</time>
      </trkpt>
      <trkpt lat="57.26741" lon="24.66899">
        <ele>56.863111</ele>
        <time>2020-10-08T08:40:57.754Z</time>
      </trkpt>
      <trkpt lat="57.26676" lon="24.66932">
        <ele>56.750909</ele>
        <time>2020-10-08T08:41:13.773Z</time>
      </trkpt>
      <trkpt lat="57.2655" lon="24.66969">
        <ele>56.302872</ele>
        <time>2020-10-08T08:41:40.245Z</time>
      </trkpt>
      <trkpt lat="57.26475" lon="24.66983">
        <ele>55.92694</ele>
        <time>2020-10-08T08:41:55.065Z</time>
      </trkpt>
      <trkpt lat="57.26244" lon="24.67005">
        <ele>55.239989</ele>
        <time>2020-10-08T08:42:43.007Z</time>
      </trkpt>
      <trkpt lat="57.26024" lon="24.67032">
        <ele>55.992631</ele>
        <time>2020-10-08T08:43:37.552Z</time>
      </trkpt>
      <trkpt lat="57.25903" lon="24.6704">
        <ele>56.156134</ele>
        <time>2020-10-08T08:44:05.483Z</time>
      </trkpt>
      <trkpt lat="57.25791" lon="24.67052">
        <ele>56.160149</ele>
        <time>2020-10-08T08:44:29.424Z</time>
      </trkpt>
      <trkpt lat="57.25731" lon="24.6706">
        <ele>56.111126</ele>
        <time>2020-10-08T08:44:42.489Z</time>
      </trkpt>
      <trkpt lat="57.2567" lon="24.67068">
        <ele>56.061047</ele>
        <time>2020-10-08T08:44:56.502Z</time>
      </trkpt>
      <trkpt lat="57.25506" lon="24.67119">
        <ele>55.57598</ele>
        <time>2020-10-08T08:45:32.652Z</time>
      </trkpt>
      <trkpt lat="57.25493" lon="24.67124">
        <ele>55.528979</ele>
        <time>2020-10-08T08:45:35.324Z</time>
      </trkpt>
      <trkpt lat="57.25452" lon="24.6714">
        <ele>55.332438</ele>
        <time>2020-10-08T08:45:43.360Z</time>
      </trkpt>
      <trkpt lat="57.25403" lon="24.67144">
        <ele>54.844457</ele>
        <time>2020-10-08T08:45:53.001Z</time>
      </trkpt>
      <trkpt lat="57.25331" lon="24.67128">
        <ele>54.138562</ele>
        <time>2020-10-08T08:46:06.576Z</time>
      </trkpt>
      <trkpt lat="57.25144" lon="24.67091">
        <ele>52.613104</ele>
        <time>2020-10-08T08:46:44.117Z</time>
      </trkpt>
      <trkpt lat="57.25065" lon="24.67071">
        <ele>52.17108</ele>
        <time>2020-10-08T08:46:59.907Z</time>
      </trkpt>
      <trkpt lat="57.2503" lon="24.67062">
        <ele>52.047917</ele>
        <time>2020-10-08T08:47:06.920Z</time>
      </trkpt>
      <trkpt lat="57.24908" lon="24.67016">
        <ele>51.948616</ele>
        <time>2020-10-08T08:47:33.487Z</time>
      </trkpt>
      <trkpt lat="57.24864" lon="24.66996">
        <ele>52.611838</ele>
        <time>2020-10-08T08:47:45.556Z</time>
      </trkpt>
      <trkpt lat="57.24762" lon="24.66956">
        <ele>54.123599</ele>
        <time>2020-10-08T08:48:17.059Z</time>
      </trkpt>
      <trkpt lat="57.24749" lon="24.66953">
        <ele>54.301361</ele>
        <time>2020-10-08T08:48:21.492Z</time>
      </trkpt>
      <trkpt lat="57.24717" lon="24.66943">
        <ele>54.632017</ele>
        <time>2020-10-08T08:48:31.658Z</time>
      </trkpt>
      <trkpt lat="57.24676" lon="24.66939">
        <ele>55.034636</ele>
        <time>2020-10-08T08:48:43.611Z</time>
      </trkpt>
      <trkpt lat="57.24626" lon="24.66938">
        <ele>55.528898</ele>
        <time>2020-10-08T08:48:57.343Z</time>
      </trkpt>
      <trkpt lat="57.24344" lon="24.67021">
        <ele>54.862955</ele>
        <time>2020-10-08T08:49:55.983Z</time>
      </trkpt>
      <trkpt lat="57.24265" lon="24.67049">
        <ele>54.284098</ele>
        <time>2020-10-08T08:50:11.620Z</time>
      </trkpt>
      <trkpt lat="57.24176" lon="24.67085">
        <ele>53.852244</ele>
        <time>2020-10-08T08:50:30.010Z</time>
      </trkpt>
      <trkpt lat="57.2409" lon="24.6713">
        <ele>53.67088</ele>
        <time>2020-10-08T08:50:49.752Z</time>
      </trkpt>
      <trkpt lat="57.24005" lon="24.67183">
        <ele>53.353358</ele>
        <time>2020-10-08T08:51:10.075Z</time>
      </trkpt>
      <trkpt lat="57.2394" lon="24.6723">
        <ele>52.990827</ele>
        <time>2020-10-08T08:51:24.386Z</time>
      </trkpt>
      <trkpt lat="57.23875" lon="24.67277">
        <ele>52.615331</ele>
        <time>2020-10-08T08:51:38.153Z</time>
      </trkpt>
      <trkpt lat="57.23827" lon="24.67315">
        <ele>51.96921</ele>
        <time>2020-10-08T08:51:47.963Z</time>
      </trkpt>
      <trkpt lat="57.23694" lon="24.6742">
        <ele>50.171568</ele>
        <time>2020-10-08T08:52:14.940Z</time>
      </trkpt>
      <trkpt lat="57.23586" lon="24.67532">
        <ele>48.708529</ele>
        <time>2020-10-08T08:52:38.600Z</time>
      </trkpt>
      <trkpt lat="57.23537" lon="24.67597">
        <ele>48.049124</ele>
        <time>2020-10-08T08:52:49.998Z</time>
      </trkpt>
      <trkpt lat="57.23483" lon="24.67683">
        <ele>47.355453</ele>
        <time>2020-10-08T08:53:03.706Z</time>
      </trkpt>
      <trkpt lat="57.23432" lon="24.67775">
        <ele>46.668588</ele>
        <time>2020-10-08T08:53:17.463Z</time>
      </trkpt>
      <trkpt lat="57.23355" lon="24.67941">
        <ele>46.502563</ele>
        <time>2020-10-08T08:53:42.168Z</time>
      </trkpt>
      <trkpt lat="57.23138" lon="24.68408">
        <ele>48.202333</ele>
        <time>2020-10-08T08:55:04.704Z</time>
      </trkpt>
      <trkpt lat="57.22996" lon="24.6872">
        <ele>49.761459</ele>
        <time>2020-10-08T08:56:01.455Z</time>
      </trkpt>
      <trkpt lat="57.22842" lon="24.69058">
        <ele>50.530665</ele>
        <time>2020-10-08T08:56:57.728Z</time>
      </trkpt>
      <trkpt lat="57.22816" lon="24.69103">
        <ele>50.228253</ele>
        <time>2020-10-08T08:57:05.234Z</time>
      </trkpt>
      <trkpt lat="57.22801" lon="24.69128">
        <ele>50.044073</ele>
        <time>2020-10-08T08:57:09.344Z</time>
      </trkpt>
      <trkpt lat="57.22742" lon="24.69212">
        <ele>49.358394</ele>
        <time>2020-10-08T08:57:23.956Z</time>
      </trkpt>
      <trkpt lat="57.22696" lon="24.69271">
        <ele>48.796092</ele>
        <time>2020-10-08T08:57:34.279Z</time>
      </trkpt>
      <trkpt lat="57.22645" lon="24.69324">
        <ele>47.661094</ele>
        <time>2020-10-08T08:57:44.625Z</time>
      </trkpt>
      <trkpt lat="57.22568" lon="24.6939">
        <ele>46.01303</ele>
        <time>2020-10-08T08:57:59.470Z</time>
      </trkpt>
      <trkpt lat="57.22488" lon="24.69432">
        <ele>44.698138</ele>
        <time>2020-10-08T08:58:14.020Z</time>
      </trkpt>
      <trkpt lat="57.22297" lon="24.69503">
        <ele>43.252414</ele>
        <time>2020-10-08T08:58:51.301Z</time>
      </trkpt>
      <trkpt lat="57.21758" lon="24.69735">
        <ele>46.309605</ele>
        <time>2020-10-08T09:01:12.855Z</time>
      </trkpt>
      <trkpt lat="57.21692" lon="24.69759">
        <ele>46.455658</ele>
        <time>2020-10-08T09:01:27.672Z</time>
      </trkpt>
      <trkpt lat="57.21689" lon="24.6976">
        <ele>46.462499</ele>
        <time>2020-10-08T09:01:28.284Z</time>
      </trkpt>
      <trkpt lat="57.21679" lon="24.69763">
        <ele>46.484106</ele>
        <time>2020-10-08T09:01:30.342Z</time>
      </trkpt>
      <trkpt lat="57.21646" lon="24.69777">
        <ele>46.479531</ele>
        <time>2020-10-08T09:01:37.459Z</time>
      </trkpt>
      <trkpt lat="57.21532" lon="24.69821">
        <ele>46.064975</ele>
        <time>2020-10-08T09:02:01.649Z</time>
      </trkpt>
      <trkpt lat="57.21455" lon="24.69851">
        <ele>45.826302</ele>
        <time>2020-10-08T09:02:18.405Z</time>
      </trkpt>
      <trkpt lat="57.21257" lon="24.69933">
        <ele>45.570078</ele>
        <time>2020-10-08T09:03:02.115Z</time>
      </trkpt>
      <trkpt lat="57.2123" lon="24.69942">
        <ele>45.601389</ele>
        <time>2020-10-08T09:03:08.008Z</time>
      </trkpt>
      <trkpt lat="57.20757" lon="24.70129">
        <ele>46.588654</ele>
        <time>2020-10-08T09:04:59.640Z</time>
      </trkpt>
      <trkpt lat="57.20218" lon="24.70343">
        <ele>51.639983</ele>
        <time>2020-10-08T09:07:25.640Z</time>
      </trkpt>
      <trkpt lat="57.20074" lon="24.704">
        <ele>51.663788</ele>
        <time>2020-10-08T09:07:57.797Z</time>
      </trkpt>
      <trkpt lat="57.19825" lon="24.70498">
        <ele>49.402191</ele>
        <time>2020-10-08T09:08:46.205Z</time>
      </trkpt>
      <trkpt lat="57.1973" lon="24.70535">
        <ele>48.790747</ele>
        <time>2020-10-08T09:09:06.995Z</time>
      </trkpt>
      <trkpt lat="57.19636" lon="24.70576">
        <ele>48.525954</ele>
        <time>2020-10-08T09:09:28.076Z</time>
      </trkpt>
      <trkpt lat="57.1959" lon="24.70595">
        <ele>48.403818</ele>
        <time>2020-10-08T09:09:38.234Z</time>
      </trkpt>
      <trkpt lat="57.19493" lon="24.70632">
        <ele>47.585719</ele>
        <time>2020-10-08T09:09:58.459Z</time>
      </trkpt>
      <trkpt lat="57.192" lon="24.70746">
        <ele>43.545565</ele>
        <time>2020-10-08T09:10:53.210Z</time>
      </trkpt>
      <trkpt lat="57.19127" lon="24.70773">
        <ele>43.489979</ele>
        <time>2020-10-08T09:11:08.330Z</time>
      </trkpt>
      <trkpt lat="57.19055" lon="24.70801">
        <ele>43.462079</ele>
        <time>2020-10-08T09:11:25.488Z</time>
      </trkpt>
      <trkpt lat="57.1891" lon="24.70862">
        <ele>44.21089</ele>
        <time>2020-10-08T09:12:04.136Z</time>
      </trkpt>
      <trkpt lat="57.18859" lon="24.70885">
        <ele>44.555031</ele>
        <time>2020-10-08T09:12:16.609Z</time>
      </trkpt>
      <trkpt lat="57.1883" lon="24.70898">
        <ele>44.716588</ele>
        <time>2020-10-08T09:12:23.606Z</time>
      </trkpt>
      <trkpt lat="57.18699" lon="24.70966">
        <ele>45.283974</ele>
        <time>2020-10-08T09:12:55.223Z</time>
      </trkpt>
      <trkpt lat="57.18673" lon="24.7098">
        <ele>45.398069</ele>
        <time>2020-10-08T09:13:01.910Z</time>
      </trkpt>
      <trkpt lat="57.18573" lon="24.71033">
        <ele>46.282923</ele>
        <time>2020-10-08T09:13:29.247Z</time>
      </trkpt>
      <trkpt lat="57.18557" lon="24.71042">
        <ele>46.424095</ele>
        <time>2020-10-08T09:13:33.845Z</time>
      </trkpt>
      <trkpt lat="57.18463" lon="24.71093">
        <ele>47.045226</ele>
        <time>2020-10-08T09:13:58.934Z</time>
      </trkpt>
      <trkpt lat="57.18316" lon="24.71173">
        <ele>47.507176</ele>
        <time>2020-10-08T09:14:33.935Z</time>
      </trkpt>
      <trkpt lat="57.18255" lon="24.71215">
        <ele>47.615065</ele>
        <time>2020-10-08T09:14:48.662Z</time>
      </trkpt>
      <trkpt lat="57.18216" lon="24.71257">
        <ele>47.689248</ele>
        <time>2020-10-08T09:14:58.849Z</time>
      </trkpt>
      <trkpt lat="57.18207" lon="24.7124">
        <ele>47.710569</ele>
        <time>2020-10-08T09:15:01.711Z</time>
      </trkpt>
      <trkpt lat="57.18171" lon="24.71157">
        <ele>47.782642</ele>
        <time>2020-10-08T09:15:15.574Z</time>
      </trkpt>
      <trkpt lat="57.18154" lon="24.71122">
        <ele>47.780449</ele>
        <time>2020-10-08T09:15:21.488Z</time>
      </trkpt>
      <trkpt lat="57.18152" lon="24.71099">
        <ele>47.779294</ele>
        <time>2020-10-08T09:15:24.658Z</time>
      </trkpt>
      <trkpt lat="57.18143" lon="24.70987">
        <ele>47.773819</ele>
        <time>2020-10-08T09:15:38.855Z</time>
      </trkpt>
      <trkpt lat="57.1813" lon="24.70906">
        <ele>47.769756</ele>
        <time>2020-10-08T09:15:48.270Z</time>
      </trkpt>
      <trkpt lat="57.18123" lon="24.70847">
        <ele>47.798428</ele>
        <time>2020-10-08T09:15:54.738Z</time>
      </trkpt>
      <trkpt lat="57.18103" lon="24.70752">
        <ele>47.946157</ele>
        <time>2020-10-08T09:16:06.710Z</time>
      </trkpt>
      <trkpt lat="57.18088" lon="24.70712">
        <ele>48.016634</ele>
        <time>2020-10-08T09:16:12.667Z</time>
      </trkpt>
      <trkpt lat="57.18079" lon="24.70692">
        <ele>48.054298</ele>
        <time>2020-10-08T09:16:16.177Z</time>
      </trkpt>
      <trkpt lat="57.18038" lon="24.70623">
        <ele>48.203937</ele>
        <time>2020-10-08T09:16:29.536Z</time>
      </trkpt>
      <trkpt lat="57.18022" lon="24.70578">
        <ele>48.449509</ele>
        <time>2020-10-08T09:16:37.002Z</time>
      </trkpt>
      <trkpt lat="57.17984" lon="24.70337">
        <ele>50.691482</ele>
        <time>2020-10-08T09:17:17.661Z</time>
      </trkpt>
      <trkpt lat="57.17956" lon="24.70162">
        <ele>51.729202</ele>
        <time>2020-10-08T09:17:46.517Z</time>
      </trkpt>
      <trkpt lat="57.17942" lon="24.70085">
        <ele>52.065227</ele>
        <time>2020-10-08T09:17:57.845Z</time>
      </trkpt>
      <trkpt lat="57.17915" lon="24.69922">
        <ele>52.572385</ele>
        <time>2020-10-08T09:18:17.898Z</time>
      </trkpt>
      <trkpt lat="57.17912" lon="24.69833">
        <ele>52.536674</ele>
        <time>2020-10-08T09:18:27.744Z</time>
      </trkpt>
      <trkpt lat="57.17918" lon="24.69734">
        <ele>52.496718</ele>
        <time>2020-10-08T09:18:38.829Z</time>
      </trkpt>
      <trkpt lat="57.17919" lon="24.69727">
        <ele>52.494011</ele>
        <time>2020-10-08T09:18:39.674Z</time>
      </trkpt>
      <trkpt lat="57.1792" lon="24.69721">
        <ele>52.491333</ele>
        <time>2020-10-08T09:18:40.528Z</time>
      </trkpt>
      <trkpt lat="57.1792" lon="24.69691">
        <ele>52.479403</ele>
        <time>2020-10-08T09:18:44.199Z</time>
      </trkpt>
      <trkpt lat="57.17919" lon="24.69688">
        <ele>52.478047</ele>
        <time>2020-10-08T09:18:44.595Z</time>
      </trkpt>
      <trkpt lat="57.17916" lon="24.6967">
        <ele>52.470646</ele>
        <time>2020-10-08T09:18:46.833Z</time>
      </trkpt>
      <trkpt lat="57.17878" lon="24.69579">
        <ele>53.21618</ele>
        <time>2020-10-08T09:19:02.635Z</time>
      </trkpt>
      <trkpt lat="57.17668" lon="24.6919">
        <ele>58.657196</ele>
        <time>2020-10-08T09:20:35.075Z</time>
      </trkpt>
      <trkpt lat="57.17624" lon="24.69125">
        <ele>58.99925</ele>
        <time>2020-10-08T09:20:49.807Z</time>
      </trkpt>
      <trkpt lat="57.17606" lon="24.69105">
        <ele>58.996457</ele>
        <time>2020-10-08T09:20:54.592Z</time>
      </trkpt>
      <trkpt lat="57.17603" lon="24.69102">
        <ele>58.996048</ele>
        <time>2020-10-08T09:20:55.199Z</time>
      </trkpt>
      <trkpt lat="57.17526" lon="24.69017">
        <ele>58.98383</ele>
        <time>2020-10-08T09:21:14.279Z</time>
      </trkpt>
      <trkpt lat="57.17478" lon="24.6895">
        <ele>58.819603</ele>
        <time>2020-10-08T09:21:25.753Z</time>
      </trkpt>
      <trkpt lat="57.17472" lon="24.68942">
        <ele>58.782399</ele>
        <time>2020-10-08T09:21:28.288Z</time>
      </trkpt>
      <trkpt lat="57.17444" lon="24.68902">
        <ele>58.607858</ele>
        <time>2020-10-08T09:21:40.232Z</time>
      </trkpt>
      <trkpt lat="57.17352" lon="24.68709">
        <ele>58.089037</ele>
        <time>2020-10-08T09:22:31.256Z</time>
      </trkpt>
      <trkpt lat="57.17296" lon="24.68579">
        <ele>58.086147</ele>
        <time>2020-10-08T09:23:05.801Z</time>
      </trkpt>
      <trkpt lat="57.17284" lon="24.68554">
        <ele>58.085584</ele>
        <time>2020-10-08T09:23:12.312Z</time>
      </trkpt>
      <trkpt lat="57.17227" lon="24.6846">
        <ele>57.614333</ele>
        <time>2020-10-08T09:23:39.814Z</time>
      </trkpt>
      <trkpt lat="57.17205" lon="24.68429">
        <ele>57.283387</ele>
        <time>2020-10-08T09:23:49.450Z</time>
      </trkpt>
      <trkpt lat="57.1719" lon="24.68407">
        <ele>57.054955</ele>
        <time>2020-10-08T09:23:55.888Z</time>
      </trkpt>
      <trkpt lat="57.17076" lon="24.68231">
        <ele>54.716597</ele>
        <time>2020-10-08T09:24:43.451Z</time>
      </trkpt>
      <trkpt lat="57.16999" lon="24.68092">
        <ele>52.306681</ele>
        <time>2020-10-08T09:25:16.845Z</time>
      </trkpt>
      <trkpt lat="57.16915" lon="24.67926">
        <ele>49.332444</ele>
        <time>2020-10-08T09:25:54.369Z</time>
      </trkpt>
      <trkpt lat="57.1686" lon="24.67763">
        <ele>46.894182</ele>
        <time>2020-10-08T09:26:26.605Z</time>
      </trkpt>
      <trkpt lat="57.16811" lon="24.67609">
        <ele>44.8741</ele>
        <time>2020-10-08T09:26:57.121Z</time>
      </trkpt>
      <trkpt lat="57.16799" lon="24.67575">
        <ele>44.416723</ele>
        <time>2020-10-08T09:27:04.036Z</time>
      </trkpt>
      <trkpt lat="57.16775" lon="24.67533">
        <ele>43.728853</ele>
        <time>2020-10-08T09:27:14.510Z</time>
      </trkpt>
      <trkpt lat="57.16586" lon="24.67306">
        <ele>39.821342</ele>
        <time>2020-10-08T09:28:25.978Z</time>
      </trkpt>
      <trkpt lat="57.16543" lon="24.67274">
        <ele>39.302469</ele>
        <time>2020-10-08T09:28:41.654Z</time>
      </trkpt>
      <trkpt lat="57.1658" lon="24.67214">
        <ele>38.75109</ele>
        <time>2020-10-08T09:28:59.096Z</time>
      </trkpt>
      <trkpt lat="57.16617" lon="24.67154">
        <ele>38.190592</ele>
        <time>2020-10-08T09:29:16.068Z</time>
      </trkpt>
      <trkpt lat="57.16642" lon="24.67082">
        <ele>37.630595</ele>
        <time>2020-10-08T09:29:31.860Z</time>
      </trkpt>
      <trkpt lat="57.16647" lon="24.67038">
        <ele>37.328294</ele>
        <time>2020-10-08T09:29:40.869Z</time>
      </trkpt>
      <trkpt lat="57.16647" lon="24.67029">
        <ele>37.270257</ele>
        <time>2020-10-08T09:29:42.483Z</time>
      </trkpt>
      <trkpt lat="57.16647" lon="24.66992">
        <ele>37.024257</ele>
        <time>2020-10-08T09:29:49.422Z</time>
      </trkpt>
      <trkpt lat="57.16624" lon="24.66764">
        <ele>35.108907</ele>
        <time>2020-10-08T09:30:29.036Z</time>
      </trkpt>
      <trkpt lat="57.16624" lon="24.66643">
        <ele>33.843888</ele>
        <time>2020-10-08T09:30:49.306Z</time>
      </trkpt>
      <trkpt lat="57.16659" lon="24.66226">
        <ele>30.654045</ele>
        <time>2020-10-08T09:32:04.551Z</time>
      </trkpt>
      <trkpt lat="57.16673" lon="24.65948">
        <ele>30.410644</ele>
        <time>2020-10-08T09:33:00.515Z</time>
      </trkpt>
      <trkpt lat="57.16675" lon="24.65804">
        <ele>30.525321</ele>
        <time>2020-10-08T09:33:30.628Z</time>
      </trkpt>
      <trkpt lat="57.16656" lon="24.6553">
        <ele>31.173309</ele>
        <time>2020-10-08T09:34:28.343Z</time>
      </trkpt>
      <trkpt lat="57.16653" lon="24.65366">
        <ele>32.340969</ele>
        <time>2020-10-08T09:35:04.464Z</time>
      </trkpt>
      <trkpt lat="57.16669" lon="24.65033">
        <ele>36.320558</ele>
        <time>2020-10-08T09:36:26.899Z</time>
      </trkpt>
      <trkpt lat="57.16672" lon="24.64861">
        <ele>39.13162</ele>
        <time>2020-10-08T09:37:16.311Z</time>
      </trkpt>
      <trkpt lat="57.16665" lon="24.64754">
        <ele>41.193919</ele>
        <time>2020-10-08T09:37:47.669Z</time>
      </trkpt>
      <trkpt lat="57.1665" lon="24.64638">
        <ele>43.490938</ele>
        <time>2020-10-08T09:38:21.675Z</time>
      </trkpt>
      <trkpt lat="57.16641" lon="24.64503">
        <ele>45.186119</ele>
        <time>2020-10-08T09:38:57.540Z</time>
      </trkpt>
      <trkpt lat="57.16645" lon="24.64327">
        <ele>45.65305</ele>
        <time>2020-10-08T09:39:36.033Z</time>
      </trkpt>
      <trkpt lat="57.16666" lon="24.64104">
        <ele>44.414287</ele>
        <time>2020-10-08T09:40:15.735Z</time>
      </trkpt>
      <trkpt lat="57.16682" lon="24.64026">
        <ele>43.406903</ele>
        <time>2020-10-08T09:40:29.789Z</time>
      </trkpt>
      <trkpt lat="57.16686" lon="24.64011">
        <ele>43.207173</ele>
        <time>2020-10-08T09:40:32.367Z</time>
      </trkpt>
      <trkpt lat="57.16703" lon="24.63952">
        <ele>42.404032</ele>
        <time>2020-10-08T09:40:43.408Z</time>
      </trkpt>
      <trkpt lat="57.16842" lon="24.63624">
        <ele>36.905334</ele>
        <time>2020-10-08T09:41:51.725Z</time>
      </trkpt>
      <trkpt lat="57.16845" lon="24.63576">
        <ele>36.70504</ele>
        <time>2020-10-08T09:42:00.019Z</time>
      </trkpt>
      <trkpt lat="57.16842" lon="24.63529">
        <ele>36.505113</ele>
        <time>2020-10-08T09:42:08.444Z</time>
      </trkpt>
      <trkpt lat="57.16843" lon="24.63519">
        <ele>36.466288</ele>
        <time>2020-10-08T09:42:10.227Z</time>
      </trkpt>
      <trkpt lat="57.16848" lon="24.63494">
        <ele>36.351353</ele>
        <time>2020-10-08T09:42:15.280Z</time>
      </trkpt>
      <trkpt lat="57.16864" lon="24.63433">
        <ele>36.06638</ele>
        <time>2020-10-08T09:42:28.615Z</time>
      </trkpt>
      <trkpt lat="57.16886" lon="24.63367">
        <ele>35.74822</ele>
        <time>2020-10-08T09:42:44.488Z</time>
      </trkpt>
      <trkpt lat="57.16922" lon="24.63232">
        <ele>37.309622</ele>
        <time>2020-10-08T09:43:20.801Z</time>
      </trkpt>
      <trkpt lat="57.1694" lon="24.63104">
        <ele>38.813383</ele>
        <time>2020-10-08T09:43:56.011Z</time>
      </trkpt>
      <trkpt lat="57.16945" lon="24.62987">
        <ele>39.687119</ele>
        <time>2020-10-08T09:44:25.653Z</time>
      </trkpt>
      <trkpt lat="57.16928" lon="24.62887">
        <ele>40.077056</ele>
        <time>2020-10-08T09:44:40.581Z</time>
      </trkpt>
      <trkpt lat="57.16894" lon="24.62755">
        <ele>40.621208</ele>
        <time>2020-10-08T09:44:58.203Z</time>
      </trkpt>
      <trkpt lat="57.16858" lon="24.62653">
        <ele>40.553772</ele>
        <time>2020-10-08T09:45:11.050Z</time>
      </trkpt>
      <trkpt lat="57.16841" lon="24.62619">
        <ele>40.482932</ele>
        <time>2020-10-08T09:45:16.105Z</time>
      </trkpt>
      <trkpt lat="57.16831" lon="24.62599">
        <ele>40.442908</ele>
        <time>2020-10-08T09:45:18.982Z</time>
      </trkpt>
      <trkpt lat="57.16769" lon="24.62482">
        <ele>40.255863</ele>
        <time>2020-10-08T09:45:38.877Z</time>
      </trkpt>
      <trkpt lat="57.16723" lon="24.62413">
        <ele>41.158555</ele>
        <time>2020-10-08T09:45:54.027Z</time>
      </trkpt>
      <trkpt lat="57.16589" lon="24.62242">
        <ele>43.775404</ele>
        <time>2020-10-08T09:46:44.013Z</time>
      </trkpt>
      <trkpt lat="57.16566" lon="24.62184">
        <ele>44.476746</ele>
        <time>2020-10-08T09:46:56.131Z</time>
      </trkpt>
      <trkpt lat="57.16536" lon="24.62082">
        <ele>45.600793</ele>
        <time>2020-10-08T09:47:14.666Z</time>
      </trkpt>
      <trkpt lat="57.16477" lon="24.61864">
        <ele>46.727158</ele>
        <time>2020-10-08T09:47:49.591Z</time>
      </trkpt>
      <trkpt lat="57.16413" lon="24.61641">
        <ele>46.932457</ele>
        <time>2020-10-08T09:48:19.487Z</time>
      </trkpt>
      <trkpt lat="57.16317" lon="24.6103">
        <ele>45.273295</ele>
        <time>2020-10-08T09:49:30.001Z</time>
      </trkpt>
      <trkpt lat="57.16303" lon="24.60984">
        <ele>45.158336</ele>
        <time>2020-10-08T09:49:35.973Z</time>
      </trkpt>
      <trkpt lat="57.16256" lon="24.60959">
        <ele>44.958517</ele>
        <time>2020-10-08T09:49:46.379Z</time>
      </trkpt>
      <trkpt lat="57.16159" lon="24.60979">
        <ele>44.636693</ele>
        <time>2020-10-08T09:50:07.082Z</time>
      </trkpt>
      <trkpt lat="57.16134" lon="24.60962">
        <ele>44.581784</ele>
        <time>2020-10-08T09:50:12.665Z</time>
      </trkpt>
      <trkpt lat="57.16098" lon="24.60904">
        <ele>44.480725</ele>
        <time>2020-10-08T09:50:22.783Z</time>
      </trkpt>
      <trkpt lat="57.15965" lon="24.60592">
        <ele>44.096993</ele>
        <time>2020-10-08T09:51:10.166Z</time>
      </trkpt>
      <trkpt lat="57.15951" lon="24.60555">
        <ele>44.056604</ele>
        <time>2020-10-08T09:51:15.610Z</time>
      </trkpt>
      <trkpt lat="57.15938" lon="24.60487">
        <ele>43.562363</ele>
        <time>2020-10-08T09:51:23.648Z</time>
      </trkpt>
      <trkpt lat="57.15937" lon="24.60447">
        <ele>43.225445</ele>
        <time>2020-10-08T09:51:28.204Z</time>
      </trkpt>
      <trkpt lat="57.15937" lon="24.60406">
        <ele>42.870697</ele>
        <time>2020-10-08T09:51:32.316Z</time>
      </trkpt>
      <trkpt lat="57.15933" lon="24.60369">
        <ele>42.55201</ele>
        <time>2020-10-08T09:51:36.212Z</time>
      </trkpt>
      <trkpt lat="57.15916" lon="24.60309">
        <ele>41.976991</ele>
        <time>2020-10-08T09:51:42.784Z</time>
      </trkpt>
      <trkpt lat="57.15897" lon="24.60287">
        <ele>41.628659</ele>
        <time>2020-10-08T09:51:46.648Z</time>
      </trkpt>
      <trkpt lat="57.15807" lon="24.60248">
        <ele>38.962355</ele>
        <time>2020-10-08T09:52:01.745Z</time>
      </trkpt>
      <trkpt lat="57.15769" lon="24.60219">
        <ele>37.572436</ele>
        <time>2020-10-08T09:52:08.261Z</time>
      </trkpt>
      <trkpt lat="57.1568" lon="24.60082">
        <ele>34.083938</ele>
        <time>2020-10-08T09:52:26.840Z</time>
      </trkpt>
      <trkpt lat="57.15538" lon="24.59878">
        <ele>30.405205</ele>
        <time>2020-10-08T09:52:58.544Z</time>
      </trkpt>
      <trkpt lat="57.15435" lon="24.59826">
        <ele>29.471351</ele>
        <time>2020-10-08T09:53:20.211Z</time>
      </trkpt>
      <trkpt lat="57.15358" lon="24.59759">
        <ele>29.134947</ele>
        <time>2020-10-08T09:53:39.055Z</time>
      </trkpt>
      <trkpt lat="57.15332" lon="24.59709">
        <ele>29.081628</ele>
        <time>2020-10-08T09:53:47.317Z</time>
      </trkpt>
      <trkpt lat="57.15314" lon="24.59653">
        <ele>29.030764</ele>
        <time>2020-10-08T09:53:55.065Z</time>
      </trkpt>
      <trkpt lat="57.15282" lon="24.59457">
        <ele>29.019801</ele>
        <time>2020-10-08T09:54:18.992Z</time>
      </trkpt>
      <trkpt lat="57.15243" lon="24.5935">
        <ele>29.091406</ele>
        <time>2020-10-08T09:54:34.393Z</time>
      </trkpt>
      <trkpt lat="57.15186" lon="24.59279">
        <ele>29.397298</ele>
        <time>2020-10-08T09:54:50.932Z</time>
      </trkpt>
      <trkpt lat="57.15131" lon="24.59141">
        <ele>30.657383</ele>
        <time>2020-10-08T09:55:16.114Z</time>
      </trkpt>
      <trkpt lat="57.15075" lon="24.59048">
        <ele>31.704673</ele>
        <time>2020-10-08T09:55:38.810Z</time>
      </trkpt>
      <trkpt lat="57.15034" lon="24.58928">
        <ele>32.994999</ele>
        <time>2020-10-08T09:56:02.501Z</time>
      </trkpt>
      <trkpt lat="57.14986" lon="24.58815">
        <ele>34.303842</ele>
        <time>2020-10-08T09:56:24.918Z</time>
      </trkpt>
      <trkpt lat="57.14966" lon="24.5874">
        <ele>34.680229</ele>
        <time>2020-10-08T09:56:37.113Z</time>
      </trkpt>
      <trkpt lat="57.14961" lon="24.5872">
        <ele>34.715087</ele>
        <time>2020-10-08T09:56:39.783Z</time>
      </trkpt>
      <trkpt lat="57.14919" lon="24.584">
        <ele>34.912459</ele>
        <time>2020-10-08T09:57:20.256Z</time>
      </trkpt>
      <trkpt lat="57.14883" lon="24.58243">
        <ele>34.384884</ele>
        <time>2020-10-08T09:57:39.107Z</time>
      </trkpt>
      <trkpt lat="57.1459" lon="24.57797">
        <ele>30.370228</ele>
        <time>2020-10-08T09:58:51.384Z</time>
      </trkpt>
      <trkpt lat="57.1448" lon="24.57644">
        <ele>28.716267</ele>
        <time>2020-10-08T09:59:18.269Z</time>
      </trkpt>
      <trkpt lat="57.14431" lon="24.57528">
        <ele>27.683514</ele>
        <time>2020-10-08T09:59:32.811Z</time>
      </trkpt>
      <trkpt lat="57.14409" lon="24.57473">
        <ele>26.952948</ele>
        <time>2020-10-08T09:59:39.518Z</time>
      </trkpt>
      <trkpt lat="57.14372" lon="24.5739">
        <ele>25.828276</ele>
        <time>2020-10-08T09:59:49.707Z</time>
      </trkpt>
      <trkpt lat="57.14353" lon="24.57257">
        <ele>24.387695</ele>
        <time>2020-10-08T10:00:02.688Z</time>
      </trkpt>
      <trkpt lat="57.14348" lon="24.57079">
        <ele>23.130841</ele>
        <time>2020-10-08T10:00:20.230Z</time>
      </trkpt>
      <trkpt lat="57.14352" lon="24.56866">
        <ele>21.991669</ele>
        <time>2020-10-08T10:00:43.208Z</time>
      </trkpt>
      <trkpt lat="57.14336" lon="24.56783">
        <ele>21.911561</ele>
        <time>2020-10-08T10:00:53.282Z</time>
      </trkpt>
      <trkpt lat="57.14323" lon="24.56763">
        <ele>21.884232</ele>
        <time>2020-10-08T10:00:56.689Z</time>
      </trkpt>
      <trkpt lat="57.14312" lon="24.56749">
        <ele>21.862315</ele>
        <time>2020-10-08T10:00:59.734Z</time>
      </trkpt>
      <trkpt lat="57.14259" lon="24.567">
        <ele>21.763151</ele>
        <time>2020-10-08T10:01:13.228Z</time>
      </trkpt>
      <trkpt lat="57.14216" lon="24.56587">
        <ele>22.467542</ele>
        <time>2020-10-08T10:01:31.818Z</time>
      </trkpt>
      <trkpt lat="57.14008" lon="24.56242">
        <ele>26.060397</ele>
        <time>2020-10-08T10:02:50.940Z</time>
      </trkpt>
      <trkpt lat="57.13922" lon="24.56068">
        <ele>26.69533</ele>
        <time>2020-10-08T10:03:23.019Z</time>
      </trkpt>
      <trkpt lat="57.13861" lon="24.55969">
        <ele>26.824705</ele>
        <time>2020-10-08T10:03:40.825Z</time>
      </trkpt>
      <trkpt lat="57.13795" lon="24.5583">
        <ele>25.894476</ele>
        <time>2020-10-08T10:04:00.686Z</time>
      </trkpt>
      <trkpt lat="57.13529" lon="24.5536">
        <ele>20.945953</ele>
        <time>2020-10-08T10:05:08.414Z</time>
      </trkpt>
      <trkpt lat="57.13477" lon="24.5521">
        <ele>20.106969</ele>
        <time>2020-10-08T10:05:27.061Z</time>
      </trkpt>
      <trkpt lat="57.13171" lon="24.54699">
        <ele>19.427153</ele>
        <time>2020-10-08T10:06:58.004Z</time>
      </trkpt>
      <trkpt lat="57.13113" lon="24.54555">
        <ele>19.349531</ele>
        <time>2020-10-08T10:07:20.166Z</time>
      </trkpt>
      <trkpt lat="57.1301" lon="24.54345">
        <ele>18.684339</ele>
        <time>2020-10-08T10:07:51.840Z</time>
      </trkpt>
      <trkpt lat="57.12895" lon="24.54137">
        <ele>18.081069</ele>
        <time>2020-10-08T10:08:23.877Z</time>
      </trkpt>
      <trkpt lat="57.12755" lon="24.53858">
        <ele>19.805039</ele>
        <time>2020-10-08T10:09:17.151Z</time>
      </trkpt>
      <trkpt lat="57.12623" lon="24.53504">
        <ele>25.257921</ele>
        <time>2020-10-08T10:10:35.070Z</time>
      </trkpt>
      <trkpt lat="57.12548" lon="24.53343">
        <ele>27.199788</ele>
        <time>2020-10-08T10:11:08.527Z</time>
      </trkpt>
      <trkpt lat="57.12428" lon="24.53004">
        <ele>27.425102</ele>
        <time>2020-10-08T10:11:57.287Z</time>
      </trkpt>
      <trkpt lat="57.1232" lon="24.528">
        <ele>26.162758</ele>
        <time>2020-10-08T10:12:27.247Z</time>
      </trkpt>
      <trkpt lat="57.12293" lon="24.52772">
        <ele>25.96287</ele>
        <time>2020-10-08T10:12:33.142Z</time>
      </trkpt>
      <trkpt lat="57.12198" lon="24.52734">
        <ele>25.368268</ele>
        <time>2020-10-08T10:12:52.412Z</time>
      </trkpt>
      <trkpt lat="57.12161" lon="24.52706">
        <ele>25.130185</ele>
        <time>2020-10-08T10:13:00.454Z</time>
      </trkpt>
      <trkpt lat="57.12112" lon="24.52616">
        <ele>25.630827</ele>
        <time>2020-10-08T10:13:16.597Z</time>
      </trkpt>
      <trkpt lat="57.12061" lon="24.52493">
        <ele>26.64303</ele>
        <time>2020-10-08T10:13:40.061Z</time>
      </trkpt>
      <trkpt lat="57.12055" lon="24.52492">
        <ele>26.718895</ele>
        <time>2020-10-08T10:13:41.720Z</time>
      </trkpt>
      <trkpt lat="57.12032" lon="24.52438">
        <ele>27.164314</ele>
        <time>2020-10-08T10:13:58.637Z</time>
      </trkpt>
      <trkpt lat="57.12013" lon="24.52344">
        <ele>28.203651</ele>
        <time>2020-10-08T10:14:24.348Z</time>
      </trkpt>
      <trkpt lat="57.12011" lon="24.52263">
        <ele>29.061409</ele>
        <time>2020-10-08T10:14:45.417Z</time>
      </trkpt>
      <trkpt lat="57.12006" lon="24.52222">
        <ele>29.493457</ele>
        <time>2020-10-08T10:14:55.758Z</time>
      </trkpt>
      <trkpt lat="57.11974" lon="24.52077">
        <ele>30.502728</ele>
        <time>2020-10-08T10:15:32.508Z</time>
      </trkpt>
      <trkpt lat="57.11931" lon="24.51933">
        <ele>29.962157</ele>
        <time>2020-10-08T10:16:04.141Z</time>
      </trkpt>
      <trkpt lat="57.11887" lon="24.51849">
        <ele>29.581091</ele>
        <time>2020-10-08T10:16:24.411Z</time>
      </trkpt>
      <trkpt lat="57.11845" lon="24.51797">
        <ele>28.627859</ele>
        <time>2020-10-08T10:16:40.301Z</time>
      </trkpt>
      <trkpt lat="57.11824" lon="24.51746">
        <ele>27.96199</ele>
        <time>2020-10-08T10:16:51.049Z</time>
      </trkpt>
      <trkpt lat="57.11807" lon="24.51729">
        <ele>27.597649</ele>
        <time>2020-10-08T10:16:56.971Z</time>
      </trkpt>
      <trkpt lat="57.11774" lon="24.51651">
        <ele>26.559941</ele>
        <time>2020-10-08T10:17:14.015Z</time>
      </trkpt>
      <trkpt lat="57.11739" lon="24.51593">
        <ele>25.923132</ele>
        <time>2020-10-08T10:17:29.390Z</time>
      </trkpt>
      <trkpt lat="57.11645" lon="24.51463">
        <ele>25.008096</ele>
        <time>2020-10-08T10:18:10.017Z</time>
      </trkpt>
      <trkpt lat="57.11574" lon="24.51376">
        <ele>24.744242</ele>
        <time>2020-10-08T10:18:41.077Z</time>
      </trkpt>
      <trkpt lat="57.11525" lon="24.51304">
        <ele>24.792971</ele>
        <time>2020-10-08T10:19:04.542Z</time>
      </trkpt>
      <trkpt lat="57.11425" lon="24.51185">
        <ele>25.120892</ele>
        <time>2020-10-08T10:19:50.189Z</time>
      </trkpt>
      <trkpt lat="57.11395" lon="24.51131">
        <ele>25.35978</ele>
        <time>2020-10-08T10:20:06.825Z</time>
      </trkpt>
      <trkpt lat="57.11366" lon="24.51071">
        <ele>25.605958</ele>
        <time>2020-10-08T10:20:24.150Z</time>
      </trkpt>
      <trkpt lat="57.11301" lon="24.5087">
        <ele>26.371051</ele>
        <time>2020-10-08T10:21:15.319Z</time>
      </trkpt>
      <trkpt lat="57.11196" lon="24.50651">
        <ele>26.979125</ele>
        <time>2020-10-08T10:22:17.388Z</time>
      </trkpt>
      <trkpt lat="57.11174" lon="24.5058">
        <ele>26.973907</ele>
        <time>2020-10-08T10:22:34.093Z</time>
      </trkpt>
      <trkpt lat="57.11101" lon="24.50443">
        <ele>26.739801</ele>
        <time>2020-10-08T10:23:11.190Z</time>
      </trkpt>
      <trkpt lat="57.11025" lon="24.50316">
        <ele>25.921763</ele>
        <time>2020-10-08T10:23:46.413Z</time>
      </trkpt>
      <trkpt lat="57.11003" lon="24.50256">
        <ele>25.60782</ele>
        <time>2020-10-08T10:23:54.352Z</time>
      </trkpt>
      <trkpt lat="57.10966" lon="24.5019">
        <ele>25.104189</ele>
        <time>2020-10-08T10:24:04.670Z</time>
      </trkpt>
      <trkpt lat="57.10896" lon="24.5003">
        <ele>23.967365</ele>
        <time>2020-10-08T10:24:27.179Z</time>
      </trkpt>
      <trkpt lat="57.10873" lon="24.50003">
        <ele>23.698586</ele>
        <time>2020-10-08T10:24:32.666Z</time>
      </trkpt>
      <trkpt lat="57.10846" lon="24.49991">
        <ele>23.490285</ele>
        <time>2020-10-08T10:24:38.551Z</time>
      </trkpt>
      <trkpt lat="57.10769" lon="24.4999">
        <ele>22.929979</ele>
        <time>2020-10-08T10:24:54.454Z</time>
      </trkpt>
      <trkpt lat="57.10661" lon="24.49766">
        <ele>22.045293</ele>
        <time>2020-10-08T10:25:29.216Z</time>
      </trkpt>
      <trkpt lat="57.10476" lon="24.49435">
        <ele>21.437784</ele>
        <time>2020-10-08T10:26:26.996Z</time>
      </trkpt>
      <trkpt lat="57.10365" lon="24.49261">
        <ele>21.81336</ele>
        <time>2020-10-08T10:27:02.122Z</time>
      </trkpt>
      <trkpt lat="57.10253" lon="24.49012">
        <ele>22.660895</ele>
        <time>2020-10-08T10:27:46.852Z</time>
      </trkpt>
      <trkpt lat="57.10211" lon="24.48906">
        <ele>23.032622</ele>
        <time>2020-10-08T10:28:05.155Z</time>
      </trkpt>
      <trkpt lat="57.10171" lon="24.48832">
        <ele>23.286656</ele>
        <time>2020-10-08T10:28:19.783Z</time>
      </trkpt>
      <trkpt lat="57.10068" lon="24.48588">
        <ele>23.309741</ele>
        <time>2020-10-08T10:29:00.828Z</time>
      </trkpt>
      <trkpt lat="57.10033" lon="24.48456">
        <ele>22.767555</ele>
        <time>2020-10-08T10:29:17.383Z</time>
      </trkpt>
      <trkpt lat="57.10002" lon="24.48365">
        <ele>22.023152</ele>
        <time>2020-10-08T10:29:28.380Z</time>
      </trkpt>
      <trkpt lat="57.0993" lon="24.48175">
        <ele>19.221714</ele>
        <time>2020-10-08T10:29:50.897Z</time>
      </trkpt>
      <trkpt lat="57.09909" lon="24.48136">
        <ele>18.553828</ele>
        <time>2020-10-08T10:29:56.265Z</time>
      </trkpt>
      <trkpt lat="57.09857" lon="24.47956">
        <ele>16.927059</ele>
        <time>2020-10-08T10:30:16.979Z</time>
      </trkpt>
      <trkpt lat="57.09802" lon="24.47736">
        <ele>15.894774</ele>
        <time>2020-10-08T10:30:44.833Z</time>
      </trkpt>
      <trkpt lat="57.09762" lon="24.47627">
        <ele>15.879214</ele>
        <time>2020-10-08T10:31:02.192Z</time>
      </trkpt>
      <trkpt lat="57.09632" lon="24.47347">
        <ele>15.963181</ele>
        <time>2020-10-08T10:31:51.237Z</time>
      </trkpt>
      <trkpt lat="57.09522" lon="24.47187">
        <ele>15.032182</ele>
        <time>2020-10-08T10:32:19.756Z</time>
      </trkpt>
      <trkpt lat="57.09468" lon="24.47109">
        <ele>14.466875</ele>
        <time>2020-10-08T10:32:33.424Z</time>
      </trkpt>
      <trkpt lat="57.09461" lon="24.47099">
        <ele>14.453885</ele>
        <time>2020-10-08T10:32:35.199Z</time>
      </trkpt>
      <trkpt lat="57.0922" lon="24.46722">
        <ele>14.583587</ele>
        <time>2020-10-08T10:33:48.818Z</time>
      </trkpt>
      <trkpt lat="57.09171" lon="24.46658">
        <ele>14.939742</ele>
        <time>2020-10-08T10:34:05.369Z</time>
      </trkpt>
      <trkpt lat="57.0915" lon="24.46619">
        <ele>15.244149</ele>
        <time>2020-10-08T10:34:13.663Z</time>
      </trkpt>
      <trkpt lat="57.09146" lon="24.46604">
        <ele>15.335609</ele>
        <time>2020-10-08T10:34:16.469Z</time>
      </trkpt>
      <trkpt lat="57.09142" lon="24.46589">
        <ele>15.419287</ele>
        <time>2020-10-08T10:34:18.761Z</time>
      </trkpt>
      <trkpt lat="57.0914" lon="24.46585">
        <ele>15.451027</ele>
        <time>2020-10-08T10:34:19.558Z</time>
      </trkpt>
      <trkpt lat="57.09131" lon="24.46568">
        <ele>15.579327</ele>
        <time>2020-10-08T10:34:22.840Z</time>
      </trkpt>
      <trkpt lat="57.09125" lon="24.46551">
        <ele>15.688876</ele>
        <time>2020-10-08T10:34:26.035Z</time>
      </trkpt>
      <trkpt lat="57.09109" lon="24.46435">
        <ele>16.339779</ele>
        <time>2020-10-08T10:34:42.827Z</time>
      </trkpt>
      <trkpt lat="57.09091" lon="24.46292">
        <ele>17.054884</ele>
        <time>2020-10-08T10:35:04.267Z</time>
      </trkpt>
      <trkpt lat="57.09083" lon="24.46226">
        <ele>17.382256</ele>
        <time>2020-10-08T10:35:13.366Z</time>
      </trkpt>
      <trkpt lat="57.09053" lon="24.45992">
        <ele>18.470719</ele>
        <time>2020-10-08T10:35:46.919Z</time>
      </trkpt>
      <trkpt lat="57.09016" lon="24.45876">
        <ele>19.034972</ele>
        <time>2020-10-08T10:36:06.550Z</time>
      </trkpt>
      <trkpt lat="57.08954" lon="24.45721">
        <ele>19.128705</ele>
        <time>2020-10-08T10:36:31.290Z</time>
      </trkpt>
      <trkpt lat="57.0893" lon="24.45625">
        <ele>18.79088</ele>
        <time>2020-10-08T10:36:43.081Z</time>
      </trkpt>
      <trkpt lat="57.08925" lon="24.45451">
        <ele>17.98435</ele>
        <time>2020-10-08T10:37:00.775Z</time>
      </trkpt>
      <trkpt lat="57.08927" lon="24.45256">
        <ele>16.283643</ele>
        <time>2020-10-08T10:37:19.792Z</time>
      </trkpt>
      <trkpt lat="57.08938" lon="24.45187">
        <ele>15.661417</ele>
        <time>2020-10-08T10:37:26.893Z</time>
      </trkpt>
      <trkpt lat="57.0898" lon="24.45097">
        <ele>14.677802</ele>
        <time>2020-10-08T10:37:38.926Z</time>
      </trkpt>
      <trkpt lat="57.08994" lon="24.45033">
        <ele>14.109234</ele>
        <time>2020-10-08T10:37:46.012Z</time>
      </trkpt>
      <trkpt lat="57.09003" lon="24.44906">
        <ele>13.060663</ele>
        <time>2020-10-08T10:37:58.936Z</time>
      </trkpt>
      <trkpt lat="57.09003" lon="24.44828">
        <ele>12.277992</ele>
        <time>2020-10-08T10:38:06.379Z</time>
      </trkpt>
      <trkpt lat="57.08993" lon="24.44677">
        <ele>10.524895</ele>
        <time>2020-10-08T10:38:20.674Z</time>
      </trkpt>
      <trkpt lat="57.08991" lon="24.44606">
        <ele>9.703838</ele>
        <time>2020-10-08T10:38:27.361Z</time>
      </trkpt>
      <trkpt lat="57.08984" lon="24.44521">
        <ele>8.791542</ele>
        <time>2020-10-08T10:38:35.457Z</time>
      </trkpt>
      <trkpt lat="57.0898" lon="24.44464">
        <ele>8.343667</ele>
        <time>2020-10-08T10:38:40.926Z</time>
      </trkpt>
      <trkpt lat="57.08945" lon="24.44132">
        <ele>6.183595</ele>
        <time>2020-10-08T10:39:15.892Z</time>
      </trkpt>
      <trkpt lat="57.08926" lon="24.43975">
        <ele>5.808561</ele>
        <time>2020-10-08T10:39:34.581Z</time>
      </trkpt>
      <trkpt lat="57.08917" lon="24.43934">
        <ele>5.704319</ele>
        <time>2020-10-08T10:39:39.898Z</time>
      </trkpt>
      <trkpt lat="57.08885" lon="24.43851">
        <ele>5.823276</ele>
        <time>2020-10-08T10:39:52.256Z</time>
      </trkpt>
      <trkpt lat="57.0871" lon="24.43543">
        <ele>8.537555</ele>
        <time>2020-10-08T10:40:54.204Z</time>
      </trkpt>
      <trkpt lat="57.08575" lon="24.43301">
        <ele>13.442451</ele>
        <time>2020-10-08T10:41:59.693Z</time>
      </trkpt>
      <trkpt lat="57.08493" lon="24.43212">
        <ele>16.261243</ele>
        <time>2020-10-08T10:42:33.666Z</time>
      </trkpt>
      <trkpt lat="57.08477" lon="24.43169">
        <ele>16.868718</ele>
        <time>2020-10-08T10:42:43.219Z</time>
      </trkpt>
      <trkpt lat="57.08468" lon="24.43112">
        <ele>17.549074</ele>
        <time>2020-10-08T10:42:53.572Z</time>
      </trkpt>
      <trkpt lat="57.08467" lon="24.42737">
        <ele>21.039196</ele>
        <time>2020-10-08T10:43:51.103Z</time>
      </trkpt>
      <trkpt lat="57.08457" lon="24.4252">
        <ele>22.512871</ele>
        <time>2020-10-08T10:44:22.493Z</time>
      </trkpt>
      <trkpt lat="57.08499" lon="24.42348">
        <ele>23.663395</ele>
        <time>2020-10-08T10:44:50.477Z</time>
      </trkpt>
      <trkpt lat="57.08464" lon="24.42075">
        <ele>24.77934</ele>
        <time>2020-10-08T10:45:30.638Z</time>
      </trkpt>
      <trkpt lat="57.08366" lon="24.41833">
        <ele>24.612192</ele>
        <time>2020-10-08T10:46:06.018Z</time>
      </trkpt>
      <trkpt lat="57.08346" lon="24.41299">
        <ele>22.415172</ele>
        <time>2020-10-08T10:47:02.326Z</time>
      </trkpt>
      <trkpt lat="57.08504" lon="24.40602">
        <ele>22.511986</ele>
        <time>2020-10-08T10:48:36.717Z</time>
      </trkpt>
      <trkpt lat="57.08511" lon="24.40308">
        <ele>22.345629</ele>
        <time>2020-10-08T10:49:11.082Z</time>
      </trkpt>
      <trkpt lat="57.08547" lon="24.40104">
        <ele>22.132881</ele>
        <time>2020-10-08T10:49:36.208Z</time>
      </trkpt>
      <trkpt lat="57.08552" lon="24.39996">
        <ele>21.997409</ele>
        <time>2020-10-08T10:49:49.464Z</time>
      </trkpt>
      <trkpt lat="57.08501" lon="24.39758">
        <ele>21.435362</ele>
        <time>2020-10-08T10:50:19.483Z</time>
      </trkpt>
      <trkpt lat="57.0846" lon="24.39417">
        <ele>18.108067</ele>
        <time>2020-10-08T10:50:54.085Z</time>
      </trkpt>
      <trkpt lat="57.08415" lon="24.3922">
        <ele>14.296196</ele>
        <time>2020-10-08T10:51:12.714Z</time>
      </trkpt>
      <trkpt lat="57.08341" lon="24.39016">
        <ele>10.237356</ele>
        <time>2020-10-08T10:51:33.758Z</time>
      </trkpt>
      <trkpt lat="57.08278" lon="24.38861">
        <ele>7.686219</ele>
        <time>2020-10-08T10:51:52.075Z</time>
      </trkpt>
      <trkpt lat="57.08223" lon="24.38775">
        <ele>7.257446</ele>
        <time>2020-10-08T10:52:06.866Z</time>
      </trkpt>
      <trkpt lat="57.08165" lon="24.38605">
        <ele>6.657448</ele>
        <time>2020-10-08T10:52:31.439Z</time>
      </trkpt>
      <trkpt lat="57.08159" lon="24.38574">
        <ele>6.585981</ele>
        <time>2020-10-08T10:52:35.638Z</time>
      </trkpt>
      <trkpt lat="57.08163" lon="24.38548">
        <ele>6.529472</ele>
        <time>2020-10-08T10:52:38.608Z</time>
      </trkpt>
      <trkpt lat="57.08178" lon="24.385">
        <ele>6.409818</ele>
        <time>2020-10-08T10:52:45.304Z</time>
      </trkpt>
      <trkpt lat="57.08188" lon="24.38469">
        <ele>6.332178</ele>
        <time>2020-10-08T10:52:49.588Z</time>
      </trkpt>
      <trkpt lat="57.08191" lon="24.38434">
        <ele>6.256937</ele>
        <time>2020-10-08T10:52:53.452Z</time>
      </trkpt>
      <trkpt lat="57.08216" lon="24.3807">
        <ele>4.668066</ele>
        <time>2020-10-08T10:53:32.094Z</time>
      </trkpt>
      <trkpt lat="57.08216" lon="24.38045">
        <ele>4.54322</ele>
        <time>2020-10-08T10:53:34.593Z</time>
      </trkpt>
      <trkpt lat="57.08212" lon="24.38027">
        <ele>4.444258</ele>
        <time>2020-10-08T10:53:36.702Z</time>
      </trkpt>
      <trkpt lat="57.082" lon="24.37998">
        <ele>4.308121</ele>
        <time>2020-10-08T10:53:40.636Z</time>
      </trkpt>
      <trkpt lat="57.08113" lon="24.37824">
        <ele>3.689206</ele>
        <time>2020-10-08T10:54:06.902Z</time>
      </trkpt>
      <trkpt lat="57.08046" lon="24.37686">
        <ele>3.534178</ele>
        <time>2020-10-08T10:54:29.072Z</time>
      </trkpt>
      <trkpt lat="57.07991" lon="24.3756">
        <ele>3.590627</ele>
        <time>2020-10-08T10:54:49.209Z</time>
      </trkpt>
      <trkpt lat="57.0796" lon="24.37376">
        <ele>4.038665</ele>
        <time>2020-10-08T10:55:13.872Z</time>
      </trkpt>
      <trkpt lat="57.07955" lon="24.37305">
        <ele>4.265728</ele>
        <time>2020-10-08T10:55:23.618Z</time>
      </trkpt>
      <trkpt lat="57.07954" lon="24.37078">
        <ele>5.091612</ele>
        <time>2020-10-08T10:55:54.966Z</time>
      </trkpt>
      <trkpt lat="57.07957" lon="24.37067">
        <ele>5.143513</ele>
        <time>2020-10-08T10:55:56.979Z</time>
      </trkpt>
      <trkpt lat="57.07963" lon="24.37055">
        <ele>5.213521</ele>
        <time>2020-10-08T10:55:59.218Z</time>
      </trkpt>
      <trkpt lat="57.08048" lon="24.36954">
        <ele>6.001844</ele>
        <time>2020-10-08T10:56:25.090Z</time>
      </trkpt>
      <trkpt lat="57.0819" lon="24.36707">
        <ele>6.905264</ele>
        <time>2020-10-08T10:57:11.843Z</time>
      </trkpt>
      <trkpt lat="57.08228" lon="24.36711">
        <ele>7.010198</ele>
        <time>2020-10-08T10:57:21.080Z</time>
      </trkpt>
      <trkpt lat="57.08247" lon="24.36698">
        <ele>7.06467</ele>
        <time>2020-10-08T10:57:25.840Z</time>
      </trkpt>
      <trkpt lat="57.0828" lon="24.36658">
        <ele>7.174928</ele>
        <time>2020-10-08T10:57:35.449Z</time>
      </trkpt>
      <trkpt lat="57.08301" lon="24.36608">
        <ele>7.267777</ele>
        <time>2020-10-08T10:57:43.423Z</time>
      </trkpt>
      <trkpt lat="57.08334" lon="24.36407">
        <ele>7.111557</ele>
        <time>2020-10-08T10:58:09.057Z</time>
      </trkpt>
      <trkpt lat="57.08387" lon="24.361">
        <ele>6.424214</ele>
        <time>2020-10-08T10:58:44.462Z</time>
      </trkpt>
      <trkpt lat="57.08411" lon="24.35962">
        <ele>6.06932</ele>
        <time>2020-10-08T10:59:00.476Z</time>
      </trkpt>
      <trkpt lat="57.08422" lon="24.35799">
        <ele>6.18861</ele>
        <time>2020-10-08T10:59:20.116Z</time>
      </trkpt>
      <trkpt lat="57.08431" lon="24.35518">
        <ele>7.125743</ele>
        <time>2020-10-08T10:59:58.849Z</time>
      </trkpt>
      <trkpt lat="57.08391" lon="24.35114">
        <ele>10.295949</ele>
        <time>2020-10-08T11:01:00.770Z</time>
      </trkpt>
      <trkpt lat="57.08393" lon="24.35075">
        <ele>10.671817</ele>
        <time>2020-10-08T11:01:07.042Z</time>
      </trkpt>
      <trkpt lat="57.08397" lon="24.3506">
        <ele>10.835722</ele>
        <time>2020-10-08T11:01:09.806Z</time>
      </trkpt>
      <trkpt lat="57.08412" lon="24.35041">
        <ele>11.162487</ele>
        <time>2020-10-08T11:01:15.306Z</time>
      </trkpt>
      <trkpt lat="57.08441" lon="24.35029">
        <ele>11.699116</ele>
        <time>2020-10-08T11:01:24.524Z</time>
      </trkpt>
      <trkpt lat="57.08524" lon="24.34975">
        <ele>13.421175</ele>
        <time>2020-10-08T11:01:52.471Z</time>
      </trkpt>
      <trkpt lat="57.08631" lon="24.34836">
        <ele>15.727817</ele>
        <time>2020-10-08T11:02:32.596Z</time>
      </trkpt>
      <trkpt lat="57.0868" lon="24.34814">
        <ele>15.29432</ele>
        <time>2020-10-08T11:02:44.902Z</time>
      </trkpt>
      <trkpt lat="57.08717" lon="24.34801">
        <ele>14.968108</ele>
        <time>2020-10-08T11:02:52.789Z</time>
      </trkpt>
      <trkpt lat="57.08723" lon="24.34798">
        <ele>14.913089</ele>
        <time>2020-10-08T11:02:54.005Z</time>
      </trkpt>
      <trkpt lat="57.08538" lon="24.34364">
        <ele>8.589551</ele>
        <time>2020-10-08T11:03:44.006Z</time>
      </trkpt>
      <trkpt lat="57.08434" lon="24.34114">
        <ele>6.65435</ele>
        <time>2020-10-08T11:04:17.642Z</time>
      </trkpt>
      <trkpt lat="57.08373" lon="24.34015">
        <ele>6.515591</ele>
        <time>2020-10-08T11:04:36.397Z</time>
      </trkpt>
      <trkpt lat="57.08363" lon="24.34002">
        <ele>6.493926</ele>
        <time>2020-10-08T11:04:39.363Z</time>
      </trkpt>
      <trkpt lat="57.08307" lon="24.33932">
        <ele>6.335011</ele>
        <time>2020-10-08T11:04:54.113Z</time>
      </trkpt>
      <trkpt lat="57.08229" lon="24.33871">
        <ele>6.007792</ele>
        <time>2020-10-08T11:05:11.330Z</time>
      </trkpt>
      <trkpt lat="57.08175" lon="24.33841">
        <ele>5.787294</ele>
        <time>2020-10-08T11:05:23.028Z</time>
      </trkpt>
      <trkpt lat="57.08148" lon="24.33823">
        <ele>5.687353</ele>
        <time>2020-10-08T11:05:29.608Z</time>
      </trkpt>
      <trkpt lat="57.08142" lon="24.33819">
        <ele>5.672647</ele>
        <time>2020-10-08T11:05:30.735Z</time>
      </trkpt>
      <trkpt lat="57.08025" lon="24.33747">
        <ele>5.366324</ele>
        <time>2020-10-08T11:05:56.572Z</time>
      </trkpt>
      <trkpt lat="57.08023" lon="24.33745">
        <ele>5.3603</ele>
        <time>2020-10-08T11:05:57.091Z</time>
      </trkpt>
      <trkpt lat="57.07994" lon="24.33727">
        <ele>5.284402</ele>
        <time>2020-10-08T11:06:03.667Z</time>
      </trkpt>
      <trkpt lat="57.07985" lon="24.33695">
        <ele>5.282052</ele>
        <time>2020-10-08T11:06:08.237Z</time>
      </trkpt>
      <trkpt lat="57.0798" lon="24.33517">
        <ele>5.410013</ele>
        <time>2020-10-08T11:06:30.951Z</time>
      </trkpt>
      <trkpt lat="57.07979" lon="24.33496">
        <ele>5.425201</ele>
        <time>2020-10-08T11:06:33.585Z</time>
      </trkpt>
      <trkpt lat="57.0797" lon="24.33497">
        <ele>5.437648</ele>
        <time>2020-10-08T11:06:36.355Z</time>
      </trkpt>
      <trkpt lat="57.07967" lon="24.33336">
        <ele>5.50992</ele>
        <time>2020-10-08T11:06:56.738Z</time>
      </trkpt>
      <trkpt lat="57.07961" lon="24.33134">
        <ele>5.527684</ele>
        <time>2020-10-08T11:07:22.756Z</time>
      </trkpt>
      <trkpt lat="57.07962" lon="24.33113">
        <ele>5.529574</ele>
        <time>2020-10-08T11:07:25.413Z</time>
      </trkpt>
      <trkpt lat="57.07965" lon="24.33095">
        <ele>5.531188</ele>
        <time>2020-10-08T11:07:27.483Z</time>
      </trkpt>
      <trkpt lat="57.07959" lon="24.33042">
        <ele>5.594683</ele>
        <time>2020-10-08T11:07:33.679Z</time>
      </trkpt>
      <trkpt lat="57.0794" lon="24.33001">
        <ele>5.694085</ele>
        <time>2020-10-08T11:07:40.167Z</time>
      </trkpt>
      <trkpt lat="57.07854" lon="24.32855">
        <ele>6.08359</ele>
        <time>2020-10-08T11:08:08.246Z</time>
      </trkpt>
      <trkpt lat="57.07847" lon="24.32838">
        <ele>6.122633</ele>
        <time>2020-10-08T11:08:12.388Z</time>
      </trkpt>
      <trkpt lat="57.07841" lon="24.32818">
        <ele>6.192041</ele>
        <time>2020-10-08T11:08:15.961Z</time>
      </trkpt>
      <trkpt lat="57.07834" lon="24.32802">
        <ele>6.268235</ele>
        <time>2020-10-08T11:08:19.870Z</time>
      </trkpt>
      <trkpt lat="57.07828" lon="24.32791">
        <ele>6.324475</ele>
        <time>2020-10-08T11:08:22.980Z</time>
      </trkpt>
      <trkpt lat="57.07798" lon="24.32744">
        <ele>6.580273</ele>
        <time>2020-10-08T11:08:35.870Z</time>
      </trkpt>
      <trkpt lat="57.07783" lon="24.3274">
        <ele>6.675677</ele>
        <time>2020-10-08T11:08:40.241Z</time>
      </trkpt>
      <trkpt lat="57.07779" lon="24.32743">
        <ele>6.705582</ele>
        <time>2020-10-08T11:08:41.919Z</time>
      </trkpt>
      <trkpt lat="57.07774" lon="24.32731">
        <ele>6.763898</ele>
        <time>2020-10-08T11:08:44.974Z</time>
      </trkpt>
      <trkpt lat="57.07767" lon="24.32717">
        <ele>6.82828</ele>
        <time>2020-10-08T11:08:48.405Z</time>
      </trkpt>
      <trkpt lat="57.07772" lon="24.32705">
        <ele>6.878859</ele>
        <time>2020-10-08T11:08:50.714Z</time>
      </trkpt>
      <trkpt lat="57.07773" lon="24.32666">
        <ele>7.018236</ele>
        <time>2020-10-08T11:08:58.017Z</time>
      </trkpt>
      <trkpt lat="57.07771" lon="24.32655">
        <ele>7.061392</ele>
        <time>2020-10-08T11:09:00.164Z</time>
      </trkpt>
      <trkpt lat="57.07758" lon="24.32608">
        <ele>7.245564</ele>
        <time>2020-10-08T11:09:08.922Z</time>
      </trkpt>
      <trkpt lat="57.07707" lon="24.3243">
        <ele>6.89977</ele>
        <time>2020-10-08T11:09:39.920Z</time>
      </trkpt>
      <trkpt lat="57.077" lon="24.32408">
        <ele>6.842585</ele>
        <time>2020-10-08T11:09:43.488Z</time>
      </trkpt>
      <trkpt lat="57.07695" lon="24.32398">
        <ele>6.810895</ele>
        <time>2020-10-08T11:09:45.577Z</time>
      </trkpt>
      <trkpt lat="57.07688" lon="24.32393">
        <ele>6.782763</ele>
        <time>2020-10-08T11:09:47.400Z</time>
      </trkpt>
      <trkpt lat="57.07679" lon="24.32395">
        <ele>6.7459</ele>
        <time>2020-10-08T11:09:49.830Z</time>
      </trkpt>
      <trkpt lat="57.07677" lon="24.32381">
        <ele>6.714376</ele>
        <time>2020-10-08T11:09:51.823Z</time>
      </trkpt>
      <trkpt lat="57.07674" lon="24.32369">
        <ele>6.686269</ele>
        <time>2020-10-08T11:09:53.584Z</time>
      </trkpt>
      <trkpt lat="57.07673" lon="24.3236">
        <ele>6.665279</ele>
        <time>2020-10-08T11:09:55.005Z</time>
      </trkpt>
      <trkpt lat="57.07683" lon="24.32348">
        <ele>6.61548</ele>
        <time>2020-10-08T11:09:58.346Z</time>
      </trkpt>
      <trkpt lat="57.07683" lon="24.32337">
        <ele>6.590281</ele>
        <time>2020-10-08T11:09:59.952Z</time>
      </trkpt>
      <trkpt lat="57.0768" lon="24.32328">
        <ele>6.570215</ele>
        <time>2020-10-08T11:10:01.422Z</time>
      </trkpt>
      <trkpt lat="57.07658" lon="24.32252">
        <ele>6.485452</ele>
        <time>2020-10-08T11:10:13.988Z</time>
      </trkpt>
      <trkpt lat="57.07652" lon="24.32228">
        <ele>6.458642</ele>
        <time>2020-10-08T11:10:18.445Z</time>
      </trkpt>
      <trkpt lat="57.07643" lon="24.32203">
        <ele>6.428809</ele>
        <time>2020-10-08T11:10:22.721Z</time>
      </trkpt>
      <trkpt lat="57.07636" lon="24.3218">
        <ele>6.402451</ele>
        <time>2020-10-08T11:10:27.096Z</time>
      </trkpt>
      <trkpt lat="57.07616" lon="24.3211">
        <ele>6.323822</ele>
        <time>2020-10-08T11:10:39.916Z</time>
      </trkpt>
      <trkpt lat="57.07607" lon="24.32073">
        <ele>6.283301</ele>
        <time>2020-10-08T11:10:46.211Z</time>
      </trkpt>
      <trkpt lat="57.07606" lon="24.32065">
        <ele>6.27479</ele>
        <time>2020-10-08T11:10:47.788Z</time>
      </trkpt>
      <trkpt lat="57.07605" lon="24.32058">
        <ele>6.267427</ele>
        <time>2020-10-08T11:10:49.135Z</time>
      </trkpt>
      <trkpt lat="57.0759" lon="24.32008">
        <ele>6.28118</ele>
        <time>2020-10-08T11:10:58.233Z</time>
      </trkpt>
      <trkpt lat="57.07589" lon="24.32006">
        <ele>6.284478</ele>
        <time>2020-10-08T11:10:58.842Z</time>
      </trkpt>
      <trkpt lat="57.07582" lon="24.31996">
        <ele>6.303981</ele>
        <time>2020-10-08T11:11:01.652Z</time>
      </trkpt>
      <trkpt lat="57.07575" lon="24.31992">
        <ele>6.319807</ele>
        <time>2020-10-08T11:11:03.698Z</time>
      </trkpt>
      <trkpt lat="57.07567" lon="24.3199">
        <ele>6.336464</ele>
        <time>2020-10-08T11:11:05.937Z</time>
      </trkpt>
      <trkpt lat="57.07547" lon="24.31995">
        <ele>6.380153</ele>
        <time>2020-10-08T11:11:10.962Z</time>
      </trkpt>
      <trkpt lat="57.07455" lon="24.32026">
        <ele>6.58472</ele>
        <time>2020-10-08T11:11:33.897Z</time>
      </trkpt>
      <trkpt lat="57.07404" lon="24.32044">
        <ele>6.58465</ele>
        <time>2020-10-08T11:11:46.135Z</time>
      </trkpt>
      <trkpt lat="57.07285" lon="24.32085">
        <ele>6.378914</ele>
        <time>2020-10-08T11:12:12.906Z</time>
      </trkpt>
      <trkpt lat="57.07282" lon="24.32086">
        <ele>6.372862</ele>
        <time>2020-10-08T11:12:15.398Z</time>
      </trkpt>
      <trkpt lat="57.07279" lon="24.32059">
        <ele>6.347882</ele>
        <time>2020-10-08T11:12:18.735Z</time>
      </trkpt>
      <trkpt lat="57.07267" lon="24.32064">
        <ele>6.32605</ele>
        <time>2020-10-08T11:12:21.375Z</time>
      </trkpt>
      <trkpt lat="57.07212" lon="24.32082">
        <ele>6.217805</ele>
        <time>2020-10-08T11:12:33.377Z</time>
      </trkpt>
      <trkpt lat="57.07182" lon="24.32092">
        <ele>6.158612</ele>
        <time>2020-10-08T11:12:39.906Z</time>
      </trkpt>
      <trkpt lat="57.07176" lon="24.32093">
        <ele>6.147495</ele>
        <time>2020-10-08T11:12:41.178Z</time>
      </trkpt>
      <trkpt lat="57.07117" lon="24.32116">
        <ele>6.029666</ele>
        <time>2020-10-08T11:12:54.229Z</time>
      </trkpt>
      <trkpt lat="57.07107" lon="24.3212">
        <ele>6.01116</ele>
        <time>2020-10-08T11:12:56.290Z</time>
      </trkpt>
      <trkpt lat="57.07038" lon="24.32142">
        <ele>5.931834</ele>
        <time>2020-10-08T11:13:11.599Z</time>
      </trkpt>
      <trkpt lat="57.06969" lon="24.32166">
        <ele>5.870309</ele>
        <time>2020-10-08T11:13:27.212Z</time>
      </trkpt>
      <trkpt lat="57.06911" lon="24.32194">
        <ele>5.815841</ele>
        <time>2020-10-08T11:13:40.465Z</time>
      </trkpt>
      <trkpt lat="57.06895" lon="24.32199">
        <ele>5.796225</ele>
        <time>2020-10-08T11:13:43.785Z</time>
      </trkpt>
      <trkpt lat="57.06879" lon="24.32201">
        <ele>5.774952</ele>
        <time>2020-10-08T11:13:47.520Z</time>
      </trkpt>
      <trkpt lat="57.06866" lon="24.32203">
        <ele>5.759102</ele>
        <time>2020-10-08T11:13:50.244Z</time>
      </trkpt>
      <trkpt lat="57.06863" lon="24.32199">
        <ele>5.754248</ele>
        <time>2020-10-08T11:13:51.049Z</time>
      </trkpt>
      <trkpt lat="57.06862" lon="24.32198">
        <ele>5.752634</ele>
        <time>2020-10-08T11:13:51.319Z</time>
      </trkpt>
      <trkpt lat="57.06858" lon="24.32197">
        <ele>5.74769</ele>
        <time>2020-10-08T11:13:52.158Z</time>
      </trkpt>
      <trkpt lat="57.06853" lon="24.32201">
        <ele>5.741564</ele>
        <time>2020-10-08T11:13:53.223Z</time>
      </trkpt>
      <trkpt lat="57.0685" lon="24.32207">
        <ele>5.735993</ele>
        <time>2020-10-08T11:13:54.236Z</time>
      </trkpt>
      <trkpt lat="57.06839" lon="24.32211">
        <ele>5.72162</ele>
        <time>2020-10-08T11:13:56.762Z</time>
      </trkpt>
      <trkpt lat="57.06839" lon="24.32216">
        <ele>5.718516</ele>
        <time>2020-10-08T11:13:58.465Z</time>
      </trkpt>
      <trkpt lat="57.0684" lon="24.32221">
        <ele>5.714853</ele>
        <time>2020-10-08T11:14:00.481Z</time>
      </trkpt>
      <trkpt lat="57.0684" lon="24.32224">
        <ele>5.712502</ele>
        <time>2020-10-08T11:14:01.793Z</time>
      </trkpt>
      <trkpt lat="57.0684" lon="24.32228">
        <ele>5.709794</ele>
        <time>2020-10-08T11:14:03.275Z</time>
      </trkpt>
      <trkpt lat="57.06841" lon="24.32236">
        <ele>5.704682</ele>
        <time>2020-10-08T11:14:06.105Z</time>
      </trkpt>
      <trkpt lat="57.06829" lon="24.3224">
        <ele>5.689457</ele>
        <time>2020-10-08T11:14:09.673Z</time>
      </trkpt>
      <trkpt lat="57.06692" lon="24.32293">
        <ele>5.799763</ele>
        <time>2020-10-08T11:14:40.178Z</time>
      </trkpt>
      <trkpt lat="57.06654" lon="24.32305">
        <ele>5.922439</ele>
        <time>2020-10-08T11:14:48.504Z</time>
      </trkpt>
      <trkpt lat="57.06494" lon="24.32357">
        <ele>7.484906</ele>
        <time>2020-10-08T11:15:30.264Z</time>
      </trkpt>
      <trkpt lat="57.06477" lon="24.32371">
        <ele>7.77209</ele>
        <time>2020-10-08T11:15:36.428Z</time>
      </trkpt>
      <trkpt lat="57.06423" lon="24.32388">
        <ele>8.60942</ele>
        <time>2020-10-08T11:15:52.421Z</time>
      </trkpt>
      <trkpt lat="57.0639" lon="24.32389">
        <ele>9.220191</ele>
        <time>2020-10-08T11:16:02.489Z</time>
      </trkpt>
      <trkpt lat="57.06382" lon="24.32388">
        <ele>9.414822</ele>
        <time>2020-10-08T11:16:05.900Z</time>
      </trkpt>
      <trkpt lat="57.06377" lon="24.32385">
        <ele>9.543608</ele>
        <time>2020-10-08T11:16:07.586Z</time>
      </trkpt>
      <trkpt lat="57.06368" lon="24.32377">
        <ele>9.786584</ele>
        <time>2020-10-08T11:16:10.569Z</time>
      </trkpt>
      <trkpt lat="57.06361" lon="24.32373">
        <ele>9.94903</ele>
        <time>2020-10-08T11:16:12.442Z</time>
      </trkpt>
      <trkpt lat="57.06358" lon="24.32373">
        <ele>10.035375</ele>
        <time>2020-10-08T11:16:13.434Z</time>
      </trkpt>
      <trkpt lat="57.06348" lon="24.32374">
        <ele>10.275351</ele>
        <time>2020-10-08T11:16:17.453Z</time>
      </trkpt>
      <trkpt lat="57.06343" lon="24.32374">
        <ele>10.3882</ele>
        <time>2020-10-08T11:16:19.017Z</time>
      </trkpt>
      <trkpt lat="57.06309" lon="24.32377">
        <ele>11.199442</ele>
        <time>2020-10-08T11:16:30.242Z</time>
      </trkpt>
      <trkpt lat="57.06232" lon="24.32365">
        <ele>13.061916</ele>
        <time>2020-10-08T11:16:56.177Z</time>
      </trkpt>
      <trkpt lat="57.06155" lon="24.32343">
        <ele>14.532865</ele>
        <time>2020-10-08T11:17:20.052Z</time>
      </trkpt>
      <trkpt lat="57.0615" lon="24.32343">
        <ele>14.622426</ele>
        <time>2020-10-08T11:17:23.461Z</time>
      </trkpt>
      <trkpt lat="57.06143" lon="24.32341">
        <ele>14.740124</ele>
        <time>2020-10-08T11:17:27.961Z</time>
      </trkpt>
      <trkpt lat="57.0612" lon="24.32321">
        <ele>15.214886</ele>
        <time>2020-10-08T11:17:35.988Z</time>
      </trkpt>
      <trkpt lat="57.06004" lon="24.32272">
        <ele>16.926942</ele>
        <time>2020-10-08T11:18:11.192Z</time>
      </trkpt>
      <trkpt lat="57.05989" lon="24.3227">
        <ele>17.058283</ele>
        <time>2020-10-08T11:18:15.618Z</time>
      </trkpt>
      <trkpt lat="57.05984" lon="24.32268">
        <ele>17.097969</ele>
        <time>2020-10-08T11:18:17.125Z</time>
      </trkpt>
      <trkpt lat="57.0598" lon="24.32266">
        <ele>17.134102</ele>
        <time>2020-10-08T11:18:18.544Z</time>
      </trkpt>
      <trkpt lat="57.05945" lon="24.32252">
        <ele>17.443321</ele>
        <time>2020-10-08T11:18:27.801Z</time>
      </trkpt>
      <trkpt lat="57.05927" lon="24.32242">
        <ele>17.604932</ele>
        <time>2020-10-08T11:18:32.551Z</time>
      </trkpt>
      <trkpt lat="57.05919" lon="24.32238">
        <ele>17.678978</ele>
        <time>2020-10-08T11:18:34.821Z</time>
      </trkpt>
      <trkpt lat="57.05868" lon="24.32212">
        <ele>18.07328</ele>
        <time>2020-10-08T11:18:47.631Z</time>
      </trkpt>
      <trkpt lat="57.05463" lon="24.32041">
        <ele>17.859019</ele>
        <time>2020-10-08T11:20:23.182Z</time>
      </trkpt>
      <trkpt lat="57.05459" lon="24.32044">
        <ele>17.846573</ele>
        <time>2020-10-08T11:20:24.267Z</time>
      </trkpt>
      <trkpt lat="57.05455" lon="24.32041">
        <ele>17.83605</ele>
        <time>2020-10-08T11:20:25.132Z</time>
      </trkpt>
      <trkpt lat="57.05401" lon="24.3202">
        <ele>17.68663</ele>
        <time>2020-10-08T11:20:36.817Z</time>
      </trkpt>
      <trkpt lat="57.05386" lon="24.32013">
        <ele>17.644298</ele>
        <time>2020-10-08T11:20:40.072Z</time>
      </trkpt>
      <trkpt lat="57.05379" lon="24.3201">
        <ele>17.623264</ele>
        <time>2020-10-08T11:20:41.675Z</time>
      </trkpt>
      <trkpt lat="57.05312" lon="24.31984">
        <ele>17.124673</ele>
        <time>2020-10-08T11:20:55.745Z</time>
      </trkpt>
      <trkpt lat="57.05268" lon="24.31981">
        <ele>16.631959</ele>
        <time>2020-10-08T11:21:04.691Z</time>
      </trkpt>
      <trkpt lat="57.05239" lon="24.3197">
        <ele>16.309944</ele>
        <time>2020-10-08T11:21:10.206Z</time>
      </trkpt>
      <trkpt lat="57.05246" lon="24.31928">
        <ele>16.046925</ele>
        <time>2020-10-08T11:21:14.638Z</time>
      </trkpt>
      <trkpt lat="57.0515" lon="24.31888">
        <ele>14.602172</ele>
        <time>2020-10-08T11:21:31.973Z</time>
      </trkpt>
      <trkpt lat="57.0497" lon="24.31808">
        <ele>11.977564</ele>
        <time>2020-10-08T11:22:05.340Z</time>
      </trkpt>
      <trkpt lat="57.04863" lon="24.31759">
        <ele>11.281925</ele>
        <time>2020-10-08T11:22:28.611Z</time>
      </trkpt>
      <trkpt lat="57.04808" lon="24.31739">
        <ele>11.230974</ele>
        <time>2020-10-08T11:22:42.654Z</time>
      </trkpt>
      <trkpt lat="57.04749" lon="24.31713">
        <ele>11.263842</ele>
        <time>2020-10-08T11:22:57.470Z</time>
      </trkpt>
      <trkpt lat="57.04739" lon="24.31708">
        <ele>11.26973</ele>
        <time>2020-10-08T11:22:59.833Z</time>
      </trkpt>
      <trkpt lat="57.04606" lon="24.3165">
        <ele>10.691409</ele>
        <time>2020-10-08T11:23:27.562Z</time>
      </trkpt>
      <trkpt lat="57.04587" lon="24.3164">
        <ele>10.52124</ele>
        <time>2020-10-08T11:23:31.495Z</time>
      </trkpt>
      <trkpt lat="57.04575" lon="24.31634">
        <ele>10.412812</ele>
        <time>2020-10-08T11:23:34.006Z</time>
      </trkpt>
      <trkpt lat="57.04565" lon="24.3163">
        <ele>10.326442</ele>
        <time>2020-10-08T11:23:35.963Z</time>
      </trkpt>
      <trkpt lat="57.04516" lon="24.31613">
        <ele>9.899846</ele>
        <time>2020-10-08T11:23:45.443Z</time>
      </trkpt>
      <trkpt lat="57.04498" lon="24.31606">
        <ele>9.742146</ele>
        <time>2020-10-08T11:23:48.792Z</time>
      </trkpt>
      <trkpt lat="57.04493" lon="24.31604">
        <ele>9.679249</ele>
        <time>2020-10-08T11:23:49.882Z</time>
      </trkpt>
      <trkpt lat="57.04444" lon="24.31583">
        <ele>9.126607</ele>
        <time>2020-10-08T11:23:59.730Z</time>
      </trkpt>
      <trkpt lat="57.04393" lon="24.31564">
        <ele>8.554081</ele>
        <time>2020-10-08T11:24:09.694Z</time>
      </trkpt>
      <trkpt lat="57.04364" lon="24.31552">
        <ele>8.225439</ele>
        <time>2020-10-08T11:24:15.404Z</time>
      </trkpt>
      <trkpt lat="57.04301" lon="24.31537">
        <ele>7.718147</ele>
        <time>2020-10-08T11:24:27.340Z</time>
      </trkpt>
      <trkpt lat="57.04273" lon="24.31534">
        <ele>7.628616</ele>
        <time>2020-10-08T11:24:32.322Z</time>
      </trkpt>
      <trkpt lat="57.04249" lon="24.31534">
        <ele>7.550086</ele>
        <time>2020-10-08T11:24:37.123Z</time>
      </trkpt>
      <trkpt lat="57.04203" lon="24.31534">
        <ele>7.398914</ele>
        <time>2020-10-08T11:24:47.392Z</time>
      </trkpt>
      <trkpt lat="57.04127" lon="24.31536">
        <ele>7.417938</ele>
        <time>2020-10-08T11:25:05.578Z</time>
      </trkpt>
      <trkpt lat="57.04071" lon="24.3154">
        <ele>8.060713</ele>
        <time>2020-10-08T11:25:20.276Z</time>
      </trkpt>
      <trkpt lat="57.04068" lon="24.3154">
        <ele>8.088074</ele>
        <time>2020-10-08T11:25:20.912Z</time>
      </trkpt>
      <trkpt lat="57.04023" lon="24.31543">
        <ele>8.6055</ele>
        <time>2020-10-08T11:25:33.074Z</time>
      </trkpt>
      <trkpt lat="57.04014" lon="24.31544">
        <ele>8.709286</ele>
        <time>2020-10-08T11:25:35.885Z</time>
      </trkpt>
      <trkpt lat="57.0401" lon="24.31544">
        <ele>8.75036</ele>
        <time>2020-10-08T11:25:36.911Z</time>
      </trkpt>
      <trkpt lat="57.03981" lon="24.31547">
        <ele>9.078846</ele>
        <time>2020-10-08T11:25:45.222Z</time>
      </trkpt>
      <trkpt lat="57.03979" lon="24.31548">
        <ele>9.108618</ele>
        <time>2020-10-08T11:25:46.087Z</time>
      </trkpt>
      <trkpt lat="57.03934" lon="24.31556">
        <ele>9.525125</ele>
        <time>2020-10-08T11:25:59.301Z</time>
      </trkpt>
      <trkpt lat="57.03927" lon="24.31558">
        <ele>9.587846</ele>
        <time>2020-10-08T11:26:01.404Z</time>
      </trkpt>
      <trkpt lat="57.0389" lon="24.31568">
        <ele>9.907335</ele>
        <time>2020-10-08T11:26:11.400Z</time>
      </trkpt>
      <trkpt lat="57.03885" lon="24.31571">
        <ele>9.947727</ele>
        <time>2020-10-08T11:26:12.640Z</time>
      </trkpt>
      <trkpt lat="57.03834" lon="24.31594">
        <ele>10.401582</ele>
        <time>2020-10-08T11:26:26.082Z</time>
      </trkpt>
      <trkpt lat="57.0378" lon="24.31628">
        <ele>10.758428</ele>
        <time>2020-10-08T11:26:39.039Z</time>
      </trkpt>
      <trkpt lat="57.03739" lon="24.31658">
        <ele>10.649017</ele>
        <time>2020-10-08T11:26:48.598Z</time>
      </trkpt>
      <trkpt lat="57.03701" lon="24.31685">
        <ele>10.549161</ele>
        <time>2020-10-08T11:26:57.360Z</time>
      </trkpt>
      <trkpt lat="57.03689" lon="24.31694">
        <ele>10.517018</ele>
        <time>2020-10-08T11:27:00.101Z</time>
      </trkpt>
      <trkpt lat="57.03671" lon="24.31707">
        <ele>10.469249</ele>
        <time>2020-10-08T11:27:04.320Z</time>
      </trkpt>
      <trkpt lat="57.03664" lon="24.31712">
        <ele>10.451717</ele>
        <time>2020-10-08T11:27:05.845Z</time>
      </trkpt>
      <trkpt lat="57.0365" lon="24.31723">
        <ele>10.413072</ele>
        <time>2020-10-08T11:27:09.093Z</time>
      </trkpt>
      <trkpt lat="57.03625" lon="24.31741">
        <ele>10.348029</ele>
        <time>2020-10-08T11:27:14.557Z</time>
      </trkpt>
      <trkpt lat="57.03603" lon="24.31758">
        <ele>10.066525</ele>
        <time>2020-10-08T11:27:19.433Z</time>
      </trkpt>
      <trkpt lat="57.03584" lon="24.31772">
        <ele>9.808433</ele>
        <time>2020-10-08T11:27:23.300Z</time>
      </trkpt>
      <trkpt lat="57.03566" lon="24.31785">
        <ele>9.564741</ele>
        <time>2020-10-08T11:27:27.007Z</time>
      </trkpt>
      <trkpt lat="57.03505" lon="24.31831">
        <ele>8.730946</ele>
        <time>2020-10-08T11:27:38.905Z</time>
      </trkpt>
      <trkpt lat="57.03411" lon="24.319">
        <ele>8.049149</ele>
        <time>2020-10-08T11:27:57.909Z</time>
      </trkpt>
      <trkpt lat="57.03376" lon="24.31927">
        <ele>8.029563</ele>
        <time>2020-10-08T11:28:05.275Z</time>
      </trkpt>
      <trkpt lat="57.03372" lon="24.31929">
        <ele>8.027443</ele>
        <time>2020-10-08T11:28:06.074Z</time>
      </trkpt>
      <trkpt lat="57.0324" lon="24.32014">
        <ele>9.287718</ele>
        <time>2020-10-08T11:28:42.495Z</time>
      </trkpt>
      <trkpt lat="57.03176" lon="24.32043">
        <ele>10.990939</ele>
        <time>2020-10-08T11:29:05.895Z</time>
      </trkpt>
      <trkpt lat="57.03158" lon="24.3205">
        <ele>11.467923</ele>
        <time>2020-10-08T11:29:13.024Z</time>
      </trkpt>
      <trkpt lat="57.0311" lon="24.32069">
        <ele>12.731819</ele>
        <time>2020-10-08T11:29:29.880Z</time>
      </trkpt>
      <trkpt lat="57.0306" lon="24.32079">
        <ele>14.045316</ele>
        <time>2020-10-08T11:29:47.580Z</time>
      </trkpt>
      <trkpt lat="57.03002" lon="24.32085">
        <ele>15.596203</ele>
        <time>2020-10-08T11:30:07.772Z</time>
      </trkpt>
      <trkpt lat="57.03001" lon="24.3202">
        <ele>16.544206</ele>
        <time>2020-10-08T11:30:18.906Z</time>
      </trkpt>
      <trkpt lat="57.02967" lon="24.32019">
        <ele>17.396344</ele>
        <time>2020-10-08T11:30:28.928Z</time>
      </trkpt>
      <trkpt lat="57.0292" lon="24.32006">
        <ele>17.84094</ele>
        <time>2020-10-08T11:30:41.916Z</time>
      </trkpt>
      <trkpt lat="57.02867" lon="24.3199">
        <ele>18.342372</ele>
        <time>2020-10-08T11:30:56.141Z</time>
      </trkpt>
      <trkpt lat="57.0282" lon="24.31976">
        <ele>18.782843</ele>
        <time>2020-10-08T11:31:08.350Z</time>
      </trkpt>
      <trkpt lat="57.02765" lon="24.31952">
        <ele>18.655017</ele>
        <time>2020-10-08T11:31:21.872Z</time>
      </trkpt>
      <trkpt lat="57.02698" lon="24.31914">
        <ele>17.723372</ele>
        <time>2020-10-08T11:31:35.283Z</time>
      </trkpt>
      <trkpt lat="57.02663" lon="24.31895">
        <ele>17.232902</ele>
        <time>2020-10-08T11:31:41.818Z</time>
      </trkpt>
      <trkpt lat="57.02659" lon="24.31894">
        <ele>17.181731</ele>
        <time>2020-10-08T11:31:42.432Z</time>
      </trkpt>
      <trkpt lat="57.02649" lon="24.31895">
        <ele>17.04838</ele>
        <time>2020-10-08T11:31:44.110Z</time>
      </trkpt>
      <trkpt lat="57.02643" lon="24.319">
        <ele>16.963658</ele>
        <time>2020-10-08T11:31:45.222Z</time>
      </trkpt>
      <trkpt lat="57.02636" lon="24.31911">
        <ele>16.84437</ele>
        <time>2020-10-08T11:31:46.819Z</time>
      </trkpt>
      <trkpt lat="57.02628" lon="24.31911">
        <ele>16.728887</ele>
        <time>2020-10-08T11:31:48.514Z</time>
      </trkpt>
      <trkpt lat="57.02624" lon="24.31918">
        <ele>16.666461</ele>
        <time>2020-10-08T11:31:49.202Z</time>
      </trkpt>
      <trkpt lat="57.02614" lon="24.31926">
        <ele>16.43548</ele>
        <time>2020-10-08T11:31:51.165Z</time>
      </trkpt>
      <trkpt lat="57.02568" lon="24.31893">
        <ele>15.394422</ele>
        <time>2020-10-08T11:31:59.538Z</time>
      </trkpt>
      <trkpt lat="57.02471" lon="24.31815">
        <ele>13.164844</ele>
        <time>2020-10-08T11:32:17.724Z</time>
      </trkpt>
      <trkpt lat="57.02478" lon="24.31784">
        <ele>12.874928</ele>
        <time>2020-10-08T11:32:30.426Z</time>
      </trkpt>
      <trkpt lat="57.02474" lon="24.31782">
        <ele>12.898997</ele>
        <time>2020-10-08T11:32:31.402Z</time>
      </trkpt>
      <trkpt lat="57.02396" lon="24.31711">
        <ele>13.344792</ele>
        <time>2020-10-08T11:32:50.377Z</time>
      </trkpt>
      <trkpt lat="57.02332" lon="24.31651">
        <ele>13.710685</ele>
        <time>2020-10-08T11:33:10.961Z</time>
      </trkpt>
      <trkpt lat="57.02329" lon="24.31659">
        <ele>13.735825</ele>
        <time>2020-10-08T11:33:12.380Z</time>
      </trkpt>
      <trkpt lat="57.02325" lon="24.31656">
        <ele>13.761221</ele>
        <time>2020-10-08T11:33:14.279Z</time>
      </trkpt>
      <trkpt lat="57.02318" lon="24.31674">
        <ele>13.918456</ele>
        <time>2020-10-08T11:33:18.130Z</time>
      </trkpt>
      <trkpt lat="57.02313" lon="24.31675">
        <ele>14.006018</ele>
        <time>2020-10-08T11:33:19.746Z</time>
      </trkpt>
      <trkpt lat="57.02232" lon="24.31586">
        <ele>15.502228</ele>
        <time>2020-10-08T11:33:47.910Z</time>
      </trkpt>
      <trkpt lat="57.02228" lon="24.31575">
        <ele>15.619619</ele>
        <time>2020-10-08T11:33:50.453Z</time>
      </trkpt>
      <trkpt lat="57.02225" lon="24.31574">
        <ele>15.670767</ele>
        <time>2020-10-08T11:33:51.522Z</time>
      </trkpt>
      <trkpt lat="57.02219" lon="24.31569">
        <ele>15.772641</ele>
        <time>2020-10-08T11:33:53.064Z</time>
      </trkpt>
      <trkpt lat="57.02193" lon="24.31536">
        <ele>16.277426</ele>
        <time>2020-10-08T11:34:02.417Z</time>
      </trkpt>
      <trkpt lat="57.0215" lon="24.31484">
        <ele>16.483571</ele>
        <time>2020-10-08T11:34:14.442Z</time>
      </trkpt>
      <trkpt lat="57.021" lon="24.31427">
        <ele>16.172444</ele>
        <time>2020-10-08T11:34:27.743Z</time>
      </trkpt>
      <trkpt lat="57.02043" lon="24.31375">
        <ele>15.835381</ele>
        <time>2020-10-08T11:34:39.783Z</time>
      </trkpt>
      <trkpt lat="57.02029" lon="24.31359">
        <ele>15.747239</ele>
        <time>2020-10-08T11:34:42.752Z</time>
      </trkpt>
      <trkpt lat="57.01982" lon="24.31292">
        <ele>15.179571</ele>
        <time>2020-10-08T11:34:53.605Z</time>
      </trkpt>
      <trkpt lat="57.01949" lon="24.31251">
        <ele>14.758454</ele>
        <time>2020-10-08T11:35:01.085Z</time>
      </trkpt>
      <trkpt lat="57.01932" lon="24.31231">
        <ele>14.5398</ele>
        <time>2020-10-08T11:35:05.137Z</time>
      </trkpt>
      <trkpt lat="57.01891" lon="24.31189">
        <ele>14.04316</ele>
        <time>2020-10-08T11:35:14.388Z</time>
      </trkpt>
      <trkpt lat="57.01889" lon="24.31187">
        <ele>14.020842</ele>
        <time>2020-10-08T11:35:14.794Z</time>
      </trkpt>
      <trkpt lat="57.01849" lon="24.3115">
        <ele>13.726909</ele>
        <time>2020-10-08T11:35:23.929Z</time>
      </trkpt>
      <trkpt lat="57.01799" lon="24.31107">
        <ele>13.6046</ele>
        <time>2020-10-08T11:35:35.311Z</time>
      </trkpt>
      <trkpt lat="57.01774" lon="24.31085">
        <ele>13.542346</ele>
        <time>2020-10-08T11:35:41.083Z</time>
      </trkpt>
      <trkpt lat="57.01725" lon="24.3104">
        <ele>13.420026</ele>
        <time>2020-10-08T11:35:53.986Z</time>
      </trkpt>
      <trkpt lat="57.01718" lon="24.31033">
        <ele>13.400656</ele>
        <time>2020-10-08T11:35:55.610Z</time>
      </trkpt>
      <trkpt lat="57.01682" lon="24.30999">
        <ele>13.442048</ele>
        <time>2020-10-08T11:36:04.606Z</time>
      </trkpt>
      <trkpt lat="57.01671" lon="24.30997">
        <ele>13.470767</ele>
        <time>2020-10-08T11:36:07.979Z</time>
      </trkpt>
      <trkpt lat="57.01496" lon="24.30873">
        <ele>14.03567</ele>
        <time>2020-10-08T11:36:51.383Z</time>
      </trkpt>
      <trkpt lat="57.0138" lon="24.30821">
        <ele>14.595045</ele>
        <time>2020-10-08T11:37:20.276Z</time>
      </trkpt>
      <trkpt lat="57.01367" lon="24.30816">
        <ele>14.657125</ele>
        <time>2020-10-08T11:37:23.359Z</time>
      </trkpt>
      <trkpt lat="57.01311" lon="24.30796">
        <ele>15.291952</ele>
        <time>2020-10-08T11:37:38.304Z</time>
      </trkpt>
      <trkpt lat="57.01303" lon="24.30792">
        <ele>15.378106</ele>
        <time>2020-10-08T11:37:40.528Z</time>
      </trkpt>
      <trkpt lat="57.0126" lon="24.30756">
        <ele>15.902063</ele>
        <time>2020-10-08T11:37:53.046Z</time>
      </trkpt>
      <trkpt lat="57.01227" lon="24.30716">
        <ele>16.343839</ele>
        <time>2020-10-08T11:38:04.065Z</time>
      </trkpt>
      <trkpt lat="57.01199" lon="24.30666">
        <ele>16.756263</ele>
        <time>2020-10-08T11:38:15.422Z</time>
      </trkpt>
      <trkpt lat="57.01166" lon="24.30609">
        <ele>17.1567</ele>
        <time>2020-10-08T11:38:27.636Z</time>
      </trkpt>
      <trkpt lat="57.0112" lon="24.30538">
        <ele>17.691886</ele>
        <time>2020-10-08T11:38:42.933Z</time>
      </trkpt>
      <trkpt lat="57.01065" lon="24.30492">
        <ele>18.23322</ele>
        <time>2020-10-08T11:38:58.010Z</time>
      </trkpt>
      <trkpt lat="57.01042" lon="24.3048">
        <ele>18.354418</ele>
        <time>2020-10-08T11:39:03.604Z</time>
      </trkpt>
      <trkpt lat="57.00971" lon="24.30441">
        <ele>18.704487</ele>
        <time>2020-10-08T11:39:21.359Z</time>
      </trkpt>
      <trkpt lat="57.00936" lon="24.30413">
        <ele>18.887099</ele>
        <time>2020-10-08T11:39:30.770Z</time>
      </trkpt>
      <trkpt lat="57.00893" lon="24.30354">
        <ele>19.114967</ele>
        <time>2020-10-08T11:39:43.703Z</time>
      </trkpt>
      <trkpt lat="57.00866" lon="24.30293">
        <ele>19.163295</ele>
        <time>2020-10-08T11:39:53.913Z</time>
      </trkpt>
      <trkpt lat="57.00839" lon="24.30211">
        <ele>19.221909</ele>
        <time>2020-10-08T11:40:06.082Z</time>
      </trkpt>
      <trkpt lat="57.00755" lon="24.29948">
        <ele>18.899188</ele>
        <time>2020-10-08T11:40:41.790Z</time>
      </trkpt>
      <trkpt lat="57.00741" lon="24.2991">
        <ele>18.78391</ele>
        <time>2020-10-08T11:40:46.858Z</time>
      </trkpt>
      <trkpt lat="57.00651" lon="24.29625">
        <ele>17.22787</ele>
        <time>2020-10-08T11:41:22.719Z</time>
      </trkpt>
      <trkpt lat="57.00615" lon="24.29515">
        <ele>16.431776</ele>
        <time>2020-10-08T11:41:35.516Z</time>
      </trkpt>
      <trkpt lat="57.00577" lon="24.29395">
        <ele>14.887421</ele>
        <time>2020-10-08T11:41:48.807Z</time>
      </trkpt>
      <trkpt lat="57.00566" lon="24.29352">
        <ele>14.360887</ele>
        <time>2020-10-08T11:41:53.346Z</time>
      </trkpt>
      <trkpt lat="57.00559" lon="24.29338">
        <ele>14.156593</ele>
        <time>2020-10-08T11:41:55.057Z</time>
      </trkpt>
      <trkpt lat="57.00559" lon="24.29321">
        <ele>13.962677</ele>
        <time>2020-10-08T11:41:57.372Z</time>
      </trkpt>
      <trkpt lat="57.0056" lon="24.29298">
        <ele>13.705026</ele>
        <time>2020-10-08T11:42:00.496Z</time>
      </trkpt>
      <trkpt lat="57.00557" lon="24.29278">
        <ele>13.482347</ele>
        <time>2020-10-08T11:42:03.134Z</time>
      </trkpt>
      <trkpt lat="57.00549" lon="24.29251">
        <ele>13.140346</ele>
        <time>2020-10-08T11:42:07.078Z</time>
      </trkpt>
      <trkpt lat="57.00519" lon="24.29159">
        <ele>11.856862</ele>
        <time>2020-10-08T11:42:21.031Z</time>
      </trkpt>
      <trkpt lat="57.00512" lon="24.29116">
        <ele>11.312739</ele>
        <time>2020-10-08T11:42:26.757Z</time>
      </trkpt>
      <trkpt lat="57.00498" lon="24.29068">
        <ele>10.633085</ele>
        <time>2020-10-08T11:42:33.833Z</time>
      </trkpt>
      <trkpt lat="57.0049" lon="24.29043">
        <ele>10.283551</ele>
        <time>2020-10-08T11:42:37.509Z</time>
      </trkpt>
      <trkpt lat="57.00478" lon="24.29001">
        <ele>9.696667</ele>
        <time>2020-10-08T11:42:43.694Z</time>
      </trkpt>
      <trkpt lat="57.00455" lon="24.2894">
        <ele>8.791017</ele>
        <time>2020-10-08T11:42:53.219Z</time>
      </trkpt>
      <trkpt lat="57.00412" lon="24.28862">
        <ele>7.469617</ele>
        <time>2020-10-08T11:43:07.730Z</time>
      </trkpt>
      <trkpt lat="57.00398" lon="24.28836">
        <ele>7.037036</ele>
        <time>2020-10-08T11:43:12.423Z</time>
      </trkpt>
      <trkpt lat="57.00383" lon="24.28796">
        <ele>6.46368</ele>
        <time>2020-10-08T11:43:18.606Z</time>
      </trkpt>
      <trkpt lat="57.00364" lon="24.28749">
        <ele>5.776256</ele>
        <time>2020-10-08T11:43:26.127Z</time>
      </trkpt>
      <trkpt lat="57.00331" lon="24.28647">
        <ele>4.718365</ele>
        <time>2020-10-08T11:43:37.498Z</time>
      </trkpt>
      <trkpt lat="57.00322" lon="24.28618">
        <ele>4.602503</ele>
        <time>2020-10-08T11:43:40.874Z</time>
      </trkpt>
      <trkpt lat="57.00312" lon="24.28586">
        <ele>4.478002</ele>
        <time>2020-10-08T11:43:44.661Z</time>
      </trkpt>
      <trkpt lat="57.00301" lon="24.28551">
        <ele>4.340922</ele>
        <time>2020-10-08T11:43:49.040Z</time>
      </trkpt>
      <trkpt lat="57.00293" lon="24.28528">
        <ele>4.249739</ele>
        <time>2020-10-08T11:43:51.913Z</time>
      </trkpt>
      <trkpt lat="57.00273" lon="24.28472">
        <ele>4.022898</ele>
        <time>2020-10-08T11:43:59.644Z</time>
      </trkpt>
      <trkpt lat="57.00253" lon="24.28427">
        <ele>3.823295</ele>
        <time>2020-10-08T11:44:06.668Z</time>
      </trkpt>
      <trkpt lat="57.00153" lon="24.28124">
        <ele>6.462147</ele>
        <time>2020-10-08T11:45:00.126Z</time>
      </trkpt>
      <trkpt lat="57.00103" lon="24.27954">
        <ele>9.867014</ele>
        <time>2020-10-08T11:45:39.470Z</time>
      </trkpt>
      <trkpt lat="57.0007" lon="24.27853">
        <ele>11.945632</ele>
        <time>2020-10-08T11:46:03.804Z</time>
      </trkpt>
      <trkpt lat="56.99969" lon="24.27526">
        <ele>16.026317</ele>
        <time>2020-10-08T11:47:06.444Z</time>
      </trkpt>
      <trkpt lat="56.9995" lon="24.27462">
        <ele>16.027311</ele>
        <time>2020-10-08T11:47:15.554Z</time>
      </trkpt>
      <trkpt lat="56.99942" lon="24.27436">
        <ele>16.027721</ele>
        <time>2020-10-08T11:47:19.076Z</time>
      </trkpt>
      <trkpt lat="56.99956" lon="24.27421">
        <ele>16.028135</ele>
        <time>2020-10-08T11:47:22.885Z</time>
      </trkpt>
      <trkpt lat="56.99931" lon="24.27344">
        <ele>16.029348</ele>
        <time>2020-10-08T11:47:33.038Z</time>
      </trkpt>
      <trkpt lat="56.99915" lon="24.27299">
        <ele>16.030074</ele>
        <time>2020-10-08T11:47:38.868Z</time>
      </trkpt>
      <trkpt lat="56.99864" lon="24.27132">
        <ele>14.677416</ele>
        <time>2020-10-08T11:47:58.833Z</time>
      </trkpt>
      <trkpt lat="56.99851" lon="24.27089">
        <ele>14.269344</ele>
        <time>2020-10-08T11:48:03.559Z</time>
      </trkpt>
      <trkpt lat="56.99822" lon="24.26993">
        <ele>13.358087</ele>
        <time>2020-10-08T11:48:14.216Z</time>
      </trkpt>
      <trkpt lat="56.99795" lon="24.26906">
        <ele>12.16098</ele>
        <time>2020-10-08T11:48:23.692Z</time>
      </trkpt>
      <trkpt lat="56.99788" lon="24.26878">
        <ele>11.784425</ele>
        <time>2020-10-08T11:48:27.671Z</time>
      </trkpt>
      <trkpt lat="56.99785" lon="24.26868">
        <ele>11.644116</ele>
        <time>2020-10-08T11:48:28.739Z</time>
      </trkpt>
      <trkpt lat="56.99782" lon="24.26859">
        <ele>11.51362</ele>
        <time>2020-10-08T11:48:29.651Z</time>
      </trkpt>
      <trkpt lat="56.99753" lon="24.2676">
        <ele>10.128911</ele>
        <time>2020-10-08T11:48:40.300Z</time>
      </trkpt>
      <trkpt lat="56.99723" lon="24.26663">
        <ele>8.895175</ele>
        <time>2020-10-08T11:48:50.817Z</time>
      </trkpt>
      <trkpt lat="56.99707" lon="24.26608">
        <ele>8.356316</ele>
        <time>2020-10-08T11:48:56.777Z</time>
      </trkpt>
      <trkpt lat="56.99691" lon="24.26555">
        <ele>7.836604</ele>
        <time>2020-10-08T11:49:02.726Z</time>
      </trkpt>
      <trkpt lat="56.99688" lon="24.26544">
        <ele>7.719787</ele>
        <time>2020-10-08T11:49:04.048Z</time>
      </trkpt>
      <trkpt lat="56.99684" lon="24.26532">
        <ele>7.600902</ele>
        <time>2020-10-08T11:49:05.427Z</time>
      </trkpt>
      <trkpt lat="56.99672" lon="24.26492">
        <ele>7.20769</ele>
        <time>2020-10-08T11:49:09.989Z</time>
      </trkpt>
      <trkpt lat="56.99672" lon="24.26481">
        <ele>7.115213</ele>
        <time>2020-10-08T11:49:11.076Z</time>
      </trkpt>
      <trkpt lat="56.99664" lon="24.26456">
        <ele>6.869068</ele>
        <time>2020-10-08T11:49:13.936Z</time>
      </trkpt>
      <trkpt lat="56.99635" lon="24.26394">
        <ele>6.269384</ele>
        <time>2020-10-08T11:49:22.452Z</time>
      </trkpt>
      <trkpt lat="56.99393" lon="24.25606">
        <ele>3.053923</ele>
        <time>2020-10-08T11:51:01.901Z</time>
      </trkpt>
      <trkpt lat="56.99352" lon="24.25472">
        <ele>2.8987</ele>
        <time>2020-10-08T11:51:19.843Z</time>
      </trkpt>
      <trkpt lat="56.99341" lon="24.2544">
        <ele>2.911795</ele>
        <time>2020-10-08T11:51:24.411Z</time>
      </trkpt>
      <trkpt lat="56.99315" lon="24.25369">
        <ele>2.941823</ele>
        <time>2020-10-08T11:51:35.272Z</time>
      </trkpt>
      <trkpt lat="56.993" lon="24.25319">
        <ele>2.961853</ele>
        <time>2020-10-08T11:51:42.666Z</time>
      </trkpt>
      <trkpt lat="56.99297" lon="24.25311">
        <ele>2.96514</ele>
        <time>2020-10-08T11:51:43.882Z</time>
      </trkpt>
      <trkpt lat="56.99277" lon="24.25244">
        <ele>3.025128</ele>
        <time>2020-10-08T11:51:54.025Z</time>
      </trkpt>
      <trkpt lat="56.99264" lon="24.252">
        <ele>3.103283</ele>
        <time>2020-10-08T11:52:00.299Z</time>
      </trkpt>
      <trkpt lat="56.99224" lon="24.25066">
        <ele>3.343675</ele>
        <time>2020-10-08T11:52:20.089Z</time>
      </trkpt>
      <trkpt lat="56.99216" lon="24.25033">
        <ele>3.400891</ele>
        <time>2020-10-08T11:52:25.034Z</time>
      </trkpt>
      <trkpt lat="56.99214" lon="24.24853">
        <ele>3.506214</ele>
        <time>2020-10-08T11:52:48.152Z</time>
      </trkpt>
      <trkpt lat="56.99196" lon="24.24762">
        <ele>3.511118</ele>
        <time>2020-10-08T11:53:00.355Z</time>
      </trkpt>
      <trkpt lat="56.9916" lon="24.24672">
        <ele>3.516695</ele>
        <time>2020-10-08T11:53:14.138Z</time>
      </trkpt>
      <trkpt lat="56.9916" lon="24.24666">
        <ele>3.52112</ele>
        <time>2020-10-08T11:53:14.942Z</time>
      </trkpt>
      <trkpt lat="56.99155" lon="24.24657">
        <ele>3.570027</ele>
        <time>2020-10-08T11:53:16.564Z</time>
      </trkpt>
      <trkpt lat="56.99151" lon="24.24653">
        <ele>3.598225</ele>
        <time>2020-10-08T11:53:17.521Z</time>
      </trkpt>
      <trkpt lat="56.99143" lon="24.24655">
        <ele>3.65492</ele>
        <time>2020-10-08T11:53:19.456Z</time>
      </trkpt>
      <trkpt lat="56.9911" lon="24.24624">
        <ele>3.915508</ele>
        <time>2020-10-08T11:53:28.271Z</time>
      </trkpt>
      <trkpt lat="56.9909" lon="24.24611">
        <ele>4.06665</ele>
        <time>2020-10-08T11:53:33.407Z</time>
      </trkpt>
      <trkpt lat="56.99083" lon="24.24609">
        <ele>4.11466</ele>
        <time>2020-10-08T11:53:35.530Z</time>
      </trkpt>
      <trkpt lat="56.99076" lon="24.24606">
        <ele>4.167496</ele>
        <time>2020-10-08T11:53:37.548Z</time>
      </trkpt>
      <trkpt lat="56.99068" lon="24.24604">
        <ele>4.220714</ele>
        <time>2020-10-08T11:53:39.542Z</time>
      </trkpt>
      <trkpt lat="56.9905" lon="24.24604">
        <ele>4.349941</ele>
        <time>2020-10-08T11:53:44.058Z</time>
      </trkpt>
      <trkpt lat="56.99045" lon="24.24602">
        <ele>4.384654</ele>
        <time>2020-10-08T11:53:45.896Z</time>
      </trkpt>
      <trkpt lat="56.99029" lon="24.2458">
        <ele>4.524241</ele>
        <time>2020-10-08T11:53:52.649Z</time>
      </trkpt>
      <trkpt lat="56.99011" lon="24.24495">
        <ele>5.026284</ele>
        <time>2020-10-08T11:54:10.045Z</time>
      </trkpt>
      <trkpt lat="56.9901" lon="24.24472">
        <ele>5.244038</ele>
        <time>2020-10-08T11:54:14.598Z</time>
      </trkpt>
      <trkpt lat="56.99008" lon="24.2447">
        <ele>5.283603</ele>
        <time>2020-10-08T11:54:15.375Z</time>
      </trkpt>
      <trkpt lat="56.98994" lon="24.2446">
        <ele>5.553735</ele>
        <time>2020-10-08T11:54:19.818Z</time>
      </trkpt>
      <trkpt lat="56.9899" lon="24.24459">
        <ele>5.617242</ele>
        <time>2020-10-08T11:54:21.008Z</time>
      </trkpt>
      <trkpt lat="56.9899" lon="24.24437">
        <ele>5.8333</ele>
        <time>2020-10-08T11:54:24.784Z</time>
      </trkpt>
      <trkpt lat="56.98991" lon="24.24415">
        <ele>6.049716</ele>
        <time>2020-10-08T11:54:28.217Z</time>
      </trkpt>
      <trkpt lat="56.98991" lon="24.24399">
        <ele>6.204746</ele>
        <time>2020-10-08T11:54:30.840Z</time>
      </trkpt>
      <trkpt lat="56.98989" lon="24.24387">
        <ele>6.322</ele>
        <time>2020-10-08T11:54:32.911Z</time>
      </trkpt>
      <trkpt lat="56.98986" lon="24.2437">
        <ele>6.490187</ele>
        <time>2020-10-08T11:54:35.935Z</time>
      </trkpt>
      <trkpt lat="56.98973" lon="24.24312">
        <ele>7.105535</ele>
        <time>2020-10-08T11:54:46.430Z</time>
      </trkpt>
      <trkpt lat="56.98966" lon="24.24279">
        <ele>7.451355</ele>
        <time>2020-10-08T11:54:52.294Z</time>
      </trkpt>
      <trkpt lat="56.98961" lon="24.24254">
        <ele>7.708774</ele>
        <time>2020-10-08T11:54:56.667Z</time>
      </trkpt>
      <trkpt lat="56.98961" lon="24.24252">
        <ele>7.728475</ele>
        <time>2020-10-08T11:54:57.017Z</time>
      </trkpt>
      <trkpt lat="56.9896" lon="24.24246">
        <ele>7.782818</ele>
        <time>2020-10-08T11:54:57.979Z</time>
      </trkpt>
      <trkpt lat="56.98958" lon="24.24239">
        <ele>7.855697</ele>
        <time>2020-10-08T11:54:59.168Z</time>
      </trkpt>
      <trkpt lat="56.98957" lon="24.24232">
        <ele>7.933427</ele>
        <time>2020-10-08T11:55:00.416Z</time>
      </trkpt>
      <trkpt lat="56.98956" lon="24.24226">
        <ele>7.983925</ele>
        <time>2020-10-08T11:55:01.474Z</time>
      </trkpt>
      <trkpt lat="56.98957" lon="24.24223">
        <ele>8.005673</ele>
        <time>2020-10-08T11:55:02.453Z</time>
      </trkpt>
      <trkpt lat="56.98958" lon="24.24213">
        <ele>8.064141</ele>
        <time>2020-10-08T11:55:04.254Z</time>
      </trkpt>
      <trkpt lat="56.9894" lon="24.24103">
        <ele>8.764746</ele>
        <time>2020-10-08T11:55:26.779Z</time>
      </trkpt>
      <trkpt lat="56.98936" lon="24.24078">
        <ele>8.92229</ele>
        <time>2020-10-08T11:55:31.697Z</time>
      </trkpt>
      <trkpt lat="56.98934" lon="24.24065">
        <ele>9.004493</ele>
        <time>2020-10-08T11:55:34.058Z</time>
      </trkpt>
      <trkpt lat="56.98925" lon="24.24012">
        <ele>9.34192</ele>
        <time>2020-10-08T11:55:43.913Z</time>
      </trkpt>
      <trkpt lat="56.98924" lon="24.24002">
        <ele>9.403825</ele>
        <time>2020-10-08T11:55:45.612Z</time>
      </trkpt>
      <trkpt lat="56.98912" lon="24.23927">
        <ele>9.879991</ele>
        <time>2020-10-08T11:55:59.231Z</time>
      </trkpt>
      <trkpt lat="56.98912" lon="24.23917">
        <ele>9.936218</ele>
        <time>2020-10-08T11:56:00.832Z</time>
      </trkpt>
      <trkpt lat="56.98909" lon="24.239">
        <ele>10.015179</ele>
        <time>2020-10-08T11:56:03.913Z</time>
      </trkpt>
      <trkpt lat="56.98905" lon="24.2387">
        <ele>10.102362</ele>
        <time>2020-10-08T11:56:09.110Z</time>
      </trkpt>
      <trkpt lat="56.98904" lon="24.23865">
        <ele>10.11907</ele>
        <time>2020-10-08T11:56:10.090Z</time>
      </trkpt>
      <trkpt lat="56.98903" lon="24.23856">
        <ele>10.143494</ele>
        <time>2020-10-08T11:56:11.542Z</time>
      </trkpt>
      <trkpt lat="56.98901" lon="24.23845">
        <ele>10.177015</ele>
        <time>2020-10-08T11:56:13.476Z</time>
      </trkpt>
      <trkpt lat="56.98898" lon="24.2382">
        <ele>10.250813</ele>
        <time>2020-10-08T11:56:17.829Z</time>
      </trkpt>
      <trkpt lat="56.98895" lon="24.23815">
        <ele>10.270577</ele>
        <time>2020-10-08T11:56:18.950Z</time>
      </trkpt>
      <trkpt lat="56.98891" lon="24.23788">
        <ele>10.351605</ele>
        <time>2020-10-08T11:56:23.646Z</time>
      </trkpt>
      <trkpt lat="56.98892" lon="24.23784">
        <ele>10.362805</ele>
        <time>2020-10-08T11:56:24.127Z</time>
      </trkpt>
      <trkpt lat="56.98888" lon="24.23744">
        <ele>10.479934</ele>
        <time>2020-10-08T11:56:29.406Z</time>
      </trkpt>
      <trkpt lat="56.98887" lon="24.23733">
        <ele>10.510052</ele>
        <time>2020-10-08T11:56:30.938Z</time>
      </trkpt>
      <trkpt lat="56.98885" lon="24.23721">
        <ele>10.545377</ele>
        <time>2020-10-08T11:56:32.757Z</time>
      </trkpt>
      <trkpt lat="56.98883" lon="24.23709">
        <ele>10.583452</ele>
        <time>2020-10-08T11:56:34.477Z</time>
      </trkpt>
      <trkpt lat="56.98877" lon="24.23662">
        <ele>10.721726</ele>
        <time>2020-10-08T11:56:41.255Z</time>
      </trkpt>
      <trkpt lat="56.98851" lon="24.23488">
        <ele>11.257726</ele>
        <time>2020-10-08T11:57:04.961Z</time>
      </trkpt>
      <trkpt lat="56.98849" lon="24.23474">
        <ele>11.303161</ele>
        <time>2020-10-08T11:57:07.200Z</time>
      </trkpt>
      <trkpt lat="56.98848" lon="24.23469">
        <ele>11.318945</ele>
        <time>2020-10-08T11:57:07.942Z</time>
      </trkpt>
      <trkpt lat="56.98846" lon="24.23461">
        <ele>11.346331</ele>
        <time>2020-10-08T11:57:09.019Z</time>
      </trkpt>
      <trkpt lat="56.98843" lon="24.23436">
        <ele>11.424898</ele>
        <time>2020-10-08T11:57:12.360Z</time>
      </trkpt>
      <trkpt lat="56.98841" lon="24.23415">
        <ele>11.489305</ele>
        <time>2020-10-08T11:57:15.343Z</time>
      </trkpt>
      <trkpt lat="56.98831" lon="24.23335">
        <ele>11.739942</ele>
        <time>2020-10-08T11:57:26.410Z</time>
      </trkpt>
      <trkpt lat="56.98822" lon="24.23259">
        <ele>11.940082</ele>
        <time>2020-10-08T11:57:36.862Z</time>
      </trkpt>
      <trkpt lat="56.98821" lon="24.23248">
        <ele>11.940219</ele>
        <time>2020-10-08T11:57:38.364Z</time>
      </trkpt>
      <trkpt lat="56.98816" lon="24.2322">
        <ele>11.940561</ele>
        <time>2020-10-08T11:57:42.273Z</time>
      </trkpt>
      <trkpt lat="56.98807" lon="24.23147">
        <ele>11.941466</ele>
        <time>2020-10-08T11:57:51.540Z</time>
      </trkpt>
      <trkpt lat="56.988" lon="24.23088">
        <ele>11.942191</ele>
        <time>2020-10-08T11:57:58.555Z</time>
      </trkpt>
      <trkpt lat="56.98794" lon="24.23034">
        <ele>11.942856</ele>
        <time>2020-10-08T11:58:05.095Z</time>
      </trkpt>
      <trkpt lat="56.98793" lon="24.2303">
        <ele>11.942898</ele>
        <time>2020-10-08T11:58:05.497Z</time>
      </trkpt>
      <trkpt lat="56.98792" lon="24.23022">
        <ele>11.943005</ele>
        <time>2020-10-08T11:58:06.510Z</time>
      </trkpt>
      <trkpt lat="56.98791" lon="24.23011">
        <ele>11.943134</ele>
        <time>2020-10-08T11:58:07.821Z</time>
      </trkpt>
      <trkpt lat="56.9879" lon="24.23006">
        <ele>11.943203</ele>
        <time>2020-10-08T11:58:08.549Z</time>
      </trkpt>
      <trkpt lat="56.98782" lon="24.22935">
        <ele>11.897555</ele>
        <time>2020-10-08T11:58:17.438Z</time>
      </trkpt>
      <trkpt lat="56.98778" lon="24.22899">
        <ele>11.782208</ele>
        <time>2020-10-08T11:58:21.670Z</time>
      </trkpt>
      <trkpt lat="56.98776" lon="24.22882">
        <ele>11.73003</ele>
        <time>2020-10-08T11:58:23.602Z</time>
      </trkpt>
      <trkpt lat="56.98772" lon="24.22847">
        <ele>11.61931</ele>
        <time>2020-10-08T11:58:27.501Z</time>
      </trkpt>
      <trkpt lat="56.98765" lon="24.22783">
        <ele>11.413004</ele>
        <time>2020-10-08T11:58:34.753Z</time>
      </trkpt>
      <trkpt lat="56.98764" lon="24.22764">
        <ele>11.353581</ele>
        <time>2020-10-08T11:58:36.833Z</time>
      </trkpt>
      <trkpt lat="56.98762" lon="24.22727">
        <ele>11.23964</ele>
        <time>2020-10-08T11:58:40.735Z</time>
      </trkpt>
      <trkpt lat="56.98756" lon="24.22692">
        <ele>11.125558</ele>
        <time>2020-10-08T11:58:44.713Z</time>
      </trkpt>
      <trkpt lat="56.98751" lon="24.22647">
        <ele>10.978789</ele>
        <time>2020-10-08T11:58:49.710Z</time>
      </trkpt>
      <trkpt lat="56.98742" lon="24.22574">
        <ele>10.758656</ele>
        <time>2020-10-08T11:58:57.942Z</time>
      </trkpt>
      <trkpt lat="56.98712" lon="24.2233">
        <ele>10.041196</ele>
        <time>2020-10-08T11:59:25.650Z</time>
      </trkpt>
      <trkpt lat="56.98707" lon="24.22282">
        <ele>10.055348</ele>
        <time>2020-10-08T11:59:31.218Z</time>
      </trkpt>
      <trkpt lat="56.98706" lon="24.22279">
        <ele>10.068826</ele>
        <time>2020-10-08T11:59:31.661Z</time>
      </trkpt>
      <trkpt lat="56.98701" lon="24.22244">
        <ele>10.224777</ele>
        <time>2020-10-08T11:59:35.982Z</time>
      </trkpt>
      <trkpt lat="56.98699" lon="24.22228">
        <ele>10.292544</ele>
        <time>2020-10-08T11:59:37.835Z</time>
      </trkpt>
      <trkpt lat="56.98696" lon="24.22196">
        <ele>10.429129</ele>
        <time>2020-10-08T11:59:42.081Z</time>
      </trkpt>
      <trkpt lat="56.98692" lon="24.22166">
        <ele>10.561828</ele>
        <time>2020-10-08T11:59:46.573Z</time>
      </trkpt>
      <trkpt lat="56.98678" lon="24.22038">
        <ele>11.11418</ele>
        <time>2020-10-08T12:00:05.664Z</time>
      </trkpt>
      <trkpt lat="56.98667" lon="24.21951">
        <ele>11.709581</ele>
        <time>2020-10-08T12:00:19.263Z</time>
      </trkpt>
      <trkpt lat="56.98666" lon="24.21944">
        <ele>11.785965</ele>
        <time>2020-10-08T12:00:20.486Z</time>
      </trkpt>
      <trkpt lat="56.98665" lon="24.21934">
        <ele>11.896303</ele>
        <time>2020-10-08T12:00:22.013Z</time>
      </trkpt>
      <trkpt lat="56.98664" lon="24.2192">
        <ele>12.061477</ele>
        <time>2020-10-08T12:00:24.262Z</time>
      </trkpt>
      <trkpt lat="56.98663" lon="24.21916">
        <ele>12.106607</ele>
        <time>2020-10-08T12:00:25.389Z</time>
      </trkpt>
      <trkpt lat="56.98663" lon="24.21908">
        <ele>12.192357</ele>
        <time>2020-10-08T12:00:26.462Z</time>
      </trkpt>
      <trkpt lat="56.98616" lon="24.21502">
        <ele>16.125661</ele>
        <time>2020-10-08T12:01:37.256Z</time>
      </trkpt>
      <trkpt lat="56.98611" lon="24.21462">
        <ele>16.404737</ele>
        <time>2020-10-08T12:01:43.300Z</time>
      </trkpt>
      <trkpt lat="56.9861" lon="24.21452">
        <ele>16.46958</ele>
        <time>2020-10-08T12:01:44.660Z</time>
      </trkpt>
      <trkpt lat="56.98575" lon="24.2114">
        <ele>16.190171</ele>
        <time>2020-10-08T12:02:23.442Z</time>
      </trkpt>
      <trkpt lat="56.98551" lon="24.20973">
        <ele>14.850901</ele>
        <time>2020-10-08T12:02:39.506Z</time>
      </trkpt>
      <trkpt lat="56.98548" lon="24.20966">
        <ele>14.719502</ele>
        <time>2020-10-08T12:02:40.266Z</time>
      </trkpt>
      <trkpt lat="56.98545" lon="24.20956">
        <ele>14.556443</ele>
        <time>2020-10-08T12:02:41.289Z</time>
      </trkpt>
      <trkpt lat="56.98537" lon="24.20915">
        <ele>13.90485</ele>
        <time>2020-10-08T12:02:45.297Z</time>
      </trkpt>
      <trkpt lat="56.98533" lon="24.20904">
        <ele>13.696031</ele>
        <time>2020-10-08T12:02:46.518Z</time>
      </trkpt>
      <trkpt lat="56.98532" lon="24.20901">
        <ele>13.66158</ele>
        <time>2020-10-08T12:02:46.732Z</time>
      </trkpt>
      <trkpt lat="56.9853" lon="24.2089">
        <ele>13.484189</ele>
        <time>2020-10-08T12:02:47.834Z</time>
      </trkpt>
      <trkpt lat="56.98527" lon="24.20879">
        <ele>13.307145</ele>
        <time>2020-10-08T12:02:48.921Z</time>
      </trkpt>
      <trkpt lat="56.98526" lon="24.20874">
        <ele>13.219653</ele>
        <time>2020-10-08T12:02:49.457Z</time>
      </trkpt>
      <trkpt lat="56.98516" lon="24.20829">
        <ele>12.485656</ele>
        <time>2020-10-08T12:02:53.863Z</time>
      </trkpt>
      <trkpt lat="56.98506" lon="24.2079">
        <ele>11.853279</ele>
        <time>2020-10-08T12:02:57.603Z</time>
      </trkpt>
      <trkpt lat="56.98504" lon="24.20779">
        <ele>11.688051</ele>
        <time>2020-10-08T12:02:58.602Z</time>
      </trkpt>
      <trkpt lat="56.98458" lon="24.20593">
        <ele>9.929446</ele>
        <time>2020-10-08T12:03:17.878Z</time>
      </trkpt>
      <trkpt lat="56.98449" lon="24.20557">
        <ele>9.732917</ele>
        <time>2020-10-08T12:03:22.108Z</time>
      </trkpt>
      <trkpt lat="56.98447" lon="24.20552">
        <ele>9.701521</ele>
        <time>2020-10-08T12:03:22.906Z</time>
      </trkpt>
      <trkpt lat="56.98446" lon="24.20547">
        <ele>9.673594</ele>
        <time>2020-10-08T12:03:23.623Z</time>
      </trkpt>
      <trkpt lat="56.98444" lon="24.20539">
        <ele>9.633914</ele>
        <time>2020-10-08T12:03:24.772Z</time>
      </trkpt>
      <trkpt lat="56.98443" lon="24.20535">
        <ele>9.608087</ele>
        <time>2020-10-08T12:03:25.529Z</time>
      </trkpt>
      <trkpt lat="56.98441" lon="24.20526">
        <ele>9.561344</ele>
        <time>2020-10-08T12:03:27.115Z</time>
      </trkpt>
      <trkpt lat="56.98439" lon="24.2052">
        <ele>9.526868</ele>
        <time>2020-10-08T12:03:27.901Z</time>
      </trkpt>
      <trkpt lat="56.9842" lon="24.2044">
        <ele>9.093535</ele>
        <time>2020-10-08T12:03:38.275Z</time>
      </trkpt>
      <trkpt lat="56.98418" lon="24.20432">
        <ele>9.049878</ele>
        <time>2020-10-08T12:03:39.461Z</time>
      </trkpt>
      <trkpt lat="56.98413" lon="24.20411">
        <ele>8.938023</ele>
        <time>2020-10-08T12:03:42.478Z</time>
      </trkpt>
      <trkpt lat="56.98401" lon="24.20364">
        <ele>9.205746</ele>
        <time>2020-10-08T12:03:48.799Z</time>
      </trkpt>
      <trkpt lat="56.98396" lon="24.20346">
        <ele>9.312395</ele>
        <time>2020-10-08T12:03:51.764Z</time>
      </trkpt>
      <trkpt lat="56.98384" lon="24.20292">
        <ele>9.625201</ele>
        <time>2020-10-08T12:03:59.300Z</time>
      </trkpt>
      <trkpt lat="56.98382" lon="24.20286">
        <ele>9.661853</ele>
        <time>2020-10-08T12:04:00.593Z</time>
      </trkpt>
      <trkpt lat="56.98378" lon="24.20275">
        <ele>9.730503</ele>
        <time>2020-10-08T12:04:02.530Z</time>
      </trkpt>
      <trkpt lat="56.98374" lon="24.2026">
        <ele>9.817941</ele>
        <time>2020-10-08T12:04:04.927Z</time>
      </trkpt>
      <trkpt lat="56.98359" lon="24.20189">
        <ele>10.229847</ele>
        <time>2020-10-08T12:04:16.998Z</time>
      </trkpt>
      <trkpt lat="56.98357" lon="24.2018">
        <ele>10.282035</ele>
        <time>2020-10-08T12:04:18.530Z</time>
      </trkpt>
      <trkpt lat="56.98354" lon="24.20161">
        <ele>10.385237</ele>
        <time>2020-10-08T12:04:21.743Z</time>
      </trkpt>
      <trkpt lat="56.98344" lon="24.2012">
        <ele>10.624134</ele>
        <time>2020-10-08T12:04:28.583Z</time>
      </trkpt>
      <trkpt lat="56.98339" lon="24.20107">
        <ele>10.704398</ele>
        <time>2020-10-08T12:04:31.125Z</time>
      </trkpt>
      <trkpt lat="56.98337" lon="24.20097">
        <ele>10.737231</ele>
        <time>2020-10-08T12:04:32.664Z</time>
      </trkpt>
      <trkpt lat="56.98335" lon="24.20077">
        <ele>10.796553</ele>
        <time>2020-10-08T12:04:35.526Z</time>
      </trkpt>
      <trkpt lat="56.98333" lon="24.20063">
        <ele>10.839416</ele>
        <time>2020-10-08T12:04:37.466Z</time>
      </trkpt>
      <trkpt lat="56.98332" lon="24.20059">
        <ele>10.85149</ele>
        <time>2020-10-08T12:04:37.996Z</time>
      </trkpt>
      <trkpt lat="56.9833" lon="24.20052">
        <ele>10.876105</ele>
        <time>2020-10-08T12:04:38.946Z</time>
      </trkpt>
      <trkpt lat="56.98328" lon="24.20045">
        <ele>10.898612</ele>
        <time>2020-10-08T12:04:40.081Z</time>
      </trkpt>
      <trkpt lat="56.98327" lon="24.20041">
        <ele>10.913854</ele>
        <time>2020-10-08T12:04:40.698Z</time>
      </trkpt>
      <trkpt lat="56.98323" lon="24.20027">
        <ele>10.959212</ele>
        <time>2020-10-08T12:04:42.981Z</time>
      </trkpt>
      <trkpt lat="56.98286" lon="24.19881">
        <ele>11.439718</ele>
        <time>2020-10-08T12:05:04.372Z</time>
      </trkpt>
      <trkpt lat="56.98244" lon="24.19725">
        <ele>11.343296</ele>
        <time>2020-10-08T12:05:25.825Z</time>
      </trkpt>
      <trkpt lat="56.98225" lon="24.19662">
        <ele>11.084822</ele>
        <time>2020-10-08T12:05:33.567Z</time>
      </trkpt>
      <trkpt lat="56.98219" lon="24.19645">
        <ele>11.017146</ele>
        <time>2020-10-08T12:05:35.583Z</time>
      </trkpt>
      <trkpt lat="56.98217" lon="24.19638">
        <ele>10.988008</ele>
        <time>2020-10-08T12:05:36.410Z</time>
      </trkpt>
      <trkpt lat="56.98211" lon="24.19618">
        <ele>10.904986</ele>
        <time>2020-10-08T12:05:38.792Z</time>
      </trkpt>
      <trkpt lat="56.98207" lon="24.19605">
        <ele>10.85047</ele>
        <time>2020-10-08T12:05:40.366Z</time>
      </trkpt>
      <trkpt lat="56.98202" lon="24.19586">
        <ele>10.777164</ele>
        <time>2020-10-08T12:05:42.498Z</time>
      </trkpt>
      <trkpt lat="56.98198" lon="24.19573">
        <ele>10.723908</ele>
        <time>2020-10-08T12:05:44.059Z</time>
      </trkpt>
      <trkpt lat="56.98196" lon="24.19569">
        <ele>10.706364</ele>
        <time>2020-10-08T12:05:44.547Z</time>
      </trkpt>
      <trkpt lat="56.98188" lon="24.19542">
        <ele>10.597654</ele>
        <time>2020-10-08T12:05:47.770Z</time>
      </trkpt>
      <trkpt lat="56.98172" lon="24.19489">
        <ele>10.420908</ele>
        <time>2020-10-08T12:05:54.235Z</time>
      </trkpt>
      <trkpt lat="56.9816" lon="24.19448">
        <ele>10.310159</ele>
        <time>2020-10-08T12:05:59.267Z</time>
      </trkpt>
      <trkpt lat="56.98147" lon="24.19408">
        <ele>10.202293</ele>
        <time>2020-10-08T12:06:04.397Z</time>
      </trkpt>
      <trkpt lat="56.98146" lon="24.19405">
        <ele>10.195257</ele>
        <time>2020-10-08T12:06:04.735Z</time>
      </trkpt>
      <trkpt lat="56.98142" lon="24.19391">
        <ele>10.155875</ele>
        <time>2020-10-08T12:06:06.565Z</time>
      </trkpt>
      <trkpt lat="56.98113" lon="24.19298">
        <ele>9.904903</ele>
        <time>2020-10-08T12:06:19.155Z</time>
      </trkpt>
      <trkpt lat="56.98102" lon="24.19262">
        <ele>9.807992</ele>
        <time>2020-10-08T12:06:24.151Z</time>
      </trkpt>
      <trkpt lat="56.981" lon="24.19253">
        <ele>9.784899</ele>
        <time>2020-10-08T12:06:25.385Z</time>
      </trkpt>
      <trkpt lat="56.98094" lon="24.19236">
        <ele>9.739331</ele>
        <time>2020-10-08T12:06:27.763Z</time>
      </trkpt>
      <trkpt lat="56.98088" lon="24.19214">
        <ele>9.72593</ele>
        <time>2020-10-08T12:06:30.766Z</time>
      </trkpt>
      <trkpt lat="56.98085" lon="24.19206">
        <ele>9.72592</ele>
        <time>2020-10-08T12:06:31.969Z</time>
      </trkpt>
      <trkpt lat="56.98083" lon="24.19197">
        <ele>9.725909</ele>
        <time>2020-10-08T12:06:33.233Z</time>
      </trkpt>
      <trkpt lat="56.98081" lon="24.19191">
        <ele>9.725903</ele>
        <time>2020-10-08T12:06:34.006Z</time>
      </trkpt>
      <trkpt lat="56.98079" lon="24.19186">
        <ele>9.725896</ele>
        <time>2020-10-08T12:06:34.775Z</time>
      </trkpt>
      <trkpt lat="56.98077" lon="24.1918">
        <ele>9.725889</ele>
        <time>2020-10-08T12:06:35.666Z</time>
      </trkpt>
      <trkpt lat="56.98076" lon="24.19176">
        <ele>9.725884</ele>
        <time>2020-10-08T12:06:36.187Z</time>
      </trkpt>
      <trkpt lat="56.98048" lon="24.19083">
        <ele>9.725771</ele>
        <time>2020-10-08T12:06:49.415Z</time>
      </trkpt>
      <trkpt lat="56.98024" lon="24.19005">
        <ele>9.725677</ele>
        <time>2020-10-08T12:07:00.341Z</time>
      </trkpt>
      <trkpt lat="56.98011" lon="24.18962">
        <ele>9.725626</ele>
        <time>2020-10-08T12:07:06.210Z</time>
      </trkpt>
      <trkpt lat="56.97992" lon="24.18899">
        <ele>9.707533</ele>
        <time>2020-10-08T12:07:14.649Z</time>
      </trkpt>
      <trkpt lat="56.97989" lon="24.1889">
        <ele>9.703878</ele>
        <time>2020-10-08T12:07:15.826Z</time>
      </trkpt>
      <trkpt lat="56.97976" lon="24.18846">
        <ele>9.686196</ele>
        <time>2020-10-08T12:07:21.464Z</time>
      </trkpt>
      <trkpt lat="56.97951" lon="24.18765">
        <ele>9.65289</ele>
        <time>2020-10-08T12:07:32.645Z</time>
      </trkpt>
      <trkpt lat="56.97945" lon="24.18748">
        <ele>9.64586</ele>
        <time>2020-10-08T12:07:35.128Z</time>
      </trkpt>
      <trkpt lat="56.97914" lon="24.18646">
        <ele>9.603957</ele>
        <time>2020-10-08T12:07:49.904Z</time>
      </trkpt>
      <trkpt lat="56.97903" lon="24.18609">
        <ele>9.587157</ele>
        <time>2020-10-08T12:07:54.998Z</time>
      </trkpt>
      <trkpt lat="56.97902" lon="24.18604">
        <ele>9.585062</ele>
        <time>2020-10-08T12:07:55.633Z</time>
      </trkpt>
      <trkpt lat="56.97899" lon="24.18595">
        <ele>9.580801</ele>
        <time>2020-10-08T12:07:56.929Z</time>
      </trkpt>
      <trkpt lat="56.97896" lon="24.18586">
        <ele>9.576573</ele>
        <time>2020-10-08T12:07:58.191Z</time>
      </trkpt>
      <trkpt lat="56.9789" lon="24.18568">
        <ele>9.568295</ele>
        <time>2020-10-08T12:08:00.646Z</time>
      </trkpt>
      <trkpt lat="56.97889" lon="24.18564">
        <ele>9.56633</ele>
        <time>2020-10-08T12:08:01.196Z</time>
      </trkpt>
      <trkpt lat="56.97887" lon="24.18562">
        <ele>9.565173</ele>
        <time>2020-10-08T12:08:01.542Z</time>
      </trkpt>
      <trkpt lat="56.97886" lon="24.18558">
        <ele>9.563182</ele>
        <time>2020-10-08T12:08:02.101Z</time>
      </trkpt>
      <trkpt lat="56.97882" lon="24.18546">
        <ele>9.557664</ele>
        <time>2020-10-08T12:08:03.720Z</time>
      </trkpt>
      <trkpt lat="56.97879" lon="24.18533">
        <ele>9.55204</ele>
        <time>2020-10-08T12:08:05.371Z</time>
      </trkpt>
      <trkpt lat="56.97878" lon="24.18531">
        <ele>9.550851</ele>
        <time>2020-10-08T12:08:05.716Z</time>
      </trkpt>
      <trkpt lat="56.97876" lon="24.18524">
        <ele>9.548022</ele>
        <time>2020-10-08T12:08:06.595Z</time>
      </trkpt>
      <trkpt lat="56.97859" lon="24.18466">
        <ele>9.521582</ele>
        <time>2020-10-08T12:08:14.407Z</time>
      </trkpt>
      <trkpt lat="56.97856" lon="24.18459">
        <ele>9.518297</ele>
        <time>2020-10-08T12:08:15.405Z</time>
      </trkpt>
      <trkpt lat="56.97854" lon="24.18451">
        <ele>9.514804</ele>
        <time>2020-10-08T12:08:16.438Z</time>
      </trkpt>
      <trkpt lat="56.9784" lon="24.18405">
        <ele>9.493846</ele>
        <time>2020-10-08T12:08:22.840Z</time>
      </trkpt>
      <trkpt lat="56.9782" lon="24.18341">
        <ele>9.418635</ele>
        <time>2020-10-08T12:08:31.827Z</time>
      </trkpt>
      <trkpt lat="56.97808" lon="24.183">
        <ele>9.329011</ele>
        <time>2020-10-08T12:08:37.473Z</time>
      </trkpt>
      <trkpt lat="56.97787" lon="24.18233">
        <ele>9.183229</ele>
        <time>2020-10-08T12:08:46.279Z</time>
      </trkpt>
      <trkpt lat="56.97777" lon="24.18199">
        <ele>9.110836</ele>
        <time>2020-10-08T12:08:50.532Z</time>
      </trkpt>
      <trkpt lat="56.97768" lon="24.18171">
        <ele>9.05103</ele>
        <time>2020-10-08T12:08:54.043Z</time>
      </trkpt>
      <trkpt lat="56.97754" lon="24.18124">
        <ele>8.948986</ele>
        <time>2020-10-08T12:09:00.032Z</time>
      </trkpt>
      <trkpt lat="56.97752" lon="24.18115">
        <ele>8.930268</ele>
        <time>2020-10-08T12:09:01.173Z</time>
      </trkpt>
      <trkpt lat="56.97749" lon="24.18107">
        <ele>8.911715</ele>
        <time>2020-10-08T12:09:02.279Z</time>
      </trkpt>
      <trkpt lat="56.97747" lon="24.181">
        <ele>8.895977</ele>
        <time>2020-10-08T12:09:03.222Z</time>
      </trkpt>
      <trkpt lat="56.97746" lon="24.18098">
        <ele>8.892333</ele>
        <time>2020-10-08T12:09:03.432Z</time>
      </trkpt>
      <trkpt lat="56.97745" lon="24.18094">
        <ele>8.882701</ele>
        <time>2020-10-08T12:09:04.004Z</time>
      </trkpt>
      <trkpt lat="56.97743" lon="24.18087">
        <ele>8.869447</ele>
        <time>2020-10-08T12:09:04.792Z</time>
      </trkpt>
      <trkpt lat="56.97699" lon="24.17944">
        <ele>8.73754</ele>
        <time>2020-10-08T12:09:24.239Z</time>
      </trkpt>
      <trkpt lat="56.97689" lon="24.1791">
        <ele>8.708201</ele>
        <time>2020-10-08T12:09:28.877Z</time>
      </trkpt>
      <trkpt lat="56.97673" lon="24.17859">
        <ele>8.665013</ele>
        <time>2020-10-08T12:09:35.767Z</time>
      </trkpt>
      <trkpt lat="56.97667" lon="24.17839">
        <ele>8.647882</ele>
        <time>2020-10-08T12:09:38.555Z</time>
      </trkpt>
      <trkpt lat="56.97632" lon="24.17723">
        <ele>8.598485</ele>
        <time>2020-10-08T12:09:55.056Z</time>
      </trkpt>
      <trkpt lat="56.97627" lon="24.17706">
        <ele>8.596301</ele>
        <time>2020-10-08T12:09:57.480Z</time>
      </trkpt>
      <trkpt lat="56.97618" lon="24.17679">
        <ele>8.592784</ele>
        <time>2020-10-08T12:10:01.122Z</time>
      </trkpt>
      <trkpt lat="56.97615" lon="24.17668">
        <ele>8.591272</ele>
        <time>2020-10-08T12:10:02.723Z</time>
      </trkpt>
      <trkpt lat="56.97602" lon="24.17624">
        <ele>8.585571</ele>
        <time>2020-10-08T12:10:08.717Z</time>
      </trkpt>
      <trkpt lat="56.97601" lon="24.17622">
        <ele>8.585241</ele>
        <time>2020-10-08T12:10:09.064Z</time>
      </trkpt>
      <trkpt lat="56.97585" lon="24.17573">
        <ele>8.578787</ele>
        <time>2020-10-08T12:10:15.905Z</time>
      </trkpt>
      <trkpt lat="56.97585" lon="24.17571">
        <ele>8.578547</ele>
        <time>2020-10-08T12:10:16.164Z</time>
      </trkpt>
      <trkpt lat="56.97583" lon="24.17565">
        <ele>8.577815</ele>
        <time>2020-10-08T12:10:16.925Z</time>
      </trkpt>
      <trkpt lat="56.97582" lon="24.17561">
        <ele>8.577253</ele>
        <time>2020-10-08T12:10:17.525Z</time>
      </trkpt>
      <trkpt lat="56.97582" lon="24.1756">
        <ele>8.577103</ele>
        <time>2020-10-08T12:10:17.686Z</time>
      </trkpt>
      <trkpt lat="56.97566" lon="24.17508">
        <ele>8.570451</ele>
        <time>2020-10-08T12:10:24.605Z</time>
      </trkpt>
      <trkpt lat="56.97549" lon="24.17454">
        <ele>8.688834</ele>
        <time>2020-10-08T12:10:32.099Z</time>
      </trkpt>
      <trkpt lat="56.97539" lon="24.17422">
        <ele>8.765719</ele>
        <time>2020-10-08T12:10:36.618Z</time>
      </trkpt>
      <trkpt lat="56.97522" lon="24.17367">
        <ele>8.894518</ele>
        <time>2020-10-08T12:10:44.793Z</time>
      </trkpt>
      <trkpt lat="56.97517" lon="24.17352">
        <ele>8.928837</ele>
        <time>2020-10-08T12:10:47.037Z</time>
      </trkpt>
      <trkpt lat="56.97511" lon="24.17331">
        <ele>8.978591</ele>
        <time>2020-10-08T12:10:50.360Z</time>
      </trkpt>
      <trkpt lat="56.97507" lon="24.17318">
        <ele>9.010026</ele>
        <time>2020-10-08T12:10:52.345Z</time>
      </trkpt>
      <trkpt lat="56.97497" lon="24.17286">
        <ele>9.083502</ele>
        <time>2020-10-08T12:10:57.133Z</time>
      </trkpt>
      <trkpt lat="56.97491" lon="24.17268">
        <ele>9.127515</ele>
        <time>2020-10-08T12:11:00.015Z</time>
      </trkpt>
      <trkpt lat="56.97481" lon="24.17233">
        <ele>9.20907</ele>
        <time>2020-10-08T12:11:05.399Z</time>
      </trkpt>
      <trkpt lat="56.97479" lon="24.17226">
        <ele>9.224167</ele>
        <time>2020-10-08T12:11:06.448Z</time>
      </trkpt>
      <trkpt lat="56.97478" lon="24.17221">
        <ele>9.234365</ele>
        <time>2020-10-08T12:11:07.125Z</time>
      </trkpt>
      <trkpt lat="56.97473" lon="24.17203">
        <ele>9.313682</ele>
        <time>2020-10-08T12:11:09.939Z</time>
      </trkpt>
      <trkpt lat="56.97473" lon="24.17201">
        <ele>9.325933</ele>
        <time>2020-10-08T12:11:10.329Z</time>
      </trkpt>
      <trkpt lat="56.9747" lon="24.17194">
        <ele>9.36033</ele>
        <time>2020-10-08T12:11:11.370Z</time>
      </trkpt>
      <trkpt lat="56.97469" lon="24.17189">
        <ele>9.389979</ele>
        <time>2020-10-08T12:11:12.309Z</time>
      </trkpt>
      <trkpt lat="56.97454" lon="24.17142">
        <ele>9.633852</ele>
        <time>2020-10-08T12:11:20.137Z</time>
      </trkpt>
      <trkpt lat="56.97387" lon="24.1692">
        <ele>10.745179</ele>
        <time>2020-10-08T12:11:56.038Z</time>
      </trkpt>
      <trkpt lat="56.97375" lon="24.16881">
        <ele>10.815221</ele>
        <time>2020-10-08T12:12:02.069Z</time>
      </trkpt>
      <trkpt lat="56.97355" lon="24.16817">
        <ele>10.927803</ele>
        <time>2020-10-08T12:12:11.344Z</time>
      </trkpt>
      <trkpt lat="56.9735" lon="24.16808">
        <ele>10.949507</ele>
        <time>2020-10-08T12:12:13.090Z</time>
      </trkpt>
      <trkpt lat="56.97346" lon="24.16797">
        <ele>10.969025</ele>
        <time>2020-10-08T12:12:14.631Z</time>
      </trkpt>
      <trkpt lat="56.97343" lon="24.16784">
        <ele>10.990717</ele>
        <time>2020-10-08T12:12:16.371Z</time>
      </trkpt>
      <trkpt lat="56.97297" lon="24.16628">
        <ele>11.256592</ele>
        <time>2020-10-08T12:12:38.087Z</time>
      </trkpt>
      <trkpt lat="56.97292" lon="24.16615">
        <ele>11.27386</ele>
        <time>2020-10-08T12:12:40.064Z</time>
      </trkpt>
      <trkpt lat="56.97288" lon="24.16604">
        <ele>11.288236</ele>
        <time>2020-10-08T12:12:41.758Z</time>
      </trkpt>
      <trkpt lat="56.97281" lon="24.16596">
        <ele>11.305271</ele>
        <time>2020-10-08T12:12:43.758Z</time>
      </trkpt>
      <trkpt lat="56.97277" lon="24.16588">
        <ele>11.31664</ele>
        <time>2020-10-08T12:12:45.050Z</time>
      </trkpt>
      <trkpt lat="56.97273" lon="24.16573">
        <ele>11.333864</ele>
        <time>2020-10-08T12:12:47.023Z</time>
      </trkpt>
      <trkpt lat="56.97271" lon="24.1655">
        <ele>11.360312</ele>
        <time>2020-10-08T12:12:50.121Z</time>
      </trkpt>
      <trkpt lat="56.97268" lon="24.16537">
        <ele>11.374197</ele>
        <time>2020-10-08T12:12:51.590Z</time>
      </trkpt>
      <trkpt lat="56.97256" lon="24.16497">
        <ele>11.423577</ele>
        <time>2020-10-08T12:12:57.442Z</time>
      </trkpt>
      <trkpt lat="56.97236" lon="24.16433">
        <ele>11.50371</ele>
        <time>2020-10-08T12:13:06.893Z</time>
      </trkpt>
      <trkpt lat="56.97217" lon="24.1637">
        <ele>11.58317</ele>
        <time>2020-10-08T12:13:16.305Z</time>
      </trkpt>
      <trkpt lat="56.972" lon="24.16318">
        <ele>11.599668</ele>
        <time>2020-10-08T12:13:24.155Z</time>
      </trkpt>
      <trkpt lat="56.97196" lon="24.16314">
        <ele>11.600152</ele>
        <time>2020-10-08T12:13:25.092Z</time>
      </trkpt>
      <trkpt lat="56.9715" lon="24.16165">
        <ele>11.609619</ele>
        <time>2020-10-08T12:13:45.829Z</time>
      </trkpt>
      <trkpt lat="56.97147" lon="24.16157">
        <ele>11.610149</ele>
        <time>2020-10-08T12:13:47.008Z</time>
      </trkpt>
      <trkpt lat="56.97146" lon="24.16152">
        <ele>11.610445</ele>
        <time>2020-10-08T12:13:47.643Z</time>
      </trkpt>
      <trkpt lat="56.97131" lon="24.16102">
        <ele>11.613618</ele>
        <time>2020-10-08T12:13:54.278Z</time>
      </trkpt>
      <trkpt lat="56.97116" lon="24.16052">
        <ele>11.540763</ele>
        <time>2020-10-08T12:14:00.980Z</time>
      </trkpt>
      <trkpt lat="56.9711" lon="24.16032">
        <ele>11.471505</ele>
        <time>2020-10-08T12:14:04.053Z</time>
      </trkpt>
      <trkpt lat="56.97109" lon="24.16023">
        <ele>11.446717</ele>
        <time>2020-10-08T12:14:05.023Z</time>
      </trkpt>
      <trkpt lat="56.97097" lon="24.15983">
        <ele>11.313839</ele>
        <time>2020-10-08T12:14:10.670Z</time>
      </trkpt>
      <trkpt lat="56.97094" lon="24.15975">
        <ele>11.285432</ele>
        <time>2020-10-08T12:14:11.743Z</time>
      </trkpt>
      <trkpt lat="56.97049" lon="24.15827">
        <ele>10.789134</ele>
        <time>2020-10-08T12:14:30.450Z</time>
      </trkpt>
      <trkpt lat="56.97045" lon="24.15822">
        <ele>10.764501</ele>
        <time>2020-10-08T12:14:31.336Z</time>
      </trkpt>
      <trkpt lat="56.97043" lon="24.15814">
        <ele>10.739971</ele>
        <time>2020-10-08T12:14:32.387Z</time>
      </trkpt>
      <trkpt lat="56.97041" lon="24.15809">
        <ele>10.722041</ele>
        <time>2020-10-08T12:14:33.010Z</time>
      </trkpt>
      <trkpt lat="56.97044" lon="24.15805">
        <ele>10.70452</ele>
        <time>2020-10-08T12:14:33.624Z</time>
      </trkpt>
      <trkpt lat="56.97046" lon="24.15798">
        <ele>10.680755</ele>
        <time>2020-10-08T12:14:34.465Z</time>
      </trkpt>
      <trkpt lat="56.97043" lon="24.15785">
        <ele>10.629404</ele>
        <time>2020-10-08T12:14:35.898Z</time>
      </trkpt>
      <trkpt lat="56.96965" lon="24.15527">
        <ele>9.006447</ele>
        <time>2020-10-08T12:15:06.839Z</time>
      </trkpt>
      <trkpt lat="56.96962" lon="24.15518">
        <ele>8.94947</ele>
        <time>2020-10-08T12:15:07.891Z</time>
      </trkpt>
      <trkpt lat="56.9696" lon="24.15511">
        <ele>8.900692</ele>
        <time>2020-10-08T12:15:08.822Z</time>
      </trkpt>
      <trkpt lat="56.96952" lon="24.15487">
        <ele>8.83495</ele>
        <time>2020-10-08T12:15:11.609Z</time>
      </trkpt>
      <trkpt lat="56.9695" lon="24.1548">
        <ele>8.831814</ele>
        <time>2020-10-08T12:15:12.561Z</time>
      </trkpt>
      <trkpt lat="56.96932" lon="24.15422">
        <ele>8.809128</ele>
        <time>2020-10-08T12:15:19.580Z</time>
      </trkpt>
      <trkpt lat="56.9693" lon="24.15414">
        <ele>8.806023</ele>
        <time>2020-10-08T12:15:20.557Z</time>
      </trkpt>
      <trkpt lat="56.96929" lon="24.15411">
        <ele>8.804966</ele>
        <time>2020-10-08T12:15:20.845Z</time>
      </trkpt>
      <trkpt lat="56.96901" lon="24.1532">
        <ele>8.769236</ele>
        <time>2020-10-08T12:15:33.515Z</time>
      </trkpt>
      <trkpt lat="56.96866" lon="24.15219">
        <ele>8.727855</ele>
        <time>2020-10-08T12:15:50.088Z</time>
      </trkpt>
      <trkpt lat="56.96854" lon="24.15192">
        <ele>8.864072</ele>
        <time>2020-10-08T12:15:54.831Z</time>
      </trkpt>
      <trkpt lat="56.96852" lon="24.15187">
        <ele>8.8908</ele>
        <time>2020-10-08T12:15:55.563Z</time>
      </trkpt>
      <trkpt lat="56.9685" lon="24.15182">
        <ele>8.915938</ele>
        <time>2020-10-08T12:15:56.431Z</time>
      </trkpt>
      <trkpt lat="56.96843" lon="24.1517">
        <ele>8.990421</ele>
        <time>2020-10-08T12:15:58.968Z</time>
      </trkpt>
      <trkpt lat="56.96841" lon="24.15166">
        <ele>9.01397</ele>
        <time>2020-10-08T12:15:59.766Z</time>
      </trkpt>
      <trkpt lat="56.96838" lon="24.1516">
        <ele>9.048923</ele>
        <time>2020-10-08T12:16:00.956Z</time>
      </trkpt>
      <trkpt lat="56.96833" lon="24.1514">
        <ele>9.145403</ele>
        <time>2020-10-08T12:16:04.106Z</time>
      </trkpt>
      <trkpt lat="56.96829" lon="24.15135">
        <ele>9.180703</ele>
        <time>2020-10-08T12:16:05.209Z</time>
      </trkpt>
      <trkpt lat="56.96827" lon="24.15133">
        <ele>9.198239</ele>
        <time>2020-10-08T12:16:05.827Z</time>
      </trkpt>
      <trkpt lat="56.96823" lon="24.15125">
        <ele>9.248002</ele>
        <time>2020-10-08T12:16:07.563Z</time>
      </trkpt>
      <trkpt lat="56.96807" lon="24.15115">
        <ele>9.379255</ele>
        <time>2020-10-08T12:16:11.907Z</time>
      </trkpt>
      <trkpt lat="56.96807" lon="24.15113">
        <ele>9.388719</ele>
        <time>2020-10-08T12:16:12.204Z</time>
      </trkpt>
      <trkpt lat="56.96806" lon="24.15113">
        <ele>9.396192</ele>
        <time>2020-10-08T12:16:12.449Z</time>
      </trkpt>
      <trkpt lat="56.96778" lon="24.15094">
        <ele>9.62861</ele>
        <time>2020-10-08T12:16:20.466Z</time>
      </trkpt>
      <trkpt lat="56.96776" lon="24.15092">
        <ele>9.651031</ele>
        <time>2020-10-08T12:16:21.214Z</time>
      </trkpt>
      <trkpt lat="56.96674" lon="24.15025">
        <ele>10.39086</ele>
        <time>2020-10-08T12:16:49.590Z</time>
      </trkpt>
      <trkpt lat="56.96644" lon="24.15004">
        <ele>10.564958</ele>
        <time>2020-10-08T12:16:57.174Z</time>
      </trkpt>
      <trkpt lat="56.9655" lon="24.14943">
        <ele>11.116424</ele>
        <time>2020-10-08T12:17:21.673Z</time>
      </trkpt>
      <trkpt lat="56.96526" lon="24.14928">
        <ele>11.310777</ele>
        <time>2020-10-08T12:17:28.720Z</time>
      </trkpt>
      <trkpt lat="56.96516" lon="24.14915">
        <ele>11.396311</ele>
        <time>2020-10-08T12:17:31.755Z</time>
      </trkpt>
      <trkpt lat="56.9652" lon="24.14912">
        <ele>11.427353</ele>
        <time>2020-10-08T12:17:32.830Z</time>
      </trkpt>
      <trkpt lat="56.96522" lon="24.1491">
        <ele>11.44227</ele>
        <time>2020-10-08T12:17:33.358Z</time>
      </trkpt>
      <trkpt lat="56.96519" lon="24.14904">
        <ele>11.475387</ele>
        <time>2020-10-08T12:17:34.632Z</time>
      </trkpt>
      <trkpt lat="56.96519" lon="24.14903">
        <ele>11.481931</ele>
        <time>2020-10-08T12:17:34.879Z</time>
      </trkpt>
      <trkpt lat="56.96505" lon="24.14872">
        <ele>11.644196</ele>
        <time>2020-10-08T12:17:40.669Z</time>
      </trkpt>
      <trkpt lat="56.96454" lon="24.14771">
        <ele>12.210515</ele>
        <time>2020-10-08T12:18:00.728Z</time>
      </trkpt>
      <trkpt lat="56.96447" lon="24.14757">
        <ele>12.290284</ele>
        <time>2020-10-08T12:18:03.612Z</time>
      </trkpt>
      <trkpt lat="56.964" lon="24.14666">
        <ele>12.3843</ele>
        <time>2020-10-08T12:18:20.971Z</time>
      </trkpt>
      <trkpt lat="56.9637" lon="24.14607">
        <ele>12.277815</ele>
        <time>2020-10-08T12:18:31.065Z</time>
      </trkpt>
      <trkpt lat="56.96297" lon="24.14465">
        <ele>12.05386</ele>
        <time>2020-10-08T12:18:53.076Z</time>
      </trkpt>
      <trkpt lat="56.96271" lon="24.14413">
        <ele>12.060043</ele>
        <time>2020-10-08T12:19:01.072Z</time>
      </trkpt>
      <trkpt lat="56.96201" lon="24.14276">
        <ele>12.076428</ele>
        <time>2020-10-08T12:19:24.762Z</time>
      </trkpt>
      <trkpt lat="56.96095" lon="24.14068">
        <ele>13.661309</ele>
        <time>2020-10-08T12:20:09.127Z</time>
      </trkpt>
      <trkpt lat="56.9609" lon="24.14058">
        <ele>13.747651</ele>
        <time>2020-10-08T12:20:11.266Z</time>
      </trkpt>
      <trkpt lat="56.96064" lon="24.14007">
        <ele>14.21178</ele>
        <time>2020-10-08T12:20:22.505Z</time>
      </trkpt>
      <trkpt lat="56.9604" lon="24.1396">
        <ele>14.35698</ele>
        <time>2020-10-08T12:20:32.405Z</time>
      </trkpt>
      <trkpt lat="56.95968" lon="24.13817">
        <ele>14.631092</ele>
        <time>2020-10-08T12:20:58.472Z</time>
      </trkpt>
      <trkpt lat="56.95849" lon="24.13581">
        <ele>14.25552</ele>
        <time>2020-10-08T12:21:35.291Z</time>
      </trkpt>
      <trkpt lat="56.95837" lon="24.13557">
        <ele>14.188893</ele>
        <time>2020-10-08T12:21:39.183Z</time>
      </trkpt>
      <trkpt lat="56.95723" lon="24.13326">
        <ele>14.546096</ele>
        <time>2020-10-08T12:22:20.953Z</time>
      </trkpt>
      <trkpt lat="56.95722" lon="24.13325">
        <ele>14.549739</ele>
        <time>2020-10-08T12:22:21.243Z</time>
      </trkpt>
      <trkpt lat="56.95717" lon="24.13316">
        <ele>14.572835</ele>
        <time>2020-10-08T12:22:22.998Z</time>
      </trkpt>
      <trkpt lat="56.95716" lon="24.13314">
        <ele>14.578947</ele>
        <time>2020-10-08T12:22:23.464Z</time>
      </trkpt>
      <trkpt lat="56.95715" lon="24.13311">
        <ele>14.584955</ele>
        <time>2020-10-08T12:22:23.960Z</time>
      </trkpt>
      <trkpt lat="56.95711" lon="24.13303">
        <ele>14.604982</ele>
        <time>2020-10-08T12:22:25.477Z</time>
      </trkpt>
      <trkpt lat="56.95709" lon="24.13299">
        <ele>14.61541</ele>
        <time>2020-10-08T12:22:26.304Z</time>
      </trkpt>
      <trkpt lat="56.9566" lon="24.132">
        <ele>14.825339</ele>
        <time>2020-10-08T12:22:44.509Z</time>
      </trkpt>
      <trkpt lat="56.95633" lon="24.13146">
        <ele>14.933434</ele>
        <time>2020-10-08T12:22:54.408Z</time>
      </trkpt>
      <trkpt lat="56.95566" lon="24.1301">
        <ele>15.172837</ele>
        <time>2020-10-08T12:23:18.288Z</time>
      </trkpt>
      <trkpt lat="56.95558" lon="24.12995">
        <ele>15.174672</ele>
        <time>2020-10-08T12:23:20.849Z</time>
      </trkpt>
      <trkpt lat="56.95553" lon="24.12985">
        <ele>15.175903</ele>
        <time>2020-10-08T12:23:22.526Z</time>
      </trkpt>
      <trkpt lat="56.95481" lon="24.1284">
        <ele>15.193297</ele>
        <time>2020-10-08T12:23:47.338Z</time>
      </trkpt>
      <trkpt lat="56.9546" lon="24.12799">
        <ele>15.198269</ele>
        <time>2020-10-08T12:23:54.336Z</time>
      </trkpt>
      <trkpt lat="56.95453" lon="24.12785">
        <ele>15.199962</ele>
        <time>2020-10-08T12:23:56.772Z</time>
      </trkpt>
      <trkpt lat="56.95421" lon="24.12722">
        <ele>15.10129</ele>
        <time>2020-10-08T12:24:07.683Z</time>
      </trkpt>
      <trkpt lat="56.95384" lon="24.12647">
        <ele>14.983856</ele>
        <time>2020-10-08T12:24:20.638Z</time>
      </trkpt>
      <trkpt lat="56.9538" lon="24.12639">
        <ele>14.971595</ele>
        <time>2020-10-08T12:24:21.968Z</time>
      </trkpt>
      <trkpt lat="56.95377" lon="24.12634">
        <ele>14.96262</ele>
        <time>2020-10-08T12:24:22.965Z</time>
      </trkpt>
      <trkpt lat="56.95374" lon="24.12627">
        <ele>14.952474</ele>
        <time>2020-10-08T12:24:24.061Z</time>
      </trkpt>
      <trkpt lat="56.95371" lon="24.12621">
        <ele>14.942556</ele>
        <time>2020-10-08T12:24:25.112Z</time>
      </trkpt>
      <trkpt lat="56.95295" lon="24.12467">
        <ele>14.465182</ele>
        <time>2020-10-08T12:24:48.900Z</time>
      </trkpt>
      <trkpt lat="56.95201" lon="24.12275">
        <ele>13.523706</ele>
        <time>2020-10-08T12:25:18.893Z</time>
      </trkpt>
      <trkpt lat="56.95119" lon="24.1211">
        <ele>12.572054</ele>
        <time>2020-10-08T12:25:43.368Z</time>
      </trkpt>
      <trkpt lat="56.95115" lon="24.12101">
        <ele>12.51875</ele>
        <time>2020-10-08T12:25:44.797Z</time>
      </trkpt>
      <trkpt lat="56.95113" lon="24.12097">
        <ele>12.496417</ele>
        <time>2020-10-08T12:25:45.395Z</time>
      </trkpt>
      <trkpt lat="56.95108" lon="24.12089">
        <ele>12.447433</ele>
        <time>2020-10-08T12:25:46.785Z</time>
      </trkpt>
      <trkpt lat="56.95039" lon="24.11949">
        <ele>11.646678</ele>
        <time>2020-10-08T12:26:09.263Z</time>
      </trkpt>
      <trkpt lat="56.94989" lon="24.11847">
        <ele>11.065303</ele>
        <time>2020-10-08T12:26:23.919Z</time>
      </trkpt>
      <trkpt lat="56.94983" lon="24.11834">
        <ele>10.988252</ele>
        <time>2020-10-08T12:26:25.984Z</time>
      </trkpt>
      <trkpt lat="56.94976" lon="24.1182">
        <ele>10.90796</ele>
        <time>2020-10-08T12:26:28.153Z</time>
      </trkpt>
      <trkpt lat="56.94926" lon="24.11721">
        <ele>10.928137</ele>
        <time>2020-10-08T12:26:44.112Z</time>
      </trkpt>
      <trkpt lat="56.94925" lon="24.11718">
        <ele>10.931591</ele>
        <time>2020-10-08T12:26:44.492Z</time>
      </trkpt>
      <trkpt lat="56.94918" lon="24.11703">
        <ele>10.946866</ele>
        <time>2020-10-08T12:26:47.081Z</time>
      </trkpt>
      <trkpt lat="56.94913" lon="24.11693">
        <ele>10.958226</ele>
        <time>2020-10-08T12:26:49.195Z</time>
      </trkpt>
      <trkpt lat="56.94879" lon="24.11624">
        <ele>11.031095</ele>
        <time>2020-10-08T12:27:02.055Z</time>
      </trkpt>
      <trkpt lat="56.94876" lon="24.11618">
        <ele>11.037915</ele>
        <time>2020-10-08T12:27:02.876Z</time>
      </trkpt>
      <trkpt lat="56.94861" lon="24.11588">
        <ele>11.070239</ele>
        <time>2020-10-08T12:27:08.722Z</time>
      </trkpt>
      <trkpt lat="56.94853" lon="24.11572">
        <ele>11.086656</ele>
        <time>2020-10-08T12:27:11.356Z</time>
      </trkpt>
      <trkpt lat="56.9481" lon="24.11476">
        <ele>12.092754</ele>
        <time>2020-10-08T12:27:30.504Z</time>
      </trkpt>
      <trkpt lat="56.94808" lon="24.11473">
        <ele>12.13578</ele>
        <time>2020-10-08T12:27:31.252Z</time>
      </trkpt>
      <trkpt lat="56.94807" lon="24.11469">
        <ele>12.172265</ele>
        <time>2020-10-08T12:27:31.825Z</time>
      </trkpt>
      <trkpt lat="56.94804" lon="24.11462">
        <ele>12.252458</ele>
        <time>2020-10-08T12:27:33.727Z</time>
      </trkpt>
      <trkpt lat="56.94808" lon="24.11459">
        <ele>12.326286</ele>
        <time>2020-10-08T12:27:35.300Z</time>
      </trkpt>
      <trkpt lat="56.9481" lon="24.11457">
        <ele>12.371127</ele>
        <time>2020-10-08T12:27:36.191Z</time>
      </trkpt>
      <trkpt lat="56.94856" lon="24.11425">
        <ele>13.16426</ele>
        <time>2020-10-08T12:27:51.940Z</time>
      </trkpt>
      <trkpt lat="56.94894" lon="24.11391">
        <ele>13.853748</ele>
        <time>2020-10-08T12:28:04.785Z</time>
      </trkpt>
      <trkpt lat="56.94897" lon="24.11379">
        <ele>13.974027</ele>
        <time>2020-10-08T12:28:06.462Z</time>
      </trkpt>
      <trkpt lat="56.94899" lon="24.11375">
        <ele>14.016975</ele>
        <time>2020-10-08T12:28:07.419Z</time>
      </trkpt>
      <trkpt lat="56.94898" lon="24.11373">
        <ele>14.033225</ele>
        <time>2020-10-08T12:28:07.882Z</time>
      </trkpt>
      <trkpt lat="56.94893" lon="24.11355">
        <ele>14.097227</ele>
        <time>2020-10-08T12:28:10.799Z</time>
      </trkpt>
      <trkpt lat="56.94878" lon="24.11286">
        <ele>14.33855</ele>
        <time>2020-10-08T12:28:21.156Z</time>
      </trkpt>
      <trkpt lat="56.94876" lon="24.11279">
        <ele>14.365847</ele>
        <time>2020-10-08T12:28:22.260Z</time>
      </trkpt>
      <trkpt lat="56.9488" lon="24.11273">
        <ele>14.396116</ele>
        <time>2020-10-08T12:28:23.551Z</time>
      </trkpt>
      <trkpt lat="56.94883" lon="24.1127">
        <ele>14.415935</ele>
        <time>2020-10-08T12:28:24.552Z</time>
      </trkpt>
      <trkpt lat="56.94909" lon="24.11231">
        <ele>14.613932</ele>
        <time>2020-10-08T12:28:35.348Z</time>
      </trkpt>
      <trkpt lat="56.94906" lon="24.11222">
        <ele>14.647769</ele>
        <time>2020-10-08T12:28:36.996Z</time>
      </trkpt>
      <trkpt lat="56.94905" lon="24.11218">
        <ele>14.66085</ele>
        <time>2020-10-08T12:28:37.846Z</time>
      </trkpt>
      <trkpt lat="56.94894" lon="24.11179">
        <ele>14.805824</ele>
        <time>2020-10-08T12:28:45.825Z</time>
      </trkpt>
      <trkpt lat="56.94893" lon="24.11176">
        <ele>14.81823</ele>
        <time>2020-10-08T12:28:46.298Z</time>
      </trkpt>
      <trkpt lat="56.94887" lon="24.11167">
        <ele>14.860252</ele>
        <time>2020-10-08T12:28:48.280Z</time>
      </trkpt>
      <trkpt lat="56.94882" lon="24.11159">
        <ele>14.899862</ele>
        <time>2020-10-08T12:28:50.806Z</time>
      </trkpt>
      <trkpt lat="56.94865" lon="24.11134">
        <ele>15.033446</ele>
        <time>2020-10-08T12:28:57.505Z</time>
      </trkpt>
      <trkpt lat="56.94866" lon="24.11129">
        <ele>15.050543</ele>
        <time>2020-10-08T12:28:58.141Z</time>
      </trkpt>
      <trkpt lat="56.94868" lon="24.1112">
        <ele>15.084369</ele>
        <time>2020-10-08T12:28:59.283Z</time>
      </trkpt>
      <trkpt lat="56.94866" lon="24.11117">
        <ele>15.095489</ele>
        <time>2020-10-08T12:29:00.077Z</time>
      </trkpt>
      <trkpt lat="56.9487" lon="24.11105">
        <ele>15.046253</ele>
        <time>2020-10-08T12:29:02.625Z</time>
      </trkpt>
      <trkpt lat="56.94867" lon="24.11101">
        <ele>15.019565</ele>
        <time>2020-10-08T12:29:03.907Z</time>
      </trkpt>
      <trkpt lat="56.9487" lon="24.11091">
        <ele>14.978933</ele>
        <time>2020-10-08T12:29:05.748Z</time>
      </trkpt>
      <trkpt lat="56.94865" lon="24.11085">
        <ele>14.938909</ele>
        <time>2020-10-08T12:29:07.308Z</time>
      </trkpt>
      <trkpt lat="56.94859" lon="24.1108">
        <ele>14.900889</ele>
        <time>2020-10-08T12:29:08.883Z</time>
      </trkpt>
      <trkpt lat="56.94861" lon="24.11075">
        <ele>14.882705</ele>
        <time>2020-10-08T12:29:09.561Z</time>
      </trkpt>
      <trkpt lat="56.94835" lon="24.11045">
        <ele>14.682556</ele>
        <time>2020-10-08T12:29:16.292Z</time>
      </trkpt>
      <trkpt lat="56.94847" lon="24.11007">
        <ele>14.527817</ele>
        <time>2020-10-08T12:29:21.328Z</time>
      </trkpt>
      <trkpt lat="56.94857" lon="24.10984">
        <ele>14.428803</ele>
        <time>2020-10-08T12:29:24.243Z</time>
      </trkpt>
      <trkpt lat="56.94859" lon="24.1098">
        <ele>14.405723</ele>
        <time>2020-10-08T12:29:25.042Z</time>
      </trkpt>
      <trkpt lat="56.94882" lon="24.10932">
        <ele>14.183119</ele>
        <time>2020-10-08T12:29:32.188Z</time>
      </trkpt>
      <trkpt lat="56.94885" lon="24.10926">
        <ele>14.154593</ele>
        <time>2020-10-08T12:29:33.149Z</time>
      </trkpt>
      <trkpt lat="56.9489" lon="24.10916">
        <ele>14.104889</ele>
        <time>2020-10-08T12:29:34.816Z</time>
      </trkpt>
      <trkpt lat="56.94893" lon="24.10913">
        <ele>14.086184</ele>
        <time>2020-10-08T12:29:35.451Z</time>
      </trkpt>
      <trkpt lat="56.94873" lon="24.10869">
        <ele>13.941593</ele>
        <time>2020-10-08T12:29:57.201Z</time>
      </trkpt>
      <trkpt lat="56.94856" lon="24.10829">
        <ele>13.941593</ele>
        <time>2020-10-08T12:30:16.406Z</time>
      </trkpt>
      <trkpt lat="56.94853" lon="24.10825">
        <ele>13.941593</ele>
        <time>2020-10-08T12:30:18.912Z</time>
      </trkpt>
      <trkpt lat="56.94848" lon="24.10816">
        <ele>13.941593</ele>
        <time>2020-10-08T12:30:23.702Z</time>
      </trkpt>
      <trkpt lat="56.94841" lon="24.10801">
        <ele>13.941593</ele>
        <time>2020-10-08T12:30:31.433Z</time>
      </trkpt>
      <trkpt lat="56.94823" lon="24.10765">
        <ele>13.941593</ele>
        <time>2020-10-08T12:30:36.692Z</time>
      </trkpt>
      <trkpt lat="56.9482" lon="24.10759">
        <ele>13.941593</ele>
        <time>2020-10-08T12:30:37.617Z</time>
      </trkpt>
      <trkpt lat="56.94805" lon="24.10723">
        <ele>13.941593</ele>
        <time>2020-10-08T12:30:42.625Z</time>
      </trkpt>
    </trkseg>
  </trk>
  <trk>
    <name><![CDATA[2_Rīga à Vilnius: 480km]]></name>
    <trkseg>
      <trkpt lat="56.94945" lon="24.10524">
        <ele>12.039849</ele>
        <time>2020-10-06T12:37:20.321Z</time>
      </trkpt>
      <trkpt lat="56.94953" lon="24.10501">
        <ele>12.039849</ele>
        <time>2020-10-06T12:37:31.167Z</time>
      </trkpt>
      <trkpt lat="56.94936" lon="24.10483">
        <ele>12.039849</ele>
        <time>2020-10-06T12:37:45.100Z</time>
      </trkpt>
      <trkpt lat="56.94934" lon="24.10482">
        <ele>12.039849</ele>
        <time>2020-10-06T12:37:46.047Z</time>
      </trkpt>
      <trkpt lat="56.94939" lon="24.10457">
        <ele>12.039849</ele>
        <time>2020-10-06T12:37:56.118Z</time>
      </trkpt>
      <trkpt lat="56.94937" lon="24.10456">
        <ele>12.039849</ele>
        <time>2020-10-06T12:37:57.440Z</time>
      </trkpt>
      <trkpt lat="56.94937" lon="24.10452">
        <ele>12.039849</ele>
        <time>2020-10-06T12:37:59.266Z</time>
      </trkpt>
      <trkpt lat="56.94932" lon="24.10441">
        <ele>12.039849</ele>
        <time>2020-10-06T12:38:04.438Z</time>
      </trkpt>
      <trkpt lat="56.94933" lon="24.10421">
        <ele>12.039849</ele>
        <time>2020-10-06T12:38:12.336Z</time>
      </trkpt>
      <trkpt lat="56.94937" lon="24.10415">
        <ele>12.039849</ele>
        <time>2020-10-06T12:38:15.589Z</time>
      </trkpt>
      <trkpt lat="56.94925" lon="24.10404">
        <ele>11.94535</ele>
        <time>2020-10-06T12:38:17.951Z</time>
      </trkpt>
      <trkpt lat="56.94907" lon="24.10387">
        <ele>11.27828</ele>
        <time>2020-10-06T12:38:21.450Z</time>
      </trkpt>
      <trkpt lat="56.94881" lon="24.10353">
        <ele>10.250496</ele>
        <time>2020-10-06T12:38:26.882Z</time>
      </trkpt>
      <trkpt lat="56.94875" lon="24.10337">
        <ele>9.908619</ele>
        <time>2020-10-06T12:38:28.785Z</time>
      </trkpt>
      <trkpt lat="56.94868" lon="24.10321">
        <ele>9.545533</ele>
        <time>2020-10-06T12:38:30.709Z</time>
      </trkpt>
      <trkpt lat="56.94856" lon="24.10297">
        <ele>8.95696</ele>
        <time>2020-10-06T12:38:33.762Z</time>
      </trkpt>
      <trkpt lat="56.94842" lon="24.10265">
        <ele>8.221237</ele>
        <time>2020-10-06T12:38:37.585Z</time>
      </trkpt>
      <trkpt lat="56.94832" lon="24.10242">
        <ele>7.699468</ele>
        <time>2020-10-06T12:38:40.244Z</time>
      </trkpt>
      <trkpt lat="56.94827" lon="24.10247">
        <ele>7.521841</ele>
        <time>2020-10-06T12:38:44.013Z</time>
      </trkpt>
      <trkpt lat="56.94825" lon="24.10242">
        <ele>7.423753</ele>
        <time>2020-10-06T12:38:46.087Z</time>
      </trkpt>
      <trkpt lat="56.94823" lon="24.10241">
        <ele>7.333493</ele>
        <time>2020-10-06T12:38:48.014Z</time>
      </trkpt>
      <trkpt lat="56.94821" lon="24.1024">
        <ele>7.277792</ele>
        <time>2020-10-06T12:38:49.159Z</time>
      </trkpt>
      <trkpt lat="56.94817" lon="24.10228">
        <ele>7.022406</ele>
        <time>2020-10-06T12:38:54.620Z</time>
      </trkpt>
      <trkpt lat="56.94814" lon="24.10221">
        <ele>6.867171</ele>
        <time>2020-10-06T12:38:57.941Z</time>
      </trkpt>
      <trkpt lat="56.94813" lon="24.10216">
        <ele>6.760578</ele>
        <time>2020-10-06T12:39:00.214Z</time>
      </trkpt>
      <trkpt lat="56.94811" lon="24.10217">
        <ele>6.687728</ele>
        <time>2020-10-06T12:39:00.584Z</time>
      </trkpt>
      <trkpt lat="56.94787" lon="24.10243">
        <ele>5.901333</ele>
        <time>2020-10-06T12:39:04.943Z</time>
      </trkpt>
      <trkpt lat="56.94761" lon="24.10268">
        <ele>5.255488</ele>
        <time>2020-10-06T12:39:09.537Z</time>
      </trkpt>
      <trkpt lat="56.94744" lon="24.10284">
        <ele>4.844314</ele>
        <time>2020-10-06T12:39:12.505Z</time>
      </trkpt>
      <trkpt lat="56.94723" lon="24.10304">
        <ele>4.305299</ele>
        <time>2020-10-06T12:39:16.585Z</time>
      </trkpt>
      <trkpt lat="56.94683" lon="24.10338">
        <ele>3.345905</ele>
        <time>2020-10-06T12:39:24.372Z</time>
      </trkpt>
      <trkpt lat="56.94659" lon="24.10372">
        <ele>2.66359</ele>
        <time>2020-10-06T12:39:30.560Z</time>
      </trkpt>
      <trkpt lat="56.94629" lon="24.10418">
        <ele>2.159227</ele>
        <time>2020-10-06T12:39:38.548Z</time>
      </trkpt>
      <trkpt lat="56.9461" lon="24.10448">
        <ele>2.136878</ele>
        <time>2020-10-06T12:39:43.789Z</time>
      </trkpt>
      <trkpt lat="56.94577" lon="24.10505">
        <ele>2.095952</ele>
        <time>2020-10-06T12:39:53.912Z</time>
      </trkpt>
      <trkpt lat="56.94565" lon="24.10525">
        <ele>2.081342</ele>
        <time>2020-10-06T12:39:57.565Z</time>
      </trkpt>
      <trkpt lat="56.94556" lon="24.10544">
        <ele>2.068461</ele>
        <time>2020-10-06T12:40:00.840Z</time>
      </trkpt>
      <trkpt lat="56.94533" lon="24.10593">
        <ele>2.036825</ele>
        <time>2020-10-06T12:40:08.910Z</time>
      </trkpt>
      <trkpt lat="56.94525" lon="24.10616">
        <ele>2.023244</ele>
        <time>2020-10-06T12:40:12.355Z</time>
      </trkpt>
      <trkpt lat="56.94514" lon="24.10646">
        <ele>1.995751</ele>
        <time>2020-10-06T12:40:17.080Z</time>
      </trkpt>
      <trkpt lat="56.94503" lon="24.1068">
        <ele>1.94811</ele>
        <time>2020-10-06T12:40:21.815Z</time>
      </trkpt>
      <trkpt lat="56.94496" lon="24.10708">
        <ele>1.909135</ele>
        <time>2020-10-06T12:40:25.637Z</time>
      </trkpt>
      <trkpt lat="56.94476" lon="24.10769">
        <ele>1.823024</ele>
        <time>2020-10-06T12:40:33.918Z</time>
      </trkpt>
      <trkpt lat="56.94442" lon="24.1085">
        <ele>1.696416</ele>
        <time>2020-10-06T12:40:45.723Z</time>
      </trkpt>
      <trkpt lat="56.94423" lon="24.10882">
        <ele>1.639109</ele>
        <time>2020-10-06T12:40:51.242Z</time>
      </trkpt>
      <trkpt lat="56.94411" lon="24.10894">
        <ele>1.6093</ele>
        <time>2020-10-06T12:40:53.712Z</time>
      </trkpt>
      <trkpt lat="56.94369" lon="24.10963">
        <ele>1.460941</ele>
        <time>2020-10-06T12:41:05.699Z</time>
      </trkpt>
      <trkpt lat="56.94359" lon="24.10984">
        <ele>1.421444</ele>
        <time>2020-10-06T12:41:08.525Z</time>
      </trkpt>
      <trkpt lat="56.94354" lon="24.10996">
        <ele>1.398764</ele>
        <time>2020-10-06T12:41:10.538Z</time>
      </trkpt>
      <trkpt lat="56.94343" lon="24.11023">
        <ele>1.350756</ele>
        <time>2020-10-06T12:41:14.499Z</time>
      </trkpt>
      <trkpt lat="56.9431" lon="24.11105">
        <ele>1.203823</ele>
        <time>2020-10-06T12:41:26.214Z</time>
      </trkpt>
      <trkpt lat="56.94296" lon="24.11139">
        <ele>1.142917</ele>
        <time>2020-10-06T12:41:31.241Z</time>
      </trkpt>
      <trkpt lat="56.94283" lon="24.11171">
        <ele>1.203814</ele>
        <time>2020-10-06T12:41:36.549Z</time>
      </trkpt>
      <trkpt lat="56.94215" lon="24.11337">
        <ele>1.61146</ele>
        <time>2020-10-06T12:42:03.308Z</time>
      </trkpt>
      <trkpt lat="56.94066" lon="24.11693">
        <ele>2.859796</ele>
        <time>2020-10-06T12:43:03.494Z</time>
      </trkpt>
      <trkpt lat="56.94064" lon="24.11699">
        <ele>2.871721</ele>
        <time>2020-10-06T12:43:04.909Z</time>
      </trkpt>
      <trkpt lat="56.94058" lon="24.11692">
        <ele>2.890215</ele>
        <time>2020-10-06T12:43:09.377Z</time>
      </trkpt>
      <trkpt lat="56.94022" lon="24.11783">
        <ele>3.067647</ele>
        <time>2020-10-06T12:43:28.563Z</time>
      </trkpt>
      <trkpt lat="56.9395" lon="24.11997">
        <ele>3.157112</ele>
        <time>2020-10-06T12:44:09.179Z</time>
      </trkpt>
      <trkpt lat="56.93882" lon="24.12177">
        <ele>2.702814</ele>
        <time>2020-10-06T12:44:42.017Z</time>
      </trkpt>
      <trkpt lat="56.93825" lon="24.12289">
        <ele>2.376646</ele>
        <time>2020-10-06T12:45:05.019Z</time>
      </trkpt>
      <trkpt lat="56.93799" lon="24.12357">
        <ele>2.197299</ele>
        <time>2020-10-06T12:45:17.875Z</time>
      </trkpt>
      <trkpt lat="56.93761" lon="24.12506">
        <ele>1.891968</ele>
        <time>2020-10-06T12:45:43.111Z</time>
      </trkpt>
      <trkpt lat="56.93713" lon="24.12625">
        <ele>1.730357</ele>
        <time>2020-10-06T12:46:05.893Z</time>
      </trkpt>
      <trkpt lat="56.93712" lon="24.12631">
        <ele>1.72365</ele>
        <time>2020-10-06T12:46:06.869Z</time>
      </trkpt>
      <trkpt lat="56.93703" lon="24.12646">
        <ele>1.69973</ele>
        <time>2020-10-06T12:46:09.375Z</time>
      </trkpt>
      <trkpt lat="56.93672" lon="24.12714">
        <ele>1.602989</ele>
        <time>2020-10-06T12:46:20.163Z</time>
      </trkpt>
      <trkpt lat="56.93673" lon="24.12729">
        <ele>1.586237</ele>
        <time>2020-10-06T12:46:22.012Z</time>
      </trkpt>
      <trkpt lat="56.93675" lon="24.12738">
        <ele>1.587245</ele>
        <time>2020-10-06T12:46:23.099Z</time>
      </trkpt>
      <trkpt lat="56.9368" lon="24.1276">
        <ele>1.615857</ele>
        <time>2020-10-06T12:46:25.912Z</time>
      </trkpt>
      <trkpt lat="56.93694" lon="24.12817">
        <ele>1.692679</ele>
        <time>2020-10-06T12:46:33.737Z</time>
      </trkpt>
      <trkpt lat="56.93708" lon="24.12872">
        <ele>1.766391</ele>
        <time>2020-10-06T12:46:41.302Z</time>
      </trkpt>
      <trkpt lat="56.93709" lon="24.12899">
        <ele>1.800112</ele>
        <time>2020-10-06T12:46:44.995Z</time>
      </trkpt>
      <trkpt lat="56.937" lon="24.12935">
        <ele>1.84822</ele>
        <time>2020-10-06T12:46:50.072Z</time>
      </trkpt>
      <trkpt lat="56.93693" lon="24.12946">
        <ele>1.869432</ele>
        <time>2020-10-06T12:46:52.465Z</time>
      </trkpt>
      <trkpt lat="56.93685" lon="24.12962">
        <ele>1.894767</ele>
        <time>2020-10-06T12:46:55.167Z</time>
      </trkpt>
      <trkpt lat="56.93608" lon="24.13124">
        <ele>2.032654</ele>
        <time>2020-10-06T12:47:22.730Z</time>
      </trkpt>
      <trkpt lat="56.93602" lon="24.13171">
        <ele>2.049723</ele>
        <time>2020-10-06T12:47:29.047Z</time>
      </trkpt>
      <trkpt lat="56.936" lon="24.13178">
        <ele>2.052344</ele>
        <time>2020-10-06T12:47:30.060Z</time>
      </trkpt>
      <trkpt lat="56.93598" lon="24.13186">
        <ele>2.055587</ele>
        <time>2020-10-06T12:47:31.003Z</time>
      </trkpt>
      <trkpt lat="56.93595" lon="24.13233">
        <ele>2.072045</ele>
        <time>2020-10-06T12:47:36.688Z</time>
      </trkpt>
      <trkpt lat="56.93598" lon="24.13307">
        <ele>2.098148</ele>
        <time>2020-10-06T12:47:45.434Z</time>
      </trkpt>
      <trkpt lat="56.93595" lon="24.13345">
        <ele>1.991108</ele>
        <time>2020-10-06T12:47:49.779Z</time>
      </trkpt>
      <trkpt lat="56.93585" lon="24.13392">
        <ele>1.854705</ele>
        <time>2020-10-06T12:47:55.259Z</time>
      </trkpt>
      <trkpt lat="56.9356" lon="24.13458">
        <ele>1.634233</ele>
        <time>2020-10-06T12:48:04.173Z</time>
      </trkpt>
      <trkpt lat="56.93558" lon="24.13473">
        <ele>1.592222</ele>
        <time>2020-10-06T12:48:05.914Z</time>
      </trkpt>
      <trkpt lat="56.93528" lon="24.13585">
        <ele>1.248434</ele>
        <time>2020-10-06T12:48:19.952Z</time>
      </trkpt>
      <trkpt lat="56.93517" lon="24.13619">
        <ele>1.162007</ele>
        <time>2020-10-06T12:48:24.318Z</time>
      </trkpt>
      <trkpt lat="56.93451" lon="24.13811">
        <ele>0.802333</ele>
        <time>2020-10-06T12:48:50.386Z</time>
      </trkpt>
      <trkpt lat="56.93448" lon="24.13832">
        <ele>0.767872</ele>
        <time>2020-10-06T12:48:52.922Z</time>
      </trkpt>
      <trkpt lat="56.93448" lon="24.13851">
        <ele>0.738027</ele>
        <time>2020-10-06T12:48:55.115Z</time>
      </trkpt>
      <trkpt lat="56.9345" lon="24.13869">
        <ele>0.709912</ele>
        <time>2020-10-06T12:48:57.324Z</time>
      </trkpt>
      <trkpt lat="56.93427" lon="24.13946">
        <ele>0.675554</ele>
        <time>2020-10-06T12:49:08.162Z</time>
      </trkpt>
      <trkpt lat="56.9342" lon="24.13952">
        <ele>0.67689</ele>
        <time>2020-10-06T12:49:09.945Z</time>
      </trkpt>
      <trkpt lat="56.93413" lon="24.13962">
        <ele>0.678274</ele>
        <time>2020-10-06T12:49:11.840Z</time>
      </trkpt>
      <trkpt lat="56.93294" lon="24.14416">
        <ele>0.630989</ele>
        <time>2020-10-06T12:50:13.275Z</time>
      </trkpt>
      <trkpt lat="56.9329" lon="24.14431">
        <ele>0.626447</ele>
        <time>2020-10-06T12:50:15.306Z</time>
      </trkpt>
      <trkpt lat="56.93287" lon="24.14441">
        <ele>0.623699</ele>
        <time>2020-10-06T12:50:16.647Z</time>
      </trkpt>
      <trkpt lat="56.93285" lon="24.14452">
        <ele>0.620587</ele>
        <time>2020-10-06T12:50:18.014Z</time>
      </trkpt>
      <trkpt lat="56.93236" lon="24.14631">
        <ele>0.598846</ele>
        <time>2020-10-06T12:50:41.866Z</time>
      </trkpt>
      <trkpt lat="56.93233" lon="24.14643">
        <ele>0.597707</ele>
        <time>2020-10-06T12:50:43.342Z</time>
      </trkpt>
      <trkpt lat="56.93229" lon="24.1466">
        <ele>0.596049</ele>
        <time>2020-10-06T12:50:45.661Z</time>
      </trkpt>
      <trkpt lat="56.93211" lon="24.14734">
        <ele>0.588791</ele>
        <time>2020-10-06T12:50:55.552Z</time>
      </trkpt>
      <trkpt lat="56.93167" lon="24.14863">
        <ele>0.849021</ele>
        <time>2020-10-06T12:51:14.761Z</time>
      </trkpt>
      <trkpt lat="56.93147" lon="24.14904">
        <ele>0.979263</ele>
        <time>2020-10-06T12:51:22.064Z</time>
      </trkpt>
      <trkpt lat="56.93133" lon="24.14931">
        <ele>1.065131</ele>
        <time>2020-10-06T12:51:26.928Z</time>
      </trkpt>
      <trkpt lat="56.93131" lon="24.14934">
        <ele>1.075737</ele>
        <time>2020-10-06T12:51:27.523Z</time>
      </trkpt>
      <trkpt lat="56.93125" lon="24.14947">
        <ele>1.115674</ele>
        <time>2020-10-06T12:51:29.823Z</time>
      </trkpt>
      <trkpt lat="56.93099" lon="24.14998">
        <ele>1.278418</ele>
        <time>2020-10-06T12:51:39.300Z</time>
      </trkpt>
      <trkpt lat="56.9307" lon="24.15054">
        <ele>1.494592</ele>
        <time>2020-10-06T12:51:49.816Z</time>
      </trkpt>
      <trkpt lat="56.93034" lon="24.15123">
        <ele>1.799675</ele>
        <time>2020-10-06T12:52:03.182Z</time>
      </trkpt>
      <trkpt lat="56.93004" lon="24.15177">
        <ele>2.044766</ele>
        <time>2020-10-06T12:52:13.528Z</time>
      </trkpt>
      <trkpt lat="56.93001" lon="24.15184">
        <ele>2.075502</ele>
        <time>2020-10-06T12:52:14.798Z</time>
      </trkpt>
      <trkpt lat="56.92934" lon="24.15309">
        <ele>2.392092</ele>
        <time>2020-10-06T12:52:37.621Z</time>
      </trkpt>
      <trkpt lat="56.92897" lon="24.15375">
        <ele>2.378035</ele>
        <time>2020-10-06T12:52:49.223Z</time>
      </trkpt>
      <trkpt lat="56.92827" lon="24.15504">
        <ele>2.333456</ele>
        <time>2020-10-06T12:53:10.419Z</time>
      </trkpt>
      <trkpt lat="56.92622" lon="24.15872">
        <ele>1.984015</ele>
        <time>2020-10-06T12:54:12.092Z</time>
      </trkpt>
      <trkpt lat="56.92616" lon="24.15885">
        <ele>1.982385</ele>
        <time>2020-10-06T12:54:14.215Z</time>
      </trkpt>
      <trkpt lat="56.92611" lon="24.15899">
        <ele>1.980815</ele>
        <time>2020-10-06T12:54:16.436Z</time>
      </trkpt>
      <trkpt lat="56.92529" lon="24.16065">
        <ele>2.372466</ele>
        <time>2020-10-06T12:54:45.276Z</time>
      </trkpt>
      <trkpt lat="56.92526" lon="24.16068">
        <ele>2.393689</ele>
        <time>2020-10-06T12:54:46.363Z</time>
      </trkpt>
      <trkpt lat="56.92453" lon="24.16222">
        <ele>2.936217</ele>
        <time>2020-10-06T12:55:13.968Z</time>
      </trkpt>
      <trkpt lat="56.92446" lon="24.16237">
        <ele>2.969991</ele>
        <time>2020-10-06T12:55:16.659Z</time>
      </trkpt>
      <trkpt lat="56.92408" lon="24.16317">
        <ele>3.143263</ele>
        <time>2020-10-06T12:55:35.016Z</time>
      </trkpt>
      <trkpt lat="56.92369" lon="24.164">
        <ele>3.322114</ele>
        <time>2020-10-06T12:55:53.284Z</time>
      </trkpt>
      <trkpt lat="56.92353" lon="24.16434">
        <ele>3.396815</ele>
        <time>2020-10-06T12:56:00.480Z</time>
      </trkpt>
      <trkpt lat="56.92357" lon="24.1644">
        <ele>3.412515</ele>
        <time>2020-10-06T12:56:01.602Z</time>
      </trkpt>
      <trkpt lat="56.92342" lon="24.16474">
        <ele>3.335446</ele>
        <time>2020-10-06T12:56:06.786Z</time>
      </trkpt>
      <trkpt lat="56.92314" lon="24.16533">
        <ele>3.052169</ele>
        <time>2020-10-06T12:56:15.392Z</time>
      </trkpt>
      <trkpt lat="56.9231" lon="24.16539">
        <ele>3.015053</ele>
        <time>2020-10-06T12:56:16.493Z</time>
      </trkpt>
      <trkpt lat="56.92305" lon="24.16543">
        <ele>2.98192</ele>
        <time>2020-10-06T12:56:17.466Z</time>
      </trkpt>
      <trkpt lat="56.923" lon="24.16546">
        <ele>2.944827</ele>
        <time>2020-10-06T12:56:18.539Z</time>
      </trkpt>
      <trkpt lat="56.92294" lon="24.16547">
        <ele>2.904426</ele>
        <time>2020-10-06T12:56:19.712Z</time>
      </trkpt>
      <trkpt lat="56.92217" lon="24.16545">
        <ele>2.386113</ele>
        <time>2020-10-06T12:56:34.864Z</time>
      </trkpt>
      <trkpt lat="56.9213" lon="24.16542">
        <ele>2.057532</ele>
        <time>2020-10-06T12:56:52.150Z</time>
      </trkpt>
      <trkpt lat="56.92114" lon="24.16536">
        <ele>2.011842</ele>
        <time>2020-10-06T12:56:55.573Z</time>
      </trkpt>
      <trkpt lat="56.92107" lon="24.16529">
        <ele>1.990255</ele>
        <time>2020-10-06T12:56:57.102Z</time>
      </trkpt>
      <trkpt lat="56.92097" lon="24.16516">
        <ele>1.95683</ele>
        <time>2020-10-06T12:56:59.673Z</time>
      </trkpt>
      <trkpt lat="56.91962" lon="24.16312">
        <ele>1.793597</ele>
        <time>2020-10-06T12:57:40.084Z</time>
      </trkpt>
      <trkpt lat="56.91858" lon="24.16133">
        <ele>2.015767</ele>
        <time>2020-10-06T12:58:11.463Z</time>
      </trkpt>
      <trkpt lat="56.91847" lon="24.16113">
        <ele>2.061377</ele>
        <time>2020-10-06T12:58:14.905Z</time>
      </trkpt>
      <trkpt lat="56.91795" lon="24.16194">
        <ele>2.259957</ele>
        <time>2020-10-06T12:58:30.600Z</time>
      </trkpt>
      <trkpt lat="56.91772" lon="24.1623">
        <ele>2.348245</ele>
        <time>2020-10-06T12:58:38.229Z</time>
      </trkpt>
      <trkpt lat="56.91739" lon="24.16283">
        <ele>2.776292</ele>
        <time>2020-10-06T12:58:50.476Z</time>
      </trkpt>
      <trkpt lat="56.91694" lon="24.16352">
        <ele>3.410209</ele>
        <time>2020-10-06T12:59:06.447Z</time>
      </trkpt>
      <trkpt lat="56.91683" lon="24.16369">
        <ele>3.566334</ele>
        <time>2020-10-06T12:59:10.403Z</time>
      </trkpt>
      <trkpt lat="56.91645" lon="24.16428">
        <ele>4.11339</ele>
        <time>2020-10-06T12:59:24.012Z</time>
      </trkpt>
      <trkpt lat="56.91621" lon="24.16463">
        <ele>4.37627</ele>
        <time>2020-10-06T12:59:31.956Z</time>
      </trkpt>
      <trkpt lat="56.91597" lon="24.16501">
        <ele>4.513935</ele>
        <time>2020-10-06T12:59:39.695Z</time>
      </trkpt>
      <trkpt lat="56.91503" lon="24.1665">
        <ele>5.058235</ele>
        <time>2020-10-06T13:00:09.158Z</time>
      </trkpt>
      <trkpt lat="56.91498" lon="24.16655">
        <ele>5.082962</ele>
        <time>2020-10-06T13:00:11.143Z</time>
      </trkpt>
      <trkpt lat="56.91497" lon="24.16652">
        <ele>5.093236</ele>
        <time>2020-10-06T13:00:12.745Z</time>
      </trkpt>
      <trkpt lat="56.9149" lon="24.16653">
        <ele>5.12092</ele>
        <time>2020-10-06T13:00:14.236Z</time>
      </trkpt>
      <trkpt lat="56.91359" lon="24.16907">
        <ele>5.719364</ele>
        <time>2020-10-06T13:00:59.119Z</time>
      </trkpt>
      <trkpt lat="56.91353" lon="24.16929">
        <ele>5.774204</ele>
        <time>2020-10-06T13:01:02.071Z</time>
      </trkpt>
      <trkpt lat="56.91353" lon="24.16949">
        <ele>5.817398</ele>
        <time>2020-10-06T13:01:05.065Z</time>
      </trkpt>
      <trkpt lat="56.91313" lon="24.16993">
        <ele>6.006577</ele>
        <time>2020-10-06T13:01:16.064Z</time>
      </trkpt>
      <trkpt lat="56.91268" lon="24.17074">
        <ele>6.264081</ele>
        <time>2020-10-06T13:01:31.801Z</time>
      </trkpt>
      <trkpt lat="56.91255" lon="24.17104">
        <ele>6.348554</ele>
        <time>2020-10-06T13:01:36.323Z</time>
      </trkpt>
      <trkpt lat="56.91243" lon="24.17136">
        <ele>6.414922</ele>
        <time>2020-10-06T13:01:41.886Z</time>
      </trkpt>
      <trkpt lat="56.91162" lon="24.17264">
        <ele>6.589246</ele>
        <time>2020-10-06T13:02:06.018Z</time>
      </trkpt>
      <trkpt lat="56.91081" lon="24.17379">
        <ele>6.646967</ele>
        <time>2020-10-06T13:02:29.662Z</time>
      </trkpt>
      <trkpt lat="56.9105" lon="24.17421">
        <ele>6.599681</ele>
        <time>2020-10-06T13:02:37.850Z</time>
      </trkpt>
      <trkpt lat="56.91037" lon="24.1744">
        <ele>6.578132</ele>
        <time>2020-10-06T13:02:41.566Z</time>
      </trkpt>
      <trkpt lat="56.91036" lon="24.17442">
        <ele>6.576289</ele>
        <time>2020-10-06T13:02:41.879Z</time>
      </trkpt>
      <trkpt lat="56.91031" lon="24.17449">
        <ele>6.568224</ele>
        <time>2020-10-06T13:02:43.167Z</time>
      </trkpt>
      <trkpt lat="56.90915" lon="24.17588">
        <ele>6.123802</ele>
        <time>2020-10-06T13:03:12.671Z</time>
      </trkpt>
      <trkpt lat="56.90915" lon="24.17589">
        <ele>6.119012</ele>
        <time>2020-10-06T13:03:12.837Z</time>
      </trkpt>
      <trkpt lat="56.90891" lon="24.17616">
        <ele>5.960463</ele>
        <time>2020-10-06T13:03:18.479Z</time>
      </trkpt>
      <trkpt lat="56.90806" lon="24.17746">
        <ele>5.254701</ele>
        <time>2020-10-06T13:03:40.585Z</time>
      </trkpt>
      <trkpt lat="56.9079" lon="24.1778">
        <ele>5.029165</ele>
        <time>2020-10-06T13:03:45.363Z</time>
      </trkpt>
      <trkpt lat="56.90728" lon="24.17913">
        <ele>4.159829</ele>
        <time>2020-10-06T13:04:03.431Z</time>
      </trkpt>
      <trkpt lat="56.90651" lon="24.18076">
        <ele>3.864416</ele>
        <time>2020-10-06T13:04:27.850Z</time>
      </trkpt>
      <trkpt lat="56.90639" lon="24.18104">
        <ele>3.884477</ele>
        <time>2020-10-06T13:04:32.477Z</time>
      </trkpt>
      <trkpt lat="56.906" lon="24.18189">
        <ele>3.946347</ele>
        <time>2020-10-06T13:04:46.823Z</time>
      </trkpt>
      <trkpt lat="56.90546" lon="24.18315">
        <ele>4.20138</ele>
        <time>2020-10-06T13:05:09.453Z</time>
      </trkpt>
      <trkpt lat="56.90495" lon="24.18441">
        <ele>4.505973</ele>
        <time>2020-10-06T13:05:29.361Z</time>
      </trkpt>
      <trkpt lat="56.90441" lon="24.18568">
        <ele>4.409563</ele>
        <time>2020-10-06T13:05:48.521Z</time>
      </trkpt>
      <trkpt lat="56.90436" lon="24.1858">
        <ele>4.380359</ele>
        <time>2020-10-06T13:05:50.198Z</time>
      </trkpt>
      <trkpt lat="56.90423" lon="24.18617">
        <ele>4.296996</ele>
        <time>2020-10-06T13:05:55.267Z</time>
      </trkpt>
      <trkpt lat="56.90413" lon="24.18645">
        <ele>4.231439</ele>
        <time>2020-10-06T13:05:59.086Z</time>
      </trkpt>
      <trkpt lat="56.90406" lon="24.18653">
        <ele>4.20163</ele>
        <time>2020-10-06T13:06:00.900Z</time>
      </trkpt>
      <trkpt lat="56.90391" lon="24.1868">
        <ele>4.127521</ele>
        <time>2020-10-06T13:06:05.081Z</time>
      </trkpt>
      <trkpt lat="56.90386" lon="24.18702">
        <ele>4.082696</ele>
        <time>2020-10-06T13:06:07.774Z</time>
      </trkpt>
      <trkpt lat="56.90204" lon="24.19102">
        <ele>3.381242</ele>
        <time>2020-10-06T13:07:06.978Z</time>
      </trkpt>
      <trkpt lat="56.90197" lon="24.19112">
        <ele>3.400192</ele>
        <time>2020-10-06T13:07:08.908Z</time>
      </trkpt>
      <trkpt lat="56.90205" lon="24.19133">
        <ele>3.428593</ele>
        <time>2020-10-06T13:07:14.371Z</time>
      </trkpt>
      <trkpt lat="56.9025" lon="24.19199">
        <ele>3.548361</ele>
        <time>2020-10-06T13:07:36.497Z</time>
      </trkpt>
      <trkpt lat="56.90256" lon="24.19224">
        <ele>3.58032</ele>
        <time>2020-10-06T13:07:43.067Z</time>
      </trkpt>
      <trkpt lat="56.90278" lon="24.19465">
        <ele>4.985885</ele>
        <time>2020-10-06T13:08:39.228Z</time>
      </trkpt>
      <trkpt lat="56.90283" lon="24.19495">
        <ele>5.174793</ele>
        <time>2020-10-06T13:08:46.564Z</time>
      </trkpt>
      <trkpt lat="56.90263" lon="24.19562">
        <ele>5.644637</ele>
        <time>2020-10-06T13:09:03.415Z</time>
      </trkpt>
      <trkpt lat="56.90252" lon="24.19579">
        <ele>5.830243</ele>
        <time>2020-10-06T13:09:08.941Z</time>
      </trkpt>
      <trkpt lat="56.90257" lon="24.19596">
        <ele>5.968522</ele>
        <time>2020-10-06T13:09:13.454Z</time>
      </trkpt>
      <trkpt lat="56.90263" lon="24.19606">
        <ele>6.073938</ele>
        <time>2020-10-06T13:09:16.846Z</time>
      </trkpt>
      <trkpt lat="56.9027" lon="24.19616">
        <ele>6.19106</ele>
        <time>2020-10-06T13:09:20.451Z</time>
      </trkpt>
      <trkpt lat="56.90263" lon="24.19638">
        <ele>6.371122</ele>
        <time>2020-10-06T13:09:24.088Z</time>
      </trkpt>
      <trkpt lat="56.90213" lon="24.19791">
        <ele>7.65444</ele>
        <time>2020-10-06T13:09:51.419Z</time>
      </trkpt>
      <trkpt lat="56.90197" lon="24.19836">
        <ele>8.055328</ele>
        <time>2020-10-06T13:10:00.004Z</time>
      </trkpt>
      <trkpt lat="56.9015" lon="24.19956">
        <ele>9.2378</ele>
        <time>2020-10-06T13:10:22.612Z</time>
      </trkpt>
      <trkpt lat="56.90114" lon="24.2004">
        <ele>10.091476</ele>
        <time>2020-10-06T13:10:39.485Z</time>
      </trkpt>
      <trkpt lat="56.90046" lon="24.20198">
        <ele>11.079044</ele>
        <time>2020-10-06T13:11:09.538Z</time>
      </trkpt>
      <trkpt lat="56.90028" lon="24.20244">
        <ele>11.277189</ele>
        <time>2020-10-06T13:11:17.307Z</time>
      </trkpt>
      <trkpt lat="56.89995" lon="24.20322">
        <ele>11.61786</ele>
        <time>2020-10-06T13:11:29.730Z</time>
      </trkpt>
      <trkpt lat="56.89981" lon="24.20354">
        <ele>11.734616</ele>
        <time>2020-10-06T13:11:34.624Z</time>
      </trkpt>
      <trkpt lat="56.89969" lon="24.20384">
        <ele>11.624513</ele>
        <time>2020-10-06T13:11:39.009Z</time>
      </trkpt>
      <trkpt lat="56.89857" lon="24.20649">
        <ele>10.641175</ele>
        <time>2020-10-06T13:12:15.766Z</time>
      </trkpt>
      <trkpt lat="56.89766" lon="24.20869">
        <ele>9.857436</ele>
        <time>2020-10-06T13:12:46.528Z</time>
      </trkpt>
      <trkpt lat="56.89666" lon="24.21105">
        <ele>9.796981</ele>
        <time>2020-10-06T13:13:23.396Z</time>
      </trkpt>
      <trkpt lat="56.8965" lon="24.21144">
        <ele>9.796346</ele>
        <time>2020-10-06T13:13:29.371Z</time>
      </trkpt>
      <trkpt lat="56.89569" lon="24.21336">
        <ele>9.89275</ele>
        <time>2020-10-06T13:13:58.698Z</time>
      </trkpt>
      <trkpt lat="56.89428" lon="24.21676">
        <ele>10.399468</ele>
        <time>2020-10-06T13:14:52.993Z</time>
      </trkpt>
      <trkpt lat="56.89388" lon="24.21774">
        <ele>10.532804</ele>
        <time>2020-10-06T13:15:08.679Z</time>
      </trkpt>
      <trkpt lat="56.89323" lon="24.21933">
        <ele>10.734076</ele>
        <time>2020-10-06T13:15:33.777Z</time>
      </trkpt>
      <trkpt lat="56.89254" lon="24.22085">
        <ele>10.740774</ele>
        <time>2020-10-06T13:15:57.589Z</time>
      </trkpt>
      <trkpt lat="56.89178" lon="24.22273">
        <ele>10.687298</ele>
        <time>2020-10-06T13:16:26.264Z</time>
      </trkpt>
      <trkpt lat="56.89161" lon="24.22311">
        <ele>10.663039</ele>
        <time>2020-10-06T13:16:32.122Z</time>
      </trkpt>
      <trkpt lat="56.89115" lon="24.22418">
        <ele>10.596061</ele>
        <time>2020-10-06T13:16:48.255Z</time>
      </trkpt>
      <trkpt lat="56.89067" lon="24.22533">
        <ele>10.530038</ele>
        <time>2020-10-06T13:17:05.522Z</time>
      </trkpt>
      <trkpt lat="56.89011" lon="24.22666">
        <ele>10.454649</ele>
        <time>2020-10-06T13:17:25.394Z</time>
      </trkpt>
      <trkpt lat="56.88969" lon="24.22769">
        <ele>10.619128</ele>
        <time>2020-10-06T13:17:41.045Z</time>
      </trkpt>
      <trkpt lat="56.88953" lon="24.22806">
        <ele>10.725467</ele>
        <time>2020-10-06T13:17:47.319Z</time>
      </trkpt>
      <trkpt lat="56.88915" lon="24.22896">
        <ele>10.975146</ele>
        <time>2020-10-06T13:18:02.535Z</time>
      </trkpt>
      <trkpt lat="56.88911" lon="24.22907">
        <ele>11.004222</ele>
        <time>2020-10-06T13:18:04.430Z</time>
      </trkpt>
      <trkpt lat="56.88891" lon="24.22952">
        <ele>11.131792</ele>
        <time>2020-10-06T13:18:12.249Z</time>
      </trkpt>
      <trkpt lat="56.88867" lon="24.23007">
        <ele>11.239402</ele>
        <time>2020-10-06T13:18:21.716Z</time>
      </trkpt>
      <trkpt lat="56.8886" lon="24.23024">
        <ele>11.270319</ele>
        <time>2020-10-06T13:18:24.812Z</time>
      </trkpt>
      <trkpt lat="56.88821" lon="24.23121">
        <ele>11.437861</ele>
        <time>2020-10-06T13:18:40.816Z</time>
      </trkpt>
      <trkpt lat="56.8872" lon="24.23359">
        <ele>11.15</ele>
        <time>2020-10-06T13:19:15.904Z</time>
      </trkpt>
      <trkpt lat="56.88675" lon="24.23469">
        <ele>10.771152</ele>
        <time>2020-10-06T13:19:30.583Z</time>
      </trkpt>
      <trkpt lat="56.88627" lon="24.23582">
        <ele>10.7227</ele>
        <time>2020-10-06T13:19:46.772Z</time>
      </trkpt>
      <trkpt lat="56.88617" lon="24.23607">
        <ele>10.725362</ele>
        <time>2020-10-06T13:19:50.484Z</time>
      </trkpt>
      <trkpt lat="56.88581" lon="24.2369">
        <ele>10.734267</ele>
        <time>2020-10-06T13:20:03.514Z</time>
      </trkpt>
      <trkpt lat="56.88514" lon="24.23849">
        <ele>11.328362</ele>
        <time>2020-10-06T13:20:32.523Z</time>
      </trkpt>
      <trkpt lat="56.88376" lon="24.24177">
        <ele>12.607099</ele>
        <time>2020-10-06T13:21:29.749Z</time>
      </trkpt>
      <trkpt lat="56.88341" lon="24.24262">
        <ele>12.801897</ele>
        <time>2020-10-06T13:21:42.003Z</time>
      </trkpt>
      <trkpt lat="56.88304" lon="24.24351">
        <ele>12.535242</ele>
        <time>2020-10-06T13:21:54.517Z</time>
      </trkpt>
      <trkpt lat="56.8827" lon="24.24432">
        <ele>12.260119</ele>
        <time>2020-10-06T13:22:05.561Z</time>
      </trkpt>
      <trkpt lat="56.88233" lon="24.24522">
        <ele>11.957624</ele>
        <time>2020-10-06T13:22:18.263Z</time>
      </trkpt>
      <trkpt lat="56.88199" lon="24.24598">
        <ele>11.858751</ele>
        <time>2020-10-06T13:22:30.356Z</time>
      </trkpt>
      <trkpt lat="56.88" lon="24.25071">
        <ele>11.395511</ele>
        <time>2020-10-06T13:23:40.885Z</time>
      </trkpt>
      <trkpt lat="56.87937" lon="24.2522">
        <ele>11.458047</ele>
        <time>2020-10-06T13:24:04.576Z</time>
      </trkpt>
      <trkpt lat="56.87847" lon="24.25434">
        <ele>11.490464</ele>
        <time>2020-10-06T13:24:37.527Z</time>
      </trkpt>
      <trkpt lat="56.87829" lon="24.25477">
        <ele>11.488701</ele>
        <time>2020-10-06T13:24:43.915Z</time>
      </trkpt>
      <trkpt lat="56.87817" lon="24.25506">
        <ele>11.48753</ele>
        <time>2020-10-06T13:24:48.245Z</time>
      </trkpt>
      <trkpt lat="56.87803" lon="24.2552">
        <ele>11.48655</ele>
        <time>2020-10-06T13:24:51.987Z</time>
      </trkpt>
      <trkpt lat="56.87794" lon="24.25541">
        <ele>11.485655</ele>
        <time>2020-10-06T13:24:55.386Z</time>
      </trkpt>
      <trkpt lat="56.87772" lon="24.25554">
        <ele>11.505313</ele>
        <time>2020-10-06T13:25:00.509Z</time>
      </trkpt>
      <trkpt lat="56.87759" lon="24.25563">
        <ele>11.538604</ele>
        <time>2020-10-06T13:25:03.646Z</time>
      </trkpt>
      <trkpt lat="56.87764" lon="24.25572">
        <ele>11.554934</ele>
        <time>2020-10-06T13:25:05.233Z</time>
      </trkpt>
      <trkpt lat="56.87767" lon="24.25609">
        <ele>11.60427</ele>
        <time>2020-10-06T13:25:09.867Z</time>
      </trkpt>
      <trkpt lat="56.87755" lon="24.25638">
        <ele>11.652397</ele>
        <time>2020-10-06T13:25:14.396Z</time>
      </trkpt>
      <trkpt lat="56.87748" lon="24.2567">
        <ele>11.697153</ele>
        <time>2020-10-06T13:25:18.600Z</time>
      </trkpt>
      <trkpt lat="56.8772" lon="24.25736">
        <ele>11.80785</ele>
        <time>2020-10-06T13:25:29.287Z</time>
      </trkpt>
      <trkpt lat="56.87653" lon="24.25897">
        <ele>12.099262</ele>
        <time>2020-10-06T13:25:56.004Z</time>
      </trkpt>
      <trkpt lat="56.87637" lon="24.25934">
        <ele>12.169544</ele>
        <time>2020-10-06T13:26:01.983Z</time>
      </trkpt>
      <trkpt lat="56.87568" lon="24.26097">
        <ele>12.391783</ele>
        <time>2020-10-06T13:26:27.911Z</time>
      </trkpt>
      <trkpt lat="56.87199" lon="24.26976">
        <ele>11.797465</ele>
        <time>2020-10-06T13:28:39.596Z</time>
      </trkpt>
      <trkpt lat="56.87189" lon="24.27001">
        <ele>11.809786</ele>
        <time>2020-10-06T13:28:43.406Z</time>
      </trkpt>
      <trkpt lat="56.87114" lon="24.27178">
        <ele>12.041663</ele>
        <time>2020-10-06T13:29:12.432Z</time>
      </trkpt>
      <trkpt lat="56.87098" lon="24.2721">
        <ele>12.129554</ele>
        <time>2020-10-06T13:29:18.185Z</time>
      </trkpt>
      <trkpt lat="56.87027" lon="24.27382">
        <ele>12.542947</ele>
        <time>2020-10-06T13:29:45.970Z</time>
      </trkpt>
      <trkpt lat="56.87019" lon="24.27404">
        <ele>12.566903</ele>
        <time>2020-10-06T13:29:49.754Z</time>
      </trkpt>
      <trkpt lat="56.87008" lon="24.27389">
        <ele>12.589514</ele>
        <time>2020-10-06T13:29:52.995Z</time>
      </trkpt>
      <trkpt lat="56.86995" lon="24.27373">
        <ele>12.614967</ele>
        <time>2020-10-06T13:29:56.586Z</time>
      </trkpt>
      <trkpt lat="56.86988" lon="24.27388">
        <ele>12.63334</ele>
        <time>2020-10-06T13:29:59.316Z</time>
      </trkpt>
      <trkpt lat="56.86944" lon="24.27513">
        <ele>12.764883</ele>
        <time>2020-10-06T13:30:17.360Z</time>
      </trkpt>
      <trkpt lat="56.86897" lon="24.27638">
        <ele>12.994853</ele>
        <time>2020-10-06T13:30:35.943Z</time>
      </trkpt>
      <trkpt lat="56.86836" lon="24.27764">
        <ele>13.320341</ele>
        <time>2020-10-06T13:30:58.178Z</time>
      </trkpt>
      <trkpt lat="56.86814" lon="24.27792">
        <ele>13.416919</ele>
        <time>2020-10-06T13:31:04.807Z</time>
      </trkpt>
      <trkpt lat="56.86784" lon="24.27825">
        <ele>13.582217</ele>
        <time>2020-10-06T13:31:13.332Z</time>
      </trkpt>
      <trkpt lat="56.86664" lon="24.2797">
        <ele>14.342108</ele>
        <time>2020-10-06T13:31:48.547Z</time>
      </trkpt>
      <trkpt lat="56.86515" lon="24.28129">
        <ele>14.825426</ele>
        <time>2020-10-06T13:32:29.656Z</time>
      </trkpt>
      <trkpt lat="56.86428" lon="24.28185">
        <ele>14.436088</ele>
        <time>2020-10-06T13:32:49.574Z</time>
      </trkpt>
      <trkpt lat="56.86382" lon="24.28212">
        <ele>14.146322</ele>
        <time>2020-10-06T13:32:59.257Z</time>
      </trkpt>
      <trkpt lat="56.8636" lon="24.28229">
        <ele>14.000477</ele>
        <time>2020-10-06T13:33:04.101Z</time>
      </trkpt>
      <trkpt lat="56.86335" lon="24.28258">
        <ele>13.820184</ele>
        <time>2020-10-06T13:33:09.755Z</time>
      </trkpt>
      <trkpt lat="56.86318" lon="24.28275">
        <ele>13.596194</ele>
        <time>2020-10-06T13:33:13.204Z</time>
      </trkpt>
      <trkpt lat="56.86286" lon="24.28312">
        <ele>13.050517</ele>
        <time>2020-10-06T13:33:20.165Z</time>
      </trkpt>
      <trkpt lat="56.86249" lon="24.28356">
        <ele>12.426878</ele>
        <time>2020-10-06T13:33:28.048Z</time>
      </trkpt>
      <trkpt lat="56.86204" lon="24.28419">
        <ele>11.623001</ele>
        <time>2020-10-06T13:33:38.477Z</time>
      </trkpt>
      <trkpt lat="56.86148" lon="24.28507">
        <ele>10.958145</ele>
        <time>2020-10-06T13:33:52.563Z</time>
      </trkpt>
      <trkpt lat="56.86125" lon="24.28551">
        <ele>10.759321</ele>
        <time>2020-10-06T13:33:58.903Z</time>
      </trkpt>
      <trkpt lat="56.86105" lon="24.28607">
        <ele>10.543183</ele>
        <time>2020-10-06T13:34:06.172Z</time>
      </trkpt>
      <trkpt lat="56.86045" lon="24.2878">
        <ele>10.42965</ele>
        <time>2020-10-06T13:34:32.168Z</time>
      </trkpt>
      <trkpt lat="56.86019" lon="24.28857">
        <ele>10.698157</ele>
        <time>2020-10-06T13:34:44.510Z</time>
      </trkpt>
      <trkpt lat="56.86011" lon="24.28889">
        <ele>10.806493</ele>
        <time>2020-10-06T13:34:49.293Z</time>
      </trkpt>
      <trkpt lat="56.86004" lon="24.28922">
        <ele>10.913349</ele>
        <time>2020-10-06T13:34:54.280Z</time>
      </trkpt>
      <trkpt lat="56.85997" lon="24.28966">
        <ele>11.051894</ele>
        <time>2020-10-06T13:35:00.551Z</time>
      </trkpt>
      <trkpt lat="56.8599" lon="24.29017">
        <ele>11.178894</ele>
        <time>2020-10-06T13:35:07.689Z</time>
      </trkpt>
      <trkpt lat="56.85989" lon="24.29049">
        <ele>11.223871</ele>
        <time>2020-10-06T13:35:12.203Z</time>
      </trkpt>
      <trkpt lat="56.8599" lon="24.29119">
        <ele>11.322862</ele>
        <time>2020-10-06T13:35:21.573Z</time>
      </trkpt>
      <trkpt lat="56.85991" lon="24.29175">
        <ele>11.403162</ele>
        <time>2020-10-06T13:35:28.812Z</time>
      </trkpt>
      <trkpt lat="56.85988" lon="24.2924">
        <ele>11.495307</ele>
        <time>2020-10-06T13:35:36.824Z</time>
      </trkpt>
      <trkpt lat="56.85986" lon="24.29291">
        <ele>11.56868</ele>
        <time>2020-10-06T13:35:43.069Z</time>
      </trkpt>
      <trkpt lat="56.85982" lon="24.29341">
        <ele>11.653135</ele>
        <time>2020-10-06T13:35:48.976Z</time>
      </trkpt>
      <trkpt lat="56.85977" lon="24.29375">
        <ele>11.734616</ele>
        <time>2020-10-06T13:35:53.149Z</time>
      </trkpt>
      <trkpt lat="56.85971" lon="24.29417">
        <ele>11.837284</ele>
        <time>2020-10-06T13:35:58.290Z</time>
      </trkpt>
      <trkpt lat="56.85963" lon="24.29456">
        <ele>11.932723</ele>
        <time>2020-10-06T13:36:03.303Z</time>
      </trkpt>
      <trkpt lat="56.8596" lon="24.29471">
        <ele>11.972094</ele>
        <time>2020-10-06T13:36:05.322Z</time>
      </trkpt>
      <trkpt lat="56.85952" lon="24.29522">
        <ele>12.095659</ele>
        <time>2020-10-06T13:36:12.121Z</time>
      </trkpt>
      <trkpt lat="56.85948" lon="24.29545">
        <ele>12.152279</ele>
        <time>2020-10-06T13:36:15.247Z</time>
      </trkpt>
      <trkpt lat="56.85943" lon="24.29575">
        <ele>12.224976</ele>
        <time>2020-10-06T13:36:19.649Z</time>
      </trkpt>
      <trkpt lat="56.85941" lon="24.29596">
        <ele>12.274184</ele>
        <time>2020-10-06T13:36:22.577Z</time>
      </trkpt>
      <trkpt lat="56.85941" lon="24.29614">
        <ele>12.316298</ele>
        <time>2020-10-06T13:36:25.084Z</time>
      </trkpt>
      <trkpt lat="56.85945" lon="24.29639">
        <ele>12.378599</ele>
        <time>2020-10-06T13:36:29.185Z</time>
      </trkpt>
      <trkpt lat="56.85949" lon="24.29679">
        <ele>12.744738</ele>
        <time>2020-10-06T13:36:35.217Z</time>
      </trkpt>
      <trkpt lat="56.85952" lon="24.29709">
        <ele>13.04537</ele>
        <time>2020-10-06T13:36:40.231Z</time>
      </trkpt>
      <trkpt lat="56.85996" lon="24.30112">
        <ele>16.185244</ele>
        <time>2020-10-06T13:37:47.991Z</time>
      </trkpt>
      <trkpt lat="56.86004" lon="24.30175">
        <ele>16.439862</ele>
        <time>2020-10-06T13:37:56.698Z</time>
      </trkpt>
      <trkpt lat="56.86023" lon="24.30265">
        <ele>16.818204</ele>
        <time>2020-10-06T13:38:07.825Z</time>
      </trkpt>
      <trkpt lat="56.86065" lon="24.30346">
        <ele>16.11717</ele>
        <time>2020-10-06T13:38:19.321Z</time>
      </trkpt>
      <trkpt lat="56.86042" lon="24.3045">
        <ele>15.177941</ele>
        <time>2020-10-06T13:38:30.242Z</time>
      </trkpt>
      <trkpt lat="56.86" lon="24.30616">
        <ele>13.707633</ele>
        <time>2020-10-06T13:38:48.073Z</time>
      </trkpt>
      <trkpt lat="56.85916" lon="24.30947">
        <ele>11.375218</ele>
        <time>2020-10-06T13:39:25.929Z</time>
      </trkpt>
      <trkpt lat="56.85889" lon="24.31049">
        <ele>10.930996</ele>
        <time>2020-10-06T13:39:38.651Z</time>
      </trkpt>
      <trkpt lat="56.85865" lon="24.31135">
        <ele>10.55505</ele>
        <time>2020-10-06T13:39:49.531Z</time>
      </trkpt>
      <trkpt lat="56.85831" lon="24.31265">
        <ele>10.365287</ele>
        <time>2020-10-06T13:40:06.130Z</time>
      </trkpt>
      <trkpt lat="56.85761" lon="24.31541">
        <ele>10.203203</ele>
        <time>2020-10-06T13:40:42.885Z</time>
      </trkpt>
      <trkpt lat="56.85701" lon="24.31775">
        <ele>10.241344</ele>
        <time>2020-10-06T13:41:14.620Z</time>
      </trkpt>
      <trkpt lat="56.85697" lon="24.31793">
        <ele>10.266078</ele>
        <time>2020-10-06T13:41:17.045Z</time>
      </trkpt>
      <trkpt lat="56.85649" lon="24.31971">
        <ele>10.514653</ele>
        <time>2020-10-06T13:41:41.374Z</time>
      </trkpt>
      <trkpt lat="56.85619" lon="24.32075">
        <ele>10.854021</ele>
        <time>2020-10-06T13:41:57.138Z</time>
      </trkpt>
      <trkpt lat="56.85616" lon="24.32082">
        <ele>10.918671</ele>
        <time>2020-10-06T13:41:58.188Z</time>
      </trkpt>
      <trkpt lat="56.85586" lon="24.32177">
        <ele>11.745782</ele>
        <time>2020-10-06T13:42:14.319Z</time>
      </trkpt>
      <trkpt lat="56.85514" lon="24.32396">
        <ele>13.710781</ele>
        <time>2020-10-06T13:42:56.000Z</time>
      </trkpt>
      <trkpt lat="56.85411" lon="24.32705">
        <ele>16.011236</ele>
        <time>2020-10-06T13:43:50.863Z</time>
      </trkpt>
      <trkpt lat="56.8539" lon="24.3277">
        <ele>16.187024</ele>
        <time>2020-10-06T13:44:00.531Z</time>
      </trkpt>
      <trkpt lat="56.85372" lon="24.32824">
        <ele>16.330666</ele>
        <time>2020-10-06T13:44:08.129Z</time>
      </trkpt>
      <trkpt lat="56.85325" lon="24.32968">
        <ele>16.335111</ele>
        <time>2020-10-06T13:44:27.411Z</time>
      </trkpt>
      <trkpt lat="56.85265" lon="24.3315">
        <ele>15.8751</ele>
        <time>2020-10-06T13:44:51.203Z</time>
      </trkpt>
      <trkpt lat="56.8526" lon="24.33165">
        <ele>15.838422</ele>
        <time>2020-10-06T13:44:53.212Z</time>
      </trkpt>
      <trkpt lat="56.85195" lon="24.3337">
        <ele>15.782425</ele>
        <time>2020-10-06T13:45:22.634Z</time>
      </trkpt>
      <trkpt lat="56.85171" lon="24.33452">
        <ele>15.770742</ele>
        <time>2020-10-06T13:45:34.028Z</time>
      </trkpt>
      <trkpt lat="56.8515" lon="24.33525">
        <ele>15.765933</ele>
        <time>2020-10-06T13:45:43.911Z</time>
      </trkpt>
      <trkpt lat="56.85139" lon="24.33557">
        <ele>15.764141</ele>
        <time>2020-10-06T13:45:48.555Z</time>
      </trkpt>
      <trkpt lat="56.85128" lon="24.33596">
        <ele>15.762079</ele>
        <time>2020-10-06T13:45:53.892Z</time>
      </trkpt>
      <trkpt lat="56.85086" lon="24.33756">
        <ele>15.752543</ele>
        <time>2020-10-06T13:46:15.814Z</time>
      </trkpt>
      <trkpt lat="56.85043" lon="24.33917">
        <ele>15.614768</ele>
        <time>2020-10-06T13:46:37.162Z</time>
      </trkpt>
      <trkpt lat="56.84988" lon="24.34146">
        <ele>15.009862</ele>
        <time>2020-10-06T13:47:06.451Z</time>
      </trkpt>
      <trkpt lat="56.84979" lon="24.34187">
        <ele>14.796506</ele>
        <time>2020-10-06T13:47:11.276Z</time>
      </trkpt>
      <trkpt lat="56.84953" lon="24.34303">
        <ele>14.186734</ele>
        <time>2020-10-06T13:47:24.422Z</time>
      </trkpt>
      <trkpt lat="56.84879" lon="24.34665">
        <ele>11.544071</ele>
        <time>2020-10-06T13:48:03.439Z</time>
      </trkpt>
      <trkpt lat="56.84813" lon="24.35023">
        <ele>10.696822</ele>
        <time>2020-10-06T13:48:46.711Z</time>
      </trkpt>
      <trkpt lat="56.84732" lon="24.35566">
        <ele>11.160543</ele>
        <time>2020-10-06T13:49:58.193Z</time>
      </trkpt>
      <trkpt lat="56.84678" lon="24.36088">
        <ele>11.546679</ele>
        <time>2020-10-06T13:51:04.330Z</time>
      </trkpt>
      <trkpt lat="56.84671" lon="24.36175">
        <ele>11.622744</ele>
        <time>2020-10-06T13:51:15.273Z</time>
      </trkpt>
      <trkpt lat="56.84659" lon="24.36321">
        <ele>11.878197</ele>
        <time>2020-10-06T13:51:33.891Z</time>
      </trkpt>
      <trkpt lat="56.84638" lon="24.36642">
        <ele>12.968824</ele>
        <time>2020-10-06T13:52:17.416Z</time>
      </trkpt>
      <trkpt lat="56.84621" lon="24.37163">
        <ele>15.813952</ele>
        <time>2020-10-06T13:53:34.016Z</time>
      </trkpt>
      <trkpt lat="56.84598" lon="24.38213">
        <ele>19.736757</ele>
        <time>2020-10-06T13:55:56.537Z</time>
      </trkpt>
      <trkpt lat="56.84599" lon="24.38591">
        <ele>21.990369</ele>
        <time>2020-10-06T13:56:52.427Z</time>
      </trkpt>
      <trkpt lat="56.84604" lon="24.38768">
        <ele>23.013777</ele>
        <time>2020-10-06T13:57:18.897Z</time>
      </trkpt>
      <trkpt lat="56.84605" lon="24.38894">
        <ele>23.707331</ele>
        <time>2020-10-06T13:57:37.192Z</time>
      </trkpt>
      <trkpt lat="56.8462" lon="24.39588">
        <ele>24.216731</ele>
        <time>2020-10-06T13:59:05.429Z</time>
      </trkpt>
      <trkpt lat="56.84627" lon="24.39872">
        <ele>22.304456</ele>
        <time>2020-10-06T13:59:33.678Z</time>
      </trkpt>
      <trkpt lat="56.84632" lon="24.40066">
        <ele>21.008929</ele>
        <time>2020-10-06T13:59:53.216Z</time>
      </trkpt>
      <trkpt lat="56.84646" lon="24.40615">
        <ele>18.938044</ele>
        <time>2020-10-06T14:00:53.803Z</time>
      </trkpt>
      <trkpt lat="56.84656" lon="24.41227">
        <ele>19.365082</ele>
        <time>2020-10-06T14:02:11.245Z</time>
      </trkpt>
      <trkpt lat="56.84669" lon="24.41748">
        <ele>20.859228</ele>
        <time>2020-10-06T14:03:19.545Z</time>
      </trkpt>
      <trkpt lat="56.84677" lon="24.42149">
        <ele>22.78355</ele>
        <time>2020-10-06T14:04:20.013Z</time>
      </trkpt>
      <trkpt lat="56.84679" lon="24.42256">
        <ele>22.278454</ele>
        <time>2020-10-06T14:04:31.675Z</time>
      </trkpt>
      <trkpt lat="56.8463" lon="24.42251">
        <ele>21.621192</ele>
        <time>2020-10-06T14:04:40.715Z</time>
      </trkpt>
      <trkpt lat="56.84564" lon="24.42243">
        <ele>20.735039</ele>
        <time>2020-10-06T14:04:52.541Z</time>
      </trkpt>
      <trkpt lat="56.84556" lon="24.42242">
        <ele>20.627275</ele>
        <time>2020-10-06T14:04:53.925Z</time>
      </trkpt>
      <trkpt lat="56.84539" lon="24.42243">
        <ele>20.409638</ele>
        <time>2020-10-06T14:04:56.848Z</time>
      </trkpt>
      <trkpt lat="56.84513" lon="24.42249">
        <ele>20.090803</ele>
        <time>2020-10-06T14:05:01.418Z</time>
      </trkpt>
      <trkpt lat="56.84471" lon="24.42279">
        <ele>19.559414</ele>
        <time>2020-10-06T14:05:09.115Z</time>
      </trkpt>
      <trkpt lat="56.84438" lon="24.4232">
        <ele>19.084775</ele>
        <time>2020-10-06T14:05:16.481Z</time>
      </trkpt>
      <trkpt lat="56.8435" lon="24.42482">
        <ele>18.688954</ele>
        <time>2020-10-06T14:05:45.374Z</time>
      </trkpt>
      <trkpt lat="56.84299" lon="24.42599">
        <ele>19.140683</ele>
        <time>2020-10-06T14:06:05.900Z</time>
      </trkpt>
      <trkpt lat="56.84288" lon="24.42632">
        <ele>19.257537</ele>
        <time>2020-10-06T14:06:11.084Z</time>
      </trkpt>
      <trkpt lat="56.84274" lon="24.42692">
        <ele>19.64264</ele>
        <time>2020-10-06T14:06:20.338Z</time>
      </trkpt>
      <trkpt lat="56.84264" lon="24.42743">
        <ele>20.067908</ele>
        <time>2020-10-06T14:06:28.585Z</time>
      </trkpt>
      <trkpt lat="56.84263" lon="24.42751">
        <ele>20.135349</ele>
        <time>2020-10-06T14:06:29.792Z</time>
      </trkpt>
      <trkpt lat="56.84258" lon="24.42786">
        <ele>20.412256</ele>
        <time>2020-10-06T14:06:35.466Z</time>
      </trkpt>
      <trkpt lat="56.8426" lon="24.4281">
        <ele>20.60514</ele>
        <time>2020-10-06T14:06:39.091Z</time>
      </trkpt>
      <trkpt lat="56.84263" lon="24.4282">
        <ele>20.695164</ele>
        <time>2020-10-06T14:06:40.753Z</time>
      </trkpt>
      <trkpt lat="56.8427" lon="24.42831">
        <ele>20.828864</ele>
        <time>2020-10-06T14:06:43.694Z</time>
      </trkpt>
      <trkpt lat="56.84319" lon="24.42824">
        <ele>21.531092</ele>
        <time>2020-10-06T14:06:57.856Z</time>
      </trkpt>
      <trkpt lat="56.84336" lon="24.42834">
        <ele>21.79065</ele>
        <time>2020-10-06T14:07:02.957Z</time>
      </trkpt>
      <trkpt lat="56.84345" lon="24.42853">
        <ele>21.993041</ele>
        <time>2020-10-06T14:07:07.131Z</time>
      </trkpt>
      <trkpt lat="56.8436" lon="24.42902">
        <ele>22.476618</ele>
        <time>2020-10-06T14:07:15.966Z</time>
      </trkpt>
      <trkpt lat="56.84398" lon="24.43028">
        <ele>23.728934</ele>
        <time>2020-10-06T14:07:38.738Z</time>
      </trkpt>
      <trkpt lat="56.84404" lon="24.43045">
        <ele>23.897004</ele>
        <time>2020-10-06T14:07:41.691Z</time>
      </trkpt>
      <trkpt lat="56.84455" lon="24.43228">
        <ele>25.475702</ele>
        <time>2020-10-06T14:08:13.259Z</time>
      </trkpt>
      <trkpt lat="56.845" lon="24.43393">
        <ele>26.723934</ele>
        <time>2020-10-06T14:08:40.839Z</time>
      </trkpt>
      <trkpt lat="56.84502" lon="24.43401">
        <ele>26.783344</ele>
        <time>2020-10-06T14:08:42.074Z</time>
      </trkpt>
      <trkpt lat="56.84507" lon="24.43419">
        <ele>26.919566</ele>
        <time>2020-10-06T14:08:44.920Z</time>
      </trkpt>
      <trkpt lat="56.8453" lon="24.43512">
        <ele>27.087818</ele>
        <time>2020-10-06T14:08:59.516Z</time>
      </trkpt>
      <trkpt lat="56.84561" lon="24.43619">
        <ele>27.217801</ele>
        <time>2020-10-06T14:09:15.072Z</time>
      </trkpt>
      <trkpt lat="56.84563" lon="24.43628">
        <ele>27.228584</ele>
        <time>2020-10-06T14:09:16.442Z</time>
      </trkpt>
      <trkpt lat="56.84573" lon="24.43658">
        <ele>27.266134</ele>
        <time>2020-10-06T14:09:20.647Z</time>
      </trkpt>
      <trkpt lat="56.84591" lon="24.43721">
        <ele>27.336477</ele>
        <time>2020-10-06T14:09:28.879Z</time>
      </trkpt>
      <trkpt lat="56.84596" lon="24.43746">
        <ele>27.092121</ele>
        <time>2020-10-06T14:09:31.788Z</time>
      </trkpt>
      <trkpt lat="56.846" lon="24.43784">
        <ele>26.724967</ele>
        <time>2020-10-06T14:09:35.767Z</time>
      </trkpt>
      <trkpt lat="56.846" lon="24.4381">
        <ele>26.487144</ele>
        <time>2020-10-06T14:09:38.354Z</time>
      </trkpt>
      <trkpt lat="56.84606" lon="24.43923">
        <ele>25.422149</ele>
        <time>2020-10-06T14:09:49.302Z</time>
      </trkpt>
      <trkpt lat="56.84601" lon="24.4402">
        <ele>24.51693</ele>
        <time>2020-10-06T14:09:58.489Z</time>
      </trkpt>
      <trkpt lat="56.84596" lon="24.44064">
        <ele>24.097649</ele>
        <time>2020-10-06T14:10:02.791Z</time>
      </trkpt>
      <trkpt lat="56.84589" lon="24.44133">
        <ele>23.447484</ele>
        <time>2020-10-06T14:10:09.621Z</time>
      </trkpt>
      <trkpt lat="56.84578" lon="24.44194">
        <ele>22.859193</ele>
        <time>2020-10-06T14:10:15.793Z</time>
      </trkpt>
      <trkpt lat="56.84569" lon="24.44228">
        <ele>22.509616</ele>
        <time>2020-10-06T14:10:19.449Z</time>
      </trkpt>
      <trkpt lat="56.84522" lon="24.44357">
        <ele>21.20536</ele>
        <time>2020-10-06T14:10:35.164Z</time>
      </trkpt>
      <trkpt lat="56.84508" lon="24.44411">
        <ele>21.109768</ele>
        <time>2020-10-06T14:10:41.763Z</time>
      </trkpt>
      <trkpt lat="56.84502" lon="24.44468">
        <ele>21.018265</ele>
        <time>2020-10-06T14:10:48.448Z</time>
      </trkpt>
      <trkpt lat="56.84503" lon="24.44656">
        <ele>20.716766</ele>
        <time>2020-10-06T14:11:11.721Z</time>
      </trkpt>
      <trkpt lat="56.84506" lon="24.44712">
        <ele>20.722042</ele>
        <time>2020-10-06T14:11:18.728Z</time>
      </trkpt>
      <trkpt lat="56.84514" lon="24.44857">
        <ele>20.765473</ele>
        <time>2020-10-06T14:11:37.035Z</time>
      </trkpt>
      <trkpt lat="56.84511" lon="24.45292">
        <ele>20.388822</ele>
        <time>2020-10-06T14:12:28.981Z</time>
      </trkpt>
      <trkpt lat="56.84506" lon="24.45292">
        <ele>20.374702</ele>
        <time>2020-10-06T14:12:30.985Z</time>
      </trkpt>
      <trkpt lat="56.84404" lon="24.45263">
        <ele>19.431585</ele>
        <time>2020-10-06T14:13:06.410Z</time>
      </trkpt>
      <trkpt lat="56.84393" lon="24.45269">
        <ele>19.319046</ele>
        <time>2020-10-06T14:13:10.292Z</time>
      </trkpt>
      <trkpt lat="56.8437" lon="24.45278">
        <ele>19.091408</ele>
        <time>2020-10-06T14:13:14.714Z</time>
      </trkpt>
      <trkpt lat="56.84351" lon="24.45303">
        <ele>18.862486</ele>
        <time>2020-10-06T14:13:19.140Z</time>
      </trkpt>
      <trkpt lat="56.84229" lon="24.45791">
        <ele>14.749418</ele>
        <time>2020-10-06T14:14:12.749Z</time>
      </trkpt>
      <trkpt lat="56.84189" lon="24.45926">
        <ele>13.7407</ele>
        <time>2020-10-06T14:14:29.173Z</time>
      </trkpt>
      <trkpt lat="56.84165" lon="24.46006">
        <ele>13.492952</ele>
        <time>2020-10-06T14:14:39.239Z</time>
      </trkpt>
      <trkpt lat="56.84116" lon="24.46183">
        <ele>13.131485</ele>
        <time>2020-10-06T14:15:02.411Z</time>
      </trkpt>
      <trkpt lat="56.84087" lon="24.4629">
        <ele>13.021275</ele>
        <time>2020-10-06T14:15:16.938Z</time>
      </trkpt>
      <trkpt lat="56.84035" lon="24.46417">
        <ele>13.008573</ele>
        <time>2020-10-06T14:15:36.387Z</time>
      </trkpt>
      <trkpt lat="56.83926" lon="24.46649">
        <ele>13.052799</ele>
        <time>2020-10-06T14:16:13.735Z</time>
      </trkpt>
      <trkpt lat="56.838" lon="24.46846">
        <ele>13.17997</ele>
        <time>2020-10-06T14:16:51.081Z</time>
      </trkpt>
      <trkpt lat="56.83493" lon="24.47312">
        <ele>13.471242</ele>
        <time>2020-10-06T14:18:21.723Z</time>
      </trkpt>
      <trkpt lat="56.83364" lon="24.47508">
        <ele>13.532799</ele>
        <time>2020-10-06T14:18:58.837Z</time>
      </trkpt>
      <trkpt lat="56.83265" lon="24.47658">
        <ele>13.725241</ele>
        <time>2020-10-06T14:19:27.956Z</time>
      </trkpt>
      <trkpt lat="56.83052" lon="24.48123">
        <ele>14.821722</ele>
        <time>2020-10-06T14:20:46.856Z</time>
      </trkpt>
      <trkpt lat="56.82928" lon="24.48493">
        <ele>15.653719</ele>
        <time>2020-10-06T14:21:43.517Z</time>
      </trkpt>
      <trkpt lat="56.82876" lon="24.48576">
        <ele>15.844241</ele>
        <time>2020-10-06T14:21:59.477Z</time>
      </trkpt>
      <trkpt lat="56.82788" lon="24.48687">
        <ele>15.794109</ele>
        <time>2020-10-06T14:22:23.133Z</time>
      </trkpt>
      <trkpt lat="56.82725" lon="24.4877">
        <ele>15.728286</ele>
        <time>2020-10-06T14:22:40.012Z</time>
      </trkpt>
      <trkpt lat="56.82646" lon="24.48872">
        <ele>15.618724</ele>
        <time>2020-10-06T14:23:01.216Z</time>
      </trkpt>
      <trkpt lat="56.82548" lon="24.49">
        <ele>15.487052</ele>
        <time>2020-10-06T14:23:27.555Z</time>
      </trkpt>
      <trkpt lat="56.82509" lon="24.49067">
        <ele>15.437906</ele>
        <time>2020-10-06T14:23:39.003Z</time>
      </trkpt>
      <trkpt lat="56.82471" lon="24.49129">
        <ele>15.390167</ele>
        <time>2020-10-06T14:23:50.352Z</time>
      </trkpt>
      <trkpt lat="56.82408" lon="24.49233">
        <ele>15.46832</ele>
        <time>2020-10-06T14:24:08.867Z</time>
      </trkpt>
      <trkpt lat="56.82393" lon="24.49276">
        <ele>15.548233</ele>
        <time>2020-10-06T14:24:14.964Z</time>
      </trkpt>
      <trkpt lat="56.82383" lon="24.49324">
        <ele>15.631422</ele>
        <time>2020-10-06T14:24:21.447Z</time>
      </trkpt>
      <trkpt lat="56.82377" lon="24.49393">
        <ele>15.742709</ele>
        <time>2020-10-06T14:24:30.559Z</time>
      </trkpt>
      <trkpt lat="56.82377" lon="24.49458">
        <ele>15.846826</ele>
        <time>2020-10-06T14:24:39.530Z</time>
      </trkpt>
      <trkpt lat="56.82382" lon="24.49501">
        <ele>16.039488</ele>
        <time>2020-10-06T14:24:45.607Z</time>
      </trkpt>
      <trkpt lat="56.82414" lon="24.49762">
        <ele>17.741733</ele>
        <time>2020-10-06T14:25:25.540Z</time>
      </trkpt>
      <trkpt lat="56.82406" lon="24.49773">
        <ele>17.854677</ele>
        <time>2020-10-06T14:25:28.359Z</time>
      </trkpt>
      <trkpt lat="56.82271" lon="24.49991">
        <ele>19.774727</ele>
        <time>2020-10-06T14:26:17.213Z</time>
      </trkpt>
      <trkpt lat="56.82262" lon="24.50006">
        <ele>19.876252</ele>
        <time>2020-10-06T14:26:20.357Z</time>
      </trkpt>
      <trkpt lat="56.82248" lon="24.50028">
        <ele>19.913737</ele>
        <time>2020-10-06T14:26:24.447Z</time>
      </trkpt>
      <trkpt lat="56.82226" lon="24.50063">
        <ele>19.97505</ele>
        <time>2020-10-06T14:26:31.288Z</time>
      </trkpt>
      <trkpt lat="56.82185" lon="24.50132">
        <ele>20.092417</ele>
        <time>2020-10-06T14:26:43.934Z</time>
      </trkpt>
      <trkpt lat="56.82177" lon="24.50145">
        <ele>20.114549</ele>
        <time>2020-10-06T14:26:46.344Z</time>
      </trkpt>
      <trkpt lat="56.82158" lon="24.50178">
        <ele>20.16954</ele>
        <time>2020-10-06T14:26:52.218Z</time>
      </trkpt>
      <trkpt lat="56.82155" lon="24.50183">
        <ele>20.176414</ele>
        <time>2020-10-06T14:26:53.041Z</time>
      </trkpt>
      <trkpt lat="56.82153" lon="24.50187">
        <ele>20.184513</ele>
        <time>2020-10-06T14:26:53.865Z</time>
      </trkpt>
      <trkpt lat="56.8213" lon="24.50226">
        <ele>20.250593</ele>
        <time>2020-10-06T14:27:00.496Z</time>
      </trkpt>
      <trkpt lat="56.82121" lon="24.50241">
        <ele>20.280084</ele>
        <time>2020-10-06T14:27:03.073Z</time>
      </trkpt>
      <trkpt lat="56.82118" lon="24.50247">
        <ele>20.292082</ele>
        <time>2020-10-06T14:27:04.130Z</time>
      </trkpt>
      <trkpt lat="56.82094" lon="24.50291">
        <ele>20.376941</ele>
        <time>2020-10-06T14:27:11.766Z</time>
      </trkpt>
      <trkpt lat="56.8208" lon="24.50331">
        <ele>20.442967</ele>
        <time>2020-10-06T14:27:17.845Z</time>
      </trkpt>
      <trkpt lat="56.8206" lon="24.50383">
        <ele>20.530005</ele>
        <time>2020-10-06T14:27:26.067Z</time>
      </trkpt>
      <trkpt lat="56.82017" lon="24.50562">
        <ele>20.752806</ele>
        <time>2020-10-06T14:27:52.165Z</time>
      </trkpt>
      <trkpt lat="56.81993" lon="24.50715">
        <ele>20.871554</ele>
        <time>2020-10-06T14:28:12.273Z</time>
      </trkpt>
      <trkpt lat="56.81948" lon="24.50981">
        <ele>20.600198</ele>
        <time>2020-10-06T14:28:44.645Z</time>
      </trkpt>
      <trkpt lat="56.81918" lon="24.51171">
        <ele>20.23389</ele>
        <time>2020-10-06T14:29:07.106Z</time>
      </trkpt>
      <trkpt lat="56.81908" lon="24.51232">
        <ele>20.123419</ele>
        <time>2020-10-06T14:29:14.295Z</time>
      </trkpt>
      <trkpt lat="56.81896" lon="24.51313">
        <ele>19.974663</ele>
        <time>2020-10-06T14:29:24.060Z</time>
      </trkpt>
      <trkpt lat="56.8186" lon="24.51551">
        <ele>19.678239</ele>
        <time>2020-10-06T14:29:53.390Z</time>
      </trkpt>
      <trkpt lat="56.81835" lon="24.51715">
        <ele>19.579057</ele>
        <time>2020-10-06T14:30:13.845Z</time>
      </trkpt>
      <trkpt lat="56.81834" lon="24.51788">
        <ele>19.588343</ele>
        <time>2020-10-06T14:30:22.619Z</time>
      </trkpt>
      <trkpt lat="56.81833" lon="24.5186">
        <ele>19.662361</ele>
        <time>2020-10-06T14:30:31.507Z</time>
      </trkpt>
      <trkpt lat="56.81836" lon="24.5202">
        <ele>19.824734</ele>
        <time>2020-10-06T14:30:51.603Z</time>
      </trkpt>
      <trkpt lat="56.81844" lon="24.5217">
        <ele>20.071807</ele>
        <time>2020-10-06T14:31:11.536Z</time>
      </trkpt>
      <trkpt lat="56.81852" lon="24.52332">
        <ele>20.414669</ele>
        <time>2020-10-06T14:31:33.140Z</time>
      </trkpt>
      <trkpt lat="56.81857" lon="24.52424">
        <ele>20.596114</ele>
        <time>2020-10-06T14:31:44.960Z</time>
      </trkpt>
      <trkpt lat="56.81865" lon="24.52568">
        <ele>20.764459</ele>
        <time>2020-10-06T14:32:03.120Z</time>
      </trkpt>
      <trkpt lat="56.81868" lon="24.52624">
        <ele>20.829168</ele>
        <time>2020-10-06T14:32:10.337Z</time>
      </trkpt>
      <trkpt lat="56.8187" lon="24.52655">
        <ele>20.865904</ele>
        <time>2020-10-06T14:32:14.445Z</time>
      </trkpt>
      <trkpt lat="56.81873" lon="24.52723">
        <ele>20.945281</ele>
        <time>2020-10-06T14:32:23.116Z</time>
      </trkpt>
      <trkpt lat="56.81874" lon="24.52739">
        <ele>20.963387</ele>
        <time>2020-10-06T14:32:25.087Z</time>
      </trkpt>
      <trkpt lat="56.81879" lon="24.52816">
        <ele>21.028057</ele>
        <time>2020-10-06T14:32:34.720Z</time>
      </trkpt>
      <trkpt lat="56.8188" lon="24.52849">
        <ele>21.055659</ele>
        <time>2020-10-06T14:32:38.760Z</time>
      </trkpt>
      <trkpt lat="56.81879" lon="24.52948">
        <ele>21.137591</ele>
        <time>2020-10-06T14:32:50.955Z</time>
      </trkpt>
      <trkpt lat="56.81878" lon="24.52979">
        <ele>21.163653</ele>
        <time>2020-10-06T14:32:54.944Z</time>
      </trkpt>
      <trkpt lat="56.81876" lon="24.53122">
        <ele>21.18517</ele>
        <time>2020-10-06T14:33:13.326Z</time>
      </trkpt>
      <trkpt lat="56.81862" lon="24.53336">
        <ele>20.987971</ele>
        <time>2020-10-06T14:33:38.702Z</time>
      </trkpt>
      <trkpt lat="56.81861" lon="24.53498">
        <ele>20.638296</ele>
        <time>2020-10-06T14:33:57.140Z</time>
      </trkpt>
      <trkpt lat="56.81882" lon="24.53617">
        <ele>20.281231</ele>
        <time>2020-10-06T14:34:11.151Z</time>
      </trkpt>
      <trkpt lat="56.81884" lon="24.53643">
        <ele>20.207081</ele>
        <time>2020-10-06T14:34:13.970Z</time>
      </trkpt>
      <trkpt lat="56.81885" lon="24.53664">
        <ele>20.146194</ele>
        <time>2020-10-06T14:34:16.395Z</time>
      </trkpt>
      <trkpt lat="56.81886" lon="24.53679">
        <ele>20.103369</ele>
        <time>2020-10-06T14:34:18.117Z</time>
      </trkpt>
      <trkpt lat="56.81886" lon="24.53681">
        <ele>20.09589</ele>
        <time>2020-10-06T14:34:18.367Z</time>
      </trkpt>
      <trkpt lat="56.81871" lon="24.53843">
        <ele>19.648807</ele>
        <time>2020-10-06T14:34:36.670Z</time>
      </trkpt>
      <trkpt lat="56.8186" lon="24.5391">
        <ele>19.460746</ele>
        <time>2020-10-06T14:34:44.516Z</time>
      </trkpt>
      <trkpt lat="56.81825" lon="24.54017">
        <ele>19.123927</ele>
        <time>2020-10-06T14:34:58.901Z</time>
      </trkpt>
      <trkpt lat="56.81769" lon="24.54203">
        <ele>18.707988</ele>
        <time>2020-10-06T14:35:23.301Z</time>
      </trkpt>
      <trkpt lat="56.81732" lon="24.5433">
        <ele>18.456051</ele>
        <time>2020-10-06T14:35:39.953Z</time>
      </trkpt>
      <trkpt lat="56.81724" lon="24.54388">
        <ele>18.41103</ele>
        <time>2020-10-06T14:35:46.920Z</time>
      </trkpt>
      <trkpt lat="56.81723" lon="24.54634">
        <ele>18.226438</ele>
        <time>2020-10-06T14:36:16.333Z</time>
      </trkpt>
      <trkpt lat="56.8173" lon="24.54689">
        <ele>18.245036</ele>
        <time>2020-10-06T14:36:23.248Z</time>
      </trkpt>
      <trkpt lat="56.81754" lon="24.54876">
        <ele>18.308795</ele>
        <time>2020-10-06T14:36:47.187Z</time>
      </trkpt>
      <trkpt lat="56.81773" lon="24.55043">
        <ele>18.267862</ele>
        <time>2020-10-06T14:37:08.364Z</time>
      </trkpt>
      <trkpt lat="56.81794" lon="24.55259">
        <ele>18.108147</ele>
        <time>2020-10-06T14:37:34.501Z</time>
      </trkpt>
      <trkpt lat="56.81811" lon="24.55557">
        <ele>17.380615</ele>
        <time>2020-10-06T14:38:08.439Z</time>
      </trkpt>
      <trkpt lat="56.81842" lon="24.55795">
        <ele>16.732863</ele>
        <time>2020-10-06T14:38:35.748Z</time>
      </trkpt>
      <trkpt lat="56.81846" lon="24.55842">
        <ele>16.604379</ele>
        <time>2020-10-06T14:38:41.187Z</time>
      </trkpt>
      <trkpt lat="56.81848" lon="24.55879">
        <ele>16.504114</ele>
        <time>2020-10-06T14:38:45.390Z</time>
      </trkpt>
      <trkpt lat="56.81851" lon="24.55939">
        <ele>16.366108</ele>
        <time>2020-10-06T14:38:52.131Z</time>
      </trkpt>
      <trkpt lat="56.81842" lon="24.56352">
        <ele>16.069185</ele>
        <time>2020-10-06T14:39:41.161Z</time>
      </trkpt>
      <trkpt lat="56.81842" lon="24.56373">
        <ele>16.081726</ele>
        <time>2020-10-06T14:39:43.739Z</time>
      </trkpt>
      <trkpt lat="56.8184" lon="24.56424">
        <ele>16.112947</ele>
        <time>2020-10-06T14:39:50.358Z</time>
      </trkpt>
      <trkpt lat="56.8183" lon="24.56504">
        <ele>16.163646</ele>
        <time>2020-10-06T14:40:00.948Z</time>
      </trkpt>
      <trkpt lat="56.81828" lon="24.56571">
        <ele>16.204866</ele>
        <time>2020-10-06T14:40:09.481Z</time>
      </trkpt>
      <trkpt lat="56.81827" lon="24.56592">
        <ele>16.196291</ele>
        <time>2020-10-06T14:40:12.416Z</time>
      </trkpt>
      <trkpt lat="56.81806" lon="24.56612">
        <ele>16.150163</ele>
        <time>2020-10-06T14:40:17.505Z</time>
      </trkpt>
      <trkpt lat="56.81799" lon="24.56644">
        <ele>16.112405</ele>
        <time>2020-10-06T14:40:22.049Z</time>
      </trkpt>
      <trkpt lat="56.81787" lon="24.56697">
        <ele>16.051756</ele>
        <time>2020-10-06T14:40:29.168Z</time>
      </trkpt>
      <trkpt lat="56.81739" lon="24.57019">
        <ele>15.558982</ele>
        <time>2020-10-06T14:41:06.747Z</time>
      </trkpt>
      <trkpt lat="56.81718" lon="24.57077">
        <ele>15.424084</ele>
        <time>2020-10-06T14:41:14.636Z</time>
      </trkpt>
      <trkpt lat="56.81632" lon="24.57236">
        <ele>15.278915</ele>
        <time>2020-10-06T14:41:41.292Z</time>
      </trkpt>
      <trkpt lat="56.81515" lon="24.57454">
        <ele>15.485647</ele>
        <time>2020-10-06T14:42:20.194Z</time>
      </trkpt>
      <trkpt lat="56.81515" lon="24.57455">
        <ele>15.487418</ele>
        <time>2020-10-06T14:42:20.545Z</time>
      </trkpt>
      <trkpt lat="56.81425" lon="24.57624">
        <ele>15.712235</ele>
        <time>2020-10-06T14:42:50.260Z</time>
      </trkpt>
      <trkpt lat="56.81423" lon="24.57627">
        <ele>15.708114</ele>
        <time>2020-10-06T14:42:50.878Z</time>
      </trkpt>
      <trkpt lat="56.81248" lon="24.57954">
        <ele>15.281109</ele>
        <time>2020-10-06T14:43:44.345Z</time>
      </trkpt>
      <trkpt lat="56.81235" lon="24.57982">
        <ele>15.254745</ele>
        <time>2020-10-06T14:43:48.773Z</time>
      </trkpt>
      <trkpt lat="56.81175" lon="24.58153">
        <ele>15.239698</ele>
        <time>2020-10-06T14:44:13.305Z</time>
      </trkpt>
      <trkpt lat="56.81094" lon="24.58386">
        <ele>15.790092</ele>
        <time>2020-10-06T14:44:49.412Z</time>
      </trkpt>
      <trkpt lat="56.81091" lon="24.58395">
        <ele>15.819276</ele>
        <time>2020-10-06T14:44:50.910Z</time>
      </trkpt>
      <trkpt lat="56.81089" lon="24.584">
        <ele>15.840627</ele>
        <time>2020-10-06T14:44:51.733Z</time>
      </trkpt>
      <trkpt lat="56.81051" lon="24.5851">
        <ele>16.314435</ele>
        <time>2020-10-06T14:45:09.648Z</time>
      </trkpt>
      <trkpt lat="56.80925" lon="24.58875">
        <ele>17.716529</ele>
        <time>2020-10-06T14:46:08.757Z</time>
      </trkpt>
      <trkpt lat="56.80903" lon="24.58945">
        <ele>17.952308</ele>
        <time>2020-10-06T14:46:19.115Z</time>
      </trkpt>
      <trkpt lat="56.80885" lon="24.59026">
        <ele>17.954439</ele>
        <time>2020-10-06T14:46:30.231Z</time>
      </trkpt>
      <trkpt lat="56.80875" lon="24.59184">
        <ele>17.933377</ele>
        <time>2020-10-06T14:46:49.560Z</time>
      </trkpt>
      <trkpt lat="56.80877" lon="24.59219">
        <ele>17.928731</ele>
        <time>2020-10-06T14:46:53.694Z</time>
      </trkpt>
      <trkpt lat="56.80891" lon="24.59314">
        <ele>17.832456</ele>
        <time>2020-10-06T14:47:05.115Z</time>
      </trkpt>
      <trkpt lat="56.80907" lon="24.59382">
        <ele>17.692105</ele>
        <time>2020-10-06T14:47:13.578Z</time>
      </trkpt>
      <trkpt lat="56.8093" lon="24.59442">
        <ele>17.552798</ele>
        <time>2020-10-06T14:47:21.951Z</time>
      </trkpt>
      <trkpt lat="56.80938" lon="24.5946">
        <ele>17.508558</ele>
        <time>2020-10-06T14:47:24.615Z</time>
      </trkpt>
      <trkpt lat="56.81012" lon="24.59613">
        <ele>17.316212</ele>
        <time>2020-10-06T14:47:48.130Z</time>
      </trkpt>
      <trkpt lat="56.81064" lon="24.59721">
        <ele>17.343125</ele>
        <time>2020-10-06T14:48:06.041Z</time>
      </trkpt>
      <trkpt lat="56.81097" lon="24.59791">
        <ele>17.361339</ele>
        <time>2020-10-06T14:48:18.238Z</time>
      </trkpt>
      <trkpt lat="56.81142" lon="24.59882">
        <ele>17.425025</ele>
        <time>2020-10-06T14:48:33.717Z</time>
      </trkpt>
      <trkpt lat="56.81153" lon="24.59905">
        <ele>17.440768</ele>
        <time>2020-10-06T14:48:37.593Z</time>
      </trkpt>
      <trkpt lat="56.8116" lon="24.59919">
        <ele>17.450754</ele>
        <time>2020-10-06T14:48:39.885Z</time>
      </trkpt>
      <trkpt lat="56.81162" lon="24.59923">
        <ele>17.453715</ele>
        <time>2020-10-06T14:48:40.652Z</time>
      </trkpt>
      <trkpt lat="56.8116" lon="24.59927">
        <ele>17.45663</ele>
        <time>2020-10-06T14:48:41.300Z</time>
      </trkpt>
      <trkpt lat="56.81151" lon="24.59942">
        <ele>17.468462</ele>
        <time>2020-10-06T14:48:44.132Z</time>
      </trkpt>
      <trkpt lat="56.81154" lon="24.5995">
        <ele>17.473976</ele>
        <time>2020-10-06T14:48:45.954Z</time>
      </trkpt>
      <trkpt lat="56.81122" lon="24.60001">
        <ele>17.514656</ele>
        <time>2020-10-06T14:48:55.469Z</time>
      </trkpt>
      <trkpt lat="56.81039" lon="24.6011">
        <ele>17.354441</ele>
        <time>2020-10-06T14:49:17.468Z</time>
      </trkpt>
      <trkpt lat="56.80932" lon="24.60253">
        <ele>17.189724</ele>
        <time>2020-10-06T14:49:45.804Z</time>
      </trkpt>
      <trkpt lat="56.80916" lon="24.60274">
        <ele>17.209212</ele>
        <time>2020-10-06T14:49:50.235Z</time>
      </trkpt>
      <trkpt lat="56.80907" lon="24.60287">
        <ele>17.220971</ele>
        <time>2020-10-06T14:49:52.912Z</time>
      </trkpt>
      <trkpt lat="56.80853" lon="24.60358">
        <ele>17.287492</ele>
        <time>2020-10-06T14:50:08.314Z</time>
      </trkpt>
      <trkpt lat="56.8074" lon="24.6052">
        <ele>17.626126</ele>
        <time>2020-10-06T14:50:41.946Z</time>
      </trkpt>
      <trkpt lat="56.80708" lon="24.60573">
        <ele>17.755804</ele>
        <time>2020-10-06T14:50:52.073Z</time>
      </trkpt>
      <trkpt lat="56.807" lon="24.60555">
        <ele>17.794722</ele>
        <time>2020-10-06T14:50:55.421Z</time>
      </trkpt>
      <trkpt lat="56.80695" lon="24.60562">
        <ele>17.812776</ele>
        <time>2020-10-06T14:50:56.804Z</time>
      </trkpt>
      <trkpt lat="56.80538" lon="24.60846">
        <ele>18.697943</ele>
        <time>2020-10-06T14:51:49.482Z</time>
      </trkpt>
      <trkpt lat="56.80532" lon="24.60857">
        <ele>18.744943</ele>
        <time>2020-10-06T14:51:51.642Z</time>
      </trkpt>
      <trkpt lat="56.8051" lon="24.60897">
        <ele>18.922057</ele>
        <time>2020-10-06T14:51:59.311Z</time>
      </trkpt>
      <trkpt lat="56.80495" lon="24.60923">
        <ele>19.040635</ele>
        <time>2020-10-06T14:52:04.530Z</time>
      </trkpt>
      <trkpt lat="56.80489" lon="24.60934">
        <ele>19.090395</ele>
        <time>2020-10-06T14:52:06.604Z</time>
      </trkpt>
      <trkpt lat="56.80485" lon="24.6094">
        <ele>19.117705</ele>
        <time>2020-10-06T14:52:07.786Z</time>
      </trkpt>
      <trkpt lat="56.80478" lon="24.60951">
        <ele>19.1715</ele>
        <time>2020-10-06T14:52:10.199Z</time>
      </trkpt>
      <trkpt lat="56.80469" lon="24.60968">
        <ele>19.246486</ele>
        <time>2020-10-06T14:52:13.436Z</time>
      </trkpt>
      <trkpt lat="56.80461" lon="24.60983">
        <ele>19.314673</ele>
        <time>2020-10-06T14:52:16.289Z</time>
      </trkpt>
      <trkpt lat="56.80457" lon="24.60992">
        <ele>19.347468</ele>
        <time>2020-10-06T14:52:17.797Z</time>
      </trkpt>
      <trkpt lat="56.80454" lon="24.61">
        <ele>19.381956</ele>
        <time>2020-10-06T14:52:19.284Z</time>
      </trkpt>
      <trkpt lat="56.80443" lon="24.61025">
        <ele>19.479498</ele>
        <time>2020-10-06T14:52:23.467Z</time>
      </trkpt>
      <trkpt lat="56.80433" lon="24.61048">
        <ele>19.572783</ele>
        <time>2020-10-06T14:52:27.533Z</time>
      </trkpt>
      <trkpt lat="56.80425" lon="24.61066">
        <ele>19.607803</ele>
        <time>2020-10-06T14:52:30.591Z</time>
      </trkpt>
      <trkpt lat="56.80396" lon="24.61117">
        <ele>19.651738</ele>
        <time>2020-10-06T14:52:40.243Z</time>
      </trkpt>
      <trkpt lat="56.80383" lon="24.61142">
        <ele>19.672988</ele>
        <time>2020-10-06T14:52:44.789Z</time>
      </trkpt>
      <trkpt lat="56.80356" lon="24.61193">
        <ele>19.714809</ele>
        <time>2020-10-06T14:52:53.309Z</time>
      </trkpt>
      <trkpt lat="56.80333" lon="24.61235">
        <ele>19.750143</ele>
        <time>2020-10-06T14:53:00.382Z</time>
      </trkpt>
      <trkpt lat="56.80318" lon="24.61264">
        <ele>19.773937</ele>
        <time>2020-10-06T14:53:05.065Z</time>
      </trkpt>
      <trkpt lat="56.80311" lon="24.61277">
        <ele>19.785111</ele>
        <time>2020-10-06T14:53:07.292Z</time>
      </trkpt>
      <trkpt lat="56.80302" lon="24.61292">
        <ele>19.79556</ele>
        <time>2020-10-06T14:53:09.932Z</time>
      </trkpt>
      <trkpt lat="56.80275" lon="24.61342">
        <ele>19.798856</ele>
        <time>2020-10-06T14:53:18.321Z</time>
      </trkpt>
      <trkpt lat="56.80245" lon="24.61399">
        <ele>19.802552</ele>
        <time>2020-10-06T14:53:27.869Z</time>
      </trkpt>
      <trkpt lat="56.80238" lon="24.61409">
        <ele>19.803301</ele>
        <time>2020-10-06T14:53:29.794Z</time>
      </trkpt>
      <trkpt lat="56.80235" lon="24.61414">
        <ele>19.803662</ele>
        <time>2020-10-06T14:53:30.736Z</time>
      </trkpt>
      <trkpt lat="56.8022" lon="24.61443">
        <ele>19.805544</ele>
        <time>2020-10-06T14:53:35.650Z</time>
      </trkpt>
      <trkpt lat="56.80208" lon="24.61466">
        <ele>19.806985</ele>
        <time>2020-10-06T14:53:39.404Z</time>
      </trkpt>
      <trkpt lat="56.79928" lon="24.61992">
        <ele>20.605737</ele>
        <time>2020-10-06T14:55:12.617Z</time>
      </trkpt>
      <trkpt lat="56.7992" lon="24.62006">
        <ele>20.621842</ele>
        <time>2020-10-06T14:55:15.182Z</time>
      </trkpt>
      <trkpt lat="56.79919" lon="24.62008">
        <ele>20.624248</ele>
        <time>2020-10-06T14:55:15.591Z</time>
      </trkpt>
      <trkpt lat="56.79908" lon="24.62027">
        <ele>20.646127</ele>
        <time>2020-10-06T14:55:19.038Z</time>
      </trkpt>
      <trkpt lat="56.79901" lon="24.62036">
        <ele>20.658613</ele>
        <time>2020-10-06T14:55:21.027Z</time>
      </trkpt>
      <trkpt lat="56.79897" lon="24.62044">
        <ele>20.667183</ele>
        <time>2020-10-06T14:55:22.460Z</time>
      </trkpt>
      <trkpt lat="56.79873" lon="24.62093">
        <ele>20.71894</ele>
        <time>2020-10-06T14:55:30.709Z</time>
      </trkpt>
      <trkpt lat="56.79775" lon="24.62275">
        <ele>20.894077</ele>
        <time>2020-10-06T14:56:02.606Z</time>
      </trkpt>
      <trkpt lat="56.79773" lon="24.62284">
        <ele>20.897983</ele>
        <time>2020-10-06T14:56:03.786Z</time>
      </trkpt>
      <trkpt lat="56.79739" lon="24.62341">
        <ele>20.93064</ele>
        <time>2020-10-06T14:56:14.212Z</time>
      </trkpt>
      <trkpt lat="56.79669" lon="24.62473">
        <ele>20.992864</ele>
        <time>2020-10-06T14:56:36.912Z</time>
      </trkpt>
      <trkpt lat="56.79662" lon="24.62487">
        <ele>20.990831</ele>
        <time>2020-10-06T14:56:39.213Z</time>
      </trkpt>
      <trkpt lat="56.79618" lon="24.62566">
        <ele>20.978393</ele>
        <time>2020-10-06T14:56:53.111Z</time>
      </trkpt>
      <trkpt lat="56.79616" lon="24.62571">
        <ele>20.977601</ele>
        <time>2020-10-06T14:56:53.996Z</time>
      </trkpt>
      <trkpt lat="56.79427" lon="24.6292">
        <ele>20.68918</ele>
        <time>2020-10-06T14:57:52.300Z</time>
      </trkpt>
      <trkpt lat="56.79418" lon="24.62934">
        <ele>20.679147</ele>
        <time>2020-10-06T14:57:54.813Z</time>
      </trkpt>
      <trkpt lat="56.79412" lon="24.62946">
        <ele>20.67892</ele>
        <time>2020-10-06T14:57:56.675Z</time>
      </trkpt>
      <trkpt lat="56.79401" lon="24.62966">
        <ele>20.678524</ele>
        <time>2020-10-06T14:58:00.082Z</time>
      </trkpt>
      <trkpt lat="56.79394" lon="24.62978">
        <ele>20.678262</ele>
        <time>2020-10-06T14:58:02.213Z</time>
      </trkpt>
      <trkpt lat="56.79387" lon="24.62991">
        <ele>20.677993</ele>
        <time>2020-10-06T14:58:04.436Z</time>
      </trkpt>
      <trkpt lat="56.79384" lon="24.62996">
        <ele>20.677893</ele>
        <time>2020-10-06T14:58:05.275Z</time>
      </trkpt>
      <trkpt lat="56.79373" lon="24.63023">
        <ele>20.677418</ele>
        <time>2020-10-06T14:58:09.513Z</time>
      </trkpt>
      <trkpt lat="56.79278" lon="24.6323">
        <ele>20.700113</ele>
        <time>2020-10-06T14:58:44.237Z</time>
      </trkpt>
      <trkpt lat="56.79197" lon="24.63374">
        <ele>20.772861</ele>
        <time>2020-10-06T14:59:11.077Z</time>
      </trkpt>
      <trkpt lat="56.791" lon="24.63558">
        <ele>20.80301</ele>
        <time>2020-10-06T14:59:43.594Z</time>
      </trkpt>
      <trkpt lat="56.79096" lon="24.63567">
        <ele>20.80367</ele>
        <time>2020-10-06T14:59:44.928Z</time>
      </trkpt>
      <trkpt lat="56.79094" lon="24.63572">
        <ele>20.804096</ele>
        <time>2020-10-06T14:59:45.769Z</time>
      </trkpt>
      <trkpt lat="56.79086" lon="24.63599">
        <ele>20.805966</ele>
        <time>2020-10-06T14:59:49.663Z</time>
      </trkpt>
      <trkpt lat="56.79013" lon="24.63738">
        <ele>20.937401</ele>
        <time>2020-10-06T15:00:14.431Z</time>
      </trkpt>
      <trkpt lat="56.78999" lon="24.63745">
        <ele>20.965239</ele>
        <time>2020-10-06T15:00:17.859Z</time>
      </trkpt>
      <trkpt lat="56.78862" lon="24.63992">
        <ele>21.465962</ele>
        <time>2020-10-06T15:01:04.674Z</time>
      </trkpt>
      <trkpt lat="56.7886" lon="24.63995">
        <ele>21.473593</ele>
        <time>2020-10-06T15:01:05.282Z</time>
      </trkpt>
      <trkpt lat="56.78869" lon="24.64007">
        <ele>21.5101</ele>
        <time>2020-10-06T15:01:09.512Z</time>
      </trkpt>
      <trkpt lat="56.78874" lon="24.6402">
        <ele>21.538938</ele>
        <time>2020-10-06T15:01:12.816Z</time>
      </trkpt>
      <trkpt lat="56.78853" lon="24.64053">
        <ele>21.631073</ele>
        <time>2020-10-06T15:01:19.474Z</time>
      </trkpt>
      <trkpt lat="56.78797" lon="24.64136">
        <ele>21.90477</ele>
        <time>2020-10-06T15:01:36.849Z</time>
      </trkpt>
      <trkpt lat="56.785" lon="24.64548">
        <ele>23.204459</ele>
        <time>2020-10-06T15:03:06.286Z</time>
      </trkpt>
      <trkpt lat="56.78334" lon="24.64783">
        <ele>22.849054</ele>
        <time>2020-10-06T15:03:50.914Z</time>
      </trkpt>
      <trkpt lat="56.78317" lon="24.64806">
        <ele>22.79195</ele>
        <time>2020-10-06T15:03:55.261Z</time>
      </trkpt>
      <trkpt lat="56.78305" lon="24.64824">
        <ele>22.748472</ele>
        <time>2020-10-06T15:03:58.630Z</time>
      </trkpt>
      <trkpt lat="56.7819" lon="24.64983">
        <ele>22.599402</ele>
        <time>2020-10-06T15:04:29.550Z</time>
      </trkpt>
      <trkpt lat="56.78084" lon="24.6513">
        <ele>22.647732</ele>
        <time>2020-10-06T15:05:00.552Z</time>
      </trkpt>
      <trkpt lat="56.78064" lon="24.65158">
        <ele>22.659355</ele>
        <time>2020-10-06T15:05:06.522Z</time>
      </trkpt>
      <trkpt lat="56.78053" lon="24.65172">
        <ele>22.665508</ele>
        <time>2020-10-06T15:05:09.762Z</time>
      </trkpt>
      <trkpt lat="56.78023" lon="24.65212">
        <ele>22.682297</ele>
        <time>2020-10-06T15:05:18.177Z</time>
      </trkpt>
      <trkpt lat="56.77945" lon="24.65313">
        <ele>22.582131</ele>
        <time>2020-10-06T15:05:38.725Z</time>
      </trkpt>
      <trkpt lat="56.77908" lon="24.65362">
        <ele>22.332475</ele>
        <time>2020-10-06T15:05:48.106Z</time>
      </trkpt>
      <trkpt lat="56.77844" lon="24.65445">
        <ele>21.902764</ele>
        <time>2020-10-06T15:06:03.909Z</time>
      </trkpt>
      <trkpt lat="56.77835" lon="24.65458">
        <ele>21.841184</ele>
        <time>2020-10-06T15:06:06.050Z</time>
      </trkpt>
      <trkpt lat="56.77758" lon="24.65554">
        <ele>21.517874</ele>
        <time>2020-10-06T15:06:25.270Z</time>
      </trkpt>
      <trkpt lat="56.77712" lon="24.65617">
        <ele>21.351272</ele>
        <time>2020-10-06T15:06:37.393Z</time>
      </trkpt>
      <trkpt lat="56.77674" lon="24.65672">
        <ele>21.20931</ele>
        <time>2020-10-06T15:06:48.388Z</time>
      </trkpt>
      <trkpt lat="56.77639" lon="24.6573">
        <ele>21.234086</ele>
        <time>2020-10-06T15:06:59.011Z</time>
      </trkpt>
      <trkpt lat="56.77608" lon="24.65783">
        <ele>21.25755</ele>
        <time>2020-10-06T15:07:08.470Z</time>
      </trkpt>
      <trkpt lat="56.77564" lon="24.65867">
        <ele>21.292802</ele>
        <time>2020-10-06T15:07:22.929Z</time>
      </trkpt>
      <trkpt lat="56.77539" lon="24.65919">
        <ele>21.336051</ele>
        <time>2020-10-06T15:07:31.518Z</time>
      </trkpt>
      <trkpt lat="56.77521" lon="24.65957">
        <ele>21.406892</ele>
        <time>2020-10-06T15:07:37.720Z</time>
      </trkpt>
      <trkpt lat="56.77387" lon="24.66244">
        <ele>21.82243</ele>
        <time>2020-10-06T15:08:26.577Z</time>
      </trkpt>
      <trkpt lat="56.77331" lon="24.66368">
        <ele>21.888619</ele>
        <time>2020-10-06T15:08:46.162Z</time>
      </trkpt>
      <trkpt lat="56.77284" lon="24.66479">
        <ele>21.837891</ele>
        <time>2020-10-06T15:09:02.769Z</time>
      </trkpt>
      <trkpt lat="56.77132" lon="24.6689">
        <ele>21.729089</ele>
        <time>2020-10-06T15:10:02.095Z</time>
      </trkpt>
      <trkpt lat="56.77017" lon="24.67205">
        <ele>22.553418</ele>
        <time>2020-10-06T15:10:52.609Z</time>
      </trkpt>
      <trkpt lat="56.77002" lon="24.67248">
        <ele>22.622091</ele>
        <time>2020-10-06T15:10:59.344Z</time>
      </trkpt>
      <trkpt lat="56.76969" lon="24.67343">
        <ele>22.695774</ele>
        <time>2020-10-06T15:11:14.042Z</time>
      </trkpt>
      <trkpt lat="56.76956" lon="24.6738">
        <ele>22.724653</ele>
        <time>2020-10-06T15:11:19.604Z</time>
      </trkpt>
      <trkpt lat="56.76845" lon="24.6761">
        <ele>22.622775</ele>
        <time>2020-10-06T15:11:55.655Z</time>
      </trkpt>
      <trkpt lat="56.766" lon="24.68142">
        <ele>21.979004</ele>
        <time>2020-10-06T15:13:17.918Z</time>
      </trkpt>
      <trkpt lat="56.76465" lon="24.68428">
        <ele>22.016484</ele>
        <time>2020-10-06T15:14:04.106Z</time>
      </trkpt>
      <trkpt lat="56.76432" lon="24.68498">
        <ele>22.149214</ele>
        <time>2020-10-06T15:14:15.845Z</time>
      </trkpt>
      <trkpt lat="56.76381" lon="24.68604">
        <ele>22.875894</ele>
        <time>2020-10-06T15:14:34.385Z</time>
      </trkpt>
      <trkpt lat="56.75935" lon="24.69556">
        <ele>29.293782</ele>
        <time>2020-10-06T15:17:36.222Z</time>
      </trkpt>
      <trkpt lat="56.75628" lon="24.7014">
        <ele>31.117563</ele>
        <time>2020-10-06T15:19:22.909Z</time>
      </trkpt>
      <trkpt lat="56.75316" lon="24.70119">
        <ele>29.498142</ele>
        <time>2020-10-06T15:20:28.918Z</time>
      </trkpt>
      <trkpt lat="56.75216" lon="24.70211">
        <ele>28.735611</ele>
        <time>2020-10-06T15:20:52.141Z</time>
      </trkpt>
      <trkpt lat="56.75101" lon="24.70273">
        <ele>28.122172</ele>
        <time>2020-10-06T15:21:17.745Z</time>
      </trkpt>
      <trkpt lat="56.75096" lon="24.70277">
        <ele>28.09299</ele>
        <time>2020-10-06T15:21:19.146Z</time>
      </trkpt>
      <trkpt lat="56.74927" lon="24.7044">
        <ele>27.384428</ele>
        <time>2020-10-06T15:22:04.488Z</time>
      </trkpt>
      <trkpt lat="56.74871" lon="24.70495">
        <ele>27.007245</ele>
        <time>2020-10-06T15:22:19.009Z</time>
      </trkpt>
      <trkpt lat="56.74652" lon="24.70785">
        <ele>25.624772</ele>
        <time>2020-10-06T15:23:19.434Z</time>
      </trkpt>
      <trkpt lat="56.74609" lon="24.70826">
        <ele>25.527543</ele>
        <time>2020-10-06T15:23:31.904Z</time>
      </trkpt>
      <trkpt lat="56.74522" lon="24.70955">
        <ele>27.049133</ele>
        <time>2020-10-06T15:24:06.586Z</time>
      </trkpt>
      <trkpt lat="56.74513" lon="24.70981">
        <ele>27.281999</ele>
        <time>2020-10-06T15:24:11.923Z</time>
      </trkpt>
      <trkpt lat="56.74514" lon="24.71004">
        <ele>27.456093</ele>
        <time>2020-10-06T15:24:16.131Z</time>
      </trkpt>
      <trkpt lat="56.74518" lon="24.71028">
        <ele>27.645142</ele>
        <time>2020-10-06T15:24:20.370Z</time>
      </trkpt>
      <trkpt lat="56.7453" lon="24.71066">
        <ele>27.971258</ele>
        <time>2020-10-06T15:24:27.334Z</time>
      </trkpt>
      <trkpt lat="56.74447" lon="24.71166">
        <ele>29.30154</ele>
        <time>2020-10-06T15:24:55.401Z</time>
      </trkpt>
      <trkpt lat="56.74405" lon="24.71214">
        <ele>29.960472</ele>
        <time>2020-10-06T15:25:08.615Z</time>
      </trkpt>
      <trkpt lat="56.74387" lon="24.71245">
        <ele>30.288582</ele>
        <time>2020-10-06T15:25:14.921Z</time>
      </trkpt>
      <trkpt lat="56.74379" lon="24.71341">
        <ele>31.01371</ele>
        <time>2020-10-06T15:25:28.858Z</time>
      </trkpt>
      <trkpt lat="56.74377" lon="24.71355">
        <ele>31.12549</ele>
        <time>2020-10-06T15:25:31.270Z</time>
      </trkpt>
      <trkpt lat="56.74375" lon="24.71365">
        <ele>31.203356</ele>
        <time>2020-10-06T15:25:32.903Z</time>
      </trkpt>
      <trkpt lat="56.74367" lon="24.71441">
        <ele>31.782675</ele>
        <time>2020-10-06T15:25:44.654Z</time>
      </trkpt>
      <trkpt lat="56.74366" lon="24.71454">
        <ele>31.877935</ele>
        <time>2020-10-06T15:25:46.498Z</time>
      </trkpt>
      <trkpt lat="56.74368" lon="24.71482">
        <ele>32.091014</ele>
        <time>2020-10-06T15:25:51.299Z</time>
      </trkpt>
      <trkpt lat="56.74378" lon="24.71513">
        <ele>32.356816</ele>
        <time>2020-10-06T15:25:56.787Z</time>
      </trkpt>
      <trkpt lat="56.74416" lon="24.71608">
        <ele>32.977279</ele>
        <time>2020-10-06T15:26:16.372Z</time>
      </trkpt>
      <trkpt lat="56.74321" lon="24.71735">
        <ele>33.659685</ele>
        <time>2020-10-06T15:26:45.317Z</time>
      </trkpt>
      <trkpt lat="56.74316" lon="24.71741">
        <ele>33.693199</ele>
        <time>2020-10-06T15:26:46.561Z</time>
      </trkpt>
      <trkpt lat="56.74306" lon="24.71755">
        <ele>33.765644</ele>
        <time>2020-10-06T15:26:49.272Z</time>
      </trkpt>
      <trkpt lat="56.74255" lon="24.71629">
        <ele>33.106606</ele>
        <time>2020-10-06T15:27:06.048Z</time>
      </trkpt>
      <trkpt lat="56.74245" lon="24.71606">
        <ele>32.958908</ele>
        <time>2020-10-06T15:27:09.079Z</time>
      </trkpt>
      <trkpt lat="56.74185" lon="24.71457">
        <ele>32.099962</ele>
        <time>2020-10-06T15:27:28.108Z</time>
      </trkpt>
      <trkpt lat="56.74169" lon="24.71419">
        <ele>32.036117</ele>
        <time>2020-10-06T15:27:33.218Z</time>
      </trkpt>
      <trkpt lat="56.73891" lon="24.70758">
        <ele>31.090528</ele>
        <time>2020-10-06T15:29:13.155Z</time>
      </trkpt>
      <trkpt lat="56.73877" lon="24.70724">
        <ele>31.062832</ele>
        <time>2020-10-06T15:29:18.406Z</time>
      </trkpt>
      <trkpt lat="56.73872" lon="24.70714">
        <ele>31.05462</ele>
        <time>2020-10-06T15:29:19.977Z</time>
      </trkpt>
      <trkpt lat="56.73867" lon="24.70702">
        <ele>31.045223</ele>
        <time>2020-10-06T15:29:21.713Z</time>
      </trkpt>
      <trkpt lat="56.7386" lon="24.70684">
        <ele>31.019909</ele>
        <time>2020-10-06T15:29:24.407Z</time>
      </trkpt>
      <trkpt lat="56.73854" lon="24.70669">
        <ele>30.994935</ele>
        <time>2020-10-06T15:29:26.595Z</time>
      </trkpt>
      <trkpt lat="56.73816" lon="24.7058">
        <ele>30.840758</ele>
        <time>2020-10-06T15:29:39.939Z</time>
      </trkpt>
      <trkpt lat="56.73763" lon="24.70451">
        <ele>30.61924</ele>
        <time>2020-10-06T15:29:58.592Z</time>
      </trkpt>
      <trkpt lat="56.73684" lon="24.70268">
        <ele>30.379903</ele>
        <time>2020-10-06T15:30:25.699Z</time>
      </trkpt>
      <trkpt lat="56.73621" lon="24.70123">
        <ele>30.348959</ele>
        <time>2020-10-06T15:30:48.255Z</time>
      </trkpt>
      <trkpt lat="56.73589" lon="24.70064">
        <ele>30.451159</ele>
        <time>2020-10-06T15:30:58.764Z</time>
      </trkpt>
      <trkpt lat="56.73543" lon="24.70014">
        <ele>30.57142</ele>
        <time>2020-10-06T15:31:11.276Z</time>
      </trkpt>
      <trkpt lat="56.73529" lon="24.70004">
        <ele>30.60445</ele>
        <time>2020-10-06T15:31:14.806Z</time>
      </trkpt>
      <trkpt lat="56.73484" lon="24.6998">
        <ele>30.822374</ele>
        <time>2020-10-06T15:31:26.017Z</time>
      </trkpt>
      <trkpt lat="56.73403" lon="24.69951">
        <ele>31.497145</ele>
        <time>2020-10-06T15:31:46.306Z</time>
      </trkpt>
      <trkpt lat="56.73244" lon="24.69938">
        <ele>33.456398</ele>
        <time>2020-10-06T15:32:29.236Z</time>
      </trkpt>
      <trkpt lat="56.73181" lon="24.69946">
        <ele>34.495491</ele>
        <time>2020-10-06T15:32:48.067Z</time>
      </trkpt>
      <trkpt lat="56.73163" lon="24.69954">
        <ele>34.798083</ele>
        <time>2020-10-06T15:32:53.920Z</time>
      </trkpt>
      <trkpt lat="56.73133" lon="24.69961">
        <ele>35.405896</ele>
        <time>2020-10-06T15:33:03.239Z</time>
      </trkpt>
      <trkpt lat="56.73115" lon="24.69965">
        <ele>35.841443</ele>
        <time>2020-10-06T15:33:08.725Z</time>
      </trkpt>
      <trkpt lat="56.73034" lon="24.70008">
        <ele>37.898333</ele>
        <time>2020-10-06T15:33:35.797Z</time>
      </trkpt>
      <trkpt lat="56.72924" lon="24.70073">
        <ele>40.786192</ele>
        <time>2020-10-06T15:34:13.530Z</time>
      </trkpt>
      <trkpt lat="56.72861" lon="24.70126">
        <ele>42.577315</ele>
        <time>2020-10-06T15:34:36.410Z</time>
      </trkpt>
      <trkpt lat="56.72754" lon="24.70245">
        <ele>45.033483</ele>
        <time>2020-10-06T15:35:17.320Z</time>
      </trkpt>
      <trkpt lat="56.72715" lon="24.70292">
        <ele>45.69438</ele>
        <time>2020-10-06T15:35:30.795Z</time>
      </trkpt>
      <trkpt lat="56.72664" lon="24.70387">
        <ele>46.573077</ele>
        <time>2020-10-06T15:35:49.107Z</time>
      </trkpt>
      <trkpt lat="56.7243" lon="24.70823">
        <ele>43.123123</ele>
        <time>2020-10-06T15:36:51.291Z</time>
      </trkpt>
      <trkpt lat="56.72427" lon="24.70827">
        <ele>43.0883</ele>
        <time>2020-10-06T15:36:51.974Z</time>
      </trkpt>
      <trkpt lat="56.7227" lon="24.71118">
        <ele>44.923558</ele>
        <time>2020-10-06T15:37:50.724Z</time>
      </trkpt>
      <trkpt lat="56.72262" lon="24.71136">
        <ele>45.140604</ele>
        <time>2020-10-06T15:37:54.595Z</time>
      </trkpt>
      <trkpt lat="56.72252" lon="24.71153">
        <ele>45.359773</ele>
        <time>2020-10-06T15:37:58.777Z</time>
      </trkpt>
      <trkpt lat="56.72209" lon="24.71235">
        <ele>46.401336</ele>
        <time>2020-10-06T15:38:17.956Z</time>
      </trkpt>
      <trkpt lat="56.72071" lon="24.71492">
        <ele>48.704375</ele>
        <time>2020-10-06T15:39:13.837Z</time>
      </trkpt>
      <trkpt lat="56.72065" lon="24.71502">
        <ele>48.781993</ele>
        <time>2020-10-06T15:39:15.776Z</time>
      </trkpt>
      <trkpt lat="56.71778" lon="24.72036">
        <ele>47.075702</ele>
        <time>2020-10-06T15:40:38.603Z</time>
      </trkpt>
      <trkpt lat="56.71699" lon="24.72184">
        <ele>46.980033</ele>
        <time>2020-10-06T15:41:04.058Z</time>
      </trkpt>
      <trkpt lat="56.71666" lon="24.72244">
        <ele>46.941545</ele>
        <time>2020-10-06T15:41:14.580Z</time>
      </trkpt>
      <trkpt lat="56.71551" lon="24.72469">
        <ele>46.851992</ele>
        <time>2020-10-06T15:41:51.592Z</time>
      </trkpt>
      <trkpt lat="56.71492" lon="24.72669">
        <ele>46.968746</ele>
        <time>2020-10-06T15:42:19.822Z</time>
      </trkpt>
      <trkpt lat="56.71453" lon="24.72921">
        <ele>47.264696</ele>
        <time>2020-10-06T15:42:53.346Z</time>
      </trkpt>
      <trkpt lat="56.71443" lon="24.73132">
        <ele>47.614253</ele>
        <time>2020-10-06T15:43:20.497Z</time>
      </trkpt>
      <trkpt lat="56.71424" lon="24.73534">
        <ele>48.150045</ele>
        <time>2020-10-06T15:44:13.776Z</time>
      </trkpt>
      <trkpt lat="56.71412" lon="24.73703">
        <ele>47.907341</ele>
        <time>2020-10-06T15:44:34.058Z</time>
      </trkpt>
      <trkpt lat="56.71364" lon="24.74358">
        <ele>44.094746</ele>
        <time>2020-10-06T15:45:42.118Z</time>
      </trkpt>
      <trkpt lat="56.71352" lon="24.74424">
        <ele>43.794306</ele>
        <time>2020-10-06T15:45:50.257Z</time>
      </trkpt>
      <trkpt lat="56.71329" lon="24.74542">
        <ele>44.502985</ele>
        <time>2020-10-06T15:46:06.550Z</time>
      </trkpt>
      <trkpt lat="56.71135" lon="24.75098">
        <ele>48.602337</ele>
        <time>2020-10-06T15:47:51.856Z</time>
      </trkpt>
      <trkpt lat="56.70897" lon="24.75782">
        <ele>46.582391</ele>
        <time>2020-10-06T15:49:23.432Z</time>
      </trkpt>
      <trkpt lat="56.70886" lon="24.75876">
        <ele>45.173747</ele>
        <time>2020-10-06T15:49:31.714Z</time>
      </trkpt>
      <trkpt lat="56.70869" lon="24.76023">
        <ele>42.177775</ele>
        <time>2020-10-06T15:49:44.501Z</time>
      </trkpt>
      <trkpt lat="56.70863" lon="24.76116">
        <ele>40.30078</ele>
        <time>2020-10-06T15:49:52.525Z</time>
      </trkpt>
      <trkpt lat="56.70847" lon="24.7635">
        <ele>38.094387</ele>
        <time>2020-10-06T15:50:14.957Z</time>
      </trkpt>
      <trkpt lat="56.70842" lon="24.76429">
        <ele>37.458978</ele>
        <time>2020-10-06T15:50:25.246Z</time>
      </trkpt>
      <trkpt lat="56.70833" lon="24.76575">
        <ele>37.266441</ele>
        <time>2020-10-06T15:50:45.387Z</time>
      </trkpt>
      <trkpt lat="56.70791" lon="24.77211">
        <ele>37.386286</ele>
        <time>2020-10-06T15:52:03.929Z</time>
      </trkpt>
      <trkpt lat="56.70788" lon="24.7727">
        <ele>37.329439</ele>
        <time>2020-10-06T15:52:10.666Z</time>
      </trkpt>
      <trkpt lat="56.70775" lon="24.77373">
        <ele>37.230071</ele>
        <time>2020-10-06T15:52:22.779Z</time>
      </trkpt>
      <trkpt lat="56.70749" lon="24.77522">
        <ele>37.419613</ele>
        <time>2020-10-06T15:52:41.732Z</time>
      </trkpt>
      <trkpt lat="56.70587" lon="24.78187">
        <ele>40.066319</ele>
        <time>2020-10-06T15:54:23.273Z</time>
      </trkpt>
      <trkpt lat="56.70518" lon="24.78472">
        <ele>42.116798</ele>
        <time>2020-10-06T15:55:04.477Z</time>
      </trkpt>
      <trkpt lat="56.70407" lon="24.79009">
        <ele>49.738964</ele>
        <time>2020-10-06T15:56:52.561Z</time>
      </trkpt>
      <trkpt lat="56.7028" lon="24.79793">
        <ele>55.795309</ele>
        <time>2020-10-06T15:58:55.416Z</time>
      </trkpt>
      <trkpt lat="56.7014" lon="24.80655">
        <ele>57.665242</ele>
        <time>2020-10-06T16:00:56.102Z</time>
      </trkpt>
      <trkpt lat="56.70123" lon="24.80763">
        <ele>57.169507</ele>
        <time>2020-10-06T16:01:07.661Z</time>
      </trkpt>
      <trkpt lat="56.69973" lon="24.81496">
        <ele>48.030832</ele>
        <time>2020-10-06T16:02:21.382Z</time>
      </trkpt>
      <trkpt lat="56.69928" lon="24.81661">
        <ele>46.685526</ele>
        <time>2020-10-06T16:02:40.524Z</time>
      </trkpt>
      <trkpt lat="56.69854" lon="24.81899">
        <ele>45.381139</ele>
        <time>2020-10-06T16:03:10.498Z</time>
      </trkpt>
      <trkpt lat="56.69802" lon="24.8203">
        <ele>44.879036</ele>
        <time>2020-10-06T16:03:28.431Z</time>
      </trkpt>
      <trkpt lat="56.69549" lon="24.82692">
        <ele>45.535826</ele>
        <time>2020-10-06T16:05:09.390Z</time>
      </trkpt>
      <trkpt lat="56.69443" lon="24.8297">
        <ele>47.031543</ele>
        <time>2020-10-06T16:05:57.017Z</time>
      </trkpt>
      <trkpt lat="56.6944" lon="24.82977">
        <ele>47.086282</ele>
        <time>2020-10-06T16:05:58.395Z</time>
      </trkpt>
      <trkpt lat="56.69335" lon="24.83239">
        <ele>49.157868</ele>
        <time>2020-10-06T16:06:48.451Z</time>
      </trkpt>
      <trkpt lat="56.69286" lon="24.83347">
        <ele>50.090618</ele>
        <time>2020-10-06T16:07:08.637Z</time>
      </trkpt>
      <trkpt lat="56.69236" lon="24.83438">
        <ele>50.891932</ele>
        <time>2020-10-06T16:07:25.999Z</time>
      </trkpt>
      <trkpt lat="56.69095" lon="24.83648">
        <ele>53.605156</ele>
        <time>2020-10-06T16:08:16.768Z</time>
      </trkpt>
      <trkpt lat="56.68951" lon="24.8386">
        <ele>56.953575</ele>
        <time>2020-10-06T16:09:16.684Z</time>
      </trkpt>
      <trkpt lat="56.68865" lon="24.83988">
        <ele>58.529703</ele>
        <time>2020-10-06T16:09:43.862Z</time>
      </trkpt>
      <trkpt lat="56.6819" lon="24.84989">
        <ele>67.468794</ele>
        <time>2020-10-06T16:13:33.857Z</time>
      </trkpt>
      <trkpt lat="56.68101" lon="24.8511">
        <ele>68.777463</ele>
        <time>2020-10-06T16:14:04.304Z</time>
      </trkpt>
      <trkpt lat="56.67959" lon="24.85278">
        <ele>70.384382</ele>
        <time>2020-10-06T16:14:49.956Z</time>
      </trkpt>
      <trkpt lat="56.67886" lon="24.85349">
        <ele>70.927928</ele>
        <time>2020-10-06T16:15:09.739Z</time>
      </trkpt>
      <trkpt lat="56.67719" lon="24.85513">
        <ele>71.135886</ele>
        <time>2020-10-06T16:15:52.171Z</time>
      </trkpt>
      <trkpt lat="56.67601" lon="24.85627">
        <ele>70.994516</ele>
        <time>2020-10-06T16:16:22.495Z</time>
      </trkpt>
      <trkpt lat="56.6718" lon="24.8604">
        <ele>68.310549</ele>
        <time>2020-10-06T16:17:59.419Z</time>
      </trkpt>
      <trkpt lat="56.66989" lon="24.86226">
        <ele>66.477225</ele>
        <time>2020-10-06T16:18:43.276Z</time>
      </trkpt>
      <trkpt lat="56.65723" lon="24.87455">
        <ele>41.688212</ele>
        <time>2020-10-06T16:23:00.735Z</time>
      </trkpt>
      <trkpt lat="56.6545" lon="24.8772">
        <ele>37.319353</ele>
        <time>2020-10-06T16:23:58.486Z</time>
      </trkpt>
      <trkpt lat="56.65323" lon="24.87831">
        <ele>35.51217</ele>
        <time>2020-10-06T16:24:24.537Z</time>
      </trkpt>
      <trkpt lat="56.65179" lon="24.87938">
        <ele>34.19097</ele>
        <time>2020-10-06T16:24:54.804Z</time>
      </trkpt>
      <trkpt lat="56.64196" lon="24.8858">
        <ele>34.0924</ele>
        <time>2020-10-06T16:28:48.413Z</time>
      </trkpt>
      <trkpt lat="56.6411" lon="24.88654">
        <ele>34.189497</ele>
        <time>2020-10-06T16:29:09.571Z</time>
      </trkpt>
      <trkpt lat="56.64035" lon="24.88743">
        <ele>34.37221</ele>
        <time>2020-10-06T16:29:29.805Z</time>
      </trkpt>
      <trkpt lat="56.63981" lon="24.88834">
        <ele>34.854504</ele>
        <time>2020-10-06T16:29:47.596Z</time>
      </trkpt>
      <trkpt lat="56.63909" lon="24.88991">
        <ele>36.457046</ele>
        <time>2020-10-06T16:30:18.889Z</time>
      </trkpt>
      <trkpt lat="56.63748" lon="24.8942">
        <ele>41.843508</ele>
        <time>2020-10-06T16:31:49.603Z</time>
      </trkpt>
      <trkpt lat="56.63637" lon="24.89744">
        <ele>42.095027</ele>
        <time>2020-10-06T16:32:37.752Z</time>
      </trkpt>
      <trkpt lat="56.63479" lon="24.90177">
        <ele>37.838241</ele>
        <time>2020-10-06T16:33:27.851Z</time>
      </trkpt>
      <trkpt lat="56.63221" lon="24.90919">
        <ele>38.638165</ele>
        <time>2020-10-06T16:35:18.634Z</time>
      </trkpt>
      <trkpt lat="56.63103" lon="24.91293">
        <ele>42.528358</ele>
        <time>2020-10-06T16:36:32.925Z</time>
      </trkpt>
      <trkpt lat="56.62566" lon="24.93029">
        <ele>43.224101</ele>
        <time>2020-10-06T16:40:38.126Z</time>
      </trkpt>
      <trkpt lat="56.62473" lon="24.93307">
        <ele>42.062979</ele>
        <time>2020-10-06T16:41:13.992Z</time>
      </trkpt>
      <trkpt lat="56.6239" lon="24.93511">
        <ele>40.68893</ele>
        <time>2020-10-06T16:41:40.400Z</time>
      </trkpt>
      <trkpt lat="56.62294" lon="24.93716">
        <ele>40.535151</ele>
        <time>2020-10-06T16:42:11.222Z</time>
      </trkpt>
      <trkpt lat="56.61848" lon="24.94551">
        <ele>48.14803</ele>
        <time>2020-10-06T16:45:07.918Z</time>
      </trkpt>
      <trkpt lat="56.6177" lon="24.94721">
        <ele>49.251803</ele>
        <time>2020-10-06T16:45:39.384Z</time>
      </trkpt>
      <trkpt lat="56.61692" lon="24.94915">
        <ele>49.519709</ele>
        <time>2020-10-06T16:46:10.388Z</time>
      </trkpt>
      <trkpt lat="56.61624" lon="24.95117">
        <ele>48.904285</ele>
        <time>2020-10-06T16:46:37.535Z</time>
      </trkpt>
      <trkpt lat="56.6137" lon="24.95977">
        <ele>43.312708</ele>
        <time>2020-10-06T16:48:19.224Z</time>
      </trkpt>
      <trkpt lat="56.61311" lon="24.96131">
        <ele>42.960341</ele>
        <time>2020-10-06T16:48:40.584Z</time>
      </trkpt>
      <trkpt lat="56.61221" lon="24.96344">
        <ele>45.715836</ele>
        <time>2020-10-06T16:49:23.972Z</time>
      </trkpt>
      <trkpt lat="56.61054" lon="24.96664">
        <ele>53.496782</ele>
        <time>2020-10-06T16:50:59.182Z</time>
      </trkpt>
      <trkpt lat="56.61035" lon="24.96706">
        <ele>53.68858</ele>
        <time>2020-10-06T16:51:08.239Z</time>
      </trkpt>
      <trkpt lat="56.60812" lon="24.97133">
        <ele>51.679241</ele>
        <time>2020-10-06T16:52:08.892Z</time>
      </trkpt>
      <trkpt lat="56.6073" lon="24.9732">
        <ele>50.500666</ele>
        <time>2020-10-06T16:52:34.131Z</time>
      </trkpt>
      <trkpt lat="56.60668" lon="24.97515">
        <ele>51.091319</ele>
        <time>2020-10-06T16:53:04.033Z</time>
      </trkpt>
      <trkpt lat="56.60632" lon="24.97704">
        <ele>51.937937</ele>
        <time>2020-10-06T16:53:34.415Z</time>
      </trkpt>
      <trkpt lat="56.60523" lon="24.98669">
        <ele>56.684334</ele>
        <time>2020-10-06T16:55:56.418Z</time>
      </trkpt>
      <trkpt lat="56.60457" lon="24.99064">
        <ele>55.584877</ele>
        <time>2020-10-06T16:56:42.178Z</time>
      </trkpt>
      <trkpt lat="56.60259" lon="25.0002">
        <ele>49.497689</ele>
        <time>2020-10-06T16:58:29.414Z</time>
      </trkpt>
      <trkpt lat="56.6025" lon="25.00081">
        <ele>49.131883</ele>
        <time>2020-10-06T16:58:36.129Z</time>
      </trkpt>
      <trkpt lat="56.6024" lon="25.00079">
        <ele>49.02703</ele>
        <time>2020-10-06T16:58:38.026Z</time>
      </trkpt>
      <trkpt lat="56.60228" lon="25.00086">
        <ele>48.892193</ele>
        <time>2020-10-06T16:58:40.435Z</time>
      </trkpt>
      <trkpt lat="56.60219" lon="25.00103">
        <ele>48.792537</ele>
        <time>2020-10-06T16:58:43.154Z</time>
      </trkpt>
      <trkpt lat="56.60218" lon="25.00139">
        <ele>48.708035</ele>
        <time>2020-10-06T16:58:46.945Z</time>
      </trkpt>
      <trkpt lat="56.60225" lon="25.00162">
        <ele>48.644452</ele>
        <time>2020-10-06T16:58:50.150Z</time>
      </trkpt>
      <trkpt lat="56.60241" lon="25.00173">
        <ele>48.572532</ele>
        <time>2020-10-06T16:58:53.433Z</time>
      </trkpt>
      <trkpt lat="56.60244" lon="25.0027">
        <ele>48.345463</ele>
        <time>2020-10-06T16:59:04.600Z</time>
      </trkpt>
      <trkpt lat="56.60261" lon="25.00758">
        <ele>48.060061</ele>
        <time>2020-10-06T17:00:03.906Z</time>
      </trkpt>
      <trkpt lat="56.60243" lon="25.01232">
        <ele>48.899221</ele>
        <time>2020-10-06T17:01:06.982Z</time>
      </trkpt>
      <trkpt lat="56.60233" lon="25.01365">
        <ele>49.093334</ele>
        <time>2020-10-06T17:01:23.812Z</time>
      </trkpt>
      <trkpt lat="56.60221" lon="25.015">
        <ele>48.863502</ele>
        <time>2020-10-06T17:01:40.039Z</time>
      </trkpt>
      <trkpt lat="56.60177" lon="25.01923">
        <ele>48.062391</ele>
        <time>2020-10-06T17:02:29.153Z</time>
      </trkpt>
      <trkpt lat="56.60203" lon="25.02258">
        <ele>48.130924</ele>
        <time>2020-10-06T17:03:10.317Z</time>
      </trkpt>
      <trkpt lat="56.6018" lon="25.02617">
        <ele>49.148898</ele>
        <time>2020-10-06T17:04:01.003Z</time>
      </trkpt>
      <trkpt lat="56.60205" lon="25.02957">
        <ele>49.513705</ele>
        <time>2020-10-06T17:04:43.223Z</time>
      </trkpt>
      <trkpt lat="56.60244" lon="25.03292">
        <ele>50.44679</ele>
        <time>2020-10-06T17:05:28.334Z</time>
      </trkpt>
      <trkpt lat="56.60309" lon="25.03572">
        <ele>52.263471</ele>
        <time>2020-10-06T17:06:14.950Z</time>
      </trkpt>
      <trkpt lat="56.60371" lon="25.03747">
        <ele>52.453533</ele>
        <time>2020-10-06T17:06:42.931Z</time>
      </trkpt>
      <trkpt lat="56.60562" lon="25.04339">
        <ele>50.116375</ele>
        <time>2020-10-06T17:07:57.908Z</time>
      </trkpt>
      <trkpt lat="56.60685" lon="25.04682">
        <ele>48.086405</ele>
        <time>2020-10-06T17:08:42.740Z</time>
      </trkpt>
      <trkpt lat="56.60845" lon="25.05068">
        <ele>42.990182</ele>
        <time>2020-10-06T17:09:30.518Z</time>
      </trkpt>
      <trkpt lat="56.60936" lon="25.05221">
        <ele>39.4846</ele>
        <time>2020-10-06T17:09:50.492Z</time>
      </trkpt>
      <trkpt lat="56.6098" lon="25.05301">
        <ele>37.824537</ele>
        <time>2020-10-06T17:10:00.596Z</time>
      </trkpt>
      <trkpt lat="56.61032" lon="25.05407">
        <ele>35.738333</ele>
        <time>2020-10-06T17:10:13.810Z</time>
      </trkpt>
      <trkpt lat="56.61069" lon="25.0549">
        <ele>34.656791</ele>
        <time>2020-10-06T17:10:24.314Z</time>
      </trkpt>
      <trkpt lat="56.61108" lon="25.05602">
        <ele>34.057199</ele>
        <time>2020-10-06T17:10:38.878Z</time>
      </trkpt>
      <trkpt lat="56.61147" lon="25.05738">
        <ele>33.394798</ele>
        <time>2020-10-06T17:10:56.671Z</time>
      </trkpt>
      <trkpt lat="56.61271" lon="25.06199">
        <ele>33.460753</ele>
        <time>2020-10-06T17:11:59.857Z</time>
      </trkpt>
      <trkpt lat="56.61275" lon="25.06215">
        <ele>33.469628</ele>
        <time>2020-10-06T17:12:02.146Z</time>
      </trkpt>
      <trkpt lat="56.61364" lon="25.06549">
        <ele>33.723378</ele>
        <time>2020-10-06T17:12:49.140Z</time>
      </trkpt>
      <trkpt lat="56.61391" lon="25.06652">
        <ele>33.770494</ele>
        <time>2020-10-06T17:13:03.399Z</time>
      </trkpt>
      <trkpt lat="56.61479" lon="25.06901">
        <ele>33.721695</ele>
        <time>2020-10-06T17:13:39.148Z</time>
      </trkpt>
      <trkpt lat="56.61528" lon="25.07008">
        <ele>33.798192</ele>
        <time>2020-10-06T17:13:56.167Z</time>
      </trkpt>
      <trkpt lat="56.61535" lon="25.07024">
        <ele>33.80935</ele>
        <time>2020-10-06T17:13:58.675Z</time>
      </trkpt>
      <trkpt lat="56.61563" lon="25.07104">
        <ele>33.861783</ele>
        <time>2020-10-06T17:14:10.694Z</time>
      </trkpt>
      <trkpt lat="56.61604" lon="25.07233">
        <ele>34.13154</ele>
        <time>2020-10-06T17:14:29.908Z</time>
      </trkpt>
      <trkpt lat="56.61619" lon="25.07271">
        <ele>34.254026</ele>
        <time>2020-10-06T17:14:35.950Z</time>
      </trkpt>
      <trkpt lat="56.61647" lon="25.07527">
        <ele>35.002239</ele>
        <time>2020-10-06T17:15:11.846Z</time>
      </trkpt>
      <trkpt lat="56.6166" lon="25.07679">
        <ele>35.521531</ele>
        <time>2020-10-06T17:15:32.740Z</time>
      </trkpt>
      <trkpt lat="56.61679" lon="25.07898">
        <ele>36.12537</ele>
        <time>2020-10-06T17:16:02.674Z</time>
      </trkpt>
      <trkpt lat="56.61693" lon="25.08069">
        <ele>36.492086</ele>
        <time>2020-10-06T17:16:25.095Z</time>
      </trkpt>
      <trkpt lat="56.61695" lon="25.08098">
        <ele>36.555222</ele>
        <time>2020-10-06T17:16:28.925Z</time>
      </trkpt>
      <trkpt lat="56.61698" lon="25.08131">
        <ele>36.550524</ele>
        <time>2020-10-06T17:16:33.150Z</time>
      </trkpt>
      <trkpt lat="56.61702" lon="25.08199">
        <ele>36.493791</ele>
        <time>2020-10-06T17:16:41.758Z</time>
      </trkpt>
      <trkpt lat="56.61704" lon="25.08234">
        <ele>36.465391</ele>
        <time>2020-10-06T17:16:45.979Z</time>
      </trkpt>
      <trkpt lat="56.61713" lon="25.08385">
        <ele>36.340891</ele>
        <time>2020-10-06T17:17:03.866Z</time>
      </trkpt>
      <trkpt lat="56.61715" lon="25.08415">
        <ele>36.316478</ele>
        <time>2020-10-06T17:17:07.252Z</time>
      </trkpt>
      <trkpt lat="56.61727" lon="25.0859">
        <ele>36.011623</ele>
        <time>2020-10-06T17:17:27.442Z</time>
      </trkpt>
      <trkpt lat="56.61739" lon="25.08722">
        <ele>35.77015</ele>
        <time>2020-10-06T17:17:42.983Z</time>
      </trkpt>
      <trkpt lat="56.61743" lon="25.08848">
        <ele>35.758329</ele>
        <time>2020-10-06T17:17:58.308Z</time>
      </trkpt>
      <trkpt lat="56.61744" lon="25.08898">
        <ele>35.782983</ele>
        <time>2020-10-06T17:18:04.698Z</time>
      </trkpt>
      <trkpt lat="56.61746" lon="25.08963">
        <ele>35.814242</ele>
        <time>2020-10-06T17:18:12.805Z</time>
      </trkpt>
      <trkpt lat="56.61754" lon="25.09026">
        <ele>35.845746</ele>
        <time>2020-10-06T17:18:21.044Z</time>
      </trkpt>
      <trkpt lat="56.61761" lon="25.09089">
        <ele>35.899896</ele>
        <time>2020-10-06T17:18:29.224Z</time>
      </trkpt>
      <trkpt lat="56.61772" lon="25.09197">
        <ele>36.173111</ele>
        <time>2020-10-06T17:18:43.325Z</time>
      </trkpt>
      <trkpt lat="56.6167" lon="25.09352">
        <ele>36.803343</ele>
        <time>2020-10-06T17:19:15.754Z</time>
      </trkpt>
      <trkpt lat="56.6166" lon="25.09385">
        <ele>36.929814</ele>
        <time>2020-10-06T17:19:21.097Z</time>
      </trkpt>
      <trkpt lat="56.61611" lon="25.0955">
        <ele>37.55721</ele>
        <time>2020-10-06T17:19:47.236Z</time>
      </trkpt>
      <trkpt lat="56.61522" lon="25.09985">
        <ele>38.366336</ele>
        <time>2020-10-06T17:20:47.502Z</time>
      </trkpt>
      <trkpt lat="56.61508" lon="25.10111">
        <ele>38.386601</ele>
        <time>2020-10-06T17:21:03.197Z</time>
      </trkpt>
      <trkpt lat="56.61477" lon="25.10376">
        <ele>38.64448</ele>
        <time>2020-10-06T17:21:35.595Z</time>
      </trkpt>
      <trkpt lat="56.61452" lon="25.10584">
        <ele>39.129834</ele>
        <time>2020-10-06T17:22:04.420Z</time>
      </trkpt>
      <trkpt lat="56.61449" lon="25.10612">
        <ele>39.306739</ele>
        <time>2020-10-06T17:22:08.478Z</time>
      </trkpt>
      <trkpt lat="56.61449" lon="25.10616">
        <ele>39.333891</ele>
        <time>2020-10-06T17:22:09.118Z</time>
      </trkpt>
      <trkpt lat="56.61428" lon="25.10753">
        <ele>40.207429</ele>
        <time>2020-10-06T17:22:30.098Z</time>
      </trkpt>
      <trkpt lat="56.61386" lon="25.1095">
        <ele>41.51374</ele>
        <time>2020-10-06T17:23:02.826Z</time>
      </trkpt>
      <trkpt lat="56.61318" lon="25.1114">
        <ele>42.901724</ele>
        <time>2020-10-06T17:23:35.514Z</time>
      </trkpt>
      <trkpt lat="56.61208" lon="25.11372">
        <ele>44.731672</ele>
        <time>2020-10-06T17:24:19.924Z</time>
      </trkpt>
      <trkpt lat="56.61046" lon="25.11712">
        <ele>47.776243</ele>
        <time>2020-10-06T17:25:29.158Z</time>
      </trkpt>
      <trkpt lat="56.61025" lon="25.11757">
        <ele>47.991582</ele>
        <time>2020-10-06T17:25:37.684Z</time>
      </trkpt>
      <trkpt lat="56.60873" lon="25.12063">
        <ele>48.629048</ele>
        <time>2020-10-06T17:26:29.620Z</time>
      </trkpt>
      <trkpt lat="56.60746" lon="25.12344">
        <ele>48.237213</ele>
        <time>2020-10-06T17:27:12.132Z</time>
      </trkpt>
      <trkpt lat="56.6067" lon="25.12487">
        <ele>48.210862</ele>
        <time>2020-10-06T17:27:35.781Z</time>
      </trkpt>
      <trkpt lat="56.60635" lon="25.12547">
        <ele>48.243951</ele>
        <time>2020-10-06T17:27:46.683Z</time>
      </trkpt>
      <trkpt lat="56.60612" lon="25.1258">
        <ele>48.263797</ele>
        <time>2020-10-06T17:27:53.417Z</time>
      </trkpt>
      <trkpt lat="56.60552" lon="25.12652">
        <ele>48.454547</ele>
        <time>2020-10-06T17:28:10.850Z</time>
      </trkpt>
      <trkpt lat="56.60473" lon="25.12739">
        <ele>48.785651</ele>
        <time>2020-10-06T17:28:32.777Z</time>
      </trkpt>
      <trkpt lat="56.60452" lon="25.12764">
        <ele>48.875102</ele>
        <time>2020-10-06T17:28:38.692Z</time>
      </trkpt>
      <trkpt lat="56.60363" lon="25.12869">
        <ele>49.103895</ele>
        <time>2020-10-06T17:29:03.481Z</time>
      </trkpt>
      <trkpt lat="56.6032" lon="25.12942">
        <ele>49.216894</ele>
        <time>2020-10-06T17:29:16.389Z</time>
      </trkpt>
      <trkpt lat="56.60228" lon="25.13162">
        <ele>50.051522</ele>
        <time>2020-10-06T17:29:52.535Z</time>
      </trkpt>
      <trkpt lat="56.60209" lon="25.13196">
        <ele>50.218654</ele>
        <time>2020-10-06T17:29:59.516Z</time>
      </trkpt>
      <trkpt lat="56.60202" lon="25.13209">
        <ele>50.284755</ele>
        <time>2020-10-06T17:30:02.218Z</time>
      </trkpt>
      <trkpt lat="56.60186" lon="25.13237">
        <ele>50.439375</ele>
        <time>2020-10-06T17:30:07.954Z</time>
      </trkpt>
      <trkpt lat="56.60094" lon="25.13393">
        <ele>52.592878</ele>
        <time>2020-10-06T17:30:43.785Z</time>
      </trkpt>
      <trkpt lat="56.60056" lon="25.13457">
        <ele>53.473402</ele>
        <time>2020-10-06T17:30:59.843Z</time>
      </trkpt>
      <trkpt lat="56.60006" lon="25.13551">
        <ele>55.564263</ele>
        <time>2020-10-06T17:31:23.673Z</time>
      </trkpt>
      <trkpt lat="56.59946" lon="25.13708">
        <ele>58.608125</ele>
        <time>2020-10-06T17:32:01.036Z</time>
      </trkpt>
      <trkpt lat="56.59911" lon="25.13811">
        <ele>60.125689</ele>
        <time>2020-10-06T17:32:23.346Z</time>
      </trkpt>
      <trkpt lat="56.59879" lon="25.13951">
        <ele>62.017501</ele>
        <time>2020-10-06T17:32:49.277Z</time>
      </trkpt>
      <trkpt lat="56.59855" lon="25.14065">
        <ele>63.054516</ele>
        <time>2020-10-06T17:33:07.952Z</time>
      </trkpt>
      <trkpt lat="56.5985" lon="25.14089">
        <ele>63.175703</ele>
        <time>2020-10-06T17:33:11.484Z</time>
      </trkpt>
      <trkpt lat="56.59735" lon="25.14663">
        <ele>65.458785</ele>
        <time>2020-10-06T17:34:34.921Z</time>
      </trkpt>
      <trkpt lat="56.59526" lon="25.15616">
        <ele>66.747342</ele>
        <time>2020-10-06T17:36:45.823Z</time>
      </trkpt>
      <trkpt lat="56.59429" lon="25.16284">
        <ele>66.699315</ele>
        <time>2020-10-06T17:38:11.760Z</time>
      </trkpt>
      <trkpt lat="56.59353" lon="25.1698">
        <ele>64.120084</ele>
        <time>2020-10-06T17:39:31.118Z</time>
      </trkpt>
      <trkpt lat="56.59278" lon="25.17384">
        <ele>60.406323</ele>
        <time>2020-10-06T17:40:12.744Z</time>
      </trkpt>
      <trkpt lat="56.59067" lon="25.18431">
        <ele>53.539861</ele>
        <time>2020-10-06T17:42:08.655Z</time>
      </trkpt>
      <trkpt lat="56.58968" lon="25.18814">
        <ele>55.28221</ele>
        <time>2020-10-06T17:43:13.405Z</time>
      </trkpt>
      <trkpt lat="56.5879" lon="25.19316">
        <ele>56.080996</ele>
        <time>2020-10-06T17:44:32.182Z</time>
      </trkpt>
      <trkpt lat="56.58586" lon="25.19903">
        <ele>51.88805</ele>
        <time>2020-10-06T17:45:43.898Z</time>
      </trkpt>
      <trkpt lat="56.58581" lon="25.19917">
        <ele>51.751367</ele>
        <time>2020-10-06T17:45:45.585Z</time>
      </trkpt>
      <trkpt lat="56.58565" lon="25.19965">
        <ele>51.274041</ele>
        <time>2020-10-06T17:45:51.130Z</time>
      </trkpt>
      <trkpt lat="56.58515" lon="25.20096">
        <ele>49.846582</ele>
        <time>2020-10-06T17:46:06.775Z</time>
      </trkpt>
      <trkpt lat="56.58442" lon="25.20222">
        <ele>48.107784</ele>
        <time>2020-10-06T17:46:24.859Z</time>
      </trkpt>
      <trkpt lat="56.58293" lon="25.2041">
        <ele>45.19941</ele>
        <time>2020-10-06T17:46:58.383Z</time>
      </trkpt>
      <trkpt lat="56.5825" lon="25.2046">
        <ele>44.406205</ele>
        <time>2020-10-06T17:47:07.422Z</time>
      </trkpt>
      <trkpt lat="56.58227" lon="25.20483">
        <ele>44.015263</ele>
        <time>2020-10-06T17:47:12.241Z</time>
      </trkpt>
      <trkpt lat="56.58224" lon="25.20509">
        <ele>43.796099</ele>
        <time>2020-10-06T17:47:14.727Z</time>
      </trkpt>
      <trkpt lat="56.5819" lon="25.20568">
        <ele>43.079364</ele>
        <time>2020-10-06T17:47:23.728Z</time>
      </trkpt>
      <trkpt lat="56.58171" lon="25.20591">
        <ele>42.726919</ele>
        <time>2020-10-06T17:47:27.972Z</time>
      </trkpt>
      <trkpt lat="56.58102" lon="25.20645">
        <ele>41.999018</ele>
        <time>2020-10-06T17:47:43.044Z</time>
      </trkpt>
      <trkpt lat="56.58036" lon="25.20684">
        <ele>42.17946</ele>
        <time>2020-10-06T17:47:59.545Z</time>
      </trkpt>
      <trkpt lat="56.58027" lon="25.20688">
        <ele>42.204562</ele>
        <time>2020-10-06T17:48:01.757Z</time>
      </trkpt>
      <trkpt lat="56.58011" lon="25.20693">
        <ele>42.247028</ele>
        <time>2020-10-06T17:48:06.291Z</time>
      </trkpt>
      <trkpt lat="56.5799" lon="25.20696">
        <ele>42.302731</ele>
        <time>2020-10-06T17:48:11.483Z</time>
      </trkpt>
      <trkpt lat="56.5797" lon="25.20695">
        <ele>42.353351</ele>
        <time>2020-10-06T17:48:17.021Z</time>
      </trkpt>
      <trkpt lat="56.57924" lon="25.20732">
        <ele>42.748024</ele>
        <time>2020-10-06T17:48:30.508Z</time>
      </trkpt>
      <trkpt lat="56.578" lon="25.20813">
        <ele>44.2657</ele>
        <time>2020-10-06T17:49:06.582Z</time>
      </trkpt>
      <trkpt lat="56.57778" lon="25.20828">
        <ele>44.526046</ele>
        <time>2020-10-06T17:49:12.759Z</time>
      </trkpt>
      <trkpt lat="56.57766" lon="25.20836">
        <ele>44.632311</ele>
        <time>2020-10-06T17:49:15.906Z</time>
      </trkpt>
      <trkpt lat="56.57738" lon="25.20858">
        <ele>44.885299</ele>
        <time>2020-10-06T17:49:23.641Z</time>
      </trkpt>
      <trkpt lat="56.57705" lon="25.20896">
        <ele>45.215657</ele>
        <time>2020-10-06T17:49:33.924Z</time>
      </trkpt>
      <trkpt lat="56.57683" lon="25.20927">
        <ele>45.450547</ele>
        <time>2020-10-06T17:49:41.396Z</time>
      </trkpt>
      <trkpt lat="56.57681" lon="25.2093">
        <ele>45.472675</ele>
        <time>2020-10-06T17:49:42.188Z</time>
      </trkpt>
      <trkpt lat="56.57629" lon="25.21016">
        <ele>45.962958</ele>
        <time>2020-10-06T17:49:59.616Z</time>
      </trkpt>
      <trkpt lat="56.57615" lon="25.2105">
        <ele>45.88201</ele>
        <time>2020-10-06T17:50:05.119Z</time>
      </trkpt>
      <trkpt lat="56.57605" lon="25.21081">
        <ele>45.813278</ele>
        <time>2020-10-06T17:50:09.736Z</time>
      </trkpt>
      <trkpt lat="56.57597" lon="25.21112">
        <ele>45.744341</ele>
        <time>2020-10-06T17:50:14.160Z</time>
      </trkpt>
      <trkpt lat="56.57588" lon="25.21144">
        <ele>45.676529</ele>
        <time>2020-10-06T17:50:18.537Z</time>
      </trkpt>
      <trkpt lat="56.57509" lon="25.2148">
        <ele>44.610149</ele>
        <time>2020-10-06T17:50:57.396Z</time>
      </trkpt>
      <trkpt lat="56.57484" lon="25.2161">
        <ele>44.324503</ele>
        <time>2020-10-06T17:51:13.154Z</time>
      </trkpt>
      <trkpt lat="56.57474" lon="25.21668">
        <ele>45.128827</ele>
        <time>2020-10-06T17:51:20.994Z</time>
      </trkpt>
      <trkpt lat="56.57462" lon="25.21731">
        <ele>46.013437</ele>
        <time>2020-10-06T17:51:31.121Z</time>
      </trkpt>
      <trkpt lat="56.57449" lon="25.21819">
        <ele>47.220796</ele>
        <time>2020-10-06T17:51:48.126Z</time>
      </trkpt>
      <trkpt lat="56.5744" lon="25.21931">
        <ele>48.962898</ele>
        <time>2020-10-06T17:52:13.822Z</time>
      </trkpt>
      <trkpt lat="56.57436" lon="25.22019">
        <ele>51.196311</ele>
        <time>2020-10-06T17:52:34.540Z</time>
      </trkpt>
      <trkpt lat="56.5743" lon="25.22129">
        <ele>54.006248</ele>
        <time>2020-10-06T17:53:00.229Z</time>
      </trkpt>
      <trkpt lat="56.57427" lon="25.22176">
        <ele>55.228136</ele>
        <time>2020-10-06T17:53:11.231Z</time>
      </trkpt>
      <trkpt lat="56.57408" lon="25.22283">
        <ele>57.45538</ele>
        <time>2020-10-06T17:53:35.875Z</time>
      </trkpt>
      <trkpt lat="56.57363" lon="25.22456">
        <ele>59.912228</ele>
        <time>2020-10-06T17:54:08.393Z</time>
      </trkpt>
      <trkpt lat="56.5733" lon="25.2258">
        <ele>61.235586</ele>
        <time>2020-10-06T17:54:28.482Z</time>
      </trkpt>
      <trkpt lat="56.57304" lon="25.22683">
        <ele>61.719174</ele>
        <time>2020-10-06T17:54:44.402Z</time>
      </trkpt>
      <trkpt lat="56.57256" lon="25.22879">
        <ele>62.579083</ele>
        <time>2020-10-06T17:55:13.473Z</time>
      </trkpt>
      <trkpt lat="56.57235" lon="25.22965">
        <ele>62.890594</ele>
        <time>2020-10-06T17:55:26.120Z</time>
      </trkpt>
      <trkpt lat="56.57224" lon="25.23013">
        <ele>63.06285</ele>
        <time>2020-10-06T17:55:33.069Z</time>
      </trkpt>
      <trkpt lat="56.57195" lon="25.23151">
        <ele>63.658324</ele>
        <time>2020-10-06T17:55:53.146Z</time>
      </trkpt>
      <trkpt lat="56.57194" lon="25.2316">
        <ele>63.737991</ele>
        <time>2020-10-06T17:55:54.269Z</time>
      </trkpt>
      <trkpt lat="56.57177" lon="25.23261">
        <ele>64.654272</ele>
        <time>2020-10-06T17:56:10.168Z</time>
      </trkpt>
      <trkpt lat="56.57165" lon="25.2336">
        <ele>65.540368</ele>
        <time>2020-10-06T17:56:26.621Z</time>
      </trkpt>
      <trkpt lat="56.5716" lon="25.23426">
        <ele>66.124346</ele>
        <time>2020-10-06T17:56:38.094Z</time>
      </trkpt>
      <trkpt lat="56.57156" lon="25.23495">
        <ele>66.88558</ele>
        <time>2020-10-06T17:56:50.505Z</time>
      </trkpt>
      <trkpt lat="56.57145" lon="25.23928">
        <ele>71.337431</ele>
        <time>2020-10-06T17:58:04.532Z</time>
      </trkpt>
      <trkpt lat="56.57143" lon="25.23969">
        <ele>71.62153</ele>
        <time>2020-10-06T17:58:10.443Z</time>
      </trkpt>
      <trkpt lat="56.57139" lon="25.24008">
        <ele>71.903062</ele>
        <time>2020-10-06T17:58:15.979Z</time>
      </trkpt>
      <trkpt lat="56.57104" lon="25.24251">
        <ele>72.596642</ele>
        <time>2020-10-06T17:58:47.603Z</time>
      </trkpt>
      <trkpt lat="56.57077" lon="25.2442">
        <ele>72.643118</ele>
        <time>2020-10-06T17:59:08.664Z</time>
      </trkpt>
      <trkpt lat="56.57042" lon="25.24624">
        <ele>72.64857</ele>
        <time>2020-10-06T17:59:35.671Z</time>
      </trkpt>
      <trkpt lat="56.57004" lon="25.24864">
        <ele>72.273937</ele>
        <time>2020-10-06T18:00:05.843Z</time>
      </trkpt>
      <trkpt lat="56.5699" lon="25.24955">
        <ele>72.028494</ele>
        <time>2020-10-06T18:00:16.001Z</time>
      </trkpt>
      <trkpt lat="56.56975" lon="25.25091">
        <ele>71.787229</ele>
        <time>2020-10-06T18:00:31.294Z</time>
      </trkpt>
      <trkpt lat="56.56971" lon="25.25135">
        <ele>71.77329</ele>
        <time>2020-10-06T18:00:36.302Z</time>
      </trkpt>
      <trkpt lat="56.56971" lon="25.25143">
        <ele>71.770856</ele>
        <time>2020-10-06T18:00:37.039Z</time>
      </trkpt>
      <trkpt lat="56.5696" lon="25.25416">
        <ele>72.095793</ele>
        <time>2020-10-06T18:01:11.849Z</time>
      </trkpt>
      <trkpt lat="56.5697" lon="25.25701">
        <ele>74.270437</ele>
        <time>2020-10-06T18:01:57.824Z</time>
      </trkpt>
      <trkpt lat="56.56978" lon="25.25797">
        <ele>75.058639</ele>
        <time>2020-10-06T18:02:13.270Z</time>
      </trkpt>
      <trkpt lat="56.56984" lon="25.25861">
        <ele>75.583763</ele>
        <time>2020-10-06T18:02:23.198Z</time>
      </trkpt>
      <trkpt lat="56.57022" lon="25.26223">
        <ele>78.624279</ele>
        <time>2020-10-06T18:03:19.145Z</time>
      </trkpt>
      <trkpt lat="56.57033" lon="25.26304">
        <ele>79.327833</ele>
        <time>2020-10-06T18:03:33.083Z</time>
      </trkpt>
      <trkpt lat="56.5704" lon="25.26348">
        <ele>79.702615</ele>
        <time>2020-10-06T18:03:40.521Z</time>
      </trkpt>
      <trkpt lat="56.57048" lon="25.26394">
        <ele>80.075591</ele>
        <time>2020-10-06T18:03:48.341Z</time>
      </trkpt>
      <trkpt lat="56.57056" lon="25.26437">
        <ele>80.437296</ele>
        <time>2020-10-06T18:03:56.112Z</time>
      </trkpt>
      <trkpt lat="56.57084" lon="25.26551">
        <ele>81.412407</ele>
        <time>2020-10-06T18:04:16.327Z</time>
      </trkpt>
      <trkpt lat="56.57153" lon="25.2675">
        <ele>81.831886</ele>
        <time>2020-10-06T18:04:47.306Z</time>
      </trkpt>
      <trkpt lat="56.57177" lon="25.26805">
        <ele>81.691893</ele>
        <time>2020-10-06T18:04:55.147Z</time>
      </trkpt>
      <trkpt lat="56.57202" lon="25.26855">
        <ele>81.559738</ele>
        <time>2020-10-06T18:05:02.254Z</time>
      </trkpt>
      <trkpt lat="56.57258" lon="25.26953">
        <ele>80.761731</ele>
        <time>2020-10-06T18:05:16.770Z</time>
      </trkpt>
      <trkpt lat="56.57299" lon="25.2701">
        <ele>80.078025</ele>
        <time>2020-10-06T18:05:26.094Z</time>
      </trkpt>
      <trkpt lat="56.57582" lon="25.27346">
        <ele>76.757304</ele>
        <time>2020-10-06T18:06:30.765Z</time>
      </trkpt>
      <trkpt lat="56.57632" lon="25.27411">
        <ele>76.492313</ele>
        <time>2020-10-06T18:06:44.488Z</time>
      </trkpt>
      <trkpt lat="56.5768" lon="25.27488">
        <ele>76.461965</ele>
        <time>2020-10-06T18:06:59.466Z</time>
      </trkpt>
      <trkpt lat="56.57731" lon="25.27582">
        <ele>76.74805</ele>
        <time>2020-10-06T18:07:17.113Z</time>
      </trkpt>
      <trkpt lat="56.57774" lon="25.27694">
        <ele>77.047489</ele>
        <time>2020-10-06T18:07:35.434Z</time>
      </trkpt>
      <trkpt lat="56.57802" lon="25.27801">
        <ele>77.218769</ele>
        <time>2020-10-06T18:07:50.535Z</time>
      </trkpt>
      <trkpt lat="56.57821" lon="25.27955">
        <ele>77.444496</ele>
        <time>2020-10-06T18:08:10.512Z</time>
      </trkpt>
      <trkpt lat="56.57825" lon="25.28075">
        <ele>77.67303</ele>
        <time>2020-10-06T18:08:25.943Z</time>
      </trkpt>
      <trkpt lat="56.57816" lon="25.28388">
        <ele>78.404389</ele>
        <time>2020-10-06T18:09:07.766Z</time>
      </trkpt>
      <trkpt lat="56.5781" lon="25.28489">
        <ele>78.657366</ele>
        <time>2020-10-06T18:09:21.543Z</time>
      </trkpt>
      <trkpt lat="56.57793" lon="25.28622">
        <ele>78.999001</ele>
        <time>2020-10-06T18:09:39.790Z</time>
      </trkpt>
      <trkpt lat="56.57711" lon="25.29099">
        <ele>79.742086</ele>
        <time>2020-10-06T18:10:43.291Z</time>
      </trkpt>
      <trkpt lat="56.57658" lon="25.29378">
        <ele>80.567857</ele>
        <time>2020-10-06T18:11:22.732Z</time>
      </trkpt>
      <trkpt lat="56.57588" lon="25.29678">
        <ele>82.109188</ele>
        <time>2020-10-06T18:12:09.216Z</time>
      </trkpt>
      <trkpt lat="56.57423" lon="25.30315">
        <ele>86.409831</ele>
        <time>2020-10-06T18:13:53.805Z</time>
      </trkpt>
      <trkpt lat="56.57397" lon="25.30427">
        <ele>87.111635</ele>
        <time>2020-10-06T18:14:11.146Z</time>
      </trkpt>
      <trkpt lat="56.57362" lon="25.30591">
        <ele>87.977413</ele>
        <time>2020-10-06T18:14:36.114Z</time>
      </trkpt>
      <trkpt lat="56.5729" lon="25.3095">
        <ele>89.733924</ele>
        <time>2020-10-06T18:15:30.176Z</time>
      </trkpt>
      <trkpt lat="56.57214" lon="25.31272">
        <ele>91.417017</ele>
        <time>2020-10-06T18:16:19.636Z</time>
      </trkpt>
      <trkpt lat="56.57132" lon="25.31593">
        <ele>93.274717</ele>
        <time>2020-10-06T18:17:10.440Z</time>
      </trkpt>
      <trkpt lat="56.57105" lon="25.31714">
        <ele>93.996501</ele>
        <time>2020-10-06T18:17:29.576Z</time>
      </trkpt>
      <trkpt lat="56.5707" lon="25.31904">
        <ele>95.188808</ele>
        <time>2020-10-06T18:17:59.301Z</time>
      </trkpt>
      <trkpt lat="56.57038" lon="25.32189">
        <ele>96.836891</ele>
        <time>2020-10-06T18:18:41.750Z</time>
      </trkpt>
      <trkpt lat="56.56966" lon="25.32992">
        <ele>101.223897</ele>
        <time>2020-10-06T18:20:38.187Z</time>
      </trkpt>
      <trkpt lat="56.56952" lon="25.331">
        <ele>102.179606</ele>
        <time>2020-10-06T18:20:55.929Z</time>
      </trkpt>
      <trkpt lat="56.56941" lon="25.33184">
        <ele>102.916197</ele>
        <time>2020-10-06T18:21:09.934Z</time>
      </trkpt>
      <trkpt lat="56.56823" lon="25.33979">
        <ele>109.958662</ele>
        <time>2020-10-06T18:23:20.371Z</time>
      </trkpt>
      <trkpt lat="56.56795" lon="25.34113">
        <ele>110.851718</ele>
        <time>2020-10-06T18:23:41.491Z</time>
      </trkpt>
      <trkpt lat="56.56777" lon="25.34172">
        <ele>111.266491</ele>
        <time>2020-10-06T18:23:51.038Z</time>
      </trkpt>
      <trkpt lat="56.56776" lon="25.34176">
        <ele>111.299258</ele>
        <time>2020-10-06T18:23:51.893Z</time>
      </trkpt>
      <trkpt lat="56.56765" lon="25.34209">
        <ele>111.51867</ele>
        <time>2020-10-06T18:23:57.242Z</time>
      </trkpt>
      <trkpt lat="56.56721" lon="25.34319">
        <ele>111.80673</ele>
        <time>2020-10-06T18:24:15.917Z</time>
      </trkpt>
      <trkpt lat="56.5666" lon="25.34426">
        <ele>112.133426</ele>
        <time>2020-10-06T18:24:35.809Z</time>
      </trkpt>
      <trkpt lat="56.56658" lon="25.34428">
        <ele>112.141719</ele>
        <time>2020-10-06T18:24:36.462Z</time>
      </trkpt>
      <trkpt lat="56.56636" lon="25.3446">
        <ele>112.109592</ele>
        <time>2020-10-06T18:24:42.546Z</time>
      </trkpt>
      <trkpt lat="56.5654" lon="25.34569">
        <ele>111.305574</ele>
        <time>2020-10-06T18:25:05.972Z</time>
      </trkpt>
      <trkpt lat="56.56316" lon="25.34798">
        <ele>107.32258</ele>
        <time>2020-10-06T18:25:53.086Z</time>
      </trkpt>
      <trkpt lat="56.56272" lon="25.34859">
        <ele>105.728385</ele>
        <time>2020-10-06T18:26:02.287Z</time>
      </trkpt>
      <trkpt lat="56.56157" lon="25.35071">
        <ele>101.165806</ele>
        <time>2020-10-06T18:26:28.799Z</time>
      </trkpt>
      <trkpt lat="56.56102" lon="25.35196">
        <ele>98.840382</ele>
        <time>2020-10-06T18:26:43.683Z</time>
      </trkpt>
      <trkpt lat="56.56053" lon="25.35346">
        <ele>97.4292</ele>
        <time>2020-10-06T18:27:01.304Z</time>
      </trkpt>
      <trkpt lat="56.56024" lon="25.35467">
        <ele>96.734042</ele>
        <time>2020-10-06T18:27:16.067Z</time>
      </trkpt>
      <trkpt lat="56.55996" lon="25.35599">
        <ele>96.188225</ele>
        <time>2020-10-06T18:27:32.414Z</time>
      </trkpt>
      <trkpt lat="56.55969" lon="25.35723">
        <ele>95.861197</ele>
        <time>2020-10-06T18:27:47.945Z</time>
      </trkpt>
      <trkpt lat="56.5595" lon="25.35808">
        <ele>95.636321</ele>
        <time>2020-10-06T18:27:58.511Z</time>
      </trkpt>
      <trkpt lat="56.55908" lon="25.35968">
        <ele>94.722135</ele>
        <time>2020-10-06T18:28:18.268Z</time>
      </trkpt>
      <trkpt lat="56.55874" lon="25.36073">
        <ele>94.022705</ele>
        <time>2020-10-06T18:28:30.878Z</time>
      </trkpt>
      <trkpt lat="56.55843" lon="25.36154">
        <ele>93.212377</ele>
        <time>2020-10-06T18:28:40.928Z</time>
      </trkpt>
      <trkpt lat="56.55811" lon="25.36224">
        <ele>92.144067</ele>
        <time>2020-10-06T18:28:49.869Z</time>
      </trkpt>
      <trkpt lat="56.55723" lon="25.36413">
        <ele>88.919274</ele>
        <time>2020-10-06T18:29:13.192Z</time>
      </trkpt>
      <trkpt lat="56.55608" lon="25.36659">
        <ele>83.176082</ele>
        <time>2020-10-06T18:29:41.961Z</time>
      </trkpt>
      <trkpt lat="56.55564" lon="25.36781">
        <ele>80.297359</ele>
        <time>2020-10-06T18:29:54.793Z</time>
      </trkpt>
      <trkpt lat="56.55545" lon="25.36851">
        <ele>78.752852</ele>
        <time>2020-10-06T18:30:01.694Z</time>
      </trkpt>
      <trkpt lat="56.55526" lon="25.36954">
        <ele>76.949183</ele>
        <time>2020-10-06T18:30:11.358Z</time>
      </trkpt>
      <trkpt lat="56.55512" lon="25.37073">
        <ele>75.335534</ele>
        <time>2020-10-06T18:30:22.530Z</time>
      </trkpt>
      <trkpt lat="56.55509" lon="25.3713">
        <ele>74.5607</ele>
        <time>2020-10-06T18:30:28.094Z</time>
      </trkpt>
      <trkpt lat="56.55507" lon="25.37198">
        <ele>73.660296</ele>
        <time>2020-10-06T18:30:34.795Z</time>
      </trkpt>
      <trkpt lat="56.55514" lon="25.37359">
        <ele>72.988494</ele>
        <time>2020-10-06T18:30:52.021Z</time>
      </trkpt>
      <trkpt lat="56.55525" lon="25.37443">
        <ele>72.783325</ele>
        <time>2020-10-06T18:31:02.182Z</time>
      </trkpt>
      <trkpt lat="56.5559" lon="25.37858">
        <ele>73.240429</ele>
        <time>2020-10-06T18:31:58.977Z</time>
      </trkpt>
      <trkpt lat="56.55646" lon="25.38166">
        <ele>74.005021</ele>
        <time>2020-10-06T18:32:42.791Z</time>
      </trkpt>
      <trkpt lat="56.55716" lon="25.38509">
        <ele>73.486669</ele>
        <time>2020-10-06T18:33:25.457Z</time>
      </trkpt>
      <trkpt lat="56.55752" lon="25.3873">
        <ele>72.74535</ele>
        <time>2020-10-06T18:33:50.939Z</time>
      </trkpt>
      <trkpt lat="56.5577" lon="25.38904">
        <ele>72.32143</ele>
        <time>2020-10-06T18:34:11.097Z</time>
      </trkpt>
      <trkpt lat="56.55775" lon="25.39051">
        <ele>72.028441</ele>
        <time>2020-10-06T18:34:28.398Z</time>
      </trkpt>
      <trkpt lat="56.55773" lon="25.3914">
        <ele>71.834107</ele>
        <time>2020-10-06T18:34:38.992Z</time>
      </trkpt>
      <trkpt lat="56.55773" lon="25.39198">
        <ele>71.683631</ele>
        <time>2020-10-06T18:34:45.884Z</time>
      </trkpt>
      <trkpt lat="56.55762" lon="25.39466">
        <ele>70.942476</ele>
        <time>2020-10-06T18:35:16.322Z</time>
      </trkpt>
      <trkpt lat="56.55758" lon="25.39529">
        <ele>70.682945</ele>
        <time>2020-10-06T18:35:23.167Z</time>
      </trkpt>
      <trkpt lat="56.55753" lon="25.39562">
        <ele>70.54156</ele>
        <time>2020-10-06T18:35:26.899Z</time>
      </trkpt>
      <trkpt lat="56.55729" lon="25.39642">
        <ele>70.163575</ele>
        <time>2020-10-06T18:35:36.810Z</time>
      </trkpt>
      <trkpt lat="56.55712" lon="25.39672">
        <ele>69.985073</ele>
        <time>2020-10-06T18:35:41.435Z</time>
      </trkpt>
      <trkpt lat="56.55698" lon="25.3969">
        <ele>69.861231</ele>
        <time>2020-10-06T18:35:44.612Z</time>
      </trkpt>
      <trkpt lat="56.55675" lon="25.39712">
        <ele>69.705373</ele>
        <time>2020-10-06T18:35:50.002Z</time>
      </trkpt>
      <trkpt lat="56.55628" lon="25.39738">
        <ele>69.6384</ele>
        <time>2020-10-06T18:36:00.014Z</time>
      </trkpt>
      <trkpt lat="56.55581" lon="25.39763">
        <ele>69.572165</ele>
        <time>2020-10-06T18:36:10.465Z</time>
      </trkpt>
      <trkpt lat="56.5556" lon="25.39775">
        <ele>69.542309</ele>
        <time>2020-10-06T18:36:15.178Z</time>
      </trkpt>
      <trkpt lat="56.55544" lon="25.39786">
        <ele>69.518758</ele>
        <time>2020-10-06T18:36:19.257Z</time>
      </trkpt>
      <trkpt lat="56.55504" lon="25.39816">
        <ele>69.54363</ele>
        <time>2020-10-06T18:36:29.490Z</time>
      </trkpt>
      <trkpt lat="56.55442" lon="25.3989">
        <ele>70.264675</ele>
        <time>2020-10-06T18:36:48.346Z</time>
      </trkpt>
      <trkpt lat="56.55391" lon="25.39988">
        <ele>70.984169</ele>
        <time>2020-10-06T18:37:08.978Z</time>
      </trkpt>
      <trkpt lat="56.55356" lon="25.4009">
        <ele>71.502558</ele>
        <time>2020-10-06T18:37:26.630Z</time>
      </trkpt>
      <trkpt lat="56.55352" lon="25.40105">
        <ele>71.563962</ele>
        <time>2020-10-06T18:37:29.307Z</time>
      </trkpt>
      <trkpt lat="56.55345" lon="25.40131">
        <ele>71.669726</ele>
        <time>2020-10-06T18:37:33.280Z</time>
      </trkpt>
      <trkpt lat="56.5534" lon="25.40155">
        <ele>71.763824</ele>
        <time>2020-10-06T18:37:36.832Z</time>
      </trkpt>
      <trkpt lat="56.55322" lon="25.40278">
        <ele>72.231343</ele>
        <time>2020-10-06T18:37:53.912Z</time>
      </trkpt>
      <trkpt lat="56.55318" lon="25.40357">
        <ele>72.403502</ele>
        <time>2020-10-06T18:38:04.280Z</time>
      </trkpt>
      <trkpt lat="56.55324" lon="25.40492">
        <ele>72.320047</ele>
        <time>2020-10-06T18:38:20.215Z</time>
      </trkpt>
      <trkpt lat="56.55332" lon="25.40556">
        <ele>72.280141</ele>
        <time>2020-10-06T18:38:27.854Z</time>
      </trkpt>
      <trkpt lat="56.55347" lon="25.40631">
        <ele>72.231044</ele>
        <time>2020-10-06T18:38:37.400Z</time>
      </trkpt>
      <trkpt lat="56.55394" lon="25.40838">
        <ele>72.066748</ele>
        <time>2020-10-06T18:39:04.591Z</time>
      </trkpt>
      <trkpt lat="56.55403" lon="25.40877">
        <ele>72.035464</ele>
        <time>2020-10-06T18:39:09.650Z</time>
      </trkpt>
      <trkpt lat="56.55423" lon="25.40962">
        <ele>71.948814</ele>
        <time>2020-10-06T18:39:20.772Z</time>
      </trkpt>
      <trkpt lat="56.5543" lon="25.40993">
        <ele>71.886526</ele>
        <time>2020-10-06T18:39:24.633Z</time>
      </trkpt>
      <trkpt lat="56.55448" lon="25.41077">
        <ele>71.716857</ele>
        <time>2020-10-06T18:39:35.161Z</time>
      </trkpt>
      <trkpt lat="56.55474" lon="25.41187">
        <ele>71.490381</ele>
        <time>2020-10-06T18:39:48.914Z</time>
      </trkpt>
      <trkpt lat="56.5552" lon="25.41409">
        <ele>71.174355</ele>
        <time>2020-10-06T18:40:16.316Z</time>
      </trkpt>
      <trkpt lat="56.55559" lon="25.41715">
        <ele>71.120219</ele>
        <time>2020-10-06T18:40:55.221Z</time>
      </trkpt>
      <trkpt lat="56.55615" lon="25.42039">
        <ele>71.458027</ele>
        <time>2020-10-06T18:41:38.756Z</time>
      </trkpt>
      <trkpt lat="56.55662" lon="25.42554">
        <ele>72.073273</ele>
        <time>2020-10-06T18:42:44.852Z</time>
      </trkpt>
      <trkpt lat="56.55668" lon="25.42618">
        <ele>72.220802</ele>
        <time>2020-10-06T18:42:53.413Z</time>
      </trkpt>
      <trkpt lat="56.55672" lon="25.42682">
        <ele>72.366392</ele>
        <time>2020-10-06T18:43:01.928Z</time>
      </trkpt>
      <trkpt lat="56.55677" lon="25.42868">
        <ele>72.796237</ele>
        <time>2020-10-06T18:43:27.042Z</time>
      </trkpt>
      <trkpt lat="56.55699" lon="25.43164">
        <ele>73.561934</ele>
        <time>2020-10-06T18:44:06.922Z</time>
      </trkpt>
      <trkpt lat="56.5569" lon="25.43391">
        <ele>73.960222</ele>
        <time>2020-10-06T18:44:36.718Z</time>
      </trkpt>
      <trkpt lat="56.55696" lon="25.43543">
        <ele>74.195664</ele>
        <time>2020-10-06T18:44:56.195Z</time>
      </trkpt>
      <trkpt lat="56.55709" lon="25.43666">
        <ele>74.345785</ele>
        <time>2020-10-06T18:45:12.127Z</time>
      </trkpt>
      <trkpt lat="56.55749" lon="25.43889">
        <ele>74.571308</ele>
        <time>2020-10-06T18:45:41.838Z</time>
      </trkpt>
      <trkpt lat="56.55775" lon="25.44096">
        <ele>74.691171</ele>
        <time>2020-10-06T18:46:08.347Z</time>
      </trkpt>
      <trkpt lat="56.55822" lon="25.44362">
        <ele>74.820499</ele>
        <time>2020-10-06T18:46:43.307Z</time>
      </trkpt>
      <trkpt lat="56.55861" lon="25.44649">
        <ele>74.995988</ele>
        <time>2020-10-06T18:47:20.188Z</time>
      </trkpt>
      <trkpt lat="56.55893" lon="25.44973">
        <ele>75.280129</ele>
        <time>2020-10-06T18:48:01.700Z</time>
      </trkpt>
      <trkpt lat="56.55891" lon="25.45268">
        <ele>75.868293</ele>
        <time>2020-10-06T18:48:39.755Z</time>
      </trkpt>
      <trkpt lat="56.55895" lon="25.45383">
        <ele>76.15934</ele>
        <time>2020-10-06T18:48:55.303Z</time>
      </trkpt>
      <trkpt lat="56.55934" lon="25.45652">
        <ele>77.729415</ele>
        <time>2020-10-06T18:49:35.946Z</time>
      </trkpt>
      <trkpt lat="56.55952" lon="25.45747">
        <ele>78.378827</ele>
        <time>2020-10-06T18:49:51.175Z</time>
      </trkpt>
      <trkpt lat="56.5596" lon="25.45787">
        <ele>78.705325</ele>
        <time>2020-10-06T18:49:57.687Z</time>
      </trkpt>
      <trkpt lat="56.56049" lon="25.46176">
        <ele>82.115372</ele>
        <time>2020-10-06T18:51:02.454Z</time>
      </trkpt>
      <trkpt lat="56.56065" lon="25.46258">
        <ele>82.888464</ele>
        <time>2020-10-06T18:51:16.663Z</time>
      </trkpt>
      <trkpt lat="56.56076" lon="25.46316">
        <ele>83.427813</ele>
        <time>2020-10-06T18:51:26.691Z</time>
      </trkpt>
      <trkpt lat="56.56089" lon="25.46388">
        <ele>84.098686</ele>
        <time>2020-10-06T18:51:39.112Z</time>
      </trkpt>
      <trkpt lat="56.56103" lon="25.46522">
        <ele>85.313057</ele>
        <time>2020-10-06T18:52:01.636Z</time>
      </trkpt>
      <trkpt lat="56.56166" lon="25.47379">
        <ele>90.851091</ele>
        <time>2020-10-06T18:54:10.647Z</time>
      </trkpt>
      <trkpt lat="56.5622" lon="25.47984">
        <ele>91.751187</ele>
        <time>2020-10-06T18:55:26.826Z</time>
      </trkpt>
      <trkpt lat="56.56237" lon="25.48186">
        <ele>92.538174</ele>
        <time>2020-10-06T18:55:55.311Z</time>
      </trkpt>
      <trkpt lat="56.56242" lon="25.48239">
        <ele>92.747102</ele>
        <time>2020-10-06T18:56:03.255Z</time>
      </trkpt>
      <trkpt lat="56.56266" lon="25.48539">
        <ele>94.491751</ele>
        <time>2020-10-06T18:56:48.399Z</time>
      </trkpt>
      <trkpt lat="56.5628" lon="25.48724">
        <ele>94.914293</ele>
        <time>2020-10-06T18:57:14.330Z</time>
      </trkpt>
      <trkpt lat="56.5629" lon="25.48858">
        <ele>95.09488</ele>
        <time>2020-10-06T18:57:31.723Z</time>
      </trkpt>
      <trkpt lat="56.56339" lon="25.49402">
        <ele>91.867942</ele>
        <time>2020-10-06T18:58:30.970Z</time>
      </trkpt>
      <trkpt lat="56.56348" lon="25.49513">
        <ele>90.780962</ele>
        <time>2020-10-06T18:58:41.494Z</time>
      </trkpt>
      <trkpt lat="56.56356" lon="25.49619">
        <ele>89.199594</ele>
        <time>2020-10-06T18:58:51.134Z</time>
      </trkpt>
      <trkpt lat="56.56397" lon="25.49961">
        <ele>84.102577</ele>
        <time>2020-10-06T18:59:22.672Z</time>
      </trkpt>
      <trkpt lat="56.56403" lon="25.50013">
        <ele>83.675761</ele>
        <time>2020-10-06T18:59:27.994Z</time>
      </trkpt>
      <trkpt lat="56.56409" lon="25.5007">
        <ele>83.218302</ele>
        <time>2020-10-06T18:59:33.956Z</time>
      </trkpt>
      <trkpt lat="56.56429" lon="25.50327">
        <ele>82.460158</ele>
        <time>2020-10-06T19:00:06.289Z</time>
      </trkpt>
      <trkpt lat="56.56467" lon="25.50682">
        <ele>82.565831</ele>
        <time>2020-10-06T19:00:54.068Z</time>
      </trkpt>
      <trkpt lat="56.56468" lon="25.50701">
        <ele>82.550689</ele>
        <time>2020-10-06T19:00:56.399Z</time>
      </trkpt>
      <trkpt lat="56.56473" lon="25.50762">
        <ele>82.501054</ele>
        <time>2020-10-06T19:01:03.312Z</time>
      </trkpt>
      <trkpt lat="56.56484" lon="25.50842">
        <ele>82.356637</ele>
        <time>2020-10-06T19:01:12.188Z</time>
      </trkpt>
      <trkpt lat="56.565" lon="25.50918">
        <ele>81.79419</ele>
        <time>2020-10-06T19:01:20.678Z</time>
      </trkpt>
      <trkpt lat="56.56519" lon="25.50984">
        <ele>81.290698</ele>
        <time>2020-10-06T19:01:28.101Z</time>
      </trkpt>
      <trkpt lat="56.56735" lon="25.51522">
        <ele>76.900559</ele>
        <time>2020-10-06T19:02:37.202Z</time>
      </trkpt>
      <trkpt lat="56.56774" lon="25.51641">
        <ele>76.09616</ele>
        <time>2020-10-06T19:02:52.219Z</time>
      </trkpt>
      <trkpt lat="56.56781" lon="25.51669">
        <ele>75.990592</ele>
        <time>2020-10-06T19:02:55.471Z</time>
      </trkpt>
      <trkpt lat="56.56843" lon="25.51973">
        <ele>75.015401</ele>
        <time>2020-10-06T19:03:32.351Z</time>
      </trkpt>
      <trkpt lat="56.56925" lon="25.52302">
        <ele>74.193416</ele>
        <time>2020-10-06T19:04:13.814Z</time>
      </trkpt>
      <trkpt lat="56.5697" lon="25.52459">
        <ele>73.96876</ele>
        <time>2020-10-06T19:04:34.632Z</time>
      </trkpt>
      <trkpt lat="56.56986" lon="25.52566">
        <ele>73.857614</ele>
        <time>2020-10-06T19:04:48.007Z</time>
      </trkpt>
      <trkpt lat="56.56982" lon="25.5266">
        <ele>73.891121</ele>
        <time>2020-10-06T19:04:59.715Z</time>
      </trkpt>
      <trkpt lat="56.56962" lon="25.52754">
        <ele>73.926468</ele>
        <time>2020-10-06T19:05:12.184Z</time>
      </trkpt>
      <trkpt lat="56.56861" lon="25.53032">
        <ele>74.037411</ele>
        <time>2020-10-06T19:05:53.903Z</time>
      </trkpt>
      <trkpt lat="56.5684" lon="25.53108">
        <ele>74.064601</ele>
        <time>2020-10-06T19:06:04.330Z</time>
      </trkpt>
      <trkpt lat="56.56832" lon="25.53167">
        <ele>74.037902</ele>
        <time>2020-10-06T19:06:11.833Z</time>
      </trkpt>
      <trkpt lat="56.56842" lon="25.5354">
        <ele>73.716031</ele>
        <time>2020-10-06T19:06:56.349Z</time>
      </trkpt>
      <trkpt lat="56.56841" lon="25.53746">
        <ele>73.542705</ele>
        <time>2020-10-06T19:07:20.505Z</time>
      </trkpt>
      <trkpt lat="56.56835" lon="25.54375">
        <ele>74.881184</ele>
        <time>2020-10-06T19:08:40.986Z</time>
      </trkpt>
      <trkpt lat="56.56727" lon="25.55191">
        <ele>82.960185</ele>
        <time>2020-10-06T19:11:05.222Z</time>
      </trkpt>
      <trkpt lat="56.56628" lon="25.55624">
        <ele>81.113648</ele>
        <time>2020-10-06T19:11:53.838Z</time>
      </trkpt>
      <trkpt lat="56.56577" lon="25.55908">
        <ele>79.244041</ele>
        <time>2020-10-06T19:12:24.798Z</time>
      </trkpt>
      <trkpt lat="56.56557" lon="25.56037">
        <ele>78.566063</ele>
        <time>2020-10-06T19:12:39.606Z</time>
      </trkpt>
      <trkpt lat="56.56556" lon="25.56048">
        <ele>78.528746</ele>
        <time>2020-10-06T19:12:40.820Z</time>
      </trkpt>
      <trkpt lat="56.56521" lon="25.56372">
        <ele>77.394394</ele>
        <time>2020-10-06T19:13:17.980Z</time>
      </trkpt>
      <trkpt lat="56.5652" lon="25.56402">
        <ele>77.295956</ele>
        <time>2020-10-06T19:13:21.181Z</time>
      </trkpt>
      <trkpt lat="56.56515" lon="25.56644">
        <ele>76.499359</ele>
        <time>2020-10-06T19:13:48.196Z</time>
      </trkpt>
      <trkpt lat="56.56546" lon="25.57493">
        <ele>75.145888</ele>
        <time>2020-10-06T19:15:27.849Z</time>
      </trkpt>
      <trkpt lat="56.56565" lon="25.57682">
        <ele>74.990712</ele>
        <time>2020-10-06T19:15:50.828Z</time>
      </trkpt>
      <trkpt lat="56.56609" lon="25.57882">
        <ele>74.988931</ele>
        <time>2020-10-06T19:16:17.245Z</time>
      </trkpt>
      <trkpt lat="56.56661" lon="25.58067">
        <ele>75.234884</ele>
        <time>2020-10-06T19:16:44.107Z</time>
      </trkpt>
      <trkpt lat="56.56789" lon="25.58487">
        <ele>75.695206</ele>
        <time>2020-10-06T19:17:46.522Z</time>
      </trkpt>
      <trkpt lat="56.56824" lon="25.5865">
        <ele>74.680164</ele>
        <time>2020-10-06T19:18:05.095Z</time>
      </trkpt>
      <trkpt lat="56.56838" lon="25.58705">
        <ele>74.331711</ele>
        <time>2020-10-06T19:18:11.170Z</time>
      </trkpt>
      <trkpt lat="56.5686" lon="25.58767">
        <ele>73.901422</ele>
        <time>2020-10-06T19:18:18.616Z</time>
      </trkpt>
      <trkpt lat="56.56888" lon="25.58835">
        <ele>73.62638</ele>
        <time>2020-10-06T19:18:27.331Z</time>
      </trkpt>
      <trkpt lat="56.56915" lon="25.58892">
        <ele>73.447963</ele>
        <time>2020-10-06T19:18:35.097Z</time>
      </trkpt>
      <trkpt lat="56.56927" lon="25.58916">
        <ele>73.371785</ele>
        <time>2020-10-06T19:18:38.549Z</time>
      </trkpt>
      <trkpt lat="56.56984" lon="25.5903">
        <ele>73.007458</ele>
        <time>2020-10-06T19:18:57.409Z</time>
      </trkpt>
      <trkpt lat="56.57058" lon="25.5918">
        <ele>75.484837</ele>
        <time>2020-10-06T19:19:30.348Z</time>
      </trkpt>
      <trkpt lat="56.57103" lon="25.59282">
        <ele>77.13168</ele>
        <time>2020-10-06T19:19:55.906Z</time>
      </trkpt>
      <trkpt lat="56.57128" lon="25.59356">
        <ele>78.72927</ele>
        <time>2020-10-06T19:20:14.043Z</time>
      </trkpt>
      <trkpt lat="56.5714" lon="25.59407">
        <ele>79.751092</ele>
        <time>2020-10-06T19:20:25.711Z</time>
      </trkpt>
      <trkpt lat="56.5717" lon="25.59621">
        <ele>83.198393</ele>
        <time>2020-10-06T19:21:09.211Z</time>
      </trkpt>
      <trkpt lat="56.57189" lon="25.59822">
        <ele>83.951016</ele>
        <time>2020-10-06T19:21:38.703Z</time>
      </trkpt>
      <trkpt lat="56.57189" lon="25.60213">
        <ele>81.161127</ele>
        <time>2020-10-06T19:22:17.233Z</time>
      </trkpt>
      <trkpt lat="56.57183" lon="25.60385">
        <ele>79.421766</ele>
        <time>2020-10-06T19:22:33.576Z</time>
      </trkpt>
      <trkpt lat="56.57179" lon="25.60457">
        <ele>78.688275</ele>
        <time>2020-10-06T19:22:40.654Z</time>
      </trkpt>
      <trkpt lat="56.57161" lon="25.60607">
        <ele>77.753981</ele>
        <time>2020-10-06T19:22:56.535Z</time>
      </trkpt>
      <trkpt lat="56.57145" lon="25.60693">
        <ele>77.836345</ele>
        <time>2020-10-06T19:23:06.835Z</time>
      </trkpt>
      <trkpt lat="56.57106" lon="25.60851">
        <ele>77.994618</ele>
        <time>2020-10-06T19:23:30.960Z</time>
      </trkpt>
      <trkpt lat="56.57074" lon="25.60961">
        <ele>80.408587</ele>
        <time>2020-10-06T19:23:52.222Z</time>
      </trkpt>
      <trkpt lat="56.56858" lon="25.61599">
        <ele>95.591373</ele>
        <time>2020-10-06T19:26:31.754Z</time>
      </trkpt>
      <trkpt lat="56.56787" lon="25.61846">
        <ele>99.698296</ele>
        <time>2020-10-06T19:27:25.058Z</time>
      </trkpt>
      <trkpt lat="56.56752" lon="25.61927">
        <ele>100.811278</ele>
        <time>2020-10-06T19:27:40.964Z</time>
      </trkpt>
      <trkpt lat="56.56726" lon="25.61973">
        <ele>101.362912</ele>
        <time>2020-10-06T19:27:49.888Z</time>
      </trkpt>
      <trkpt lat="56.56638" lon="25.62093">
        <ele>100.290574</ele>
        <time>2020-10-06T19:28:11.748Z</time>
      </trkpt>
      <trkpt lat="56.56471" lon="25.62314">
        <ele>97.227504</ele>
        <time>2020-10-06T19:28:48.413Z</time>
      </trkpt>
      <trkpt lat="56.56447" lon="25.62348">
        <ele>96.700226</ele>
        <time>2020-10-06T19:28:54.065Z</time>
      </trkpt>
      <trkpt lat="56.56425" lon="25.62385">
        <ele>96.424528</ele>
        <time>2020-10-06T19:28:59.675Z</time>
      </trkpt>
      <trkpt lat="56.56392" lon="25.62459">
        <ele>96.074755</ele>
        <time>2020-10-06T19:29:09.911Z</time>
      </trkpt>
      <trkpt lat="56.56258" lon="25.62862">
        <ele>94.400504</ele>
        <time>2020-10-06T19:30:04.811Z</time>
      </trkpt>
      <trkpt lat="56.56212" lon="25.63046">
        <ele>92.064788</ele>
        <time>2020-10-06T19:30:24.748Z</time>
      </trkpt>
      <trkpt lat="56.56186" lon="25.6321">
        <ele>89.703259</ele>
        <time>2020-10-06T19:30:40.067Z</time>
      </trkpt>
      <trkpt lat="56.56172" lon="25.63332">
        <ele>87.861148</ele>
        <time>2020-10-06T19:30:51.251Z</time>
      </trkpt>
      <trkpt lat="56.56151" lon="25.63503">
        <ele>85.284604</ele>
        <time>2020-10-06T19:31:07.505Z</time>
      </trkpt>
      <trkpt lat="56.56129" lon="25.63656">
        <ele>84.523675</ele>
        <time>2020-10-06T19:31:23.708Z</time>
      </trkpt>
      <trkpt lat="56.56118" lon="25.63708">
        <ele>84.364126</ele>
        <time>2020-10-06T19:31:29.921Z</time>
      </trkpt>
      <trkpt lat="56.56087" lon="25.63841">
        <ele>84.02736</ele>
        <time>2020-10-06T19:31:48.653Z</time>
      </trkpt>
      <trkpt lat="56.5606" lon="25.63964">
        <ele>85.557706</ele>
        <time>2020-10-06T19:32:09.388Z</time>
      </trkpt>
      <trkpt lat="56.56026" lon="25.64111">
        <ele>87.404425</ele>
        <time>2020-10-06T19:32:37.757Z</time>
      </trkpt>
      <trkpt lat="56.55956" lon="25.64419">
        <ele>93.412685</ele>
        <time>2020-10-06T19:33:44.988Z</time>
      </trkpt>
      <trkpt lat="56.55938" lon="25.64525">
        <ele>94.770605</ele>
        <time>2020-10-06T19:34:05.652Z</time>
      </trkpt>
      <trkpt lat="56.55929" lon="25.64593">
        <ele>95.526182</ele>
        <time>2020-10-06T19:34:17.918Z</time>
      </trkpt>
      <trkpt lat="56.5592" lon="25.64668">
        <ele>96.350726</ele>
        <time>2020-10-06T19:34:30.300Z</time>
      </trkpt>
      <trkpt lat="56.5591" lon="25.64825">
        <ele>97.334157</ele>
        <time>2020-10-06T19:34:52.937Z</time>
      </trkpt>
      <trkpt lat="56.55919" lon="25.64984">
        <ele>97.344966</ele>
        <time>2020-10-06T19:35:11.654Z</time>
      </trkpt>
      <trkpt lat="56.55946" lon="25.65376">
        <ele>97.100908</ele>
        <time>2020-10-06T19:35:57.911Z</time>
      </trkpt>
      <trkpt lat="56.55951" lon="25.65455">
        <ele>97.322612</ele>
        <time>2020-10-06T19:36:08.364Z</time>
      </trkpt>
      <trkpt lat="56.55954" lon="25.65592">
        <ele>98.008863</ele>
        <time>2020-10-06T19:36:27.550Z</time>
      </trkpt>
      <trkpt lat="56.55939" lon="25.65746">
        <ele>98.846843</ele>
        <time>2020-10-06T19:36:51.250Z</time>
      </trkpt>
      <trkpt lat="56.55897" lon="25.65988">
        <ele>100.960235</ele>
        <time>2020-10-06T19:37:31.510Z</time>
      </trkpt>
      <trkpt lat="56.55879" lon="25.66117">
        <ele>101.739292</ele>
        <time>2020-10-06T19:37:52.308Z</time>
      </trkpt>
      <trkpt lat="56.55859" lon="25.6628">
        <ele>102.402939</ele>
        <time>2020-10-06T19:38:16.703Z</time>
      </trkpt>
      <trkpt lat="56.55855" lon="25.6646">
        <ele>101.717565</ele>
        <time>2020-10-06T19:38:37.253Z</time>
      </trkpt>
      <trkpt lat="56.55845" lon="25.66569">
        <ele>100.575069</ele>
        <time>2020-10-06T19:38:48.018Z</time>
      </trkpt>
      <trkpt lat="56.55838" lon="25.66612">
        <ele>100.099995</ele>
        <time>2020-10-06T19:38:52.320Z</time>
      </trkpt>
      <trkpt lat="56.55827" lon="25.66666">
        <ele>99.505213</ele>
        <time>2020-10-06T19:38:57.527Z</time>
      </trkpt>
      <trkpt lat="56.55789" lon="25.66806">
        <ele>96.533783</ele>
        <time>2020-10-06T19:39:11.213Z</time>
      </trkpt>
      <trkpt lat="56.5568" lon="25.67142">
        <ele>89.247725</ele>
        <time>2020-10-06T19:39:45.360Z</time>
      </trkpt>
      <trkpt lat="56.55641" lon="25.67339">
        <ele>86.638861</ele>
        <time>2020-10-06T19:40:05.508Z</time>
      </trkpt>
      <trkpt lat="56.55615" lon="25.6742">
        <ele>86.106805</ele>
        <time>2020-10-06T19:40:15.838Z</time>
      </trkpt>
      <trkpt lat="56.55603" lon="25.67451">
        <ele>85.895011</ele>
        <time>2020-10-06T19:40:20.022Z</time>
      </trkpt>
      <trkpt lat="56.55591" lon="25.67481">
        <ele>85.679762</ele>
        <time>2020-10-06T19:40:24.413Z</time>
      </trkpt>
      <trkpt lat="56.55544" lon="25.67561">
        <ele>85.164205</ele>
        <time>2020-10-06T19:40:37.798Z</time>
      </trkpt>
      <trkpt lat="56.5552" lon="25.67591">
        <ele>85.030585</ele>
        <time>2020-10-06T19:40:43.925Z</time>
      </trkpt>
      <trkpt lat="56.55387" lon="25.67714">
        <ele>84.413319</ele>
        <time>2020-10-06T19:41:14.576Z</time>
      </trkpt>
      <trkpt lat="56.55256" lon="25.67853">
        <ele>84.159955</ele>
        <time>2020-10-06T19:41:46.699Z</time>
      </trkpt>
      <trkpt lat="56.55183" lon="25.67936">
        <ele>85.118142</ele>
        <time>2020-10-06T19:42:09.721Z</time>
      </trkpt>
      <trkpt lat="56.55135" lon="25.68008">
        <ele>85.839066</ele>
        <time>2020-10-06T19:42:27.220Z</time>
      </trkpt>
      <trkpt lat="56.55096" lon="25.68079">
        <ele>86.39398</ele>
        <time>2020-10-06T19:42:43.272Z</time>
      </trkpt>
      <trkpt lat="56.55064" lon="25.68165">
        <ele>86.783911</ele>
        <time>2020-10-06T19:42:59.351Z</time>
      </trkpt>
      <trkpt lat="56.55041" lon="25.68259">
        <ele>87.166877</ele>
        <time>2020-10-06T19:43:13.454Z</time>
      </trkpt>
      <trkpt lat="56.55016" lon="25.68463">
        <ele>86.637041</ele>
        <time>2020-10-06T19:43:37.231Z</time>
      </trkpt>
      <trkpt lat="56.55" lon="25.68555">
        <ele>85.987856</ele>
        <time>2020-10-06T19:43:46.935Z</time>
      </trkpt>
      <trkpt lat="56.54976" lon="25.68661">
        <ele>85.184064</ele>
        <time>2020-10-06T19:43:58.163Z</time>
      </trkpt>
      <trkpt lat="56.54954" lon="25.68747">
        <ele>84.180365</ele>
        <time>2020-10-06T19:44:07.369Z</time>
      </trkpt>
      <trkpt lat="56.54931" lon="25.68962">
        <ele>81.869191</ele>
        <time>2020-10-06T19:44:28.653Z</time>
      </trkpt>
      <trkpt lat="56.54889" lon="25.69151">
        <ele>80.791057</ele>
        <time>2020-10-06T19:44:49.676Z</time>
      </trkpt>
      <trkpt lat="56.5479" lon="25.69432">
        <ele>80.482228</ele>
        <time>2020-10-06T19:45:29.754Z</time>
      </trkpt>
      <trkpt lat="56.54742" lon="25.69617">
        <ele>81.202636</ele>
        <time>2020-10-06T19:45:59.640Z</time>
      </trkpt>
      <trkpt lat="56.54714" lon="25.69703">
        <ele>81.805472</ele>
        <time>2020-10-06T19:46:14.753Z</time>
      </trkpt>
      <trkpt lat="56.54589" lon="25.70019">
        <ele>83.960855</ele>
        <time>2020-10-06T19:47:11.024Z</time>
      </trkpt>
      <trkpt lat="56.54515" lon="25.70228">
        <ele>85.554131</ele>
        <time>2020-10-06T19:47:46.462Z</time>
      </trkpt>
      <trkpt lat="56.54458" lon="25.70325">
        <ele>86.538962</ele>
        <time>2020-10-06T19:48:08.690Z</time>
      </trkpt>
      <trkpt lat="56.54425" lon="25.70362">
        <ele>87.456505</ele>
        <time>2020-10-06T19:48:20.133Z</time>
      </trkpt>
      <trkpt lat="56.54384" lon="25.70396">
        <ele>88.639701</ele>
        <time>2020-10-06T19:48:34.234Z</time>
      </trkpt>
      <trkpt lat="56.54301" lon="25.70473">
        <ele>91.114353</ele>
        <time>2020-10-06T19:49:06.225Z</time>
      </trkpt>
      <trkpt lat="56.54252" lon="25.70529">
        <ele>92.948838</ele>
        <time>2020-10-06T19:49:27.244Z</time>
      </trkpt>
      <trkpt lat="56.54214" lon="25.70581">
        <ele>94.553756</ele>
        <time>2020-10-06T19:49:44.945Z</time>
      </trkpt>
      <trkpt lat="56.54148" lon="25.70707">
        <ele>97.487592</ele>
        <time>2020-10-06T19:50:18.962Z</time>
      </trkpt>
      <trkpt lat="56.54127" lon="25.70769">
        <ele>97.988211</ele>
        <time>2020-10-06T19:50:31.987Z</time>
      </trkpt>
      <trkpt lat="56.5411" lon="25.70842">
        <ele>98.525727</ele>
        <time>2020-10-06T19:50:44.827Z</time>
      </trkpt>
      <trkpt lat="56.54047" lon="25.71221">
        <ele>98.773954</ele>
        <time>2020-10-06T19:51:32.357Z</time>
      </trkpt>
      <trkpt lat="56.54008" lon="25.71337">
        <ele>97.699424</ele>
        <time>2020-10-06T19:51:46.282Z</time>
      </trkpt>
      <trkpt lat="56.53938" lon="25.71513">
        <ele>94.342492</ele>
        <time>2020-10-06T19:52:06.125Z</time>
      </trkpt>
      <trkpt lat="56.53923" lon="25.71553">
        <ele>93.576626</ele>
        <time>2020-10-06T19:52:10.469Z</time>
      </trkpt>
      <trkpt lat="56.53903" lon="25.71596">
        <ele>92.579281</ele>
        <time>2020-10-06T19:52:15.340Z</time>
      </trkpt>
      <trkpt lat="56.53884" lon="25.71622">
        <ele>91.803824</ele>
        <time>2020-10-06T19:52:19.004Z</time>
      </trkpt>
      <trkpt lat="56.53834" lon="25.71676">
        <ele>89.902653</ele>
        <time>2020-10-06T19:52:28.229Z</time>
      </trkpt>
      <trkpt lat="56.53773" lon="25.71746">
        <ele>87.551027</ele>
        <time>2020-10-06T19:52:40.118Z</time>
      </trkpt>
      <trkpt lat="56.53704" lon="25.71819">
        <ele>87.321289</ele>
        <time>2020-10-06T19:52:55.275Z</time>
      </trkpt>
      <trkpt lat="56.53627" lon="25.71892">
        <ele>87.069527</ele>
        <time>2020-10-06T19:53:16.365Z</time>
      </trkpt>
      <trkpt lat="56.5358" lon="25.71936">
        <ele>87.430096</ele>
        <time>2020-10-06T19:53:31.870Z</time>
      </trkpt>
      <trkpt lat="56.53492" lon="25.72">
        <ele>88.366444</ele>
        <time>2020-10-06T19:53:57.782Z</time>
      </trkpt>
      <trkpt lat="56.53454" lon="25.72023">
        <ele>88.759265</ele>
        <time>2020-10-06T19:54:07.749Z</time>
      </trkpt>
      <trkpt lat="56.53401" lon="25.72057">
        <ele>88.469709</ele>
        <time>2020-10-06T19:54:20.513Z</time>
      </trkpt>
      <trkpt lat="56.53153" lon="25.72243">
        <ele>86.356997</ele>
        <time>2020-10-06T19:55:11.731Z</time>
      </trkpt>
      <trkpt lat="56.53067" lon="25.72358">
        <ele>86.115784</ele>
        <time>2020-10-06T19:55:34.448Z</time>
      </trkpt>
      <trkpt lat="56.53006" lon="25.72451">
        <ele>86.255249</ele>
        <time>2020-10-06T19:55:53.263Z</time>
      </trkpt>
      <trkpt lat="56.52974" lon="25.72489">
        <ele>86.366362</ele>
        <time>2020-10-06T19:56:02.884Z</time>
      </trkpt>
      <trkpt lat="56.52907" lon="25.72548">
        <ele>87.098592</ele>
        <time>2020-10-06T19:56:22.022Z</time>
      </trkpt>
      <trkpt lat="56.5272" lon="25.72688">
        <ele>89.476779</ele>
        <time>2020-10-06T19:57:16.525Z</time>
      </trkpt>
      <trkpt lat="56.52551" lon="25.72779">
        <ele>91.664532</ele>
        <time>2020-10-06T19:58:06.879Z</time>
      </trkpt>
      <trkpt lat="56.52523" lon="25.728">
        <ele>92.007089</ele>
        <time>2020-10-06T19:58:14.923Z</time>
      </trkpt>
      <trkpt lat="56.52339" lon="25.72988">
        <ele>93.363577</ele>
        <time>2020-10-06T19:59:05.664Z</time>
      </trkpt>
      <trkpt lat="56.5231" lon="25.73021">
        <ele>93.572262</ele>
        <time>2020-10-06T19:59:13.995Z</time>
      </trkpt>
      <trkpt lat="56.52293" lon="25.73049">
        <ele>93.755539</ele>
        <time>2020-10-06T19:59:19.783Z</time>
      </trkpt>
      <trkpt lat="56.52267" lon="25.73101">
        <ele>94.060192</ele>
        <time>2020-10-06T19:59:29.606Z</time>
      </trkpt>
      <trkpt lat="56.52182" lon="25.73324">
        <ele>94.793598</ele>
        <time>2020-10-06T20:00:08.547Z</time>
      </trkpt>
      <trkpt lat="56.52169" lon="25.73379">
        <ele>94.72833</ele>
        <time>2020-10-06T20:00:16.453Z</time>
      </trkpt>
      <trkpt lat="56.52138" lon="25.73587">
        <ele>94.118398</ele>
        <time>2020-10-06T20:00:40.430Z</time>
      </trkpt>
      <trkpt lat="56.52047" lon="25.73995">
        <ele>87.958308</ele>
        <time>2020-10-06T20:01:21.373Z</time>
      </trkpt>
      <trkpt lat="56.51921" lon="25.74428">
        <ele>79.80991</ele>
        <time>2020-10-06T20:02:05.546Z</time>
      </trkpt>
      <trkpt lat="56.51908" lon="25.74475">
        <ele>79.276163</ele>
        <time>2020-10-06T20:02:10.590Z</time>
      </trkpt>
      <trkpt lat="56.51897" lon="25.7451">
        <ele>78.99677</ele>
        <time>2020-10-06T20:02:14.474Z</time>
      </trkpt>
      <trkpt lat="56.51864" lon="25.74622">
        <ele>78.103513</ele>
        <time>2020-10-06T20:02:27.321Z</time>
      </trkpt>
      <trkpt lat="56.51792" lon="25.74855">
        <ele>77.090547</ele>
        <time>2020-10-06T20:02:58.831Z</time>
      </trkpt>
      <trkpt lat="56.51755" lon="25.74926">
        <ele>76.994618</ele>
        <time>2020-10-06T20:03:10.708Z</time>
      </trkpt>
      <trkpt lat="56.51721" lon="25.74982">
        <ele>76.911473</ele>
        <time>2020-10-06T20:03:20.870Z</time>
      </trkpt>
      <trkpt lat="56.51583" lon="25.7518">
        <ele>76.853396</ele>
        <time>2020-10-06T20:03:59.076Z</time>
      </trkpt>
      <trkpt lat="56.51582" lon="25.75182">
        <ele>76.852757</ele>
        <time>2020-10-06T20:03:59.489Z</time>
      </trkpt>
      <trkpt lat="56.51309" lon="25.75577">
        <ele>78.662726</ele>
        <time>2020-10-06T20:05:25.157Z</time>
      </trkpt>
      <trkpt lat="56.51284" lon="25.75614">
        <ele>78.823229</ele>
        <time>2020-10-06T20:05:33.236Z</time>
      </trkpt>
      <trkpt lat="56.51218" lon="25.75711">
        <ele>79.205991</ele>
        <time>2020-10-06T20:05:53.982Z</time>
      </trkpt>
      <trkpt lat="56.51186" lon="25.75764">
        <ele>79.402056</ele>
        <time>2020-10-06T20:06:04.423Z</time>
      </trkpt>
      <trkpt lat="56.51163" lon="25.75807">
        <ele>79.549295</ele>
        <time>2020-10-06T20:06:12.107Z</time>
      </trkpt>
      <trkpt lat="56.51139" lon="25.75858">
        <ele>79.550067</ele>
        <time>2020-10-06T20:06:20.511Z</time>
      </trkpt>
      <trkpt lat="56.51104" lon="25.75937">
        <ele>79.551225</ele>
        <time>2020-10-06T20:06:33.162Z</time>
      </trkpt>
      <trkpt lat="56.51062" lon="25.76036">
        <ele>79.552664</ele>
        <time>2020-10-06T20:06:48.282Z</time>
      </trkpt>
      <trkpt lat="56.51038" lon="25.76092">
        <ele>79.503262</ele>
        <time>2020-10-06T20:06:56.579Z</time>
      </trkpt>
      <trkpt lat="56.51036" lon="25.76095">
        <ele>79.497708</ele>
        <time>2020-10-06T20:06:57.066Z</time>
      </trkpt>
      <trkpt lat="56.50997" lon="25.76181">
        <ele>79.358375</ele>
        <time>2020-10-06T20:07:10.310Z</time>
      </trkpt>
      <trkpt lat="56.50979" lon="25.76223">
        <ele>79.291797</ele>
        <time>2020-10-06T20:07:16.606Z</time>
      </trkpt>
      <trkpt lat="56.50962" lon="25.7626">
        <ele>79.230675</ele>
        <time>2020-10-06T20:07:22.417Z</time>
      </trkpt>
      <trkpt lat="56.50931" lon="25.76323">
        <ele>79.131925</ele>
        <time>2020-10-06T20:07:32.204Z</time>
      </trkpt>
      <trkpt lat="56.50928" lon="25.76329">
        <ele>79.125511</ele>
        <time>2020-10-06T20:07:33.143Z</time>
      </trkpt>
      <trkpt lat="56.50914" lon="25.76357">
        <ele>79.094855</ele>
        <time>2020-10-06T20:07:37.507Z</time>
      </trkpt>
      <trkpt lat="56.50833" lon="25.76502">
        <ele>78.924104</ele>
        <time>2020-10-06T20:08:02.431Z</time>
      </trkpt>
      <trkpt lat="56.50793" lon="25.76573">
        <ele>78.810704</ele>
        <time>2020-10-06T20:08:14.851Z</time>
      </trkpt>
      <trkpt lat="56.50766" lon="25.76623">
        <ele>78.704077</ele>
        <time>2020-10-06T20:08:23.255Z</time>
      </trkpt>
      <trkpt lat="56.50762" lon="25.76629">
        <ele>78.691756</ele>
        <time>2020-10-06T20:08:24.124Z</time>
      </trkpt>
      <trkpt lat="56.50661" lon="25.76806">
        <ele>78.501203</ele>
        <time>2020-10-06T20:08:53.559Z</time>
      </trkpt>
      <trkpt lat="56.50658" lon="25.76812">
        <ele>78.522634</ele>
        <time>2020-10-06T20:08:54.568Z</time>
      </trkpt>
      <trkpt lat="56.50621" lon="25.76878">
        <ele>78.74812</ele>
        <time>2020-10-06T20:09:06.644Z</time>
      </trkpt>
      <trkpt lat="56.50576" lon="25.76959">
        <ele>79.017861</ele>
        <time>2020-10-06T20:09:22.334Z</time>
      </trkpt>
      <trkpt lat="56.50508" lon="25.77085">
        <ele>80.055338</ele>
        <time>2020-10-06T20:09:48.826Z</time>
      </trkpt>
      <trkpt lat="56.50432" lon="25.77241">
        <ele>81.63202</ele>
        <time>2020-10-06T20:10:21.740Z</time>
      </trkpt>
      <trkpt lat="56.50395" lon="25.77331">
        <ele>82.335831</ele>
        <time>2020-10-06T20:10:38.522Z</time>
      </trkpt>
      <trkpt lat="56.50284" lon="25.77652">
        <ele>84.0943</ele>
        <time>2020-10-06T20:11:33.600Z</time>
      </trkpt>
      <trkpt lat="56.50263" lon="25.77725">
        <ele>84.298866</ele>
        <time>2020-10-06T20:11:43.912Z</time>
      </trkpt>
      <trkpt lat="56.50244" lon="25.77799">
        <ele>84.494166</ele>
        <time>2020-10-06T20:11:53.532Z</time>
      </trkpt>
      <trkpt lat="56.50209" lon="25.77953">
        <ele>84.601739</ele>
        <time>2020-10-06T20:12:12.970Z</time>
      </trkpt>
      <trkpt lat="56.49936" lon="25.79382">
        <ele>88.41091</ele>
        <time>2020-10-06T20:15:34.962Z</time>
      </trkpt>
      <trkpt lat="56.49926" lon="25.79438">
        <ele>88.739986</ele>
        <time>2020-10-06T20:15:43.691Z</time>
      </trkpt>
      <trkpt lat="56.49899" lon="25.79576">
        <ele>89.549325</ele>
        <time>2020-10-06T20:16:05.669Z</time>
      </trkpt>
      <trkpt lat="56.49854" lon="25.79813">
        <ele>90.651454</ele>
        <time>2020-10-06T20:16:42.745Z</time>
      </trkpt>
      <trkpt lat="56.49769" lon="25.80259">
        <ele>91.245911</ele>
        <time>2020-10-06T20:17:42.480Z</time>
      </trkpt>
      <trkpt lat="56.49728" lon="25.80477">
        <ele>90.007915</ele>
        <time>2020-10-06T20:18:07.394Z</time>
      </trkpt>
      <trkpt lat="56.49683" lon="25.80717">
        <ele>88.116147</ele>
        <time>2020-10-06T20:18:33.094Z</time>
      </trkpt>
      <trkpt lat="56.49654" lon="25.80924">
        <ele>86.156585</ele>
        <time>2020-10-06T20:18:54.558Z</time>
      </trkpt>
      <trkpt lat="56.49636" lon="25.81163">
        <ele>83.46632</ele>
        <time>2020-10-06T20:19:18.233Z</time>
      </trkpt>
      <trkpt lat="56.49636" lon="25.81295">
        <ele>81.654028</ele>
        <time>2020-10-06T20:19:30.476Z</time>
      </trkpt>
      <trkpt lat="56.49638" lon="25.81378">
        <ele>80.423227</ele>
        <time>2020-10-06T20:19:38.051Z</time>
      </trkpt>
      <trkpt lat="56.49648" lon="25.81518">
        <ele>78.341675</ele>
        <time>2020-10-06T20:19:51.128Z</time>
      </trkpt>
      <trkpt lat="56.49656" lon="25.81592">
        <ele>77.804171</ele>
        <time>2020-10-06T20:19:58.229Z</time>
      </trkpt>
      <trkpt lat="56.49665" lon="25.81667">
        <ele>77.294803</ele>
        <time>2020-10-06T20:20:06.003Z</time>
      </trkpt>
      <trkpt lat="56.49692" lon="25.81821">
        <ele>76.223644</ele>
        <time>2020-10-06T20:20:23.832Z</time>
      </trkpt>
      <trkpt lat="56.49916" lon="25.82981">
        <ele>77.419586</ele>
        <time>2020-10-06T20:23:01.413Z</time>
      </trkpt>
      <trkpt lat="56.49926" lon="25.83029">
        <ele>77.467796</ele>
        <time>2020-10-06T20:23:07.738Z</time>
      </trkpt>
      <trkpt lat="56.49933" lon="25.83066">
        <ele>77.505821</ele>
        <time>2020-10-06T20:23:12.563Z</time>
      </trkpt>
      <trkpt lat="56.49967" lon="25.83295">
        <ele>77.746613</ele>
        <time>2020-10-06T20:23:42.419Z</time>
      </trkpt>
      <trkpt lat="56.49975" lon="25.83394">
        <ele>77.8654</ele>
        <time>2020-10-06T20:23:55.475Z</time>
      </trkpt>
      <trkpt lat="56.49982" lon="25.83518">
        <ele>78.21272</ele>
        <time>2020-10-06T20:24:12.382Z</time>
      </trkpt>
      <trkpt lat="56.49985" lon="25.83587">
        <ele>78.405077</ele>
        <time>2020-10-06T20:24:21.869Z</time>
      </trkpt>
      <trkpt lat="56.49986" lon="25.83597">
        <ele>78.433052</ele>
        <time>2020-10-06T20:24:23.328Z</time>
      </trkpt>
      <trkpt lat="56.49988" lon="25.83658">
        <ele>78.602633</ele>
        <time>2020-10-06T20:24:31.465Z</time>
      </trkpt>
      <trkpt lat="56.49994" lon="25.83789">
        <ele>78.923442</ele>
        <time>2020-10-06T20:24:48.591Z</time>
      </trkpt>
      <trkpt lat="56.49997" lon="25.83858">
        <ele>79.078342</ele>
        <time>2020-10-06T20:24:57.764Z</time>
      </trkpt>
      <trkpt lat="56.50002" lon="25.83975">
        <ele>79.338628</ele>
        <time>2020-10-06T20:25:13.139Z</time>
      </trkpt>
      <trkpt lat="56.50003" lon="25.84012">
        <ele>79.419315</ele>
        <time>2020-10-06T20:25:18.095Z</time>
      </trkpt>
      <trkpt lat="56.50004" lon="25.84034">
        <ele>79.469034</ele>
        <time>2020-10-06T20:25:21.138Z</time>
      </trkpt>
      <trkpt lat="56.50009" lon="25.84132">
        <ele>79.967559</ele>
        <time>2020-10-06T20:25:34.318Z</time>
      </trkpt>
      <trkpt lat="56.50012" lon="25.84206">
        <ele>80.347666</ele>
        <time>2020-10-06T20:25:44.613Z</time>
      </trkpt>
      <trkpt lat="56.50016" lon="25.84294">
        <ele>80.79656</ele>
        <time>2020-10-06T20:25:57.715Z</time>
      </trkpt>
      <trkpt lat="56.50019" lon="25.84362">
        <ele>81.148839</ele>
        <time>2020-10-06T20:26:08.199Z</time>
      </trkpt>
      <trkpt lat="56.50022" lon="25.84424">
        <ele>81.690618</ele>
        <time>2020-10-06T20:26:18.047Z</time>
      </trkpt>
      <trkpt lat="56.49763" lon="25.84439">
        <ele>85.199918</ele>
        <time>2020-10-06T20:27:34.797Z</time>
      </trkpt>
      <trkpt lat="56.49759" lon="25.84587">
        <ele>85.806384</ele>
        <time>2020-10-06T20:27:55.030Z</time>
      </trkpt>
      <trkpt lat="56.49762" lon="25.84761">
        <ele>85.177541</ele>
        <time>2020-10-06T20:28:16.408Z</time>
      </trkpt>
      <trkpt lat="56.49763" lon="25.84799">
        <ele>85.042534</ele>
        <time>2020-10-06T20:28:20.577Z</time>
      </trkpt>
      <trkpt lat="56.49763" lon="25.84811">
        <ele>84.997509</ele>
        <time>2020-10-06T20:28:21.921Z</time>
      </trkpt>
      <trkpt lat="56.4971" lon="25.84934">
        <ele>84.135553</ele>
        <time>2020-10-06T20:28:38.022Z</time>
      </trkpt>
      <trkpt lat="56.49654" lon="25.85045">
        <ele>83.074802</ele>
        <time>2020-10-06T20:28:54.235Z</time>
      </trkpt>
      <trkpt lat="56.49653" lon="25.85048">
        <ele>83.046545</ele>
        <time>2020-10-06T20:28:54.557Z</time>
      </trkpt>
      <trkpt lat="56.49686" lon="25.85156">
        <ele>82.358926</ele>
        <time>2020-10-06T20:29:12.855Z</time>
      </trkpt>
      <trkpt lat="56.49731" lon="25.85315">
        <ele>82.026028</ele>
        <time>2020-10-06T20:29:32.823Z</time>
      </trkpt>
      <trkpt lat="56.49717" lon="25.85395">
        <ele>81.869366</ele>
        <time>2020-10-06T20:29:43.854Z</time>
      </trkpt>
      <trkpt lat="56.4964" lon="25.85826">
        <ele>82.768526</ele>
        <time>2020-10-06T20:30:46.135Z</time>
      </trkpt>
      <trkpt lat="56.49606" lon="25.8603">
        <ele>83.220601</ele>
        <time>2020-10-06T20:31:15.502Z</time>
      </trkpt>
      <trkpt lat="56.49595" lon="25.86194">
        <ele>83.256136</ele>
        <time>2020-10-06T20:31:37.360Z</time>
      </trkpt>
      <trkpt lat="56.49574" lon="25.86357">
        <ele>83.266518</ele>
        <time>2020-10-06T20:31:57.902Z</time>
      </trkpt>
      <trkpt lat="56.49518" lon="25.86531">
        <ele>83.49289</ele>
        <time>2020-10-06T20:32:24.259Z</time>
      </trkpt>
      <trkpt lat="56.49424" lon="25.86875">
        <ele>84.239354</ele>
        <time>2020-10-06T20:33:17.463Z</time>
      </trkpt>
      <trkpt lat="56.4941" lon="25.86921">
        <ele>84.363389</ele>
        <time>2020-10-06T20:33:24.515Z</time>
      </trkpt>
      <trkpt lat="56.49401" lon="25.86952">
        <ele>84.426444</ele>
        <time>2020-10-06T20:33:29.302Z</time>
      </trkpt>
      <trkpt lat="56.4933" lon="25.87149">
        <ele>84.667653</ele>
        <time>2020-10-06T20:34:00.593Z</time>
      </trkpt>
      <trkpt lat="56.49325" lon="25.87148">
        <ele>84.678351</ele>
        <time>2020-10-06T20:34:01.880Z</time>
      </trkpt>
      <trkpt lat="56.4931" lon="25.87155">
        <ele>84.705963</ele>
        <time>2020-10-06T20:34:05.208Z</time>
      </trkpt>
      <trkpt lat="56.49301" lon="25.87183">
        <ele>84.739636</ele>
        <time>2020-10-06T20:34:09.369Z</time>
      </trkpt>
      <trkpt lat="56.49301" lon="25.87199">
        <ele>84.737332</ele>
        <time>2020-10-06T20:34:11.266Z</time>
      </trkpt>
      <trkpt lat="56.4931" lon="25.87225">
        <ele>84.716289</ele>
        <time>2020-10-06T20:34:15.147Z</time>
      </trkpt>
      <trkpt lat="56.49317" lon="25.87232">
        <ele>84.705617</ele>
        <time>2020-10-06T20:34:17.093Z</time>
      </trkpt>
      <trkpt lat="56.49309" lon="25.87267">
        <ele>84.67917</ele>
        <time>2020-10-06T20:34:21.899Z</time>
      </trkpt>
      <trkpt lat="56.49296" lon="25.87298">
        <ele>84.652699</ele>
        <time>2020-10-06T20:34:26.704Z</time>
      </trkpt>
      <trkpt lat="56.49199" lon="25.87492">
        <ele>84.471567</ele>
        <time>2020-10-06T20:34:57.238Z</time>
      </trkpt>
      <trkpt lat="56.49111" lon="25.87678">
        <ele>84.294707</ele>
        <time>2020-10-06T20:35:27.259Z</time>
      </trkpt>
      <trkpt lat="56.49052" lon="25.87809">
        <ele>84.190059</ele>
        <time>2020-10-06T20:35:47.503Z</time>
      </trkpt>
      <trkpt lat="56.49033" lon="25.87849">
        <ele>84.157825</ele>
        <time>2020-10-06T20:35:53.753Z</time>
      </trkpt>
      <trkpt lat="56.49017" lon="25.87882">
        <ele>84.131275</ele>
        <time>2020-10-06T20:35:58.875Z</time>
      </trkpt>
      <trkpt lat="56.48992" lon="25.87935">
        <ele>84.087901</ele>
        <time>2020-10-06T20:36:07.852Z</time>
      </trkpt>
      <trkpt lat="56.48948" lon="25.88041">
        <ele>84.012234</ele>
        <time>2020-10-06T20:36:23.925Z</time>
      </trkpt>
      <trkpt lat="56.48888" lon="25.88188">
        <ele>83.907186</ele>
        <time>2020-10-06T20:36:45.671Z</time>
      </trkpt>
      <trkpt lat="56.48855" lon="25.8827">
        <ele>83.865463</ele>
        <time>2020-10-06T20:36:58.114Z</time>
      </trkpt>
      <trkpt lat="56.48814" lon="25.88422">
        <ele>83.800069</ele>
        <time>2020-10-06T20:37:18.872Z</time>
      </trkpt>
      <trkpt lat="56.48812" lon="25.88434">
        <ele>83.795089</ele>
        <time>2020-10-06T20:37:20.333Z</time>
      </trkpt>
      <trkpt lat="56.48804" lon="25.88427">
        <ele>83.789237</ele>
        <time>2020-10-06T20:37:22.246Z</time>
      </trkpt>
      <trkpt lat="56.48788" lon="25.88427">
        <ele>83.777703</ele>
        <time>2020-10-06T20:37:25.800Z</time>
      </trkpt>
      <trkpt lat="56.48781" lon="25.88435">
        <ele>83.777044</ele>
        <time>2020-10-06T20:37:27.658Z</time>
      </trkpt>
      <trkpt lat="56.48775" lon="25.88446">
        <ele>83.784353</ele>
        <time>2020-10-06T20:37:29.439Z</time>
      </trkpt>
      <trkpt lat="56.48772" lon="25.88475">
        <ele>83.79889</ele>
        <time>2020-10-06T20:37:33.030Z</time>
      </trkpt>
      <trkpt lat="56.48777" lon="25.88498">
        <ele>83.811079</ele>
        <time>2020-10-06T20:37:36.032Z</time>
      </trkpt>
      <trkpt lat="56.48785" lon="25.8851">
        <ele>83.820417</ele>
        <time>2020-10-06T20:37:38.434Z</time>
      </trkpt>
      <trkpt lat="56.4879" lon="25.88513">
        <ele>83.8248</ele>
        <time>2020-10-06T20:37:39.447Z</time>
      </trkpt>
      <trkpt lat="56.48783" lon="25.88553">
        <ele>83.844922</ele>
        <time>2020-10-06T20:37:44.595Z</time>
      </trkpt>
      <trkpt lat="56.48767" lon="25.8865">
        <ele>83.894645</ele>
        <time>2020-10-06T20:37:57.520Z</time>
      </trkpt>
      <trkpt lat="56.48751" lon="25.88753">
        <ele>83.929916</ele>
        <time>2020-10-06T20:38:11.414Z</time>
      </trkpt>
      <trkpt lat="56.48745" lon="25.88797">
        <ele>83.924178</ele>
        <time>2020-10-06T20:38:17.150Z</time>
      </trkpt>
      <trkpt lat="56.48718" lon="25.88985">
        <ele>83.899261</ele>
        <time>2020-10-06T20:38:40.872Z</time>
      </trkpt>
      <trkpt lat="56.48677" lon="25.89365">
        <ele>83.553728</ele>
        <time>2020-10-06T20:39:26.521Z</time>
      </trkpt>
      <trkpt lat="56.48649" lon="25.89466">
        <ele>83.917714</ele>
        <time>2020-10-06T20:39:40.979Z</time>
      </trkpt>
      <trkpt lat="56.4856" lon="25.89629">
        <ele>84.727615</ele>
        <time>2020-10-06T20:40:13.376Z</time>
      </trkpt>
      <trkpt lat="56.48083" lon="25.90461">
        <ele>92.048436</ele>
        <time>2020-10-06T20:43:13.980Z</time>
      </trkpt>
      <trkpt lat="56.47768" lon="25.9082">
        <ele>89.730349</ele>
        <time>2020-10-06T20:44:26.339Z</time>
      </trkpt>
      <trkpt lat="56.47721" lon="25.90874">
        <ele>89.564126</ele>
        <time>2020-10-06T20:44:39.052Z</time>
      </trkpt>
      <trkpt lat="56.47635" lon="25.9097">
        <ele>89.854625</ele>
        <time>2020-10-06T20:45:03.789Z</time>
      </trkpt>
      <trkpt lat="56.47558" lon="25.91073">
        <ele>89.728309</ele>
        <time>2020-10-06T20:45:26.645Z</time>
      </trkpt>
      <trkpt lat="56.47286" lon="25.91589">
        <ele>86.545616</ele>
        <time>2020-10-06T20:46:41.488Z</time>
      </trkpt>
      <trkpt lat="56.46858" lon="25.92381">
        <ele>86.685226</ele>
        <time>2020-10-06T20:49:01.846Z</time>
      </trkpt>
      <trkpt lat="56.46803" lon="25.92466">
        <ele>86.763985</ele>
        <time>2020-10-06T20:49:18.367Z</time>
      </trkpt>
      <trkpt lat="56.46619" lon="25.9274">
        <ele>86.789313</ele>
        <time>2020-10-06T20:50:11.803Z</time>
      </trkpt>
      <trkpt lat="56.4653" lon="25.92883">
        <ele>86.502072</ele>
        <time>2020-10-06T20:50:37.825Z</time>
      </trkpt>
      <trkpt lat="56.46507" lon="25.92936">
        <ele>86.259053</ele>
        <time>2020-10-06T20:50:45.512Z</time>
      </trkpt>
      <trkpt lat="56.46491" lon="25.92993">
        <ele>86.031591</ele>
        <time>2020-10-06T20:50:52.535Z</time>
      </trkpt>
      <trkpt lat="56.46463" lon="25.93236">
        <ele>85.181198</ele>
        <time>2020-10-06T20:51:19.006Z</time>
      </trkpt>
      <trkpt lat="56.46419" lon="25.93442">
        <ele>84.538608</ele>
        <time>2020-10-06T20:51:44.037Z</time>
      </trkpt>
      <trkpt lat="56.46392" lon="25.93698">
        <ele>85.424493</ele>
        <time>2020-10-06T20:52:20.292Z</time>
      </trkpt>
      <trkpt lat="56.46383" lon="25.93749">
        <ele>85.608932</ele>
        <time>2020-10-06T20:52:28.224Z</time>
      </trkpt>
      <trkpt lat="56.46364" lon="25.93877">
        <ele>86.12579</ele>
        <time>2020-10-06T20:52:47.190Z</time>
      </trkpt>
      <trkpt lat="56.46315" lon="25.94167">
        <ele>87.321737</ele>
        <time>2020-10-06T20:53:28.441Z</time>
      </trkpt>
      <trkpt lat="56.46256" lon="25.94462">
        <ele>88.866704</ele>
        <time>2020-10-06T20:54:12.723Z</time>
      </trkpt>
      <trkpt lat="56.46231" lon="25.9461">
        <ele>89.939063</ele>
        <time>2020-10-06T20:54:36.746Z</time>
      </trkpt>
      <trkpt lat="56.46218" lon="25.94717">
        <ele>90.662827</ele>
        <time>2020-10-06T20:54:53.877Z</time>
      </trkpt>
      <trkpt lat="56.46196" lon="25.9566">
        <ele>96.290969</ele>
        <time>2020-10-06T20:57:12.665Z</time>
      </trkpt>
      <trkpt lat="56.46201" lon="25.95834">
        <ele>96.859403</ele>
        <time>2020-10-06T20:57:36.692Z</time>
      </trkpt>
      <trkpt lat="56.46237" lon="25.96351">
        <ele>98.041173</ele>
        <time>2020-10-06T20:58:45.815Z</time>
      </trkpt>
      <trkpt lat="56.46319" lon="25.9683">
        <ele>97.836348</ele>
        <time>2020-10-06T20:59:46.572Z</time>
      </trkpt>
      <trkpt lat="56.46392" lon="25.97187">
        <ele>97.060516</ele>
        <time>2020-10-06T21:00:30.125Z</time>
      </trkpt>
      <trkpt lat="56.4641" lon="25.97297">
        <ele>96.863283</ele>
        <time>2020-10-06T21:00:43.670Z</time>
      </trkpt>
      <trkpt lat="56.46426" lon="25.9744">
        <ele>96.672673</ele>
        <time>2020-10-06T21:01:01.139Z</time>
      </trkpt>
      <trkpt lat="56.46431" lon="25.97572">
        <ele>96.471854</ele>
        <time>2020-10-06T21:01:16.920Z</time>
      </trkpt>
      <trkpt lat="56.46429" lon="25.977">
        <ele>96.144194</ele>
        <time>2020-10-06T21:01:31.807Z</time>
      </trkpt>
      <trkpt lat="56.46414" lon="25.97953">
        <ele>95.539001</ele>
        <time>2020-10-06T21:02:00.415Z</time>
      </trkpt>
      <trkpt lat="56.46391" lon="25.98103">
        <ele>95.228275</ele>
        <time>2020-10-06T21:02:18.300Z</time>
      </trkpt>
      <trkpt lat="56.46364" lon="25.9825">
        <ele>94.986591</ele>
        <time>2020-10-06T21:02:36.996Z</time>
      </trkpt>
      <trkpt lat="56.46283" lon="25.98733">
        <ele>93.867983</ele>
        <time>2020-10-06T21:03:37.598Z</time>
      </trkpt>
      <trkpt lat="56.4619" lon="25.99227">
        <ele>89.74697</ele>
        <time>2020-10-06T21:04:29.131Z</time>
      </trkpt>
      <trkpt lat="56.46124" lon="25.99609">
        <ele>88.959493</ele>
        <time>2020-10-06T21:05:14.427Z</time>
      </trkpt>
      <trkpt lat="56.46049" lon="26.00032">
        <ele>92.054315</ele>
        <time>2020-10-06T21:06:24.960Z</time>
      </trkpt>
      <trkpt lat="56.46025" lon="26.00173">
        <ele>93.436414</ele>
        <time>2020-10-06T21:06:49.499Z</time>
      </trkpt>
      <trkpt lat="56.45974" lon="26.00475">
        <ele>95.680271</ele>
        <time>2020-10-06T21:07:39.734Z</time>
      </trkpt>
      <trkpt lat="56.4594" lon="26.00677">
        <ele>96.321138</ele>
        <time>2020-10-06T21:08:07.421Z</time>
      </trkpt>
      <trkpt lat="56.45869" lon="26.01067">
        <ele>92.655743</ele>
        <time>2020-10-06T21:08:48.616Z</time>
      </trkpt>
      <trkpt lat="56.45811" lon="26.01465">
        <ele>87.650559</ele>
        <time>2020-10-06T21:09:27.240Z</time>
      </trkpt>
      <trkpt lat="56.45763" lon="26.01866">
        <ele>83.991611</ele>
        <time>2020-10-06T21:10:08.841Z</time>
      </trkpt>
      <trkpt lat="56.45718" lon="26.02107">
        <ele>83.029037</ele>
        <time>2020-10-06T21:10:37.020Z</time>
      </trkpt>
      <trkpt lat="56.45706" lon="26.02153">
        <ele>82.899924</ele>
        <time>2020-10-06T21:10:42.951Z</time>
      </trkpt>
      <trkpt lat="56.45674" lon="26.02281">
        <ele>82.750816</ele>
        <time>2020-10-06T21:11:00.153Z</time>
      </trkpt>
      <trkpt lat="56.45591" lon="26.02515">
        <ele>83.092354</ele>
        <time>2020-10-06T21:11:36.139Z</time>
      </trkpt>
      <trkpt lat="56.45515" lon="26.02704">
        <ele>83.393952</ele>
        <time>2020-10-06T21:12:06.838Z</time>
      </trkpt>
      <trkpt lat="56.44643" lon="26.04789">
        <ele>84.074989</ele>
        <time>2020-10-06T21:17:31.165Z</time>
      </trkpt>
      <trkpt lat="56.44504" lon="26.0507">
        <ele>84.39835</ele>
        <time>2020-10-06T21:18:19.338Z</time>
      </trkpt>
      <trkpt lat="56.44359" lon="26.05346">
        <ele>84.28574</ele>
        <time>2020-10-06T21:19:05.269Z</time>
      </trkpt>
      <trkpt lat="56.44247" lon="26.05519">
        <ele>84.512857</ele>
        <time>2020-10-06T21:19:38.627Z</time>
      </trkpt>
      <trkpt lat="56.43947" lon="26.05889">
        <ele>87.456122</ele>
        <time>2020-10-06T21:21:11.286Z</time>
      </trkpt>
      <trkpt lat="56.43832" lon="26.06011">
        <ele>89.158415</ele>
        <time>2020-10-06T21:21:48.634Z</time>
      </trkpt>
      <trkpt lat="56.43681" lon="26.06116">
        <ele>90.594348</ele>
        <time>2020-10-06T21:22:32.667Z</time>
      </trkpt>
      <trkpt lat="56.43576" lon="26.06163">
        <ele>90.764281</ele>
        <time>2020-10-06T21:22:56.699Z</time>
      </trkpt>
      <trkpt lat="56.43515" lon="26.06189">
        <ele>90.147395</ele>
        <time>2020-10-06T21:23:08.929Z</time>
      </trkpt>
      <trkpt lat="56.43445" lon="26.06222">
        <ele>89.448807</ele>
        <time>2020-10-06T21:23:22.271Z</time>
      </trkpt>
      <trkpt lat="56.43342" lon="26.06276">
        <ele>88.077298</ele>
        <time>2020-10-06T21:23:41.765Z</time>
      </trkpt>
      <trkpt lat="56.43221" lon="26.06328">
        <ele>86.853495</ele>
        <time>2020-10-06T21:24:05.700Z</time>
      </trkpt>
      <trkpt lat="56.43091" lon="26.0637">
        <ele>86.442609</ele>
        <time>2020-10-06T21:24:33.878Z</time>
      </trkpt>
      <trkpt lat="56.42839" lon="26.06375">
        <ele>87.571167</ele>
        <time>2020-10-06T21:25:36.795Z</time>
      </trkpt>
      <trkpt lat="56.4274" lon="26.06375">
        <ele>87.753224</ele>
        <time>2020-10-06T21:25:59.418Z</time>
      </trkpt>
      <trkpt lat="56.42477" lon="26.06384">
        <ele>86.293444</ele>
        <time>2020-10-06T21:26:52.372Z</time>
      </trkpt>
      <trkpt lat="56.42409" lon="26.0639">
        <ele>85.844066</ele>
        <time>2020-10-06T21:27:05.975Z</time>
      </trkpt>
      <trkpt lat="56.42363" lon="26.06402">
        <ele>85.551239</ele>
        <time>2020-10-06T21:27:15.167Z</time>
      </trkpt>
      <trkpt lat="56.41992" lon="26.0656">
        <ele>85.0619</ele>
        <time>2020-10-06T21:28:37.503Z</time>
      </trkpt>
      <trkpt lat="56.41706" lon="26.06692">
        <ele>87.17359</ele>
        <time>2020-10-06T21:29:54.794Z</time>
      </trkpt>
      <trkpt lat="56.41444" lon="26.06892">
        <ele>87.060664</ele>
        <time>2020-10-06T21:30:56.204Z</time>
      </trkpt>
      <trkpt lat="56.41267" lon="26.07139">
        <ele>86.577793</ele>
        <time>2020-10-06T21:31:43.871Z</time>
      </trkpt>
      <trkpt lat="56.4108" lon="26.07351">
        <ele>86.435909</ele>
        <time>2020-10-06T21:32:32.246Z</time>
      </trkpt>
      <trkpt lat="56.40722" lon="26.07943">
        <ele>87.536795</ele>
        <time>2020-10-06T21:34:26.525Z</time>
      </trkpt>
      <trkpt lat="56.40702" lon="26.07999">
        <ele>87.547145</ele>
        <time>2020-10-06T21:34:34.400Z</time>
      </trkpt>
      <trkpt lat="56.40684" lon="26.08054">
        <ele>87.557325</ele>
        <time>2020-10-06T21:34:41.975Z</time>
      </trkpt>
      <trkpt lat="56.40551" lon="26.08573">
        <ele>86.10444</ele>
        <time>2020-10-06T21:35:46.731Z</time>
      </trkpt>
      <trkpt lat="56.40372" lon="26.09278">
        <ele>85.64725</ele>
        <time>2020-10-06T21:37:21.213Z</time>
      </trkpt>
      <trkpt lat="56.40345" lon="26.09389">
        <ele>85.79117</ele>
        <time>2020-10-06T21:37:36.419Z</time>
      </trkpt>
      <trkpt lat="56.40306" lon="26.09516">
        <ele>85.963497</ele>
        <time>2020-10-06T21:37:55.044Z</time>
      </trkpt>
      <trkpt lat="56.40157" lon="26.09946">
        <ele>88.148011</ele>
        <time>2020-10-06T21:39:05.525Z</time>
      </trkpt>
      <trkpt lat="56.40068" lon="26.10202">
        <ele>90.05048</ele>
        <time>2020-10-06T21:39:52.643Z</time>
      </trkpt>
      <trkpt lat="56.39997" lon="26.10395">
        <ele>91.375943</ele>
        <time>2020-10-06T21:40:26.800Z</time>
      </trkpt>
      <trkpt lat="56.39932" lon="26.10518">
        <ele>91.641254</ele>
        <time>2020-10-06T21:40:49.001Z</time>
      </trkpt>
      <trkpt lat="56.39847" lon="26.10648">
        <ele>91.808974</ele>
        <time>2020-10-06T21:41:13.494Z</time>
      </trkpt>
      <trkpt lat="56.3972" lon="26.10849">
        <ele>91.637892</ele>
        <time>2020-10-06T21:41:50.656Z</time>
      </trkpt>
      <trkpt lat="56.39678" lon="26.10921">
        <ele>91.479727</ele>
        <time>2020-10-06T21:42:03.332Z</time>
      </trkpt>
      <trkpt lat="56.39608" lon="26.11083">
        <ele>91.120769</ele>
        <time>2020-10-06T21:42:26.980Z</time>
      </trkpt>
      <trkpt lat="56.395" lon="26.1147">
        <ele>90.568287</ele>
        <time>2020-10-06T21:43:16.308Z</time>
      </trkpt>
      <trkpt lat="56.39437" lon="26.1162">
        <ele>90.820362</ele>
        <time>2020-10-06T21:43:43.515Z</time>
      </trkpt>
      <trkpt lat="56.39351" lon="26.11801">
        <ele>91.391947</ele>
        <time>2020-10-06T21:44:16.005Z</time>
      </trkpt>
      <trkpt lat="56.39242" lon="26.11998">
        <ele>92.07632</ele>
        <time>2020-10-06T21:44:49.261Z</time>
      </trkpt>
      <trkpt lat="56.39231" lon="26.1202">
        <ele>92.149166</ele>
        <time>2020-10-06T21:44:53.135Z</time>
      </trkpt>
      <trkpt lat="56.39089" lon="26.12333">
        <ele>95.352356</ele>
        <time>2020-10-06T21:45:59.068Z</time>
      </trkpt>
      <trkpt lat="56.39065" lon="26.1238">
        <ele>95.682308</ele>
        <time>2020-10-06T21:46:09.524Z</time>
      </trkpt>
      <trkpt lat="56.38996" lon="26.12513">
        <ele>96.473977</ele>
        <time>2020-10-06T21:46:36.317Z</time>
      </trkpt>
      <trkpt lat="56.38957" lon="26.12582">
        <ele>96.81202</ele>
        <time>2020-10-06T21:46:48.416Z</time>
      </trkpt>
      <trkpt lat="56.38864" lon="26.12718">
        <ele>95.873504</ele>
        <time>2020-10-06T21:47:11.623Z</time>
      </trkpt>
      <trkpt lat="56.38733" lon="26.12866">
        <ele>94.625497</ele>
        <time>2020-10-06T21:47:42.010Z</time>
      </trkpt>
      <trkpt lat="56.38579" lon="26.13023">
        <ele>92.764533</ele>
        <time>2020-10-06T21:48:16.952Z</time>
      </trkpt>
      <trkpt lat="56.38363" lon="26.1325">
        <ele>89.076643</ele>
        <time>2020-10-06T21:49:01.762Z</time>
      </trkpt>
      <trkpt lat="56.38334" lon="26.13281">
        <ele>88.788438</ele>
        <time>2020-10-06T21:49:08.229Z</time>
      </trkpt>
      <trkpt lat="56.37945" lon="26.13691">
        <ele>87.154435</ele>
        <time>2020-10-06T21:50:44.710Z</time>
      </trkpt>
      <trkpt lat="56.3788" lon="26.13745">
        <ele>86.883105</ele>
        <time>2020-10-06T21:50:59.212Z</time>
      </trkpt>
      <trkpt lat="56.37807" lon="26.13799">
        <ele>86.473229</ele>
        <time>2020-10-06T21:51:15.285Z</time>
      </trkpt>
      <trkpt lat="56.37773" lon="26.13823">
        <ele>86.289545</ele>
        <time>2020-10-06T21:51:22.517Z</time>
      </trkpt>
      <trkpt lat="56.37766" lon="26.13828">
        <ele>86.249197</ele>
        <time>2020-10-06T21:51:24.118Z</time>
      </trkpt>
      <trkpt lat="56.37683" lon="26.1387">
        <ele>85.983489</ele>
        <time>2020-10-06T21:51:42.249Z</time>
      </trkpt>
      <trkpt lat="56.37583" lon="26.13925">
        <ele>86.026615</ele>
        <time>2020-10-06T21:52:05.491Z</time>
      </trkpt>
      <trkpt lat="56.37364" lon="26.14052">
        <ele>86.661999</ele>
        <time>2020-10-06T21:53:00.041Z</time>
      </trkpt>
      <trkpt lat="56.36789" lon="26.14506">
        <ele>89.628725</ele>
        <time>2020-10-06T21:55:33.452Z</time>
      </trkpt>
      <trkpt lat="56.36562" lon="26.14675">
        <ele>89.730885</ele>
        <time>2020-10-06T21:56:25.189Z</time>
      </trkpt>
      <trkpt lat="56.36398" lon="26.14767">
        <ele>91.486239</ele>
        <time>2020-10-06T21:57:11.779Z</time>
      </trkpt>
      <trkpt lat="56.36211" lon="26.14896">
        <ele>93.837029</ele>
        <time>2020-10-06T21:58:09.543Z</time>
      </trkpt>
      <trkpt lat="56.35883" lon="26.15129">
        <ele>89.68017</ele>
        <time>2020-10-06T21:59:14.673Z</time>
      </trkpt>
      <trkpt lat="56.35869" lon="26.15139">
        <ele>89.474601</ele>
        <time>2020-10-06T21:59:17.489Z</time>
      </trkpt>
      <trkpt lat="56.35799" lon="26.15181">
        <ele>88.925895</ele>
        <time>2020-10-06T21:59:31.712Z</time>
      </trkpt>
      <trkpt lat="56.35743" lon="26.1519">
        <ele>88.507218</ele>
        <time>2020-10-06T21:59:43.068Z</time>
      </trkpt>
      <trkpt lat="56.35557" lon="26.15184">
        <ele>88.03067</ele>
        <time>2020-10-06T22:00:23.264Z</time>
      </trkpt>
      <trkpt lat="56.35544" lon="26.15187">
        <ele>88.019321</ele>
        <time>2020-10-06T22:00:26.351Z</time>
      </trkpt>
      <trkpt lat="56.35475" lon="26.15205">
        <ele>88.057338</ele>
        <time>2020-10-06T22:00:42.269Z</time>
      </trkpt>
      <trkpt lat="56.35229" lon="26.15295">
        <ele>88.403481</ele>
        <time>2020-10-06T22:01:39.989Z</time>
      </trkpt>
      <trkpt lat="56.34426" lon="26.15665">
        <ele>88.419013</ele>
        <time>2020-10-06T22:04:43.799Z</time>
      </trkpt>
      <trkpt lat="56.34204" lon="26.15789">
        <ele>88.999628</ele>
        <time>2020-10-06T22:05:38.239Z</time>
      </trkpt>
      <trkpt lat="56.33623" lon="26.16065">
        <ele>90.82397</ele>
        <time>2020-10-06T22:07:59.063Z</time>
      </trkpt>
      <trkpt lat="56.33543" lon="26.16076">
        <ele>91.134208</ele>
        <time>2020-10-06T22:08:18.335Z</time>
      </trkpt>
      <trkpt lat="56.33443" lon="26.16071">
        <ele>91.555519</ele>
        <time>2020-10-06T22:08:42.257Z</time>
      </trkpt>
      <trkpt lat="56.33283" lon="26.16058">
        <ele>92.413805</ele>
        <time>2020-10-06T22:09:21.646Z</time>
      </trkpt>
      <trkpt lat="56.33272" lon="26.16057">
        <ele>92.477645</ele>
        <time>2020-10-06T22:09:24.658Z</time>
      </trkpt>
      <trkpt lat="56.33065" lon="26.16022">
        <ele>93.410693</ele>
        <time>2020-10-06T22:10:15.069Z</time>
      </trkpt>
      <trkpt lat="56.32936" lon="26.15982">
        <ele>93.328905</ele>
        <time>2020-10-06T22:10:43.099Z</time>
      </trkpt>
      <trkpt lat="56.32298" lon="26.15743">
        <ele>93.069354</ele>
        <time>2020-10-06T22:13:07.131Z</time>
      </trkpt>
      <trkpt lat="56.32142" lon="26.15727">
        <ele>93.173031</ele>
        <time>2020-10-06T22:13:42.538Z</time>
      </trkpt>
      <trkpt lat="56.31931" lon="26.15732">
        <ele>93.394895</ele>
        <time>2020-10-06T22:14:30.229Z</time>
      </trkpt>
      <trkpt lat="56.31868" lon="26.15744">
        <ele>93.51354</ele>
        <time>2020-10-06T22:14:44.876Z</time>
      </trkpt>
      <trkpt lat="56.31647" lon="26.15837">
        <ele>93.898121</ele>
        <time>2020-10-06T22:15:37.309Z</time>
      </trkpt>
      <trkpt lat="56.315" lon="26.15906">
        <ele>93.69034</ele>
        <time>2020-10-06T22:16:10.194Z</time>
      </trkpt>
      <trkpt lat="56.31403" lon="26.15963">
        <ele>93.755288</ele>
        <time>2020-10-06T22:16:32.426Z</time>
      </trkpt>
      <trkpt lat="56.31302" lon="26.16064">
        <ele>93.955638</ele>
        <time>2020-10-06T22:16:59.646Z</time>
      </trkpt>
      <trkpt lat="56.31166" lon="26.16241">
        <ele>94.725365</ele>
        <time>2020-10-06T22:17:40.852Z</time>
      </trkpt>
      <trkpt lat="56.30684" lon="26.16823">
        <ele>94.491963</ele>
        <time>2020-10-06T22:19:47.687Z</time>
      </trkpt>
      <trkpt lat="56.30616" lon="26.16902">
        <ele>94.776189</ele>
        <time>2020-10-06T22:20:07.090Z</time>
      </trkpt>
      <trkpt lat="56.30449" lon="26.17023">
        <ele>95.400875</ele>
        <time>2020-10-06T22:20:51.611Z</time>
      </trkpt>
      <trkpt lat="56.30402" lon="26.17036">
        <ele>95.565411</ele>
        <time>2020-10-06T22:21:02.562Z</time>
      </trkpt>
      <trkpt lat="56.30237" lon="26.17094">
        <ele>94.982006</ele>
        <time>2020-10-06T22:21:37.683Z</time>
      </trkpt>
      <trkpt lat="56.30074" lon="26.17151">
        <ele>93.918076</ele>
        <time>2020-10-06T22:22:10.640Z</time>
      </trkpt>
      <trkpt lat="56.29863" lon="26.17214">
        <ele>92.985638</ele>
        <time>2020-10-06T22:22:53.770Z</time>
      </trkpt>
      <trkpt lat="56.29635" lon="26.17296">
        <ele>95.038218</ele>
        <time>2020-10-06T22:23:56.945Z</time>
      </trkpt>
      <trkpt lat="56.29559" lon="26.1733">
        <ele>95.52171</ele>
        <time>2020-10-06T22:24:17.464Z</time>
      </trkpt>
      <trkpt lat="56.29149" lon="26.17573">
        <ele>94.604187</ele>
        <time>2020-10-06T22:25:48.941Z</time>
      </trkpt>
      <trkpt lat="56.28633" lon="26.17759">
        <ele>89.763093</ele>
        <time>2020-10-06T22:27:30.691Z</time>
      </trkpt>
      <trkpt lat="56.28625" lon="26.17762">
        <ele>89.749687</ele>
        <time>2020-10-06T22:27:32.446Z</time>
      </trkpt>
      <trkpt lat="56.2818" lon="26.1792">
        <ele>89.148979</ele>
        <time>2020-10-06T22:29:12.147Z</time>
      </trkpt>
      <trkpt lat="56.28078" lon="26.18003">
        <ele>89.000206</ele>
        <time>2020-10-06T22:29:36.396Z</time>
      </trkpt>
      <trkpt lat="56.27998" lon="26.18107">
        <ele>88.833037</ele>
        <time>2020-10-06T22:29:57.407Z</time>
      </trkpt>
      <trkpt lat="56.27786" lon="26.18637">
        <ele>88.484428</ele>
        <time>2020-10-06T22:31:17.023Z</time>
      </trkpt>
      <trkpt lat="56.27753" lon="26.18723">
        <ele>88.441309</ele>
        <time>2020-10-06T22:31:30.258Z</time>
      </trkpt>
      <trkpt lat="56.27712" lon="26.18802">
        <ele>88.34677</ele>
        <time>2020-10-06T22:31:43.505Z</time>
      </trkpt>
      <trkpt lat="56.27679" lon="26.1885">
        <ele>88.279863</ele>
        <time>2020-10-06T22:31:52.774Z</time>
      </trkpt>
      <trkpt lat="56.27579" lon="26.18945">
        <ele>88.113827</ele>
        <time>2020-10-06T22:32:16.396Z</time>
      </trkpt>
      <trkpt lat="56.27488" lon="26.1902">
        <ele>87.980434</ele>
        <time>2020-10-06T22:32:38.106Z</time>
      </trkpt>
      <trkpt lat="56.2742" lon="26.19073">
        <ele>88.091078</ele>
        <time>2020-10-06T22:32:55.427Z</time>
      </trkpt>
      <trkpt lat="56.27279" lon="26.19147">
        <ele>88.562936</ele>
        <time>2020-10-06T22:33:31.130Z</time>
      </trkpt>
      <trkpt lat="56.27025" lon="26.19242">
        <ele>88.463249</ele>
        <time>2020-10-06T22:34:28.268Z</time>
      </trkpt>
      <trkpt lat="56.26911" lon="26.19249">
        <ele>88.219667</ele>
        <time>2020-10-06T22:34:52.124Z</time>
      </trkpt>
      <trkpt lat="56.26708" lon="26.19216">
        <ele>87.737071</ele>
        <time>2020-10-06T22:35:35.436Z</time>
      </trkpt>
      <trkpt lat="56.2662" lon="26.19148">
        <ele>87.698233</ele>
        <time>2020-10-06T22:35:56.633Z</time>
      </trkpt>
      <trkpt lat="56.26306" lon="26.18804">
        <ele>88.302119</ele>
        <time>2020-10-06T22:37:21.502Z</time>
      </trkpt>
      <trkpt lat="56.26187" lon="26.18633">
        <ele>88.665139</ele>
        <time>2020-10-06T22:37:56.852Z</time>
      </trkpt>
      <trkpt lat="56.25729" lon="26.17889">
        <ele>90.795677</ele>
        <time>2020-10-06T22:40:22.974Z</time>
      </trkpt>
      <trkpt lat="56.25668" lon="26.17816">
        <ele>91.077369</ele>
        <time>2020-10-06T22:40:40.198Z</time>
      </trkpt>
      <trkpt lat="56.25531" lon="26.1773">
        <ele>91.641155</ele>
        <time>2020-10-06T22:41:15.120Z</time>
      </trkpt>
      <trkpt lat="56.25398" lon="26.17671">
        <ele>92.13204</ele>
        <time>2020-10-06T22:41:47.682Z</time>
      </trkpt>
      <trkpt lat="56.25098" lon="26.17582">
        <ele>92.794195</ele>
        <time>2020-10-06T22:42:57.020Z</time>
      </trkpt>
      <trkpt lat="56.24834" lon="26.17502">
        <ele>94.358926</ele>
        <time>2020-10-06T22:44:03.709Z</time>
      </trkpt>
      <trkpt lat="56.24793" lon="26.17471">
        <ele>94.622125</ele>
        <time>2020-10-06T22:44:15.134Z</time>
      </trkpt>
      <trkpt lat="56.24773" lon="26.17456">
        <ele>94.751983</ele>
        <time>2020-10-06T22:44:20.856Z</time>
      </trkpt>
      <trkpt lat="56.24632" lon="26.17316">
        <ele>95.014268</ele>
        <time>2020-10-06T22:44:58.869Z</time>
      </trkpt>
      <trkpt lat="56.24458" lon="26.17202">
        <ele>94.045818</ele>
        <time>2020-10-06T22:45:36.109Z</time>
      </trkpt>
      <trkpt lat="56.24402" lon="26.17162">
        <ele>93.535889</ele>
        <time>2020-10-06T22:45:47.715Z</time>
      </trkpt>
      <trkpt lat="56.24334" lon="26.17117">
        <ele>92.730952</ele>
        <time>2020-10-06T22:46:01.530Z</time>
      </trkpt>
      <trkpt lat="56.24262" lon="26.17085">
        <ele>91.852146</ele>
        <time>2020-10-06T22:46:15.441Z</time>
      </trkpt>
      <trkpt lat="56.24198" lon="26.17069">
        <ele>91.137144</ele>
        <time>2020-10-06T22:46:27.451Z</time>
      </trkpt>
      <trkpt lat="56.24079" lon="26.17065">
        <ele>90.172566</ele>
        <time>2020-10-06T22:46:50.506Z</time>
      </trkpt>
      <trkpt lat="56.24023" lon="26.17084">
        <ele>89.864011</ele>
        <time>2020-10-06T22:47:02.370Z</time>
      </trkpt>
      <trkpt lat="56.2344" lon="26.17314">
        <ele>93.55857</ele>
        <time>2020-10-06T22:49:32.137Z</time>
      </trkpt>
      <trkpt lat="56.23207" lon="26.17482">
        <ele>94.105051</ele>
        <time>2020-10-06T22:50:29.819Z</time>
      </trkpt>
      <trkpt lat="56.23022" lon="26.17641">
        <ele>94.159702</ele>
        <time>2020-10-06T22:51:14.556Z</time>
      </trkpt>
      <trkpt lat="56.22368" lon="26.18632">
        <ele>98.004116</ele>
        <time>2020-10-06T22:54:41.428Z</time>
      </trkpt>
      <trkpt lat="56.22194" lon="26.18958">
        <ele>98.906938</ele>
        <time>2020-10-06T22:55:41.912Z</time>
      </trkpt>
      <trkpt lat="56.22011" lon="26.19391">
        <ele>96.756443</ele>
        <time>2020-10-06T22:56:43.276Z</time>
      </trkpt>
      <trkpt lat="56.21852" lon="26.20062">
        <ele>89.119852</ele>
        <time>2020-10-06T22:57:54.687Z</time>
      </trkpt>
      <trkpt lat="56.21839" lon="26.20133">
        <ele>88.614419</ele>
        <time>2020-10-06T22:58:02.121Z</time>
      </trkpt>
      <trkpt lat="56.21799" lon="26.20406">
        <ele>86.853215</ele>
        <time>2020-10-06T22:58:32.352Z</time>
      </trkpt>
      <trkpt lat="56.2177" lon="26.20695">
        <ele>86.296516</ele>
        <time>2020-10-06T22:59:07.379Z</time>
      </trkpt>
      <trkpt lat="56.21712" lon="26.21314">
        <ele>86.75536</ele>
        <time>2020-10-06T23:00:27.271Z</time>
      </trkpt>
      <trkpt lat="56.21661" lon="26.21791">
        <ele>86.723173</ele>
        <time>2020-10-06T23:01:27.600Z</time>
      </trkpt>
      <trkpt lat="56.21606" lon="26.22305">
        <ele>86.379639</ele>
        <time>2020-10-06T23:02:30.790Z</time>
      </trkpt>
      <trkpt lat="56.21581" lon="26.22496">
        <ele>86.50902</ele>
        <time>2020-10-06T23:02:55.492Z</time>
      </trkpt>
      <trkpt lat="56.215" lon="26.22831">
        <ele>87.015922</ele>
        <time>2020-10-06T23:03:43.244Z</time>
      </trkpt>
      <trkpt lat="56.21385" lon="26.23202">
        <ele>87.661369</ele>
        <time>2020-10-06T23:04:39.183Z</time>
      </trkpt>
      <trkpt lat="56.21063" lon="26.24172">
        <ele>87.35618</ele>
        <time>2020-10-06T23:06:57.128Z</time>
      </trkpt>
      <trkpt lat="56.20467" lon="26.26052">
        <ele>87.915203</ele>
        <time>2020-10-06T23:11:28.329Z</time>
      </trkpt>
      <trkpt lat="56.20313" lon="26.26356">
        <ele>88.027885</ele>
        <time>2020-10-06T23:12:19.896Z</time>
      </trkpt>
      <trkpt lat="56.20112" lon="26.26666">
        <ele>88.05304</ele>
        <time>2020-10-06T23:13:18.257Z</time>
      </trkpt>
      <trkpt lat="56.19895" lon="26.26887">
        <ele>89.272202</ele>
        <time>2020-10-06T23:14:18.765Z</time>
      </trkpt>
      <trkpt lat="56.19603" lon="26.27058">
        <ele>90.803108</ele>
        <time>2020-10-06T23:15:35.482Z</time>
      </trkpt>
      <trkpt lat="56.19128" lon="26.27307">
        <ele>87.708753</ele>
        <time>2020-10-06T23:17:13.861Z</time>
      </trkpt>
      <trkpt lat="56.19058" lon="26.27351">
        <ele>87.72603</ele>
        <time>2020-10-06T23:17:30.123Z</time>
      </trkpt>
      <trkpt lat="56.18868" lon="26.27512">
        <ele>88.366673</ele>
        <time>2020-10-06T23:18:21.304Z</time>
      </trkpt>
      <trkpt lat="56.18685" lon="26.27739">
        <ele>88.861761</ele>
        <time>2020-10-06T23:19:12.947Z</time>
      </trkpt>
      <trkpt lat="56.18176" lon="26.28485">
        <ele>88.36759</ele>
        <time>2020-10-06T23:21:36.051Z</time>
      </trkpt>
      <trkpt lat="56.18065" lon="26.28737">
        <ele>88.40348</ele>
        <time>2020-10-06T23:22:18.099Z</time>
      </trkpt>
      <trkpt lat="56.17851" lon="26.29362">
        <ele>87.585984</ele>
        <time>2020-10-06T23:23:45.130Z</time>
      </trkpt>
      <trkpt lat="56.17606" lon="26.29924">
        <ele>86.535837</ele>
        <time>2020-10-06T23:25:09.611Z</time>
      </trkpt>
      <trkpt lat="56.17288" lon="26.30533">
        <ele>86.938532</ele>
        <time>2020-10-06T23:26:55.188Z</time>
      </trkpt>
      <trkpt lat="56.17084" lon="26.30813">
        <ele>87.336615</ele>
        <time>2020-10-06T23:27:54.215Z</time>
      </trkpt>
      <trkpt lat="56.16769" lon="26.31094">
        <ele>87.4</ele>
        <time>2020-10-06T23:29:12.783Z</time>
      </trkpt>
      <trkpt lat="56.16578" lon="26.31265">
        <ele>87.388981</ele>
        <time>2020-10-06T23:30:00.225Z</time>
      </trkpt>
      <trkpt lat="56.16397" lon="26.31458">
        <ele>87.195606</ele>
        <time>2020-10-06T23:30:46.554Z</time>
      </trkpt>
      <trkpt lat="56.16353" lon="26.31476">
        <ele>87.075699</ele>
        <time>2020-10-06T23:30:55.913Z</time>
      </trkpt>
      <trkpt lat="56.16279" lon="26.31472">
        <ele>86.875173</ele>
        <time>2020-10-06T23:31:11.617Z</time>
      </trkpt>
      <trkpt lat="56.16255" lon="26.31485">
        <ele>86.808876</ele>
        <time>2020-10-06T23:31:16.815Z</time>
      </trkpt>
      <trkpt lat="56.16232" lon="26.31548">
        <ele>86.698243</ele>
        <time>2020-10-06T23:31:25.625Z</time>
      </trkpt>
      <trkpt lat="56.16217" lon="26.31638">
        <ele>86.559499</ele>
        <time>2020-10-06T23:31:36.809Z</time>
      </trkpt>
      <trkpt lat="56.16194" lon="26.31699">
        <ele>86.451527</ele>
        <time>2020-10-06T23:31:45.545Z</time>
      </trkpt>
      <trkpt lat="56.16163" lon="26.31747">
        <ele>86.34283</ele>
        <time>2020-10-06T23:31:54.353Z</time>
      </trkpt>
      <trkpt lat="56.15905" lon="26.32018">
        <ele>86.043855</ele>
        <time>2020-10-06T23:32:59.951Z</time>
      </trkpt>
      <trkpt lat="56.14988" lon="26.32947">
        <ele>86.096334</ele>
        <time>2020-10-06T23:36:54.630Z</time>
      </trkpt>
      <trkpt lat="56.1486" lon="26.33069">
        <ele>86.33024</ele>
        <time>2020-10-06T23:37:27.956Z</time>
      </trkpt>
      <trkpt lat="56.14781" lon="26.33126">
        <ele>86.548133</ele>
        <time>2020-10-06T23:37:47.769Z</time>
      </trkpt>
      <trkpt lat="56.14496" lon="26.33283">
        <ele>87.028377</ele>
        <time>2020-10-06T23:38:56.276Z</time>
      </trkpt>
      <trkpt lat="56.14398" lon="26.33329">
        <ele>87.097065</ele>
        <time>2020-10-06T23:39:18.897Z</time>
      </trkpt>
      <trkpt lat="56.14318" lon="26.33347">
        <ele>87.276629</ele>
        <time>2020-10-06T23:39:37.095Z</time>
      </trkpt>
      <trkpt lat="56.1423" lon="26.33355">
        <ele>87.488298</ele>
        <time>2020-10-06T23:39:57.562Z</time>
      </trkpt>
      <trkpt lat="56.14138" lon="26.33348">
        <ele>87.988446</ele>
        <time>2020-10-06T23:40:20.105Z</time>
      </trkpt>
      <trkpt lat="56.14077" lon="26.33333">
        <ele>88.373273</ele>
        <time>2020-10-06T23:40:35.639Z</time>
      </trkpt>
      <trkpt lat="56.14006" lon="26.33309">
        <ele>88.767635</ele>
        <time>2020-10-06T23:40:53.900Z</time>
      </trkpt>
      <trkpt lat="56.13921" lon="26.33258">
        <ele>89.129285</ele>
        <time>2020-10-06T23:41:15.846Z</time>
      </trkpt>
      <trkpt lat="56.13517" lon="26.32999">
        <ele>89.29134</ele>
        <time>2020-10-06T23:42:51.289Z</time>
      </trkpt>
      <trkpt lat="56.13414" lon="26.3296">
        <ele>88.997631</ele>
        <time>2020-10-06T23:43:13.292Z</time>
      </trkpt>
      <trkpt lat="56.12928" lon="26.32814">
        <ele>88.284577</ele>
        <time>2020-10-06T23:45:00.283Z</time>
      </trkpt>
      <trkpt lat="56.12816" lon="26.32756">
        <ele>88.264764</ele>
        <time>2020-10-06T23:45:26.856Z</time>
      </trkpt>
      <trkpt lat="56.12672" lon="26.32692">
        <ele>88.010398</ele>
        <time>2020-10-06T23:45:59.319Z</time>
      </trkpt>
      <trkpt lat="56.12573" lon="26.32702">
        <ele>87.448843</ele>
        <time>2020-10-06T23:46:19.525Z</time>
      </trkpt>
      <trkpt lat="56.12363" lon="26.32797">
        <ele>85.919196</ele>
        <time>2020-10-06T23:47:01.947Z</time>
      </trkpt>
      <trkpt lat="56.12247" lon="26.32826">
        <ele>85.441533</ele>
        <time>2020-10-06T23:47:26.320Z</time>
      </trkpt>
      <trkpt lat="56.10468" lon="26.32749">
        <ele>86.661903</ele>
        <time>2020-10-06T23:54:08.206Z</time>
      </trkpt>
      <trkpt lat="56.10307" lon="26.32732">
        <ele>87.116917</ele>
        <time>2020-10-06T23:54:45.693Z</time>
      </trkpt>
      <trkpt lat="56.10242" lon="26.32705">
        <ele>87.862432</ele>
        <time>2020-10-06T23:55:02.183Z</time>
      </trkpt>
      <trkpt lat="56.10163" lon="26.32623">
        <ele>88.889647</ele>
        <time>2020-10-06T23:55:26.900Z</time>
      </trkpt>
      <trkpt lat="56.09855" lon="26.32251">
        <ele>97.300617</ele>
        <time>2020-10-06T23:57:24.833Z</time>
      </trkpt>
      <trkpt lat="56.09742" lon="26.32168">
        <ele>99.603198</ele>
        <time>2020-10-06T23:58:03.776Z</time>
      </trkpt>
      <trkpt lat="56.09585" lon="26.31987">
        <ele>101.506742</ele>
        <time>2020-10-06T23:58:52.505Z</time>
      </trkpt>
      <trkpt lat="56.09489" lon="26.31817">
        <ele>101.902361</ele>
        <time>2020-10-06T23:59:21.224Z</time>
      </trkpt>
      <trkpt lat="56.09453" lon="26.31634">
        <ele>102.045323</ele>
        <time>2020-10-06T23:59:45.771Z</time>
      </trkpt>
      <trkpt lat="56.09426" lon="26.3144">
        <ele>103.153966</ele>
        <time>2020-10-07T00:00:15.656Z</time>
      </trkpt>
      <trkpt lat="56.09421" lon="26.31403">
        <ele>103.363894</ele>
        <time>2020-10-07T00:00:21.858Z</time>
      </trkpt>
      <trkpt lat="56.09373" lon="26.31297">
        <ele>103.893732</ele>
        <time>2020-10-07T00:00:42.211Z</time>
      </trkpt>
      <trkpt lat="56.09313" lon="26.31243">
        <ele>104.141616</ele>
        <time>2020-10-07T00:00:59.178Z</time>
      </trkpt>
      <trkpt lat="56.0924" lon="26.31235">
        <ele>104.411911</ele>
        <time>2020-10-07T00:01:14.716Z</time>
      </trkpt>
      <trkpt lat="56.09176" lon="26.31251">
        <ele>104.156452</ele>
        <time>2020-10-07T00:01:27.982Z</time>
      </trkpt>
      <trkpt lat="56.09152" lon="26.31242">
        <ele>104.04786</ele>
        <time>2020-10-07T00:01:32.864Z</time>
      </trkpt>
      <trkpt lat="56.09102" lon="26.31184">
        <ele>103.776871</ele>
        <time>2020-10-07T00:01:45.150Z</time>
      </trkpt>
      <trkpt lat="56.09047" lon="26.31036">
        <ele>103.599967</ele>
        <time>2020-10-07T00:02:06.382Z</time>
      </trkpt>
      <trkpt lat="56.09009" lon="26.30816">
        <ele>103.582165</ele>
        <time>2020-10-07T00:02:35.698Z</time>
      </trkpt>
      <trkpt lat="56.08983" lon="26.30572">
        <ele>103.754616</ele>
        <time>2020-10-07T00:03:07.088Z</time>
      </trkpt>
      <trkpt lat="56.0897" lon="26.30359">
        <ele>104.105124</ele>
        <time>2020-10-07T00:03:34.958Z</time>
      </trkpt>
      <trkpt lat="56.0894" lon="26.30163">
        <ele>104.529958</ele>
        <time>2020-10-07T00:04:02.285Z</time>
      </trkpt>
      <trkpt lat="56.08889" lon="26.29976">
        <ele>105.096718</ele>
        <time>2020-10-07T00:04:30.731Z</time>
      </trkpt>
      <trkpt lat="56.08805" lon="26.2977">
        <ele>105.750975</ele>
        <time>2020-10-07T00:05:04.358Z</time>
      </trkpt>
      <trkpt lat="56.08759" lon="26.29619">
        <ele>106.305453</ele>
        <time>2020-10-07T00:05:27.775Z</time>
      </trkpt>
      <trkpt lat="56.08523" lon="26.29067">
        <ele>110.858692</ele>
        <time>2020-10-07T00:07:12.812Z</time>
      </trkpt>
      <trkpt lat="56.08491" lon="26.29022">
        <ele>111.388079</ele>
        <time>2020-10-07T00:07:24.325Z</time>
      </trkpt>
      <trkpt lat="56.08484" lon="26.29016">
        <ele>111.492773</ele>
        <time>2020-10-07T00:07:27.031Z</time>
      </trkpt>
      <trkpt lat="56.08424" lon="26.28964">
        <ele>112.366625</ele>
        <time>2020-10-07T00:07:45.634Z</time>
      </trkpt>
      <trkpt lat="56.08294" lon="26.2875">
        <ele>113.790753</ele>
        <time>2020-10-07T00:08:30.993Z</time>
      </trkpt>
      <trkpt lat="56.08212" lon="26.28372">
        <ele>113.687587</ele>
        <time>2020-10-07T00:09:20.764Z</time>
      </trkpt>
      <trkpt lat="56.08173" lon="26.28269">
        <ele>113.154315</ele>
        <time>2020-10-07T00:09:35.214Z</time>
      </trkpt>
      <trkpt lat="56.08094" lon="26.28111">
        <ele>111.705012</ele>
        <time>2020-10-07T00:09:57.769Z</time>
      </trkpt>
      <trkpt lat="56.08061" lon="26.27987">
        <ele>109.876414</ele>
        <time>2020-10-07T00:10:11.115Z</time>
      </trkpt>
      <trkpt lat="56.08004" lon="26.27674">
        <ele>104.578338</ele>
        <time>2020-10-07T00:10:41.043Z</time>
      </trkpt>
      <trkpt lat="56.07981" lon="26.27619">
        <ele>103.351517</ele>
        <time>2020-10-07T00:10:47.292Z</time>
      </trkpt>
      <trkpt lat="56.07944" lon="26.27574">
        <ele>102.068727</ele>
        <time>2020-10-07T00:10:54.505Z</time>
      </trkpt>
      <trkpt lat="56.07677" lon="26.27469">
        <ele>96.083767</ele>
        <time>2020-10-07T00:11:41.623Z</time>
      </trkpt>
      <trkpt lat="56.07635" lon="26.27462">
        <ele>95.33041</ele>
        <time>2020-10-07T00:11:49.534Z</time>
      </trkpt>
      <trkpt lat="56.07496" lon="26.27526">
        <ele>94.54999</ele>
        <time>2020-10-07T00:12:18.732Z</time>
      </trkpt>
      <trkpt lat="56.0656" lon="26.2811">
        <ele>98.060217</ele>
        <time>2020-10-07T00:16:15.827Z</time>
      </trkpt>
      <trkpt lat="56.06368" lon="26.28225">
        <ele>97.913532</ele>
        <time>2020-10-07T00:17:00.858Z</time>
      </trkpt>
      <trkpt lat="56.06286" lon="26.28288">
        <ele>97.461069</ele>
        <time>2020-10-07T00:17:19.089Z</time>
      </trkpt>
      <trkpt lat="56.0616" lon="26.28362">
        <ele>96.6152</ele>
        <time>2020-10-07T00:17:45.042Z</time>
      </trkpt>
      <trkpt lat="56.06112" lon="26.28393">
        <ele>96.262865</ele>
        <time>2020-10-07T00:17:55.070Z</time>
      </trkpt>
      <trkpt lat="56.06029" lon="26.28439">
        <ele>96.04919</ele>
        <time>2020-10-07T00:18:13.290Z</time>
      </trkpt>
      <trkpt lat="56.06006" lon="26.28438">
        <ele>96.065327</ele>
        <time>2020-10-07T00:18:18.280Z</time>
      </trkpt>
      <trkpt lat="56.05919" lon="26.28403">
        <ele>96.12781</ele>
        <time>2020-10-07T00:18:39.319Z</time>
      </trkpt>
      <trkpt lat="56.05866" lon="26.28383">
        <ele>96.198373</ele>
        <time>2020-10-07T00:18:52.617Z</time>
      </trkpt>
      <trkpt lat="56.0583" lon="26.28357">
        <ele>96.258488</ele>
        <time>2020-10-07T00:19:02.183Z</time>
      </trkpt>
      <trkpt lat="56.05813" lon="26.28337">
        <ele>96.289737</ele>
        <time>2020-10-07T00:19:07.039Z</time>
      </trkpt>
      <trkpt lat="56.05787" lon="26.28269">
        <ele>96.361914</ele>
        <time>2020-10-07T00:19:17.926Z</time>
      </trkpt>
      <trkpt lat="56.05774" lon="26.28258">
        <ele>96.384321</ele>
        <time>2020-10-07T00:19:21.268Z</time>
      </trkpt>
      <trkpt lat="56.05503" lon="26.28304">
        <ele>93.632853</ele>
        <time>2020-10-07T00:20:13.763Z</time>
      </trkpt>
      <trkpt lat="56.05453" lon="26.28309">
        <ele>92.878588</ele>
        <time>2020-10-07T00:20:22.261Z</time>
      </trkpt>
      <trkpt lat="56.05323" lon="26.28311">
        <ele>91.53001</ele>
        <time>2020-10-07T00:20:46.213Z</time>
      </trkpt>
      <trkpt lat="56.0528" lon="26.2831">
        <ele>91.268575</ele>
        <time>2020-10-07T00:20:55.275Z</time>
      </trkpt>
      <trkpt lat="56.05226" lon="26.28311">
        <ele>90.941023</ele>
        <time>2020-10-07T00:21:07.510Z</time>
      </trkpt>
      <trkpt lat="56.05124" lon="26.28328">
        <ele>90.755236</ele>
        <time>2020-10-07T00:21:31.767Z</time>
      </trkpt>
      <trkpt lat="56.04968" lon="26.28399">
        <ele>90.002451</ele>
        <time>2020-10-07T00:22:04.860Z</time>
      </trkpt>
      <trkpt lat="56.04923" lon="26.28409">
        <ele>89.600639</ele>
        <time>2020-10-07T00:22:13.318Z</time>
      </trkpt>
      <trkpt lat="56.04882" lon="26.28399">
        <ele>89.230178</ele>
        <time>2020-10-07T00:22:21.123Z</time>
      </trkpt>
      <trkpt lat="56.04821" lon="26.28349">
        <ele>88.696221</ele>
        <time>2020-10-07T00:22:33.943Z</time>
      </trkpt>
      <trkpt lat="56.04797" lon="26.28312">
        <ele>88.459792</ele>
        <time>2020-10-07T00:22:40.062Z</time>
      </trkpt>
      <trkpt lat="56.04705" lon="26.28107">
        <ele>87.872352</ele>
        <time>2020-10-07T00:23:10.329Z</time>
      </trkpt>
      <trkpt lat="56.04655" lon="26.28014">
        <ele>88.165551</ele>
        <time>2020-10-07T00:23:27.298Z</time>
      </trkpt>
      <trkpt lat="56.04626" lon="26.27973">
        <ele>88.320553</ele>
        <time>2020-10-07T00:23:36.929Z</time>
      </trkpt>
      <trkpt lat="56.04568" lon="26.27933">
        <ele>89.087427</ele>
        <time>2020-10-07T00:23:53.882Z</time>
      </trkpt>
      <trkpt lat="56.04523" lon="26.27919">
        <ele>89.948748</ele>
        <time>2020-10-07T00:24:07.074Z</time>
      </trkpt>
      <trkpt lat="56.04037" lon="26.27793">
        <ele>98.412823</ele>
        <time>2020-10-07T00:26:36.157Z</time>
      </trkpt>
      <trkpt lat="56.02908" lon="26.27503">
        <ele>93.034586</ele>
        <time>2020-10-07T00:30:25.361Z</time>
      </trkpt>
      <trkpt lat="56.02241" lon="26.27342">
        <ele>107.237016</ele>
        <time>2020-10-07T00:33:56.676Z</time>
      </trkpt>
      <trkpt lat="56.02102" lon="26.27309">
        <ele>110.751249</ele>
        <time>2020-10-07T00:34:43.364Z</time>
      </trkpt>
      <trkpt lat="56.01966" lon="26.27273">
        <ele>113.579859</ele>
        <time>2020-10-07T00:35:26.008Z</time>
      </trkpt>
      <trkpt lat="56.01163" lon="26.27063">
        <ele>124.709982</ele>
        <time>2020-10-07T00:39:10.187Z</time>
      </trkpt>
      <trkpt lat="56.01052" lon="26.27036">
        <ele>126.04174</ele>
        <time>2020-10-07T00:39:40.287Z</time>
      </trkpt>
      <trkpt lat="56.01037" lon="26.27015">
        <ele>126.240896</ele>
        <time>2020-10-07T00:39:45.570Z</time>
      </trkpt>
      <trkpt lat="56.00956" lon="26.27079">
        <ele>126.886058</ele>
        <time>2020-10-07T00:40:07.920Z</time>
      </trkpt>
      <trkpt lat="56.00899" lon="26.27131">
        <ele>127.356979</ele>
        <time>2020-10-07T00:40:23.874Z</time>
      </trkpt>
      <trkpt lat="56.00495" lon="26.27422">
        <ele>129.088334</ele>
        <time>2020-10-07T00:42:06.742Z</time>
      </trkpt>
      <trkpt lat="56.00384" lon="26.27624">
        <ele>130.228657</ele>
        <time>2020-10-07T00:42:46.968Z</time>
      </trkpt>
      <trkpt lat="56.00157" lon="26.27905">
        <ele>133.072705</ele>
        <time>2020-10-07T00:44:00.615Z</time>
      </trkpt>
      <trkpt lat="56.00103" lon="26.27972">
        <ele>133.638103</ele>
        <time>2020-10-07T00:44:17.728Z</time>
      </trkpt>
      <trkpt lat="56.00043" lon="26.28112">
        <ele>134.002244</ele>
        <time>2020-10-07T00:44:41.700Z</time>
      </trkpt>
      <trkpt lat="55.99991" lon="26.28231">
        <ele>134.099159</ele>
        <time>2020-10-07T00:45:00.657Z</time>
      </trkpt>
      <trkpt lat="55.9998" lon="26.28256">
        <ele>133.974913</ele>
        <time>2020-10-07T00:45:04.527Z</time>
      </trkpt>
      <trkpt lat="55.9992" lon="26.28365">
        <ele>133.391756</ele>
        <time>2020-10-07T00:45:21.666Z</time>
      </trkpt>
      <trkpt lat="55.9987" lon="26.28435">
        <ele>132.904839</ele>
        <time>2020-10-07T00:45:33.745Z</time>
      </trkpt>
      <trkpt lat="55.99782" lon="26.28516">
        <ele>131.470481</ele>
        <time>2020-10-07T00:45:52.103Z</time>
      </trkpt>
      <trkpt lat="55.99613" lon="26.28652">
        <ele>128.712445</ele>
        <time>2020-10-07T00:46:25.710Z</time>
      </trkpt>
      <trkpt lat="55.99547" lon="26.28713">
        <ele>127.602198</ele>
        <time>2020-10-07T00:46:39.597Z</time>
      </trkpt>
      <trkpt lat="55.99511" lon="26.2874">
        <ele>127.152292</ele>
        <time>2020-10-07T00:46:46.907Z</time>
      </trkpt>
      <trkpt lat="55.99265" lon="26.28801">
        <ele>124.08485</ele>
        <time>2020-10-07T00:47:34.360Z</time>
      </trkpt>
      <trkpt lat="55.99076" lon="26.28903">
        <ele>121.428205</ele>
        <time>2020-10-07T00:48:10.173Z</time>
      </trkpt>
      <trkpt lat="55.99047" lon="26.28919">
        <ele>121.010432</ele>
        <time>2020-10-07T00:48:15.899Z</time>
      </trkpt>
      <trkpt lat="55.98759" lon="26.29026">
        <ele>119.194223</ele>
        <time>2020-10-07T00:49:16.893Z</time>
      </trkpt>
      <trkpt lat="55.98711" lon="26.29038">
        <ele>118.880486</ele>
        <time>2020-10-07T00:49:26.569Z</time>
      </trkpt>
      <trkpt lat="55.98673" lon="26.29027">
        <ele>118.616151</ele>
        <time>2020-10-07T00:49:34.116Z</time>
      </trkpt>
      <trkpt lat="55.98524" lon="26.28944">
        <ele>116.903875</ele>
        <time>2020-10-07T00:50:03.812Z</time>
      </trkpt>
      <trkpt lat="55.98476" lon="26.28926">
        <ele>116.195094</ele>
        <time>2020-10-07T00:50:13.333Z</time>
      </trkpt>
      <trkpt lat="55.98319" lon="26.28871">
        <ele>113.352406</ele>
        <time>2020-10-07T00:50:42.134Z</time>
      </trkpt>
      <trkpt lat="55.98304" lon="26.28893">
        <ele>112.803031</ele>
        <time>2020-10-07T00:50:45.287Z</time>
      </trkpt>
      <trkpt lat="55.98211" lon="26.29029">
        <ele>109.303781</ele>
        <time>2020-10-07T00:51:05.133Z</time>
      </trkpt>
      <trkpt lat="55.9803" lon="26.2931">
        <ele>102.415038</ele>
        <time>2020-10-07T00:51:44.344Z</time>
      </trkpt>
      <trkpt lat="55.97916" lon="26.29485">
        <ele>99.896567</ele>
        <time>2020-10-07T00:52:12.494Z</time>
      </trkpt>
      <trkpt lat="55.97843" lon="26.29597">
        <ele>98.660413</ele>
        <time>2020-10-07T00:52:31.122Z</time>
      </trkpt>
      <trkpt lat="55.9782" lon="26.29644">
        <ele>98.210796</ele>
        <time>2020-10-07T00:52:37.674Z</time>
      </trkpt>
      <trkpt lat="55.97809" lon="26.29677">
        <ele>97.940096</ele>
        <time>2020-10-07T00:52:41.512Z</time>
      </trkpt>
      <trkpt lat="55.97806" lon="26.29692">
        <ele>97.824634</ele>
        <time>2020-10-07T00:52:43.208Z</time>
      </trkpt>
      <trkpt lat="55.97779" lon="26.29796">
        <ele>97.111507</ele>
        <time>2020-10-07T00:52:54.700Z</time>
      </trkpt>
      <trkpt lat="55.97741" lon="26.29987">
        <ele>95.940395</ele>
        <time>2020-10-07T00:53:16.476Z</time>
      </trkpt>
      <trkpt lat="55.97731" lon="26.3001">
        <ele>95.77605</ele>
        <time>2020-10-07T00:53:20.140Z</time>
      </trkpt>
      <trkpt lat="55.97715" lon="26.30044">
        <ele>95.776664</ele>
        <time>2020-10-07T00:53:25.501Z</time>
      </trkpt>
      <trkpt lat="55.97696" lon="26.30074">
        <ele>95.863654</ele>
        <time>2020-10-07T00:53:31.430Z</time>
      </trkpt>
      <trkpt lat="55.97658" lon="26.30142">
        <ele>96.04819</ele>
        <time>2020-10-07T00:53:44.400Z</time>
      </trkpt>
      <trkpt lat="55.97611" lon="26.30247">
        <ele>96.308159</ele>
        <time>2020-10-07T00:54:03.473Z</time>
      </trkpt>
      <trkpt lat="55.97485" lon="26.3063">
        <ele>97.115855</ele>
        <time>2020-10-07T00:55:01.979Z</time>
      </trkpt>
      <trkpt lat="55.97464" lon="26.30691">
        <ele>97.196003</ele>
        <time>2020-10-07T00:55:11.234Z</time>
      </trkpt>
      <trkpt lat="55.97448" lon="26.30694">
        <ele>97.227364</ele>
        <time>2020-10-07T00:55:14.816Z</time>
      </trkpt>
      <trkpt lat="55.97324" lon="26.30647">
        <ele>97.476442</ele>
        <time>2020-10-07T00:55:44.137Z</time>
      </trkpt>
      <trkpt lat="55.97187" lon="26.30599">
        <ele>97.797587</ele>
        <time>2020-10-07T00:56:15.999Z</time>
      </trkpt>
      <trkpt lat="55.97009" lon="26.30539">
        <ele>98.561735</ele>
        <time>2020-10-07T00:56:59.477Z</time>
      </trkpt>
      <trkpt lat="55.96854" lon="26.30485">
        <ele>99.51682</ele>
        <time>2020-10-07T00:57:38.743Z</time>
      </trkpt>
      <trkpt lat="55.96724" lon="26.3044">
        <ele>100.529492</ele>
        <time>2020-10-07T00:58:11.720Z</time>
      </trkpt>
      <trkpt lat="55.96481" lon="26.30391">
        <ele>103.132704</ele>
        <time>2020-10-07T00:59:16.132Z</time>
      </trkpt>
      <trkpt lat="55.96431" lon="26.3038">
        <ele>104.003181</ele>
        <time>2020-10-07T00:59:30.856Z</time>
      </trkpt>
      <trkpt lat="55.96322" lon="26.30364">
        <ele>105.898359</ele>
        <time>2020-10-07T01:00:04.242Z</time>
      </trkpt>
      <trkpt lat="55.96259" lon="26.30353">
        <ele>106.691855</ele>
        <time>2020-10-07T01:00:22.563Z</time>
      </trkpt>
      <trkpt lat="55.96091" lon="26.30315">
        <ele>108.291868</ele>
        <time>2020-10-07T01:01:06.593Z</time>
      </trkpt>
      <trkpt lat="55.96007" lon="26.30276">
        <ele>108.509206</ele>
        <time>2020-10-07T01:01:26.223Z</time>
      </trkpt>
      <trkpt lat="55.95939" lon="26.30232">
        <ele>108.473214</ele>
        <time>2020-10-07T01:01:41.848Z</time>
      </trkpt>
      <trkpt lat="55.95806" lon="26.30118">
        <ele>107.882597</ele>
        <time>2020-10-07T01:02:12.435Z</time>
      </trkpt>
      <trkpt lat="55.95609" lon="26.29886">
        <ele>106.70991</ele>
        <time>2020-10-07T01:03:00.635Z</time>
      </trkpt>
      <trkpt lat="55.95557" lon="26.29834">
        <ele>106.491166</ele>
        <time>2020-10-07T01:03:13.155Z</time>
      </trkpt>
      <trkpt lat="55.9532" lon="26.29638">
        <ele>105.600202</ele>
        <time>2020-10-07T01:04:09.178Z</time>
      </trkpt>
      <trkpt lat="55.95088" lon="26.29462">
        <ele>103.400832</ele>
        <time>2020-10-07T01:04:58.310Z</time>
      </trkpt>
      <trkpt lat="55.94945" lon="26.29382">
        <ele>102.001046</ele>
        <time>2020-10-07T01:05:26.756Z</time>
      </trkpt>
      <trkpt lat="55.94883" lon="26.29354">
        <ele>101.481223</ele>
        <time>2020-10-07T01:05:39.304Z</time>
      </trkpt>
      <trkpt lat="55.94884" lon="26.29303">
        <ele>101.248507</ele>
        <time>2020-10-07T01:05:45.001Z</time>
      </trkpt>
      <trkpt lat="55.94749" lon="26.2931">
        <ele>101.14765</ele>
        <time>2020-10-07T01:06:14.276Z</time>
      </trkpt>
      <trkpt lat="55.94718" lon="26.29303">
        <ele>101.183115</ele>
        <time>2020-10-07T01:06:22.137Z</time>
      </trkpt>
      <trkpt lat="55.94005" lon="26.29246">
        <ele>104.533329</ele>
        <time>2020-10-07T01:09:16.999Z</time>
      </trkpt>
      <trkpt lat="55.93611" lon="26.29189">
        <ele>102.868609</ele>
        <time>2020-10-07T01:10:36.681Z</time>
      </trkpt>
      <trkpt lat="55.93585" lon="26.29185">
        <ele>103.118211</ele>
        <time>2020-10-07T01:10:42.572Z</time>
      </trkpt>
      <trkpt lat="55.93578" lon="26.29183">
        <ele>103.265474</ele>
        <time>2020-10-07T01:10:45.096Z</time>
      </trkpt>
      <trkpt lat="55.93476" lon="26.29166">
        <ele>105.2687</ele>
        <time>2020-10-07T01:11:15.362Z</time>
      </trkpt>
      <trkpt lat="55.93368" lon="26.29179">
        <ele>107.97235</ele>
        <time>2020-10-07T01:11:53.590Z</time>
      </trkpt>
      <trkpt lat="55.93347" lon="26.29185">
        <ele>108.633777</ele>
        <time>2020-10-07T01:12:01.386Z</time>
      </trkpt>
      <trkpt lat="55.9332" lon="26.29193">
        <ele>109.469948</ele>
        <time>2020-10-07T01:12:10.840Z</time>
      </trkpt>
      <trkpt lat="55.93257" lon="26.29225">
        <ele>111.464809</ele>
        <time>2020-10-07T01:12:33.279Z</time>
      </trkpt>
      <trkpt lat="55.93227" lon="26.2925">
        <ele>112.329299</ele>
        <time>2020-10-07T01:12:44.796Z</time>
      </trkpt>
      <trkpt lat="55.93077" lon="26.29453">
        <ele>116.081963</ele>
        <time>2020-10-07T01:13:42.799Z</time>
      </trkpt>
      <trkpt lat="55.93037" lon="26.29543">
        <ele>116.39195</ele>
        <time>2020-10-07T01:13:59.804Z</time>
      </trkpt>
      <trkpt lat="55.92609" lon="26.30491">
        <ele>113.657647</ele>
        <time>2020-10-07T01:16:19.030Z</time>
      </trkpt>
      <trkpt lat="55.92607" lon="26.30494">
        <ele>113.653956</ele>
        <time>2020-10-07T01:16:19.616Z</time>
      </trkpt>
      <trkpt lat="55.92514" lon="26.30698">
        <ele>113.463065</ele>
        <time>2020-10-07T01:16:52.532Z</time>
      </trkpt>
      <trkpt lat="55.92426" lon="26.30898">
        <ele>113.398061</ele>
        <time>2020-10-07T01:17:24.319Z</time>
      </trkpt>
      <trkpt lat="55.92382" lon="26.31019">
        <ele>113.144653</ele>
        <time>2020-10-07T01:17:41.307Z</time>
      </trkpt>
      <trkpt lat="55.92334" lon="26.31181">
        <ele>112.779598</ele>
        <time>2020-10-07T01:18:02.392Z</time>
      </trkpt>
      <trkpt lat="55.92236" lon="26.31619">
        <ele>112.644779</ele>
        <time>2020-10-07T01:19:00.011Z</time>
      </trkpt>
      <trkpt lat="55.9218" lon="26.31824">
        <ele>113.100048</ele>
        <time>2020-10-07T01:19:31.674Z</time>
      </trkpt>
      <trkpt lat="55.91855" lon="26.3277">
        <ele>116.7483</ele>
        <time>2020-10-07T01:22:05.932Z</time>
      </trkpt>
      <trkpt lat="55.9181" lon="26.32941">
        <ele>116.902505</ele>
        <time>2020-10-07T01:22:30.043Z</time>
      </trkpt>
      <trkpt lat="55.91791" lon="26.33012">
        <ele>116.727586</ele>
        <time>2020-10-07T01:22:39.444Z</time>
      </trkpt>
      <trkpt lat="55.91665" lon="26.3366">
        <ele>115.360005</ele>
        <time>2020-10-07T01:23:58.686Z</time>
      </trkpt>
      <trkpt lat="55.9165" lon="26.33736">
        <ele>115.252305</ele>
        <time>2020-10-07T01:24:08.842Z</time>
      </trkpt>
      <trkpt lat="55.91553" lon="26.34237">
        <ele>116.412684</ele>
        <time>2020-10-07T01:25:17.165Z</time>
      </trkpt>
      <trkpt lat="55.91297" lon="26.35083">
        <ele>122.874352</ele>
        <time>2020-10-07T01:27:48.005Z</time>
      </trkpt>
      <trkpt lat="55.91043" lon="26.35926">
        <ele>126.511848</ele>
        <time>2020-10-07T01:30:04.365Z</time>
      </trkpt>
      <trkpt lat="55.90944" lon="26.36308">
        <ele>124.003682</ele>
        <time>2020-10-07T01:30:48.896Z</time>
      </trkpt>
      <trkpt lat="55.90927" lon="26.36372">
        <ele>123.375323</ele>
        <time>2020-10-07T01:30:55.631Z</time>
      </trkpt>
      <trkpt lat="55.90883" lon="26.36542">
        <ele>120.999118</ele>
        <time>2020-10-07T01:31:13.437Z</time>
      </trkpt>
      <trkpt lat="55.90847" lon="26.36712">
        <ele>118.976975</ele>
        <time>2020-10-07T01:31:31.118Z</time>
      </trkpt>
      <trkpt lat="55.90714" lon="26.37453">
        <ele>116.512342</ele>
        <time>2020-10-07T01:32:57.450Z</time>
      </trkpt>
      <trkpt lat="55.90681" lon="26.37589">
        <ele>117.235159</ele>
        <time>2020-10-07T01:33:23.751Z</time>
      </trkpt>
      <trkpt lat="55.90581" lon="26.37534">
        <ele>120.677943</ele>
        <time>2020-10-07T01:34:03.002Z</time>
      </trkpt>
      <trkpt lat="55.90537" lon="26.37511">
        <ele>122.19445</ele>
        <time>2020-10-07T01:34:18.477Z</time>
      </trkpt>
      <trkpt lat="55.90481" lon="26.37483">
        <ele>123.547526</ele>
        <time>2020-10-07T01:34:40.377Z</time>
      </trkpt>
      <trkpt lat="55.90475" lon="26.3748">
        <ele>123.634268</ele>
        <time>2020-10-07T01:34:42.525Z</time>
      </trkpt>
      <trkpt lat="55.90469" lon="26.37465">
        <ele>123.777567</ele>
        <time>2020-10-07T01:34:44.562Z</time>
      </trkpt>
      <trkpt lat="55.90445" lon="26.37432">
        <ele>124.209721</ele>
        <time>2020-10-07T01:34:54.518Z</time>
      </trkpt>
      <trkpt lat="55.90439" lon="26.37411">
        <ele>124.396793</ele>
        <time>2020-10-07T01:34:57.745Z</time>
      </trkpt>
      <trkpt lat="55.90438" lon="26.37389">
        <ele>124.570739</ele>
        <time>2020-10-07T01:35:02.108Z</time>
      </trkpt>
      <trkpt lat="55.90439" lon="26.37411">
        <ele>124.744685</ele>
        <time>2020-10-07T01:35:04.556Z</time>
      </trkpt>
      <trkpt lat="55.90445" lon="26.37432">
        <ele>124.931757</ele>
        <time>2020-10-07T01:35:08.065Z</time>
      </trkpt>
      <trkpt lat="55.90469" lon="26.37465">
        <ele>125.363912</ele>
        <time>2020-10-07T01:35:14.704Z</time>
      </trkpt>
      <trkpt lat="55.90475" lon="26.3748">
        <ele>125.507211</ele>
        <time>2020-10-07T01:35:18.480Z</time>
      </trkpt>
      <trkpt lat="55.90481" lon="26.37483">
        <ele>125.593953</ele>
        <time>2020-10-07T01:35:19.796Z</time>
      </trkpt>
      <trkpt lat="55.90537" lon="26.37511">
        <ele>125.712939</ele>
        <time>2020-10-07T01:35:32.162Z</time>
      </trkpt>
      <trkpt lat="55.90523" lon="26.37658">
        <ele>125.81372</ele>
        <time>2020-10-07T01:35:54.716Z</time>
      </trkpt>
      <trkpt lat="55.9053" lon="26.37702">
        <ele>125.844903</ele>
        <time>2020-10-07T01:36:00.105Z</time>
      </trkpt>
      <trkpt lat="55.90543" lon="26.37707">
        <ele>125.861038</ele>
        <time>2020-10-07T01:36:02.624Z</time>
      </trkpt>
      <trkpt lat="55.9054" lon="26.37796">
        <ele>125.13435</ele>
        <time>2020-10-07T01:36:12.826Z</time>
      </trkpt>
      <trkpt lat="55.90541" lon="26.37877">
        <ele>124.440972</ele>
        <time>2020-10-07T01:36:22.047Z</time>
      </trkpt>
      <trkpt lat="55.90562" lon="26.37902">
        <ele>124.04762</ele>
        <time>2020-10-07T01:36:26.497Z</time>
      </trkpt>
      <trkpt lat="55.9056" lon="26.37908">
        <ele>123.986088</ele>
        <time>2020-10-07T01:36:27.318Z</time>
      </trkpt>
      <trkpt lat="55.9056" lon="26.37922">
        <ele>123.864714</ele>
        <time>2020-10-07T01:36:28.858Z</time>
      </trkpt>
      <trkpt lat="55.90562" lon="26.37928">
        <ele>123.802418</ele>
        <time>2020-10-07T01:36:29.529Z</time>
      </trkpt>
      <trkpt lat="55.90565" lon="26.37933">
        <ele>123.740529</ele>
        <time>2020-10-07T01:36:30.167Z</time>
      </trkpt>
      <trkpt lat="55.90568" lon="26.37936">
        <ele>123.678514</ele>
        <time>2020-10-07T01:36:30.856Z</time>
      </trkpt>
      <trkpt lat="55.9057" lon="26.37936">
        <ele>123.652299</ele>
        <time>2020-10-07T01:36:31.122Z</time>
      </trkpt>
      <trkpt lat="55.90563" lon="26.38011">
        <ele>122.929368</ele>
        <time>2020-10-07T01:36:38.834Z</time>
      </trkpt>
      <trkpt lat="55.90739" lon="26.38548">
        <ele>114.257079</ele>
        <time>2020-10-07T01:37:40.745Z</time>
      </trkpt>
      <trkpt lat="55.9074" lon="26.38571">
        <ele>114.009679</ele>
        <time>2020-10-07T01:37:43.211Z</time>
      </trkpt>
      <trkpt lat="55.90766" lon="26.38924">
        <ele>110.693865</ele>
        <time>2020-10-07T01:38:19.933Z</time>
      </trkpt>
      <trkpt lat="55.90782" lon="26.39191">
        <ele>108.057022</ele>
        <time>2020-10-07T01:38:46.711Z</time>
      </trkpt>
      <trkpt lat="55.90784" lon="26.39401">
        <ele>106.560768</ele>
        <time>2020-10-07T01:39:08.363Z</time>
      </trkpt>
      <trkpt lat="55.90777" lon="26.39493">
        <ele>105.907881</ele>
        <time>2020-10-07T01:39:18.604Z</time>
      </trkpt>
      <trkpt lat="55.90684" lon="26.39813">
        <ele>104.989331</ele>
        <time>2020-10-07T01:40:01.594Z</time>
      </trkpt>
      <trkpt lat="55.90704" lon="26.40082">
        <ele>103.871144</ele>
        <time>2020-10-07T01:40:32.300Z</time>
      </trkpt>
      <trkpt lat="55.907" lon="26.40235">
        <ele>102.537406</ele>
        <time>2020-10-07T01:40:48.250Z</time>
      </trkpt>
      <trkpt lat="55.90684" lon="26.40353">
        <ele>101.344673</ele>
        <time>2020-10-07T01:41:00.309Z</time>
      </trkpt>
      <trkpt lat="55.90712" lon="26.40448">
        <ele>100.185248</ele>
        <time>2020-10-07T01:41:10.591Z</time>
      </trkpt>
      <trkpt lat="55.90826" lon="26.40755">
        <ele>95.774137</ele>
        <time>2020-10-07T01:41:45.847Z</time>
      </trkpt>
      <trkpt lat="55.90831" lon="26.40768">
        <ele>95.691658</ele>
        <time>2020-10-07T01:41:47.204Z</time>
      </trkpt>
      <trkpt lat="55.90897" lon="26.4098">
        <ele>94.453803</ele>
        <time>2020-10-07T01:42:15.629Z</time>
      </trkpt>
      <trkpt lat="55.91042" lon="26.41122">
        <ele>94.941056</ele>
        <time>2020-10-07T01:42:56.455Z</time>
      </trkpt>
      <trkpt lat="55.91055" lon="26.41134">
        <ele>94.878545</ele>
        <time>2020-10-07T01:42:59.573Z</time>
      </trkpt>
      <trkpt lat="55.91129" lon="26.41162">
        <ele>94.167073</ele>
        <time>2020-10-07T01:43:14.842Z</time>
      </trkpt>
      <trkpt lat="55.91159" lon="26.41196">
        <ele>93.82557</ele>
        <time>2020-10-07T01:43:21.595Z</time>
      </trkpt>
      <trkpt lat="55.91187" lon="26.41247">
        <ele>93.448557</ele>
        <time>2020-10-07T01:43:28.814Z</time>
      </trkpt>
      <trkpt lat="55.91241" lon="26.41396">
        <ele>92.213301</ele>
        <time>2020-10-07T01:43:46.825Z</time>
      </trkpt>
      <trkpt lat="55.91449" lon="26.41674">
        <ele>89.323159</ele>
        <time>2020-10-07T01:44:36.544Z</time>
      </trkpt>
      <trkpt lat="55.91567" lon="26.41868">
        <ele>88.715825</ele>
        <time>2020-10-07T01:45:10.328Z</time>
      </trkpt>
      <trkpt lat="55.9179" lon="26.42092">
        <ele>88.968423</ele>
        <time>2020-10-07T01:46:09.000Z</time>
      </trkpt>
      <trkpt lat="55.91967" lon="26.42351">
        <ele>89.618125</ele>
        <time>2020-10-07T01:47:03.059Z</time>
      </trkpt>
      <trkpt lat="55.9204" lon="26.42407">
        <ele>89.821316</ele>
        <time>2020-10-07T01:47:21.686Z</time>
      </trkpt>
      <trkpt lat="55.92076" lon="26.42558">
        <ele>89.669447</ele>
        <time>2020-10-07T01:47:42.086Z</time>
      </trkpt>
      <trkpt lat="55.91983" lon="26.42592">
        <ele>89.436354</ele>
        <time>2020-10-07T01:48:02.603Z</time>
      </trkpt>
      <trkpt lat="55.91921" lon="26.42635">
        <ele>89.181253</ele>
        <time>2020-10-07T01:48:16.880Z</time>
      </trkpt>
      <trkpt lat="55.91869" lon="26.42688">
        <ele>88.941322</ele>
        <time>2020-10-07T01:48:29.671Z</time>
      </trkpt>
      <trkpt lat="55.91298" lon="26.43336">
        <ele>88.426332</ele>
        <time>2020-10-07T01:51:05.443Z</time>
      </trkpt>
      <trkpt lat="55.90904" lon="26.44214">
        <ele>87.613551</ele>
        <time>2020-10-07T01:53:28.808Z</time>
      </trkpt>
      <trkpt lat="55.90823" lon="26.44339">
        <ele>87.515583</ele>
        <time>2020-10-07T01:53:52.952Z</time>
      </trkpt>
      <trkpt lat="55.90721" lon="26.44469">
        <ele>87.45288</ele>
        <time>2020-10-07T01:54:21.799Z</time>
      </trkpt>
      <trkpt lat="55.9047" lon="26.44765">
        <ele>87.687874</ele>
        <time>2020-10-07T01:55:32.663Z</time>
      </trkpt>
      <trkpt lat="55.90402" lon="26.44836">
        <ele>87.856032</ele>
        <time>2020-10-07T01:55:51.840Z</time>
      </trkpt>
      <trkpt lat="55.90335" lon="26.44877">
        <ele>88.028007</ele>
        <time>2020-10-07T01:56:08.963Z</time>
      </trkpt>
      <trkpt lat="55.90306" lon="26.44943">
        <ele>88.142623</ele>
        <time>2020-10-07T01:56:20.414Z</time>
      </trkpt>
      <trkpt lat="55.90301" lon="26.44955">
        <ele>88.158565</ele>
        <time>2020-10-07T01:56:22.457Z</time>
      </trkpt>
      <trkpt lat="55.90159" lon="26.45259">
        <ele>88.42844</ele>
        <time>2020-10-07T01:57:14.985Z</time>
      </trkpt>
      <trkpt lat="55.89864" lon="26.45839">
        <ele>88.69291</ele>
        <time>2020-10-07T01:58:56.681Z</time>
      </trkpt>
      <trkpt lat="55.89697" lon="26.46073">
        <ele>89.960053</ele>
        <time>2020-10-07T01:59:52.157Z</time>
      </trkpt>
      <trkpt lat="55.89508" lon="26.46246">
        <ele>91.455509</ele>
        <time>2020-10-07T02:00:48.810Z</time>
      </trkpt>
      <trkpt lat="55.88919" lon="26.4674">
        <ele>89.649852</ele>
        <time>2020-10-07T02:03:12.275Z</time>
      </trkpt>
      <trkpt lat="55.88751" lon="26.46881">
        <ele>89.391257</ele>
        <time>2020-10-07T02:03:53.767Z</time>
      </trkpt>
      <trkpt lat="55.88506" lon="26.4706">
        <ele>89.876993</ele>
        <time>2020-10-07T02:04:57.764Z</time>
      </trkpt>
      <trkpt lat="55.88425" lon="26.4726">
        <ele>90.165982</ele>
        <time>2020-10-07T02:05:31.234Z</time>
      </trkpt>
      <trkpt lat="55.88356" lon="26.47428">
        <ele>90.223608</ele>
        <time>2020-10-07T02:05:58.692Z</time>
      </trkpt>
      <trkpt lat="55.88313" lon="26.47534">
        <ele>90.244955</ele>
        <time>2020-10-07T02:06:15.745Z</time>
      </trkpt>
      <trkpt lat="55.88245" lon="26.47819">
        <ele>89.91374</ele>
        <time>2020-10-07T02:06:54.731Z</time>
      </trkpt>
      <trkpt lat="55.88199" lon="26.48014">
        <ele>89.781113</ele>
        <time>2020-10-07T02:07:21.527Z</time>
      </trkpt>
      <trkpt lat="55.8816" lon="26.48224">
        <ele>89.836506</ele>
        <time>2020-10-07T02:07:50.383Z</time>
      </trkpt>
      <trkpt lat="55.88069" lon="26.48399">
        <ele>90.154922</ele>
        <time>2020-10-07T02:08:23.112Z</time>
      </trkpt>
      <trkpt lat="55.879" lon="26.48652">
        <ele>91.087011</ele>
        <time>2020-10-07T02:09:18.684Z</time>
      </trkpt>
      <trkpt lat="55.87824" lon="26.48776">
        <ele>91.409329</ele>
        <time>2020-10-07T02:09:43.615Z</time>
      </trkpt>
      <trkpt lat="55.87792" lon="26.48834">
        <ele>91.527703</ele>
        <time>2020-10-07T02:09:54.791Z</time>
      </trkpt>
      <trkpt lat="55.87783" lon="26.48851">
        <ele>91.554735</ele>
        <time>2020-10-07T02:09:57.488Z</time>
      </trkpt>
      <trkpt lat="55.8777" lon="26.48883">
        <ele>91.601466</ele>
        <time>2020-10-07T02:10:03.325Z</time>
      </trkpt>
      <trkpt lat="55.87764" lon="26.48904">
        <ele>91.62887</ele>
        <time>2020-10-07T02:10:06.053Z</time>
      </trkpt>
      <trkpt lat="55.87745" lon="26.48989">
        <ele>91.736792</ele>
        <time>2020-10-07T02:10:18.348Z</time>
      </trkpt>
      <trkpt lat="55.8773" lon="26.49076">
        <ele>91.845066</ele>
        <time>2020-10-07T02:10:30.131Z</time>
      </trkpt>
      <trkpt lat="55.87728" lon="26.49109">
        <ele>91.832855</ele>
        <time>2020-10-07T02:10:34.173Z</time>
      </trkpt>
      <trkpt lat="55.87735" lon="26.49164">
        <ele>91.771826</ele>
        <time>2020-10-07T02:10:41.583Z</time>
      </trkpt>
      <trkpt lat="55.87744" lon="26.49189">
        <ele>91.740788</ele>
        <time>2020-10-07T02:10:45.438Z</time>
      </trkpt>
      <trkpt lat="55.87747" lon="26.49196">
        <ele>91.732035</ele>
        <time>2020-10-07T02:10:46.730Z</time>
      </trkpt>
      <trkpt lat="55.87838" lon="26.49408">
        <ele>91.077658</ele>
        <time>2020-10-07T02:11:18.291Z</time>
      </trkpt>
      <trkpt lat="55.87848" lon="26.49468">
        <ele>90.659634</ele>
        <time>2020-10-07T02:11:24.717Z</time>
      </trkpt>
      <trkpt lat="55.87844" lon="26.49525">
        <ele>90.272435</ele>
        <time>2020-10-07T02:11:30.652Z</time>
      </trkpt>
      <trkpt lat="55.87828" lon="26.49568">
        <ele>89.927752</ele>
        <time>2020-10-07T02:11:35.903Z</time>
      </trkpt>
      <trkpt lat="55.87817" lon="26.49585">
        <ele>89.746404</ele>
        <time>2020-10-07T02:11:38.675Z</time>
      </trkpt>
      <trkpt lat="55.87798" lon="26.4961">
        <ele>89.466669</ele>
        <time>2020-10-07T02:11:42.940Z</time>
      </trkpt>
      <trkpt lat="55.87755" lon="26.49661">
        <ele>89.118215</ele>
        <time>2020-10-07T02:11:52.550Z</time>
      </trkpt>
      <trkpt lat="55.87721" lon="26.49687">
        <ele>88.911333</ele>
        <time>2020-10-07T02:11:59.681Z</time>
      </trkpt>
      <trkpt lat="55.87696" lon="26.49696">
        <ele>88.7663</ele>
        <time>2020-10-07T02:12:04.750Z</time>
      </trkpt>
      <trkpt lat="55.87659" lon="26.49693">
        <ele>88.557855</ele>
        <time>2020-10-07T02:12:12.788Z</time>
      </trkpt>
      <trkpt lat="55.87595" lon="26.49667">
        <ele>88.507967</ele>
        <time>2020-10-07T02:12:28.635Z</time>
      </trkpt>
      <trkpt lat="55.87578" lon="26.4966">
        <ele>88.608829</ele>
        <time>2020-10-07T02:12:32.987Z</time>
      </trkpt>
      <trkpt lat="55.87526" lon="26.4959">
        <ele>88.988374</ele>
        <time>2020-10-07T02:12:49.147Z</time>
      </trkpt>
      <trkpt lat="55.87426" lon="26.49449">
        <ele>89.813449</ele>
        <time>2020-10-07T02:13:21.223Z</time>
      </trkpt>
      <trkpt lat="55.87331" lon="26.49317">
        <ele>90.686857</ele>
        <time>2020-10-07T02:13:51.528Z</time>
      </trkpt>
      <trkpt lat="55.87306" lon="26.49335">
        <ele>90.802415</ele>
        <time>2020-10-07T02:14:02.037Z</time>
      </trkpt>
      <trkpt lat="55.8728" lon="26.49343">
        <ele>90.91535</ele>
        <time>2020-10-07T02:14:12.650Z</time>
      </trkpt>
      <trkpt lat="55.872" lon="26.49356">
        <ele>91.256524</ele>
        <time>2020-10-07T02:14:43.782Z</time>
      </trkpt>
      <trkpt lat="55.87132" lon="26.49364">
        <ele>91.466465</ele>
        <time>2020-10-07T02:15:09.645Z</time>
      </trkpt>
      <trkpt lat="55.87067" lon="26.49372">
        <ele>91.487798</ele>
        <time>2020-10-07T02:15:34.193Z</time>
      </trkpt>
      <trkpt lat="55.86989" lon="26.49378">
        <ele>91.513149</ele>
        <time>2020-10-07T02:16:03.033Z</time>
      </trkpt>
      <trkpt lat="55.86915" lon="26.49385">
        <ele>91.371485</ele>
        <time>2020-10-07T02:16:29.801Z</time>
      </trkpt>
      <trkpt lat="55.86916" lon="26.49499">
        <ele>91.207339</ele>
        <time>2020-10-07T02:16:53.113Z</time>
      </trkpt>
      <trkpt lat="55.86917" lon="26.49609">
        <ele>91.053628</ele>
        <time>2020-10-07T02:17:15.036Z</time>
      </trkpt>
      <trkpt lat="55.86842" lon="26.49669">
        <ele>90.945923</ele>
        <time>2020-10-07T02:17:44.709Z</time>
      </trkpt>
      <trkpt lat="55.8679" lon="26.4971">
        <ele>90.871803</ele>
        <time>2020-10-07T02:18:05.573Z</time>
      </trkpt>
      <trkpt lat="55.86722" lon="26.49803">
        <ele>90.966794</ele>
        <time>2020-10-07T02:18:37.925Z</time>
      </trkpt>
      <trkpt lat="55.86674" lon="26.49873">
        <ele>91.152524</ele>
        <time>2020-10-07T02:19:01.989Z</time>
      </trkpt>
      <trkpt lat="55.8659" lon="26.49989">
        <ele>91.448824</ele>
        <time>2020-10-07T02:19:43.051Z</time>
      </trkpt>
      <trkpt lat="55.86525" lon="26.50083">
        <ele>91.64967</ele>
        <time>2020-10-07T02:20:15.456Z</time>
      </trkpt>
      <trkpt lat="55.86484" lon="26.50131">
        <ele>91.767084</ele>
        <time>2020-10-07T02:20:34.009Z</time>
      </trkpt>
      <trkpt lat="55.86484" lon="26.50174">
        <ele>91.801501</ele>
        <time>2020-10-07T02:20:39.294Z</time>
      </trkpt>
      <trkpt lat="55.86486" lon="26.50247">
        <ele>91.833965</ele>
        <time>2020-10-07T02:20:48.430Z</time>
      </trkpt>
      <trkpt lat="55.86486" lon="26.50316">
        <ele>91.864271</ele>
        <time>2020-10-07T02:20:57.113Z</time>
      </trkpt>
      <trkpt lat="55.86481" lon="26.50318">
        <ele>91.868</ele>
        <time>2020-10-07T02:20:58.157Z</time>
      </trkpt>
      <trkpt lat="55.86472" lon="26.50335">
        <ele>91.878781</ele>
        <time>2020-10-07T02:21:01.324Z</time>
      </trkpt>
      <trkpt lat="55.86471" lon="26.50344">
        <ele>91.882467</ele>
        <time>2020-10-07T02:21:02.438Z</time>
      </trkpt>
      <trkpt lat="55.86472" lon="26.50352">
        <ele>91.885936</ele>
        <time>2020-10-07T02:21:03.415Z</time>
      </trkpt>
      <trkpt lat="55.8648" lon="26.50369">
        <ele>91.896054</ele>
        <time>2020-10-07T02:21:06.383Z</time>
      </trkpt>
      <trkpt lat="55.86485" lon="26.50371">
        <ele>91.899533</ele>
        <time>2020-10-07T02:21:07.352Z</time>
      </trkpt>
      <trkpt lat="55.86489" lon="26.5043">
        <ele>91.925902</ele>
        <time>2020-10-07T02:21:15.205Z</time>
      </trkpt>
      <trkpt lat="55.86501" lon="26.5051">
        <ele>92.017736</ele>
        <time>2020-10-07T02:21:25.629Z</time>
      </trkpt>
      <trkpt lat="55.86502" lon="26.5053">
        <ele>92.042751</ele>
        <time>2020-10-07T02:21:28.165Z</time>
      </trkpt>
      <trkpt lat="55.86502" lon="26.50595">
        <ele>92.122942</ele>
        <time>2020-10-07T02:21:36.629Z</time>
      </trkpt>
      <trkpt lat="55.86493" lon="26.50682">
        <ele>92.232649</ele>
        <time>2020-10-07T02:21:48.599Z</time>
      </trkpt>
      <trkpt lat="55.86473" lon="26.50795">
        <ele>92.302516</ele>
        <time>2020-10-07T02:22:03.696Z</time>
      </trkpt>
      <trkpt lat="55.86457" lon="26.50886">
        <ele>92.247171</ele>
        <time>2020-10-07T02:22:15.763Z</time>
      </trkpt>
      <trkpt lat="55.86447" lon="26.50897">
        <ele>92.235518</ele>
        <time>2020-10-07T02:22:18.123Z</time>
      </trkpt>
      <trkpt lat="55.86437" lon="26.50901">
        <ele>92.224267</ele>
        <time>2020-10-07T02:22:20.634Z</time>
      </trkpt>
      <trkpt lat="55.86425" lon="26.50896">
        <ele>92.211417</ele>
        <time>2020-10-07T02:22:23.379Z</time>
      </trkpt>
      <trkpt lat="55.86406" lon="26.50892">
        <ele>92.191664</ele>
        <time>2020-10-07T02:22:27.443Z</time>
      </trkpt>
      <trkpt lat="55.86389" lon="26.50909">
        <ele>92.171918</ele>
        <time>2020-10-07T02:22:31.626Z</time>
      </trkpt>
      <trkpt lat="55.86353" lon="26.51051">
        <ele>92.014609</ele>
        <time>2020-10-07T02:22:49.905Z</time>
      </trkpt>
      <trkpt lat="55.86307" lon="26.51226">
        <ele>91.778693</ele>
        <time>2020-10-07T02:23:13.220Z</time>
      </trkpt>
      <trkpt lat="55.86283" lon="26.51307">
        <ele>91.814927</ele>
        <time>2020-10-07T02:23:24.758Z</time>
      </trkpt>
      <trkpt lat="55.86207" lon="26.51567">
        <ele>92.155577</ele>
        <time>2020-10-07T02:24:03.112Z</time>
      </trkpt>
      <trkpt lat="55.86174" lon="26.51681">
        <ele>92.441484</ele>
        <time>2020-10-07T02:24:20.460Z</time>
      </trkpt>
      <trkpt lat="55.86073" lon="26.51996">
        <ele>93.002319</ele>
        <time>2020-10-07T02:25:09.108Z</time>
      </trkpt>
      <trkpt lat="55.86063" lon="26.52028">
        <ele>93.041798</ele>
        <time>2020-10-07T02:25:13.719Z</time>
      </trkpt>
      <trkpt lat="55.86048" lon="26.52031">
        <ele>93.07115</ele>
        <time>2020-10-07T02:25:17.065Z</time>
      </trkpt>
      <trkpt lat="55.86003" lon="26.52039">
        <ele>93.057267</ele>
        <time>2020-10-07T02:25:26.644Z</time>
      </trkpt>
      <trkpt lat="55.85946" lon="26.52049">
        <ele>92.860669</ele>
        <time>2020-10-07T02:25:38.815Z</time>
      </trkpt>
      <trkpt lat="55.85894" lon="26.52056">
        <ele>92.683501</ele>
        <time>2020-10-07T02:25:49.612Z</time>
      </trkpt>
      <trkpt lat="55.85842" lon="26.52064">
        <ele>92.507118</ele>
        <time>2020-10-07T02:26:00.416Z</time>
      </trkpt>
      <trkpt lat="55.85758" lon="26.52078">
        <ele>92.279932</ele>
        <time>2020-10-07T02:26:18.228Z</time>
      </trkpt>
      <trkpt lat="55.85689" lon="26.52088">
        <ele>92.091739</ele>
        <time>2020-10-07T02:26:33.146Z</time>
      </trkpt>
      <trkpt lat="55.8568" lon="26.52089">
        <ele>92.068453</ele>
        <time>2020-10-07T02:26:35.024Z</time>
      </trkpt>
      <trkpt lat="55.85663" lon="26.52091">
        <ele>92.023306</ele>
        <time>2020-10-07T02:26:38.661Z</time>
      </trkpt>
      <trkpt lat="55.85605" lon="26.521">
        <ele>91.906178</ele>
        <time>2020-10-07T02:26:51.444Z</time>
      </trkpt>
      <trkpt lat="55.85548" lon="26.52107">
        <ele>91.790261</ele>
        <time>2020-10-07T02:27:03.746Z</time>
      </trkpt>
      <trkpt lat="55.85503" lon="26.5211">
        <ele>91.699841</ele>
        <time>2020-10-07T02:27:13.258Z</time>
      </trkpt>
      <trkpt lat="55.85459" lon="26.52111">
        <ele>91.662776</ele>
        <time>2020-10-07T02:27:22.555Z</time>
      </trkpt>
      <trkpt lat="55.85413" lon="26.52113">
        <ele>91.66369</ele>
        <time>2020-10-07T02:27:32.506Z</time>
      </trkpt>
      <trkpt lat="55.85378" lon="26.52113">
        <ele>91.66438</ele>
        <time>2020-10-07T02:27:40.334Z</time>
      </trkpt>
      <trkpt lat="55.85343" lon="26.52115">
        <ele>91.665067</ele>
        <time>2020-10-07T02:27:48.270Z</time>
      </trkpt>
      <trkpt lat="55.85273" lon="26.52118">
        <ele>91.849045</ele>
        <time>2020-10-07T02:28:04.509Z</time>
      </trkpt>
      <trkpt lat="55.85132" lon="26.52123">
        <ele>92.689622</ele>
        <time>2020-10-07T02:28:39.890Z</time>
      </trkpt>
      <trkpt lat="55.85049" lon="26.52128">
        <ele>93.272041</ele>
        <time>2020-10-07T02:29:01.473Z</time>
      </trkpt>
      <trkpt lat="55.85005" lon="26.52133">
        <ele>93.587496</ele>
        <time>2020-10-07T02:29:12.832Z</time>
      </trkpt>
      <trkpt lat="55.84797" lon="26.52181">
        <ele>94.382852</ele>
        <time>2020-10-07T02:30:02.638Z</time>
      </trkpt>
      <trkpt lat="55.84771" lon="26.52195">
        <ele>94.448918</ele>
        <time>2020-10-07T02:30:08.267Z</time>
      </trkpt>
      <trkpt lat="55.84624" lon="26.52314">
        <ele>94.333628</ele>
        <time>2020-10-07T02:30:43.360Z</time>
      </trkpt>
      <trkpt lat="55.84578" lon="26.52353">
        <ele>94.366123</ele>
        <time>2020-10-07T02:30:55.038Z</time>
      </trkpt>
      <trkpt lat="55.84574" lon="26.52355">
        <ele>94.372077</ele>
        <time>2020-10-07T02:30:56.105Z</time>
      </trkpt>
      <trkpt lat="55.84553" lon="26.5237">
        <ele>94.411568</ele>
        <time>2020-10-07T02:31:01.555Z</time>
      </trkpt>
      <trkpt lat="55.84457" lon="26.52437">
        <ele>94.583349</ele>
        <time>2020-10-07T02:31:25.590Z</time>
      </trkpt>
      <trkpt lat="55.84398" lon="26.52474">
        <ele>94.458757</ele>
        <time>2020-10-07T02:31:39.082Z</time>
      </trkpt>
      <trkpt lat="55.84338" lon="26.52511">
        <ele>94.21353</ele>
        <time>2020-10-07T02:31:51.915Z</time>
      </trkpt>
      <trkpt lat="55.84182" lon="26.52587">
        <ele>94.340492</ele>
        <time>2020-10-07T02:32:25.782Z</time>
      </trkpt>
      <trkpt lat="55.84058" lon="26.52631">
        <ele>95.170578</ele>
        <time>2020-10-07T02:33:00.132Z</time>
      </trkpt>
      <trkpt lat="55.84022" lon="26.52641">
        <ele>95.606825</ele>
        <time>2020-10-07T02:33:10.693Z</time>
      </trkpt>
      <trkpt lat="55.83955" lon="26.52648">
        <ele>96.385134</ele>
        <time>2020-10-07T02:33:28.683Z</time>
      </trkpt>
      <trkpt lat="55.83928" lon="26.52651">
        <ele>96.706965</ele>
        <time>2020-10-07T02:33:35.727Z</time>
      </trkpt>
      <trkpt lat="55.83886" lon="26.52649">
        <ele>97.284758</ele>
        <time>2020-10-07T02:33:46.534Z</time>
      </trkpt>
      <trkpt lat="55.83773" lon="26.52646">
        <ele>99.007337</ele>
        <time>2020-10-07T02:34:17.041Z</time>
      </trkpt>
      <trkpt lat="55.83577" lon="26.52652">
        <ele>103.31207</ele>
        <time>2020-10-07T02:35:20.873Z</time>
      </trkpt>
      <trkpt lat="55.83291" lon="26.52632">
        <ele>108.222684</ele>
        <time>2020-10-07T02:36:46.732Z</time>
      </trkpt>
      <trkpt lat="55.83284" lon="26.52632">
        <ele>108.295845</ele>
        <time>2020-10-07T02:36:48.536Z</time>
      </trkpt>
      <trkpt lat="55.83166" lon="26.52631">
        <ele>109.121576</ele>
        <time>2020-10-07T02:37:15.443Z</time>
      </trkpt>
      <trkpt lat="55.83111" lon="26.52627">
        <ele>109.013709</ele>
        <time>2020-10-07T02:37:26.719Z</time>
      </trkpt>
      <trkpt lat="55.82953" lon="26.52613">
        <ele>108.994338</ele>
        <time>2020-10-07T02:38:00.833Z</time>
      </trkpt>
      <trkpt lat="55.82932" lon="26.52609">
        <ele>109.055294</ele>
        <time>2020-10-07T02:38:05.763Z</time>
      </trkpt>
      <trkpt lat="55.82883" lon="26.526">
        <ele>109.196928</ele>
        <time>2020-10-07T02:38:17.513Z</time>
      </trkpt>
      <trkpt lat="55.82872" lon="26.52597">
        <ele>109.228424</ele>
        <time>2020-10-07T02:38:20.274Z</time>
      </trkpt>
      <trkpt lat="55.82845" lon="26.52588">
        <ele>109.308081</ele>
        <time>2020-10-07T02:38:27.157Z</time>
      </trkpt>
      <trkpt lat="55.82771" lon="26.5256">
        <ele>109.86363</ele>
        <time>2020-10-07T02:38:46.983Z</time>
      </trkpt>
      <trkpt lat="55.82632" lon="26.52492">
        <ele>110.855434</ele>
        <time>2020-10-07T02:39:23.822Z</time>
      </trkpt>
      <trkpt lat="55.82479" lon="26.52415">
        <ele>111.236766</ele>
        <time>2020-10-07T02:40:00.029Z</time>
      </trkpt>
      <trkpt lat="55.82374" lon="26.52365">
        <ele>111.292647</ele>
        <time>2020-10-07T02:40:23.395Z</time>
      </trkpt>
      <trkpt lat="55.82318" lon="26.5234">
        <ele>111.321755</ele>
        <time>2020-10-07T02:40:36.176Z</time>
      </trkpt>
      <trkpt lat="55.82183" lon="26.52304">
        <ele>112.642663</ele>
        <time>2020-10-07T02:41:11.301Z</time>
      </trkpt>
      <trkpt lat="55.82013" lon="26.52277">
        <ele>114.973825</ele>
        <time>2020-10-07T02:42:00.858Z</time>
      </trkpt>
      <trkpt lat="55.81916" lon="26.52288">
        <ele>116.171914</ele>
        <time>2020-10-07T02:42:27.601Z</time>
      </trkpt>
      <trkpt lat="55.81857" lon="26.52298">
        <ele>116.674777</ele>
        <time>2020-10-07T02:42:43.083Z</time>
      </trkpt>
      <trkpt lat="55.81677" lon="26.5232">
        <ele>117.562643</ele>
        <time>2020-10-07T02:43:26.288Z</time>
      </trkpt>
      <trkpt lat="55.81587" lon="26.5234">
        <ele>117.75248</ele>
        <time>2020-10-07T02:43:46.383Z</time>
      </trkpt>
      <trkpt lat="55.81463" lon="26.5237">
        <ele>118.011781</ele>
        <time>2020-10-07T02:44:13.957Z</time>
      </trkpt>
      <trkpt lat="55.81292" lon="26.52415">
        <ele>119.396001</ele>
        <time>2020-10-07T02:44:58.201Z</time>
      </trkpt>
      <trkpt lat="55.81018" lon="26.52482">
        <ele>122.989383</ele>
        <time>2020-10-07T02:46:16.738Z</time>
      </trkpt>
      <trkpt lat="55.80958" lon="26.52497">
        <ele>123.525751</ele>
        <time>2020-10-07T02:46:32.905Z</time>
      </trkpt>
      <trkpt lat="55.80853" lon="26.52523">
        <ele>124.012409</ele>
        <time>2020-10-07T02:46:57.887Z</time>
      </trkpt>
      <trkpt lat="55.80777" lon="26.52541">
        <ele>123.615612</ele>
        <time>2020-10-07T02:47:13.625Z</time>
      </trkpt>
      <trkpt lat="55.80676" lon="26.52564">
        <ele>123.020386</ele>
        <time>2020-10-07T02:47:33.447Z</time>
      </trkpt>
      <trkpt lat="55.80643" lon="26.52564">
        <ele>122.778968</ele>
        <time>2020-10-07T02:47:39.780Z</time>
      </trkpt>
      <trkpt lat="55.80512" lon="26.52566">
        <ele>121.9225</ele>
        <time>2020-10-07T02:48:05.880Z</time>
      </trkpt>
      <trkpt lat="55.80297" lon="26.52532">
        <ele>122.590339</ele>
        <time>2020-10-07T02:48:55.107Z</time>
      </trkpt>
      <trkpt lat="55.8027" lon="26.52525">
        <ele>122.947527</ele>
        <time>2020-10-07T02:49:02.314Z</time>
      </trkpt>
      <trkpt lat="55.80042" lon="26.52466">
        <ele>126.448168</ele>
        <time>2020-10-07T02:50:12.862Z</time>
      </trkpt>
      <trkpt lat="55.79881" lon="26.52447">
        <ele>127.147308</ele>
        <time>2020-10-07T02:50:53.074Z</time>
      </trkpt>
      <trkpt lat="55.79806" lon="26.52447">
        <ele>126.994115</ele>
        <time>2020-10-07T02:51:07.006Z</time>
      </trkpt>
      <trkpt lat="55.79705" lon="26.5246">
        <ele>125.69413</ele>
        <time>2020-10-07T02:51:25.142Z</time>
      </trkpt>
      <trkpt lat="55.79453" lon="26.52493">
        <ele>123.559725</ele>
        <time>2020-10-07T02:52:15.425Z</time>
      </trkpt>
      <trkpt lat="55.79417" lon="26.52496">
        <ele>123.684047</ele>
        <time>2020-10-07T02:52:23.118Z</time>
      </trkpt>
      <trkpt lat="55.79285" lon="26.52507">
        <ele>124.145854</ele>
        <time>2020-10-07T02:52:54.672Z</time>
      </trkpt>
      <trkpt lat="55.79177" lon="26.52505">
        <ele>125.857635</ele>
        <time>2020-10-07T02:53:25.431Z</time>
      </trkpt>
      <trkpt lat="55.7907" lon="26.52495">
        <ele>127.804577</ele>
        <time>2020-10-07T02:53:58.723Z</time>
      </trkpt>
      <trkpt lat="55.79026" lon="26.52491">
        <ele>128.731393</ele>
        <time>2020-10-07T02:54:12.447Z</time>
      </trkpt>
      <trkpt lat="55.78845" lon="26.52486">
        <ele>132.46049</ele>
        <time>2020-10-07T02:55:07.642Z</time>
      </trkpt>
      <trkpt lat="55.78736" lon="26.52506">
        <ele>134.641136</ele>
        <time>2020-10-07T02:55:40.826Z</time>
      </trkpt>
      <trkpt lat="55.78584" lon="26.52548">
        <ele>137.237621</ele>
        <time>2020-10-07T02:56:25.929Z</time>
      </trkpt>
      <trkpt lat="55.78449" lon="26.52615">
        <ele>139.039209</ele>
        <time>2020-10-07T02:57:04.428Z</time>
      </trkpt>
      <trkpt lat="55.78192" lon="26.52785">
        <ele>141.509559</ele>
        <time>2020-10-07T02:58:15.788Z</time>
      </trkpt>
      <trkpt lat="55.7782" lon="26.53071">
        <ele>142.409017</ele>
        <time>2020-10-07T02:59:46.879Z</time>
      </trkpt>
      <trkpt lat="55.7776" lon="26.53103">
        <ele>142.79221</ele>
        <time>2020-10-07T03:00:02.388Z</time>
      </trkpt>
      <trkpt lat="55.77715" lon="26.53137">
        <ele>143.145618</ele>
        <time>2020-10-07T03:00:15.445Z</time>
      </trkpt>
      <trkpt lat="55.77661" lon="26.53196">
        <ele>144.314366</ele>
        <time>2020-10-07T03:00:33.427Z</time>
      </trkpt>
      <trkpt lat="55.77527" lon="26.53368">
        <ele>147.102261</ele>
        <time>2020-10-07T03:01:24.942Z</time>
      </trkpt>
      <trkpt lat="55.77446" lon="26.53458">
        <ele>148.339148</ele>
        <time>2020-10-07T03:01:51.366Z</time>
      </trkpt>
      <trkpt lat="55.77377" lon="26.53519">
        <ele>148.501454</ele>
        <time>2020-10-07T03:02:08.742Z</time>
      </trkpt>
      <trkpt lat="55.77327" lon="26.53558">
        <ele>148.217611</ele>
        <time>2020-10-07T03:02:19.748Z</time>
      </trkpt>
      <trkpt lat="55.77209" lon="26.53608">
        <ele>147.686856</ele>
        <time>2020-10-07T03:02:43.071Z</time>
      </trkpt>
      <trkpt lat="55.76771" lon="26.53735">
        <ele>147.391329</ele>
        <time>2020-10-07T03:04:19.301Z</time>
      </trkpt>
      <trkpt lat="55.76623" lon="26.53769">
        <ele>149.313182</ele>
        <time>2020-10-07T03:05:03.343Z</time>
      </trkpt>
      <trkpt lat="55.7661" lon="26.5379">
        <ele>149.617958</ele>
        <time>2020-10-07T03:05:08.900Z</time>
      </trkpt>
      <trkpt lat="55.76389" lon="26.54">
        <ele>153.661686</ele>
        <time>2020-10-07T03:06:21.003Z</time>
      </trkpt>
      <trkpt lat="55.76161" lon="26.54164">
        <ele>156.127124</ele>
        <time>2020-10-07T03:07:26.229Z</time>
      </trkpt>
      <trkpt lat="55.75774" lon="26.54427">
        <ele>158.241044</ele>
        <time>2020-10-07T03:09:08.050Z</time>
      </trkpt>
      <trkpt lat="55.75356" lon="26.54741">
        <ele>155.319911</ele>
        <time>2020-10-07T03:10:37.793Z</time>
      </trkpt>
      <trkpt lat="55.75255" lon="26.54805">
        <ele>154.752162</ele>
        <time>2020-10-07T03:10:59.887Z</time>
      </trkpt>
      <trkpt lat="55.75144" lon="26.54851">
        <ele>154.584487</ele>
        <time>2020-10-07T03:11:24.543Z</time>
      </trkpt>
      <trkpt lat="55.74788" lon="26.5491">
        <ele>154.962729</ele>
        <time>2020-10-07T03:12:46.666Z</time>
      </trkpt>
      <trkpt lat="55.74439" lon="26.54989">
        <ele>154.354537</ele>
        <time>2020-10-07T03:14:03.533Z</time>
      </trkpt>
      <trkpt lat="55.74232" lon="26.55028">
        <ele>152.941733</ele>
        <time>2020-10-07T03:14:44.274Z</time>
      </trkpt>
      <trkpt lat="55.73645" lon="26.5514">
        <ele>149.492197</ele>
        <time>2020-10-07T03:16:44.128Z</time>
      </trkpt>
      <trkpt lat="55.73209" lon="26.55197">
        <ele>149.219001</ele>
        <time>2020-10-07T03:18:21.059Z</time>
      </trkpt>
      <trkpt lat="55.72836" lon="26.55181">
        <ele>149.392253</ele>
        <time>2020-10-07T03:19:44.613Z</time>
      </trkpt>
      <trkpt lat="55.72721" lon="26.55169">
        <ele>149.588037</ele>
        <time>2020-10-07T03:20:11.715Z</time>
      </trkpt>
      <trkpt lat="55.72707" lon="26.55167">
        <ele>149.581126</ele>
        <time>2020-10-07T03:20:14.912Z</time>
      </trkpt>
      <trkpt lat="55.72669" lon="26.55166">
        <ele>149.514395</ele>
        <time>2020-10-07T03:20:23.669Z</time>
      </trkpt>
      <trkpt lat="55.7262" lon="26.55158">
        <ele>149.430187</ele>
        <time>2020-10-07T03:20:34.383Z</time>
      </trkpt>
      <trkpt lat="55.72574" lon="26.5515">
        <ele>149.351183</ele>
        <time>2020-10-07T03:20:44.029Z</time>
      </trkpt>
      <trkpt lat="55.72428" lon="26.55124">
        <ele>149.081891</ele>
        <time>2020-10-07T03:21:14.109Z</time>
      </trkpt>
      <trkpt lat="55.72282" lon="26.55082">
        <ele>149.503739</ele>
        <time>2020-10-07T03:21:49.215Z</time>
      </trkpt>
      <trkpt lat="55.72159" lon="26.55047">
        <ele>150.341302</ele>
        <time>2020-10-07T03:22:21.831Z</time>
      </trkpt>
      <trkpt lat="55.72093" lon="26.55028">
        <ele>150.680864</ele>
        <time>2020-10-07T03:22:38.921Z</time>
      </trkpt>
      <trkpt lat="55.72076" lon="26.55023">
        <ele>150.767804</ele>
        <time>2020-10-07T03:22:43.084Z</time>
      </trkpt>
      <trkpt lat="55.72017" lon="26.55006">
        <ele>151.070579</ele>
        <time>2020-10-07T03:22:57.002Z</time>
      </trkpt>
      <trkpt lat="55.71556" lon="26.54874">
        <ele>150.972721</ele>
        <time>2020-10-07T03:24:39.003Z</time>
      </trkpt>
      <trkpt lat="55.71513" lon="26.54866">
        <ele>151.051855</ele>
        <time>2020-10-07T03:24:49.042Z</time>
      </trkpt>
      <trkpt lat="55.71469" lon="26.54854">
        <ele>151.143827</ele>
        <time>2020-10-07T03:25:00.751Z</time>
      </trkpt>
      <trkpt lat="55.70965" lon="26.54698">
        <ele>155.780215</ele>
        <time>2020-10-07T03:27:28.023Z</time>
      </trkpt>
      <trkpt lat="55.7088" lon="26.5468">
        <ele>155.544054</ele>
        <time>2020-10-07T03:27:48.357Z</time>
      </trkpt>
      <trkpt lat="55.70784" lon="26.5467">
        <ele>154.837099</ele>
        <time>2020-10-07T03:28:09.208Z</time>
      </trkpt>
      <trkpt lat="55.7062" lon="26.54682">
        <ele>153.105854</ele>
        <time>2020-10-07T03:28:43.980Z</time>
      </trkpt>
      <trkpt lat="55.70524" lon="26.54698">
        <ele>152.441335</ele>
        <time>2020-10-07T03:29:05.397Z</time>
      </trkpt>
      <trkpt lat="55.7042" lon="26.54731">
        <ele>152.029101</ele>
        <time>2020-10-07T03:29:30.452Z</time>
      </trkpt>
      <trkpt lat="55.70366" lon="26.54757">
        <ele>152.009762</ele>
        <time>2020-10-07T03:29:44.312Z</time>
      </trkpt>
      <trkpt lat="55.70149" lon="26.5489">
        <ele>152.6592</ele>
        <time>2020-10-07T03:30:43.282Z</time>
      </trkpt>
      <trkpt lat="55.69976" lon="26.55027">
        <ele>153.815371</ele>
        <time>2020-10-07T03:31:36.041Z</time>
      </trkpt>
      <trkpt lat="55.69853" lon="26.55168">
        <ele>154.676691</ele>
        <time>2020-10-07T03:32:15.968Z</time>
      </trkpt>
      <trkpt lat="55.69727" lon="26.55337">
        <ele>155.326073</ele>
        <time>2020-10-07T03:32:56.861Z</time>
      </trkpt>
      <trkpt lat="55.69472" lon="26.5572">
        <ele>156.496619</ele>
        <time>2020-10-07T03:34:24.821Z</time>
      </trkpt>
      <trkpt lat="55.69378" lon="26.55847">
        <ele>156.53569</ele>
        <time>2020-10-07T03:34:54.595Z</time>
      </trkpt>
      <trkpt lat="55.69349" lon="26.559">
        <ele>156.549462</ele>
        <time>2020-10-07T03:35:04.719Z</time>
      </trkpt>
      <trkpt lat="55.6934" lon="26.55916">
        <ele>156.510966</ele>
        <time>2020-10-07T03:35:07.748Z</time>
      </trkpt>
      <trkpt lat="55.69216" lon="26.56091">
        <ele>155.785311</ele>
        <time>2020-10-07T03:35:44.531Z</time>
      </trkpt>
      <trkpt lat="55.69126" lon="26.56229">
        <ele>154.693666</ele>
        <time>2020-10-07T03:36:10.718Z</time>
      </trkpt>
      <trkpt lat="55.69083" lon="26.56304">
        <ele>154.109908</ele>
        <time>2020-10-07T03:36:23.583Z</time>
      </trkpt>
      <trkpt lat="55.68991" lon="26.56431">
        <ele>152.749095</ele>
        <time>2020-10-07T03:36:48.131Z</time>
      </trkpt>
      <trkpt lat="55.68863" lon="26.56628">
        <ele>151.466391</ele>
        <time>2020-10-07T03:37:24.907Z</time>
      </trkpt>
      <trkpt lat="55.68707" lon="26.56835">
        <ele>151.787924</ele>
        <time>2020-10-07T03:38:15.041Z</time>
      </trkpt>
      <trkpt lat="55.68689" lon="26.56855">
        <ele>151.915328</ele>
        <time>2020-10-07T03:38:21.094Z</time>
      </trkpt>
      <trkpt lat="55.6857" lon="26.56991">
        <ele>153.344182</ele>
        <time>2020-10-07T03:39:03.131Z</time>
      </trkpt>
      <trkpt lat="55.68338" lon="26.57219">
        <ele>156.539569</ele>
        <time>2020-10-07T03:40:22.271Z</time>
      </trkpt>
      <trkpt lat="55.68114" lon="26.57465">
        <ele>157.170951</ele>
        <time>2020-10-07T03:41:34.118Z</time>
      </trkpt>
      <trkpt lat="55.6774" lon="26.57854">
        <ele>153.147535</ele>
        <time>2020-10-07T03:43:06.318Z</time>
      </trkpt>
      <trkpt lat="55.67644" lon="26.57961">
        <ele>152.012723</ele>
        <time>2020-10-07T03:43:30.888Z</time>
      </trkpt>
      <trkpt lat="55.67609" lon="26.58018">
        <ele>151.563906</ele>
        <time>2020-10-07T03:43:40.992Z</time>
      </trkpt>
      <trkpt lat="55.67587" lon="26.58065">
        <ele>151.240508</ele>
        <time>2020-10-07T03:43:48.443Z</time>
      </trkpt>
      <trkpt lat="55.67579" lon="26.5808">
        <ele>151.142481</ele>
        <time>2020-10-07T03:43:51.165Z</time>
      </trkpt>
      <trkpt lat="55.67571" lon="26.58108">
        <ele>151.204779</ele>
        <time>2020-10-07T03:43:55.358Z</time>
      </trkpt>
      <trkpt lat="55.67556" lon="26.58172">
        <ele>151.346155</ele>
        <time>2020-10-07T03:44:05.258Z</time>
      </trkpt>
      <trkpt lat="55.67556" lon="26.58173">
        <ele>151.347775</ele>
        <time>2020-10-07T03:44:05.329Z</time>
      </trkpt>
      <trkpt lat="55.67534" lon="26.58279">
        <ele>151.575805</ele>
        <time>2020-10-07T03:44:22.613Z</time>
      </trkpt>
      <trkpt lat="55.67524" lon="26.5831">
        <ele>151.648656</ele>
        <time>2020-10-07T03:44:27.476Z</time>
      </trkpt>
      <trkpt lat="55.67521" lon="26.5832">
        <ele>151.669999</ele>
        <time>2020-10-07T03:44:29.025Z</time>
      </trkpt>
      <trkpt lat="55.67517" lon="26.58332">
        <ele>151.699271</ele>
        <time>2020-10-07T03:44:31.177Z</time>
      </trkpt>
      <trkpt lat="55.67517" lon="26.58335">
        <ele>151.705795</ele>
        <time>2020-10-07T03:44:31.659Z</time>
      </trkpt>
      <trkpt lat="55.67494" lon="26.58395">
        <ele>151.997808</ele>
        <time>2020-10-07T03:44:48.158Z</time>
      </trkpt>
      <trkpt lat="55.67481" lon="26.58445">
        <ele>152.35042</ele>
        <time>2020-10-07T03:45:00.987Z</time>
      </trkpt>
      <trkpt lat="55.67472" lon="26.58492">
        <ele>152.666278</ele>
        <time>2020-10-07T03:45:12.862Z</time>
      </trkpt>
      <trkpt lat="55.67452" lon="26.58669">
        <ele>153.82217</ele>
        <time>2020-10-07T03:45:56.421Z</time>
      </trkpt>
      <trkpt lat="55.67419" lon="26.58904">
        <ele>154.298499</ele>
        <time>2020-10-07T03:46:50.757Z</time>
      </trkpt>
      <trkpt lat="55.67405" lon="26.58952">
        <ele>154.404001</ele>
        <time>2020-10-07T03:47:01.666Z</time>
      </trkpt>
      <trkpt lat="55.67382" lon="26.58978">
        <ele>154.243526</ele>
        <time>2020-10-07T03:47:10.980Z</time>
      </trkpt>
      <trkpt lat="55.67348" lon="26.59005">
        <ele>153.691575</ele>
        <time>2020-10-07T03:47:23.504Z</time>
      </trkpt>
      <trkpt lat="55.67289" lon="26.5905">
        <ele>152.735821</ele>
        <time>2020-10-07T03:47:44.304Z</time>
      </trkpt>
      <trkpt lat="55.67257" lon="26.59064">
        <ele>152.237457</ele>
        <time>2020-10-07T03:47:54.858Z</time>
      </trkpt>
      <trkpt lat="55.67217" lon="26.59069">
        <ele>151.639119</ele>
        <time>2020-10-07T03:48:07.347Z</time>
      </trkpt>
      <trkpt lat="55.67098" lon="26.5905">
        <ele>149.879636</ele>
        <time>2020-10-07T03:48:45.271Z</time>
      </trkpt>
      <trkpt lat="55.67052" lon="26.59052">
        <ele>149.195441</ele>
        <time>2020-10-07T03:49:01.392Z</time>
      </trkpt>
      <trkpt lat="55.67028" lon="26.59051">
        <ele>149.100728</ele>
        <time>2020-10-07T03:49:09.865Z</time>
      </trkpt>
      <trkpt lat="55.6701" lon="26.5905">
        <ele>149.085382</ele>
        <time>2020-10-07T03:49:16.549Z</time>
      </trkpt>
      <trkpt lat="55.66957" lon="26.59052">
        <ele>149.040411</ele>
        <time>2020-10-07T03:49:35.771Z</time>
      </trkpt>
      <trkpt lat="55.66872" lon="26.59038">
        <ele>148.96805</ele>
        <time>2020-10-07T03:50:08.065Z</time>
      </trkpt>
      <trkpt lat="55.66849" lon="26.5902">
        <ele>149.011122</ele>
        <time>2020-10-07T03:50:17.627Z</time>
      </trkpt>
      <trkpt lat="55.6674" lon="26.58905">
        <ele>149.310067</ele>
        <time>2020-10-07T03:51:05.155Z</time>
      </trkpt>
      <trkpt lat="55.6666" lon="26.58824">
        <ele>150.082053</ele>
        <time>2020-10-07T03:51:41.724Z</time>
      </trkpt>
      <trkpt lat="55.66599" lon="26.58547">
        <ele>152.064685</ele>
        <time>2020-10-07T03:52:53.854Z</time>
      </trkpt>
      <trkpt lat="55.66562" lon="26.58454">
        <ele>152.847398</ele>
        <time>2020-10-07T03:53:21.651Z</time>
      </trkpt>
      <trkpt lat="55.66527" lon="26.58325">
        <ele>153.68749</ele>
        <time>2020-10-07T03:53:54.826Z</time>
      </trkpt>
      <trkpt lat="55.66476" lon="26.58241">
        <ele>153.746173</ele>
        <time>2020-10-07T03:54:21.977Z</time>
      </trkpt>
      <trkpt lat="55.66388" lon="26.58175">
        <ele>153.826786</ele>
        <time>2020-10-07T03:54:56.786Z</time>
      </trkpt>
      <trkpt lat="55.66359" lon="26.58128">
        <ele>153.109793</ele>
        <time>2020-10-07T03:55:10.196Z</time>
      </trkpt>
      <trkpt lat="55.66342" lon="26.58062">
        <ele>152.310608</ele>
        <time>2020-10-07T03:55:23.917Z</time>
      </trkpt>
      <trkpt lat="55.66327" lon="26.58041">
        <ele>151.938248</ele>
        <time>2020-10-07T03:55:30.193Z</time>
      </trkpt>
      <trkpt lat="55.66258" lon="26.57976">
        <ele>150.429272</ele>
        <time>2020-10-07T03:55:53.493Z</time>
      </trkpt>
      <trkpt lat="55.66234" lon="26.5789">
        <ele>148.68301</ele>
        <time>2020-10-07T03:56:09.335Z</time>
      </trkpt>
      <trkpt lat="55.66214" lon="26.57863">
        <ele>147.863793</ele>
        <time>2020-10-07T03:56:16.577Z</time>
      </trkpt>
      <trkpt lat="55.66168" lon="26.57811">
        <ele>146.056181</ele>
        <time>2020-10-07T03:56:32.381Z</time>
      </trkpt>
      <trkpt lat="55.66171" lon="26.57759">
        <ele>145.080061</ele>
        <time>2020-10-07T03:56:52.943Z</time>
      </trkpt>
      <trkpt lat="55.66164" lon="26.57625">
        <ele>143.651979</ele>
        <time>2020-10-07T03:57:45.714Z</time>
      </trkpt>
      <trkpt lat="55.66105" lon="26.57245">
        <ele>142.15541</ele>
        <time>2020-10-07T04:00:21.181Z</time>
      </trkpt>
      <trkpt lat="55.66097" lon="26.57206">
        <ele>142.198837</ele>
        <time>2020-10-07T04:00:37.177Z</time>
      </trkpt>
      <trkpt lat="55.66089" lon="26.57177">
        <ele>142.233913</ele>
        <time>2020-10-07T04:00:50.075Z</time>
      </trkpt>
      <trkpt lat="55.66074" lon="26.57129">
        <ele>142.292077</ele>
        <time>2020-10-07T04:01:11.506Z</time>
      </trkpt>
      <trkpt lat="55.66059" lon="26.57082">
        <ele>142.697763</ele>
        <time>2020-10-07T04:01:20.403Z</time>
      </trkpt>
      <trkpt lat="55.66046" lon="26.57038">
        <ele>143.220281</ele>
        <time>2020-10-07T04:01:28.618Z</time>
      </trkpt>
      <trkpt lat="55.66036" lon="26.56997">
        <ele>143.700773</ele>
        <time>2020-10-07T04:01:36.388Z</time>
      </trkpt>
      <trkpt lat="55.66028" lon="26.56949">
        <ele>144.237014</ele>
        <time>2020-10-07T04:01:44.839Z</time>
      </trkpt>
      <trkpt lat="55.66025" lon="26.56913">
        <ele>144.626515</ele>
        <time>2020-10-07T04:01:50.967Z</time>
      </trkpt>
      <trkpt lat="55.66024" lon="26.56851">
        <ele>145.286607</ele>
        <time>2020-10-07T04:02:01.546Z</time>
      </trkpt>
      <trkpt lat="55.66023" lon="26.56822">
        <ele>145.597455</ele>
        <time>2020-10-07T04:02:06.710Z</time>
      </trkpt>
      <trkpt lat="55.6602" lon="26.56767">
        <ele>146.29391</ele>
        <time>2020-10-07T04:02:16.181Z</time>
      </trkpt>
      <trkpt lat="55.66018" lon="26.56587">
        <ele>148.67911</ele>
        <time>2020-10-07T04:02:48.564Z</time>
      </trkpt>
      <trkpt lat="55.66022" lon="26.56512">
        <ele>149.673795</ele>
        <time>2020-10-07T04:03:01.317Z</time>
      </trkpt>
      <trkpt lat="55.66022" lon="26.56493">
        <ele>149.913985</ele>
        <time>2020-10-07T04:03:04.934Z</time>
      </trkpt>
      <trkpt lat="55.66022" lon="26.56296">
        <ele>153.781249</ele>
        <time>2020-10-07T04:03:43.870Z</time>
      </trkpt>
      <trkpt lat="55.66034" lon="26.55863">
        <ele>163.145248</ele>
        <time>2020-10-07T04:05:20.305Z</time>
      </trkpt>
      <trkpt lat="55.66035" lon="26.55836">
        <ele>163.4738</ele>
        <time>2020-10-07T04:05:26.098Z</time>
      </trkpt>
      <trkpt lat="55.66061" lon="26.55429">
        <ele>165.855253</ele>
        <time>2020-10-07T04:06:28.229Z</time>
      </trkpt>
      <trkpt lat="55.6615" lon="26.54524">
        <ele>162.290879</ele>
        <time>2020-10-07T04:08:10.539Z</time>
      </trkpt>
      <trkpt lat="55.66161" lon="26.54217">
        <ele>159.711415</ele>
        <time>2020-10-07T04:08:41.963Z</time>
      </trkpt>
      <trkpt lat="55.66176" lon="26.54079">
        <ele>158.414688</ele>
        <time>2020-10-07T04:08:56.345Z</time>
      </trkpt>
      <trkpt lat="55.66188" lon="26.53966">
        <ele>157.344203</ele>
        <time>2020-10-07T04:09:08.175Z</time>
      </trkpt>
      <trkpt lat="55.66203" lon="26.53826">
        <ele>156.171212</ele>
        <time>2020-10-07T04:09:22.952Z</time>
      </trkpt>
      <trkpt lat="55.66213" lon="26.53749">
        <ele>155.52145</ele>
        <time>2020-10-07T04:09:31.265Z</time>
      </trkpt>
      <trkpt lat="55.66226" lon="26.5366">
        <ele>154.764366</ele>
        <time>2020-10-07T04:09:40.911Z</time>
      </trkpt>
      <trkpt lat="55.66244" lon="26.53534">
        <ele>153.558707</ele>
        <time>2020-10-07T04:09:54.426Z</time>
      </trkpt>
      <trkpt lat="55.66258" lon="26.53436">
        <ele>152.614132</ele>
        <time>2020-10-07T04:10:04.729Z</time>
      </trkpt>
      <trkpt lat="55.66279" lon="26.53343">
        <ele>151.686949</ele>
        <time>2020-10-07T04:10:14.944Z</time>
      </trkpt>
      <trkpt lat="55.66281" lon="26.53335">
        <ele>151.593114</ele>
        <time>2020-10-07T04:10:15.921Z</time>
      </trkpt>
      <trkpt lat="55.66285" lon="26.53322">
        <ele>151.450687</ele>
        <time>2020-10-07T04:10:17.300Z</time>
      </trkpt>
      <trkpt lat="55.66329" lon="26.53214">
        <ele>150.171622</ele>
        <time>2020-10-07T04:10:30.592Z</time>
      </trkpt>
      <trkpt lat="55.66391" lon="26.53061">
        <ele>148.538451</ele>
        <time>2020-10-07T04:10:49.817Z</time>
      </trkpt>
      <trkpt lat="55.66494" lon="26.52803">
        <ele>147.373299</ele>
        <time>2020-10-07T04:11:26.357Z</time>
      </trkpt>
      <trkpt lat="55.66508" lon="26.52753">
        <ele>147.369156</ele>
        <time>2020-10-07T04:11:33.411Z</time>
      </trkpt>
      <trkpt lat="55.66516" lon="26.52677">
        <ele>147.363493</ele>
        <time>2020-10-07T04:11:43.041Z</time>
      </trkpt>
      <trkpt lat="55.66525" lon="26.52368">
        <ele>147.65003</ele>
        <time>2020-10-07T04:12:23.028Z</time>
      </trkpt>
      <trkpt lat="55.66536" lon="26.52283">
        <ele>147.819348</ele>
        <time>2020-10-07T04:12:34.805Z</time>
      </trkpt>
      <trkpt lat="55.66571" lon="26.51989">
        <ele>148.615458</ele>
        <time>2020-10-07T04:13:16.726Z</time>
      </trkpt>
      <trkpt lat="55.66605" lon="26.51761">
        <ele>149.052831</ele>
        <time>2020-10-07T04:13:48.318Z</time>
      </trkpt>
      <trkpt lat="55.66626" lon="26.5166">
        <ele>149.17354</ele>
        <time>2020-10-07T04:14:02.019Z</time>
      </trkpt>
      <trkpt lat="55.66643" lon="26.51604">
        <ele>149.244716</ele>
        <time>2020-10-07T04:14:10.429Z</time>
      </trkpt>
      <trkpt lat="55.66676" lon="26.51536">
        <ele>149.220181</ele>
        <time>2020-10-07T04:14:21.695Z</time>
      </trkpt>
      <trkpt lat="55.66723" lon="26.51445">
        <ele>149.166932</ele>
        <time>2020-10-07T04:14:36.837Z</time>
      </trkpt>
      <trkpt lat="55.66717" lon="26.51431">
        <ele>149.159201</ele>
        <time>2020-10-07T04:14:39.137Z</time>
      </trkpt>
      <trkpt lat="55.66709" lon="26.51418">
        <ele>149.150719</ele>
        <time>2020-10-07T04:14:41.631Z</time>
      </trkpt>
      <trkpt lat="55.66597" lon="26.51458">
        <ele>149.074379</ele>
        <time>2020-10-07T04:15:06.313Z</time>
      </trkpt>
      <trkpt lat="55.66426" lon="26.51517">
        <ele>149.184497</ele>
        <time>2020-10-07T04:15:44.914Z</time>
      </trkpt>
      <trkpt lat="55.66379" lon="26.51516">
        <ele>149.313213</ele>
        <time>2020-10-07T04:15:56.286Z</time>
      </trkpt>
      <trkpt lat="55.66351" lon="26.51499">
        <ele>149.394109</ele>
        <time>2020-10-07T04:16:03.448Z</time>
      </trkpt>
      <trkpt lat="55.66238" lon="26.51403">
        <ele>149.580477</ele>
        <time>2020-10-07T04:16:33.147Z</time>
      </trkpt>
      <trkpt lat="55.66165" lon="26.51329">
        <ele>149.657902</ele>
        <time>2020-10-07T04:16:51.558Z</time>
      </trkpt>
      <trkpt lat="55.66056" lon="26.51156">
        <ele>149.656616</ele>
        <time>2020-10-07T04:17:22.897Z</time>
      </trkpt>
      <trkpt lat="55.65909" lon="26.50967">
        <ele>150.56019</ele>
        <time>2020-10-07T04:18:07.178Z</time>
      </trkpt>
      <trkpt lat="55.65851" lon="26.50895">
        <ele>151.179583</ele>
        <time>2020-10-07T04:18:26.011Z</time>
      </trkpt>
      <trkpt lat="55.65828" lon="26.50864">
        <ele>151.530501</ele>
        <time>2020-10-07T04:18:34.036Z</time>
      </trkpt>
      <trkpt lat="55.65628" lon="26.50635">
        <ele>153.889726</ele>
        <time>2020-10-07T04:19:38.600Z</time>
      </trkpt>
      <trkpt lat="55.65543" lon="26.50546">
        <ele>154.195786</ele>
        <time>2020-10-07T04:20:01.164Z</time>
      </trkpt>
      <trkpt lat="55.65468" lon="26.50481">
        <ele>153.748824</ele>
        <time>2020-10-07T04:20:18.283Z</time>
      </trkpt>
      <trkpt lat="55.65268" lon="26.50342">
        <ele>152.102178</ele>
        <time>2020-10-07T04:20:59.919Z</time>
      </trkpt>
      <trkpt lat="55.65235" lon="26.50276">
        <ele>151.759612</ele>
        <time>2020-10-07T04:21:09.927Z</time>
      </trkpt>
      <trkpt lat="55.65213" lon="26.50205">
        <ele>151.533585</ele>
        <time>2020-10-07T04:21:19.338Z</time>
      </trkpt>
      <trkpt lat="55.65186" lon="26.50094">
        <ele>151.198526</ele>
        <time>2020-10-07T04:21:33.513Z</time>
      </trkpt>
      <trkpt lat="55.65172" lon="26.50032">
        <ele>151.012129</ele>
        <time>2020-10-07T04:21:41.512Z</time>
      </trkpt>
      <trkpt lat="55.65152" lon="26.4996">
        <ele>150.801455</ele>
        <time>2020-10-07T04:21:51.114Z</time>
      </trkpt>
      <trkpt lat="55.65064" lon="26.49687">
        <ele>149.804675</ele>
        <time>2020-10-07T04:22:27.772Z</time>
      </trkpt>
      <trkpt lat="55.64861" lon="26.49055">
        <ele>145.988134</ele>
        <time>2020-10-07T04:23:46.690Z</time>
      </trkpt>
      <trkpt lat="55.64775" lon="26.48793">
        <ele>145.377396</ele>
        <time>2020-10-07T04:24:22.677Z</time>
      </trkpt>
      <trkpt lat="55.64747" lon="26.48729">
        <ele>145.402906</ele>
        <time>2020-10-07T04:24:32.990Z</time>
      </trkpt>
      <trkpt lat="55.64351" lon="26.48175">
        <ele>149.245557</ele>
        <time>2020-10-07T04:26:37.463Z</time>
      </trkpt>
      <trkpt lat="55.64209" lon="26.48013">
        <ele>153.66494</ele>
        <time>2020-10-07T04:27:36.396Z</time>
      </trkpt>
      <trkpt lat="55.64189" lon="26.47991">
        <ele>154.475675</ele>
        <time>2020-10-07T04:27:46.070Z</time>
      </trkpt>
      <trkpt lat="55.64157" lon="26.47949">
        <ele>155.853127</ele>
        <time>2020-10-07T04:28:01.077Z</time>
      </trkpt>
      <trkpt lat="55.64139" lon="26.47902">
        <ele>156.982876</ele>
        <time>2020-10-07T04:28:13.418Z</time>
      </trkpt>
      <trkpt lat="55.64135" lon="26.47845">
        <ele>157.248902</ele>
        <time>2020-10-07T04:28:24.727Z</time>
      </trkpt>
      <trkpt lat="55.64149" lon="26.47689">
        <ele>157.64645</ele>
        <time>2020-10-07T04:28:49.172Z</time>
      </trkpt>
      <trkpt lat="55.64142" lon="26.47643">
        <ele>157.765815</ele>
        <time>2020-10-07T04:28:54.265Z</time>
      </trkpt>
      <trkpt lat="55.64121" lon="26.47607">
        <ele>157.894644</ele>
        <time>2020-10-07T04:28:59.279Z</time>
      </trkpt>
      <trkpt lat="55.64049" lon="26.47536">
        <ele>155.386731</ele>
        <time>2020-10-07T04:29:12.575Z</time>
      </trkpt>
      <trkpt lat="55.63961" lon="26.47459">
        <ele>152.10319</ele>
        <time>2020-10-07T04:29:28.027Z</time>
      </trkpt>
      <trkpt lat="55.63801" lon="26.47369">
        <ele>148.261861</ele>
        <time>2020-10-07T04:29:56.785Z</time>
      </trkpt>
      <trkpt lat="55.63694" lon="26.47293">
        <ele>146.915044</ele>
        <time>2020-10-07T04:30:19.482Z</time>
      </trkpt>
      <trkpt lat="55.63588" lon="26.47203">
        <ele>145.88329</ele>
        <time>2020-10-07T04:30:42.805Z</time>
      </trkpt>
      <trkpt lat="55.63532" lon="26.47148">
        <ele>145.460794</ele>
        <time>2020-10-07T04:30:55.559Z</time>
      </trkpt>
      <trkpt lat="55.63488" lon="26.47092">
        <ele>145.100521</ele>
        <time>2020-10-07T04:31:06.549Z</time>
      </trkpt>
      <trkpt lat="55.63354" lon="26.46908">
        <ele>144.3642</ele>
        <time>2020-10-07T04:31:41.577Z</time>
      </trkpt>
      <trkpt lat="55.63138" lon="26.46611">
        <ele>143.495319</ele>
        <time>2020-10-07T04:32:40.177Z</time>
      </trkpt>
      <trkpt lat="55.6311" lon="26.46581">
        <ele>143.352048</ele>
        <time>2020-10-07T04:32:46.914Z</time>
      </trkpt>
      <trkpt lat="55.63103" lon="26.46577">
        <ele>143.319312</ele>
        <time>2020-10-07T04:32:48.422Z</time>
      </trkpt>
      <trkpt lat="55.63082" lon="26.46564">
        <ele>143.221931</ele>
        <time>2020-10-07T04:32:52.949Z</time>
      </trkpt>
      <trkpt lat="55.6305" lon="26.46559">
        <ele>143.08285</ele>
        <time>2020-10-07T04:32:59.353Z</time>
      </trkpt>
      <trkpt lat="55.62936" lon="26.4657">
        <ele>142.857918</ele>
        <time>2020-10-07T04:33:22.845Z</time>
      </trkpt>
      <trkpt lat="55.62912" lon="26.46559">
        <ele>142.829329</ele>
        <time>2020-10-07T04:33:28.197Z</time>
      </trkpt>
      <trkpt lat="55.62894" lon="26.46541">
        <ele>142.805892</ele>
        <time>2020-10-07T04:33:32.634Z</time>
      </trkpt>
      <trkpt lat="55.62877" lon="26.46501">
        <ele>142.773395</ele>
        <time>2020-10-07T04:33:38.983Z</time>
      </trkpt>
      <trkpt lat="55.62727" lon="26.46044">
        <ele>145.105548</ele>
        <time>2020-10-07T04:34:57.462Z</time>
      </trkpt>
      <trkpt lat="55.62713" lon="26.46012">
        <ele>145.268867</ele>
        <time>2020-10-07T04:35:03.540Z</time>
      </trkpt>
      <trkpt lat="55.62691" lon="26.45985">
        <ele>145.456858</ele>
        <time>2020-10-07T04:35:09.878Z</time>
      </trkpt>
      <trkpt lat="55.62679" lon="26.4598">
        <ele>145.539621</ele>
        <time>2020-10-07T04:35:13.198Z</time>
      </trkpt>
      <trkpt lat="55.62673" lon="26.45978">
        <ele>145.586455</ele>
        <time>2020-10-07T04:35:14.730Z</time>
      </trkpt>
      <trkpt lat="55.6264" lon="26.45991">
        <ele>145.524818</ele>
        <time>2020-10-07T04:35:22.683Z</time>
      </trkpt>
      <trkpt lat="55.62347" lon="26.46272">
        <ele>142.515422</ele>
        <time>2020-10-07T04:36:26.422Z</time>
      </trkpt>
      <trkpt lat="55.62307" lon="26.46303">
        <ele>142.364059</ele>
        <time>2020-10-07T04:36:35.164Z</time>
      </trkpt>
      <trkpt lat="55.62271" lon="26.46314">
        <ele>142.28576</ele>
        <time>2020-10-07T04:36:42.539Z</time>
      </trkpt>
      <trkpt lat="55.62063" lon="26.4633">
        <ele>142.383391</ele>
        <time>2020-10-07T04:37:30.313Z</time>
      </trkpt>
      <trkpt lat="55.62022" lon="26.46346">
        <ele>142.520957</ele>
        <time>2020-10-07T04:37:40.678Z</time>
      </trkpt>
      <trkpt lat="55.62012" lon="26.46353">
        <ele>142.556215</ele>
        <time>2020-10-07T04:37:43.347Z</time>
      </trkpt>
      <trkpt lat="55.62005" lon="26.46358">
        <ele>142.579734</ele>
        <time>2020-10-07T04:37:45.061Z</time>
      </trkpt>
      <trkpt lat="55.61878" lon="26.4646">
        <ele>143.446261</ele>
        <time>2020-10-07T04:38:19.606Z</time>
      </trkpt>
      <trkpt lat="55.61835" lon="26.46487">
        <ele>143.744481</ele>
        <time>2020-10-07T04:38:30.915Z</time>
      </trkpt>
      <trkpt lat="55.61801" lon="26.46487">
        <ele>144.018689</ele>
        <time>2020-10-07T04:38:39.523Z</time>
      </trkpt>
      <trkpt lat="55.61713" lon="26.46424">
        <ele>144.860365</ele>
        <time>2020-10-07T04:39:03.601Z</time>
      </trkpt>
      <trkpt lat="55.61674" lon="26.4641">
        <ele>145.211001</ele>
        <time>2020-10-07T04:39:14.109Z</time>
      </trkpt>
      <trkpt lat="55.61639" lon="26.46417">
        <ele>145.598757</ele>
        <time>2020-10-07T04:39:23.687Z</time>
      </trkpt>
      <trkpt lat="55.61601" lon="26.46448">
        <ele>146.23667</ele>
        <time>2020-10-07T04:39:35.025Z</time>
      </trkpt>
      <trkpt lat="55.61589" lon="26.46464">
        <ele>146.467886</ele>
        <time>2020-10-07T04:39:39.232Z</time>
      </trkpt>
      <trkpt lat="55.61578" lon="26.46484">
        <ele>146.707468</ele>
        <time>2020-10-07T04:39:43.643Z</time>
      </trkpt>
      <trkpt lat="55.61351" lon="26.47036">
        <ele>152.367258</ele>
        <time>2020-10-07T04:41:34.692Z</time>
      </trkpt>
      <trkpt lat="55.61338" lon="26.47059">
        <ele>152.603322</ele>
        <time>2020-10-07T04:41:39.965Z</time>
      </trkpt>
      <trkpt lat="55.61183" lon="26.47266">
        <ele>153.478323</ele>
        <time>2020-10-07T04:42:28.075Z</time>
      </trkpt>
      <trkpt lat="55.61102" lon="26.47363">
        <ele>152.326937</ele>
        <time>2020-10-07T04:42:46.326Z</time>
      </trkpt>
      <trkpt lat="55.60992" lon="26.47458">
        <ele>149.910972</ele>
        <time>2020-10-07T04:43:07.219Z</time>
      </trkpt>
      <trkpt lat="55.60957" lon="26.47472">
        <ele>149.279415</ele>
        <time>2020-10-07T04:43:13.294Z</time>
      </trkpt>
      <trkpt lat="55.60928" lon="26.47473">
        <ele>148.770136</ele>
        <time>2020-10-07T04:43:18.291Z</time>
      </trkpt>
      <trkpt lat="55.60846" lon="26.47443">
        <ele>147.307646</ele>
        <time>2020-10-07T04:43:33.407Z</time>
      </trkpt>
      <trkpt lat="55.60806" lon="26.47423">
        <ele>146.772774</ele>
        <time>2020-10-07T04:43:41.472Z</time>
      </trkpt>
      <trkpt lat="55.60709" lon="26.47357">
        <ele>146.437846</ele>
        <time>2020-10-07T04:44:03.508Z</time>
      </trkpt>
      <trkpt lat="55.60508" lon="26.47225">
        <ele>146.182528</ele>
        <time>2020-10-07T04:44:51.593Z</time>
      </trkpt>
      <trkpt lat="55.60464" lon="26.47204">
        <ele>146.102204</ele>
        <time>2020-10-07T04:45:01.314Z</time>
      </trkpt>
      <trkpt lat="55.60318" lon="26.47188">
        <ele>145.519334</ele>
        <time>2020-10-07T04:45:31.632Z</time>
      </trkpt>
      <trkpt lat="55.6026" lon="26.47188">
        <ele>145.321214</ele>
        <time>2020-10-07T04:45:43.635Z</time>
      </trkpt>
      <trkpt lat="55.60249" lon="26.47192">
        <ele>145.2842</ele>
        <time>2020-10-07T04:45:45.965Z</time>
      </trkpt>
      <trkpt lat="55.60241" lon="26.47199">
        <ele>145.254967</ele>
        <time>2020-10-07T04:45:47.923Z</time>
      </trkpt>
      <trkpt lat="55.60198" lon="26.47257">
        <ele>145.081095</ele>
        <time>2020-10-07T04:45:59.231Z</time>
      </trkpt>
      <trkpt lat="55.60074" lon="26.47535">
        <ele>144.832094</ele>
        <time>2020-10-07T04:46:42.488Z</time>
      </trkpt>
      <trkpt lat="55.60055" lon="26.47563">
        <ele>144.823994</ele>
        <time>2020-10-07T04:46:48.182Z</time>
      </trkpt>
      <trkpt lat="55.60026" lon="26.47588">
        <ele>144.93313</ele>
        <time>2020-10-07T04:46:55.543Z</time>
      </trkpt>
      <trkpt lat="55.59877" lon="26.47627">
        <ele>146.170542</ele>
        <time>2020-10-07T04:47:34.287Z</time>
      </trkpt>
      <trkpt lat="55.5987" lon="26.47629">
        <ele>146.23224</ele>
        <time>2020-10-07T04:47:36.630Z</time>
      </trkpt>
      <trkpt lat="55.59802" lon="26.47634">
        <ele>146.910424</ele>
        <time>2020-10-07T04:47:55.082Z</time>
      </trkpt>
      <trkpt lat="55.59711" lon="26.47607">
        <ele>147.864283</ele>
        <time>2020-10-07T04:48:20.452Z</time>
      </trkpt>
      <trkpt lat="55.5958" lon="26.47552">
        <ele>148.202029</ele>
        <time>2020-10-07T04:48:51.291Z</time>
      </trkpt>
      <trkpt lat="55.59564" lon="26.47545">
        <ele>148.211172</ele>
        <time>2020-10-07T04:48:54.994Z</time>
      </trkpt>
      <trkpt lat="55.59548" lon="26.47529">
        <ele>148.22057</ele>
        <time>2020-10-07T04:48:58.715Z</time>
      </trkpt>
      <trkpt lat="55.59532" lon="26.47479">
        <ele>148.237927</ele>
        <time>2020-10-07T04:49:05.634Z</time>
      </trkpt>
      <trkpt lat="55.59527" lon="26.47457">
        <ele>148.226673</ele>
        <time>2020-10-07T04:49:08.368Z</time>
      </trkpt>
      <trkpt lat="55.59527" lon="26.47437">
        <ele>148.206147</ele>
        <time>2020-10-07T04:49:10.675Z</time>
      </trkpt>
      <trkpt lat="55.59518" lon="26.46849">
        <ele>147.811208</ele>
        <time>2020-10-07T04:50:23.161Z</time>
      </trkpt>
      <trkpt lat="55.59511" lon="26.46281">
        <ele>149.034874</ele>
        <time>2020-10-07T04:51:38.633Z</time>
      </trkpt>
      <trkpt lat="55.59511" lon="26.46209">
        <ele>149.264912</ele>
        <time>2020-10-07T04:51:49.482Z</time>
      </trkpt>
      <trkpt lat="55.59508" lon="26.4603">
        <ele>150.272845</ele>
        <time>2020-10-07T04:52:17.761Z</time>
      </trkpt>
      <trkpt lat="55.59502" lon="26.45946">
        <ele>150.762554</ele>
        <time>2020-10-07T04:52:30.115Z</time>
      </trkpt>
      <trkpt lat="55.59499" lon="26.45915">
        <ele>150.946525</ele>
        <time>2020-10-07T04:52:35.010Z</time>
      </trkpt>
      <trkpt lat="55.59496" lon="26.45896">
        <ele>151.057253</ele>
        <time>2020-10-07T04:52:37.712Z</time>
      </trkpt>
      <trkpt lat="55.5949" lon="26.45857">
        <ele>151.153687</ele>
        <time>2020-10-07T04:52:43.347Z</time>
      </trkpt>
      <trkpt lat="55.59475" lon="26.45786">
        <ele>151.176724</ele>
        <time>2020-10-07T04:52:53.372Z</time>
      </trkpt>
      <trkpt lat="55.59467" lon="26.45754">
        <ele>151.187355</ele>
        <time>2020-10-07T04:52:57.492Z</time>
      </trkpt>
      <trkpt lat="55.59411" lon="26.4552">
        <ele>151.493331</ele>
        <time>2020-10-07T04:53:28.437Z</time>
      </trkpt>
      <trkpt lat="55.59423" lon="26.4549">
        <ele>151.619964</ele>
        <time>2020-10-07T04:53:33.219Z</time>
      </trkpt>
      <trkpt lat="55.5957" lon="26.45183">
        <ele>153.467591</ele>
        <time>2020-10-07T04:54:32.667Z</time>
      </trkpt>
      <trkpt lat="55.59643" lon="26.45028">
        <ele>154.284455</ele>
        <time>2020-10-07T04:55:03.695Z</time>
      </trkpt>
      <trkpt lat="55.60091" lon="26.44089">
        <ele>155.245451</ele>
        <time>2020-10-07T04:57:40.660Z</time>
      </trkpt>
      <trkpt lat="55.60121" lon="26.44016">
        <ele>155.151733</ele>
        <time>2020-10-07T04:57:52.152Z</time>
      </trkpt>
      <trkpt lat="55.60111" lon="26.44001">
        <ele>155.127358</ele>
        <time>2020-10-07T04:57:54.938Z</time>
      </trkpt>
      <trkpt lat="55.60124" lon="26.4397">
        <ele>155.087804</ele>
        <time>2020-10-07T04:57:59.590Z</time>
      </trkpt>
      <trkpt lat="55.60115" lon="26.43957">
        <ele>155.06563</ele>
        <time>2020-10-07T04:58:02.047Z</time>
      </trkpt>
      <trkpt lat="55.60093" lon="26.43922">
        <ele>155.011032</ele>
        <time>2020-10-07T04:58:08.254Z</time>
      </trkpt>
      <trkpt lat="55.60064" lon="26.43877">
        <ele>154.939933</ele>
        <time>2020-10-07T04:58:16.049Z</time>
      </trkpt>
      <trkpt lat="55.60028" lon="26.4382">
        <ele>154.830703</ele>
        <time>2020-10-07T04:58:26.204Z</time>
      </trkpt>
      <trkpt lat="55.60022" lon="26.43813">
        <ele>154.816297</ele>
        <time>2020-10-07T04:58:27.601Z</time>
      </trkpt>
      <trkpt lat="55.60006" lon="26.43788">
        <ele>154.766554</ele>
        <time>2020-10-07T04:58:32.668Z</time>
      </trkpt>
      <trkpt lat="55.5999" lon="26.43765">
        <ele>154.72157</ele>
        <time>2020-10-07T04:58:37.497Z</time>
      </trkpt>
      <trkpt lat="55.59948" lon="26.43703">
        <ele>154.598426</ele>
        <time>2020-10-07T04:58:49.349Z</time>
      </trkpt>
      <trkpt lat="55.59896" lon="26.43624">
        <ele>154.701615</ele>
        <time>2020-10-07T04:59:03.363Z</time>
      </trkpt>
      <trkpt lat="55.59881" lon="26.43602">
        <ele>154.769175</ele>
        <time>2020-10-07T04:59:07.466Z</time>
      </trkpt>
      <trkpt lat="55.59875" lon="26.43593">
        <ele>154.79931</ele>
        <time>2020-10-07T04:59:09.403Z</time>
      </trkpt>
      <trkpt lat="55.59834" lon="26.43531">
        <ele>154.994175</ele>
        <time>2020-10-07T04:59:22.078Z</time>
      </trkpt>
      <trkpt lat="55.59805" lon="26.4349">
        <ele>155.126765</ele>
        <time>2020-10-07T04:59:31.368Z</time>
      </trkpt>
      <trkpt lat="55.59793" lon="26.43472">
        <ele>155.182306</ele>
        <time>2020-10-07T04:59:35.638Z</time>
      </trkpt>
      <trkpt lat="55.59781" lon="26.43454">
        <ele>155.409752</ele>
        <time>2020-10-07T04:59:40.615Z</time>
      </trkpt>
      <trkpt lat="55.59733" lon="26.43383">
        <ele>156.371802</ele>
        <time>2020-10-07T04:59:59.249Z</time>
      </trkpt>
      <trkpt lat="55.59713" lon="26.43353">
        <ele>156.785535</ele>
        <time>2020-10-07T05:00:07.536Z</time>
      </trkpt>
      <trkpt lat="55.59706" lon="26.43343">
        <ele>156.925957</ele>
        <time>2020-10-07T05:00:10.258Z</time>
      </trkpt>
      <trkpt lat="55.59665" lon="26.4328">
        <ele>157.775329</ele>
        <time>2020-10-07T05:00:26.217Z</time>
      </trkpt>
      <trkpt lat="55.59668" lon="26.43255">
        <ele>157.989195</ele>
        <time>2020-10-07T05:00:29.789Z</time>
      </trkpt>
      <trkpt lat="55.5967" lon="26.43234">
        <ele>157.975184</ele>
        <time>2020-10-07T05:00:32.656Z</time>
      </trkpt>
      <trkpt lat="55.59671" lon="26.43193">
        <ele>157.948314</ele>
        <time>2020-10-07T05:00:38.202Z</time>
      </trkpt>
      <trkpt lat="55.59673" lon="26.4313">
        <ele>157.906702</ele>
        <time>2020-10-07T05:00:46.142Z</time>
      </trkpt>
      <trkpt lat="55.59677" lon="26.43043">
        <ele>157.849466</ele>
        <time>2020-10-07T05:00:56.691Z</time>
      </trkpt>
      <trkpt lat="55.59679" lon="26.4297">
        <ele>157.801599</ele>
        <time>2020-10-07T05:01:04.910Z</time>
      </trkpt>
      <trkpt lat="55.59682" lon="26.42844">
        <ele>157.482076</ele>
        <time>2020-10-07T05:01:18.782Z</time>
      </trkpt>
      <trkpt lat="55.59683" lon="26.42797">
        <ele>157.333542</ele>
        <time>2020-10-07T05:01:24.090Z</time>
      </trkpt>
      <trkpt lat="55.59683" lon="26.42783">
        <ele>157.288881</ele>
        <time>2020-10-07T05:01:25.616Z</time>
      </trkpt>
      <trkpt lat="55.59684" lon="26.42726">
        <ele>157.107683</ele>
        <time>2020-10-07T05:01:32.083Z</time>
      </trkpt>
      <trkpt lat="55.59685" lon="26.42693">
        <ele>157.001786</ele>
        <time>2020-10-07T05:01:36.124Z</time>
      </trkpt>
      <trkpt lat="55.59688" lon="26.42608">
        <ele>156.777843</ele>
        <time>2020-10-07T05:01:46.825Z</time>
      </trkpt>
      <trkpt lat="55.59696" lon="26.42542">
        <ele>156.802216</ele>
        <time>2020-10-07T05:01:55.639Z</time>
      </trkpt>
      <trkpt lat="55.59707" lon="26.42499">
        <ele>156.819331</ele>
        <time>2020-10-07T05:02:01.739Z</time>
      </trkpt>
      <trkpt lat="55.59713" lon="26.42479">
        <ele>156.827395</ele>
        <time>2020-10-07T05:02:04.392Z</time>
      </trkpt>
      <trkpt lat="55.59716" lon="26.42468">
        <ele>156.832195</ele>
        <time>2020-10-07T05:02:05.898Z</time>
      </trkpt>
      <trkpt lat="55.59733" lon="26.42427">
        <ele>156.850505</ele>
        <time>2020-10-07T05:02:12.005Z</time>
      </trkpt>
      <trkpt lat="55.59748" lon="26.42391">
        <ele>156.866749</ele>
        <time>2020-10-07T05:02:17.611Z</time>
      </trkpt>
      <trkpt lat="55.59761" lon="26.42363">
        <ele>156.880017</ele>
        <time>2020-10-07T05:02:22.102Z</time>
      </trkpt>
      <trkpt lat="55.59809" lon="26.42264">
        <ele>157.410794</ele>
        <time>2020-10-07T05:02:40.278Z</time>
      </trkpt>
      <trkpt lat="55.59894" lon="26.42094">
        <ele>158.4576</ele>
        <time>2020-10-07T05:03:15.190Z</time>
      </trkpt>
      <trkpt lat="55.59908" lon="26.42065">
        <ele>158.460944</ele>
        <time>2020-10-07T05:03:20.683Z</time>
      </trkpt>
      <trkpt lat="55.59887" lon="26.42033">
        <ele>158.465215</ele>
        <time>2020-10-07T05:03:27.627Z</time>
      </trkpt>
      <trkpt lat="55.59824" lon="26.41937">
        <ele>158.47822</ele>
        <time>2020-10-07T05:03:46.172Z</time>
      </trkpt>
      <trkpt lat="55.598" lon="26.419">
        <ele>158.483077</ele>
        <time>2020-10-07T05:03:52.365Z</time>
      </trkpt>
      <trkpt lat="55.59774" lon="26.41845">
        <ele>158.145529</ele>
        <time>2020-10-07T05:03:59.966Z</time>
      </trkpt>
      <trkpt lat="55.59755" lon="26.41786">
        <ele>157.756849</ele>
        <time>2020-10-07T05:04:07.080Z</time>
      </trkpt>
      <trkpt lat="55.59738" lon="26.4167">
        <ele>157.074304</ele>
        <time>2020-10-07T05:04:19.904Z</time>
      </trkpt>
      <trkpt lat="55.59735" lon="26.41624">
        <ele>156.804929</ele>
        <time>2020-10-07T05:04:25.274Z</time>
      </trkpt>
      <trkpt lat="55.59736" lon="26.41577">
        <ele>156.602569</ele>
        <time>2020-10-07T05:04:30.604Z</time>
      </trkpt>
      <trkpt lat="55.59739" lon="26.41474">
        <ele>156.315662</ele>
        <time>2020-10-07T05:04:42.376Z</time>
      </trkpt>
      <trkpt lat="55.59774" lon="26.4122">
        <ele>155.800004</ele>
        <time>2020-10-07T05:05:13.216Z</time>
      </trkpt>
      <trkpt lat="55.59785" lon="26.41105">
        <ele>155.844021</ele>
        <time>2020-10-07T05:05:27.642Z</time>
      </trkpt>
      <trkpt lat="55.59771" lon="26.40855">
        <ele>156.800259</ele>
        <time>2020-10-07T05:06:02.276Z</time>
      </trkpt>
      <trkpt lat="55.59761" lon="26.40719">
        <ele>157.861365</ele>
        <time>2020-10-07T05:06:24.819Z</time>
      </trkpt>
      <trkpt lat="55.59747" lon="26.40524">
        <ele>159.648052</ele>
        <time>2020-10-07T05:06:59.354Z</time>
      </trkpt>
      <trkpt lat="55.59739" lon="26.40422">
        <ele>160.650795</ele>
        <time>2020-10-07T05:07:16.199Z</time>
      </trkpt>
      <trkpt lat="55.59734" lon="26.40391">
        <ele>160.970423</ele>
        <time>2020-10-07T05:07:21.767Z</time>
      </trkpt>
      <trkpt lat="55.59728" lon="26.40359">
        <ele>161.301431</ele>
        <time>2020-10-07T05:07:26.772Z</time>
      </trkpt>
      <trkpt lat="55.59728" lon="26.40359">
        <ele>161.301431</ele>
        <time>2020-10-07T05:07:26.776Z</time>
      </trkpt>
      <trkpt lat="55.59716" lon="26.40312">
        <ele>161.564008</ele>
        <time>2020-10-07T05:07:34.543Z</time>
      </trkpt>
      <trkpt lat="55.59704" lon="26.40271">
        <ele>161.703416</ele>
        <time>2020-10-07T05:07:41.429Z</time>
      </trkpt>
      <trkpt lat="55.59698" lon="26.40252">
        <ele>161.771127</ele>
        <time>2020-10-07T05:07:44.280Z</time>
      </trkpt>
      <trkpt lat="55.59691" lon="26.40234">
        <ele>161.835916</ele>
        <time>2020-10-07T05:07:47.407Z</time>
      </trkpt>
      <trkpt lat="55.59671" lon="26.40194">
        <ele>161.994852</ele>
        <time>2020-10-07T05:07:54.475Z</time>
      </trkpt>
      <trkpt lat="55.59623" lon="26.40118">
        <ele>162.338684</ele>
        <time>2020-10-07T05:08:09.190Z</time>
      </trkpt>
      <trkpt lat="55.596" lon="26.40086">
        <ele>162.468164</ele>
        <time>2020-10-07T05:08:15.968Z</time>
      </trkpt>
      <trkpt lat="55.5958" lon="26.40062">
        <ele>162.552215</ele>
        <time>2020-10-07T05:08:21.602Z</time>
      </trkpt>
      <trkpt lat="55.59522" lon="26.40008">
        <ele>162.785086</ele>
        <time>2020-10-07T05:08:37.552Z</time>
      </trkpt>
      <trkpt lat="55.5944" lon="26.3997">
        <ele>163.058838</ele>
        <time>2020-10-07T05:08:57.846Z</time>
      </trkpt>
      <trkpt lat="55.59363" lon="26.3996">
        <ele>163.139183</ele>
        <time>2020-10-07T05:09:15.520Z</time>
      </trkpt>
      <trkpt lat="55.59211" lon="26.39955">
        <ele>163.18174</ele>
        <time>2020-10-07T05:09:49.237Z</time>
      </trkpt>
      <trkpt lat="55.58816" lon="26.39942">
        <ele>162.678613</ele>
        <time>2020-10-07T05:11:15.465Z</time>
      </trkpt>
      <trkpt lat="55.58729" lon="26.39939">
        <ele>162.472383</ele>
        <time>2020-10-07T05:11:34.046Z</time>
      </trkpt>
      <trkpt lat="55.5864" lon="26.3994">
        <ele>161.770549</ele>
        <time>2020-10-07T05:11:51.744Z</time>
      </trkpt>
      <trkpt lat="55.58573" lon="26.3995">
        <ele>161.244546</ele>
        <time>2020-10-07T05:12:04.811Z</time>
      </trkpt>
      <trkpt lat="55.58551" lon="26.39955">
        <ele>161.073624</ele>
        <time>2020-10-07T05:12:08.959Z</time>
      </trkpt>
      <trkpt lat="55.58533" lon="26.39961">
        <ele>160.938538</ele>
        <time>2020-10-07T05:12:12.553Z</time>
      </trkpt>
      <trkpt lat="55.58426" lon="26.40013">
        <ele>160.118822</ele>
        <time>2020-10-07T05:12:34.486Z</time>
      </trkpt>
      <trkpt lat="55.58296" lon="26.40114">
        <ele>159.479314</ele>
        <time>2020-10-07T05:13:04.213Z</time>
      </trkpt>
      <trkpt lat="55.5823" lon="26.40172">
        <ele>159.264359</ele>
        <time>2020-10-07T05:13:19.821Z</time>
      </trkpt>
      <trkpt lat="55.58087" lon="26.40295">
        <ele>159.693582</ele>
        <time>2020-10-07T05:13:56.397Z</time>
      </trkpt>
      <trkpt lat="55.5803" lon="26.40343">
        <ele>160.027584</ele>
        <time>2020-10-07T05:14:12.554Z</time>
      </trkpt>
      <trkpt lat="55.57968" lon="26.40396">
        <ele>160.585268</ele>
        <time>2020-10-07T05:14:30.891Z</time>
      </trkpt>
      <trkpt lat="55.57882" lon="26.40472">
        <ele>161.244578</ele>
        <time>2020-10-07T05:14:55.225Z</time>
      </trkpt>
      <trkpt lat="55.57812" lon="26.40558">
        <ele>161.143365</ele>
        <time>2020-10-07T05:15:14.256Z</time>
      </trkpt>
      <trkpt lat="55.57798" lon="26.4058">
        <ele>161.120922</ele>
        <time>2020-10-07T05:15:18.229Z</time>
      </trkpt>
      <trkpt lat="55.57786" lon="26.406">
        <ele>161.101765</ele>
        <time>2020-10-07T05:15:21.593Z</time>
      </trkpt>
      <trkpt lat="55.57752" lon="26.40664">
        <ele>161.031661</ele>
        <time>2020-10-07T05:15:31.767Z</time>
      </trkpt>
      <trkpt lat="55.57634" lon="26.40928">
        <ele>159.846205</ele>
        <time>2020-10-07T05:16:10.009Z</time>
      </trkpt>
      <trkpt lat="55.57611" lon="26.40973">
        <ele>159.803863</ele>
        <time>2020-10-07T05:16:17.167Z</time>
      </trkpt>
      <trkpt lat="55.57596" lon="26.40998">
        <ele>159.778285</ele>
        <time>2020-10-07T05:16:21.495Z</time>
      </trkpt>
      <trkpt lat="55.57535" lon="26.41082">
        <ele>159.683288</ele>
        <time>2020-10-07T05:16:38.311Z</time>
      </trkpt>
      <trkpt lat="55.5746" lon="26.41151">
        <ele>160.057484</ele>
        <time>2020-10-07T05:16:58.430Z</time>
      </trkpt>
      <trkpt lat="55.57381" lon="26.41194">
        <ele>160.762017</ele>
        <time>2020-10-07T05:17:20.117Z</time>
      </trkpt>
      <trkpt lat="55.57302" lon="26.41211">
        <ele>161.559466</ele>
        <time>2020-10-07T05:17:41.583Z</time>
      </trkpt>
      <trkpt lat="55.57234" lon="26.41218">
        <ele>162.405104</ele>
        <time>2020-10-07T05:18:00.153Z</time>
      </trkpt>
      <trkpt lat="55.5701" lon="26.41236">
        <ele>165.629509</ele>
        <time>2020-10-07T05:19:01.619Z</time>
      </trkpt>
      <trkpt lat="55.56699" lon="26.41255">
        <ele>172.901909</ele>
        <time>2020-10-07T05:20:41.675Z</time>
      </trkpt>
      <trkpt lat="55.5668" lon="26.41253">
        <ele>173.358108</ele>
        <time>2020-10-07T05:20:48.118Z</time>
      </trkpt>
      <trkpt lat="55.56659" lon="26.41251">
        <ele>173.896439</ele>
        <time>2020-10-07T05:20:55.026Z</time>
      </trkpt>
      <trkpt lat="55.56639" lon="26.41248">
        <ele>174.38115</ele>
        <time>2020-10-07T05:21:01.523Z</time>
      </trkpt>
      <trkpt lat="55.56603" lon="26.4124">
        <ele>175.128863</ele>
        <time>2020-10-07T05:21:13.041Z</time>
      </trkpt>
      <trkpt lat="55.56517" lon="26.41211">
        <ele>176.210173</ele>
        <time>2020-10-07T05:21:38.909Z</time>
      </trkpt>
      <trkpt lat="55.56326" lon="26.41126">
        <ele>177.145453</ele>
        <time>2020-10-07T05:22:24.683Z</time>
      </trkpt>
      <trkpt lat="55.56311" lon="26.4112">
        <ele>177.138575</ele>
        <time>2020-10-07T05:22:27.878Z</time>
      </trkpt>
      <trkpt lat="55.56284" lon="26.4111">
        <ele>177.125947</ele>
        <time>2020-10-07T05:22:33.640Z</time>
      </trkpt>
      <trkpt lat="55.56207" lon="26.41103">
        <ele>176.623434</ele>
        <time>2020-10-07T05:22:49.129Z</time>
      </trkpt>
      <trkpt lat="55.56009" lon="26.41118">
        <ele>175.120779</ele>
        <time>2020-10-07T05:23:27.448Z</time>
      </trkpt>
      <trkpt lat="55.55947" lon="26.41117">
        <ele>174.755319</ele>
        <time>2020-10-07T05:23:39.993Z</time>
      </trkpt>
      <trkpt lat="55.55881" lon="26.4111">
        <ele>174.688776</ele>
        <time>2020-10-07T05:23:54.111Z</time>
      </trkpt>
      <trkpt lat="55.55661" lon="26.41092">
        <ele>176.630332</ele>
        <time>2020-10-07T05:24:52.012Z</time>
      </trkpt>
      <trkpt lat="55.55648" lon="26.41094">
        <ele>176.793325</ele>
        <time>2020-10-07T05:24:56.256Z</time>
      </trkpt>
      <trkpt lat="55.55634" lon="26.41097">
        <ele>176.953914</ele>
        <time>2020-10-07T05:25:00.009Z</time>
      </trkpt>
      <trkpt lat="55.55617" lon="26.411">
        <ele>177.158745</ele>
        <time>2020-10-07T05:25:04.913Z</time>
      </trkpt>
      <trkpt lat="55.55602" lon="26.41107">
        <ele>177.342181</ele>
        <time>2020-10-07T05:25:09.312Z</time>
      </trkpt>
      <trkpt lat="55.55559" lon="26.41127">
        <ele>177.860924</ele>
        <time>2020-10-07T05:25:21.200Z</time>
      </trkpt>
      <trkpt lat="55.5551" lon="26.41153">
        <ele>177.893183</ele>
        <time>2020-10-07T05:25:34.630Z</time>
      </trkpt>
      <trkpt lat="55.55461" lon="26.41191">
        <ele>177.758009</ele>
        <time>2020-10-07T05:25:47.089Z</time>
      </trkpt>
      <trkpt lat="55.55336" lon="26.41317">
        <ele>176.275748</ele>
        <time>2020-10-07T05:26:14.412Z</time>
      </trkpt>
      <trkpt lat="55.55252" lon="26.41385">
        <ele>174.237418</ele>
        <time>2020-10-07T05:26:30.213Z</time>
      </trkpt>
      <trkpt lat="55.551" lon="26.41507">
        <ele>169.393276</ele>
        <time>2020-10-07T05:26:57.438Z</time>
      </trkpt>
      <trkpt lat="55.55062" lon="26.41537">
        <ele>168.124717</ele>
        <time>2020-10-07T05:27:04.253Z</time>
      </trkpt>
      <trkpt lat="55.54962" lon="26.41622">
        <ele>165.619229</ele>
        <time>2020-10-07T05:27:22.789Z</time>
      </trkpt>
      <trkpt lat="55.54846" lon="26.41713">
        <ele>164.170286</ele>
        <time>2020-10-07T05:27:46.482Z</time>
      </trkpt>
      <trkpt lat="55.54694" lon="26.41832">
        <ele>165.077562</ele>
        <time>2020-10-07T05:28:29.705Z</time>
      </trkpt>
      <trkpt lat="55.54542" lon="26.41951">
        <ele>166.979833</ele>
        <time>2020-10-07T05:29:19.052Z</time>
      </trkpt>
      <trkpt lat="55.54519" lon="26.41963">
        <ele>166.859258</ele>
        <time>2020-10-07T05:29:24.762Z</time>
      </trkpt>
      <trkpt lat="55.54484" lon="26.41973">
        <ele>166.677444</ele>
        <time>2020-10-07T05:29:32.296Z</time>
      </trkpt>
      <trkpt lat="55.54452" lon="26.4198">
        <ele>166.50988</ele>
        <time>2020-10-07T05:29:38.519Z</time>
      </trkpt>
      <trkpt lat="55.54417" lon="26.41992">
        <ele>166.330351</ele>
        <time>2020-10-07T05:29:44.865Z</time>
      </trkpt>
      <trkpt lat="55.54366" lon="26.42027">
        <ele>165.428625</ele>
        <time>2020-10-07T05:29:54.291Z</time>
      </trkpt>
      <trkpt lat="55.54328" lon="26.42064">
        <ele>164.346468</ele>
        <time>2020-10-07T05:30:01.548Z</time>
      </trkpt>
      <trkpt lat="55.54292" lon="26.42114">
        <ele>163.207112</ele>
        <time>2020-10-07T05:30:09.126Z</time>
      </trkpt>
      <trkpt lat="55.54253" lon="26.42188">
        <ele>161.772363</ele>
        <time>2020-10-07T05:30:18.870Z</time>
      </trkpt>
      <trkpt lat="55.539" lon="26.42931">
        <ele>153.199404</ele>
        <time>2020-10-07T05:32:00.019Z</time>
      </trkpt>
      <trkpt lat="55.53839" lon="26.43024">
        <ele>151.701591</ele>
        <time>2020-10-07T05:32:13.788Z</time>
      </trkpt>
      <trkpt lat="55.53797" lon="26.4307">
        <ele>150.769826</ele>
        <time>2020-10-07T05:32:22.577Z</time>
      </trkpt>
      <trkpt lat="55.53764" lon="26.43091">
        <ele>150.11395</ele>
        <time>2020-10-07T05:32:28.856Z</time>
      </trkpt>
      <trkpt lat="55.53756" lon="26.43097">
        <ele>149.964327</ele>
        <time>2020-10-07T05:32:30.366Z</time>
      </trkpt>
      <trkpt lat="55.53718" lon="26.43112">
        <ele>149.721995</ele>
        <time>2020-10-07T05:32:37.706Z</time>
      </trkpt>
      <trkpt lat="55.53663" lon="26.43114">
        <ele>149.384751</ele>
        <time>2020-10-07T05:32:48.429Z</time>
      </trkpt>
      <trkpt lat="55.53403" lon="26.43029">
        <ele>148.833077</ele>
        <time>2020-10-07T05:33:48.121Z</time>
      </trkpt>
      <trkpt lat="55.5337" lon="26.43026">
        <ele>148.580489</ele>
        <time>2020-10-07T05:33:54.861Z</time>
      </trkpt>
      <trkpt lat="55.5333" lon="26.43038">
        <ele>148.26756</ele>
        <time>2020-10-07T05:34:02.995Z</time>
      </trkpt>
      <trkpt lat="55.53302" lon="26.43056">
        <ele>148.043423</ele>
        <time>2020-10-07T05:34:08.676Z</time>
      </trkpt>
      <trkpt lat="55.53266" lon="26.43096">
        <ele>147.719828</ele>
        <time>2020-10-07T05:34:16.785Z</time>
      </trkpt>
      <trkpt lat="55.53174" lon="26.43245">
        <ele>147.242571</ele>
        <time>2020-10-07T05:34:41.394Z</time>
      </trkpt>
      <trkpt lat="55.53069" lon="26.43394">
        <ele>147.61846</ele>
        <time>2020-10-07T05:35:12.962Z</time>
      </trkpt>
      <trkpt lat="55.52972" lon="26.43479">
        <ele>149.037907</ele>
        <time>2020-10-07T05:35:43.647Z</time>
      </trkpt>
      <trkpt lat="55.52881" lon="26.4354">
        <ele>150.814858</ele>
        <time>2020-10-07T05:36:14.365Z</time>
      </trkpt>
      <trkpt lat="55.52815" lon="26.43571">
        <ele>152.177492</ele>
        <time>2020-10-07T05:36:35.655Z</time>
      </trkpt>
      <trkpt lat="55.52732" lon="26.43612">
        <ele>153.216135</ele>
        <time>2020-10-07T05:37:00.323Z</time>
      </trkpt>
      <trkpt lat="55.52723" lon="26.43616">
        <ele>153.259275</ele>
        <time>2020-10-07T05:37:02.736Z</time>
      </trkpt>
      <trkpt lat="55.52554" lon="26.43686">
        <ele>153.689762</ele>
        <time>2020-10-07T05:37:41.410Z</time>
      </trkpt>
      <trkpt lat="55.52463" lon="26.43722">
        <ele>153.350896</ele>
        <time>2020-10-07T05:38:00.075Z</time>
      </trkpt>
      <trkpt lat="55.5235" lon="26.43845">
        <ele>152.986701</ele>
        <time>2020-10-07T05:38:28.435Z</time>
      </trkpt>
      <trkpt lat="55.52343" lon="26.43845">
        <ele>152.969403</ele>
        <time>2020-10-07T05:38:29.976Z</time>
      </trkpt>
      <trkpt lat="55.52336" lon="26.43869">
        <ele>152.933632</ele>
        <time>2020-10-07T05:38:33.354Z</time>
      </trkpt>
      <trkpt lat="55.52266" lon="26.44142">
        <ele>152.64194</ele>
        <time>2020-10-07T05:39:10.066Z</time>
      </trkpt>
      <trkpt lat="55.52242" lon="26.44256">
        <ele>152.548662</ele>
        <time>2020-10-07T05:39:25.142Z</time>
      </trkpt>
      <trkpt lat="55.5224" lon="26.44287">
        <ele>152.508744</ele>
        <time>2020-10-07T05:39:28.775Z</time>
      </trkpt>
      <trkpt lat="55.52227" lon="26.44279">
        <ele>152.474735</ele>
        <time>2020-10-07T05:39:31.951Z</time>
      </trkpt>
      <trkpt lat="55.52138" lon="26.44181">
        <ele>152.206074</ele>
        <time>2020-10-07T05:39:54.863Z</time>
      </trkpt>
      <trkpt lat="55.52113" lon="26.44146">
        <ele>152.125387</ele>
        <time>2020-10-07T05:40:01.383Z</time>
      </trkpt>
      <trkpt lat="55.52096" lon="26.44118">
        <ele>151.992705</ele>
        <time>2020-10-07T05:40:06.210Z</time>
      </trkpt>
      <trkpt lat="55.52057" lon="26.44038">
        <ele>151.215185</ele>
        <time>2020-10-07T05:40:17.848Z</time>
      </trkpt>
      <trkpt lat="55.52016" lon="26.43944">
        <ele>150.344567</ele>
        <time>2020-10-07T05:40:30.104Z</time>
      </trkpt>
      <trkpt lat="55.52005" lon="26.43919">
        <ele>150.11568</ele>
        <time>2020-10-07T05:40:33.308Z</time>
      </trkpt>
      <trkpt lat="55.51981" lon="26.43873">
        <ele>149.672291</ele>
        <time>2020-10-07T05:40:39.764Z</time>
      </trkpt>
      <trkpt lat="55.51972" lon="26.43857">
        <ele>149.540737</ele>
        <time>2020-10-07T05:40:42.043Z</time>
      </trkpt>
      <trkpt lat="55.51954" lon="26.4383">
        <ele>149.30132</ele>
        <time>2020-10-07T05:40:46.370Z</time>
      </trkpt>
      <trkpt lat="55.51942" lon="26.43814">
        <ele>149.148778</ele>
        <time>2020-10-07T05:40:49.055Z</time>
      </trkpt>
      <trkpt lat="55.5193" lon="26.438">
        <ele>148.996994</ele>
        <time>2020-10-07T05:40:51.811Z</time>
      </trkpt>
      <trkpt lat="55.51895" lon="26.43773">
        <ele>148.609246</ele>
        <time>2020-10-07T05:40:58.967Z</time>
      </trkpt>
      <trkpt lat="55.51737" lon="26.4368">
        <ele>147.93441</ele>
        <time>2020-10-07T05:41:34.330Z</time>
      </trkpt>
      <trkpt lat="55.51708" lon="26.43675">
        <ele>147.942196</ele>
        <time>2020-10-07T05:41:41.193Z</time>
      </trkpt>
      <trkpt lat="55.51696" lon="26.4367">
        <ele>147.945726</ele>
        <time>2020-10-07T05:41:43.938Z</time>
      </trkpt>
      <trkpt lat="55.51655" lon="26.43639">
        <ele>147.996303</ele>
        <time>2020-10-07T05:41:54.720Z</time>
      </trkpt>
      <trkpt lat="55.51623" lon="26.43582">
        <ele>148.381068</ele>
        <time>2020-10-07T05:42:05.877Z</time>
      </trkpt>
      <trkpt lat="55.51507" lon="26.43227">
        <ele>150.171468</ele>
        <time>2020-10-07T05:43:06.802Z</time>
      </trkpt>
      <trkpt lat="55.51411" lon="26.43031">
        <ele>150.334448</ele>
        <time>2020-10-07T05:43:41.091Z</time>
      </trkpt>
      <trkpt lat="55.5131" lon="26.4274">
        <ele>149.273345</ele>
        <time>2020-10-07T05:44:18.655Z</time>
      </trkpt>
      <trkpt lat="55.51256" lon="26.42608">
        <ele>148.739418</ele>
        <time>2020-10-07T05:44:37.739Z</time>
      </trkpt>
      <trkpt lat="55.51225" lon="26.42555">
        <ele>148.866324</ele>
        <time>2020-10-07T05:44:47.615Z</time>
      </trkpt>
      <trkpt lat="55.51143" lon="26.42439">
        <ele>149.307863</ele>
        <time>2020-10-07T05:45:13.482Z</time>
      </trkpt>
      <trkpt lat="55.51045" lon="26.42284">
        <ele>149.959461</ele>
        <time>2020-10-07T05:45:46.275Z</time>
      </trkpt>
      <trkpt lat="55.50946" lon="26.42113">
        <ele>150.535359</ele>
        <time>2020-10-07T05:46:19.267Z</time>
      </trkpt>
      <trkpt lat="55.50911" lon="26.42066">
        <ele>150.638837</ele>
        <time>2020-10-07T05:46:29.688Z</time>
      </trkpt>
      <trkpt lat="55.50853" lon="26.42012">
        <ele>150.789775</ele>
        <time>2020-10-07T05:46:44.783Z</time>
      </trkpt>
      <trkpt lat="55.50724" lon="26.4193">
        <ele>150.415034</ele>
        <time>2020-10-07T05:47:14.549Z</time>
      </trkpt>
      <trkpt lat="55.50486" lon="26.41887">
        <ele>148.787672</ele>
        <time>2020-10-07T05:48:01.786Z</time>
      </trkpt>
      <trkpt lat="55.50417" lon="26.41867">
        <ele>148.30102</ele>
        <time>2020-10-07T05:48:15.574Z</time>
      </trkpt>
      <trkpt lat="55.50319" lon="26.41831">
        <ele>147.60567</ele>
        <time>2020-10-07T05:48:35.748Z</time>
      </trkpt>
      <trkpt lat="55.50074" lon="26.4172">
        <ele>147.356357</ele>
        <time>2020-10-07T05:49:29.218Z</time>
      </trkpt>
      <trkpt lat="55.50065" lon="26.41711">
        <ele>147.435887</ele>
        <time>2020-10-07T05:49:31.704Z</time>
      </trkpt>
      <trkpt lat="55.50058" lon="26.41701">
        <ele>147.494246</ele>
        <time>2020-10-07T05:49:33.765Z</time>
      </trkpt>
      <trkpt lat="55.50026" lon="26.41614">
        <ele>147.915116</ele>
        <time>2020-10-07T05:49:49.035Z</time>
      </trkpt>
      <trkpt lat="55.49914" lon="26.41187">
        <ele>152.350971</ele>
        <time>2020-10-07T05:51:10.435Z</time>
      </trkpt>
      <trkpt lat="55.49861" lon="26.40986">
        <ele>153.896291</ele>
        <time>2020-10-07T05:51:43.674Z</time>
      </trkpt>
      <trkpt lat="55.49857" lon="26.40973">
        <ele>153.982803</ele>
        <time>2020-10-07T05:51:45.626Z</time>
      </trkpt>
      <trkpt lat="55.49851" lon="26.40967">
        <ele>153.997695</ele>
        <time>2020-10-07T05:51:47.459Z</time>
      </trkpt>
      <trkpt lat="55.49844" lon="26.40964">
        <ele>154.014907</ele>
        <time>2020-10-07T05:51:48.958Z</time>
      </trkpt>
      <trkpt lat="55.49836" lon="26.40965">
        <ele>154.034521</ele>
        <time>2020-10-07T05:51:50.968Z</time>
      </trkpt>
      <trkpt lat="55.49814" lon="26.40973">
        <ele>154.086328</ele>
        <time>2020-10-07T05:51:56.132Z</time>
      </trkpt>
      <trkpt lat="55.49777" lon="26.40993">
        <ele>154.176886</ele>
        <time>2020-10-07T05:52:04.797Z</time>
      </trkpt>
      <trkpt lat="55.49734" lon="26.41009">
        <ele>154.277742</ele>
        <time>2020-10-07T05:52:14.415Z</time>
      </trkpt>
      <trkpt lat="55.49716" lon="26.41013">
        <ele>154.321943</ele>
        <time>2020-10-07T05:52:18.548Z</time>
      </trkpt>
      <trkpt lat="55.4966" lon="26.41007">
        <ele>154.535943</ele>
        <time>2020-10-07T05:52:31.491Z</time>
      </trkpt>
      <trkpt lat="55.4962" lon="26.41013">
        <ele>154.772197</ele>
        <time>2020-10-07T05:52:41.522Z</time>
      </trkpt>
      <trkpt lat="55.49541" lon="26.41059">
        <ele>155.260726</ele>
        <time>2020-10-07T05:53:02.119Z</time>
      </trkpt>
      <trkpt lat="55.49522" lon="26.41079">
        <ele>155.394296</ele>
        <time>2020-10-07T05:53:08.123Z</time>
      </trkpt>
      <trkpt lat="55.49493" lon="26.41111">
        <ele>155.590745</ele>
        <time>2020-10-07T05:53:16.691Z</time>
      </trkpt>
      <trkpt lat="55.49439" lon="26.4117">
        <ele>155.954634</ele>
        <time>2020-10-07T05:53:32.459Z</time>
      </trkpt>
      <trkpt lat="55.49339" lon="26.41268">
        <ele>156.583987</ele>
        <time>2020-10-07T05:53:59.989Z</time>
      </trkpt>
      <trkpt lat="55.49152" lon="26.41403">
        <ele>157.236049</ele>
        <time>2020-10-07T05:54:49.075Z</time>
      </trkpt>
      <trkpt lat="55.48886" lon="26.41626">
        <ele>156.279053</ele>
        <time>2020-10-07T05:55:49.885Z</time>
      </trkpt>
      <trkpt lat="55.48597" lon="26.41878">
        <ele>155.322657</ele>
        <time>2020-10-07T05:56:58.972Z</time>
      </trkpt>
      <trkpt lat="55.48529" lon="26.41952">
        <ele>154.976187</ele>
        <time>2020-10-07T05:57:15.292Z</time>
      </trkpt>
      <trkpt lat="55.4845" lon="26.42002">
        <ele>154.45749</ele>
        <time>2020-10-07T05:57:32.028Z</time>
      </trkpt>
      <trkpt lat="55.48399" lon="26.42038">
        <ele>154.114275</ele>
        <time>2020-10-07T05:57:43.076Z</time>
      </trkpt>
      <trkpt lat="55.48355" lon="26.4207">
        <ele>153.872404</ele>
        <time>2020-10-07T05:57:52.791Z</time>
      </trkpt>
      <trkpt lat="55.47894" lon="26.42426">
        <ele>151.990578</ele>
        <time>2020-10-07T05:59:38.193Z</time>
      </trkpt>
      <trkpt lat="55.47881" lon="26.42436">
        <ele>152.039816</ele>
        <time>2020-10-07T05:59:40.848Z</time>
      </trkpt>
      <trkpt lat="55.47782" lon="26.42524">
        <ele>153.613134</ele>
        <time>2020-10-07T06:00:08.858Z</time>
      </trkpt>
      <trkpt lat="55.4774" lon="26.4257">
        <ele>154.309676</ele>
        <time>2020-10-07T06:00:25.523Z</time>
      </trkpt>
      <trkpt lat="55.47739" lon="26.42571">
        <ele>154.324766</ele>
        <time>2020-10-07T06:00:26.662Z</time>
      </trkpt>
      <trkpt lat="55.47698" lon="26.42612">
        <ele>155.429321</ele>
        <time>2020-10-07T06:00:42.325Z</time>
      </trkpt>
      <trkpt lat="55.47683" lon="26.4262">
        <ele>155.845825</ele>
        <time>2020-10-07T06:00:47.512Z</time>
      </trkpt>
      <trkpt lat="55.47669" lon="26.42625">
        <ele>156.227372</ele>
        <time>2020-10-07T06:00:53.428Z</time>
      </trkpt>
      <trkpt lat="55.47654" lon="26.42627">
        <ele>156.647595</ele>
        <time>2020-10-07T06:00:57.831Z</time>
      </trkpt>
      <trkpt lat="55.47645" lon="26.42626">
        <ele>156.888522</ele>
        <time>2020-10-07T06:01:01.331Z</time>
      </trkpt>
      <trkpt lat="55.47637" lon="26.42625">
        <ele>157.102391</ele>
        <time>2020-10-07T06:01:05.165Z</time>
      </trkpt>
      <trkpt lat="55.47437" lon="26.42599">
        <ele>160.825295</ele>
        <time>2020-10-07T06:02:05.664Z</time>
      </trkpt>
      <trkpt lat="55.47389" lon="26.42607">
        <ele>161.422885</ele>
        <time>2020-10-07T06:02:16.446Z</time>
      </trkpt>
      <trkpt lat="55.47266" lon="26.42748">
        <ele>161.537125</ele>
        <time>2020-10-07T06:02:48.259Z</time>
      </trkpt>
      <trkpt lat="55.47111" lon="26.42834">
        <ele>161.811665</ele>
        <time>2020-10-07T06:03:24.508Z</time>
      </trkpt>
      <trkpt lat="55.47062" lon="26.42869">
        <ele>161.953637</ele>
        <time>2020-10-07T06:03:37.924Z</time>
      </trkpt>
      <trkpt lat="55.47025" lon="26.42882">
        <ele>162.148356</ele>
        <time>2020-10-07T06:03:47.311Z</time>
      </trkpt>
      <trkpt lat="55.47011" lon="26.42884">
        <ele>162.242145</ele>
        <time>2020-10-07T06:03:50.759Z</time>
      </trkpt>
      <trkpt lat="55.46997" lon="26.42883">
        <ele>162.335258</ele>
        <time>2020-10-07T06:03:54.591Z</time>
      </trkpt>
      <trkpt lat="55.46966" lon="26.42875">
        <ele>162.544906</ele>
        <time>2020-10-07T06:04:02.584Z</time>
      </trkpt>
      <trkpt lat="55.46952" lon="26.42872">
        <ele>162.635579</ele>
        <time>2020-10-07T06:04:06.234Z</time>
      </trkpt>
      <trkpt lat="55.46924" lon="26.42865">
        <ele>162.821548</ele>
        <time>2020-10-07T06:04:13.258Z</time>
      </trkpt>
      <trkpt lat="55.46871" lon="26.42835">
        <ele>163.173098</ele>
        <time>2020-10-07T06:04:26.730Z</time>
      </trkpt>
      <trkpt lat="55.4685" lon="26.42817">
        <ele>163.157589</ele>
        <time>2020-10-07T06:04:32.626Z</time>
      </trkpt>
      <trkpt lat="55.46827" lon="26.42794">
        <ele>163.140283</ele>
        <time>2020-10-07T06:04:38.497Z</time>
      </trkpt>
      <trkpt lat="55.46642" lon="26.42573">
        <ele>163.046392</ele>
        <time>2020-10-07T06:05:26.074Z</time>
      </trkpt>
      <trkpt lat="55.46518" lon="26.42478">
        <ele>162.764319</ele>
        <time>2020-10-07T06:05:57.901Z</time>
      </trkpt>
      <trkpt lat="55.46465" lon="26.42427">
        <ele>162.444443</ele>
        <time>2020-10-07T06:06:11.197Z</time>
      </trkpt>
      <trkpt lat="55.46306" lon="26.42148">
        <ele>159.345672</ele>
        <time>2020-10-07T06:06:52.176Z</time>
      </trkpt>
      <trkpt lat="55.46262" lon="26.42096">
        <ele>158.295757</ele>
        <time>2020-10-07T06:07:01.058Z</time>
      </trkpt>
      <trkpt lat="55.46031" lon="26.41884">
        <ele>153.114388</ele>
        <time>2020-10-07T06:07:46.251Z</time>
      </trkpt>
      <trkpt lat="55.45871" lon="26.41769">
        <ele>151.490852</ele>
        <time>2020-10-07T06:08:20.454Z</time>
      </trkpt>
      <trkpt lat="55.45826" lon="26.41728">
        <ele>151.268634</ele>
        <time>2020-10-07T06:08:31.929Z</time>
      </trkpt>
      <trkpt lat="55.45807" lon="26.41702">
        <ele>151.161885</ele>
        <time>2020-10-07T06:08:37.062Z</time>
      </trkpt>
      <trkpt lat="55.45791" lon="26.41673">
        <ele>151.064006</ele>
        <time>2020-10-07T06:08:42.469Z</time>
      </trkpt>
      <trkpt lat="55.45755" lon="26.41581">
        <ele>150.788619</ele>
        <time>2020-10-07T06:08:56.476Z</time>
      </trkpt>
      <trkpt lat="55.4571" lon="26.41443">
        <ele>150.402072</ele>
        <time>2020-10-07T06:09:14.450Z</time>
      </trkpt>
      <trkpt lat="55.45703" lon="26.41389">
        <ele>150.285254</ele>
        <time>2020-10-07T06:09:20.556Z</time>
      </trkpt>
      <trkpt lat="55.45701" lon="26.41269">
        <ele>150.036454</ele>
        <time>2020-10-07T06:09:34.236Z</time>
      </trkpt>
      <trkpt lat="55.45699" lon="26.41251">
        <ele>149.999184</ele>
        <time>2020-10-07T06:09:36.048Z</time>
      </trkpt>
      <trkpt lat="55.45694" lon="26.41215">
        <ele>149.923463</ele>
        <time>2020-10-07T06:09:40.954Z</time>
      </trkpt>
      <trkpt lat="55.4568" lon="26.41157">
        <ele>149.794096</ele>
        <time>2020-10-07T06:09:48.832Z</time>
      </trkpt>
      <trkpt lat="55.45655" lon="26.41111">
        <ele>149.880884</ele>
        <time>2020-10-07T06:09:57.406Z</time>
      </trkpt>
      <trkpt lat="55.45551" lon="26.41031">
        <ele>150.959956</ele>
        <time>2020-10-07T06:10:27.783Z</time>
      </trkpt>
      <trkpt lat="55.45532" lon="26.41">
        <ele>151.204657</ele>
        <time>2020-10-07T06:10:35.285Z</time>
      </trkpt>
      <trkpt lat="55.45431" lon="26.40688">
        <ele>152.717615</ele>
        <time>2020-10-07T06:11:27.433Z</time>
      </trkpt>
      <trkpt lat="55.45409" lon="26.40636">
        <ele>152.567585</ele>
        <time>2020-10-07T06:11:35.224Z</time>
      </trkpt>
      <trkpt lat="55.45245" lon="26.40409">
        <ele>152.32482</ele>
        <time>2020-10-07T06:12:17.319Z</time>
      </trkpt>
      <trkpt lat="55.45148" lon="26.40287">
        <ele>153.034048</ele>
        <time>2020-10-07T06:12:48.785Z</time>
      </trkpt>
      <trkpt lat="55.45051" lon="26.40178">
        <ele>155.11308</ele>
        <time>2020-10-07T06:13:24.122Z</time>
      </trkpt>
      <trkpt lat="55.45" lon="26.40125">
        <ele>156.172744</ele>
        <time>2020-10-07T06:13:41.627Z</time>
      </trkpt>
      <trkpt lat="55.44973" lon="26.40093">
        <ele>156.577667</ele>
        <time>2020-10-07T06:13:51.016Z</time>
      </trkpt>
      <trkpt lat="55.44931" lon="26.40068">
        <ele>157.097527</ele>
        <time>2020-10-07T06:14:02.823Z</time>
      </trkpt>
      <trkpt lat="55.44814" lon="26.4003">
        <ele>158.584207</ele>
        <time>2020-10-07T06:14:33.422Z</time>
      </trkpt>
      <trkpt lat="55.44588" lon="26.3999">
        <ele>162.690278</ele>
        <time>2020-10-07T06:15:40.802Z</time>
      </trkpt>
      <trkpt lat="55.44447" lon="26.39954">
        <ele>165.634467</ele>
        <time>2020-10-07T06:16:25.510Z</time>
      </trkpt>
      <trkpt lat="55.44423" lon="26.39954">
        <ele>166.067522</ele>
        <time>2020-10-07T06:16:33.082Z</time>
      </trkpt>
      <trkpt lat="55.44394" lon="26.39957">
        <ele>166.581939</ele>
        <time>2020-10-07T06:16:41.892Z</time>
      </trkpt>
      <trkpt lat="55.44323" lon="26.39965">
        <ele>167.860002</ele>
        <time>2020-10-07T06:17:02.684Z</time>
      </trkpt>
      <trkpt lat="55.44313" lon="26.39963">
        <ele>168.029877</ele>
        <time>2020-10-07T06:17:05.266Z</time>
      </trkpt>
      <trkpt lat="55.44307" lon="26.39961">
        <ele>168.150966</ele>
        <time>2020-10-07T06:17:07.033Z</time>
      </trkpt>
      <trkpt lat="55.443" lon="26.39959">
        <ele>168.264859</ele>
        <time>2020-10-07T06:17:08.963Z</time>
      </trkpt>
      <trkpt lat="55.44238" lon="26.39934">
        <ele>168.922378</ele>
        <time>2020-10-07T06:17:25.802Z</time>
      </trkpt>
      <trkpt lat="55.44164" lon="26.39902">
        <ele>169.623372</ele>
        <time>2020-10-07T06:17:45.990Z</time>
      </trkpt>
      <trkpt lat="55.43972" lon="26.39817">
        <ele>169.82042</ele>
        <time>2020-10-07T06:18:33.355Z</time>
      </trkpt>
      <trkpt lat="55.43956" lon="26.39808">
        <ele>169.793895</ele>
        <time>2020-10-07T06:18:36.748Z</time>
      </trkpt>
      <trkpt lat="55.43697" lon="26.39689">
        <ele>162.942782</ele>
        <time>2020-10-07T06:19:21.293Z</time>
      </trkpt>
      <trkpt lat="55.43643" lon="26.39664">
        <ele>161.247352</ele>
        <time>2020-10-07T06:19:30.441Z</time>
      </trkpt>
      <trkpt lat="55.43633" lon="26.39663">
        <ele>160.933782</ele>
        <time>2020-10-07T06:19:32.150Z</time>
      </trkpt>
      <trkpt lat="55.43622" lon="26.39666">
        <ele>160.610529</ele>
        <time>2020-10-07T06:19:33.816Z</time>
      </trkpt>
      <trkpt lat="55.436" lon="26.39689">
        <ele>159.844832</ele>
        <time>2020-10-07T06:19:38.098Z</time>
      </trkpt>
      <trkpt lat="55.43509" lon="26.39841">
        <ele>156.68977</ele>
        <time>2020-10-07T06:19:59.013Z</time>
      </trkpt>
      <trkpt lat="55.43473" lon="26.39879">
        <ele>155.644492</ele>
        <time>2020-10-07T06:20:06.353Z</time>
      </trkpt>
      <trkpt lat="55.43134" lon="26.4">
        <ele>150.657983</ele>
        <time>2020-10-07T06:21:10.015Z</time>
      </trkpt>
      <trkpt lat="55.42797" lon="26.40142">
        <ele>149.429405</ele>
        <time>2020-10-07T06:22:25.459Z</time>
      </trkpt>
      <trkpt lat="55.42775" lon="26.40149">
        <ele>149.342223</ele>
        <time>2020-10-07T06:22:29.949Z</time>
      </trkpt>
      <trkpt lat="55.42739" lon="26.40161">
        <ele>149.011582</ele>
        <time>2020-10-07T06:22:37.011Z</time>
      </trkpt>
      <trkpt lat="55.4268" lon="26.40169">
        <ele>148.152604</ele>
        <time>2020-10-07T06:22:47.832Z</time>
      </trkpt>
      <trkpt lat="55.42628" lon="26.40163">
        <ele>147.380281</ele>
        <time>2020-10-07T06:22:57.223Z</time>
      </trkpt>
      <trkpt lat="55.42452" lon="26.40079">
        <ele>145.264881</ele>
        <time>2020-10-07T06:23:30.520Z</time>
      </trkpt>
      <trkpt lat="55.42428" lon="26.40061">
        <ele>144.989195</ele>
        <time>2020-10-07T06:23:35.943Z</time>
      </trkpt>
      <trkpt lat="55.42414" lon="26.40048">
        <ele>144.822871</ele>
        <time>2020-10-07T06:23:39.710Z</time>
      </trkpt>
      <trkpt lat="55.42384" lon="26.40018">
        <ele>145.145844</ele>
        <time>2020-10-07T06:23:47.601Z</time>
      </trkpt>
      <trkpt lat="55.42357" lon="26.39969">
        <ele>145.721334</ele>
        <time>2020-10-07T06:23:57.527Z</time>
      </trkpt>
      <trkpt lat="55.42252" lon="26.39685">
        <ele>149.343945</ele>
        <time>2020-10-07T06:24:57.077Z</time>
      </trkpt>
      <trkpt lat="55.42231" lon="26.39618">
        <ele>150.434573</ele>
        <time>2020-10-07T06:25:11.739Z</time>
      </trkpt>
      <trkpt lat="55.42208" lon="26.39549">
        <ele>151.555983</ele>
        <time>2020-10-07T06:25:26.946Z</time>
      </trkpt>
      <trkpt lat="55.42141" lon="26.39339">
        <ele>154.555194</ele>
        <time>2020-10-07T06:26:11.621Z</time>
      </trkpt>
      <trkpt lat="55.41909" lon="26.38912">
        <ele>158.294107</ele>
        <time>2020-10-07T06:27:43.130Z</time>
      </trkpt>
      <trkpt lat="55.41856" lon="26.38788">
        <ele>158.27544</ele>
        <time>2020-10-07T06:28:01.745Z</time>
      </trkpt>
      <trkpt lat="55.4177" lon="26.38559">
        <ele>154.163309</ele>
        <time>2020-10-07T06:28:27.168Z</time>
      </trkpt>
      <trkpt lat="55.41764" lon="26.38547">
        <ele>153.920525</ele>
        <time>2020-10-07T06:28:28.713Z</time>
      </trkpt>
      <trkpt lat="55.41757" lon="26.38537">
        <ele>153.735113</ele>
        <time>2020-10-07T06:28:29.955Z</time>
      </trkpt>
      <trkpt lat="55.41737" lon="26.38512">
        <ele>153.595723</ele>
        <time>2020-10-07T06:28:35.171Z</time>
      </trkpt>
      <trkpt lat="55.41725" lon="26.385">
        <ele>153.511765</ele>
        <time>2020-10-07T06:28:37.416Z</time>
      </trkpt>
      <trkpt lat="55.41691" lon="26.38472">
        <ele>153.297827</ele>
        <time>2020-10-07T06:28:44.742Z</time>
      </trkpt>
      <trkpt lat="55.4167" lon="26.38454">
        <ele>153.161526</ele>
        <time>2020-10-07T06:28:50.701Z</time>
      </trkpt>
      <trkpt lat="55.41565" lon="26.38373">
        <ele>153.089226</ele>
        <time>2020-10-07T06:29:18.157Z</time>
      </trkpt>
      <trkpt lat="55.41392" lon="26.38238">
        <ele>154.492808</ele>
        <time>2020-10-07T06:30:10.343Z</time>
      </trkpt>
      <trkpt lat="55.41311" lon="26.38178">
        <ele>154.285899</ele>
        <time>2020-10-07T06:30:28.501Z</time>
      </trkpt>
      <trkpt lat="55.41222" lon="26.38125">
        <ele>153.259872</ele>
        <time>2020-10-07T06:30:46.055Z</time>
      </trkpt>
      <trkpt lat="55.41156" lon="26.38094">
        <ele>151.915153</ele>
        <time>2020-10-07T06:30:58.134Z</time>
      </trkpt>
      <trkpt lat="55.41023" lon="26.38035">
        <ele>149.229816</ele>
        <time>2020-10-07T06:31:21.499Z</time>
      </trkpt>
      <trkpt lat="55.40949" lon="26.37989">
        <ele>147.71054</ele>
        <time>2020-10-07T06:31:35.138Z</time>
      </trkpt>
      <trkpt lat="55.40889" lon="26.37928">
        <ele>147.405708</ele>
        <time>2020-10-07T06:31:48.838Z</time>
      </trkpt>
      <trkpt lat="55.40858" lon="26.37871">
        <ele>147.681987</ele>
        <time>2020-10-07T06:31:59.162Z</time>
      </trkpt>
      <trkpt lat="55.40845" lon="26.37822">
        <ele>147.872686</ele>
        <time>2020-10-07T06:32:07.045Z</time>
      </trkpt>
      <trkpt lat="55.40831" lon="26.37744">
        <ele>148.160939</ele>
        <time>2020-10-07T06:32:20.111Z</time>
      </trkpt>
      <trkpt lat="55.4078" lon="26.37417">
        <ele>153.138697</ele>
        <time>2020-10-07T06:33:24.358Z</time>
      </trkpt>
      <trkpt lat="55.40735" lon="26.37125">
        <ele>159.282682</ele>
        <time>2020-10-07T06:34:28.056Z</time>
      </trkpt>
      <trkpt lat="55.40651" lon="26.36579">
        <ele>170.556366</ele>
        <time>2020-10-07T06:36:26.242Z</time>
      </trkpt>
      <trkpt lat="55.40627" lon="26.36458">
        <ele>172.663907</ele>
        <time>2020-10-07T06:36:50.892Z</time>
      </trkpt>
      <trkpt lat="55.40606" lon="26.36391">
        <ele>173.457558</ele>
        <time>2020-10-07T06:37:04.543Z</time>
      </trkpt>
      <trkpt lat="55.40582" lon="26.36338">
        <ele>174.177154</ele>
        <time>2020-10-07T06:37:16.386Z</time>
      </trkpt>
      <trkpt lat="55.40555" lon="26.36308">
        <ele>174.760523</ele>
        <time>2020-10-07T06:37:25.549Z</time>
      </trkpt>
      <trkpt lat="55.40535" lon="26.3629">
        <ele>175.174533</ele>
        <time>2020-10-07T06:37:31.702Z</time>
      </trkpt>
      <trkpt lat="55.40474" lon="26.36244">
        <ele>175.412897</ele>
        <time>2020-10-07T06:37:47.784Z</time>
      </trkpt>
      <trkpt lat="55.40431" lon="26.36202">
        <ele>175.234703</ele>
        <time>2020-10-07T06:37:58.514Z</time>
      </trkpt>
      <trkpt lat="55.40365" lon="26.36134">
        <ele>174.957729</ele>
        <time>2020-10-07T06:38:13.389Z</time>
      </trkpt>
      <trkpt lat="55.40263" lon="26.36047">
        <ele>174.056963</ele>
        <time>2020-10-07T06:38:34.452Z</time>
      </trkpt>
      <trkpt lat="55.39925" lon="26.35789">
        <ele>173.737472</ele>
        <time>2020-10-07T06:39:53.383Z</time>
      </trkpt>
      <trkpt lat="55.39548" lon="26.35482">
        <ele>181.330992</ele>
        <time>2020-10-07T06:42:01.578Z</time>
      </trkpt>
      <trkpt lat="55.39449" lon="26.3539">
        <ele>181.726701</ele>
        <time>2020-10-07T06:42:30.289Z</time>
      </trkpt>
      <trkpt lat="55.39448" lon="26.35388">
        <ele>181.729813</ele>
        <time>2020-10-07T06:42:31.065Z</time>
      </trkpt>
      <trkpt lat="55.39444" lon="26.35385">
        <ele>181.736037</ele>
        <time>2020-10-07T06:42:31.978Z</time>
      </trkpt>
      <trkpt lat="55.39423" lon="26.35361">
        <ele>181.776424</ele>
        <time>2020-10-07T06:42:37.063Z</time>
      </trkpt>
      <trkpt lat="55.39333" lon="26.35215">
        <ele>180.663885</ele>
        <time>2020-10-07T06:42:59.887Z</time>
      </trkpt>
      <trkpt lat="55.39311" lon="26.35171">
        <ele>180.112725</ele>
        <time>2020-10-07T06:43:05.695Z</time>
      </trkpt>
      <trkpt lat="55.39297" lon="26.3513">
        <ele>179.663286</ele>
        <time>2020-10-07T06:43:10.501Z</time>
      </trkpt>
      <trkpt lat="55.39285" lon="26.3507">
        <ele>179.079826</ele>
        <time>2020-10-07T06:43:16.813Z</time>
      </trkpt>
      <trkpt lat="55.39244" lon="26.34709">
        <ele>176.600393</ele>
        <time>2020-10-07T06:43:56.343Z</time>
      </trkpt>
      <trkpt lat="55.39231" lon="26.34623">
        <ele>176.438937</ele>
        <time>2020-10-07T06:44:07.066Z</time>
      </trkpt>
      <trkpt lat="55.39195" lon="26.34465">
        <ele>176.127366</ele>
        <time>2020-10-07T06:44:28.553Z</time>
      </trkpt>
      <trkpt lat="55.39183" lon="26.34343">
        <ele>175.79734</ele>
        <time>2020-10-07T06:44:43.983Z</time>
      </trkpt>
      <trkpt lat="55.39176" lon="26.34271">
        <ele>175.585351</ele>
        <time>2020-10-07T06:44:52.833Z</time>
      </trkpt>
      <trkpt lat="55.39174" lon="26.34254">
        <ele>175.536132</ele>
        <time>2020-10-07T06:44:54.877Z</time>
      </trkpt>
      <trkpt lat="55.39167" lon="26.34211">
        <ele>175.408163</ele>
        <time>2020-10-07T06:44:59.933Z</time>
      </trkpt>
      <trkpt lat="55.39133" lon="26.3401">
        <ele>174.464808</ele>
        <time>2020-10-07T06:45:22.816Z</time>
      </trkpt>
      <trkpt lat="55.39114" lon="26.33881">
        <ele>173.729679</ele>
        <time>2020-10-07T06:45:37.382Z</time>
      </trkpt>
      <trkpt lat="55.3909" lon="26.33728">
        <ele>173.582028</ele>
        <time>2020-10-07T06:45:55.240Z</time>
      </trkpt>
      <trkpt lat="55.3904" lon="26.33413">
        <ele>175.014181</ele>
        <time>2020-10-07T06:46:42.867Z</time>
      </trkpt>
      <trkpt lat="55.39029" lon="26.33346">
        <ele>175.698871</ele>
        <time>2020-10-07T06:46:55.346Z</time>
      </trkpt>
      <trkpt lat="55.39024" lon="26.33314">
        <ele>176.013584</ele>
        <time>2020-10-07T06:47:01.348Z</time>
      </trkpt>
      <trkpt lat="55.39011" lon="26.33232">
        <ele>176.85095</ele>
        <time>2020-10-07T06:47:16.146Z</time>
      </trkpt>
      <trkpt lat="55.39006" lon="26.33204">
        <ele>177.089734</ele>
        <time>2020-10-07T06:47:21.657Z</time>
      </trkpt>
      <trkpt lat="55.39003" lon="26.33192">
        <ele>177.180232</ele>
        <time>2020-10-07T06:47:23.825Z</time>
      </trkpt>
      <trkpt lat="55.38999" lon="26.33181">
        <ele>177.277164</ele>
        <time>2020-10-07T06:47:26.027Z</time>
      </trkpt>
      <trkpt lat="55.38993" lon="26.33169">
        <ele>177.38449</ele>
        <time>2020-10-07T06:47:28.626Z</time>
      </trkpt>
      <trkpt lat="55.38985" lon="26.33152">
        <ele>177.548131</ele>
        <time>2020-10-07T06:47:33.087Z</time>
      </trkpt>
      <trkpt lat="55.38964" lon="26.33125">
        <ele>177.867059</ele>
        <time>2020-10-07T06:47:40.614Z</time>
      </trkpt>
      <trkpt lat="55.38951" lon="26.33113">
        <ele>178.051682</ele>
        <time>2020-10-07T06:47:45.187Z</time>
      </trkpt>
      <trkpt lat="55.38937" lon="26.33106">
        <ele>178.230042</ele>
        <time>2020-10-07T06:47:48.960Z</time>
      </trkpt>
      <trkpt lat="55.38921" lon="26.33101">
        <ele>178.429194</ele>
        <time>2020-10-07T06:47:53.649Z</time>
      </trkpt>
      <trkpt lat="55.38875" lon="26.3309">
        <ele>178.999898</ele>
        <time>2020-10-07T06:48:05.250Z</time>
      </trkpt>
      <trkpt lat="55.38822" lon="26.33077">
        <ele>178.765324</ele>
        <time>2020-10-07T06:48:16.310Z</time>
      </trkpt>
      <trkpt lat="55.3875" lon="26.3305">
        <ele>177.860385</ele>
        <time>2020-10-07T06:48:30.155Z</time>
      </trkpt>
      <trkpt lat="55.38729" lon="26.33038">
        <ele>177.598064</ele>
        <time>2020-10-07T06:48:34.054Z</time>
      </trkpt>
      <trkpt lat="55.38715" lon="26.3303">
        <ele>177.408048</ele>
        <time>2020-10-07T06:48:36.820Z</time>
      </trkpt>
      <trkpt lat="55.38683" lon="26.3301">
        <ele>176.976573</ele>
        <time>2020-10-07T06:48:42.857Z</time>
      </trkpt>
      <trkpt lat="55.38366" lon="26.32856">
        <ele>170.401866</ele>
        <time>2020-10-07T06:49:39.708Z</time>
      </trkpt>
      <trkpt lat="55.3834" lon="26.32829">
        <ele>169.867142</ele>
        <time>2020-10-07T06:49:45.779Z</time>
      </trkpt>
      <trkpt lat="55.38299" lon="26.32755">
        <ele>170.638552</ele>
        <time>2020-10-07T06:49:59.006Z</time>
      </trkpt>
      <trkpt lat="55.38078" lon="26.32282">
        <ele>178.34141</ele>
        <time>2020-10-07T06:51:47.496Z</time>
      </trkpt>
      <trkpt lat="55.38047" lon="26.32219">
        <ele>180.334745</ele>
        <time>2020-10-07T06:52:05.866Z</time>
      </trkpt>
      <trkpt lat="55.37961" lon="26.32027">
        <ele>186.915096</ele>
        <time>2020-10-07T06:53:07.640Z</time>
      </trkpt>
      <trkpt lat="55.37942" lon="26.31975">
        <ele>188.860705</ele>
        <time>2020-10-07T06:53:24.637Z</time>
      </trkpt>
      <trkpt lat="55.37881" lon="26.3172">
        <ele>195.244578</ele>
        <time>2020-10-07T06:54:31.954Z</time>
      </trkpt>
      <trkpt lat="55.37867" lon="26.31685">
        <ele>195.750491</ele>
        <time>2020-10-07T06:54:40.375Z</time>
      </trkpt>
      <trkpt lat="55.37845" lon="26.31642">
        <ele>196.456102</ele>
        <time>2020-10-07T06:54:50.485Z</time>
      </trkpt>
      <trkpt lat="55.37763" lon="26.31517">
        <ele>195.290754</ele>
        <time>2020-10-07T06:55:10.417Z</time>
      </trkpt>
      <trkpt lat="55.37741" lon="26.31491">
        <ele>194.092289</ele>
        <time>2020-10-07T06:55:14.584Z</time>
      </trkpt>
      <trkpt lat="55.37665" lon="26.31408">
        <ele>190.047173</ele>
        <time>2020-10-07T06:55:27.675Z</time>
      </trkpt>
      <trkpt lat="55.37631" lon="26.31365">
        <ele>187.78341</ele>
        <time>2020-10-07T06:55:33.663Z</time>
      </trkpt>
      <trkpt lat="55.37606" lon="26.31319">
        <ele>185.689786</ele>
        <time>2020-10-07T06:55:38.841Z</time>
      </trkpt>
      <trkpt lat="55.37597" lon="26.31299">
        <ele>184.861343</ele>
        <time>2020-10-07T06:55:40.885Z</time>
      </trkpt>
      <trkpt lat="55.37591" lon="26.31284">
        <ele>184.248412</ele>
        <time>2020-10-07T06:55:42.402Z</time>
      </trkpt>
      <trkpt lat="55.37578" lon="26.31241">
        <ele>182.651591</ele>
        <time>2020-10-07T06:55:46.519Z</time>
      </trkpt>
      <trkpt lat="55.3756" lon="26.31168">
        <ele>180.02257</ele>
        <time>2020-10-07T06:55:53.430Z</time>
      </trkpt>
      <trkpt lat="55.37522" lon="26.3102">
        <ele>177.101856</ele>
        <time>2020-10-07T06:56:08.218Z</time>
      </trkpt>
      <trkpt lat="55.37499" lon="26.30954">
        <ele>175.93392</ele>
        <time>2020-10-07T06:56:16.067Z</time>
      </trkpt>
      <trkpt lat="55.37359" lon="26.30666">
        <ele>172.112691</ele>
        <time>2020-10-07T06:56:55.425Z</time>
      </trkpt>
      <trkpt lat="55.37331" lon="26.30618">
        <ele>171.685846</ele>
        <time>2020-10-07T06:57:02.799Z</time>
      </trkpt>
      <trkpt lat="55.37265" lon="26.305">
        <ele>171.193419</ele>
        <time>2020-10-07T06:57:21.616Z</time>
      </trkpt>
      <trkpt lat="55.37254" lon="26.30473">
        <ele>171.092819</ele>
        <time>2020-10-07T06:57:25.622Z</time>
      </trkpt>
      <trkpt lat="55.37243" lon="26.30426">
        <ele>170.941112</ele>
        <time>2020-10-07T06:57:31.834Z</time>
      </trkpt>
      <trkpt lat="55.37218" lon="26.30108">
        <ele>171.264042</ele>
        <time>2020-10-07T06:58:14.666Z</time>
      </trkpt>
      <trkpt lat="55.3721" lon="26.30069">
        <ele>171.343186</ele>
        <time>2020-10-07T06:58:20.358Z</time>
      </trkpt>
      <trkpt lat="55.37108" lon="26.30064">
        <ele>172.066424</ele>
        <time>2020-10-07T06:58:44.974Z</time>
      </trkpt>
      <trkpt lat="55.36826" lon="26.30043">
        <ele>175.457892</ele>
        <time>2020-10-07T06:59:59.983Z</time>
      </trkpt>
      <trkpt lat="55.3676" lon="26.30037">
        <ele>177.203961</ele>
        <time>2020-10-07T07:00:22.665Z</time>
      </trkpt>
      <trkpt lat="55.36705" lon="26.30033">
        <ele>178.661149</ele>
        <time>2020-10-07T07:00:41.997Z</time>
      </trkpt>
      <trkpt lat="55.36668" lon="26.30026">
        <ele>179.584912</ele>
        <time>2020-10-07T07:00:55.340Z</time>
      </trkpt>
      <trkpt lat="55.36661" lon="26.30028">
        <ele>179.665474</ele>
        <time>2020-10-07T07:00:57.762Z</time>
      </trkpt>
      <trkpt lat="55.36654" lon="26.30032">
        <ele>179.758395</ele>
        <time>2020-10-07T07:01:00.186Z</time>
      </trkpt>
      <trkpt lat="55.36643" lon="26.30041">
        <ele>179.916242</ele>
        <time>2020-10-07T07:01:04.382Z</time>
      </trkpt>
      <trkpt lat="55.36613" lon="26.3008">
        <ele>180.381857</ele>
        <time>2020-10-07T07:01:15.925Z</time>
      </trkpt>
      <trkpt lat="55.36575" lon="26.30131">
        <ele>180.9786</ele>
        <time>2020-10-07T07:01:29.152Z</time>
      </trkpt>
      <trkpt lat="55.36546" lon="26.30175">
        <ele>181.468754</ele>
        <time>2020-10-07T07:01:38.603Z</time>
      </trkpt>
      <trkpt lat="55.36534" lon="26.30187">
        <ele>181.632437</ele>
        <time>2020-10-07T07:01:41.447Z</time>
      </trkpt>
      <trkpt lat="55.36522" lon="26.30177">
        <ele>181.72346</ele>
        <time>2020-10-07T07:01:43.985Z</time>
      </trkpt>
      <trkpt lat="55.36318" lon="26.29978">
        <ele>178.660489</ele>
        <time>2020-10-07T07:02:26.295Z</time>
      </trkpt>
      <trkpt lat="55.36287" lon="26.29949">
        <ele>178.339257</ele>
        <time>2020-10-07T07:02:33.189Z</time>
      </trkpt>
      <trkpt lat="55.36309" lon="26.29887">
        <ele>177.96348</ele>
        <time>2020-10-07T07:02:41.565Z</time>
      </trkpt>
      <trkpt lat="55.36326" lon="26.29842">
        <ele>177.683882</ele>
        <time>2020-10-07T07:02:47.989Z</time>
      </trkpt>
      <trkpt lat="55.36347" lon="26.29791">
        <ele>177.566808</ele>
        <time>2020-10-07T07:02:55.612Z</time>
      </trkpt>
      <trkpt lat="55.3649" lon="26.29509">
        <ele>178.051899</ele>
        <time>2020-10-07T07:03:45.233Z</time>
      </trkpt>
      <trkpt lat="55.36541" lon="26.29393">
        <ele>178.559751</ele>
        <time>2020-10-07T07:04:06.002Z</time>
      </trkpt>
      <trkpt lat="55.36575" lon="26.29296">
        <ele>179.053188</ele>
        <time>2020-10-07T07:04:22.917Z</time>
      </trkpt>
      <trkpt lat="55.36689" lon="26.28952">
        <ele>181.021762</ele>
        <time>2020-10-07T07:05:22.989Z</time>
      </trkpt>
      <trkpt lat="55.36719" lon="26.28856">
        <ele>181.351547</ele>
        <time>2020-10-07T07:05:37.800Z</time>
      </trkpt>
      <trkpt lat="55.36737" lon="26.28795">
        <ele>181.560773</ele>
        <time>2020-10-07T07:05:46.878Z</time>
      </trkpt>
      <trkpt lat="55.3674" lon="26.28785">
        <ele>181.595299</ele>
        <time>2020-10-07T07:05:48.419Z</time>
      </trkpt>
      <trkpt lat="55.36766" lon="26.28689">
        <ele>181.394574</ele>
        <time>2020-10-07T07:06:01.368Z</time>
      </trkpt>
      <trkpt lat="55.36779" lon="26.2864">
        <ele>181.280963</ele>
        <time>2020-10-07T07:06:07.839Z</time>
      </trkpt>
      <trkpt lat="55.36799" lon="26.28564">
        <ele>181.10813</ele>
        <time>2020-10-07T07:06:17.431Z</time>
      </trkpt>
      <trkpt lat="55.36825" lon="26.2847">
        <ele>181.001356</ele>
        <time>2020-10-07T07:06:29.211Z</time>
      </trkpt>
      <trkpt lat="55.36878" lon="26.28269">
        <ele>181.400146</ele>
        <time>2020-10-07T07:06:57.288Z</time>
      </trkpt>
      <trkpt lat="55.36936" lon="26.28048">
        <ele>184.069034</ele>
        <time>2020-10-07T07:07:38.155Z</time>
      </trkpt>
      <trkpt lat="55.36952" lon="26.27964">
        <ele>185.340201</ele>
        <time>2020-10-07T07:07:56.017Z</time>
      </trkpt>
      <trkpt lat="55.37003" lon="26.27255">
        <ele>200.138183</ele>
        <time>2020-10-07T07:10:29.671Z</time>
      </trkpt>
      <trkpt lat="55.37063" lon="26.26667">
        <ele>207.797996</ele>
        <time>2020-10-07T07:12:16.246Z</time>
      </trkpt>
      <trkpt lat="55.37078" lon="26.26408">
        <ele>207.931429</ele>
        <time>2020-10-07T07:12:49.972Z</time>
      </trkpt>
      <trkpt lat="55.37095" lon="26.26253">
        <ele>207.223234</ele>
        <time>2020-10-07T07:13:07.004Z</time>
      </trkpt>
      <trkpt lat="55.37155" lon="26.25884">
        <ele>204.297262</ele>
        <time>2020-10-07T07:13:47.280Z</time>
      </trkpt>
      <trkpt lat="55.37196" lon="26.25669">
        <ele>202.515483</ele>
        <time>2020-10-07T07:14:11.681Z</time>
      </trkpt>
      <trkpt lat="55.37236" lon="26.25533">
        <ele>201.285902</ele>
        <time>2020-10-07T07:14:27.754Z</time>
      </trkpt>
      <trkpt lat="55.3728" lon="26.25427">
        <ele>200.374045</ele>
        <time>2020-10-07T07:14:41.193Z</time>
      </trkpt>
      <trkpt lat="55.37313" lon="26.2536">
        <ele>199.958541</ele>
        <time>2020-10-07T07:14:50.647Z</time>
      </trkpt>
      <trkpt lat="55.37361" lon="26.25275">
        <ele>199.395128</ele>
        <time>2020-10-07T07:15:04.220Z</time>
      </trkpt>
      <trkpt lat="55.37497" lon="26.25045">
        <ele>199.171423</ele>
        <time>2020-10-07T07:15:47.936Z</time>
      </trkpt>
      <trkpt lat="55.37695" lon="26.24707">
        <ele>197.826597</ele>
        <time>2020-10-07T07:16:45.179Z</time>
      </trkpt>
      <trkpt lat="55.37728" lon="26.24648">
        <ele>197.418306</ele>
        <time>2020-10-07T07:16:54.232Z</time>
      </trkpt>
      <trkpt lat="55.3778" lon="26.24542">
        <ele>196.705905</ele>
        <time>2020-10-07T07:17:09.314Z</time>
      </trkpt>
      <trkpt lat="55.37809" lon="26.24469">
        <ele>196.164131</ele>
        <time>2020-10-07T07:17:19.023Z</time>
      </trkpt>
      <trkpt lat="55.37858" lon="26.24322">
        <ele>195.137619</ele>
        <time>2020-10-07T07:17:37.812Z</time>
      </trkpt>
      <trkpt lat="55.37891" lon="26.24205">
        <ele>194.52641</ele>
        <time>2020-10-07T07:17:52.126Z</time>
      </trkpt>
      <trkpt lat="55.37914" lon="26.24103">
        <ele>194.061073</ele>
        <time>2020-10-07T07:18:04.412Z</time>
      </trkpt>
      <trkpt lat="55.37938" lon="26.23971">
        <ele>193.574408</ele>
        <time>2020-10-07T07:18:20.448Z</time>
      </trkpt>
      <trkpt lat="55.38004" lon="26.23569">
        <ele>193.191533</ele>
        <time>2020-10-07T07:19:12.848Z</time>
      </trkpt>
      <trkpt lat="55.38016" lon="26.23417">
        <ele>193.028996</ele>
        <time>2020-10-07T07:19:31.959Z</time>
      </trkpt>
      <trkpt lat="55.38012" lon="26.23261">
        <ele>192.499724</ele>
        <time>2020-10-07T07:19:49.990Z</time>
      </trkpt>
      <trkpt lat="55.38001" lon="26.23168">
        <ele>192.121354</ele>
        <time>2020-10-07T07:20:00.488Z</time>
      </trkpt>
      <trkpt lat="55.37983" lon="26.23077">
        <ele>191.738544</ele>
        <time>2020-10-07T07:20:11.161Z</time>
      </trkpt>
      <trkpt lat="55.37947" lon="26.22914">
        <ele>191.877146</ele>
        <time>2020-10-07T07:20:32.406Z</time>
      </trkpt>
      <trkpt lat="55.37869" lon="26.2257">
        <ele>192.764771</ele>
        <time>2020-10-07T07:21:26.443Z</time>
      </trkpt>
      <trkpt lat="55.37759" lon="26.22084">
        <ele>193.270241</ele>
        <time>2020-10-07T07:22:32.591Z</time>
      </trkpt>
      <trkpt lat="55.37752" lon="26.22059">
        <ele>193.309891</ele>
        <time>2020-10-07T07:22:36.171Z</time>
      </trkpt>
      <trkpt lat="55.37738" lon="26.22013">
        <ele>193.383992</ele>
        <time>2020-10-07T07:22:43.151Z</time>
      </trkpt>
      <trkpt lat="55.37721" lon="26.21966">
        <ele>193.463537</ele>
        <time>2020-10-07T07:22:50.828Z</time>
      </trkpt>
      <trkpt lat="55.37611" lon="26.21733">
        <ele>194.113893</ele>
        <time>2020-10-07T07:23:33.505Z</time>
      </trkpt>
      <trkpt lat="55.37523" lon="26.21542">
        <ele>193.891288</ele>
        <time>2020-10-07T07:24:03.837Z</time>
      </trkpt>
      <trkpt lat="55.3751" lon="26.21509">
        <ele>193.797306</ele>
        <time>2020-10-07T07:24:08.364Z</time>
      </trkpt>
      <trkpt lat="55.37507" lon="26.21498">
        <ele>193.767331</ele>
        <time>2020-10-07T07:24:09.816Z</time>
      </trkpt>
      <trkpt lat="55.37492" lon="26.2145">
        <ele>193.639493</ele>
        <time>2020-10-07T07:24:15.919Z</time>
      </trkpt>
      <trkpt lat="55.3743" lon="26.21174">
        <ele>192.650173</ele>
        <time>2020-10-07T07:24:49.654Z</time>
      </trkpt>
      <trkpt lat="55.37424" lon="26.21152">
        <ele>192.561636</ele>
        <time>2020-10-07T07:24:52.775Z</time>
      </trkpt>
      <trkpt lat="55.37415" lon="26.21124">
        <ele>192.452581</ele>
        <time>2020-10-07T07:24:56.607Z</time>
      </trkpt>
      <trkpt lat="55.37396" lon="26.21067">
        <ele>192.270856</ele>
        <time>2020-10-07T07:25:04.633Z</time>
      </trkpt>
      <trkpt lat="55.37344" lon="26.20911">
        <ele>191.777904</ele>
        <time>2020-10-07T07:25:26.280Z</time>
      </trkpt>
      <trkpt lat="55.37324" lon="26.20851">
        <ele>191.587699</ele>
        <time>2020-10-07T07:25:34.172Z</time>
      </trkpt>
      <trkpt lat="55.3732" lon="26.20841">
        <ele>191.517933</ele>
        <time>2020-10-07T07:25:35.532Z</time>
      </trkpt>
      <trkpt lat="55.37313" lon="26.20818">
        <ele>191.345532</ele>
        <time>2020-10-07T07:25:38.404Z</time>
      </trkpt>
      <trkpt lat="55.37308" lon="26.20803">
        <ele>191.231545</ele>
        <time>2020-10-07T07:25:40.290Z</time>
      </trkpt>
      <trkpt lat="55.37299" lon="26.20811">
        <ele>191.115691</ele>
        <time>2020-10-07T07:25:42.359Z</time>
      </trkpt>
      <trkpt lat="55.37245" lon="26.2066">
        <ele>189.934599</ele>
        <time>2020-10-07T07:26:02.209Z</time>
      </trkpt>
      <trkpt lat="55.37184" lon="26.20507">
        <ele>188.994323</ele>
        <time>2020-10-07T07:26:23.244Z</time>
      </trkpt>
      <trkpt lat="55.37089" lon="26.2027">
        <ele>187.975347</ele>
        <time>2020-10-07T07:26:58.908Z</time>
      </trkpt>
      <trkpt lat="55.37001" lon="26.20084">
        <ele>187.538572</ele>
        <time>2020-10-07T07:27:29.262Z</time>
      </trkpt>
      <trkpt lat="55.36935" lon="26.19888">
        <ele>187.658311</ele>
        <time>2020-10-07T07:28:00.064Z</time>
      </trkpt>
      <trkpt lat="55.36884" lon="26.19673">
        <ele>187.366339</ele>
        <time>2020-10-07T07:28:31.983Z</time>
      </trkpt>
      <trkpt lat="55.36794" lon="26.19285">
        <ele>185.528519</ele>
        <time>2020-10-07T07:29:20.300Z</time>
      </trkpt>
      <trkpt lat="55.36741" lon="26.19067">
        <ele>184.26759</ele>
        <time>2020-10-07T07:29:47.197Z</time>
      </trkpt>
      <trkpt lat="55.36672" lon="26.18844">
        <ele>183.249</ele>
        <time>2020-10-07T07:30:17.834Z</time>
      </trkpt>
      <trkpt lat="55.36624" lon="26.18728">
        <ele>182.843024</ele>
        <time>2020-10-07T07:30:35.853Z</time>
      </trkpt>
      <trkpt lat="55.36441" lon="26.18355">
        <ele>181.516399</ele>
        <time>2020-10-07T07:31:35.198Z</time>
      </trkpt>
      <trkpt lat="55.36334" lon="26.18254">
        <ele>181.366377</ele>
        <time>2020-10-07T07:32:03.665Z</time>
      </trkpt>
      <trkpt lat="55.36293" lon="26.18205">
        <ele>181.503217</ele>
        <time>2020-10-07T07:32:16.465Z</time>
      </trkpt>
      <trkpt lat="55.36268" lon="26.18142">
        <ele>181.62428</ele>
        <time>2020-10-07T07:32:27.809Z</time>
      </trkpt>
      <trkpt lat="55.36252" lon="26.18102">
        <ele>181.700837</ele>
        <time>2020-10-07T07:32:34.622Z</time>
      </trkpt>
      <trkpt lat="55.36244" lon="26.18086">
        <ele>181.734369</ele>
        <time>2020-10-07T07:32:37.896Z</time>
      </trkpt>
      <trkpt lat="55.36215" lon="26.18058">
        <ele>181.825725</ele>
        <time>2020-10-07T07:32:46.040Z</time>
      </trkpt>
      <trkpt lat="55.35395" lon="26.17773">
        <ele>171.451285</ele>
        <time>2020-10-07T07:35:30.748Z</time>
      </trkpt>
      <trkpt lat="55.3534" lon="26.17761">
        <ele>170.635861</ele>
        <time>2020-10-07T07:35:41.180Z</time>
      </trkpt>
      <trkpt lat="55.34968" lon="26.17745">
        <ele>164.170475</ele>
        <time>2020-10-07T07:36:50.375Z</time>
      </trkpt>
      <trkpt lat="55.34927" lon="26.17741">
        <ele>164.528759</ele>
        <time>2020-10-07T07:36:59.969Z</time>
      </trkpt>
      <trkpt lat="55.34894" lon="26.17738">
        <ele>164.810308</ele>
        <time>2020-10-07T07:37:08.640Z</time>
      </trkpt>
      <trkpt lat="55.34838" lon="26.17736">
        <ele>165.304056</ele>
        <time>2020-10-07T07:37:24.923Z</time>
      </trkpt>
      <trkpt lat="55.34809" lon="26.17745">
        <ele>165.556126</ele>
        <time>2020-10-07T07:37:33.788Z</time>
      </trkpt>
      <trkpt lat="55.3477" lon="26.17785">
        <ele>166.061191</ele>
        <time>2020-10-07T07:37:49.392Z</time>
      </trkpt>
      <trkpt lat="55.34654" lon="26.17612">
        <ele>167.88183</ele>
        <time>2020-10-07T07:38:33.149Z</time>
      </trkpt>
      <trkpt lat="55.34595" lon="26.17574">
        <ele>166.595563</ele>
        <time>2020-10-07T07:38:45.041Z</time>
      </trkpt>
      <trkpt lat="55.34581" lon="26.17549">
        <ele>166.184178</ele>
        <time>2020-10-07T07:38:48.752Z</time>
      </trkpt>
      <trkpt lat="55.34575" lon="26.17524">
        <ele>165.866316</ele>
        <time>2020-10-07T07:38:51.411Z</time>
      </trkpt>
      <trkpt lat="55.34502" lon="26.17454">
        <ele>164.152151</ele>
        <time>2020-10-07T07:39:04.987Z</time>
      </trkpt>
      <trkpt lat="55.34485" lon="26.17439">
        <ele>163.691303</ele>
        <time>2020-10-07T07:39:08.103Z</time>
      </trkpt>
      <trkpt lat="55.34393" lon="26.17361">
        <ele>161.292363</ele>
        <time>2020-10-07T07:39:25.055Z</time>
      </trkpt>
      <trkpt lat="55.34361" lon="26.17333">
        <ele>160.464606</ele>
        <time>2020-10-07T07:39:31.420Z</time>
      </trkpt>
      <trkpt lat="55.34329" lon="26.17305">
        <ele>159.997097</ele>
        <time>2020-10-07T07:39:38.462Z</time>
      </trkpt>
      <trkpt lat="55.34275" lon="26.17255">
        <ele>160.028416</ele>
        <time>2020-10-07T07:39:51.938Z</time>
      </trkpt>
      <trkpt lat="55.34261" lon="26.17243">
        <ele>160.036476</ele>
        <time>2020-10-07T07:39:55.508Z</time>
      </trkpt>
      <trkpt lat="55.34269" lon="26.17212">
        <ele>160.046541</ele>
        <time>2020-10-07T07:40:00.382Z</time>
      </trkpt>
      <trkpt lat="55.3428" lon="26.17171">
        <ele>160.059455</ele>
        <time>2020-10-07T07:40:06.487Z</time>
      </trkpt>
      <trkpt lat="55.34288" lon="26.17146">
        <ele>160.067682</ele>
        <time>2020-10-07T07:40:10.606Z</time>
      </trkpt>
      <trkpt lat="55.34304" lon="26.17086">
        <ele>160.13506</ele>
        <time>2020-10-07T07:40:20.096Z</time>
      </trkpt>
      <trkpt lat="55.34309" lon="26.17072">
        <ele>160.177336</ele>
        <time>2020-10-07T07:40:22.435Z</time>
      </trkpt>
      <trkpt lat="55.34319" lon="26.17055">
        <ele>160.237142</ele>
        <time>2020-10-07T07:40:25.765Z</time>
      </trkpt>
      <trkpt lat="55.34325" lon="26.17049">
        <ele>160.270361</ele>
        <time>2020-10-07T07:40:27.618Z</time>
      </trkpt>
      <trkpt lat="55.34333" lon="26.17043">
        <ele>160.309292</ele>
        <time>2020-10-07T07:40:29.782Z</time>
      </trkpt>
      <trkpt lat="55.34338" lon="26.17038">
        <ele>160.333759</ele>
        <time>2020-10-07T07:40:31.110Z</time>
      </trkpt>
      <trkpt lat="55.34348" lon="26.1702">
        <ele>160.39997</ele>
        <time>2020-10-07T07:40:34.776Z</time>
      </trkpt>
      <trkpt lat="55.3436" lon="26.16978">
        <ele>160.517469</ele>
        <time>2020-10-07T07:40:41.199Z</time>
      </trkpt>
      <trkpt lat="55.34358" lon="26.16947">
        <ele>160.597823</ele>
        <time>2020-10-07T07:40:45.566Z</time>
      </trkpt>
      <trkpt lat="55.34354" lon="26.16924">
        <ele>160.658433</ele>
        <time>2020-10-07T07:40:48.791Z</time>
      </trkpt>
      <trkpt lat="55.34329" lon="26.1689">
        <ele>160.799457</ele>
        <time>2020-10-07T07:40:56.077Z</time>
      </trkpt>
      <trkpt lat="55.3423" lon="26.16758">
        <ele>160.88738</ele>
        <time>2020-10-07T07:41:24.246Z</time>
      </trkpt>
      <trkpt lat="55.34198" lon="26.16715">
        <ele>160.888013</ele>
        <time>2020-10-07T07:41:33.108Z</time>
      </trkpt>
      <trkpt lat="55.34181" lon="26.16692">
        <ele>160.888339</ele>
        <time>2020-10-07T07:41:37.674Z</time>
      </trkpt>
      <trkpt lat="55.3417" lon="26.16677">
        <ele>160.888195</ele>
        <time>2020-10-07T07:41:40.575Z</time>
      </trkpt>
      <trkpt lat="55.34165" lon="26.1667">
        <ele>160.879356</ele>
        <time>2020-10-07T07:41:42.148Z</time>
      </trkpt>
      <trkpt lat="55.34103" lon="26.16582">
        <ele>160.778124</ele>
        <time>2020-10-07T07:41:59.291Z</time>
      </trkpt>
      <trkpt lat="55.34089" lon="26.16564">
        <ele>160.756724</ele>
        <time>2020-10-07T07:42:02.831Z</time>
      </trkpt>
      <trkpt lat="55.33986" lon="26.16423">
        <ele>160.976011</ele>
        <time>2020-10-07T07:42:31.787Z</time>
      </trkpt>
      <trkpt lat="55.33952" lon="26.16378">
        <ele>161.218801</ele>
        <time>2020-10-07T07:42:42.130Z</time>
      </trkpt>
      <trkpt lat="55.3395" lon="26.16376">
        <ele>161.230065</ele>
        <time>2020-10-07T07:42:42.638Z</time>
      </trkpt>
      <trkpt lat="55.3394" lon="26.16363">
        <ele>161.304215</ele>
        <time>2020-10-07T07:42:45.994Z</time>
      </trkpt>
      <trkpt lat="55.33917" lon="26.16335">
        <ele>161.4604</ele>
        <time>2020-10-07T07:42:53.240Z</time>
      </trkpt>
      <trkpt lat="55.33898" lon="26.16311">
        <ele>161.598469</ele>
        <time>2020-10-07T07:42:59.846Z</time>
      </trkpt>
      <trkpt lat="55.33856" lon="26.16259">
        <ele>161.818157</ele>
        <time>2020-10-07T07:43:13.567Z</time>
      </trkpt>
      <trkpt lat="55.338" lon="26.16189">
        <ele>162.06404</ele>
        <time>2020-10-07T07:43:30.288Z</time>
      </trkpt>
      <trkpt lat="55.33794" lon="26.16177">
        <ele>162.097862</ele>
        <time>2020-10-07T07:43:32.348Z</time>
      </trkpt>
      <trkpt lat="55.33789" lon="26.16168">
        <ele>162.122083</ele>
        <time>2020-10-07T07:43:33.944Z</time>
      </trkpt>
      <trkpt lat="55.33787" lon="26.16159">
        <ele>162.141865</ele>
        <time>2020-10-07T07:43:35.335Z</time>
      </trkpt>
      <trkpt lat="55.33786" lon="26.16141">
        <ele>162.180176</ele>
        <time>2020-10-07T07:43:37.774Z</time>
      </trkpt>
      <trkpt lat="55.33786" lon="26.1613">
        <ele>162.20107</ele>
        <time>2020-10-07T07:43:39.255Z</time>
      </trkpt>
      <trkpt lat="55.33787" lon="26.16117">
        <ele>162.228699</ele>
        <time>2020-10-07T07:43:40.900Z</time>
      </trkpt>
      <trkpt lat="55.3379" lon="26.16099">
        <ele>162.267987</ele>
        <time>2020-10-07T07:43:43.574Z</time>
      </trkpt>
      <trkpt lat="55.33792" lon="26.16088">
        <ele>162.290657</ele>
        <time>2020-10-07T07:43:44.894Z</time>
      </trkpt>
      <trkpt lat="55.33814" lon="26.15978">
        <ele>161.942164</ele>
        <time>2020-10-07T07:43:59.050Z</time>
      </trkpt>
      <trkpt lat="55.33824" lon="26.15931">
        <ele>161.722725</ele>
        <time>2020-10-07T07:44:04.849Z</time>
      </trkpt>
      <trkpt lat="55.33862" lon="26.15763">
        <ele>160.964538</ele>
        <time>2020-10-07T07:44:25.702Z</time>
      </trkpt>
      <trkpt lat="55.33867" lon="26.15728">
        <ele>160.904886</ele>
        <time>2020-10-07T07:44:30.095Z</time>
      </trkpt>
      <trkpt lat="55.33884" lon="26.15537">
        <ele>160.582148</ele>
        <time>2020-10-07T07:44:54.770Z</time>
      </trkpt>
      <trkpt lat="55.33892" lon="26.15438">
        <ele>160.445341</ele>
        <time>2020-10-07T07:45:07.741Z</time>
      </trkpt>
      <trkpt lat="55.33895" lon="26.15376">
        <ele>160.430272</ele>
        <time>2020-10-07T07:45:16.016Z</time>
      </trkpt>
      <trkpt lat="55.33899" lon="26.15317">
        <ele>160.415896</ele>
        <time>2020-10-07T07:45:23.779Z</time>
      </trkpt>
      <trkpt lat="55.33901" lon="26.15262">
        <ele>160.402662</ele>
        <time>2020-10-07T07:45:30.823Z</time>
      </trkpt>
      <trkpt lat="55.33904" lon="26.15166">
        <ele>160.379471</ele>
        <time>2020-10-07T07:45:42.976Z</time>
      </trkpt>
      <trkpt lat="55.3391" lon="26.15009">
        <ele>160.845979</ele>
        <time>2020-10-07T07:46:03.715Z</time>
      </trkpt>
      <trkpt lat="55.33912" lon="26.14935">
        <ele>161.109533</ele>
        <time>2020-10-07T07:46:14.530Z</time>
      </trkpt>
      <trkpt lat="55.33912" lon="26.14913">
        <ele>161.185587</ele>
        <time>2020-10-07T07:46:17.897Z</time>
      </trkpt>
      <trkpt lat="55.33904" lon="26.14911">
        <ele>161.235038</ele>
        <time>2020-10-07T07:46:19.656Z</time>
      </trkpt>
      <trkpt lat="55.33905" lon="26.14833">
        <ele>161.520064</ele>
        <time>2020-10-07T07:46:31.675Z</time>
      </trkpt>
      <trkpt lat="55.33912" lon="26.14624">
        <ele>162.657747</ele>
        <time>2020-10-07T07:47:04.890Z</time>
      </trkpt>
      <trkpt lat="55.33911" lon="26.14491">
        <ele>163.177748</ele>
        <time>2020-10-07T07:47:25.238Z</time>
      </trkpt>
      <trkpt lat="55.33921" lon="26.14258">
        <ele>162.997613</ele>
        <time>2020-10-07T07:47:56.320Z</time>
      </trkpt>
      <trkpt lat="55.33931" lon="26.1426">
        <ele>162.983366</ele>
        <time>2020-10-07T07:47:59.074Z</time>
      </trkpt>
      <trkpt lat="55.33933" lon="26.14138">
        <ele>161.971376</ele>
        <time>2020-10-07T07:48:11.712Z</time>
      </trkpt>
      <trkpt lat="55.33929" lon="26.14058">
        <ele>161.089683</ele>
        <time>2020-10-07T07:48:19.845Z</time>
      </trkpt>
      <trkpt lat="55.33926" lon="26.14007">
        <ele>160.528121</ele>
        <time>2020-10-07T07:48:24.880Z</time>
      </trkpt>
      <trkpt lat="55.33907" lon="26.13863">
        <ele>159.039057</ele>
        <time>2020-10-07T07:48:39.274Z</time>
      </trkpt>
      <trkpt lat="55.33877" lon="26.1373">
        <ele>157.817239</ele>
        <time>2020-10-07T07:48:53.637Z</time>
      </trkpt>
      <trkpt lat="55.33848" lon="26.1363">
        <ele>156.853779</ele>
        <time>2020-10-07T07:49:06.250Z</time>
      </trkpt>
      <trkpt lat="55.33779" lon="26.13418">
        <ele>156.759226</ele>
        <time>2020-10-07T07:49:37.766Z</time>
      </trkpt>
      <trkpt lat="55.33791" lon="26.13404">
        <ele>156.755493</ele>
        <time>2020-10-07T07:49:41.327Z</time>
      </trkpt>
      <trkpt lat="55.3385" lon="26.13309">
        <ele>156.539782</ele>
        <time>2020-10-07T07:49:58.998Z</time>
      </trkpt>
      <trkpt lat="55.3386" lon="26.1329">
        <ele>156.478231</ele>
        <time>2020-10-07T07:50:02.154Z</time>
      </trkpt>
      <trkpt lat="55.33869" lon="26.13267">
        <ele>156.408267</ele>
        <time>2020-10-07T07:50:05.652Z</time>
      </trkpt>
      <trkpt lat="55.33886" lon="26.13222">
        <ele>156.278</ele>
        <time>2020-10-07T07:50:12.096Z</time>
      </trkpt>
      <trkpt lat="55.33895" lon="26.13195">
        <ele>156.204749</ele>
        <time>2020-10-07T07:50:15.739Z</time>
      </trkpt>
      <trkpt lat="55.33902" lon="26.1317">
        <ele>156.135825</ele>
        <time>2020-10-07T07:50:18.865Z</time>
      </trkpt>
      <trkpt lat="55.33929" lon="26.13071">
        <ele>155.719398</ele>
        <time>2020-10-07T07:50:31.072Z</time>
      </trkpt>
      <trkpt lat="55.33997" lon="26.12816">
        <ele>154.162269</ele>
        <time>2020-10-07T07:51:01.651Z</time>
      </trkpt>
      <trkpt lat="55.34174" lon="26.12151">
        <ele>151.930775</ele>
        <time>2020-10-07T07:52:27.932Z</time>
      </trkpt>
      <trkpt lat="55.34192" lon="26.12079">
        <ele>151.668346</ele>
        <time>2020-10-07T07:52:37.391Z</time>
      </trkpt>
      <trkpt lat="55.34228" lon="26.11949">
        <ele>151.092385</ele>
        <time>2020-10-07T07:52:54.051Z</time>
      </trkpt>
      <trkpt lat="55.34233" lon="26.11938">
        <ele>150.978619</ele>
        <time>2020-10-07T07:52:55.613Z</time>
      </trkpt>
      <trkpt lat="55.34261" lon="26.11871">
        <ele>150.328443</ele>
        <time>2020-10-07T07:53:04.465Z</time>
      </trkpt>
      <trkpt lat="55.3431" lon="26.1182">
        <ele>149.550843</ele>
        <time>2020-10-07T07:53:14.666Z</time>
      </trkpt>
      <trkpt lat="55.3437" lon="26.11785">
        <ele>148.702541</ele>
        <time>2020-10-07T07:53:26.245Z</time>
      </trkpt>
      <trkpt lat="55.34383" lon="26.1178">
        <ele>148.551655</ele>
        <time>2020-10-07T07:53:28.638Z</time>
      </trkpt>
      <trkpt lat="55.34399" lon="26.11775">
        <ele>148.385031</ele>
        <time>2020-10-07T07:53:31.624Z</time>
      </trkpt>
      <trkpt lat="55.34433" lon="26.1177">
        <ele>148.015433</ele>
        <time>2020-10-07T07:53:37.858Z</time>
      </trkpt>
      <trkpt lat="55.34494" lon="26.11762">
        <ele>147.363232</ele>
        <time>2020-10-07T07:53:49.126Z</time>
      </trkpt>
      <trkpt lat="55.34598" lon="26.11751">
        <ele>147.291133</ele>
        <time>2020-10-07T07:54:12.912Z</time>
      </trkpt>
      <trkpt lat="55.34688" lon="26.11741">
        <ele>147.984349</ele>
        <time>2020-10-07T07:54:36.675Z</time>
      </trkpt>
      <trkpt lat="55.34765" lon="26.11732">
        <ele>148.875715</ele>
        <time>2020-10-07T07:54:57.874Z</time>
      </trkpt>
      <trkpt lat="55.34857" lon="26.1172">
        <ele>150.191227</ele>
        <time>2020-10-07T07:55:22.860Z</time>
      </trkpt>
      <trkpt lat="55.34884" lon="26.11717">
        <ele>150.590337</ele>
        <time>2020-10-07T07:55:30.843Z</time>
      </trkpt>
      <trkpt lat="55.34909" lon="26.11715">
        <ele>151.124237</ele>
        <time>2020-10-07T07:55:38.140Z</time>
      </trkpt>
      <trkpt lat="55.34934" lon="26.11714">
        <ele>152.004468</ele>
        <time>2020-10-07T07:55:45.628Z</time>
      </trkpt>
      <trkpt lat="55.35011" lon="26.11725">
        <ele>154.725851</ele>
        <time>2020-10-07T07:56:12.334Z</time>
      </trkpt>
      <trkpt lat="55.35056" lon="26.11747">
        <ele>156.347583</ele>
        <time>2020-10-07T07:56:30.783Z</time>
      </trkpt>
      <trkpt lat="55.35099" lon="26.11787">
        <ele>158.593794</ele>
        <time>2020-10-07T07:56:52.516Z</time>
      </trkpt>
      <trkpt lat="55.35133" lon="26.11835">
        <ele>160.933816</ele>
        <time>2020-10-07T07:57:12.418Z</time>
      </trkpt>
      <trkpt lat="55.3521" lon="26.1199">
        <ele>167.163537</ele>
        <time>2020-10-07T07:58:05.520Z</time>
      </trkpt>
      <trkpt lat="55.35244" lon="26.12041">
        <ele>168.362081</ele>
        <time>2020-10-07T07:58:23.299Z</time>
      </trkpt>
      <trkpt lat="55.35291" lon="26.12107">
        <ele>169.968996</ele>
        <time>2020-10-07T07:58:44.272Z</time>
      </trkpt>
      <trkpt lat="55.35301" lon="26.1212">
        <ele>170.305449</ele>
        <time>2020-10-07T07:58:48.331Z</time>
      </trkpt>
      <trkpt lat="55.35542" lon="26.12391">
        <ele>170.910914</ele>
        <time>2020-10-07T07:59:53.543Z</time>
      </trkpt>
      <trkpt lat="55.35631" lon="26.1249">
        <ele>168.64854</ele>
        <time>2020-10-07T08:00:11.149Z</time>
      </trkpt>
      <trkpt lat="55.35765" lon="26.12639">
        <ele>163.297762</ele>
        <time>2020-10-07T08:00:35.903Z</time>
      </trkpt>
      <trkpt lat="55.35914" lon="26.12807">
        <ele>159.59099</ele>
        <time>2020-10-07T08:01:06.102Z</time>
      </trkpt>
      <trkpt lat="55.36096" lon="26.13009">
        <ele>160.423698</ele>
        <time>2020-10-07T08:02:00.981Z</time>
      </trkpt>
      <trkpt lat="55.36162" lon="26.13065">
        <ele>161.791735</ele>
        <time>2020-10-07T08:02:24.005Z</time>
      </trkpt>
      <trkpt lat="55.36262" lon="26.1311">
        <ele>163.910627</ele>
        <time>2020-10-07T08:02:55.709Z</time>
      </trkpt>
      <trkpt lat="55.36276" lon="26.13115">
        <ele>164.207719</ele>
        <time>2020-10-07T08:03:00.674Z</time>
      </trkpt>
      <trkpt lat="55.36304" lon="26.13119">
        <ele>164.648128</ele>
        <time>2020-10-07T08:03:08.949Z</time>
      </trkpt>
      <trkpt lat="55.36337" lon="26.13116">
        <ele>165.147734</ele>
        <time>2020-10-07T08:03:18.633Z</time>
      </trkpt>
      <trkpt lat="55.36364" lon="26.13105">
        <ele>165.576294</ele>
        <time>2020-10-07T08:03:26.772Z</time>
      </trkpt>
      <trkpt lat="55.36451" lon="26.13043">
        <ele>166.995308</ele>
        <time>2020-10-07T08:03:52.630Z</time>
      </trkpt>
      <trkpt lat="55.3653" lon="26.12992">
        <ele>167.501623</ele>
        <time>2020-10-07T08:04:13.716Z</time>
      </trkpt>
      <trkpt lat="55.36592" lon="26.1297">
        <ele>167.886541</ele>
        <time>2020-10-07T08:04:29.328Z</time>
      </trkpt>
      <trkpt lat="55.36948" lon="26.12902">
        <ele>168.068993</ele>
        <time>2020-10-07T08:05:49.703Z</time>
      </trkpt>
      <trkpt lat="55.37045" lon="26.12872">
        <ele>167.583698</ele>
        <time>2020-10-07T08:06:09.738Z</time>
      </trkpt>
      <trkpt lat="55.37117" lon="26.12822">
        <ele>167.04264</ele>
        <time>2020-10-07T08:06:25.077Z</time>
      </trkpt>
      <trkpt lat="55.37222" lon="26.1272">
        <ele>166.328196</ele>
        <time>2020-10-07T08:06:48.618Z</time>
      </trkpt>
      <trkpt lat="55.37278" lon="26.12649">
        <ele>165.946023</ele>
        <time>2020-10-07T08:07:02.793Z</time>
      </trkpt>
      <trkpt lat="55.37337" lon="26.12546">
        <ele>165.896333</ele>
        <time>2020-10-07T08:07:21.554Z</time>
      </trkpt>
      <trkpt lat="55.3736" lon="26.125">
        <ele>165.962007</ele>
        <time>2020-10-07T08:07:30.107Z</time>
      </trkpt>
      <trkpt lat="55.37402" lon="26.12414">
        <ele>166.084165</ele>
        <time>2020-10-07T08:07:45.539Z</time>
      </trkpt>
      <trkpt lat="55.37439" lon="26.12329">
        <ele>165.787731</ele>
        <time>2020-10-07T08:07:58.796Z</time>
      </trkpt>
      <trkpt lat="55.37444" lon="26.12312">
        <ele>165.67778</ele>
        <time>2020-10-07T08:08:01.538Z</time>
      </trkpt>
      <trkpt lat="55.37461" lon="26.12259">
        <ele>165.338422</ele>
        <time>2020-10-07T08:08:08.631Z</time>
      </trkpt>
      <trkpt lat="55.37483" lon="26.12193">
        <ele>164.918747</ele>
        <time>2020-10-07T08:08:16.878Z</time>
      </trkpt>
      <trkpt lat="55.37519" lon="26.12117">
        <ele>164.346532</ele>
        <time>2020-10-07T08:08:27.131Z</time>
      </trkpt>
      <trkpt lat="55.37608" lon="26.11995">
        <ele>161.532007</ele>
        <time>2020-10-07T08:08:46.008Z</time>
      </trkpt>
      <trkpt lat="55.37648" lon="26.1192">
        <ele>160.063082</ele>
        <time>2020-10-07T08:08:55.751Z</time>
      </trkpt>
      <trkpt lat="55.37698" lon="26.11821">
        <ele>159.361526</ele>
        <time>2020-10-07T08:09:09.172Z</time>
      </trkpt>
      <trkpt lat="55.37717" lon="26.11784">
        <ele>159.149023</ele>
        <time>2020-10-07T08:09:14.963Z</time>
      </trkpt>
      <trkpt lat="55.37769" lon="26.11702">
        <ele>158.620841</ele>
        <time>2020-10-07T08:09:30.444Z</time>
      </trkpt>
      <trkpt lat="55.3778" lon="26.11691">
        <ele>158.52996</ele>
        <time>2020-10-07T08:09:33.037Z</time>
      </trkpt>
      <trkpt lat="55.37791" lon="26.11681">
        <ele>158.597908</ele>
        <time>2020-10-07T08:09:36.966Z</time>
      </trkpt>
      <trkpt lat="55.38013" lon="26.11555">
        <ele>159.299188</ele>
        <time>2020-10-07T08:10:36.909Z</time>
      </trkpt>
      <trkpt lat="55.38082" lon="26.11488">
        <ele>158.540714</ele>
        <time>2020-10-07T08:10:51.522Z</time>
      </trkpt>
      <trkpt lat="55.38196" lon="26.1134">
        <ele>155.475427</ele>
        <time>2020-10-07T08:11:15.157Z</time>
      </trkpt>
      <trkpt lat="55.38248" lon="26.11299">
        <ele>153.987248</ele>
        <time>2020-10-07T08:11:24.790Z</time>
      </trkpt>
      <trkpt lat="55.38291" lon="26.11283">
        <ele>153.03184</ele>
        <time>2020-10-07T08:11:32.431Z</time>
      </trkpt>
      <trkpt lat="55.38298" lon="26.11286">
        <ele>152.90421</ele>
        <time>2020-10-07T08:11:33.597Z</time>
      </trkpt>
      <trkpt lat="55.38312" lon="26.11225">
        <ele>152.201585</ele>
        <time>2020-10-07T08:11:40.348Z</time>
      </trkpt>
      <trkpt lat="55.38362" lon="26.11023">
        <ele>149.904771</ele>
        <time>2020-10-07T08:12:02.774Z</time>
      </trkpt>
      <trkpt lat="55.38378" lon="26.10957">
        <ele>149.262234</ele>
        <time>2020-10-07T08:12:10.439Z</time>
      </trkpt>
      <trkpt lat="55.38404" lon="26.10853">
        <ele>148.258479</ele>
        <time>2020-10-07T08:12:22.372Z</time>
      </trkpt>
      <trkpt lat="55.38444" lon="26.10666">
        <ele>146.653846</ele>
        <time>2020-10-07T08:12:42.947Z</time>
      </trkpt>
      <trkpt lat="55.38467" lon="26.10473">
        <ele>145.265171</ele>
        <time>2020-10-07T08:13:04.570Z</time>
      </trkpt>
      <trkpt lat="55.38491" lon="26.1026">
        <ele>143.915793</ele>
        <time>2020-10-07T08:13:28.016Z</time>
      </trkpt>
      <trkpt lat="55.38496" lon="26.10221">
        <ele>143.671388</ele>
        <time>2020-10-07T08:13:32.516Z</time>
      </trkpt>
      <trkpt lat="55.38503" lon="26.10169">
        <ele>143.342357</ele>
        <time>2020-10-07T08:13:38.473Z</time>
      </trkpt>
      <trkpt lat="55.38507" lon="26.10138">
        <ele>143.15599</ele>
        <time>2020-10-07T08:13:41.831Z</time>
      </trkpt>
      <trkpt lat="55.38511" lon="26.10016">
        <ele>142.752719</ele>
        <time>2020-10-07T08:13:55.523Z</time>
      </trkpt>
      <trkpt lat="55.38522" lon="26.09887">
        <ele>142.321316</ele>
        <time>2020-10-07T08:14:10.299Z</time>
      </trkpt>
      <trkpt lat="55.3853" lon="26.09801">
        <ele>142.176899</ele>
        <time>2020-10-07T08:14:21.481Z</time>
      </trkpt>
      <trkpt lat="55.38543" lon="26.09666">
        <ele>142.490999</ele>
        <time>2020-10-07T08:14:40.020Z</time>
      </trkpt>
      <trkpt lat="55.38546" lon="26.09623">
        <ele>142.592777</ele>
        <time>2020-10-07T08:14:46.190Z</time>
      </trkpt>
      <trkpt lat="55.38551" lon="26.09562">
        <ele>142.733626</ele>
        <time>2020-10-07T08:14:54.859Z</time>
      </trkpt>
      <trkpt lat="55.38553" lon="26.09499">
        <ele>142.877538</ele>
        <time>2020-10-07T08:15:03.653Z</time>
      </trkpt>
      <trkpt lat="55.38549" lon="26.0945">
        <ele>142.992821</ele>
        <time>2020-10-07T08:15:10.703Z</time>
      </trkpt>
      <trkpt lat="55.38506" lon="26.09078">
        <ele>144.037104</ele>
        <time>2020-10-07T08:16:01.838Z</time>
      </trkpt>
      <trkpt lat="55.38462" lon="26.08762">
        <ele>145.604378</ele>
        <time>2020-10-07T08:16:49.428Z</time>
      </trkpt>
      <trkpt lat="55.3845" lon="26.08602">
        <ele>146.639156</ele>
        <time>2020-10-07T08:17:14.698Z</time>
      </trkpt>
      <trkpt lat="55.38448" lon="26.08564">
        <ele>146.909367</ele>
        <time>2020-10-07T08:17:20.859Z</time>
      </trkpt>
      <trkpt lat="55.38447" lon="26.08487">
        <ele>147.493603</ele>
        <time>2020-10-07T08:17:32.988Z</time>
      </trkpt>
      <trkpt lat="55.3845" lon="26.08351">
        <ele>148.526708</ele>
        <time>2020-10-07T08:17:54.488Z</time>
      </trkpt>
      <trkpt lat="55.38455" lon="26.08058">
        <ele>150.740245</ele>
        <time>2020-10-07T08:18:39.599Z</time>
      </trkpt>
      <trkpt lat="55.38454" lon="26.08006">
        <ele>151.137027</ele>
        <time>2020-10-07T08:18:47.686Z</time>
      </trkpt>
      <trkpt lat="55.38449" lon="26.07773">
        <ele>153.32443</ele>
        <time>2020-10-07T08:19:26.098Z</time>
      </trkpt>
      <trkpt lat="55.38443" lon="26.07531">
        <ele>155.92486</ele>
        <time>2020-10-07T08:20:07.326Z</time>
      </trkpt>
      <trkpt lat="55.38453" lon="26.07383">
        <ele>157.694553</ele>
        <time>2020-10-07T08:20:33.968Z</time>
      </trkpt>
      <trkpt lat="55.38458" lon="26.07348">
        <ele>158.125946</ele>
        <time>2020-10-07T08:20:39.965Z</time>
      </trkpt>
      <trkpt lat="55.38462" lon="26.07329">
        <ele>158.368516</ele>
        <time>2020-10-07T08:20:43.911Z</time>
      </trkpt>
      <trkpt lat="55.38473" lon="26.07274">
        <ele>159.027765</ele>
        <time>2020-10-07T08:20:53.900Z</time>
      </trkpt>
      <trkpt lat="55.3854" lon="26.07008">
        <ele>162.141651</ele>
        <time>2020-10-07T08:21:44.225Z</time>
      </trkpt>
      <trkpt lat="55.38561" lon="26.06916">
        <ele>162.533817</ele>
        <time>2020-10-07T08:22:00.204Z</time>
      </trkpt>
      <trkpt lat="55.38635" lon="26.06501">
        <ele>162.113166</ele>
        <time>2020-10-07T08:22:55.248Z</time>
      </trkpt>
      <trkpt lat="55.38685" lon="26.06297">
        <ele>158.755191</ele>
        <time>2020-10-07T08:23:15.849Z</time>
      </trkpt>
      <trkpt lat="55.38717" lon="26.0613">
        <ele>155.240176</ele>
        <time>2020-10-07T08:23:31.385Z</time>
      </trkpt>
      <trkpt lat="55.38722" lon="26.06104">
        <ele>155.057693</ele>
        <time>2020-10-07T08:23:33.849Z</time>
      </trkpt>
      <trkpt lat="55.38728" lon="26.06082">
        <ele>154.904846</ele>
        <time>2020-10-07T08:23:36.136Z</time>
      </trkpt>
      <trkpt lat="55.38746" lon="26.06023">
        <ele>154.476492</ele>
        <time>2020-10-07T08:23:42.670Z</time>
      </trkpt>
      <trkpt lat="55.38792" lon="26.05915">
        <ele>153.614973</ele>
        <time>2020-10-07T08:23:58.266Z</time>
      </trkpt>
      <trkpt lat="55.38809" lon="26.05882">
        <ele>153.327853</ele>
        <time>2020-10-07T08:24:04.090Z</time>
      </trkpt>
      <trkpt lat="55.38865" lon="26.05772">
        <ele>155.225817</ele>
        <time>2020-10-07T08:24:32.959Z</time>
      </trkpt>
      <trkpt lat="55.38903" lon="26.05694">
        <ele>156.717409</ele>
        <time>2020-10-07T08:24:53.710Z</time>
      </trkpt>
      <trkpt lat="55.38926" lon="26.05621">
        <ele>157.85975</ele>
        <time>2020-10-07T08:25:10.221Z</time>
      </trkpt>
      <trkpt lat="55.38945" lon="26.05448">
        <ele>158.510835</ele>
        <time>2020-10-07T08:25:36.456Z</time>
      </trkpt>
      <trkpt lat="55.38944" lon="26.05371">
        <ele>158.796203</ele>
        <time>2020-10-07T08:25:45.904Z</time>
      </trkpt>
      <trkpt lat="55.38932" lon="26.05238">
        <ele>158.863833</ele>
        <time>2020-10-07T08:26:01.095Z</time>
      </trkpt>
      <trkpt lat="55.38908" lon="26.05">
        <ele>158.398991</ele>
        <time>2020-10-07T08:26:30.058Z</time>
      </trkpt>
      <trkpt lat="55.38901" lon="26.04883">
        <ele>158.048228</ele>
        <time>2020-10-07T08:26:46.662Z</time>
      </trkpt>
      <trkpt lat="55.38905" lon="26.04816">
        <ele>157.848335</ele>
        <time>2020-10-07T08:26:54.855Z</time>
      </trkpt>
      <trkpt lat="55.38908" lon="26.04793">
        <ele>157.781788</ele>
        <time>2020-10-07T08:26:57.977Z</time>
      </trkpt>
      <trkpt lat="55.38912" lon="26.04755">
        <ele>157.664797</ele>
        <time>2020-10-07T08:27:02.041Z</time>
      </trkpt>
      <trkpt lat="55.38922" lon="26.04688">
        <ele>157.453639</ele>
        <time>2020-10-07T08:27:09.215Z</time>
      </trkpt>
      <trkpt lat="55.38948" lon="26.04531">
        <ele>155.945015</ele>
        <time>2020-10-07T08:27:26.407Z</time>
      </trkpt>
      <trkpt lat="55.38957" lon="26.04477">
        <ele>155.423616</ele>
        <time>2020-10-07T08:27:32.145Z</time>
      </trkpt>
      <trkpt lat="55.38968" lon="26.04412">
        <ele>154.800484</ele>
        <time>2020-10-07T08:27:39.111Z</time>
      </trkpt>
      <trkpt lat="55.38971" lon="26.04394">
        <ele>154.633182</ele>
        <time>2020-10-07T08:27:41.036Z</time>
      </trkpt>
      <trkpt lat="55.39003" lon="26.04087">
        <ele>156.341417</ele>
        <time>2020-10-07T08:28:30.682Z</time>
      </trkpt>
      <trkpt lat="55.39011" lon="26.04024">
        <ele>156.944494</ele>
        <time>2020-10-07T08:28:43.458Z</time>
      </trkpt>
      <trkpt lat="55.39022" lon="26.03958">
        <ele>157.63743</ele>
        <time>2020-10-07T08:28:56.637Z</time>
      </trkpt>
      <trkpt lat="55.39034" lon="26.03894">
        <ele>158.323897</ele>
        <time>2020-10-07T08:29:09.169Z</time>
      </trkpt>
      <trkpt lat="55.39054" lon="26.03821">
        <ele>159.150809</ele>
        <time>2020-10-07T08:29:23.273Z</time>
      </trkpt>
      <trkpt lat="55.39068" lon="26.03789">
        <ele>159.566535</ele>
        <time>2020-10-07T08:29:29.801Z</time>
      </trkpt>
      <trkpt lat="55.39081" lon="26.03762">
        <ele>159.50743</ele>
        <time>2020-10-07T08:29:34.464Z</time>
      </trkpt>
      <trkpt lat="55.39128" lon="26.03689">
        <ele>158.981936</ele>
        <time>2020-10-07T08:29:47.570Z</time>
      </trkpt>
      <trkpt lat="55.39148" lon="26.03648">
        <ele>158.728656</ele>
        <time>2020-10-07T08:29:53.586Z</time>
      </trkpt>
      <trkpt lat="55.39166" lon="26.03576">
        <ele>158.359742</ele>
        <time>2020-10-07T08:30:02.254Z</time>
      </trkpt>
      <trkpt lat="55.39185" lon="26.03452">
        <ele>157.457929</ele>
        <time>2020-10-07T08:30:16.194Z</time>
      </trkpt>
      <trkpt lat="55.39193" lon="26.03361">
        <ele>156.687185</ele>
        <time>2020-10-07T08:30:26.259Z</time>
      </trkpt>
      <trkpt lat="55.39195" lon="26.03235">
        <ele>155.63544</ele>
        <time>2020-10-07T08:30:40.363Z</time>
      </trkpt>
      <trkpt lat="55.39172" lon="26.02956">
        <ele>152.681618</ele>
        <time>2020-10-07T08:31:11.091Z</time>
      </trkpt>
      <trkpt lat="55.39184" lon="26.0272">
        <ele>149.030747</ele>
        <time>2020-10-07T08:31:34.356Z</time>
      </trkpt>
      <trkpt lat="55.39187" lon="26.02662">
        <ele>148.072234</ele>
        <time>2020-10-07T08:31:39.899Z</time>
      </trkpt>
      <trkpt lat="55.39187" lon="26.02632">
        <ele>147.558884</ele>
        <time>2020-10-07T08:31:42.845Z</time>
      </trkpt>
      <trkpt lat="55.39189" lon="26.02423">
        <ele>145.971963</ele>
        <time>2020-10-07T08:32:04.315Z</time>
      </trkpt>
      <trkpt lat="55.3919" lon="26.02406">
        <ele>145.880548</ele>
        <time>2020-10-07T08:32:06.149Z</time>
      </trkpt>
      <trkpt lat="55.39194" lon="26.02386">
        <ele>145.765685</ele>
        <time>2020-10-07T08:32:08.527Z</time>
      </trkpt>
      <trkpt lat="55.39196" lon="26.02372">
        <ele>145.688731</ele>
        <time>2020-10-07T08:32:10.248Z</time>
      </trkpt>
      <trkpt lat="55.39214" lon="26.02331">
        <ele>145.41204</ele>
        <time>2020-10-07T08:32:17.389Z</time>
      </trkpt>
      <trkpt lat="55.39224" lon="26.02311">
        <ele>145.267576</ele>
        <time>2020-10-07T08:32:21.480Z</time>
      </trkpt>
      <trkpt lat="55.39252" lon="26.02265">
        <ele>145.942873</ele>
        <time>2020-10-07T08:32:33.328Z</time>
      </trkpt>
      <trkpt lat="55.39273" lon="26.02223">
        <ele>146.821633</ele>
        <time>2020-10-07T08:32:43.999Z</time>
      </trkpt>
      <trkpt lat="55.39294" lon="26.02157">
        <ele>148.011635</ele>
        <time>2020-10-07T08:32:58.936Z</time>
      </trkpt>
      <trkpt lat="55.39307" lon="26.02112">
        <ele>148.802713</ele>
        <time>2020-10-07T08:33:09.279Z</time>
      </trkpt>
      <trkpt lat="55.39318" lon="26.02065">
        <ele>149.620865</ele>
        <time>2020-10-07T08:33:20.261Z</time>
      </trkpt>
      <trkpt lat="55.39331" lon="26.01955">
        <ele>151.106707</ele>
        <time>2020-10-07T08:33:42.489Z</time>
      </trkpt>
      <trkpt lat="55.39336" lon="26.01533">
        <ele>155.952736</ele>
        <time>2020-10-07T08:34:52.376Z</time>
      </trkpt>
      <trkpt lat="55.39336" lon="26.0149">
        <ele>156.408202</ele>
        <time>2020-10-07T08:34:59.230Z</time>
      </trkpt>
      <trkpt lat="55.39338" lon="26.01442">
        <ele>156.911716</ele>
        <time>2020-10-07T08:35:07.477Z</time>
      </trkpt>
      <trkpt lat="55.39347" lon="26.01289">
        <ele>158.861747</ele>
        <time>2020-10-07T08:35:35.379Z</time>
      </trkpt>
      <trkpt lat="55.39347" lon="26.01051">
        <ele>161.676307</ele>
        <time>2020-10-07T08:36:19.816Z</time>
      </trkpt>
      <trkpt lat="55.39369" lon="26.00924">
        <ele>161.901109</ele>
        <time>2020-10-07T08:36:38.703Z</time>
      </trkpt>
      <trkpt lat="55.39377" lon="26.00892">
        <ele>161.95993</ele>
        <time>2020-10-07T08:36:42.978Z</time>
      </trkpt>
      <trkpt lat="55.39404" lon="26.00784">
        <ele>162.149834</ele>
        <time>2020-10-07T08:36:56.165Z</time>
      </trkpt>
      <trkpt lat="55.39429" lon="26.00664">
        <ele>161.434686</ele>
        <time>2020-10-07T08:37:09.604Z</time>
      </trkpt>
      <trkpt lat="55.39431" lon="26.00603">
        <ele>161.09616</ele>
        <time>2020-10-07T08:37:15.867Z</time>
      </trkpt>
      <trkpt lat="55.39424" lon="26.00534">
        <ele>160.702369</ele>
        <time>2020-10-07T08:37:23.690Z</time>
      </trkpt>
      <trkpt lat="55.39417" lon="26.00497">
        <ele>160.485391</ele>
        <time>2020-10-07T08:37:28.312Z</time>
      </trkpt>
      <trkpt lat="55.39408" lon="26.00465">
        <ele>160.442016</ele>
        <time>2020-10-07T08:37:32.804Z</time>
      </trkpt>
      <trkpt lat="55.3937" lon="26.0037">
        <ele>160.738772</ele>
        <time>2020-10-07T08:37:48.323Z</time>
      </trkpt>
      <trkpt lat="55.39308" lon="26.00278">
        <ele>161.10796</ele>
        <time>2020-10-07T08:38:09.490Z</time>
      </trkpt>
      <trkpt lat="55.39273" lon="26.00214">
        <ele>161.178601</ele>
        <time>2020-10-07T08:38:22.653Z</time>
      </trkpt>
      <trkpt lat="55.38997" lon="25.99606">
        <ele>157.955898</ele>
        <time>2020-10-07T08:39:57.534Z</time>
      </trkpt>
      <trkpt lat="55.38969" lon="25.99562">
        <ele>156.988026</ele>
        <time>2020-10-07T08:40:02.991Z</time>
      </trkpt>
      <trkpt lat="55.38946" lon="25.99541">
        <ele>156.302788</ele>
        <time>2020-10-07T08:40:06.899Z</time>
      </trkpt>
      <trkpt lat="55.38937" lon="25.99536">
        <ele>155.913199</ele>
        <time>2020-10-07T08:40:08.209Z</time>
      </trkpt>
      <trkpt lat="55.38927" lon="25.99531">
        <ele>155.345911</ele>
        <time>2020-10-07T08:40:09.570Z</time>
      </trkpt>
      <trkpt lat="55.3891" lon="25.99527">
        <ele>154.321782</ele>
        <time>2020-10-07T08:40:12.298Z</time>
      </trkpt>
      <trkpt lat="55.38894" lon="25.99526">
        <ele>153.408626</ele>
        <time>2020-10-07T08:40:14.453Z</time>
      </trkpt>
      <trkpt lat="55.38878" lon="25.99529">
        <ele>152.428109</ele>
        <time>2020-10-07T08:40:16.990Z</time>
      </trkpt>
      <trkpt lat="55.38836" lon="25.99534">
        <ele>150.014443</ele>
        <time>2020-10-07T08:40:22.954Z</time>
      </trkpt>
      <trkpt lat="55.38796" lon="25.99534">
        <ele>147.642974</ele>
        <time>2020-10-07T08:40:28.801Z</time>
      </trkpt>
      <trkpt lat="55.38737" lon="25.99525">
        <ele>145.378527</ele>
        <time>2020-10-07T08:40:37.974Z</time>
      </trkpt>
      <trkpt lat="55.38697" lon="25.99517">
        <ele>144.940478</ele>
        <time>2020-10-07T08:40:45.335Z</time>
      </trkpt>
      <trkpt lat="55.38662" lon="25.99507">
        <ele>144.553038</ele>
        <time>2020-10-07T08:40:52.355Z</time>
      </trkpt>
      <trkpt lat="55.38633" lon="25.99498">
        <ele>144.224253</ele>
        <time>2020-10-07T08:40:59.772Z</time>
      </trkpt>
      <trkpt lat="55.38615" lon="25.99491">
        <ele>144.02272</ele>
        <time>2020-10-07T08:41:04.396Z</time>
      </trkpt>
      <trkpt lat="55.3859" lon="25.99492">
        <ele>143.745798</ele>
        <time>2020-10-07T08:41:10.435Z</time>
      </trkpt>
      <trkpt lat="55.38562" lon="25.99504">
        <ele>143.762174</ele>
        <time>2020-10-07T08:41:17.754Z</time>
      </trkpt>
      <trkpt lat="55.38556" lon="25.99504">
        <ele>143.784355</ele>
        <time>2020-10-07T08:41:19.021Z</time>
      </trkpt>
      <trkpt lat="55.38539" lon="25.99503">
        <ele>143.844971</ele>
        <time>2020-10-07T08:41:23.399Z</time>
      </trkpt>
      <trkpt lat="55.38531" lon="25.99503">
        <ele>143.875668</ele>
        <time>2020-10-07T08:41:25.576Z</time>
      </trkpt>
      <trkpt lat="55.38518" lon="25.99498">
        <ele>143.926884</ele>
        <time>2020-10-07T08:41:28.853Z</time>
      </trkpt>
      <trkpt lat="55.38516" lon="25.99497">
        <ele>143.934073</ele>
        <time>2020-10-07T08:41:29.471Z</time>
      </trkpt>
      <trkpt lat="55.38509" lon="25.99492">
        <ele>143.959961</ele>
        <time>2020-10-07T08:41:31.396Z</time>
      </trkpt>
      <trkpt lat="55.38429" lon="25.99428">
        <ele>144.286193</ele>
        <time>2020-10-07T08:41:52.251Z</time>
      </trkpt>
      <trkpt lat="55.38404" lon="25.99418">
        <ele>144.321589</ele>
        <time>2020-10-07T08:41:58.660Z</time>
      </trkpt>
      <trkpt lat="55.3837" lon="25.99419">
        <ele>144.249483</ele>
        <time>2020-10-07T08:42:06.874Z</time>
      </trkpt>
      <trkpt lat="55.38365" lon="25.99421">
        <ele>144.239079</ele>
        <time>2020-10-07T08:42:07.896Z</time>
      </trkpt>
      <trkpt lat="55.38361" lon="25.99426">
        <ele>144.22727</ele>
        <time>2020-10-07T08:42:09.034Z</time>
      </trkpt>
      <trkpt lat="55.38344" lon="25.99456">
        <ele>144.176441</ele>
        <time>2020-10-07T08:42:14.587Z</time>
      </trkpt>
      <trkpt lat="55.38292" lon="25.99581">
        <ele>143.988024</ele>
        <time>2020-10-07T08:42:33.981Z</time>
      </trkpt>
      <trkpt lat="55.38276" lon="25.99615">
        <ele>143.910867</ele>
        <time>2020-10-07T08:42:39.228Z</time>
      </trkpt>
      <trkpt lat="55.38267" lon="25.99629">
        <ele>143.85853</ele>
        <time>2020-10-07T08:42:41.817Z</time>
      </trkpt>
      <trkpt lat="55.38251" lon="25.9965">
        <ele>143.774011</ele>
        <time>2020-10-07T08:42:45.929Z</time>
      </trkpt>
      <trkpt lat="55.38243" lon="25.9966">
        <ele>143.732462</ele>
        <time>2020-10-07T08:42:48.266Z</time>
      </trkpt>
      <trkpt lat="55.38227" lon="25.99669">
        <ele>143.659165</ele>
        <time>2020-10-07T08:42:51.700Z</time>
      </trkpt>
      <trkpt lat="55.38215" lon="25.9967">
        <ele>143.608845</ele>
        <time>2020-10-07T08:42:54.253Z</time>
      </trkpt>
      <trkpt lat="55.38204" lon="25.99667">
        <ele>143.56021</ele>
        <time>2020-10-07T08:42:56.885Z</time>
      </trkpt>
      <trkpt lat="55.38194" lon="25.99662">
        <ele>143.516937</ele>
        <time>2020-10-07T08:42:58.904Z</time>
      </trkpt>
      <trkpt lat="55.38171" lon="25.99637">
        <ele>143.399743</ele>
        <time>2020-10-07T08:43:05.096Z</time>
      </trkpt>
      <trkpt lat="55.38164" lon="25.99617">
        <ele>143.342148</ele>
        <time>2020-10-07T08:43:07.866Z</time>
      </trkpt>
      <trkpt lat="55.38164" lon="25.99586">
        <ele>143.268345</ele>
        <time>2020-10-07T08:43:12.012Z</time>
      </trkpt>
      <trkpt lat="55.38174" lon="25.99536">
        <ele>143.226836</ele>
        <time>2020-10-07T08:43:18.829Z</time>
      </trkpt>
      <trkpt lat="55.38185" lon="25.9949">
        <ele>143.318816</ele>
        <time>2020-10-07T08:43:24.851Z</time>
      </trkpt>
      <trkpt lat="55.38192" lon="25.99458">
        <ele>143.383341</ele>
        <time>2020-10-07T08:43:29.227Z</time>
      </trkpt>
      <trkpt lat="55.38196" lon="25.99438">
        <ele>143.42266</ele>
        <time>2020-10-07T08:43:31.781Z</time>
      </trkpt>
      <trkpt lat="55.38208" lon="25.99389">
        <ele>143.521972</ele>
        <time>2020-10-07T08:43:38.780Z</time>
      </trkpt>
      <trkpt lat="55.38219" lon="25.99299">
        <ele>143.696101</ele>
        <time>2020-10-07T08:43:51.690Z</time>
      </trkpt>
      <trkpt lat="55.38216" lon="25.99217">
        <ele>144.249223</ele>
        <time>2020-10-07T08:44:03.830Z</time>
      </trkpt>
      <trkpt lat="55.38188" lon="25.98913">
        <ele>148.077608</ele>
        <time>2020-10-07T08:45:00.544Z</time>
      </trkpt>
      <trkpt lat="55.38171" lon="25.98731">
        <ele>150.163779</ele>
        <time>2020-10-07T08:45:33.965Z</time>
      </trkpt>
      <trkpt lat="55.38152" lon="25.98525">
        <ele>151.871073</ele>
        <time>2020-10-07T08:46:05.891Z</time>
      </trkpt>
      <trkpt lat="55.38136" lon="25.98368">
        <ele>152.683115</ele>
        <time>2020-10-07T08:46:27.166Z</time>
      </trkpt>
      <trkpt lat="55.3813" lon="25.98291">
        <ele>153.462533</ele>
        <time>2020-10-07T08:46:39.001Z</time>
      </trkpt>
      <trkpt lat="55.38129" lon="25.9827">
        <ele>153.893251</ele>
        <time>2020-10-07T08:46:42.850Z</time>
      </trkpt>
      <trkpt lat="55.38132" lon="25.98217">
        <ele>154.96729</ele>
        <time>2020-10-07T08:46:52.194Z</time>
      </trkpt>
      <trkpt lat="55.38135" lon="25.98194">
        <ele>155.444165</ele>
        <time>2020-10-07T08:46:56.942Z</time>
      </trkpt>
      <trkpt lat="55.3814" lon="25.98171">
        <ele>155.934423</ele>
        <time>2020-10-07T08:47:01.701Z</time>
      </trkpt>
      <trkpt lat="55.38171" lon="25.98038">
        <ele>158.86685</ele>
        <time>2020-10-07T08:47:34.802Z</time>
      </trkpt>
      <trkpt lat="55.38176" lon="25.97958">
        <ele>160.826095</ele>
        <time>2020-10-07T08:47:55.605Z</time>
      </trkpt>
      <trkpt lat="55.38168" lon="25.97904">
        <ele>162.280593</ele>
        <time>2020-10-07T08:48:10.293Z</time>
      </trkpt>
      <trkpt lat="55.38155" lon="25.97859">
        <ele>163.591727</ele>
        <time>2020-10-07T08:48:24.033Z</time>
      </trkpt>
      <trkpt lat="55.38134" lon="25.97804">
        <ele>165.321475</ele>
        <time>2020-10-07T08:48:40.420Z</time>
      </trkpt>
      <trkpt lat="55.38097" lon="25.97728">
        <ele>167.488125</ele>
        <time>2020-10-07T08:49:00.828Z</time>
      </trkpt>
      <trkpt lat="55.38088" lon="25.97681">
        <ele>166.833025</ele>
        <time>2020-10-07T08:49:07.247Z</time>
      </trkpt>
      <trkpt lat="55.38086" lon="25.97662">
        <ele>166.585848</ele>
        <time>2020-10-07T08:49:10.950Z</time>
      </trkpt>
      <trkpt lat="55.38085" lon="25.97645">
        <ele>166.358473</ele>
        <time>2020-10-07T08:49:12.596Z</time>
      </trkpt>
      <trkpt lat="55.38083" lon="25.97584">
        <ele>165.564863</ele>
        <time>2020-10-07T08:49:18.752Z</time>
      </trkpt>
      <trkpt lat="55.3808" lon="25.97507">
        <ele>164.552391</ele>
        <time>2020-10-07T08:49:25.730Z</time>
      </trkpt>
      <trkpt lat="55.38074" lon="25.97316">
        <ele>159.992221</ele>
        <time>2020-10-07T08:49:41.711Z</time>
      </trkpt>
      <trkpt lat="55.38069" lon="25.97147">
        <ele>154.618373</ele>
        <time>2020-10-07T08:49:55.883Z</time>
      </trkpt>
      <trkpt lat="55.38075" lon="25.97061">
        <ele>152.592938</ele>
        <time>2020-10-07T08:50:03.514Z</time>
      </trkpt>
      <trkpt lat="55.38092" lon="25.96984">
        <ele>151.148562</ele>
        <time>2020-10-07T08:50:11.214Z</time>
      </trkpt>
      <trkpt lat="55.38219" lon="25.96704">
        <ele>145.856065</ele>
        <time>2020-10-07T08:50:46.005Z</time>
      </trkpt>
      <trkpt lat="55.38245" lon="25.96603">
        <ele>144.52717</ele>
        <time>2020-10-07T08:50:57.259Z</time>
      </trkpt>
      <trkpt lat="55.38255" lon="25.96524">
        <ele>143.801296</ele>
        <time>2020-10-07T08:51:05.649Z</time>
      </trkpt>
      <trkpt lat="55.3825" lon="25.96462">
        <ele>143.375314</ele>
        <time>2020-10-07T08:51:12.132Z</time>
      </trkpt>
      <trkpt lat="55.38235" lon="25.96436">
        <ele>143.12128</ele>
        <time>2020-10-07T08:51:16.103Z</time>
      </trkpt>
      <trkpt lat="55.38184" lon="25.96371">
        <ele>142.349594</ele>
        <time>2020-10-07T08:51:28.334Z</time>
      </trkpt>
      <trkpt lat="55.38174" lon="25.96328">
        <ele>142.029947</ele>
        <time>2020-10-07T08:51:33.572Z</time>
      </trkpt>
      <trkpt lat="55.38179" lon="25.96251">
        <ele>141.759158</ele>
        <time>2020-10-07T08:51:42.693Z</time>
      </trkpt>
      <trkpt lat="55.38213" lon="25.96136">
        <ele>141.377172</ele>
        <time>2020-10-07T08:51:57.745Z</time>
      </trkpt>
      <trkpt lat="55.38235" lon="25.96031">
        <ele>141.047387</ele>
        <time>2020-10-07T08:52:10.854Z</time>
      </trkpt>
      <trkpt lat="55.38235" lon="25.9602">
        <ele>141.021933</ele>
        <time>2020-10-07T08:52:12.234Z</time>
      </trkpt>
      <trkpt lat="55.38235" lon="25.96006">
        <ele>141.013903</ele>
        <time>2020-10-07T08:52:13.736Z</time>
      </trkpt>
      <trkpt lat="55.38224" lon="25.95967">
        <ele>140.988807</ele>
        <time>2020-10-07T08:52:19.270Z</time>
      </trkpt>
      <trkpt lat="55.3819" lon="25.95936">
        <ele>140.950699</ele>
        <time>2020-10-07T08:52:27.416Z</time>
      </trkpt>
      <trkpt lat="55.38177" lon="25.95933">
        <ele>140.936876</ele>
        <time>2020-10-07T08:52:30.152Z</time>
      </trkpt>
      <trkpt lat="55.38166" lon="25.95933">
        <ele>140.925912</ele>
        <time>2020-10-07T08:52:32.620Z</time>
      </trkpt>
      <trkpt lat="55.38155" lon="25.95936">
        <ele>140.915124</ele>
        <time>2020-10-07T08:52:35.101Z</time>
      </trkpt>
      <trkpt lat="55.38138" lon="25.95944">
        <ele>140.896912</ele>
        <time>2020-10-07T08:52:38.842Z</time>
      </trkpt>
      <trkpt lat="55.37661" lon="25.96281">
        <ele>141.455119</ele>
        <time>2020-10-07T08:54:38.082Z</time>
      </trkpt>
      <trkpt lat="55.37557" lon="25.96377">
        <ele>141.079748</ele>
        <time>2020-10-07T08:55:01.360Z</time>
      </trkpt>
      <trkpt lat="55.3753" lon="25.96377">
        <ele>140.928861</ele>
        <time>2020-10-07T08:55:06.858Z</time>
      </trkpt>
      <trkpt lat="55.37505" lon="25.96358">
        <ele>140.776909</ele>
        <time>2020-10-07T08:55:12.330Z</time>
      </trkpt>
      <trkpt lat="55.37434" lon="25.96258">
        <ele>140.29806</ele>
        <time>2020-10-07T08:55:31.182Z</time>
      </trkpt>
      <trkpt lat="55.37421" lon="25.96241">
        <ele>140.349673</ele>
        <time>2020-10-07T08:55:34.682Z</time>
      </trkpt>
      <trkpt lat="55.3741" lon="25.9623">
        <ele>140.38874</ele>
        <time>2020-10-07T08:55:37.406Z</time>
      </trkpt>
      <trkpt lat="55.37374" lon="25.9619">
        <ele>140.524203</ele>
        <time>2020-10-07T08:55:46.721Z</time>
      </trkpt>
      <trkpt lat="55.37158" lon="25.95964">
        <ele>142.864553</ele>
        <time>2020-10-07T08:56:49.925Z</time>
      </trkpt>
      <trkpt lat="55.37115" lon="25.95918">
        <ele>143.951245</ele>
        <time>2020-10-07T08:57:07.934Z</time>
      </trkpt>
      <trkpt lat="55.37078" lon="25.95872">
        <ele>145.591496</ele>
        <time>2020-10-07T08:57:24.594Z</time>
      </trkpt>
      <trkpt lat="55.3705" lon="25.95825">
        <ele>147.026276</ele>
        <time>2020-10-07T08:57:39.647Z</time>
      </trkpt>
      <trkpt lat="55.37006" lon="25.95734">
        <ele>149.500088</ele>
        <time>2020-10-07T08:58:06.023Z</time>
      </trkpt>
      <trkpt lat="55.37" lon="25.95721">
        <ele>149.852021</ele>
        <time>2020-10-07T08:58:09.444Z</time>
      </trkpt>
      <trkpt lat="55.36955" lon="25.95627">
        <ele>151.758983</ele>
        <time>2020-10-07T08:58:34.832Z</time>
      </trkpt>
      <trkpt lat="55.36895" lon="25.95476">
        <ele>154.600023</ele>
        <time>2020-10-07T08:59:08.560Z</time>
      </trkpt>
      <trkpt lat="55.36887" lon="25.95453">
        <ele>154.850195</ele>
        <time>2020-10-07T08:59:13.388Z</time>
      </trkpt>
      <trkpt lat="55.37013" lon="25.94912">
        <ele>155.946414</ele>
        <time>2020-10-07T09:00:35.497Z</time>
      </trkpt>
      <trkpt lat="55.37021" lon="25.94876">
        <ele>155.893346</ele>
        <time>2020-10-07T09:00:39.692Z</time>
      </trkpt>
      <trkpt lat="55.37028" lon="25.94855">
        <ele>155.649831</ele>
        <time>2020-10-07T09:00:42.180Z</time>
      </trkpt>
      <trkpt lat="55.37096" lon="25.94828">
        <ele>154.372601</ele>
        <time>2020-10-07T09:00:54.564Z</time>
      </trkpt>
      <trkpt lat="55.37124" lon="25.94812">
        <ele>153.836114</ele>
        <time>2020-10-07T09:00:59.784Z</time>
      </trkpt>
      <trkpt lat="55.37148" lon="25.94797">
        <ele>153.375727</ele>
        <time>2020-10-07T09:01:04.210Z</time>
      </trkpt>
      <trkpt lat="55.37162" lon="25.94784">
        <ele>153.093529</ele>
        <time>2020-10-07T09:01:06.961Z</time>
      </trkpt>
      <trkpt lat="55.37172" lon="25.94774">
        <ele>152.873521</ele>
        <time>2020-10-07T09:01:09.018Z</time>
      </trkpt>
      <trkpt lat="55.37198" lon="25.94735">
        <ele>152.242721</ele>
        <time>2020-10-07T09:01:14.857Z</time>
      </trkpt>
      <trkpt lat="55.37212" lon="25.9471">
        <ele>151.855786</ele>
        <time>2020-10-07T09:01:18.438Z</time>
      </trkpt>
      <trkpt lat="55.37266" lon="25.9461">
        <ele>150.347658</ele>
        <time>2020-10-07T09:01:32.115Z</time>
      </trkpt>
      <trkpt lat="55.37306" lon="25.94539">
        <ele>149.249377</ele>
        <time>2020-10-07T09:01:42.454Z</time>
      </trkpt>
      <trkpt lat="55.37326" lon="25.94503">
        <ele>149.055734</ele>
        <time>2020-10-07T09:01:47.737Z</time>
      </trkpt>
      <trkpt lat="55.37356" lon="25.94448">
        <ele>148.803854</ele>
        <time>2020-10-07T09:01:55.888Z</time>
      </trkpt>
      <trkpt lat="55.37409" lon="25.94359">
        <ele>148.376902</ele>
        <time>2020-10-07T09:02:10.574Z</time>
      </trkpt>
      <trkpt lat="55.37457" lon="25.94274">
        <ele>148.717521</ele>
        <time>2020-10-07T09:02:27.389Z</time>
      </trkpt>
      <trkpt lat="55.37526" lon="25.94149">
        <ele>150.45788</ele>
        <time>2020-10-07T09:02:57.919Z</time>
      </trkpt>
      <trkpt lat="55.37579" lon="25.94059">
        <ele>151.70161</ele>
        <time>2020-10-07T09:03:21.473Z</time>
      </trkpt>
      <trkpt lat="55.37586" lon="25.94047">
        <ele>151.857864</ele>
        <time>2020-10-07T09:03:24.711Z</time>
      </trkpt>
      <trkpt lat="55.3767" lon="25.93909">
        <ele>153.597215</ele>
        <time>2020-10-07T09:03:57.291Z</time>
      </trkpt>
      <trkpt lat="55.37839" lon="25.93661">
        <ele>155.55941</ele>
        <time>2020-10-07T09:04:51.117Z</time>
      </trkpt>
      <trkpt lat="55.37877" lon="25.93597">
        <ele>156.633453</ele>
        <time>2020-10-07T09:05:06.582Z</time>
      </trkpt>
      <trkpt lat="55.37773" lon="25.93498">
        <ele>159.030684</ele>
        <time>2020-10-07T09:05:45.594Z</time>
      </trkpt>
      <trkpt lat="55.37758" lon="25.93466">
        <ele>159.532436</ele>
        <time>2020-10-07T09:05:53.490Z</time>
      </trkpt>
      <trkpt lat="55.37752" lon="25.93427">
        <ele>160.02031</ele>
        <time>2020-10-07T09:06:01.304Z</time>
      </trkpt>
      <trkpt lat="55.37751" lon="25.93384">
        <ele>160.532453</ele>
        <time>2020-10-07T09:06:09.740Z</time>
      </trkpt>
      <trkpt lat="55.37748" lon="25.93234">
        <ele>162.335048</ele>
        <time>2020-10-07T09:06:35.646Z</time>
      </trkpt>
      <trkpt lat="55.37745" lon="25.93154">
        <ele>163.06454</ele>
        <time>2020-10-07T09:06:48.248Z</time>
      </trkpt>
      <trkpt lat="55.37743" lon="25.93119">
        <ele>163.272216</ele>
        <time>2020-10-07T09:06:53.759Z</time>
      </trkpt>
      <trkpt lat="55.37739" lon="25.93062">
        <ele>163.617287</ele>
        <time>2020-10-07T09:07:02.120Z</time>
      </trkpt>
      <trkpt lat="55.37718" lon="25.928">
        <ele>165.254256</ele>
        <time>2020-10-07T09:07:40.957Z</time>
      </trkpt>
      <trkpt lat="55.37706" lon="25.92705">
        <ele>165.912367</ele>
        <time>2020-10-07T09:07:55.677Z</time>
      </trkpt>
      <trkpt lat="55.3764" lon="25.92284">
        <ele>169.275363</ele>
        <time>2020-10-07T09:09:05.403Z</time>
      </trkpt>
      <trkpt lat="55.3764" lon="25.92225">
        <ele>169.718387</ele>
        <time>2020-10-07T09:09:14.792Z</time>
      </trkpt>
      <trkpt lat="55.3768" lon="25.91864">
        <ele>172.582487</ele>
        <time>2020-10-07T09:10:11.642Z</time>
      </trkpt>
      <trkpt lat="55.37682" lon="25.91781">
        <ele>173.383032</ele>
        <time>2020-10-07T09:10:25.264Z</time>
      </trkpt>
      <trkpt lat="55.37669" lon="25.91688">
        <ele>174.303121</ele>
        <time>2020-10-07T09:10:41.244Z</time>
      </trkpt>
      <trkpt lat="55.37647" lon="25.91553">
        <ele>175.981682</ele>
        <time>2020-10-07T09:11:06.207Z</time>
      </trkpt>
      <trkpt lat="55.37629" lon="25.91489">
        <ele>176.913343</ele>
        <time>2020-10-07T09:11:19.158Z</time>
      </trkpt>
      <trkpt lat="55.37579" lon="25.91369">
        <ele>178.87506</ele>
        <time>2020-10-07T09:11:47.062Z</time>
      </trkpt>
      <trkpt lat="55.37425" lon="25.91053">
        <ele>181.83242</ele>
        <time>2020-10-07T09:12:55.232Z</time>
      </trkpt>
      <trkpt lat="55.374" lon="25.90997">
        <ele>181.747719</ele>
        <time>2020-10-07T09:13:03.390Z</time>
      </trkpt>
      <trkpt lat="55.37388" lon="25.90964">
        <ele>181.699971</ele>
        <time>2020-10-07T09:13:07.766Z</time>
      </trkpt>
      <trkpt lat="55.37364" lon="25.90902">
        <ele>181.609424</ele>
        <time>2020-10-07T09:13:15.845Z</time>
      </trkpt>
      <trkpt lat="55.37308" lon="25.90776">
        <ele>180.600549</ele>
        <time>2020-10-07T09:13:32.180Z</time>
      </trkpt>
      <trkpt lat="55.3719" lon="25.9055">
        <ele>178.931158</ele>
        <time>2020-10-07T09:14:05.173Z</time>
      </trkpt>
      <trkpt lat="55.37167" lon="25.90493">
        <ele>178.824281</ele>
        <time>2020-10-07T09:14:13.992Z</time>
      </trkpt>
      <trkpt lat="55.37158" lon="25.90443">
        <ele>178.744737</ele>
        <time>2020-10-07T09:14:20.705Z</time>
      </trkpt>
      <trkpt lat="55.37155" lon="25.90394">
        <ele>178.670078</ele>
        <time>2020-10-07T09:14:27.086Z</time>
      </trkpt>
      <trkpt lat="55.37133" lon="25.8991">
        <ele>181.642178</ele>
        <time>2020-10-07T09:15:39.548Z</time>
      </trkpt>
      <trkpt lat="55.37115" lon="25.89494">
        <ele>186.131564</ele>
        <time>2020-10-07T09:16:53.811Z</time>
      </trkpt>
      <trkpt lat="55.37116" lon="25.89315">
        <ele>187.569092</ele>
        <time>2020-10-07T09:17:23.092Z</time>
      </trkpt>
      <trkpt lat="55.37148" lon="25.88666">
        <ele>189.758983</ele>
        <time>2020-10-07T09:18:54.329Z</time>
      </trkpt>
      <trkpt lat="55.37186" lon="25.88093">
        <ele>188.296232</ele>
        <time>2020-10-07T09:20:02.567Z</time>
      </trkpt>
      <trkpt lat="55.3719" lon="25.88023">
        <ele>187.706297</ele>
        <time>2020-10-07T09:20:09.762Z</time>
      </trkpt>
      <trkpt lat="55.37186" lon="25.87945">
        <ele>187.054025</ele>
        <time>2020-10-07T09:20:17.655Z</time>
      </trkpt>
      <trkpt lat="55.37162" lon="25.87884">
        <ele>186.4338</ele>
        <time>2020-10-07T09:20:25.054Z</time>
      </trkpt>
      <trkpt lat="55.36994" lon="25.87735">
        <ele>184.060415</ele>
        <time>2020-10-07T09:21:00.196Z</time>
      </trkpt>
      <trkpt lat="55.36988" lon="25.87723">
        <ele>183.955587</ele>
        <time>2020-10-07T09:21:02.187Z</time>
      </trkpt>
      <trkpt lat="55.36967" lon="25.8766">
        <ele>183.785871</ele>
        <time>2020-10-07T09:21:10.762Z</time>
      </trkpt>
      <trkpt lat="55.36932" lon="25.87594">
        <ele>183.573781</ele>
        <time>2020-10-07T09:21:21.636Z</time>
      </trkpt>
      <trkpt lat="55.36848" lon="25.87481">
        <ele>183.17701</ele>
        <time>2020-10-07T09:21:44.145Z</time>
      </trkpt>
      <trkpt lat="55.36797" lon="25.87386">
        <ele>183.013095</ele>
        <time>2020-10-07T09:21:59.331Z</time>
      </trkpt>
      <trkpt lat="55.36707" lon="25.87177">
        <ele>183.424018</ele>
        <time>2020-10-07T09:22:32.676Z</time>
      </trkpt>
      <trkpt lat="55.36664" lon="25.87072">
        <ele>184.134284</ele>
        <time>2020-10-07T09:22:52.411Z</time>
      </trkpt>
      <trkpt lat="55.36541" lon="25.86785">
        <ele>187.398502</ele>
        <time>2020-10-07T09:23:54.829Z</time>
      </trkpt>
      <trkpt lat="55.36493" lon="25.86623">
        <ele>187.753932</ele>
        <time>2020-10-07T09:24:20.635Z</time>
      </trkpt>
      <trkpt lat="55.36481" lon="25.86574">
        <ele>187.760437</ele>
        <time>2020-10-07T09:24:27.090Z</time>
      </trkpt>
      <trkpt lat="55.36441" lon="25.86395">
        <ele>187.210504</ele>
        <time>2020-10-07T09:24:48.594Z</time>
      </trkpt>
      <trkpt lat="55.36424" lon="25.86333">
        <ele>186.720106</ele>
        <time>2020-10-07T09:24:55.755Z</time>
      </trkpt>
      <trkpt lat="55.36345" lon="25.86104">
        <ele>184.535377</ele>
        <time>2020-10-07T09:25:23.949Z</time>
      </trkpt>
      <trkpt lat="55.36316" lon="25.86001">
        <ele>183.417462</ele>
        <time>2020-10-07T09:25:35.809Z</time>
      </trkpt>
      <trkpt lat="55.36285" lon="25.85851">
        <ele>181.480363</ele>
        <time>2020-10-07T09:25:52.048Z</time>
      </trkpt>
      <trkpt lat="55.36248" lon="25.85681">
        <ele>178.555617</ele>
        <time>2020-10-07T09:26:09.139Z</time>
      </trkpt>
      <trkpt lat="55.36242" lon="25.85655">
        <ele>178.096711</ele>
        <time>2020-10-07T09:26:11.793Z</time>
      </trkpt>
      <trkpt lat="55.36235" lon="25.85636">
        <ele>177.741201</ele>
        <time>2020-10-07T09:26:13.864Z</time>
      </trkpt>
      <trkpt lat="55.36227" lon="25.85622">
        <ele>177.413258</ele>
        <time>2020-10-07T09:26:15.617Z</time>
      </trkpt>
      <trkpt lat="55.362" lon="25.85593">
        <ele>176.363942</ele>
        <time>2020-10-07T09:26:20.733Z</time>
      </trkpt>
      <trkpt lat="55.35962" lon="25.85395">
        <ele>169.831309</ele>
        <time>2020-10-07T09:27:03.447Z</time>
      </trkpt>
      <trkpt lat="55.35956" lon="25.85393">
        <ele>169.757292</ele>
        <time>2020-10-07T09:27:04.409Z</time>
      </trkpt>
      <trkpt lat="55.35992" lon="25.84908">
        <ele>173.448364</ele>
        <time>2020-10-07T09:28:34.035Z</time>
      </trkpt>
      <trkpt lat="55.3603" lon="25.84392">
        <ele>175.004534</ele>
        <time>2020-10-07T09:29:43.992Z</time>
      </trkpt>
      <trkpt lat="55.36085" lon="25.83641">
        <ele>174.417473</ele>
        <time>2020-10-07T09:31:15.932Z</time>
      </trkpt>
      <trkpt lat="55.36094" lon="25.83522">
        <ele>174.667012</ele>
        <time>2020-10-07T09:31:32.923Z</time>
      </trkpt>
      <trkpt lat="55.36155" lon="25.8269">
        <ele>177.903703</ele>
        <time>2020-10-07T09:33:30.711Z</time>
      </trkpt>
      <trkpt lat="55.3619" lon="25.82158">
        <ele>182.387211</ele>
        <time>2020-10-07T09:35:01.713Z</time>
      </trkpt>
      <trkpt lat="55.36199" lon="25.82014">
        <ele>180.879532</ele>
        <time>2020-10-07T09:35:17.515Z</time>
      </trkpt>
      <trkpt lat="55.36191" lon="25.82011">
        <ele>180.719309</ele>
        <time>2020-10-07T09:35:18.650Z</time>
      </trkpt>
      <trkpt lat="55.36038" lon="25.81935">
        <ele>176.37766</ele>
        <time>2020-10-07T09:35:44.486Z</time>
      </trkpt>
      <trkpt lat="55.35764" lon="25.81774">
        <ele>166.046928</ele>
        <time>2020-10-07T09:36:30.611Z</time>
      </trkpt>
      <trkpt lat="55.35693" lon="25.81729">
        <ele>164.507852</ele>
        <time>2020-10-07T09:36:42.915Z</time>
      </trkpt>
      <trkpt lat="55.35646" lon="25.81706">
        <ele>163.62565</ele>
        <time>2020-10-07T09:36:51.486Z</time>
      </trkpt>
      <trkpt lat="55.35619" lon="25.81698">
        <ele>163.113875</ele>
        <time>2020-10-07T09:36:56.651Z</time>
      </trkpt>
      <trkpt lat="55.35598" lon="25.81693">
        <ele>162.732332</ele>
        <time>2020-10-07T09:37:01.135Z</time>
      </trkpt>
      <trkpt lat="55.3557" lon="25.81687">
        <ele>162.526849</ele>
        <time>2020-10-07T09:37:07.198Z</time>
      </trkpt>
      <trkpt lat="55.35513" lon="25.81679">
        <ele>163.037367</ele>
        <time>2020-10-07T09:37:20.962Z</time>
      </trkpt>
      <trkpt lat="55.35494" lon="25.81676">
        <ele>163.209314</ele>
        <time>2020-10-07T09:37:26.464Z</time>
      </trkpt>
      <trkpt lat="55.35373" lon="25.81659">
        <ele>164.431115</ele>
        <time>2020-10-07T09:38:00.590Z</time>
      </trkpt>
      <trkpt lat="55.35316" lon="25.8164">
        <ele>165.200306</ele>
        <time>2020-10-07T09:38:16.332Z</time>
      </trkpt>
      <trkpt lat="55.35256" lon="25.81606">
        <ele>166.051844</ele>
        <time>2020-10-07T09:38:33.929Z</time>
      </trkpt>
      <trkpt lat="55.35193" lon="25.81569">
        <ele>166.568526</ele>
        <time>2020-10-07T09:38:52.372Z</time>
      </trkpt>
      <trkpt lat="55.35154" lon="25.81546">
        <ele>166.710933</ele>
        <time>2020-10-07T09:39:02.778Z</time>
      </trkpt>
      <trkpt lat="55.35123" lon="25.81516">
        <ele>166.834717</ele>
        <time>2020-10-07T09:39:11.048Z</time>
      </trkpt>
      <trkpt lat="55.35104" lon="25.81495">
        <ele>166.913334</ele>
        <time>2020-10-07T09:39:16.231Z</time>
      </trkpt>
      <trkpt lat="55.35095" lon="25.81487">
        <ele>166.949115</ele>
        <time>2020-10-07T09:39:18.632Z</time>
      </trkpt>
      <trkpt lat="55.35023" lon="25.81449">
        <ele>166.278194</ele>
        <time>2020-10-07T09:39:33.397Z</time>
      </trkpt>
      <trkpt lat="55.3501" lon="25.81438">
        <ele>166.002371</ele>
        <time>2020-10-07T09:39:36.003Z</time>
      </trkpt>
      <trkpt lat="55.34991" lon="25.8141">
        <ele>165.514959</ele>
        <time>2020-10-07T09:39:40.589Z</time>
      </trkpt>
      <trkpt lat="55.34966" lon="25.81355">
        <ele>164.754034</ele>
        <time>2020-10-07T09:39:47.547Z</time>
      </trkpt>
      <trkpt lat="55.3495" lon="25.81343">
        <ele>164.426499</ele>
        <time>2020-10-07T09:39:50.554Z</time>
      </trkpt>
      <trkpt lat="55.34943" lon="25.81339">
        <ele>164.274472</ele>
        <time>2020-10-07T09:39:51.824Z</time>
      </trkpt>
      <trkpt lat="55.34803" lon="25.8126">
        <ele>160.465572</ele>
        <time>2020-10-07T09:40:15.724Z</time>
      </trkpt>
      <trkpt lat="55.34774" lon="25.81244">
        <ele>159.606834</ele>
        <time>2020-10-07T09:40:20.865Z</time>
      </trkpt>
      <trkpt lat="55.34746" lon="25.81231">
        <ele>158.785421</ele>
        <time>2020-10-07T09:40:25.855Z</time>
      </trkpt>
      <trkpt lat="55.34708" lon="25.81216">
        <ele>158.237002</ele>
        <time>2020-10-07T09:40:32.601Z</time>
      </trkpt>
      <trkpt lat="55.34631" lon="25.81171">
        <ele>157.405009</ele>
        <time>2020-10-07T09:40:47.281Z</time>
      </trkpt>
      <trkpt lat="55.34466" lon="25.80991">
        <ele>157.322048</ele>
        <time>2020-10-07T09:41:33.835Z</time>
      </trkpt>
      <trkpt lat="55.34415" lon="25.80941">
        <ele>157.586353</ele>
        <time>2020-10-07T09:41:48.637Z</time>
      </trkpt>
      <trkpt lat="55.34363" lon="25.80901">
        <ele>157.603957</ele>
        <time>2020-10-07T09:42:02.280Z</time>
      </trkpt>
      <trkpt lat="55.34338" lon="25.80885">
        <ele>157.612195</ele>
        <time>2020-10-07T09:42:08.678Z</time>
      </trkpt>
      <trkpt lat="55.34312" lon="25.80878">
        <ele>157.620404</ele>
        <time>2020-10-07T09:42:14.850Z</time>
      </trkpt>
      <trkpt lat="55.34306" lon="25.80882">
        <ele>157.622522</ele>
        <time>2020-10-07T09:42:16.542Z</time>
      </trkpt>
      <trkpt lat="55.34256" lon="25.80962">
        <ele>157.546321</ele>
        <time>2020-10-07T09:42:30.001Z</time>
      </trkpt>
      <trkpt lat="55.34195" lon="25.81059">
        <ele>156.599763</ele>
        <time>2020-10-07T09:42:45.683Z</time>
      </trkpt>
      <trkpt lat="55.34162" lon="25.81109">
        <ele>156.105908</ele>
        <time>2020-10-07T09:42:53.658Z</time>
      </trkpt>
      <trkpt lat="55.34133" lon="25.81145">
        <ele>155.697244</ele>
        <time>2020-10-07T09:43:00.324Z</time>
      </trkpt>
      <trkpt lat="55.34105" lon="25.81166">
        <ele>155.439905</ele>
        <time>2020-10-07T09:43:05.958Z</time>
      </trkpt>
      <trkpt lat="55.33795" lon="25.81404">
        <ele>153.283928</ele>
        <time>2020-10-07T09:44:14.840Z</time>
      </trkpt>
      <trkpt lat="55.33711" lon="25.81479">
        <ele>152.562201</ele>
        <time>2020-10-07T09:44:34.151Z</time>
      </trkpt>
      <trkpt lat="55.33645" lon="25.81564">
        <ele>151.941207</ele>
        <time>2020-10-07T09:44:50.119Z</time>
      </trkpt>
      <trkpt lat="55.33621" lon="25.81606">
        <ele>151.641598</ele>
        <time>2020-10-07T09:44:56.713Z</time>
      </trkpt>
      <trkpt lat="55.33593" lon="25.81663">
        <ele>151.262608</ele>
        <time>2020-10-07T09:45:04.892Z</time>
      </trkpt>
      <trkpt lat="55.33548" lon="25.81768">
        <ele>150.594949</ele>
        <time>2020-10-07T09:45:19.488Z</time>
      </trkpt>
      <trkpt lat="55.3353" lon="25.81814">
        <ele>150.31086</ele>
        <time>2020-10-07T09:45:25.749Z</time>
      </trkpt>
      <trkpt lat="55.3352" lon="25.81847">
        <ele>150.266818</ele>
        <time>2020-10-07T09:45:30.097Z</time>
      </trkpt>
      <trkpt lat="55.33493" lon="25.81951">
        <ele>150.168947</ele>
        <time>2020-10-07T09:45:43.650Z</time>
      </trkpt>
      <trkpt lat="55.3344" lon="25.82099">
        <ele>150.077698</ele>
        <time>2020-10-07T09:46:05.891Z</time>
      </trkpt>
      <trkpt lat="55.33294" lon="25.82306">
        <ele>152.239982</ele>
        <time>2020-10-07T09:46:55.937Z</time>
      </trkpt>
      <trkpt lat="55.33147" lon="25.8246">
        <ele>155.889751</ele>
        <time>2020-10-07T09:47:50.576Z</time>
      </trkpt>
      <trkpt lat="55.33031" lon="25.82603">
        <ele>158.397615</ele>
        <time>2020-10-07T09:48:33.170Z</time>
      </trkpt>
      <trkpt lat="55.32985" lon="25.8266">
        <ele>159.137908</ele>
        <time>2020-10-07T09:48:47.830Z</time>
      </trkpt>
      <trkpt lat="55.32942" lon="25.82736">
        <ele>159.511842</ele>
        <time>2020-10-07T09:49:03.070Z</time>
      </trkpt>
      <trkpt lat="55.32817" lon="25.83048">
        <ele>160.210097</ele>
        <time>2020-10-07T09:49:54.505Z</time>
      </trkpt>
      <trkpt lat="55.32796" lon="25.83081">
        <ele>160.23188</ele>
        <time>2020-10-07T09:50:00.312Z</time>
      </trkpt>
      <trkpt lat="55.32715" lon="25.83177">
        <ele>160.160136</ele>
        <time>2020-10-07T09:50:20.626Z</time>
      </trkpt>
      <trkpt lat="55.32688" lon="25.83208">
        <ele>160.111323</ele>
        <time>2020-10-07T09:50:28.165Z</time>
      </trkpt>
      <trkpt lat="55.32681" lon="25.83214">
        <ele>160.099585</ele>
        <time>2020-10-07T09:50:29.416Z</time>
      </trkpt>
      <trkpt lat="55.3266" lon="25.83226">
        <ele>160.065967</ele>
        <time>2020-10-07T09:50:35.473Z</time>
      </trkpt>
      <trkpt lat="55.3264" lon="25.83228">
        <ele>160.035502</ele>
        <time>2020-10-07T09:50:39.170Z</time>
      </trkpt>
      <trkpt lat="55.32623" lon="25.83222">
        <ele>160.010495</ele>
        <time>2020-10-07T09:50:44.262Z</time>
      </trkpt>
      <trkpt lat="55.32588" lon="25.83189">
        <ele>159.844706</ele>
        <time>2020-10-07T09:50:53.350Z</time>
      </trkpt>
      <trkpt lat="55.32574" lon="25.83171">
        <ele>159.745823</ele>
        <time>2020-10-07T09:50:56.398Z</time>
      </trkpt>
      <trkpt lat="55.32566" lon="25.83156">
        <ele>159.68161</ele>
        <time>2020-10-07T09:51:00.300Z</time>
      </trkpt>
      <trkpt lat="55.32544" lon="25.831">
        <ele>159.457529</ele>
        <time>2020-10-07T09:51:08.572Z</time>
      </trkpt>
      <trkpt lat="55.32516" lon="25.83002">
        <ele>159.101356</ele>
        <time>2020-10-07T09:51:20.756Z</time>
      </trkpt>
      <trkpt lat="55.32487" lon="25.82964">
        <ele>158.681859</ele>
        <time>2020-10-07T09:51:27.573Z</time>
      </trkpt>
      <trkpt lat="55.32427" lon="25.82914">
        <ele>157.074637</ele>
        <time>2020-10-07T09:51:39.375Z</time>
      </trkpt>
      <trkpt lat="55.32397" lon="25.82894">
        <ele>156.279262</ele>
        <time>2020-10-07T09:51:44.836Z</time>
      </trkpt>
      <trkpt lat="55.32344" lon="25.82877">
        <ele>154.989544</ele>
        <time>2020-10-07T09:51:53.504Z</time>
      </trkpt>
      <trkpt lat="55.3221" lon="25.82878">
        <ele>151.620484</ele>
        <time>2020-10-07T09:52:15.501Z</time>
      </trkpt>
      <trkpt lat="55.3218" lon="25.82855">
        <ele>150.78375</ele>
        <time>2020-10-07T09:52:21.411Z</time>
      </trkpt>
      <trkpt lat="55.32155" lon="25.82793">
        <ele>149.991406</ele>
        <time>2020-10-07T09:52:29.426Z</time>
      </trkpt>
      <trkpt lat="55.32147" lon="25.82766">
        <ele>149.913928</ele>
        <time>2020-10-07T09:52:32.690Z</time>
      </trkpt>
      <trkpt lat="55.32143" lon="25.82751">
        <ele>149.872075</ele>
        <time>2020-10-07T09:52:34.591Z</time>
      </trkpt>
      <trkpt lat="55.3214" lon="25.82737">
        <ele>149.833713</ele>
        <time>2020-10-07T09:52:36.344Z</time>
      </trkpt>
      <trkpt lat="55.32135" lon="25.82716">
        <ele>149.77635</ele>
        <time>2020-10-07T09:52:38.847Z</time>
      </trkpt>
      <trkpt lat="55.32133" lon="25.82702">
        <ele>149.740433</ele>
        <time>2020-10-07T09:52:40.523Z</time>
      </trkpt>
      <trkpt lat="55.32129" lon="25.82543">
        <ele>149.335148</ele>
        <time>2020-10-07T09:53:00.365Z</time>
      </trkpt>
      <trkpt lat="55.32115" lon="25.82448">
        <ele>149.379845</ele>
        <time>2020-10-07T09:53:13.519Z</time>
      </trkpt>
      <trkpt lat="55.32094" lon="25.82373">
        <ele>149.541361</ele>
        <time>2020-10-07T09:53:25.167Z</time>
      </trkpt>
      <trkpt lat="55.32061" lon="25.8229">
        <ele>149.736755</ele>
        <time>2020-10-07T09:53:38.864Z</time>
      </trkpt>
      <trkpt lat="55.32035" lon="25.82239">
        <ele>149.865895</ele>
        <time>2020-10-07T09:53:47.939Z</time>
      </trkpt>
      <trkpt lat="55.32018" lon="25.82216">
        <ele>149.898269</ele>
        <time>2020-10-07T09:53:53.065Z</time>
      </trkpt>
      <trkpt lat="55.31995" lon="25.82191">
        <ele>149.938026</ele>
        <time>2020-10-07T09:53:59.295Z</time>
      </trkpt>
      <trkpt lat="55.31979" lon="25.82176">
        <ele>149.964663</ele>
        <time>2020-10-07T09:54:03.436Z</time>
      </trkpt>
      <trkpt lat="55.31867" lon="25.821">
        <ele>150.147564</ele>
        <time>2020-10-07T09:54:30.532Z</time>
      </trkpt>
      <trkpt lat="55.31666" lon="25.81928">
        <ele>150.934627</ele>
        <time>2020-10-07T09:55:22.814Z</time>
      </trkpt>
      <trkpt lat="55.31613" lon="25.819">
        <ele>151.324692</ele>
        <time>2020-10-07T09:55:36.358Z</time>
      </trkpt>
      <trkpt lat="55.31528" lon="25.81869">
        <ele>152.024125</ele>
        <time>2020-10-07T09:55:59.267Z</time>
      </trkpt>
      <trkpt lat="55.31502" lon="25.81864">
        <ele>152.36052</ele>
        <time>2020-10-07T09:56:06.320Z</time>
      </trkpt>
      <trkpt lat="55.31365" lon="25.81834">
        <ele>154.197016</ele>
        <time>2020-10-07T09:56:45.037Z</time>
      </trkpt>
      <trkpt lat="55.31299" lon="25.81825">
        <ele>154.539044</ele>
        <time>2020-10-07T09:57:02.755Z</time>
      </trkpt>
      <trkpt lat="55.31198" lon="25.81827">
        <ele>155.041902</ele>
        <time>2020-10-07T09:57:26.709Z</time>
      </trkpt>
      <trkpt lat="55.31167" lon="25.81824">
        <ele>155.009409</ele>
        <time>2020-10-07T09:57:33.101Z</time>
      </trkpt>
      <trkpt lat="55.31149" lon="25.81823">
        <ele>154.900957</ele>
        <time>2020-10-07T09:57:36.791Z</time>
      </trkpt>
      <trkpt lat="55.31131" lon="25.81823">
        <ele>154.796726</ele>
        <time>2020-10-07T09:57:40.318Z</time>
      </trkpt>
      <trkpt lat="55.31118" lon="25.81824">
        <ele>154.713921</ele>
        <time>2020-10-07T09:57:43.081Z</time>
      </trkpt>
      <trkpt lat="55.31067" lon="25.81831">
        <ele>154.410427</ele>
        <time>2020-10-07T09:57:53.119Z</time>
      </trkpt>
      <trkpt lat="55.31035" lon="25.81843">
        <ele>154.214527</ele>
        <time>2020-10-07T09:57:59.555Z</time>
      </trkpt>
      <trkpt lat="55.30924" lon="25.81925">
        <ele>154.192947</ele>
        <time>2020-10-07T09:58:24.085Z</time>
      </trkpt>
      <trkpt lat="55.30897" lon="25.81936">
        <ele>154.239525</ele>
        <time>2020-10-07T09:58:30.457Z</time>
      </trkpt>
      <trkpt lat="55.30865" lon="25.81933">
        <ele>154.293931</ele>
        <time>2020-10-07T09:58:38.612Z</time>
      </trkpt>
      <trkpt lat="55.30798" lon="25.81887">
        <ele>155.398885</ele>
        <time>2020-10-07T09:58:58.903Z</time>
      </trkpt>
      <trkpt lat="55.30755" lon="25.81868">
        <ele>156.472452</ele>
        <time>2020-10-07T09:59:12.993Z</time>
      </trkpt>
      <trkpt lat="55.30711" lon="25.81861">
        <ele>157.557776</ele>
        <time>2020-10-07T09:59:28.382Z</time>
      </trkpt>
      <trkpt lat="55.30651" lon="25.81863">
        <ele>159.012967</ele>
        <time>2020-10-07T09:59:49.334Z</time>
      </trkpt>
      <trkpt lat="55.30604" lon="25.81868">
        <ele>160.010794</ele>
        <time>2020-10-07T10:00:05.150Z</time>
      </trkpt>
      <trkpt lat="55.30576" lon="25.81871">
        <ele>160.592157</ele>
        <time>2020-10-07T10:00:13.952Z</time>
      </trkpt>
      <trkpt lat="55.30478" lon="25.8187">
        <ele>162.589659</ele>
        <time>2020-10-07T10:00:42.731Z</time>
      </trkpt>
      <trkpt lat="55.30404" lon="25.81849">
        <ele>162.751626</ele>
        <time>2020-10-07T10:01:00.817Z</time>
      </trkpt>
      <trkpt lat="55.30358" lon="25.81828">
        <ele>162.853152</ele>
        <time>2020-10-07T10:01:11.038Z</time>
      </trkpt>
      <trkpt lat="55.30293" lon="25.81768">
        <ele>162.878603</ele>
        <time>2020-10-07T10:01:26.350Z</time>
      </trkpt>
      <trkpt lat="55.30017" lon="25.81334">
        <ele>161.672395</ele>
        <time>2020-10-07T10:02:43.163Z</time>
      </trkpt>
      <trkpt lat="55.2989" lon="25.81101">
        <ele>163.035603</ele>
        <time>2020-10-07T10:03:30.981Z</time>
      </trkpt>
      <trkpt lat="55.29834" lon="25.81031">
        <ele>163.872463</ele>
        <time>2020-10-07T10:03:49.779Z</time>
      </trkpt>
      <trkpt lat="55.29768" lon="25.80964">
        <ele>164.801844</ele>
        <time>2020-10-07T10:04:10.760Z</time>
      </trkpt>
      <trkpt lat="55.29703" lon="25.80896">
        <ele>165.762737</ele>
        <time>2020-10-07T10:04:31.655Z</time>
      </trkpt>
      <trkpt lat="55.29637" lon="25.80827">
        <ele>166.733289</ele>
        <time>2020-10-07T10:04:53.095Z</time>
      </trkpt>
      <trkpt lat="55.2954" lon="25.80658">
        <ele>167.653347</ele>
        <time>2020-10-07T10:05:28.384Z</time>
      </trkpt>
      <trkpt lat="55.29487" lon="25.80594">
        <ele>167.991693</ele>
        <time>2020-10-07T10:05:42.987Z</time>
      </trkpt>
      <trkpt lat="55.29291" lon="25.80391">
        <ele>167.247638</ele>
        <time>2020-10-07T10:06:29.852Z</time>
      </trkpt>
      <trkpt lat="55.29123" lon="25.80271">
        <ele>167.530196</ele>
        <time>2020-10-07T10:07:10.928Z</time>
      </trkpt>
      <trkpt lat="55.28944" lon="25.80047">
        <ele>169.69363</ele>
        <time>2020-10-07T10:08:08.671Z</time>
      </trkpt>
      <trkpt lat="55.28827" lon="25.79864">
        <ele>171.94566</ele>
        <time>2020-10-07T10:08:53.896Z</time>
      </trkpt>
      <trkpt lat="55.2875" lon="25.7973">
        <ele>173.648622</ele>
        <time>2020-10-07T10:09:24.867Z</time>
      </trkpt>
      <trkpt lat="55.28714" lon="25.79668">
        <ele>174.358597</ele>
        <time>2020-10-07T10:09:39.237Z</time>
      </trkpt>
      <trkpt lat="55.28662" lon="25.79605">
        <ele>175.208733</ele>
        <time>2020-10-07T10:09:56.938Z</time>
      </trkpt>
      <trkpt lat="55.2851" lon="25.79503">
        <ele>177.107028</ele>
        <time>2020-10-07T10:10:41.196Z</time>
      </trkpt>
      <trkpt lat="55.28404" lon="25.794">
        <ele>178.108747</ele>
        <time>2020-10-07T10:11:12.286Z</time>
      </trkpt>
      <trkpt lat="55.28214" lon="25.79235">
        <ele>178.23503</ele>
        <time>2020-10-07T10:11:59.397Z</time>
      </trkpt>
      <trkpt lat="55.28074" lon="25.79142">
        <ele>177.815974</ele>
        <time>2020-10-07T10:12:30.746Z</time>
      </trkpt>
      <trkpt lat="55.28028" lon="25.79103">
        <ele>177.63778</ele>
        <time>2020-10-07T10:12:41.523Z</time>
      </trkpt>
      <trkpt lat="55.27717" lon="25.78694">
        <ele>175.802874</ele>
        <time>2020-10-07T10:14:03.321Z</time>
      </trkpt>
      <trkpt lat="55.27476" lon="25.78308">
        <ele>171.114618</ele>
        <time>2020-10-07T10:15:03.616Z</time>
      </trkpt>
      <trkpt lat="55.27374" lon="25.78122">
        <ele>167.907365</ele>
        <time>2020-10-07T10:15:28.860Z</time>
      </trkpt>
      <trkpt lat="55.27329" lon="25.78043">
        <ele>166.165038</ele>
        <time>2020-10-07T10:15:39.580Z</time>
      </trkpt>
      <trkpt lat="55.2731" lon="25.78008">
        <ele>165.432728</ele>
        <time>2020-10-07T10:15:44.025Z</time>
      </trkpt>
      <trkpt lat="55.27223" lon="25.77806">
        <ele>161.605269</ele>
        <time>2020-10-07T10:16:08.279Z</time>
      </trkpt>
      <trkpt lat="55.27096" lon="25.77634">
        <ele>157.52349</ele>
        <time>2020-10-07T10:16:35.693Z</time>
      </trkpt>
      <trkpt lat="55.27078" lon="25.77617">
        <ele>157.033331</ele>
        <time>2020-10-07T10:16:39.102Z</time>
      </trkpt>
      <trkpt lat="55.27064" lon="25.77605">
        <ele>156.647015</ele>
        <time>2020-10-07T10:16:41.753Z</time>
      </trkpt>
      <trkpt lat="55.27032" lon="25.77584">
        <ele>155.809886</ele>
        <time>2020-10-07T10:16:47.559Z</time>
      </trkpt>
      <trkpt lat="55.27015" lon="25.77577">
        <ele>155.386275</ele>
        <time>2020-10-07T10:16:50.530Z</time>
      </trkpt>
      <trkpt lat="55.26997" lon="25.77572">
        <ele>154.949485</ele>
        <time>2020-10-07T10:16:53.635Z</time>
      </trkpt>
      <trkpt lat="55.26951" lon="25.77561">
        <ele>154.036058</ele>
        <time>2020-10-07T10:17:01.652Z</time>
      </trkpt>
      <trkpt lat="55.26927" lon="25.77546">
        <ele>153.526586</ele>
        <time>2020-10-07T10:17:06.098Z</time>
      </trkpt>
      <trkpt lat="55.26736" lon="25.77379">
        <ele>150.118868</ele>
        <time>2020-10-07T10:17:44.692Z</time>
      </trkpt>
      <trkpt lat="55.26729" lon="25.77371">
        <ele>150.005619</ele>
        <time>2020-10-07T10:17:46.300Z</time>
      </trkpt>
      <trkpt lat="55.2673" lon="25.77365">
        <ele>149.956315</ele>
        <time>2020-10-07T10:17:47.103Z</time>
      </trkpt>
      <trkpt lat="55.26733" lon="25.77352">
        <ele>149.859985</ele>
        <time>2020-10-07T10:17:48.642Z</time>
      </trkpt>
      <trkpt lat="55.26734" lon="25.77336">
        <ele>149.743877</ele>
        <time>2020-10-07T10:17:50.508Z</time>
      </trkpt>
      <trkpt lat="55.26732" lon="25.7731">
        <ele>149.554315</ele>
        <time>2020-10-07T10:17:53.320Z</time>
      </trkpt>
      <trkpt lat="55.26719" lon="25.77187">
        <ele>149.359423</ele>
        <time>2020-10-07T10:18:07.940Z</time>
      </trkpt>
      <trkpt lat="55.26699" lon="25.7698">
        <ele>149.732157</ele>
        <time>2020-10-07T10:18:36.646Z</time>
      </trkpt>
      <trkpt lat="55.26696" lon="25.76952">
        <ele>149.787837</ele>
        <time>2020-10-07T10:18:40.727Z</time>
      </trkpt>
      <trkpt lat="55.26678" lon="25.76764">
        <ele>152.476953</ele>
        <time>2020-10-07T10:19:12.491Z</time>
      </trkpt>
      <trkpt lat="55.26667" lon="25.76659">
        <ele>153.987159</ele>
        <time>2020-10-07T10:19:34.194Z</time>
      </trkpt>
      <trkpt lat="55.26644" lon="25.76437">
        <ele>160.000127</ele>
        <time>2020-10-07T10:20:28.798Z</time>
      </trkpt>
      <trkpt lat="55.2663" lon="25.76308">
        <ele>163.348031</ele>
        <time>2020-10-07T10:21:02.103Z</time>
      </trkpt>
      <trkpt lat="55.2661" lon="25.76134">
        <ele>166.180739</ele>
        <time>2020-10-07T10:21:39.582Z</time>
      </trkpt>
      <trkpt lat="55.26608" lon="25.76121">
        <ele>166.388078</ele>
        <time>2020-10-07T10:21:42.056Z</time>
      </trkpt>
      <trkpt lat="55.26603" lon="25.76079">
        <ele>167.081267</ele>
        <time>2020-10-07T10:21:48.944Z</time>
      </trkpt>
      <trkpt lat="55.26585" lon="25.75998">
        <ele>167.841249</ele>
        <time>2020-10-07T10:22:00.774Z</time>
      </trkpt>
      <trkpt lat="55.26473" lon="25.75679">
        <ele>165.637062</ele>
        <time>2020-10-07T10:22:40.503Z</time>
      </trkpt>
      <trkpt lat="55.26439" lon="25.75561">
        <ele>164.786644</ele>
        <time>2020-10-07T10:22:54.367Z</time>
      </trkpt>
      <trkpt lat="55.26422" lon="25.75499">
        <ele>164.34357</ele>
        <time>2020-10-07T10:23:01.916Z</time>
      </trkpt>
      <trkpt lat="55.2637" lon="25.75299">
        <ele>164.8114</ele>
        <time>2020-10-07T10:23:29.874Z</time>
      </trkpt>
      <trkpt lat="55.26322" lon="25.75117">
        <ele>166.077556</ele>
        <time>2020-10-07T10:24:03.111Z</time>
      </trkpt>
      <trkpt lat="55.26294" lon="25.74993">
        <ele>167.564324</ele>
        <time>2020-10-07T10:24:26.732Z</time>
      </trkpt>
      <trkpt lat="55.26268" lon="25.74907">
        <ele>168.658997</ele>
        <time>2020-10-07T10:24:43.903Z</time>
      </trkpt>
      <trkpt lat="55.2622" lon="25.7479">
        <ele>169.440157</ele>
        <time>2020-10-07T10:25:07.939Z</time>
      </trkpt>
      <trkpt lat="55.26001" lon="25.74229">
        <ele>171.911436</ele>
        <time>2020-10-07T10:26:44.478Z</time>
      </trkpt>
      <trkpt lat="55.25776" lon="25.73612">
        <ele>167.76329</ele>
        <time>2020-10-07T10:28:04.018Z</time>
      </trkpt>
      <trkpt lat="55.25748" lon="25.73545">
        <ele>167.456195</ele>
        <time>2020-10-07T10:28:12.429Z</time>
      </trkpt>
      <trkpt lat="55.25717" lon="25.73468">
        <ele>167.266117</ele>
        <time>2020-10-07T10:28:22.497Z</time>
      </trkpt>
      <trkpt lat="55.25698" lon="25.73417">
        <ele>167.143507</ele>
        <time>2020-10-07T10:28:29.770Z</time>
      </trkpt>
      <trkpt lat="55.2568" lon="25.73358">
        <ele>167.009437</ele>
        <time>2020-10-07T10:28:38.857Z</time>
      </trkpt>
      <trkpt lat="55.25657" lon="25.73246">
        <ele>167.667797</ele>
        <time>2020-10-07T10:28:58.211Z</time>
      </trkpt>
      <trkpt lat="55.25652" lon="25.73218">
        <ele>167.94329</ele>
        <time>2020-10-07T10:29:03.959Z</time>
      </trkpt>
      <trkpt lat="55.25638" lon="25.73119">
        <ele>168.88204</ele>
        <time>2020-10-07T10:29:21.540Z</time>
      </trkpt>
      <trkpt lat="55.25632" lon="25.73078">
        <ele>169.27208</ele>
        <time>2020-10-07T10:29:28.406Z</time>
      </trkpt>
      <trkpt lat="55.25625" lon="25.7304">
        <ele>169.640816</ele>
        <time>2020-10-07T10:29:35.507Z</time>
      </trkpt>
      <trkpt lat="55.2562" lon="25.73016">
        <ele>169.839959</ele>
        <time>2020-10-07T10:29:38.906Z</time>
      </trkpt>
      <trkpt lat="55.2559" lon="25.72927">
        <ele>169.757325</ele>
        <time>2020-10-07T10:29:54.506Z</time>
      </trkpt>
      <trkpt lat="55.2544" lon="25.72583">
        <ele>169.10566</ele>
        <time>2020-10-07T10:30:43.285Z</time>
      </trkpt>
      <trkpt lat="55.25372" lon="25.72405">
        <ele>169.423483</ele>
        <time>2020-10-07T10:31:13.683Z</time>
      </trkpt>
      <trkpt lat="55.25366" lon="25.72393">
        <ele>169.484345</ele>
        <time>2020-10-07T10:31:16.036Z</time>
      </trkpt>
      <trkpt lat="55.25342" lon="25.72342">
        <ele>169.759798</ele>
        <time>2020-10-07T10:31:25.989Z</time>
      </trkpt>
      <trkpt lat="55.25307" lon="25.72251">
        <ele>170.211405</ele>
        <time>2020-10-07T10:31:41.874Z</time>
      </trkpt>
      <trkpt lat="55.25231" lon="25.72031">
        <ele>170.869142</ele>
        <time>2020-10-07T10:32:16.965Z</time>
      </trkpt>
      <trkpt lat="55.25086" lon="25.71568">
        <ele>172.752137</ele>
        <time>2020-10-07T10:33:28.459Z</time>
      </trkpt>
      <trkpt lat="55.25063" lon="25.71504">
        <ele>173.283614</ele>
        <time>2020-10-07T10:33:40.958Z</time>
      </trkpt>
      <trkpt lat="55.24997" lon="25.71363">
        <ele>175.458942</ele>
        <time>2020-10-07T10:34:13.840Z</time>
      </trkpt>
      <trkpt lat="55.24953" lon="25.71293">
        <ele>177.15064</ele>
        <time>2020-10-07T10:34:34.340Z</time>
      </trkpt>
      <trkpt lat="55.2486" lon="25.71164">
        <ele>180.333066</ele>
        <time>2020-10-07T10:35:16.261Z</time>
      </trkpt>
      <trkpt lat="55.24714" lon="25.70961">
        <ele>183.128349</ele>
        <time>2020-10-07T10:36:14.109Z</time>
      </trkpt>
      <trkpt lat="55.24517" lon="25.70694">
        <ele>178.402772</ele>
        <time>2020-10-07T10:36:57.807Z</time>
      </trkpt>
      <trkpt lat="55.24268" lon="25.70516">
        <ele>166.264668</ele>
        <time>2020-10-07T10:37:37.740Z</time>
      </trkpt>
      <trkpt lat="55.2422" lon="25.70453">
        <ele>164.917701</ele>
        <time>2020-10-07T10:37:47.708Z</time>
      </trkpt>
      <trkpt lat="55.24159" lon="25.70355">
        <ele>163.082672</ele>
        <time>2020-10-07T10:38:04.535Z</time>
      </trkpt>
      <trkpt lat="55.24077" lon="25.70223">
        <ele>165.113983</ele>
        <time>2020-10-07T10:38:36.956Z</time>
      </trkpt>
      <trkpt lat="55.23974" lon="25.70058">
        <ele>168.044431</ele>
        <time>2020-10-07T10:39:23.332Z</time>
      </trkpt>
      <trkpt lat="55.23931" lon="25.69971">
        <ele>169.585101</ele>
        <time>2020-10-07T10:39:44.600Z</time>
      </trkpt>
      <trkpt lat="55.23903" lon="25.69897">
        <ele>170.615212</ele>
        <time>2020-10-07T10:40:00.139Z</time>
      </trkpt>
      <trkpt lat="55.23852" lon="25.69765">
        <ele>170.904633</ele>
        <time>2020-10-07T10:40:24.002Z</time>
      </trkpt>
      <trkpt lat="55.23837" lon="25.697">
        <ele>171.03221</ele>
        <time>2020-10-07T10:40:33.064Z</time>
      </trkpt>
      <trkpt lat="55.23771" lon="25.69133">
        <ele>167.484867</ele>
        <time>2020-10-07T10:41:33.568Z</time>
      </trkpt>
      <trkpt lat="55.23733" lon="25.68994">
        <ele>166.991741</ele>
        <time>2020-10-07T10:41:52.544Z</time>
      </trkpt>
      <trkpt lat="55.23715" lon="25.68902">
        <ele>167.501044</ele>
        <time>2020-10-07T10:42:06.336Z</time>
      </trkpt>
      <trkpt lat="55.23666" lon="25.68596">
        <ele>169.349277</ele>
        <time>2020-10-07T10:42:56.684Z</time>
      </trkpt>
      <trkpt lat="55.23605" lon="25.68378">
        <ele>170.668104</ele>
        <time>2020-10-07T10:43:33.550Z</time>
      </trkpt>
      <trkpt lat="55.23593" lon="25.68335">
        <ele>170.728749</ele>
        <time>2020-10-07T10:43:40.372Z</time>
      </trkpt>
      <trkpt lat="55.23561" lon="25.68168">
        <ele>170.948425</ele>
        <time>2020-10-07T10:44:02.982Z</time>
      </trkpt>
      <trkpt lat="55.23529" lon="25.67667">
        <ele>169.215772</ele>
        <time>2020-10-07T10:45:01.155Z</time>
      </trkpt>
      <trkpt lat="55.23414" lon="25.67165">
        <ele>166.25668</ele>
        <time>2020-10-07T10:46:00.565Z</time>
      </trkpt>
      <trkpt lat="55.23395" lon="25.67121">
        <ele>165.989847</ele>
        <time>2020-10-07T10:46:06.673Z</time>
      </trkpt>
      <trkpt lat="55.2337" lon="25.67081">
        <ele>165.706645</ele>
        <time>2020-10-07T10:46:13.218Z</time>
      </trkpt>
      <trkpt lat="55.23232" lon="25.66961">
        <ele>164.52393</ele>
        <time>2020-10-07T10:46:44.429Z</time>
      </trkpt>
      <trkpt lat="55.23176" lon="25.66898">
        <ele>164.066868</ele>
        <time>2020-10-07T10:46:58.256Z</time>
      </trkpt>
      <trkpt lat="55.23014" lon="25.66607">
        <ele>160.917319</ele>
        <time>2020-10-07T10:47:42.438Z</time>
      </trkpt>
      <trkpt lat="55.22971" lon="25.66498">
        <ele>158.291727</ele>
        <time>2020-10-07T10:47:54.635Z</time>
      </trkpt>
      <trkpt lat="55.22899" lon="25.66303">
        <ele>153.777173</ele>
        <time>2020-10-07T10:48:15.196Z</time>
      </trkpt>
      <trkpt lat="55.22887" lon="25.66268">
        <ele>153.025751</ele>
        <time>2020-10-07T10:48:18.939Z</time>
      </trkpt>
      <trkpt lat="55.22878" lon="25.66236">
        <ele>152.366116</ele>
        <time>2020-10-07T10:48:22.115Z</time>
      </trkpt>
      <trkpt lat="55.22869" lon="25.66201">
        <ele>151.666418</ele>
        <time>2020-10-07T10:48:25.751Z</time>
      </trkpt>
      <trkpt lat="55.22855" lon="25.66129">
        <ele>150.282495</ele>
        <time>2020-10-07T10:48:32.928Z</time>
      </trkpt>
      <trkpt lat="55.2285" lon="25.66055">
        <ele>149.266961</ele>
        <time>2020-10-07T10:48:40.473Z</time>
      </trkpt>
      <trkpt lat="55.22854" lon="25.66015">
        <ele>149.086654</ele>
        <time>2020-10-07T10:48:45.099Z</time>
      </trkpt>
      <trkpt lat="55.22874" lon="25.65917">
        <ele>148.628806</ele>
        <time>2020-10-07T10:48:57.340Z</time>
      </trkpt>
      <trkpt lat="55.22883" lon="25.65755">
        <ele>148.00766</ele>
        <time>2020-10-07T10:49:16.690Z</time>
      </trkpt>
      <trkpt lat="55.22891" lon="25.65686">
        <ele>148.05521</ele>
        <time>2020-10-07T10:49:25.326Z</time>
      </trkpt>
      <trkpt lat="55.22908" lon="25.65601">
        <ele>148.114864</ele>
        <time>2020-10-07T10:49:36.946Z</time>
      </trkpt>
      <trkpt lat="55.22942" lon="25.65458">
        <ele>148.262577</ele>
        <time>2020-10-07T10:49:58.152Z</time>
      </trkpt>
      <trkpt lat="55.22969" lon="25.65344">
        <ele>148.656617</ele>
        <time>2020-10-07T10:50:15.510Z</time>
      </trkpt>
      <trkpt lat="55.22982" lon="25.65289">
        <ele>148.843571</ele>
        <time>2020-10-07T10:50:23.814Z</time>
      </trkpt>
      <trkpt lat="55.23001" lon="25.65205">
        <ele>149.132193</ele>
        <time>2020-10-07T10:50:36.666Z</time>
      </trkpt>
      <trkpt lat="55.23024" lon="25.65053">
        <ele>149.579473</ele>
        <time>2020-10-07T10:50:58.422Z</time>
      </trkpt>
      <trkpt lat="55.23026" lon="25.65036">
        <ele>149.627105</ele>
        <time>2020-10-07T10:51:00.723Z</time>
      </trkpt>
      <trkpt lat="55.23031" lon="25.64974">
        <ele>149.797884</ele>
        <time>2020-10-07T10:51:09.086Z</time>
      </trkpt>
      <trkpt lat="55.23034" lon="25.64931">
        <ele>149.919941</ele>
        <time>2020-10-07T10:51:15.208Z</time>
      </trkpt>
      <trkpt lat="55.23038" lon="25.64885">
        <ele>150.048584</ele>
        <time>2020-10-07T10:51:21.784Z</time>
      </trkpt>
      <trkpt lat="55.23043" lon="25.64847">
        <ele>150.134131</ele>
        <time>2020-10-07T10:51:27.323Z</time>
      </trkpt>
      <trkpt lat="55.23049" lon="25.64807">
        <ele>150.214501</ele>
        <time>2020-10-07T10:51:33.203Z</time>
      </trkpt>
      <trkpt lat="55.23065" lon="25.64731">
        <ele>150.372823</ele>
        <time>2020-10-07T10:51:44.530Z</time>
      </trkpt>
      <trkpt lat="55.23093" lon="25.64587">
        <ele>150.671058</ele>
        <time>2020-10-07T10:52:04.412Z</time>
      </trkpt>
      <trkpt lat="55.23101" lon="25.64541">
        <ele>150.705398</ele>
        <time>2020-10-07T10:52:10.528Z</time>
      </trkpt>
      <trkpt lat="55.23117" lon="25.64464">
        <ele>150.721723</ele>
        <time>2020-10-07T10:52:21.035Z</time>
      </trkpt>
      <trkpt lat="55.23125" lon="25.64422">
        <ele>150.730749</ele>
        <time>2020-10-07T10:52:26.738Z</time>
      </trkpt>
      <trkpt lat="55.23127" lon="25.64415">
        <ele>150.732195</ele>
        <time>2020-10-07T10:52:27.633Z</time>
      </trkpt>
      <trkpt lat="55.23139" lon="25.64357">
        <ele>150.744523</ele>
        <time>2020-10-07T10:52:35.415Z</time>
      </trkpt>
      <trkpt lat="55.23164" lon="25.64251">
        <ele>150.826871</ele>
        <time>2020-10-07T10:52:49.983Z</time>
      </trkpt>
      <trkpt lat="55.23181" lon="25.64208">
        <ele>150.944814</ele>
        <time>2020-10-07T10:52:56.949Z</time>
      </trkpt>
      <trkpt lat="55.233" lon="25.64008">
        <ele>151.475473</ele>
        <time>2020-10-07T10:53:37.488Z</time>
      </trkpt>
      <trkpt lat="55.23326" lon="25.63946">
        <ele>151.474321</ele>
        <time>2020-10-07T10:53:47.270Z</time>
      </trkpt>
      <trkpt lat="55.23329" lon="25.63934">
        <ele>151.474116</ele>
        <time>2020-10-07T10:53:49.017Z</time>
      </trkpt>
      <trkpt lat="55.23333" lon="25.63916">
        <ele>151.473824</ele>
        <time>2020-10-07T10:53:51.347Z</time>
      </trkpt>
      <trkpt lat="55.23336" lon="25.63898">
        <ele>151.47355</ele>
        <time>2020-10-07T10:53:53.597Z</time>
      </trkpt>
      <trkpt lat="55.23346" lon="25.63829">
        <ele>151.472463</ele>
        <time>2020-10-07T10:54:02.270Z</time>
      </trkpt>
      <trkpt lat="55.23355" lon="25.6376">
        <ele>151.471534</ele>
        <time>2020-10-07T10:54:10.747Z</time>
      </trkpt>
      <trkpt lat="55.23369" lon="25.63668">
        <ele>151.471426</ele>
        <time>2020-10-07T10:54:22.478Z</time>
      </trkpt>
      <trkpt lat="55.23386" lon="25.63553">
        <ele>151.471291</ele>
        <time>2020-10-07T10:54:37.679Z</time>
      </trkpt>
      <trkpt lat="55.23395" lon="25.63496">
        <ele>151.471224</ele>
        <time>2020-10-07T10:54:45.566Z</time>
      </trkpt>
      <trkpt lat="55.23412" lon="25.6339">
        <ele>151.598251</ele>
        <time>2020-10-07T10:55:00.142Z</time>
      </trkpt>
      <trkpt lat="55.23422" lon="25.6333">
        <ele>151.698694</ele>
        <time>2020-10-07T10:55:08.345Z</time>
      </trkpt>
      <trkpt lat="55.23439" lon="25.63229">
        <ele>151.871762</ele>
        <time>2020-10-07T10:55:22.528Z</time>
      </trkpt>
      <trkpt lat="55.2345" lon="25.63175">
        <ele>151.963964</ele>
        <time>2020-10-07T10:55:30.071Z</time>
      </trkpt>
      <trkpt lat="55.23463" lon="25.63097">
        <ele>152.071491</ele>
        <time>2020-10-07T10:55:41.491Z</time>
      </trkpt>
      <trkpt lat="55.23463" lon="25.62974">
        <ele>152.225083</ele>
        <time>2020-10-07T10:55:57.448Z</time>
      </trkpt>
      <trkpt lat="55.23461" lon="25.62923">
        <ele>152.289875</ele>
        <time>2020-10-07T10:56:03.971Z</time>
      </trkpt>
      <trkpt lat="55.23458" lon="25.62876">
        <ele>152.348887</ele>
        <time>2020-10-07T10:56:10.362Z</time>
      </trkpt>
      <trkpt lat="55.23445" lon="25.6266">
        <ele>152.137065</ele>
        <time>2020-10-07T10:56:39.577Z</time>
      </trkpt>
      <trkpt lat="55.23438" lon="25.6255">
        <ele>151.996989</ele>
        <time>2020-10-07T10:56:52.084Z</time>
      </trkpt>
      <trkpt lat="55.23434" lon="25.62471">
        <ele>151.44669</ele>
        <time>2020-10-07T10:57:00.493Z</time>
      </trkpt>
      <trkpt lat="55.23432" lon="25.62409">
        <ele>150.944665</ele>
        <time>2020-10-07T10:57:07.014Z</time>
      </trkpt>
      <trkpt lat="55.23425" lon="25.62203">
        <ele>149.331605</ele>
        <time>2020-10-07T10:57:28.518Z</time>
      </trkpt>
      <trkpt lat="55.23417" lon="25.61957">
        <ele>148.001906</ele>
        <time>2020-10-07T10:57:55.048Z</time>
      </trkpt>
      <trkpt lat="55.23406" lon="25.61882">
        <ele>147.859795</ele>
        <time>2020-10-07T10:58:04.995Z</time>
      </trkpt>
      <trkpt lat="55.23319" lon="25.6161">
        <ele>149.318667</ele>
        <time>2020-10-07T10:58:51.537Z</time>
      </trkpt>
      <trkpt lat="55.23315" lon="25.61589">
        <ele>149.462528</ele>
        <time>2020-10-07T10:58:55.139Z</time>
      </trkpt>
      <trkpt lat="55.23311" lon="25.6157">
        <ele>149.594861</ele>
        <time>2020-10-07T10:58:58.411Z</time>
      </trkpt>
      <trkpt lat="55.23308" lon="25.61518">
        <ele>149.937986</ele>
        <time>2020-10-07T10:59:06.829Z</time>
      </trkpt>
      <trkpt lat="55.2331" lon="25.61376">
        <ele>150.867226</ele>
        <time>2020-10-07T10:59:29.466Z</time>
      </trkpt>
      <trkpt lat="55.23311" lon="25.61359">
        <ele>150.980239</ele>
        <time>2020-10-07T10:59:32.135Z</time>
      </trkpt>
      <trkpt lat="55.23314" lon="25.61245">
        <ele>151.081697</ele>
        <time>2020-10-07T10:59:48.105Z</time>
      </trkpt>
      <trkpt lat="55.23318" lon="25.61082">
        <ele>150.767084</ele>
        <time>2020-10-07T11:00:07.355Z</time>
      </trkpt>
      <trkpt lat="55.23317" lon="25.61063">
        <ele>150.729512</ele>
        <time>2020-10-07T11:00:09.693Z</time>
      </trkpt>
      <trkpt lat="55.23314" lon="25.61042">
        <ele>150.687997</ele>
        <time>2020-10-07T11:00:11.825Z</time>
      </trkpt>
      <trkpt lat="55.23283" lon="25.60878">
        <ele>149.658151</ele>
        <time>2020-10-07T11:00:30.370Z</time>
      </trkpt>
      <trkpt lat="55.23274" lon="25.60788">
        <ele>149.022083</ele>
        <time>2020-10-07T11:00:39.789Z</time>
      </trkpt>
      <trkpt lat="55.23276" lon="25.60687">
        <ele>148.382271</ele>
        <time>2020-10-07T11:00:51.036Z</time>
      </trkpt>
      <trkpt lat="55.23278" lon="25.60518">
        <ele>148.023874</ele>
        <time>2020-10-07T11:01:10.664Z</time>
      </trkpt>
      <trkpt lat="55.23278" lon="25.60469">
        <ele>147.920668</ele>
        <time>2020-10-07T11:01:16.575Z</time>
      </trkpt>
      <trkpt lat="55.23279" lon="25.60408">
        <ele>147.789217</ele>
        <time>2020-10-07T11:01:24.401Z</time>
      </trkpt>
      <trkpt lat="55.23277" lon="25.60284">
        <ele>147.988376</ele>
        <time>2020-10-07T11:01:41.214Z</time>
      </trkpt>
      <trkpt lat="55.23265" lon="25.60168">
        <ele>148.273951</ele>
        <time>2020-10-07T11:01:57.606Z</time>
      </trkpt>
      <trkpt lat="55.2326" lon="25.60122">
        <ele>148.385076</ele>
        <time>2020-10-07T11:02:04.183Z</time>
      </trkpt>
      <trkpt lat="55.23257" lon="25.60092">
        <ele>148.459199</ele>
        <time>2020-10-07T11:02:08.552Z</time>
      </trkpt>
      <trkpt lat="55.2324" lon="25.60006">
        <ele>148.649496</ele>
        <time>2020-10-07T11:02:20.960Z</time>
      </trkpt>
      <trkpt lat="55.23198" lon="25.5987">
        <ele>148.962794</ele>
        <time>2020-10-07T11:02:42.206Z</time>
      </trkpt>
      <trkpt lat="55.23183" lon="25.59831">
        <ele>149.057438</ele>
        <time>2020-10-07T11:02:48.320Z</time>
      </trkpt>
      <trkpt lat="55.23154" lon="25.59752">
        <ele>149.182643</ele>
        <time>2020-10-07T11:03:00.574Z</time>
      </trkpt>
      <trkpt lat="55.23141" lon="25.59713">
        <ele>149.218294</ele>
        <time>2020-10-07T11:03:06.393Z</time>
      </trkpt>
      <trkpt lat="55.2313" lon="25.59674">
        <ele>149.252986</ele>
        <time>2020-10-07T11:03:12.121Z</time>
      </trkpt>
      <trkpt lat="55.23105" lon="25.59577">
        <ele>149.33784</ele>
        <time>2020-10-07T11:03:25.965Z</time>
      </trkpt>
      <trkpt lat="55.23083" lon="25.59515">
        <ele>149.391139</ele>
        <time>2020-10-07T11:03:35.568Z</time>
      </trkpt>
      <trkpt lat="55.2306" lon="25.59465">
        <ele>149.387432</ele>
        <time>2020-10-07T11:03:44.035Z</time>
      </trkpt>
      <trkpt lat="55.22919" lon="25.59168">
        <ele>149.4565</ele>
        <time>2020-10-07T11:04:32.367Z</time>
      </trkpt>
      <trkpt lat="55.22907" lon="25.5914">
        <ele>149.476927</ele>
        <time>2020-10-07T11:04:36.974Z</time>
      </trkpt>
      <trkpt lat="55.229" lon="25.59119">
        <ele>149.491027</ele>
        <time>2020-10-07T11:04:40.295Z</time>
      </trkpt>
      <trkpt lat="55.22884" lon="25.59015">
        <ele>149.554063</ele>
        <time>2020-10-07T11:04:54.326Z</time>
      </trkpt>
      <trkpt lat="55.22883" lon="25.58944">
        <ele>149.781582</ele>
        <time>2020-10-07T11:05:04.059Z</time>
      </trkpt>
      <trkpt lat="55.22886" lon="25.58918">
        <ele>149.875525</ele>
        <time>2020-10-07T11:05:07.684Z</time>
      </trkpt>
      <trkpt lat="55.22888" lon="25.58906">
        <ele>149.916502</ele>
        <time>2020-10-07T11:05:09.185Z</time>
      </trkpt>
      <trkpt lat="55.22892" lon="25.58878">
        <ele>150.019117</ele>
        <time>2020-10-07T11:05:13.428Z</time>
      </trkpt>
      <trkpt lat="55.22898" lon="25.58845">
        <ele>150.143933</ele>
        <time>2020-10-07T11:05:18.197Z</time>
      </trkpt>
      <trkpt lat="55.2294" lon="25.58704">
        <ele>150.690989</ele>
        <time>2020-10-07T11:05:41.881Z</time>
      </trkpt>
      <trkpt lat="55.22965" lon="25.58595">
        <ele>150.967594</ele>
        <time>2020-10-07T11:05:58.458Z</time>
      </trkpt>
      <trkpt lat="55.2297" lon="25.58546">
        <ele>151.084281</ele>
        <time>2020-10-07T11:06:05.475Z</time>
      </trkpt>
      <trkpt lat="55.22991" lon="25.58355">
        <ele>151.238593</ele>
        <time>2020-10-07T11:06:30.673Z</time>
      </trkpt>
      <trkpt lat="55.22999" lon="25.58285">
        <ele>151.013592</ele>
        <time>2020-10-07T11:06:39.315Z</time>
      </trkpt>
      <trkpt lat="55.23011" lon="25.58183">
        <ele>150.688477</ele>
        <time>2020-10-07T11:06:50.932Z</time>
      </trkpt>
      <trkpt lat="55.2303" lon="25.58016">
        <ele>150.29394</ele>
        <time>2020-10-07T11:07:10.113Z</time>
      </trkpt>
      <trkpt lat="55.23049" lon="25.5789">
        <ele>150.09535</ele>
        <time>2020-10-07T11:07:25.491Z</time>
      </trkpt>
      <trkpt lat="55.23112" lon="25.57594">
        <ele>151.008261</ele>
        <time>2020-10-07T11:08:08.686Z</time>
      </trkpt>
      <trkpt lat="55.23129" lon="25.57513">
        <ele>151.430849</ele>
        <time>2020-10-07T11:08:23.139Z</time>
      </trkpt>
      <trkpt lat="55.23159" lon="25.57375">
        <ele>152.897077</ele>
        <time>2020-10-07T11:08:48.288Z</time>
      </trkpt>
      <trkpt lat="55.23166" lon="25.5734">
        <ele>153.277239</ele>
        <time>2020-10-07T11:08:54.484Z</time>
      </trkpt>
      <trkpt lat="55.23181" lon="25.57271">
        <ele>154.051459</ele>
        <time>2020-10-07T11:09:06.815Z</time>
      </trkpt>
      <trkpt lat="55.23186" lon="25.57246">
        <ele>154.327164</ele>
        <time>2020-10-07T11:09:11.635Z</time>
      </trkpt>
      <trkpt lat="55.23206" lon="25.57147">
        <ele>155.296757</ele>
        <time>2020-10-07T11:09:29.407Z</time>
      </trkpt>
      <trkpt lat="55.23216" lon="25.57062">
        <ele>156.036076</ele>
        <time>2020-10-07T11:09:44.291Z</time>
      </trkpt>
      <trkpt lat="55.23217" lon="25.57031">
        <ele>156.305906</ele>
        <time>2020-10-07T11:09:49.042Z</time>
      </trkpt>
      <trkpt lat="55.23216" lon="25.56999">
        <ele>156.575604</ele>
        <time>2020-10-07T11:09:54.241Z</time>
      </trkpt>
      <trkpt lat="55.23212" lon="25.56866">
        <ele>157.568788</ele>
        <time>2020-10-07T11:10:14.528Z</time>
      </trkpt>
      <trkpt lat="55.23203" lon="25.5662">
        <ele>158.501666</ele>
        <time>2020-10-07T11:10:49.630Z</time>
      </trkpt>
      <trkpt lat="55.23206" lon="25.56538">
        <ele>158.690606</ele>
        <time>2020-10-07T11:11:00.560Z</time>
      </trkpt>
      <trkpt lat="55.2321" lon="25.56507">
        <ele>158.720688</ele>
        <time>2020-10-07T11:11:04.477Z</time>
      </trkpt>
      <trkpt lat="55.23216" lon="25.56467">
        <ele>158.759763</ele>
        <time>2020-10-07T11:11:09.994Z</time>
      </trkpt>
      <trkpt lat="55.2322" lon="25.56448">
        <ele>158.779117</ele>
        <time>2020-10-07T11:11:12.571Z</time>
      </trkpt>
      <trkpt lat="55.23232" lon="25.56374">
        <ele>158.852681</ele>
        <time>2020-10-07T11:11:22.988Z</time>
      </trkpt>
      <trkpt lat="55.23233" lon="25.56367">
        <ele>158.859331</ele>
        <time>2020-10-07T11:11:23.947Z</time>
      </trkpt>
      <trkpt lat="55.23235" lon="25.56352">
        <ele>158.873916</ele>
        <time>2020-10-07T11:11:25.953Z</time>
      </trkpt>
      <trkpt lat="55.23272" lon="25.56123">
        <ele>158.273479</ele>
        <time>2020-10-07T11:11:55.945Z</time>
      </trkpt>
      <trkpt lat="55.23302" lon="25.56036">
        <ele>157.840914</ele>
        <time>2020-10-07T11:12:07.065Z</time>
      </trkpt>
      <trkpt lat="55.23349" lon="25.55952">
        <ele>157.050462</ele>
        <time>2020-10-07T11:12:19.021Z</time>
      </trkpt>
      <trkpt lat="55.23357" lon="25.55937">
        <ele>156.862467</ele>
        <time>2020-10-07T11:12:21.026Z</time>
      </trkpt>
      <trkpt lat="55.23476" lon="25.55714">
        <ele>154.994855</ele>
        <time>2020-10-07T11:12:52.817Z</time>
      </trkpt>
      <trkpt lat="55.23533" lon="25.55605">
        <ele>155.387916</ele>
        <time>2020-10-07T11:13:14.514Z</time>
      </trkpt>
      <trkpt lat="55.23579" lon="25.55519">
        <ele>155.710343</ele>
        <time>2020-10-07T11:13:34.295Z</time>
      </trkpt>
      <trkpt lat="55.23609" lon="25.55438">
        <ele>156.022386</ele>
        <time>2020-10-07T11:13:49.914Z</time>
      </trkpt>
      <trkpt lat="55.23621" lon="25.55398">
        <ele>156.166508</ele>
        <time>2020-10-07T11:13:56.603Z</time>
      </trkpt>
      <trkpt lat="55.2363" lon="25.55345">
        <ele>156.344941</ele>
        <time>2020-10-07T11:14:04.162Z</time>
      </trkpt>
      <trkpt lat="55.23659" lon="25.5514">
        <ele>155.876188</ele>
        <time>2020-10-07T11:14:28.212Z</time>
      </trkpt>
      <trkpt lat="55.23694" lon="25.54768">
        <ele>153.905715</ele>
        <time>2020-10-07T11:15:07.920Z</time>
      </trkpt>
      <trkpt lat="55.23702" lon="25.54661">
        <ele>153.504018</ele>
        <time>2020-10-07T11:15:21.752Z</time>
      </trkpt>
      <trkpt lat="55.23707" lon="25.54587">
        <ele>153.77565</ele>
        <time>2020-10-07T11:15:32.351Z</time>
      </trkpt>
      <trkpt lat="55.23704" lon="25.54526">
        <ele>154.285019</ele>
        <time>2020-10-07T11:15:41.750Z</time>
      </trkpt>
      <trkpt lat="55.23659" lon="25.54092">
        <ele>158.193896</ele>
        <time>2020-10-07T11:16:56.874Z</time>
      </trkpt>
      <trkpt lat="55.23661" lon="25.53954">
        <ele>159.237519</ele>
        <time>2020-10-07T11:17:18.069Z</time>
      </trkpt>
      <trkpt lat="55.23684" lon="25.53679">
        <ele>160.417094</ele>
        <time>2020-10-07T11:17:58.638Z</time>
      </trkpt>
      <trkpt lat="55.23685" lon="25.53661">
        <ele>160.355146</ele>
        <time>2020-10-07T11:18:00.952Z</time>
      </trkpt>
      <trkpt lat="55.23685" lon="25.53633">
        <ele>160.256269</ele>
        <time>2020-10-07T11:18:04.775Z</time>
      </trkpt>
      <trkpt lat="55.23678" lon="25.53524">
        <ele>159.870587</ele>
        <time>2020-10-07T11:18:17.683Z</time>
      </trkpt>
      <trkpt lat="55.23664" lon="25.53447">
        <ele>159.587081</ele>
        <time>2020-10-07T11:18:26.811Z</time>
      </trkpt>
      <trkpt lat="55.23649" lon="25.53357">
        <ele>158.908091</ele>
        <time>2020-10-07T11:18:36.628Z</time>
      </trkpt>
      <trkpt lat="55.23637" lon="25.532">
        <ele>156.637637</ele>
        <time>2020-10-07T11:18:51.980Z</time>
      </trkpt>
      <trkpt lat="55.23635" lon="25.53101">
        <ele>155.20815</ele>
        <time>2020-10-07T11:19:01.246Z</time>
      </trkpt>
      <trkpt lat="55.23636" lon="25.52845">
        <ele>151.407247</ele>
        <time>2020-10-07T11:19:25.699Z</time>
      </trkpt>
      <trkpt lat="55.23636" lon="25.52783">
        <ele>150.481456</ele>
        <time>2020-10-07T11:19:31.854Z</time>
      </trkpt>
      <trkpt lat="55.23635" lon="25.52721">
        <ele>149.783072</ele>
        <time>2020-10-07T11:19:38.009Z</time>
      </trkpt>
      <trkpt lat="55.23631" lon="25.52664">
        <ele>149.252293</ele>
        <time>2020-10-07T11:19:43.868Z</time>
      </trkpt>
      <trkpt lat="55.23615" lon="25.52464">
        <ele>147.395767</ele>
        <time>2020-10-07T11:20:04.890Z</time>
      </trkpt>
      <trkpt lat="55.23611" lon="25.52416">
        <ele>147.129237</ele>
        <time>2020-10-07T11:20:10.402Z</time>
      </trkpt>
      <trkpt lat="55.23607" lon="25.52373">
        <ele>146.993929</ele>
        <time>2020-10-07T11:20:15.138Z</time>
      </trkpt>
      <trkpt lat="55.23594" lon="25.52287">
        <ele>146.712577</ele>
        <time>2020-10-07T11:20:25.555Z</time>
      </trkpt>
      <trkpt lat="55.23571" lon="25.52143">
        <ele>146.239475</ele>
        <time>2020-10-07T11:20:43.207Z</time>
      </trkpt>
      <trkpt lat="55.23555" lon="25.52045">
        <ele>146.794894</ele>
        <time>2020-10-07T11:20:57.351Z</time>
      </trkpt>
      <trkpt lat="55.23548" lon="25.52016">
        <ele>146.973513</ele>
        <time>2020-10-07T11:21:01.861Z</time>
      </trkpt>
      <trkpt lat="55.23544" lon="25.51999">
        <ele>147.077415</ele>
        <time>2020-10-07T11:21:04.645Z</time>
      </trkpt>
      <trkpt lat="55.23539" lon="25.51985">
        <ele>147.169126</ele>
        <time>2020-10-07T11:21:07.138Z</time>
      </trkpt>
      <trkpt lat="55.23538" lon="25.51982">
        <ele>147.189342</ele>
        <time>2020-10-07T11:21:07.687Z</time>
      </trkpt>
      <trkpt lat="55.23527" lon="25.51954">
        <ele>147.381403</ele>
        <time>2020-10-07T11:21:12.764Z</time>
      </trkpt>
      <trkpt lat="55.23516" lon="25.51926">
        <ele>147.580502</ele>
        <time>2020-10-07T11:21:18.475Z</time>
      </trkpt>
      <trkpt lat="55.23507" lon="25.51901">
        <ele>147.7438</ele>
        <time>2020-10-07T11:21:22.972Z</time>
      </trkpt>
      <trkpt lat="55.23499" lon="25.51874">
        <ele>147.917382</ele>
        <time>2020-10-07T11:21:28.214Z</time>
      </trkpt>
      <trkpt lat="55.23478" lon="25.5176">
        <ele>149.181225</ele>
        <time>2020-10-07T11:21:48.869Z</time>
      </trkpt>
      <trkpt lat="55.23465" lon="25.51478">
        <ele>151.723025</ele>
        <time>2020-10-07T11:22:39.032Z</time>
      </trkpt>
      <trkpt lat="55.23464" lon="25.51414">
        <ele>151.815459</ele>
        <time>2020-10-07T11:22:47.983Z</time>
      </trkpt>
      <trkpt lat="55.23467" lon="25.51228">
        <ele>152.063235</ele>
        <time>2020-10-07T11:23:09.826Z</time>
      </trkpt>
      <trkpt lat="55.2346" lon="25.5115">
        <ele>151.787326</ele>
        <time>2020-10-07T11:23:17.910Z</time>
      </trkpt>
      <trkpt lat="55.23426" lon="25.50932">
        <ele>150.988722</ele>
        <time>2020-10-07T11:23:43.235Z</time>
      </trkpt>
      <trkpt lat="55.23422" lon="25.50893">
        <ele>151.42445</ele>
        <time>2020-10-07T11:23:48.897Z</time>
      </trkpt>
      <trkpt lat="55.23405" lon="25.5066">
        <ele>154.622895</ele>
        <time>2020-10-07T11:24:31.947Z</time>
      </trkpt>
      <trkpt lat="55.23386" lon="25.50421">
        <ele>159.933699</ele>
        <time>2020-10-07T11:25:27.797Z</time>
      </trkpt>
      <trkpt lat="55.2339" lon="25.50295">
        <ele>162.941884</ele>
        <time>2020-10-07T11:25:56.606Z</time>
      </trkpt>
      <trkpt lat="55.23411" lon="25.49975">
        <ele>168.163685</ele>
        <time>2020-10-07T11:26:59.092Z</time>
      </trkpt>
      <trkpt lat="55.23429" lon="25.49465">
        <ele>170.695844</ele>
        <time>2020-10-07T11:28:13.669Z</time>
      </trkpt>
      <trkpt lat="55.23432" lon="25.49413">
        <ele>170.854125</ele>
        <time>2020-10-07T11:28:20.587Z</time>
      </trkpt>
      <trkpt lat="55.23436" lon="25.49365">
        <ele>171.000107</ele>
        <time>2020-10-07T11:28:26.865Z</time>
      </trkpt>
      <trkpt lat="55.23452" lon="25.49229">
        <ele>170.667076</ele>
        <time>2020-10-07T11:28:44.123Z</time>
      </trkpt>
      <trkpt lat="55.2346" lon="25.49092">
        <ele>170.293493</ele>
        <time>2020-10-07T11:29:00.049Z</time>
      </trkpt>
      <trkpt lat="55.23468" lon="25.48733">
        <ele>168.293788</ele>
        <time>2020-10-07T11:29:39.310Z</time>
      </trkpt>
      <trkpt lat="55.23464" lon="25.48238">
        <ele>164.869284</ele>
        <time>2020-10-07T11:30:33.421Z</time>
      </trkpt>
      <trkpt lat="55.2347" lon="25.47981">
        <ele>162.283915</ele>
        <time>2020-10-07T11:30:59.698Z</time>
      </trkpt>
      <trkpt lat="55.23469" lon="25.47921">
        <ele>161.550331</ele>
        <time>2020-10-07T11:31:05.622Z</time>
      </trkpt>
      <trkpt lat="55.23463" lon="25.4785">
        <ele>160.673957</ele>
        <time>2020-10-07T11:31:12.614Z</time>
      </trkpt>
      <trkpt lat="55.23454" lon="25.47746">
        <ele>159.349222</ele>
        <time>2020-10-07T11:31:22.844Z</time>
      </trkpt>
      <trkpt lat="55.23434" lon="25.47518">
        <ele>156.328347</ele>
        <time>2020-10-07T11:31:45.409Z</time>
      </trkpt>
      <trkpt lat="55.23424" lon="25.47315">
        <ele>154.566258</ele>
        <time>2020-10-07T11:32:06.379Z</time>
      </trkpt>
      <trkpt lat="55.23424" lon="25.47255">
        <ele>154.118466</ele>
        <time>2020-10-07T11:32:13.006Z</time>
      </trkpt>
      <trkpt lat="55.23409" lon="25.47252">
        <ele>153.917515</ele>
        <time>2020-10-07T11:32:16.128Z</time>
      </trkpt>
      <trkpt lat="55.23415" lon="25.47222">
        <ele>153.683619</ele>
        <time>2020-10-07T11:32:19.942Z</time>
      </trkpt>
      <trkpt lat="55.23414" lon="25.47117">
        <ele>153.193199</ele>
        <time>2020-10-07T11:32:32.900Z</time>
      </trkpt>
      <trkpt lat="55.23423" lon="25.4687">
        <ele>152.410022</ele>
        <time>2020-10-07T11:33:03.564Z</time>
      </trkpt>
      <trkpt lat="55.23434" lon="25.46692">
        <ele>151.248721</ele>
        <time>2020-10-07T11:33:23.875Z</time>
      </trkpt>
      <trkpt lat="55.2344" lon="25.46597">
        <ele>150.631558</ele>
        <time>2020-10-07T11:33:34.326Z</time>
      </trkpt>
      <trkpt lat="55.23496" lon="25.45806">
        <ele>146.76236</ele>
        <time>2020-10-07T11:35:07.752Z</time>
      </trkpt>
      <trkpt lat="55.23501" lon="25.45738">
        <ele>146.559711</ele>
        <time>2020-10-07T11:35:16.087Z</time>
      </trkpt>
      <trkpt lat="55.23502" lon="25.45667">
        <ele>146.350495</ele>
        <time>2020-10-07T11:35:24.777Z</time>
      </trkpt>
      <trkpt lat="55.23452" lon="25.4512">
        <ele>147.704949</ele>
        <time>2020-10-07T11:36:39.924Z</time>
      </trkpt>
      <trkpt lat="55.23429" lon="25.4504">
        <ele>148.345976</ele>
        <time>2020-10-07T11:36:56.366Z</time>
      </trkpt>
      <trkpt lat="55.23431" lon="25.45031">
        <ele>148.408806</ele>
        <time>2020-10-07T11:36:58.222Z</time>
      </trkpt>
      <trkpt lat="55.23437" lon="25.4501">
        <ele>148.578815</ele>
        <time>2020-10-07T11:37:03.103Z</time>
      </trkpt>
      <trkpt lat="55.23439" lon="25.45005">
        <ele>148.622774</ele>
        <time>2020-10-07T11:37:05.725Z</time>
      </trkpt>
      <trkpt lat="55.23428" lon="25.44981">
        <ele>149.196999</ele>
        <time>2020-10-07T11:37:14.048Z</time>
      </trkpt>
      <trkpt lat="55.23433" lon="25.44806">
        <ele>152.437441</ele>
        <time>2020-10-07T11:38:05.937Z</time>
      </trkpt>
      <trkpt lat="55.23425" lon="25.44779">
        <ele>152.997857</ele>
        <time>2020-10-07T11:38:15.120Z</time>
      </trkpt>
      <trkpt lat="55.23426" lon="25.44751">
        <ele>153.510469</ele>
        <time>2020-10-07T11:38:23.442Z</time>
      </trkpt>
      <trkpt lat="55.23438" lon="25.44618">
        <ele>154.968367</ele>
        <time>2020-10-07T11:38:59.119Z</time>
      </trkpt>
      <trkpt lat="55.23442" lon="25.44385">
        <ele>156.416109</ele>
        <time>2020-10-07T11:39:52.601Z</time>
      </trkpt>
      <trkpt lat="55.23446" lon="25.44331">
        <ele>155.982114</ele>
        <time>2020-10-07T11:40:03.524Z</time>
      </trkpt>
      <trkpt lat="55.23448" lon="25.44297">
        <ele>155.71218</ele>
        <time>2020-10-07T11:40:10.020Z</time>
      </trkpt>
      <trkpt lat="55.23451" lon="25.4424">
        <ele>155.26656</ele>
        <time>2020-10-07T11:40:20.562Z</time>
      </trkpt>
      <trkpt lat="55.23451" lon="25.44144">
        <ele>154.507242</ele>
        <time>2020-10-07T11:40:37.877Z</time>
      </trkpt>
      <trkpt lat="55.23451" lon="25.43943">
        <ele>153.0798</ele>
        <time>2020-10-07T11:41:13.933Z</time>
      </trkpt>
      <trkpt lat="55.23452" lon="25.43877">
        <ele>152.640363</ele>
        <time>2020-10-07T11:41:26.064Z</time>
      </trkpt>
      <trkpt lat="55.23486" lon="25.43584">
        <ele>152.804806</ele>
        <time>2020-10-07T11:42:30.502Z</time>
      </trkpt>
      <trkpt lat="55.2349" lon="25.4346">
        <ele>153.468798</ele>
        <time>2020-10-07T11:43:02.693Z</time>
      </trkpt>
      <trkpt lat="55.23488" lon="25.43261">
        <ele>155.25703</ele>
        <time>2020-10-07T11:43:53.672Z</time>
      </trkpt>
      <trkpt lat="55.23482" lon="25.43053">
        <ele>156.943563</ele>
        <time>2020-10-07T11:44:43.488Z</time>
      </trkpt>
      <trkpt lat="55.23475" lon="25.42906">
        <ele>157.882919</ele>
        <time>2020-10-07T11:45:17.623Z</time>
      </trkpt>
      <trkpt lat="55.23466" lon="25.42838">
        <ele>158.323878</ele>
        <time>2020-10-07T11:45:34.328Z</time>
      </trkpt>
      <trkpt lat="55.23471" lon="25.42781">
        <ele>158.744732</ele>
        <time>2020-10-07T11:45:48.342Z</time>
      </trkpt>
      <trkpt lat="55.2347" lon="25.4276">
        <ele>158.910599</ele>
        <time>2020-10-07T11:45:53.800Z</time>
      </trkpt>
      <trkpt lat="55.23472" lon="25.42758">
        <ele>158.938589</ele>
        <time>2020-10-07T11:45:54.365Z</time>
      </trkpt>
      <trkpt lat="55.23471" lon="25.42756">
        <ele>158.956355</ele>
        <time>2020-10-07T11:45:54.724Z</time>
      </trkpt>
      <trkpt lat="55.23463" lon="25.42723">
        <ele>159.242311</ele>
        <time>2020-10-07T11:46:00.521Z</time>
      </trkpt>
      <trkpt lat="55.23454" lon="25.42691">
        <ele>159.520263</ele>
        <time>2020-10-07T11:46:06.397Z</time>
      </trkpt>
      <trkpt lat="55.23439" lon="25.42638">
        <ele>159.974266</ele>
        <time>2020-10-07T11:46:15.840Z</time>
      </trkpt>
      <trkpt lat="55.23412" lon="25.42533">
        <ele>160.877608</ele>
        <time>2020-10-07T11:46:33.894Z</time>
      </trkpt>
      <trkpt lat="55.23402" lon="25.42496">
        <ele>161.012725</ele>
        <time>2020-10-07T11:46:40.006Z</time>
      </trkpt>
      <trkpt lat="55.23389" lon="25.42448">
        <ele>161.167976</ele>
        <time>2020-10-07T11:46:48.073Z</time>
      </trkpt>
      <trkpt lat="55.23384" lon="25.42422">
        <ele>161.249613</ele>
        <time>2020-10-07T11:46:52.252Z</time>
      </trkpt>
      <trkpt lat="55.23382" lon="25.42414">
        <ele>161.276186</ele>
        <time>2020-10-07T11:46:53.587Z</time>
      </trkpt>
      <trkpt lat="55.2338" lon="25.42406">
        <ele>161.300566</ele>
        <time>2020-10-07T11:46:54.824Z</time>
      </trkpt>
      <trkpt lat="55.23376" lon="25.42381">
        <ele>161.375397</ele>
        <time>2020-10-07T11:46:58.748Z</time>
      </trkpt>
      <trkpt lat="55.23374" lon="25.42365">
        <ele>161.426413</ele>
        <time>2020-10-07T11:47:01.302Z</time>
      </trkpt>
      <trkpt lat="55.2337" lon="25.42341">
        <ele>161.496774</ele>
        <time>2020-10-07T11:47:04.746Z</time>
      </trkpt>
      <trkpt lat="55.23368" lon="25.42326">
        <ele>161.54318</ele>
        <time>2020-10-07T11:47:07.007Z</time>
      </trkpt>
      <trkpt lat="55.23366" lon="25.42315">
        <ele>161.577734</ele>
        <time>2020-10-07T11:47:08.598Z</time>
      </trkpt>
      <trkpt lat="55.23363" lon="25.42304">
        <ele>161.612294</ele>
        <time>2020-10-07T11:47:10.068Z</time>
      </trkpt>
      <trkpt lat="55.2336" lon="25.42293">
        <ele>161.648201</ele>
        <time>2020-10-07T11:47:11.610Z</time>
      </trkpt>
      <trkpt lat="55.23351" lon="25.42268">
        <ele>161.733519</ele>
        <time>2020-10-07T11:47:15.145Z</time>
      </trkpt>
      <trkpt lat="55.23349" lon="25.42262">
        <ele>161.755969</ele>
        <time>2020-10-07T11:47:16.047Z</time>
      </trkpt>
      <trkpt lat="55.23342" lon="25.42245">
        <ele>161.81746</ele>
        <time>2020-10-07T11:47:18.385Z</time>
      </trkpt>
      <trkpt lat="55.23339" lon="25.42236">
        <ele>161.797603</ele>
        <time>2020-10-07T11:47:19.530Z</time>
      </trkpt>
      <trkpt lat="55.23336" lon="25.42229">
        <ele>161.755225</ele>
        <time>2020-10-07T11:47:20.542Z</time>
      </trkpt>
      <trkpt lat="55.2333" lon="25.42212">
        <ele>161.66102</ele>
        <time>2020-10-07T11:47:22.808Z</time>
      </trkpt>
      <trkpt lat="55.23321" lon="25.42194">
        <ele>161.545139</ele>
        <time>2020-10-07T11:47:25.450Z</time>
      </trkpt>
      <trkpt lat="55.23316" lon="25.42184">
        <ele>161.485135</ele>
        <time>2020-10-07T11:47:26.845Z</time>
      </trkpt>
      <trkpt lat="55.23314" lon="25.4218">
        <ele>161.456568</ele>
        <time>2020-10-07T11:47:27.516Z</time>
      </trkpt>
      <trkpt lat="55.23302" lon="25.42156">
        <ele>161.309251</ele>
        <time>2020-10-07T11:47:30.914Z</time>
      </trkpt>
      <trkpt lat="55.23295" lon="25.42143">
        <ele>161.224834</ele>
        <time>2020-10-07T11:47:32.858Z</time>
      </trkpt>
      <trkpt lat="55.23281" lon="25.42119">
        <ele>161.063434</ele>
        <time>2020-10-07T11:47:36.658Z</time>
      </trkpt>
      <trkpt lat="55.23274" lon="25.42105">
        <ele>160.973654</ele>
        <time>2020-10-07T11:47:38.706Z</time>
      </trkpt>
      <trkpt lat="55.23266" lon="25.42091">
        <ele>160.88136</ele>
        <time>2020-10-07T11:47:40.877Z</time>
      </trkpt>
      <trkpt lat="55.23253" lon="25.42068">
        <ele>160.730008</ele>
        <time>2020-10-07T11:47:44.539Z</time>
      </trkpt>
      <trkpt lat="55.23247" lon="25.42057">
        <ele>160.658135</ele>
        <time>2020-10-07T11:47:46.279Z</time>
      </trkpt>
      <trkpt lat="55.23233" lon="25.42029">
        <ele>160.479119</ele>
        <time>2020-10-07T11:47:50.675Z</time>
      </trkpt>
      <trkpt lat="55.23228" lon="25.4202">
        <ele>160.421426</ele>
        <time>2020-10-07T11:47:52.040Z</time>
      </trkpt>
      <trkpt lat="55.23216" lon="25.41998">
        <ele>160.282883</ele>
        <time>2020-10-07T11:47:55.468Z</time>
      </trkpt>
      <trkpt lat="55.2321" lon="25.41985">
        <ele>160.210235</ele>
        <time>2020-10-07T11:47:57.387Z</time>
      </trkpt>
      <trkpt lat="55.23203" lon="25.41972">
        <ele>160.128537</ele>
        <time>2020-10-07T11:47:59.456Z</time>
      </trkpt>
      <trkpt lat="55.23194" lon="25.41954">
        <ele>160.02183</ele>
        <time>2020-10-07T11:48:02.162Z</time>
      </trkpt>
      <trkpt lat="55.2317" lon="25.41909">
        <ele>159.75594</ele>
        <time>2020-10-07T11:48:08.829Z</time>
      </trkpt>
      <trkpt lat="55.23166" lon="25.41901">
        <ele>159.709421</ele>
        <time>2020-10-07T11:48:10.002Z</time>
      </trkpt>
      <trkpt lat="55.23165" lon="25.41899">
        <ele>159.696917</ele>
        <time>2020-10-07T11:48:10.336Z</time>
      </trkpt>
      <trkpt lat="55.23163" lon="25.41895">
        <ele>159.671909</ele>
        <time>2020-10-07T11:48:11.000Z</time>
      </trkpt>
      <trkpt lat="55.23147" lon="25.41864">
        <ele>159.48953</ele>
        <time>2020-10-07T11:48:15.773Z</time>
      </trkpt>
      <trkpt lat="55.23145" lon="25.4186">
        <ele>159.463995</ele>
        <time>2020-10-07T11:48:16.426Z</time>
      </trkpt>
      <trkpt lat="55.23142" lon="25.41855">
        <ele>159.433156</ele>
        <time>2020-10-07T11:48:17.261Z</time>
      </trkpt>
      <trkpt lat="55.23135" lon="25.41841">
        <ele>159.352622</ele>
        <time>2020-10-07T11:48:19.493Z</time>
      </trkpt>
      <trkpt lat="55.23129" lon="25.4183">
        <ele>159.286925</ele>
        <time>2020-10-07T11:48:21.258Z</time>
      </trkpt>
      <trkpt lat="55.23125" lon="25.41822">
        <ele>159.240407</ele>
        <time>2020-10-07T11:48:22.496Z</time>
      </trkpt>
      <trkpt lat="55.23117" lon="25.41807">
        <ele>159.150867</ele>
        <time>2020-10-07T11:48:24.858Z</time>
      </trkpt>
      <trkpt lat="55.23112" lon="25.41797">
        <ele>159.089377</ele>
        <time>2020-10-07T11:48:26.547Z</time>
      </trkpt>
      <trkpt lat="55.2311" lon="25.41793">
        <ele>159.071212</ele>
        <time>2020-10-07T11:48:27.076Z</time>
      </trkpt>
      <trkpt lat="55.23105" lon="25.41782">
        <ele>159.004897</ele>
        <time>2020-10-07T11:48:28.815Z</time>
      </trkpt>
      <trkpt lat="55.231" lon="25.41772">
        <ele>158.933757</ele>
        <time>2020-10-07T11:48:30.300Z</time>
      </trkpt>
      <trkpt lat="55.2309" lon="25.41749">
        <ele>158.593598</ele>
        <time>2020-10-07T11:48:33.554Z</time>
      </trkpt>
      <trkpt lat="55.23089" lon="25.41748">
        <ele>158.569188</ele>
        <time>2020-10-07T11:48:33.790Z</time>
      </trkpt>
      <trkpt lat="55.23061" lon="25.41688">
        <ele>157.644937</ele>
        <time>2020-10-07T11:48:42.226Z</time>
      </trkpt>
      <trkpt lat="55.23056" lon="25.41674">
        <ele>157.451718</ele>
        <time>2020-10-07T11:48:43.879Z</time>
      </trkpt>
      <trkpt lat="55.23045" lon="25.41641">
        <ele>156.997193</ele>
        <time>2020-10-07T11:48:47.779Z</time>
      </trkpt>
      <trkpt lat="55.23032" lon="25.41606">
        <ele>156.500284</ele>
        <time>2020-10-07T11:48:51.857Z</time>
      </trkpt>
      <trkpt lat="55.23027" lon="25.41591">
        <ele>156.291559</ele>
        <time>2020-10-07T11:48:53.587Z</time>
      </trkpt>
      <trkpt lat="55.23019" lon="25.41569">
        <ele>155.982644</ele>
        <time>2020-10-07T11:48:56.034Z</time>
      </trkpt>
      <trkpt lat="55.23013" lon="25.41551">
        <ele>155.730604</ele>
        <time>2020-10-07T11:48:58.028Z</time>
      </trkpt>
      <trkpt lat="55.23003" lon="25.41523">
        <ele>155.344247</ele>
        <time>2020-10-07T11:49:01.059Z</time>
      </trkpt>
      <trkpt lat="55.23002" lon="25.41519">
        <ele>155.296721</ele>
        <time>2020-10-07T11:49:01.425Z</time>
      </trkpt>
      <trkpt lat="55.22999" lon="25.41512">
        <ele>155.186483</ele>
        <time>2020-10-07T11:49:02.233Z</time>
      </trkpt>
      <trkpt lat="55.22985" lon="25.41471">
        <ele>154.46626</ele>
        <time>2020-10-07T11:49:06.634Z</time>
      </trkpt>
      <trkpt lat="55.22977" lon="25.41449">
        <ele>154.095746</ele>
        <time>2020-10-07T11:49:08.865Z</time>
      </trkpt>
      <trkpt lat="55.22973" lon="25.41437">
        <ele>153.882042</ele>
        <time>2020-10-07T11:49:10.148Z</time>
      </trkpt>
      <trkpt lat="55.22973" lon="25.41436">
        <ele>153.86777</ele>
        <time>2020-10-07T11:49:10.235Z</time>
      </trkpt>
      <trkpt lat="55.22962" lon="25.41404">
        <ele>153.310725</ele>
        <time>2020-10-07T11:49:13.566Z</time>
      </trkpt>
      <trkpt lat="55.22959" lon="25.41396">
        <ele>153.163076</ele>
        <time>2020-10-07T11:49:14.453Z</time>
      </trkpt>
      <trkpt lat="55.22953" lon="25.41379">
        <ele>152.87429</ele>
        <time>2020-10-07T11:49:16.255Z</time>
      </trkpt>
      <trkpt lat="55.22952" lon="25.41374">
        <ele>152.784943</ele>
        <time>2020-10-07T11:49:16.818Z</time>
      </trkpt>
      <trkpt lat="55.22947" lon="25.41361">
        <ele>152.566101</ele>
        <time>2020-10-07T11:49:18.187Z</time>
      </trkpt>
      <trkpt lat="55.22938" lon="25.41337">
        <ele>152.135432</ele>
        <time>2020-10-07T11:49:20.949Z</time>
      </trkpt>
      <trkpt lat="55.22934" lon="25.41326">
        <ele>151.938295</ele>
        <time>2020-10-07T11:49:22.295Z</time>
      </trkpt>
      <trkpt lat="55.22932" lon="25.4132">
        <ele>151.830527</ele>
        <time>2020-10-07T11:49:23.019Z</time>
      </trkpt>
      <trkpt lat="55.22929" lon="25.41311">
        <ele>151.67353</ele>
        <time>2020-10-07T11:49:24.080Z</time>
      </trkpt>
      <trkpt lat="55.22926" lon="25.41304">
        <ele>151.542576</ele>
        <time>2020-10-07T11:49:24.985Z</time>
      </trkpt>
      <trkpt lat="55.22914" lon="25.41271">
        <ele>150.95223</ele>
        <time>2020-10-07T11:49:29.209Z</time>
      </trkpt>
      <trkpt lat="55.2291" lon="25.41261">
        <ele>150.783635</ele>
        <time>2020-10-07T11:49:30.463Z</time>
      </trkpt>
      <trkpt lat="55.22909" lon="25.41258">
        <ele>150.723848</ele>
        <time>2020-10-07T11:49:30.857Z</time>
      </trkpt>
      <trkpt lat="55.229" lon="25.41242">
        <ele>150.526982</ele>
        <time>2020-10-07T11:49:33.251Z</time>
      </trkpt>
      <trkpt lat="55.22888" lon="25.41221">
        <ele>150.628877</ele>
        <time>2020-10-07T11:49:36.798Z</time>
      </trkpt>
      <trkpt lat="55.22873" lon="25.41193">
        <ele>150.759969</ele>
        <time>2020-10-07T11:49:41.387Z</time>
      </trkpt>
      <trkpt lat="55.22868" lon="25.41184">
        <ele>150.804797</ele>
        <time>2020-10-07T11:49:43.234Z</time>
      </trkpt>
      <trkpt lat="55.22864" lon="25.41176">
        <ele>150.844247</ele>
        <time>2020-10-07T11:49:44.816Z</time>
      </trkpt>
      <trkpt lat="55.22857" lon="25.41164">
        <ele>150.900239</ele>
        <time>2020-10-07T11:49:46.975Z</time>
      </trkpt>
      <trkpt lat="55.22848" lon="25.41146">
        <ele>150.982695</ele>
        <time>2020-10-07T11:49:50.313Z</time>
      </trkpt>
      <trkpt lat="55.22826" lon="25.41106">
        <ele>151.172504</ele>
        <time>2020-10-07T11:49:58.411Z</time>
      </trkpt>
      <trkpt lat="55.22821" lon="25.41097">
        <ele>151.215097</ele>
        <time>2020-10-07T11:50:00.315Z</time>
      </trkpt>
      <trkpt lat="55.22816" lon="25.41088">
        <ele>151.259262</ele>
        <time>2020-10-07T11:50:02.348Z</time>
      </trkpt>
      <trkpt lat="55.22751" lon="25.40969">
        <ele>152.127909</ele>
        <time>2020-10-07T11:50:30.104Z</time>
      </trkpt>
      <trkpt lat="55.22746" lon="25.40962">
        <ele>152.203174</ele>
        <time>2020-10-07T11:50:31.824Z</time>
      </trkpt>
      <trkpt lat="55.22739" lon="25.4095">
        <ele>152.335919</ele>
        <time>2020-10-07T11:50:34.705Z</time>
      </trkpt>
      <trkpt lat="55.22733" lon="25.4094">
        <ele>152.458469</ele>
        <time>2020-10-07T11:50:37.328Z</time>
      </trkpt>
      <trkpt lat="55.22691" lon="25.40874">
        <ele>153.212591</ele>
        <time>2020-10-07T11:50:52.513Z</time>
      </trkpt>
      <trkpt lat="55.22683" lon="25.40863">
        <ele>153.348994</ele>
        <time>2020-10-07T11:50:55.023Z</time>
      </trkpt>
      <trkpt lat="55.22665" lon="25.40841">
        <ele>153.64463</ele>
        <time>2020-10-07T11:51:01.025Z</time>
      </trkpt>
      <trkpt lat="55.22643" lon="25.40813">
        <ele>154.014432</ele>
        <time>2020-10-07T11:51:08.156Z</time>
      </trkpt>
      <trkpt lat="55.22639" lon="25.40808">
        <ele>154.075069</ele>
        <time>2020-10-07T11:51:09.487Z</time>
      </trkpt>
      <trkpt lat="55.22613" lon="25.40781">
        <ele>154.443453</ele>
        <time>2020-10-07T11:51:17.164Z</time>
      </trkpt>
      <trkpt lat="55.22604" lon="25.40771">
        <ele>154.582889</ele>
        <time>2020-10-07T11:51:20.083Z</time>
      </trkpt>
      <trkpt lat="55.22605" lon="25.40764">
        <ele>154.637377</ele>
        <time>2020-10-07T11:51:21.201Z</time>
      </trkpt>
      <trkpt lat="55.22602" lon="25.40743">
        <ele>154.793842</ele>
        <time>2020-10-07T11:51:24.471Z</time>
      </trkpt>
      <trkpt lat="55.22598" lon="25.40738">
        <ele>154.848039</ele>
        <time>2020-10-07T11:51:25.788Z</time>
      </trkpt>
      <trkpt lat="55.22594" lon="25.40737">
        <ele>154.898816</ele>
        <time>2020-10-07T11:51:26.978Z</time>
      </trkpt>
      <trkpt lat="55.22583" lon="25.40745">
        <ele>155.046061</ele>
        <time>2020-10-07T11:51:30.223Z</time>
      </trkpt>
      <trkpt lat="55.22581" lon="25.40751">
        <ele>155.096625</ele>
        <time>2020-10-07T11:51:31.292Z</time>
      </trkpt>
      <trkpt lat="55.22575" lon="25.40746">
        <ele>155.187087</ele>
        <time>2020-10-07T11:51:33.153Z</time>
      </trkpt>
      <trkpt lat="55.22566" lon="25.40739">
        <ele>155.301444</ele>
        <time>2020-10-07T11:51:35.933Z</time>
      </trkpt>
      <trkpt lat="55.225" lon="25.40684">
        <ele>156.201206</ele>
        <time>2020-10-07T11:51:56.428Z</time>
      </trkpt>
      <trkpt lat="55.22482" lon="25.40669">
        <ele>156.497776</ele>
        <time>2020-10-07T11:52:01.773Z</time>
      </trkpt>
      <trkpt lat="55.22473" lon="25.40662">
        <ele>156.645676</ele>
        <time>2020-10-07T11:52:04.403Z</time>
      </trkpt>
      <trkpt lat="55.22467" lon="25.40687">
        <ele>156.88268</ele>
        <time>2020-10-07T11:52:08.867Z</time>
      </trkpt>
      <trkpt lat="55.22323" lon="25.40578">
        <ele>159.134943</ele>
        <time>2020-10-07T11:52:55.124Z</time>
      </trkpt>
      <trkpt lat="55.22307" lon="25.40565">
        <ele>159.281005</ele>
        <time>2020-10-07T11:53:00.426Z</time>
      </trkpt>
      <trkpt lat="55.22282" lon="25.40546">
        <ele>159.508741</ele>
        <time>2020-10-07T11:53:08.415Z</time>
      </trkpt>
      <trkpt lat="55.22264" lon="25.40533">
        <ele>159.666771</ele>
        <time>2020-10-07T11:53:13.757Z</time>
      </trkpt>
      <trkpt lat="55.22198" lon="25.40483">
        <ele>160.260333</ele>
        <time>2020-10-07T11:53:32.345Z</time>
      </trkpt>
      <trkpt lat="55.22173" lon="25.40467">
        <ele>160.426562</ele>
        <time>2020-10-07T11:53:38.679Z</time>
      </trkpt>
      <trkpt lat="55.22162" lon="25.40459">
        <ele>160.294688</ele>
        <time>2020-10-07T11:53:41.494Z</time>
      </trkpt>
      <trkpt lat="55.22056" lon="25.4041">
        <ele>159.10787</ele>
        <time>2020-10-07T11:54:03.503Z</time>
      </trkpt>
      <trkpt lat="55.21982" lon="25.40379">
        <ele>158.187708</ele>
        <time>2020-10-07T11:54:17.630Z</time>
      </trkpt>
      <trkpt lat="55.21865" lon="25.40332">
        <ele>156.342183</ele>
        <time>2020-10-07T11:54:40.316Z</time>
      </trkpt>
      <trkpt lat="55.21854" lon="25.40326">
        <ele>156.163864</ele>
        <time>2020-10-07T11:54:42.548Z</time>
      </trkpt>
      <trkpt lat="55.21849" lon="25.40338">
        <ele>156.035343</ele>
        <time>2020-10-07T11:54:44.296Z</time>
      </trkpt>
      <trkpt lat="55.2184" lon="25.40338">
        <ele>155.904857</ele>
        <time>2020-10-07T11:54:46.045Z</time>
      </trkpt>
      <trkpt lat="55.2179" lon="25.40317">
        <ele>155.569594</ele>
        <time>2020-10-07T11:54:56.776Z</time>
      </trkpt>
      <trkpt lat="55.21787" lon="25.40309">
        <ele>155.546165</ele>
        <time>2020-10-07T11:54:57.928Z</time>
      </trkpt>
      <trkpt lat="55.21792" lon="25.40292">
        <ele>155.499238</ele>
        <time>2020-10-07T11:55:00.415Z</time>
      </trkpt>
      <trkpt lat="55.21795" lon="25.4028">
        <ele>155.466161</ele>
        <time>2020-10-07T11:55:01.980Z</time>
      </trkpt>
      <trkpt lat="55.21794" lon="25.40267">
        <ele>155.435163</ele>
        <time>2020-10-07T11:55:03.599Z</time>
      </trkpt>
      <trkpt lat="55.21748" lon="25.40249">
        <ele>155.237631</ele>
        <time>2020-10-07T11:55:13.641Z</time>
      </trkpt>
      <trkpt lat="55.21724" lon="25.40237">
        <ele>155.12919</ele>
        <time>2020-10-07T11:55:19.462Z</time>
      </trkpt>
      <trkpt lat="55.21642" lon="25.40188">
        <ele>155.245556</ele>
        <time>2020-10-07T11:55:40.126Z</time>
      </trkpt>
      <trkpt lat="55.21605" lon="25.40155">
        <ele>155.454819</ele>
        <time>2020-10-07T11:55:50.403Z</time>
      </trkpt>
      <trkpt lat="55.21529" lon="25.40069">
        <ele>155.906238</ele>
        <time>2020-10-07T11:56:14.335Z</time>
      </trkpt>
      <trkpt lat="55.21524" lon="25.40063">
        <ele>155.915066</ele>
        <time>2020-10-07T11:56:15.782Z</time>
      </trkpt>
      <trkpt lat="55.2152" lon="25.4006">
        <ele>155.922079</ele>
        <time>2020-10-07T11:56:17.049Z</time>
      </trkpt>
      <trkpt lat="55.21495" lon="25.40024">
        <ele>155.974113</ele>
        <time>2020-10-07T11:56:25.453Z</time>
      </trkpt>
      <trkpt lat="55.21493" lon="25.39993">
        <ele>156.002587</ele>
        <time>2020-10-07T11:56:29.937Z</time>
      </trkpt>
      <trkpt lat="55.21486" lon="25.39986">
        <ele>156.01551</ele>
        <time>2020-10-07T11:56:32.088Z</time>
      </trkpt>
      <trkpt lat="55.21481" lon="25.39984">
        <ele>156.024243</ele>
        <time>2020-10-07T11:56:33.688Z</time>
      </trkpt>
      <trkpt lat="55.21471" lon="25.39998">
        <ele>156.044343</ele>
        <time>2020-10-07T11:56:36.893Z</time>
      </trkpt>
      <trkpt lat="55.21459" lon="25.3999">
        <ele>156.065863</ele>
        <time>2020-10-07T11:56:40.161Z</time>
      </trkpt>
      <trkpt lat="55.2136" lon="25.39882">
        <ele>155.475994</ele>
        <time>2020-10-07T11:57:05.206Z</time>
      </trkpt>
      <trkpt lat="55.21313" lon="25.39822">
        <ele>154.411562</ele>
        <time>2020-10-07T11:57:16.531Z</time>
      </trkpt>
      <trkpt lat="55.21301" lon="25.3981">
        <ele>154.160224</ele>
        <time>2020-10-07T11:57:18.895Z</time>
      </trkpt>
      <trkpt lat="55.21185" lon="25.39626">
        <ele>151.333908</ele>
        <time>2020-10-07T11:57:46.381Z</time>
      </trkpt>
      <trkpt lat="55.21155" lon="25.39595">
        <ele>150.697763</ele>
        <time>2020-10-07T11:57:52.977Z</time>
      </trkpt>
      <trkpt lat="55.21136" lon="25.39588">
        <ele>150.351348</ele>
        <time>2020-10-07T11:57:56.828Z</time>
      </trkpt>
      <trkpt lat="55.21135" lon="25.39583">
        <ele>150.29397</ele>
        <time>2020-10-07T11:57:57.397Z</time>
      </trkpt>
      <trkpt lat="55.21133" lon="25.39577">
        <ele>150.22579</ele>
        <time>2020-10-07T11:57:58.062Z</time>
      </trkpt>
      <trkpt lat="55.21124" lon="25.39577">
        <ele>150.059552</ele>
        <time>2020-10-07T11:57:59.943Z</time>
      </trkpt>
      <trkpt lat="55.21116" lon="25.39588">
        <ele>149.868516</ele>
        <time>2020-10-07T11:58:02.138Z</time>
      </trkpt>
      <trkpt lat="55.21047" lon="25.39609">
        <ele>150.266456</ele>
        <time>2020-10-07T11:58:18.962Z</time>
      </trkpt>
      <trkpt lat="55.21009" lon="25.39617">
        <ele>150.645409</ele>
        <time>2020-10-07T11:58:30.074Z</time>
      </trkpt>
      <trkpt lat="55.20944" lon="25.39618">
        <ele>151.289794</ele>
        <time>2020-10-07T11:58:48.071Z</time>
      </trkpt>
      <trkpt lat="55.20942" lon="25.39618">
        <ele>151.310714</ele>
        <time>2020-10-07T11:58:49.266Z</time>
      </trkpt>
      <trkpt lat="55.20937" lon="25.3962">
        <ele>151.362943</ele>
        <time>2020-10-07T11:58:51.460Z</time>
      </trkpt>
      <trkpt lat="55.20894" lon="25.39625">
        <ele>151.887272</ele>
        <time>2020-10-07T11:59:04.702Z</time>
      </trkpt>
      <trkpt lat="55.20867" lon="25.39628">
        <ele>152.244909</ele>
        <time>2020-10-07T11:59:13.885Z</time>
      </trkpt>
      <trkpt lat="55.20836" lon="25.39634">
        <ele>152.642258</ele>
        <time>2020-10-07T11:59:22.475Z</time>
      </trkpt>
      <trkpt lat="55.20555" lon="25.39758">
        <ele>155.132611</ele>
        <time>2020-10-07T12:00:38.781Z</time>
      </trkpt>
      <trkpt lat="55.20551" lon="25.39757">
        <ele>155.138762</ele>
        <time>2020-10-07T12:00:39.927Z</time>
      </trkpt>
      <trkpt lat="55.20546" lon="25.39762">
        <ele>155.148864</ele>
        <time>2020-10-07T12:00:41.027Z</time>
      </trkpt>
      <trkpt lat="55.20446" lon="25.39811">
        <ele>155.32516</ele>
        <time>2020-10-07T12:01:04.881Z</time>
      </trkpt>
      <trkpt lat="55.20401" lon="25.39826">
        <ele>155.402922</ele>
        <time>2020-10-07T12:01:15.223Z</time>
      </trkpt>
      <trkpt lat="55.20393" lon="25.39821">
        <ele>155.535566</ele>
        <time>2020-10-07T12:01:17.403Z</time>
      </trkpt>
      <trkpt lat="55.20387" lon="25.39807">
        <ele>155.677638</ele>
        <time>2020-10-07T12:01:19.927Z</time>
      </trkpt>
      <trkpt lat="55.20383" lon="25.39823">
        <ele>155.824898</ele>
        <time>2020-10-07T12:01:23.823Z</time>
      </trkpt>
      <trkpt lat="55.20385" lon="25.39832">
        <ele>155.911122</ele>
        <time>2020-10-07T12:01:25.205Z</time>
      </trkpt>
      <trkpt lat="55.20385" lon="25.39845">
        <ele>156.012864</ele>
        <time>2020-10-07T12:01:26.845Z</time>
      </trkpt>
      <trkpt lat="55.2036" lon="25.39852">
        <ele>156.396448</ele>
        <time>2020-10-07T12:01:33.757Z</time>
      </trkpt>
      <trkpt lat="55.20242" lon="25.39868">
        <ele>158.2035</ele>
        <time>2020-10-07T12:02:08.966Z</time>
      </trkpt>
      <trkpt lat="55.20121" lon="25.39878">
        <ele>161.742119</ele>
        <time>2020-10-07T12:02:50.955Z</time>
      </trkpt>
      <trkpt lat="55.20056" lon="25.39884">
        <ele>163.563664</ele>
        <time>2020-10-07T12:03:13.458Z</time>
      </trkpt>
      <trkpt lat="55.19918" lon="25.39893">
        <ele>166.997444</ele>
        <time>2020-10-07T12:03:59.522Z</time>
      </trkpt>
      <trkpt lat="55.19714" lon="25.39909">
        <ele>169.598189</ele>
        <time>2020-10-07T12:04:55.494Z</time>
      </trkpt>
      <trkpt lat="55.19687" lon="25.39911">
        <ele>169.45417</ele>
        <time>2020-10-07T12:05:01.083Z</time>
      </trkpt>
      <trkpt lat="55.19666" lon="25.39911">
        <ele>169.250937</ele>
        <time>2020-10-07T12:05:05.317Z</time>
      </trkpt>
      <trkpt lat="55.19571" lon="25.39913">
        <ele>168.344042</ele>
        <time>2020-10-07T12:05:22.938Z</time>
      </trkpt>
      <trkpt lat="55.19433" lon="25.39902">
        <ele>167.099375</ele>
        <time>2020-10-07T12:05:48.302Z</time>
      </trkpt>
      <trkpt lat="55.19379" lon="25.39886">
        <ele>166.612668</ele>
        <time>2020-10-07T12:05:59.759Z</time>
      </trkpt>
      <trkpt lat="55.19268" lon="25.39828">
        <ele>166.882126</ele>
        <time>2020-10-07T12:06:26.528Z</time>
      </trkpt>
      <trkpt lat="55.19178" lon="25.39764">
        <ele>167.463135</ele>
        <time>2020-10-07T12:06:52.192Z</time>
      </trkpt>
      <trkpt lat="55.19153" lon="25.39746">
        <ele>167.608484</ele>
        <time>2020-10-07T12:06:59.543Z</time>
      </trkpt>
      <trkpt lat="55.19071" lon="25.39677">
        <ele>168.090864</ele>
        <time>2020-10-07T12:07:22.551Z</time>
      </trkpt>
      <trkpt lat="55.18998" lon="25.39617">
        <ele>168.164851</ele>
        <time>2020-10-07T12:07:40.810Z</time>
      </trkpt>
      <trkpt lat="55.18992" lon="25.39611">
        <ele>168.092158</ele>
        <time>2020-10-07T12:07:42.177Z</time>
      </trkpt>
      <trkpt lat="55.18616" lon="25.3934">
        <ele>162.838102</ele>
        <time>2020-10-07T12:08:57.910Z</time>
      </trkpt>
      <trkpt lat="55.18565" lon="25.39306">
        <ele>161.97061</ele>
        <time>2020-10-07T12:09:07.678Z</time>
      </trkpt>
      <trkpt lat="55.18536" lon="25.39286">
        <ele>161.471493</ele>
        <time>2020-10-07T12:09:13.295Z</time>
      </trkpt>
      <trkpt lat="55.18519" lon="25.39276">
        <ele>161.192686</ele>
        <time>2020-10-07T12:09:16.407Z</time>
      </trkpt>
      <trkpt lat="55.18511" lon="25.39271">
        <ele>161.045304</ele>
        <time>2020-10-07T12:09:17.944Z</time>
      </trkpt>
      <trkpt lat="55.18483" lon="25.39255">
        <ele>160.51988</ele>
        <time>2020-10-07T12:09:23.331Z</time>
      </trkpt>
      <trkpt lat="55.18285" lon="25.39197">
        <ele>157.206269</ele>
        <time>2020-10-07T12:09:59.540Z</time>
      </trkpt>
      <trkpt lat="55.18219" lon="25.39179">
        <ele>156.271581</ele>
        <time>2020-10-07T12:10:11.825Z</time>
      </trkpt>
      <trkpt lat="55.18214" lon="25.39178">
        <ele>156.202897</ele>
        <time>2020-10-07T12:10:12.625Z</time>
      </trkpt>
      <trkpt lat="55.18173" lon="25.39155">
        <ele>155.593885</ele>
        <time>2020-10-07T12:10:20.920Z</time>
      </trkpt>
      <trkpt lat="55.18156" lon="25.39139">
        <ele>155.418471</ele>
        <time>2020-10-07T12:10:24.658Z</time>
      </trkpt>
      <trkpt lat="55.18143" lon="25.39123">
        <ele>155.312798</ele>
        <time>2020-10-07T12:10:27.708Z</time>
      </trkpt>
      <trkpt lat="55.18114" lon="25.39076">
        <ele>155.047667</ele>
        <time>2020-10-07T12:10:35.536Z</time>
      </trkpt>
      <trkpt lat="55.18078" lon="25.39007">
        <ele>154.691855</ele>
        <time>2020-10-07T12:10:46.043Z</time>
      </trkpt>
      <trkpt lat="55.18024" lon="25.38901">
        <ele>154.275384</ele>
        <time>2020-10-07T12:11:03.537Z</time>
      </trkpt>
      <trkpt lat="55.17996" lon="25.38852">
        <ele>154.231021</ele>
        <time>2020-10-07T12:11:12.189Z</time>
      </trkpt>
      <trkpt lat="55.17976" lon="25.38812">
        <ele>154.196698</ele>
        <time>2020-10-07T12:11:18.822Z</time>
      </trkpt>
      <trkpt lat="55.17861" lon="25.3859">
        <ele>154.409083</ele>
        <time>2020-10-07T12:11:56.550Z</time>
      </trkpt>
      <trkpt lat="55.17846" lon="25.3856">
        <ele>154.49291</ele>
        <time>2020-10-07T12:12:02.007Z</time>
      </trkpt>
      <trkpt lat="55.17805" lon="25.38498">
        <ele>154.691316</ele>
        <time>2020-10-07T12:12:15.745Z</time>
      </trkpt>
      <trkpt lat="55.17787" lon="25.38481">
        <ele>154.775447</ele>
        <time>2020-10-07T12:12:20.838Z</time>
      </trkpt>
      <trkpt lat="55.1775" lon="25.38459">
        <ele>155.175546</ele>
        <time>2020-10-07T12:12:31.103Z</time>
      </trkpt>
      <trkpt lat="55.17726" lon="25.38456">
        <ele>155.421797</ele>
        <time>2020-10-07T12:12:37.587Z</time>
      </trkpt>
      <trkpt lat="55.17715" lon="25.38459">
        <ele>155.535301</ele>
        <time>2020-10-07T12:12:40.541Z</time>
      </trkpt>
      <trkpt lat="55.177" lon="25.38466">
        <ele>155.688439</ele>
        <time>2020-10-07T12:12:44.697Z</time>
      </trkpt>
      <trkpt lat="55.1766" lon="25.38516">
        <ele>156.195265</ele>
        <time>2020-10-07T12:12:57.981Z</time>
      </trkpt>
      <trkpt lat="55.17609" lon="25.38662">
        <ele>157.019781</ele>
        <time>2020-10-07T12:13:23.737Z</time>
      </trkpt>
      <trkpt lat="55.1759" lon="25.38701">
        <ele>157.229093</ele>
        <time>2020-10-07T12:13:30.786Z</time>
      </trkpt>
      <trkpt lat="55.17577" lon="25.38725">
        <ele>157.36886</ele>
        <time>2020-10-07T12:13:35.635Z</time>
      </trkpt>
      <trkpt lat="55.17563" lon="25.38744">
        <ele>157.500847</ele>
        <time>2020-10-07T12:13:39.904Z</time>
      </trkpt>
      <trkpt lat="55.17511" lon="25.38789">
        <ele>157.924416</ele>
        <time>2020-10-07T12:13:54.013Z</time>
      </trkpt>
      <trkpt lat="55.17383" lon="25.38855">
        <ele>158.967102</ele>
        <time>2020-10-07T12:14:26.958Z</time>
      </trkpt>
      <trkpt lat="55.17342" lon="25.38867">
        <ele>159.291203</ele>
        <time>2020-10-07T12:14:38.194Z</time>
      </trkpt>
      <trkpt lat="55.17289" lon="25.38866">
        <ele>159.98862</ele>
        <time>2020-10-07T12:14:52.894Z</time>
      </trkpt>
      <trkpt lat="55.17272" lon="25.38864">
        <ele>160.224694</ele>
        <time>2020-10-07T12:14:57.960Z</time>
      </trkpt>
      <trkpt lat="55.17244" lon="25.38861">
        <ele>160.599376</ele>
        <time>2020-10-07T12:15:06.014Z</time>
      </trkpt>
      <trkpt lat="55.16976" lon="25.38814">
        <ele>163.536697</ele>
        <time>2020-10-07T12:16:19.006Z</time>
      </trkpt>
      <trkpt lat="55.16969" lon="25.38812">
        <ele>163.50661</ele>
        <time>2020-10-07T12:16:20.577Z</time>
      </trkpt>
      <trkpt lat="55.16893" lon="25.38795">
        <ele>163.197187</ele>
        <time>2020-10-07T12:16:36.279Z</time>
      </trkpt>
      <trkpt lat="55.1678" lon="25.3874">
        <ele>162.79845</ele>
        <time>2020-10-07T12:16:59.227Z</time>
      </trkpt>
      <trkpt lat="55.16522" lon="25.38558">
        <ele>162.982355</ele>
        <time>2020-10-07T12:18:02.074Z</time>
      </trkpt>
      <trkpt lat="55.16494" lon="25.3854">
        <ele>163.070998</ele>
        <time>2020-10-07T12:18:09.448Z</time>
      </trkpt>
      <trkpt lat="55.16456" lon="25.38516">
        <ele>163.278656</ele>
        <time>2020-10-07T12:18:19.754Z</time>
      </trkpt>
      <trkpt lat="55.16414" lon="25.38504">
        <ele>163.650963</ele>
        <time>2020-10-07T12:18:30.909Z</time>
      </trkpt>
      <trkpt lat="55.16374" lon="25.38508">
        <ele>163.99074</ele>
        <time>2020-10-07T12:18:41.260Z</time>
      </trkpt>
      <trkpt lat="55.16242" lon="25.38559">
        <ele>164.890253</ele>
        <time>2020-10-07T12:19:16.100Z</time>
      </trkpt>
      <trkpt lat="55.16177" lon="25.38583">
        <ele>165.125532</ele>
        <time>2020-10-07T12:19:31.360Z</time>
      </trkpt>
      <trkpt lat="55.16043" lon="25.3863">
        <ele>165.501684</ele>
        <time>2020-10-07T12:20:02.363Z</time>
      </trkpt>
      <trkpt lat="55.16021" lon="25.38636">
        <ele>165.548324</ele>
        <time>2020-10-07T12:20:07.244Z</time>
      </trkpt>
      <trkpt lat="55.16014" lon="25.38638">
        <ele>165.562669</ele>
        <time>2020-10-07T12:20:09.000Z</time>
      </trkpt>
      <trkpt lat="55.15982" lon="25.38641">
        <ele>165.628486</ele>
        <time>2020-10-07T12:20:16.180Z</time>
      </trkpt>
      <trkpt lat="55.15838" lon="25.38626">
        <ele>166.046968</ele>
        <time>2020-10-07T12:20:51.166Z</time>
      </trkpt>
      <trkpt lat="55.15755" lon="25.38651">
        <ele>166.316533</ele>
        <time>2020-10-07T12:21:10.418Z</time>
      </trkpt>
      <trkpt lat="55.15689" lon="25.38697">
        <ele>166.543321</ele>
        <time>2020-10-07T12:21:26.452Z</time>
      </trkpt>
      <trkpt lat="55.15637" lon="25.3875">
        <ele>166.738048</ele>
        <time>2020-10-07T12:21:40.464Z</time>
      </trkpt>
      <trkpt lat="55.15611" lon="25.38775">
        <ele>166.831167</ele>
        <time>2020-10-07T12:21:47.528Z</time>
      </trkpt>
      <trkpt lat="55.15525" lon="25.38834">
        <ele>168.432539</ele>
        <time>2020-10-07T12:22:12.234Z</time>
      </trkpt>
      <trkpt lat="55.15446" lon="25.38858">
        <ele>169.985814</ele>
        <time>2020-10-07T12:22:37.305Z</time>
      </trkpt>
      <trkpt lat="55.15285" lon="25.3889">
        <ele>175.747758</ele>
        <time>2020-10-07T12:23:36.577Z</time>
      </trkpt>
      <trkpt lat="55.15208" lon="25.38914">
        <ele>179.018671</ele>
        <time>2020-10-07T12:24:09.043Z</time>
      </trkpt>
      <trkpt lat="55.15109" lon="25.38959">
        <ele>183.626024</ele>
        <time>2020-10-07T12:24:51.557Z</time>
      </trkpt>
      <trkpt lat="55.15087" lon="25.38971">
        <ele>184.666591</ele>
        <time>2020-10-07T12:25:01.269Z</time>
      </trkpt>
      <trkpt lat="55.15081" lon="25.38975">
        <ele>184.984745</ele>
        <time>2020-10-07T12:25:03.875Z</time>
      </trkpt>
      <trkpt lat="55.14945" lon="25.39052">
        <ele>188.711934</ele>
        <time>2020-10-07T12:25:53.430Z</time>
      </trkpt>
      <trkpt lat="55.14868" lon="25.39096">
        <ele>189.636183</ele>
        <time>2020-10-07T12:26:13.360Z</time>
      </trkpt>
      <trkpt lat="55.14756" lon="25.39167">
        <ele>189.046319</ele>
        <time>2020-10-07T12:26:37.118Z</time>
      </trkpt>
      <trkpt lat="55.14689" lon="25.3923">
        <ele>188.230733</ele>
        <time>2020-10-07T12:26:51.048Z</time>
      </trkpt>
      <trkpt lat="55.14636" lon="25.39306">
        <ele>187.319855</ele>
        <time>2020-10-07T12:27:03.527Z</time>
      </trkpt>
      <trkpt lat="55.1461" lon="25.39349">
        <ele>186.83635</ele>
        <time>2020-10-07T12:27:10.135Z</time>
      </trkpt>
      <trkpt lat="55.14578" lon="25.3939">
        <ele>186.576443</ele>
        <time>2020-10-07T12:27:17.729Z</time>
      </trkpt>
      <trkpt lat="55.14517" lon="25.39436">
        <ele>186.779952</ele>
        <time>2020-10-07T12:27:31.562Z</time>
      </trkpt>
      <trkpt lat="55.14481" lon="25.3945">
        <ele>186.891717</ele>
        <time>2020-10-07T12:27:40.487Z</time>
      </trkpt>
      <trkpt lat="55.14389" lon="25.39486">
        <ele>187.704002</ele>
        <time>2020-10-07T12:28:07.257Z</time>
      </trkpt>
      <trkpt lat="55.14257" lon="25.3952">
        <ele>190.15452</ele>
        <time>2020-10-07T12:28:48.544Z</time>
      </trkpt>
      <trkpt lat="55.14206" lon="25.39515">
        <ele>190.561821</ele>
        <time>2020-10-07T12:29:02.582Z</time>
      </trkpt>
      <trkpt lat="55.14204" lon="25.39515">
        <ele>190.575537</ele>
        <time>2020-10-07T12:29:03.274Z</time>
      </trkpt>
      <trkpt lat="55.14185" lon="25.39514">
        <ele>190.665233</ele>
        <time>2020-10-07T12:29:07.802Z</time>
      </trkpt>
      <trkpt lat="55.14132" lon="25.39504">
        <ele>190.92554</ele>
        <time>2020-10-07T12:29:20.986Z</time>
      </trkpt>
      <trkpt lat="55.13988" lon="25.39478">
        <ele>190.22373</ele>
        <time>2020-10-07T12:29:51.025Z</time>
      </trkpt>
      <trkpt lat="55.13978" lon="25.39476">
        <ele>190.086305</ele>
        <time>2020-10-07T12:29:53.049Z</time>
      </trkpt>
      <trkpt lat="55.13947" lon="25.39469">
        <ele>189.678798</ele>
        <time>2020-10-07T12:29:58.725Z</time>
      </trkpt>
      <trkpt lat="55.13931" lon="25.39466">
        <ele>189.462393</ele>
        <time>2020-10-07T12:30:01.639Z</time>
      </trkpt>
      <trkpt lat="55.1387" lon="25.39453">
        <ele>188.363278</ele>
        <time>2020-10-07T12:30:12.275Z</time>
      </trkpt>
      <trkpt lat="55.1371" lon="25.39421">
        <ele>183.602989</ele>
        <time>2020-10-07T12:30:38.642Z</time>
      </trkpt>
      <trkpt lat="55.13686" lon="25.39414">
        <ele>183.075168</ele>
        <time>2020-10-07T12:30:42.648Z</time>
      </trkpt>
      <trkpt lat="55.13636" lon="25.39394">
        <ele>182.01694</ele>
        <time>2020-10-07T12:30:50.986Z</time>
      </trkpt>
      <trkpt lat="55.13562" lon="25.39338">
        <ele>180.317603</ele>
        <time>2020-10-07T12:31:05.173Z</time>
      </trkpt>
      <trkpt lat="55.13547" lon="25.39323">
        <ele>179.952146</ele>
        <time>2020-10-07T12:31:08.613Z</time>
      </trkpt>
      <trkpt lat="55.13531" lon="25.39308">
        <ele>179.847304</ele>
        <time>2020-10-07T12:31:12.208Z</time>
      </trkpt>
      <trkpt lat="55.13476" lon="25.39218">
        <ele>180.379811</ele>
        <time>2020-10-07T12:31:30.089Z</time>
      </trkpt>
      <trkpt lat="55.1346" lon="25.39188">
        <ele>180.540299</ele>
        <time>2020-10-07T12:31:35.819Z</time>
      </trkpt>
      <trkpt lat="55.13399" lon="25.39068">
        <ele>181.374874</ele>
        <time>2020-10-07T12:32:02.689Z</time>
      </trkpt>
      <trkpt lat="55.13369" lon="25.39017">
        <ele>182.049259</ele>
        <time>2020-10-07T12:32:15.612Z</time>
      </trkpt>
      <trkpt lat="55.13304" lon="25.38942">
        <ele>183.296043</ele>
        <time>2020-10-07T12:32:39.926Z</time>
      </trkpt>
      <trkpt lat="55.13069" lon="25.38796">
        <ele>184.036325</ele>
        <time>2020-10-07T12:33:37.317Z</time>
      </trkpt>
      <trkpt lat="55.12988" lon="25.38718">
        <ele>183.187869</ele>
        <time>2020-10-07T12:33:55.036Z</time>
      </trkpt>
      <trkpt lat="55.12944" lon="25.38664">
        <ele>182.689482</ele>
        <time>2020-10-07T12:34:05.054Z</time>
      </trkpt>
      <trkpt lat="55.12871" lon="25.38554">
        <ele>181.246066</ele>
        <time>2020-10-07T12:34:22.568Z</time>
      </trkpt>
      <trkpt lat="55.12818" lon="25.38461">
        <ele>180.109959</ele>
        <time>2020-10-07T12:34:36.261Z</time>
      </trkpt>
      <trkpt lat="55.12775" lon="25.3836">
        <ele>179.369866</ele>
        <time>2020-10-07T12:34:49.933Z</time>
      </trkpt>
      <trkpt lat="55.12737" lon="25.38261">
        <ele>178.748879</ele>
        <time>2020-10-07T12:35:03.423Z</time>
      </trkpt>
      <trkpt lat="55.12726" lon="25.38231">
        <ele>178.565327</ele>
        <time>2020-10-07T12:35:07.519Z</time>
      </trkpt>
      <trkpt lat="55.12696" lon="25.38134">
        <ele>178.015263</ele>
        <time>2020-10-07T12:35:20.456Z</time>
      </trkpt>
      <trkpt lat="55.12678" lon="25.38052">
        <ele>177.59269</ele>
        <time>2020-10-07T12:35:30.698Z</time>
      </trkpt>
      <trkpt lat="55.12672" lon="25.3802">
        <ele>177.435139</ele>
        <time>2020-10-07T12:35:34.584Z</time>
      </trkpt>
      <trkpt lat="55.12596" lon="25.37451">
        <ele>174.146372</ele>
        <time>2020-10-07T12:36:38.288Z</time>
      </trkpt>
      <trkpt lat="55.12582" lon="25.37364">
        <ele>173.780854</ele>
        <time>2020-10-07T12:36:48.908Z</time>
      </trkpt>
      <trkpt lat="55.12573" lon="25.37333">
        <ele>173.640026</ele>
        <time>2020-10-07T12:36:52.796Z</time>
      </trkpt>
      <trkpt lat="55.12563" lon="25.37303">
        <ele>173.498456</ele>
        <time>2020-10-07T12:36:57.238Z</time>
      </trkpt>
      <trkpt lat="55.12532" lon="25.37245">
        <ele>173.372655</ele>
        <time>2020-10-07T12:37:06.952Z</time>
      </trkpt>
      <trkpt lat="55.12498" lon="25.37205">
        <ele>173.336473</ele>
        <time>2020-10-07T12:37:15.883Z</time>
      </trkpt>
      <trkpt lat="55.12278" lon="25.36989">
        <ele>173.351169</ele>
        <time>2020-10-07T12:38:12.333Z</time>
      </trkpt>
      <trkpt lat="55.12258" lon="25.36959">
        <ele>173.370553</ele>
        <time>2020-10-07T12:38:18.070Z</time>
      </trkpt>
      <trkpt lat="55.12227" lon="25.36892">
        <ele>173.804004</ele>
        <time>2020-10-07T12:38:29.492Z</time>
      </trkpt>
      <trkpt lat="55.12209" lon="25.3681">
        <ele>174.325659</ele>
        <time>2020-10-07T12:38:41.984Z</time>
      </trkpt>
      <trkpt lat="55.12204" lon="25.36755">
        <ele>174.652797</ele>
        <time>2020-10-07T12:38:50.294Z</time>
      </trkpt>
      <trkpt lat="55.12204" lon="25.36696">
        <ele>175.002683</ele>
        <time>2020-10-07T12:38:59.593Z</time>
      </trkpt>
      <trkpt lat="55.12219" lon="25.36315">
        <ele>180.403744</ele>
        <time>2020-10-07T12:40:11.069Z</time>
      </trkpt>
      <trkpt lat="55.12243" lon="25.35788">
        <ele>190.293552</ele>
        <time>2020-10-07T12:42:02.426Z</time>
      </trkpt>
      <trkpt lat="55.12237" lon="25.35717">
        <ele>191.540194</ele>
        <time>2020-10-07T12:42:14.667Z</time>
      </trkpt>
      <trkpt lat="55.12228" lon="25.35678">
        <ele>191.573451</ele>
        <time>2020-10-07T12:42:21.398Z</time>
      </trkpt>
      <trkpt lat="55.12205" lon="25.35619">
        <ele>191.584678</ele>
        <time>2020-10-07T12:42:31.599Z</time>
      </trkpt>
      <trkpt lat="55.12189" lon="25.35594">
        <ele>191.590562</ele>
        <time>2020-10-07T12:42:36.328Z</time>
      </trkpt>
      <trkpt lat="55.12179" lon="25.35577">
        <ele>191.5944</ele>
        <time>2020-10-07T12:42:39.328Z</time>
      </trkpt>
      <trkpt lat="55.12112" lon="25.35472">
        <ele>191.538036</ele>
        <time>2020-10-07T12:42:56.824Z</time>
      </trkpt>
      <trkpt lat="55.1205" lon="25.35368">
        <ele>190.856306</ele>
        <time>2020-10-07T12:43:13.005Z</time>
      </trkpt>
      <trkpt lat="55.12024" lon="25.35311">
        <ele>190.521927</ele>
        <time>2020-10-07T12:43:21.343Z</time>
      </trkpt>
      <trkpt lat="55.12" lon="25.35237">
        <ele>190.175023</ele>
        <time>2020-10-07T12:43:31.705Z</time>
      </trkpt>
      <trkpt lat="55.11962" lon="25.3507">
        <ele>189.993744</ele>
        <time>2020-10-07T12:43:54.634Z</time>
      </trkpt>
      <trkpt lat="55.11947" lon="25.35003">
        <ele>189.921634</ele>
        <time>2020-10-07T12:44:03.659Z</time>
      </trkpt>
      <trkpt lat="55.1191" lon="25.34829">
        <ele>189.610372</ele>
        <time>2020-10-07T12:44:25.829Z</time>
      </trkpt>
      <trkpt lat="55.11889" lon="25.34762">
        <ele>189.461634</ele>
        <time>2020-10-07T12:44:34.542Z</time>
      </trkpt>
      <trkpt lat="55.11864" lon="25.34713">
        <ele>189.335913</ele>
        <time>2020-10-07T12:44:42.081Z</time>
      </trkpt>
      <trkpt lat="55.11786" lon="25.34604">
        <ele>190.275038</ele>
        <time>2020-10-07T12:45:06.291Z</time>
      </trkpt>
      <trkpt lat="55.11593" lon="25.34336">
        <ele>194.138604</ele>
        <time>2020-10-07T12:46:21.600Z</time>
      </trkpt>
      <trkpt lat="55.11555" lon="25.34282">
        <ele>194.779337</ele>
        <time>2020-10-07T12:46:34.449Z</time>
      </trkpt>
      <trkpt lat="55.11535" lon="25.34239">
        <ele>194.831145</ele>
        <time>2020-10-07T12:46:42.233Z</time>
      </trkpt>
      <trkpt lat="55.11517" lon="25.34178">
        <ele>194.895552</ele>
        <time>2020-10-07T12:46:51.325Z</time>
      </trkpt>
      <trkpt lat="55.11513" lon="25.34147">
        <ele>194.924457</ele>
        <time>2020-10-07T12:46:55.074Z</time>
      </trkpt>
      <trkpt lat="55.11513" lon="25.34116">
        <ele>194.953204</ele>
        <time>2020-10-07T12:46:58.925Z</time>
      </trkpt>
      <trkpt lat="55.11515" lon="25.34072">
        <ele>194.994977</ele>
        <time>2020-10-07T12:47:04.167Z</time>
      </trkpt>
      <trkpt lat="55.11546" lon="25.33915">
        <ele>194.983004</ele>
        <time>2020-10-07T12:47:24.553Z</time>
      </trkpt>
      <trkpt lat="55.11554" lon="25.33847">
        <ele>194.938903</ele>
        <time>2020-10-07T12:47:33.484Z</time>
      </trkpt>
      <trkpt lat="55.11553" lon="25.33783">
        <ele>194.898815</ele>
        <time>2020-10-07T12:47:41.572Z</time>
      </trkpt>
      <trkpt lat="55.11538" lon="25.33672">
        <ele>194.767855</ele>
        <time>2020-10-07T12:47:56.155Z</time>
      </trkpt>
      <trkpt lat="55.11493" lon="25.3346">
        <ele>194.284306</ele>
        <time>2020-10-07T12:48:23.446Z</time>
      </trkpt>
      <trkpt lat="55.11478" lon="25.33398">
        <ele>194.092073</ele>
        <time>2020-10-07T12:48:31.245Z</time>
      </trkpt>
      <trkpt lat="55.11474" lon="25.33377">
        <ele>193.98667</ele>
        <time>2020-10-07T12:48:33.650Z</time>
      </trkpt>
      <trkpt lat="55.11447" lon="25.33269">
        <ele>193.41836</ele>
        <time>2020-10-07T12:48:47.030Z</time>
      </trkpt>
      <trkpt lat="55.1139" lon="25.33097">
        <ele>192.527469</ele>
        <time>2020-10-07T12:49:09.036Z</time>
      </trkpt>
      <trkpt lat="55.11346" lon="25.32971">
        <ele>192.051173</ele>
        <time>2020-10-07T12:49:25.878Z</time>
      </trkpt>
      <trkpt lat="55.11332" lon="25.32929">
        <ele>191.891177</ele>
        <time>2020-10-07T12:49:31.901Z</time>
      </trkpt>
      <trkpt lat="55.11303" lon="25.32853">
        <ele>191.618361</ele>
        <time>2020-10-07T12:49:43.174Z</time>
      </trkpt>
      <trkpt lat="55.11283" lon="25.32813">
        <ele>191.524655</ele>
        <time>2020-10-07T12:49:49.742Z</time>
      </trkpt>
      <trkpt lat="55.11231" lon="25.32725">
        <ele>191.304329</ele>
        <time>2020-10-07T12:50:05.145Z</time>
      </trkpt>
      <trkpt lat="55.11085" lon="25.32479">
        <ele>190.4298</ele>
        <time>2020-10-07T12:50:47.355Z</time>
      </trkpt>
      <trkpt lat="55.11079" lon="25.3247">
        <ele>190.392583</ele>
        <time>2020-10-07T12:50:48.882Z</time>
      </trkpt>
      <trkpt lat="55.11015" lon="25.32367">
        <ele>189.777216</ele>
        <time>2020-10-07T12:51:06.588Z</time>
      </trkpt>
      <trkpt lat="55.10985" lon="25.32333">
        <ele>189.471732</ele>
        <time>2020-10-07T12:51:13.543Z</time>
      </trkpt>
      <trkpt lat="55.10971" lon="25.32316">
        <ele>189.323808</ele>
        <time>2020-10-07T12:51:16.772Z</time>
      </trkpt>
      <trkpt lat="55.1093" lon="25.3228">
        <ele>188.93106</ele>
        <time>2020-10-07T12:51:25.651Z</time>
      </trkpt>
      <trkpt lat="55.10891" lon="25.32257">
        <ele>188.571064</ele>
        <time>2020-10-07T12:51:33.685Z</time>
      </trkpt>
      <trkpt lat="55.10868" lon="25.32249">
        <ele>188.364427</ele>
        <time>2020-10-07T12:51:38.116Z</time>
      </trkpt>
      <trkpt lat="55.10829" lon="25.32235">
        <ele>188.009137</ele>
        <time>2020-10-07T12:51:45.849Z</time>
      </trkpt>
      <trkpt lat="55.1077" lon="25.32215">
        <ele>187.480285</ele>
        <time>2020-10-07T12:51:57.677Z</time>
      </trkpt>
      <trkpt lat="55.10739" lon="25.32201">
        <ele>187.200834</ele>
        <time>2020-10-07T12:52:03.938Z</time>
      </trkpt>
      <trkpt lat="55.10682" lon="25.32139">
        <ele>186.722451</ele>
        <time>2020-10-07T12:52:17.614Z</time>
      </trkpt>
      <trkpt lat="55.10662" lon="25.32107">
        <ele>186.543404</ele>
        <time>2020-10-07T12:52:23.343Z</time>
      </trkpt>
      <trkpt lat="55.10516" lon="25.3188">
        <ele>184.792634</ele>
        <time>2020-10-07T12:53:02.562Z</time>
      </trkpt>
      <trkpt lat="55.10445" lon="25.31796">
        <ele>183.810713</ele>
        <time>2020-10-07T12:53:18.215Z</time>
      </trkpt>
      <trkpt lat="55.10247" lon="25.3163">
        <ele>180.145916</ele>
        <time>2020-10-07T12:53:57.051Z</time>
      </trkpt>
      <trkpt lat="55.10187" lon="25.3157">
        <ele>179.502151</ele>
        <time>2020-10-07T12:54:10.182Z</time>
      </trkpt>
      <trkpt lat="55.10119" lon="25.31486">
        <ele>178.939158</ele>
        <time>2020-10-07T12:54:27.967Z</time>
      </trkpt>
      <trkpt lat="55.10117" lon="25.31483">
        <ele>178.957884</ele>
        <time>2020-10-07T12:54:28.483Z</time>
      </trkpt>
      <trkpt lat="55.09998" lon="25.31308">
        <ele>180.105095</ele>
        <time>2020-10-07T12:55:08.508Z</time>
      </trkpt>
      <trkpt lat="55.09746" lon="25.30833">
        <ele>185.28719</ele>
        <time>2020-10-07T12:56:54.171Z</time>
      </trkpt>
      <trkpt lat="55.09715" lon="25.30772">
        <ele>184.908077</ele>
        <time>2020-10-07T12:57:04.377Z</time>
      </trkpt>
      <trkpt lat="55.09698" lon="25.30719">
        <ele>184.63118</ele>
        <time>2020-10-07T12:57:11.469Z</time>
      </trkpt>
      <trkpt lat="55.09687" lon="25.30653">
        <ele>184.308439</ele>
        <time>2020-10-07T12:57:19.430Z</time>
      </trkpt>
      <trkpt lat="55.09689" lon="25.30584">
        <ele>183.991439</ele>
        <time>2020-10-07T12:57:26.383Z</time>
      </trkpt>
      <trkpt lat="55.09695" lon="25.30528">
        <ele>183.356868</ele>
        <time>2020-10-07T12:57:31.972Z</time>
      </trkpt>
      <trkpt lat="55.09712" lon="25.30428">
        <ele>181.455501</ele>
        <time>2020-10-07T12:57:41.922Z</time>
      </trkpt>
      <trkpt lat="55.09718" lon="25.30369">
        <ele>180.343298</ele>
        <time>2020-10-07T12:57:47.533Z</time>
      </trkpt>
      <trkpt lat="55.0972" lon="25.30348">
        <ele>179.956923</ele>
        <time>2020-10-07T12:57:49.342Z</time>
      </trkpt>
      <trkpt lat="55.09721" lon="25.30275">
        <ele>178.61268</ele>
        <time>2020-10-07T12:57:56.102Z</time>
      </trkpt>
      <trkpt lat="55.09716" lon="25.30135">
        <ele>175.795759</ele>
        <time>2020-10-07T12:58:08.914Z</time>
      </trkpt>
      <trkpt lat="55.09704" lon="25.30034">
        <ele>173.680414</ele>
        <time>2020-10-07T12:58:18.296Z</time>
      </trkpt>
      <trkpt lat="55.09683" lon="25.29927">
        <ele>171.434814</ele>
        <time>2020-10-07T12:58:28.844Z</time>
      </trkpt>
      <trkpt lat="55.09663" lon="25.29862">
        <ele>170.343769</ele>
        <time>2020-10-07T12:58:35.717Z</time>
      </trkpt>
      <trkpt lat="55.0965" lon="25.29821">
        <ele>169.656458</ele>
        <time>2020-10-07T12:58:40.150Z</time>
      </trkpt>
      <trkpt lat="55.09648" lon="25.29815">
        <ele>169.56193</ele>
        <time>2020-10-07T12:58:40.734Z</time>
      </trkpt>
      <trkpt lat="55.09619" lon="25.29722">
        <ele>168.0032</ele>
        <time>2020-10-07T12:58:51.114Z</time>
      </trkpt>
      <trkpt lat="55.09605" lon="25.29657">
        <ele>166.994599</ele>
        <time>2020-10-07T12:58:58.174Z</time>
      </trkpt>
      <trkpt lat="55.096" lon="25.29621">
        <ele>166.831733</ele>
        <time>2020-10-07T12:59:01.961Z</time>
      </trkpt>
      <trkpt lat="55.09576" lon="25.29369">
        <ele>165.70792</ele>
        <time>2020-10-07T12:59:31.689Z</time>
      </trkpt>
      <trkpt lat="55.09555" lon="25.29257">
        <ele>165.316891</ele>
        <time>2020-10-07T12:59:47.033Z</time>
      </trkpt>
      <trkpt lat="55.09486" lon="25.28977">
        <ele>164.09704</ele>
        <time>2020-10-07T13:00:21.867Z</time>
      </trkpt>
      <trkpt lat="55.09466" lon="25.28897">
        <ele>163.549417</ele>
        <time>2020-10-07T13:00:31.201Z</time>
      </trkpt>
      <trkpt lat="55.09421" lon="25.28796">
        <ele>162.753397</ele>
        <time>2020-10-07T13:00:45.056Z</time>
      </trkpt>
      <trkpt lat="55.09391" lon="25.28742">
        <ele>162.252447</ele>
        <time>2020-10-07T13:00:53.371Z</time>
      </trkpt>
      <trkpt lat="55.09342" lon="25.28656">
        <ele>161.445988</ele>
        <time>2020-10-07T13:01:06.655Z</time>
      </trkpt>
      <trkpt lat="55.09251" lon="25.28494">
        <ele>159.894501</ele>
        <time>2020-10-07T13:01:31.005Z</time>
      </trkpt>
      <trkpt lat="55.09196" lon="25.28397">
        <ele>158.929231</ele>
        <time>2020-10-07T13:01:45.602Z</time>
      </trkpt>
      <trkpt lat="55.0916" lon="25.28322">
        <ele>158.396509</ele>
        <time>2020-10-07T13:01:56.295Z</time>
      </trkpt>
      <trkpt lat="55.09142" lon="25.28259">
        <ele>158.488354</ele>
        <time>2020-10-07T13:02:04.362Z</time>
      </trkpt>
      <trkpt lat="55.09113" lon="25.28106">
        <ele>158.699117</ele>
        <time>2020-10-07T13:02:25.705Z</time>
      </trkpt>
      <trkpt lat="55.09067" lon="25.27856">
        <ele>160.552843</ele>
        <time>2020-10-07T13:03:09.951Z</time>
      </trkpt>
      <trkpt lat="55.09017" lon="25.27585">
        <ele>160.978022</ele>
        <time>2020-10-07T13:03:55.047Z</time>
      </trkpt>
      <trkpt lat="55.0892" lon="25.27064">
        <ele>152.705905</ele>
        <time>2020-10-07T13:04:47.011Z</time>
      </trkpt>
      <trkpt lat="55.08906" lon="25.26984">
        <ele>150.405964</ele>
        <time>2020-10-07T13:04:54.410Z</time>
      </trkpt>
      <trkpt lat="55.08866" lon="25.26768">
        <ele>143.910363</ele>
        <time>2020-10-07T13:05:13.498Z</time>
      </trkpt>
      <trkpt lat="55.08848" lon="25.26688">
        <ele>141.205134</ele>
        <time>2020-10-07T13:05:20.717Z</time>
      </trkpt>
      <trkpt lat="55.08804" lon="25.26561">
        <ele>136.677602</ele>
        <time>2020-10-07T13:05:33.500Z</time>
      </trkpt>
      <trkpt lat="55.08796" lon="25.26535">
        <ele>136.285313</ele>
        <time>2020-10-07T13:05:36.190Z</time>
      </trkpt>
      <trkpt lat="55.08769" lon="25.26457">
        <ele>135.095847</ele>
        <time>2020-10-07T13:05:44.689Z</time>
      </trkpt>
      <trkpt lat="55.08757" lon="25.26403">
        <ele>134.339025</ele>
        <time>2020-10-07T13:05:50.401Z</time>
      </trkpt>
      <trkpt lat="55.08751" lon="25.26334">
        <ele>133.416842</ele>
        <time>2020-10-07T13:05:57.980Z</time>
      </trkpt>
      <trkpt lat="55.08749" lon="25.26158">
        <ele>132.189385</ele>
        <time>2020-10-07T13:06:19.550Z</time>
      </trkpt>
      <trkpt lat="55.08727" lon="25.26024">
        <ele>131.673435</ele>
        <time>2020-10-07T13:06:35.584Z</time>
      </trkpt>
      <trkpt lat="55.08702" lon="25.25932">
        <ele>131.216543</ele>
        <time>2020-10-07T13:06:46.982Z</time>
      </trkpt>
      <trkpt lat="55.08701" lon="25.25929">
        <ele>131.19564</ele>
        <time>2020-10-07T13:06:47.330Z</time>
      </trkpt>
      <trkpt lat="55.08607" lon="25.25622">
        <ele>129.630458</ele>
        <time>2020-10-07T13:07:25.784Z</time>
      </trkpt>
      <trkpt lat="55.08568" lon="25.2551">
        <ele>129.522019</ele>
        <time>2020-10-07T13:07:41.774Z</time>
      </trkpt>
      <trkpt lat="55.08547" lon="25.25465">
        <ele>129.473058</ele>
        <time>2020-10-07T13:07:49.879Z</time>
      </trkpt>
      <trkpt lat="55.08485" lon="25.25335">
        <ele>130.414998</ele>
        <time>2020-10-07T13:08:14.362Z</time>
      </trkpt>
      <trkpt lat="55.08462" lon="25.25298">
        <ele>130.853251</ele>
        <time>2020-10-07T13:08:23.354Z</time>
      </trkpt>
      <trkpt lat="55.08454" lon="25.25285">
        <ele>131.006686</ele>
        <time>2020-10-07T13:08:26.790Z</time>
      </trkpt>
      <trkpt lat="55.08407" lon="25.2524">
        <ele>131.754414</ele>
        <time>2020-10-07T13:08:42.508Z</time>
      </trkpt>
      <trkpt lat="55.08365" lon="25.25214">
        <ele>132.51317</ele>
        <time>2020-10-07T13:08:56.428Z</time>
      </trkpt>
      <trkpt lat="55.08335" lon="25.25208">
        <ele>133.051351</ele>
        <time>2020-10-07T13:09:05.393Z</time>
      </trkpt>
      <trkpt lat="55.0833" lon="25.25207">
        <ele>133.139822</ele>
        <time>2020-10-07T13:09:07.099Z</time>
      </trkpt>
      <trkpt lat="55.08266" lon="25.25224">
        <ele>134.30339</ele>
        <time>2020-10-07T13:09:26.258Z</time>
      </trkpt>
      <trkpt lat="55.08246" lon="25.25235">
        <ele>134.674755</ele>
        <time>2020-10-07T13:09:32.499Z</time>
      </trkpt>
      <trkpt lat="55.08194" lon="25.25279">
        <ele>135.453026</ele>
        <time>2020-10-07T13:09:48.554Z</time>
      </trkpt>
      <trkpt lat="55.08152" lon="25.25323">
        <ele>135.911546</ele>
        <time>2020-10-07T13:10:01.298Z</time>
      </trkpt>
      <trkpt lat="55.08119" lon="25.25358">
        <ele>136.268741</ele>
        <time>2020-10-07T13:10:11.312Z</time>
      </trkpt>
      <trkpt lat="55.08113" lon="25.25364">
        <ele>136.332976</ele>
        <time>2020-10-07T13:10:13.019Z</time>
      </trkpt>
      <trkpt lat="55.08083" lon="25.25396">
        <ele>136.664102</ele>
        <time>2020-10-07T13:10:22.133Z</time>
      </trkpt>
      <trkpt lat="55.0807" lon="25.2541">
        <ele>136.805746</ele>
        <time>2020-10-07T13:10:25.904Z</time>
      </trkpt>
      <trkpt lat="55.0805" lon="25.2543">
        <ele>136.875533</ele>
        <time>2020-10-07T13:10:31.573Z</time>
      </trkpt>
      <trkpt lat="55.08018" lon="25.25463">
        <ele>136.923118</ele>
        <time>2020-10-07T13:10:40.211Z</time>
      </trkpt>
      <trkpt lat="55.07996" lon="25.25486">
        <ele>136.955222</ele>
        <time>2020-10-07T13:10:45.873Z</time>
      </trkpt>
      <trkpt lat="55.07975" lon="25.25508">
        <ele>136.986553</ele>
        <time>2020-10-07T13:10:51.140Z</time>
      </trkpt>
      <trkpt lat="55.07965" lon="25.25519">
        <ele>137.00211</ele>
        <time>2020-10-07T13:10:53.806Z</time>
      </trkpt>
      <trkpt lat="55.07958" lon="25.25527">
        <ele>137.012848</ele>
        <time>2020-10-07T13:10:55.675Z</time>
      </trkpt>
      <trkpt lat="55.07946" lon="25.2554">
        <ele>137.031051</ele>
        <time>2020-10-07T13:10:58.757Z</time>
      </trkpt>
      <trkpt lat="55.07909" lon="25.25579">
        <ele>137.09386</ele>
        <time>2020-10-07T13:11:08.239Z</time>
      </trkpt>
      <trkpt lat="55.07898" lon="25.2559">
        <ele>137.137952</ele>
        <time>2020-10-07T13:11:11.058Z</time>
      </trkpt>
      <trkpt lat="55.07884" lon="25.25605">
        <ele>137.196774</ele>
        <time>2020-10-07T13:11:14.624Z</time>
      </trkpt>
      <trkpt lat="55.07869" lon="25.25621">
        <ele>137.262699</ele>
        <time>2020-10-07T13:11:18.806Z</time>
      </trkpt>
      <trkpt lat="55.07867" lon="25.25623">
        <ele>137.272416</ele>
        <time>2020-10-07T13:11:19.449Z</time>
      </trkpt>
      <trkpt lat="55.07851" lon="25.25639">
        <ele>137.339172</ele>
        <time>2020-10-07T13:11:23.637Z</time>
      </trkpt>
      <trkpt lat="55.07789" lon="25.25703">
        <ele>137.599723</ele>
        <time>2020-10-07T13:11:40.633Z</time>
      </trkpt>
      <trkpt lat="55.0778" lon="25.25712">
        <ele>137.635043</ele>
        <time>2020-10-07T13:11:43.126Z</time>
      </trkpt>
      <trkpt lat="55.0774" lon="25.25754">
        <ele>137.84905</ele>
        <time>2020-10-07T13:11:55.149Z</time>
      </trkpt>
      <trkpt lat="55.07717" lon="25.25778">
        <ele>138.01026</ele>
        <time>2020-10-07T13:12:02.390Z</time>
      </trkpt>
      <trkpt lat="55.07696" lon="25.258">
        <ele>138.153752</ele>
        <time>2020-10-07T13:12:08.870Z</time>
      </trkpt>
      <trkpt lat="55.07672" lon="25.25824">
        <ele>138.315976</ele>
        <time>2020-10-07T13:12:16.289Z</time>
      </trkpt>
      <trkpt lat="55.07657" lon="25.25841">
        <ele>138.422827</ele>
        <time>2020-10-07T13:12:21.205Z</time>
      </trkpt>
      <trkpt lat="55.07632" lon="25.25866">
        <ele>138.594261</ele>
        <time>2020-10-07T13:12:28.296Z</time>
      </trkpt>
      <trkpt lat="55.07626" lon="25.25872">
        <ele>138.633455</ele>
        <time>2020-10-07T13:12:29.925Z</time>
      </trkpt>
      <trkpt lat="55.07614" lon="25.25886">
        <ele>138.72105</ele>
        <time>2020-10-07T13:12:33.007Z</time>
      </trkpt>
      <trkpt lat="55.07568" lon="25.25933">
        <ele>138.227751</ele>
        <time>2020-10-07T13:12:43.633Z</time>
      </trkpt>
      <trkpt lat="55.07566" lon="25.25936">
        <ele>138.188475</ele>
        <time>2020-10-07T13:12:44.168Z</time>
      </trkpt>
      <trkpt lat="55.07547" lon="25.25955">
        <ele>137.885716</ele>
        <time>2020-10-07T13:12:48.143Z</time>
      </trkpt>
      <trkpt lat="55.07527" lon="25.25975">
        <ele>137.549427</ele>
        <time>2020-10-07T13:12:52.605Z</time>
      </trkpt>
      <trkpt lat="55.07516" lon="25.25985">
        <ele>137.383239</ele>
        <time>2020-10-07T13:12:54.802Z</time>
      </trkpt>
      <trkpt lat="55.07503" lon="25.25997">
        <ele>137.168254</ele>
        <time>2020-10-07T13:12:57.707Z</time>
      </trkpt>
      <trkpt lat="55.07497" lon="25.26002">
        <ele>137.069655</ele>
        <time>2020-10-07T13:12:58.915Z</time>
      </trkpt>
      <trkpt lat="55.07476" lon="25.26017">
        <ele>136.759493</ele>
        <time>2020-10-07T13:13:02.886Z</time>
      </trkpt>
      <trkpt lat="55.07464" lon="25.26025">
        <ele>136.57649</ele>
        <time>2020-10-07T13:13:05.114Z</time>
      </trkpt>
      <trkpt lat="55.07433" lon="25.26044">
        <ele>135.977292</ele>
        <time>2020-10-07T13:13:10.829Z</time>
      </trkpt>
      <trkpt lat="55.07421" lon="25.26051">
        <ele>135.628144</ele>
        <time>2020-10-07T13:13:12.936Z</time>
      </trkpt>
      <trkpt lat="55.07415" lon="25.26053">
        <ele>135.451654</ele>
        <time>2020-10-07T13:13:14.026Z</time>
      </trkpt>
      <trkpt lat="55.07408" lon="25.26051">
        <ele>135.267</ele>
        <time>2020-10-07T13:13:15.149Z</time>
      </trkpt>
      <trkpt lat="55.07407" lon="25.26048">
        <ele>135.2108</ele>
        <time>2020-10-07T13:13:15.492Z</time>
      </trkpt>
      <trkpt lat="55.07406" lon="25.26046">
        <ele>135.154008</ele>
        <time>2020-10-07T13:13:15.831Z</time>
      </trkpt>
      <trkpt lat="55.07404" lon="25.26044">
        <ele>135.095554</ele>
        <time>2020-10-07T13:13:16.170Z</time>
      </trkpt>
      <trkpt lat="55.07402" lon="25.26044">
        <ele>135.040748</ele>
        <time>2020-10-07T13:13:16.502Z</time>
      </trkpt>
      <trkpt lat="55.074" lon="25.26046">
        <ele>134.984261</ele>
        <time>2020-10-07T13:13:16.828Z</time>
      </trkpt>
      <trkpt lat="55.07398" lon="25.26049">
        <ele>134.927134</ele>
        <time>2020-10-07T13:13:17.155Z</time>
      </trkpt>
      <trkpt lat="55.07398" lon="25.26055">
        <ele>134.81673</ele>
        <time>2020-10-07T13:13:17.805Z</time>
      </trkpt>
      <trkpt lat="55.07399" lon="25.26059">
        <ele>134.759406</ele>
        <time>2020-10-07T13:13:18.132Z</time>
      </trkpt>
      <trkpt lat="55.07381" lon="25.2608">
        <ele>134.172441</ele>
        <time>2020-10-07T13:13:21.695Z</time>
      </trkpt>
      <trkpt lat="55.07369" lon="25.26096">
        <ele>133.754762</ele>
        <time>2020-10-07T13:13:24.088Z</time>
      </trkpt>
      <trkpt lat="55.07361" lon="25.26108">
        <ele>133.464838</ele>
        <time>2020-10-07T13:13:25.866Z</time>
      </trkpt>
      <trkpt lat="55.07336" lon="25.26151">
        <ele>132.503748</ele>
        <time>2020-10-07T13:13:31.692Z</time>
      </trkpt>
      <trkpt lat="55.07329" lon="25.26164">
        <ele>132.223434</ele>
        <time>2020-10-07T13:13:33.502Z</time>
      </trkpt>
      <trkpt lat="55.07316" lon="25.26189">
        <ele>131.699117</ele>
        <time>2020-10-07T13:13:36.635Z</time>
      </trkpt>
      <trkpt lat="55.07301" lon="25.26224">
        <ele>131.200874</ele>
        <time>2020-10-07T13:13:41.116Z</time>
      </trkpt>
      <trkpt lat="55.07295" lon="25.26238">
        <ele>131.101966</ele>
        <time>2020-10-07T13:13:42.704Z</time>
      </trkpt>
      <trkpt lat="55.07284" lon="25.26259">
        <ele>130.937473</ele>
        <time>2020-10-07T13:13:45.663Z</time>
      </trkpt>
      <trkpt lat="55.07271" lon="25.26279">
        <ele>130.763736</ele>
        <time>2020-10-07T13:13:48.582Z</time>
      </trkpt>
      <trkpt lat="55.07269" lon="25.26283">
        <ele>130.725933</ele>
        <time>2020-10-07T13:13:49.198Z</time>
      </trkpt>
      <trkpt lat="55.07246" lon="25.26312">
        <ele>130.442415</ele>
        <time>2020-10-07T13:13:54.349Z</time>
      </trkpt>
      <trkpt lat="55.07241" lon="25.26319">
        <ele>130.377711</ele>
        <time>2020-10-07T13:13:55.441Z</time>
      </trkpt>
      <trkpt lat="55.0723" lon="25.2633">
        <ele>130.247935</ele>
        <time>2020-10-07T13:13:58.036Z</time>
      </trkpt>
      <trkpt lat="55.07218" lon="25.2634">
        <ele>130.118159</ele>
        <time>2020-10-07T13:14:00.556Z</time>
      </trkpt>
      <trkpt lat="55.0719" lon="25.26361">
        <ele>129.808237</ele>
        <time>2020-10-07T13:14:07.037Z</time>
      </trkpt>
      <trkpt lat="55.07188" lon="25.26362">
        <ele>129.783348</ele>
        <time>2020-10-07T13:14:07.554Z</time>
      </trkpt>
      <trkpt lat="55.07169" lon="25.26369">
        <ele>129.592495</ele>
        <time>2020-10-07T13:14:11.901Z</time>
      </trkpt>
      <trkpt lat="55.07151" lon="25.26376">
        <ele>129.690434</ele>
        <time>2020-10-07T13:14:16.815Z</time>
      </trkpt>
      <trkpt lat="55.07105" lon="25.26387">
        <ele>130.701386</ele>
        <time>2020-10-07T13:14:30.180Z</time>
      </trkpt>
      <trkpt lat="55.07057" lon="25.26401">
        <ele>131.776667</ele>
        <time>2020-10-07T13:14:45.973Z</time>
      </trkpt>
      <trkpt lat="55.07023" lon="25.26401">
        <ele>132.513819</ele>
        <time>2020-10-07T13:14:57.222Z</time>
      </trkpt>
      <trkpt lat="55.07" lon="25.26397">
        <ele>133.039007</ele>
        <time>2020-10-07T13:15:05.328Z</time>
      </trkpt>
      <trkpt lat="55.06967" lon="25.26381">
        <ele>133.827266</ele>
        <time>2020-10-07T13:15:17.262Z</time>
      </trkpt>
      <trkpt lat="55.06889" lon="25.26341">
        <ele>135.778169</ele>
        <time>2020-10-07T13:15:44.476Z</time>
      </trkpt>
      <trkpt lat="55.06878" lon="25.26336">
        <ele>136.062507</ele>
        <time>2020-10-07T13:15:48.200Z</time>
      </trkpt>
      <trkpt lat="55.06859" lon="25.26326">
        <ele>136.538338</ele>
        <time>2020-10-07T13:15:54.230Z</time>
      </trkpt>
      <trkpt lat="55.0685" lon="25.26321">
        <ele>136.762716</ele>
        <time>2020-10-07T13:15:57.308Z</time>
      </trkpt>
      <trkpt lat="55.06805" lon="25.263">
        <ele>137.814768</ele>
        <time>2020-10-07T13:16:10.614Z</time>
      </trkpt>
      <trkpt lat="55.06788" lon="25.26295">
        <ele>137.945569</ele>
        <time>2020-10-07T13:16:15.729Z</time>
      </trkpt>
      <trkpt lat="55.0678" lon="25.26293">
        <ele>138.000371</ele>
        <time>2020-10-07T13:16:17.995Z</time>
      </trkpt>
      <trkpt lat="55.06741" lon="25.26286">
        <ele>138.283642</ele>
        <time>2020-10-07T13:16:28.455Z</time>
      </trkpt>
      <trkpt lat="55.06723" lon="25.26284">
        <ele>138.414414</ele>
        <time>2020-10-07T13:16:33.125Z</time>
      </trkpt>
      <trkpt lat="55.06709" lon="25.26281">
        <ele>138.517048</ele>
        <time>2020-10-07T13:16:36.999Z</time>
      </trkpt>
      <trkpt lat="55.06651" lon="25.26278">
        <ele>138.929708</ele>
        <time>2020-10-07T13:16:50.558Z</time>
      </trkpt>
      <trkpt lat="55.06598" lon="25.26274">
        <ele>138.910751</ele>
        <time>2020-10-07T13:17:01.579Z</time>
      </trkpt>
      <trkpt lat="55.06549" lon="25.26271">
        <ele>138.649147</ele>
        <time>2020-10-07T13:17:11.344Z</time>
      </trkpt>
      <trkpt lat="55.06542" lon="25.2627">
        <ele>138.610627</ele>
        <time>2020-10-07T13:17:12.816Z</time>
      </trkpt>
      <trkpt lat="55.06487" lon="25.26266">
        <ele>138.316888</ele>
        <time>2020-10-07T13:17:23.729Z</time>
      </trkpt>
      <trkpt lat="55.06439" lon="25.26263">
        <ele>138.124124</ele>
        <time>2020-10-07T13:17:33.666Z</time>
      </trkpt>
      <trkpt lat="55.06362" lon="25.26258">
        <ele>138.149136</ele>
        <time>2020-10-07T13:17:49.803Z</time>
      </trkpt>
      <trkpt lat="55.06337" lon="25.26257">
        <ele>138.156984</ele>
        <time>2020-10-07T13:17:55.154Z</time>
      </trkpt>
      <trkpt lat="55.06081" lon="25.26239">
        <ele>139.476822</ele>
        <time>2020-10-07T13:18:59.447Z</time>
      </trkpt>
      <trkpt lat="55.06007" lon="25.26233">
        <ele>139.864024</ele>
        <time>2020-10-07T13:19:18.197Z</time>
      </trkpt>
      <trkpt lat="55.05967" lon="25.26225">
        <ele>140.07119</ele>
        <time>2020-10-07T13:19:28.033Z</time>
      </trkpt>
      <trkpt lat="55.05844" lon="25.26165">
        <ele>140.169518</ele>
        <time>2020-10-07T13:19:57.422Z</time>
      </trkpt>
      <trkpt lat="55.0561" lon="25.26038">
        <ele>139.16895</ele>
        <time>2020-10-07T13:20:47.270Z</time>
      </trkpt>
      <trkpt lat="55.05166" lon="25.25801">
        <ele>137.29692</ele>
        <time>2020-10-07T13:22:24.282Z</time>
      </trkpt>
      <trkpt lat="55.05149" lon="25.2579">
        <ele>137.223591</ele>
        <time>2020-10-07T13:22:28.271Z</time>
      </trkpt>
      <trkpt lat="55.05094" lon="25.25757">
        <ele>136.998309</ele>
        <time>2020-10-07T13:22:40.376Z</time>
      </trkpt>
      <trkpt lat="55.05055" lon="25.25735">
        <ele>136.838867</ele>
        <time>2020-10-07T13:22:48.967Z</time>
      </trkpt>
      <trkpt lat="55.05019" lon="25.25704">
        <ele>136.72525</ele>
        <time>2020-10-07T13:22:57.295Z</time>
      </trkpt>
      <trkpt lat="55.04883" lon="25.25573">
        <ele>136.382067</ele>
        <time>2020-10-07T13:23:30.199Z</time>
      </trkpt>
      <trkpt lat="55.04866" lon="25.2556">
        <ele>136.45166</ele>
        <time>2020-10-07T13:23:34.498Z</time>
      </trkpt>
      <trkpt lat="55.04839" lon="25.25551">
        <ele>136.548709</ele>
        <time>2020-10-07T13:23:40.665Z</time>
      </trkpt>
      <trkpt lat="55.04794" lon="25.25556">
        <ele>136.714148</ele>
        <time>2020-10-07T13:23:51.318Z</time>
      </trkpt>
      <trkpt lat="55.04604" lon="25.25686">
        <ele>137.984751</ele>
        <time>2020-10-07T13:24:42.964Z</time>
      </trkpt>
      <trkpt lat="55.04543" lon="25.25708">
        <ele>138.409264</ele>
        <time>2020-10-07T13:24:58.992Z</time>
      </trkpt>
      <trkpt lat="55.04496" lon="25.25704">
        <ele>138.563429</ele>
        <time>2020-10-07T13:25:10.728Z</time>
      </trkpt>
      <trkpt lat="55.04433" lon="25.25686">
        <ele>138.77405</ele>
        <time>2020-10-07T13:25:26.296Z</time>
      </trkpt>
      <trkpt lat="55.04302" lon="25.25599">
        <ele>138.344085</ele>
        <time>2020-10-07T13:25:56.046Z</time>
      </trkpt>
      <trkpt lat="55.0405" lon="25.2538">
        <ele>135.558306</ele>
        <time>2020-10-07T13:26:49.409Z</time>
      </trkpt>
      <trkpt lat="55.04001" lon="25.25344">
        <ele>135.492937</ele>
        <time>2020-10-07T13:26:59.910Z</time>
      </trkpt>
      <trkpt lat="55.03967" lon="25.25325">
        <ele>135.448564</ele>
        <time>2020-10-07T13:27:07.385Z</time>
      </trkpt>
      <trkpt lat="55.0374" lon="25.25222">
        <ele>136.337633</ele>
        <time>2020-10-07T13:28:05.265Z</time>
      </trkpt>
      <trkpt lat="55.03682" lon="25.25177">
        <ele>136.664858</ele>
        <time>2020-10-07T13:28:21.501Z</time>
      </trkpt>
      <trkpt lat="55.03642" lon="25.25134">
        <ele>136.843973</ele>
        <time>2020-10-07T13:28:33.172Z</time>
      </trkpt>
      <trkpt lat="55.03513" lon="25.24981">
        <ele>137.323428</ele>
        <time>2020-10-07T13:29:08.760Z</time>
      </trkpt>
      <trkpt lat="55.0346" lon="25.24924">
        <ele>137.433733</ele>
        <time>2020-10-07T13:29:22.417Z</time>
      </trkpt>
      <trkpt lat="55.03413" lon="25.24887">
        <ele>137.527129</ele>
        <time>2020-10-07T13:29:34.653Z</time>
      </trkpt>
      <trkpt lat="55.03402" lon="25.24881">
        <ele>137.561902</ele>
        <time>2020-10-07T13:29:37.420Z</time>
      </trkpt>
      <trkpt lat="55.03395" lon="25.24877">
        <ele>137.630689</ele>
        <time>2020-10-07T13:29:39.185Z</time>
      </trkpt>
      <trkpt lat="55.03372" lon="25.24868">
        <ele>137.844226</ele>
        <time>2020-10-07T13:29:44.947Z</time>
      </trkpt>
      <trkpt lat="55.03328" lon="25.24858">
        <ele>138.254344</ele>
        <time>2020-10-07T13:29:56.291Z</time>
      </trkpt>
      <trkpt lat="55.03292" lon="25.24859">
        <ele>138.587959</ele>
        <time>2020-10-07T13:30:05.926Z</time>
      </trkpt>
      <trkpt lat="55.03213" lon="25.24885">
        <ele>139.300594</ele>
        <time>2020-10-07T13:30:28.366Z</time>
      </trkpt>
      <trkpt lat="55.0307" lon="25.24971">
        <ele>140.382886</ele>
        <time>2020-10-07T13:31:05.870Z</time>
      </trkpt>
      <trkpt lat="55.02948" lon="25.25044">
        <ele>141.42453</ele>
        <time>2020-10-07T13:31:36.077Z</time>
      </trkpt>
      <trkpt lat="55.02632" lon="25.25238">
        <ele>145.942486</ele>
        <time>2020-10-07T13:33:12.184Z</time>
      </trkpt>
      <trkpt lat="55.02621" lon="25.25244">
        <ele>146.084997</ele>
        <time>2020-10-07T13:33:15.171Z</time>
      </trkpt>
      <trkpt lat="55.02536" lon="25.25285">
        <ele>147.138071</ele>
        <time>2020-10-07T13:33:39.266Z</time>
      </trkpt>
      <trkpt lat="55.02311" lon="25.25331">
        <ele>146.780866</ele>
        <time>2020-10-07T13:34:30.721Z</time>
      </trkpt>
      <trkpt lat="55.02273" lon="25.2534">
        <ele>146.227509</ele>
        <time>2020-10-07T13:34:37.751Z</time>
      </trkpt>
      <trkpt lat="55.02251" lon="25.25345">
        <ele>145.922756</ele>
        <time>2020-10-07T13:34:41.305Z</time>
      </trkpt>
      <trkpt lat="55.02169" lon="25.25383">
        <ele>144.761823</ele>
        <time>2020-10-07T13:34:56.128Z</time>
      </trkpt>
      <trkpt lat="55.02117" lon="25.25429">
        <ele>144.078121</ele>
        <time>2020-10-07T13:35:05.911Z</time>
      </trkpt>
      <trkpt lat="55.02052" lon="25.25508">
        <ele>143.146486</ele>
        <time>2020-10-07T13:35:21.842Z</time>
      </trkpt>
      <trkpt lat="55.02006" lon="25.25553">
        <ele>143.46237</ele>
        <time>2020-10-07T13:35:34.651Z</time>
      </trkpt>
      <trkpt lat="55.01987" lon="25.2556">
        <ele>143.805304</ele>
        <time>2020-10-07T13:35:39.843Z</time>
      </trkpt>
      <trkpt lat="55.01961" lon="25.25564">
        <ele>144.277245</ele>
        <time>2020-10-07T13:35:48.226Z</time>
      </trkpt>
      <trkpt lat="55.01879" lon="25.25558">
        <ele>145.754512</ele>
        <time>2020-10-07T13:36:14.495Z</time>
      </trkpt>
      <trkpt lat="55.01858" lon="25.2555">
        <ele>146.140678</ele>
        <time>2020-10-07T13:36:21.806Z</time>
      </trkpt>
      <trkpt lat="55.01839" lon="25.25535">
        <ele>146.428034</ele>
        <time>2020-10-07T13:36:28.534Z</time>
      </trkpt>
      <trkpt lat="55.01818" lon="25.25511">
        <ele>146.757945</ele>
        <time>2020-10-07T13:36:36.224Z</time>
      </trkpt>
      <trkpt lat="55.01811" lon="25.255">
        <ele>146.882534</ele>
        <time>2020-10-07T13:36:38.942Z</time>
      </trkpt>
      <trkpt lat="55.01807" lon="25.25494">
        <ele>146.949154</ele>
        <time>2020-10-07T13:36:40.471Z</time>
      </trkpt>
      <trkpt lat="55.01775" lon="25.2544">
        <ele>147.553233</ele>
        <time>2020-10-07T13:36:53.145Z</time>
      </trkpt>
      <trkpt lat="55.01719" lon="25.25348">
        <ele>148.537482</ele>
        <time>2020-10-07T13:37:12.388Z</time>
      </trkpt>
      <trkpt lat="55.0165" lon="25.25235">
        <ele>148.375039</ele>
        <time>2020-10-07T13:37:32.424Z</time>
      </trkpt>
      <trkpt lat="55.01575" lon="25.25108">
        <ele>148.155439</ele>
        <time>2020-10-07T13:37:54.423Z</time>
      </trkpt>
      <trkpt lat="55.01561" lon="25.25087">
        <ele>148.089956</ele>
        <time>2020-10-07T13:37:58.600Z</time>
      </trkpt>
      <trkpt lat="55.01504" lon="25.2503">
        <ele>147.859045</ele>
        <time>2020-10-07T13:38:13.103Z</time>
      </trkpt>
      <trkpt lat="55.01436" lon="25.2499">
        <ele>147.607061</ele>
        <time>2020-10-07T13:38:27.978Z</time>
      </trkpt>
      <trkpt lat="55.01378" lon="25.24959">
        <ele>146.769194</ele>
        <time>2020-10-07T13:38:39.572Z</time>
      </trkpt>
      <trkpt lat="55.01215" lon="25.2487">
        <ele>144.349349</ele>
        <time>2020-10-07T13:39:10.462Z</time>
      </trkpt>
      <trkpt lat="55.01176" lon="25.24859">
        <ele>143.806033</ele>
        <time>2020-10-07T13:39:17.548Z</time>
      </trkpt>
      <trkpt lat="55.01128" lon="25.24859">
        <ele>143.138469</ele>
        <time>2020-10-07T13:39:26.517Z</time>
      </trkpt>
      <trkpt lat="55.01059" lon="25.24899">
        <ele>142.416577</ele>
        <time>2020-10-07T13:39:40.588Z</time>
      </trkpt>
      <trkpt lat="55.01049" lon="25.24909">
        <ele>142.366182</ele>
        <time>2020-10-07T13:39:42.872Z</time>
      </trkpt>
      <trkpt lat="55.01027" lon="25.24932">
        <ele>142.250614</ele>
        <time>2020-10-07T13:39:48.159Z</time>
      </trkpt>
      <trkpt lat="55.00766" lon="25.25233">
        <ele>141.151794</ele>
        <time>2020-10-07T13:40:55.115Z</time>
      </trkpt>
      <trkpt lat="55.00711" lon="25.25287">
        <ele>140.709942</ele>
        <time>2020-10-07T13:41:08.202Z</time>
      </trkpt>
      <trkpt lat="55.00692" lon="25.253">
        <ele>140.568892</ele>
        <time>2020-10-07T13:41:12.166Z</time>
      </trkpt>
      <trkpt lat="55.00679" lon="25.25305">
        <ele>140.479282</ele>
        <time>2020-10-07T13:41:14.646Z</time>
      </trkpt>
      <trkpt lat="55.00644" lon="25.25309">
        <ele>140.236013</ele>
        <time>2020-10-07T13:41:21.460Z</time>
      </trkpt>
      <trkpt lat="55.00621" lon="25.25305">
        <ele>140.077645</ele>
        <time>2020-10-07T13:41:25.992Z</time>
      </trkpt>
      <trkpt lat="55.00542" lon="25.25293">
        <ele>139.846461</ele>
        <time>2020-10-07T13:41:41.648Z</time>
      </trkpt>
      <trkpt lat="55.00353" lon="25.25265">
        <ele>140.398264</ele>
        <time>2020-10-07T13:42:25.061Z</time>
      </trkpt>
      <trkpt lat="55.00333" lon="25.25265">
        <ele>140.59765</ele>
        <time>2020-10-07T13:42:30.903Z</time>
      </trkpt>
      <trkpt lat="55.00183" lon="25.25299">
        <ele>142.25412</ele>
        <time>2020-10-07T13:43:14.694Z</time>
      </trkpt>
      <trkpt lat="55.00137" lon="25.25291">
        <ele>142.807086</ele>
        <time>2020-10-07T13:43:27.140Z</time>
      </trkpt>
      <trkpt lat="55.00101" lon="25.25271">
        <ele>143.26523</ele>
        <time>2020-10-07T13:43:37.048Z</time>
      </trkpt>
      <trkpt lat="55.00099" lon="25.2527">
        <ele>143.291401</ele>
        <time>2020-10-07T13:43:37.875Z</time>
      </trkpt>
      <trkpt lat="55.00081" lon="25.25257">
        <ele>143.509997</ele>
        <time>2020-10-07T13:43:42.519Z</time>
      </trkpt>
      <trkpt lat="55.0005" lon="25.25226">
        <ele>143.601607</ele>
        <time>2020-10-07T13:43:51.237Z</time>
      </trkpt>
      <trkpt lat="54.99932" lon="25.2508">
        <ele>143.965785</ele>
        <time>2020-10-07T13:44:24.104Z</time>
      </trkpt>
      <trkpt lat="54.99862" lon="25.25023">
        <ele>143.914689</ele>
        <time>2020-10-07T13:44:41.540Z</time>
      </trkpt>
      <trkpt lat="54.99742" lon="25.2495">
        <ele>143.691561</ele>
        <time>2020-10-07T13:45:09.287Z</time>
      </trkpt>
      <trkpt lat="54.99353" lon="25.2471">
        <ele>141.762446</ele>
        <time>2020-10-07T13:46:31.734Z</time>
      </trkpt>
      <trkpt lat="54.98708" lon="25.2432">
        <ele>144.170754</ele>
        <time>2020-10-07T13:49:18.297Z</time>
      </trkpt>
      <trkpt lat="54.98685" lon="25.24305">
        <ele>144.081509</ele>
        <time>2020-10-07T13:49:23.833Z</time>
      </trkpt>
      <trkpt lat="54.98512" lon="25.24195">
        <ele>142.743418</ele>
        <time>2020-10-07T13:50:00.241Z</time>
      </trkpt>
      <trkpt lat="54.98339" lon="25.24087">
        <ele>140.012654</ele>
        <time>2020-10-07T13:50:33.596Z</time>
      </trkpt>
      <trkpt lat="54.98155" lon="25.23999">
        <ele>136.744408</ele>
        <time>2020-10-07T13:51:07.731Z</time>
      </trkpt>
      <trkpt lat="54.98098" lon="25.23961">
        <ele>135.725565</ele>
        <time>2020-10-07T13:51:18.712Z</time>
      </trkpt>
      <trkpt lat="54.97989" lon="25.23834">
        <ele>135.018699</ele>
        <time>2020-10-07T13:51:43.671Z</time>
      </trkpt>
      <trkpt lat="54.97953" lon="25.23814">
        <ele>134.951779</ele>
        <time>2020-10-07T13:51:52.796Z</time>
      </trkpt>
      <trkpt lat="54.97924" lon="25.23809">
        <ele>134.899905</ele>
        <time>2020-10-07T13:52:00.509Z</time>
      </trkpt>
      <trkpt lat="54.97909" lon="25.23809">
        <ele>134.89717</ele>
        <time>2020-10-07T13:52:04.508Z</time>
      </trkpt>
      <trkpt lat="54.97816" lon="25.23813">
        <ele>136.514883</ele>
        <time>2020-10-07T13:52:32.227Z</time>
      </trkpt>
      <trkpt lat="54.97682" lon="25.23816">
        <ele>138.230008</ele>
        <time>2020-10-07T13:53:12.438Z</time>
      </trkpt>
      <trkpt lat="54.97627" lon="25.23817">
        <ele>138.484088</ele>
        <time>2020-10-07T13:53:26.159Z</time>
      </trkpt>
      <trkpt lat="54.97373" lon="25.23821">
        <ele>137.303733</ele>
        <time>2020-10-07T13:54:17.018Z</time>
      </trkpt>
      <trkpt lat="54.97306" lon="25.23819">
        <ele>136.014851</ele>
        <time>2020-10-07T13:54:28.896Z</time>
      </trkpt>
      <trkpt lat="54.9727" lon="25.23812">
        <ele>135.301749</ele>
        <time>2020-10-07T13:54:35.106Z</time>
      </trkpt>
      <trkpt lat="54.96995" lon="25.23697">
        <ele>130.142448</ele>
        <time>2020-10-07T13:55:24.170Z</time>
      </trkpt>
      <trkpt lat="54.96937" lon="25.23672">
        <ele>130.396903</ele>
        <time>2020-10-07T13:55:38.358Z</time>
      </trkpt>
      <trkpt lat="54.96913" lon="25.23662">
        <ele>130.504257</ele>
        <time>2020-10-07T13:55:44.743Z</time>
      </trkpt>
      <trkpt lat="54.96897" lon="25.23655">
        <ele>130.574458</ele>
        <time>2020-10-07T13:55:49.585Z</time>
      </trkpt>
      <trkpt lat="54.96726" lon="25.23579">
        <ele>132.304269</ele>
        <time>2020-10-07T13:56:40.289Z</time>
      </trkpt>
      <trkpt lat="54.9668" lon="25.23558">
        <ele>132.89243</ele>
        <time>2020-10-07T13:56:52.101Z</time>
      </trkpt>
      <trkpt lat="54.96553" lon="25.23493">
        <ele>133.915533</ele>
        <time>2020-10-07T13:57:22.857Z</time>
      </trkpt>
      <trkpt lat="54.96502" lon="25.23469">
        <ele>134.302259</ele>
        <time>2020-10-07T13:57:37.017Z</time>
      </trkpt>
      <trkpt lat="54.96416" lon="25.23424">
        <ele>136.071892</ele>
        <time>2020-10-07T13:58:04.594Z</time>
      </trkpt>
      <trkpt lat="54.9635" lon="25.2339">
        <ele>137.500502</ele>
        <time>2020-10-07T13:58:26.556Z</time>
      </trkpt>
      <trkpt lat="54.96285" lon="25.23357">
        <ele>138.195188</ele>
        <time>2020-10-07T13:58:47.462Z</time>
      </trkpt>
      <trkpt lat="54.96281" lon="25.23355">
        <ele>138.209144</ele>
        <time>2020-10-07T13:58:48.720Z</time>
      </trkpt>
      <trkpt lat="54.96248" lon="25.23338">
        <ele>138.320022</ele>
        <time>2020-10-07T13:58:58.718Z</time>
      </trkpt>
      <trkpt lat="54.96229" lon="25.23329">
        <ele>138.38153</ele>
        <time>2020-10-07T13:59:03.545Z</time>
      </trkpt>
      <trkpt lat="54.96212" lon="25.2332">
        <ele>138.440018</ele>
        <time>2020-10-07T13:59:07.866Z</time>
      </trkpt>
      <trkpt lat="54.96144" lon="25.23287">
        <ele>138.42058</ele>
        <time>2020-10-07T13:59:21.139Z</time>
      </trkpt>
      <trkpt lat="54.96122" lon="25.23276">
        <ele>137.74763</ele>
        <time>2020-10-07T13:59:24.882Z</time>
      </trkpt>
      <trkpt lat="54.96025" lon="25.23227">
        <ele>134.713842</ele>
        <time>2020-10-07T13:59:41.156Z</time>
      </trkpt>
      <trkpt lat="54.95998" lon="25.23213">
        <ele>133.875646</ele>
        <time>2020-10-07T13:59:45.611Z</time>
      </trkpt>
      <trkpt lat="54.95977" lon="25.23203">
        <ele>133.246877</ele>
        <time>2020-10-07T13:59:49.115Z</time>
      </trkpt>
      <trkpt lat="54.95953" lon="25.2319">
        <ele>132.927066</ele>
        <time>2020-10-07T13:59:53.261Z</time>
      </trkpt>
      <trkpt lat="54.95845" lon="25.23135">
        <ele>131.512281</ele>
        <time>2020-10-07T14:00:13.587Z</time>
      </trkpt>
      <trkpt lat="54.95837" lon="25.23131">
        <ele>131.400707</ele>
        <time>2020-10-07T14:00:15.957Z</time>
      </trkpt>
      <trkpt lat="54.95753" lon="25.2309">
        <ele>131.863083</ele>
        <time>2020-10-07T14:00:39.476Z</time>
      </trkpt>
      <trkpt lat="54.9565" lon="25.23039">
        <ele>133.572183</ele>
        <time>2020-10-07T14:01:12.321Z</time>
      </trkpt>
      <trkpt lat="54.95634" lon="25.23032">
        <ele>133.830667</ele>
        <time>2020-10-07T14:01:16.906Z</time>
      </trkpt>
      <trkpt lat="54.95632" lon="25.23032">
        <ele>133.862492</ele>
        <time>2020-10-07T14:01:17.915Z</time>
      </trkpt>
      <trkpt lat="54.9562" lon="25.2303">
        <ele>133.987562</ele>
        <time>2020-10-07T14:01:21.153Z</time>
      </trkpt>
      <trkpt lat="54.95607" lon="25.23028">
        <ele>134.121366</ele>
        <time>2020-10-07T14:01:24.756Z</time>
      </trkpt>
      <trkpt lat="54.95604" lon="25.23028">
        <ele>134.153048</ele>
        <time>2020-10-07T14:01:25.715Z</time>
      </trkpt>
      <trkpt lat="54.95548" lon="25.23036">
        <ele>134.722921</ele>
        <time>2020-10-07T14:01:40.958Z</time>
      </trkpt>
      <trkpt lat="54.95539" lon="25.23039">
        <ele>134.815099</ele>
        <time>2020-10-07T14:01:43.283Z</time>
      </trkpt>
      <trkpt lat="54.95528" lon="25.23042">
        <ele>134.934084</ele>
        <time>2020-10-07T14:01:46.240Z</time>
      </trkpt>
      <trkpt lat="54.95503" lon="25.23054">
        <ele>135.191516</ele>
        <time>2020-10-07T14:01:52.725Z</time>
      </trkpt>
      <trkpt lat="54.95462" lon="25.23086">
        <ele>135.655019</ele>
        <time>2020-10-07T14:02:03.821Z</time>
      </trkpt>
      <trkpt lat="54.95419" lon="25.23139">
        <ele>136.007892</ele>
        <time>2020-10-07T14:02:15.604Z</time>
      </trkpt>
      <trkpt lat="54.95326" lon="25.23293">
        <ele>136.836781</ele>
        <time>2020-10-07T14:02:48.078Z</time>
      </trkpt>
      <trkpt lat="54.95309" lon="25.23323">
        <ele>136.954134</ele>
        <time>2020-10-07T14:02:54.631Z</time>
      </trkpt>
      <trkpt lat="54.95251" lon="25.2342">
        <ele>137.321945</ele>
        <time>2020-10-07T14:03:15.666Z</time>
      </trkpt>
      <trkpt lat="54.9524" lon="25.23437">
        <ele>137.388507</ele>
        <time>2020-10-07T14:03:19.114Z</time>
      </trkpt>
      <trkpt lat="54.95236" lon="25.23445">
        <ele>137.418173</ele>
        <time>2020-10-07T14:03:20.725Z</time>
      </trkpt>
      <trkpt lat="54.95228" lon="25.23458">
        <ele>137.468531</ele>
        <time>2020-10-07T14:03:23.380Z</time>
      </trkpt>
      <trkpt lat="54.95193" lon="25.23516">
        <ele>137.666175</ele>
        <time>2020-10-07T14:03:34.189Z</time>
      </trkpt>
      <trkpt lat="54.95164" lon="25.23557">
        <ele>137.458513</ele>
        <time>2020-10-07T14:03:41.207Z</time>
      </trkpt>
      <trkpt lat="54.95146" lon="25.2358">
        <ele>137.334759</ele>
        <time>2020-10-07T14:03:45.355Z</time>
      </trkpt>
      <trkpt lat="54.95129" lon="25.236">
        <ele>137.21571</ele>
        <time>2020-10-07T14:03:49.313Z</time>
      </trkpt>
      <trkpt lat="54.95071" lon="25.23646">
        <ele>136.855059</ele>
        <time>2020-10-07T14:04:02.100Z</time>
      </trkpt>
      <trkpt lat="54.95068" lon="25.23648">
        <ele>136.840553</ele>
        <time>2020-10-07T14:04:02.526Z</time>
      </trkpt>
      <trkpt lat="54.95041" lon="25.23666">
        <ele>136.67532</ele>
        <time>2020-10-07T14:04:08.836Z</time>
      </trkpt>
      <trkpt lat="54.95034" lon="25.23671">
        <ele>136.734471</ele>
        <time>2020-10-07T14:04:10.728Z</time>
      </trkpt>
      <trkpt lat="54.94981" lon="25.23667">
        <ele>137.375665</ele>
        <time>2020-10-07T14:04:23.216Z</time>
      </trkpt>
      <trkpt lat="54.94945" lon="25.23662">
        <ele>137.813981</ele>
        <time>2020-10-07T14:04:32.706Z</time>
      </trkpt>
      <trkpt lat="54.94936" lon="25.2366">
        <ele>137.922966</ele>
        <time>2020-10-07T14:04:35.101Z</time>
      </trkpt>
      <trkpt lat="54.94872" lon="25.2365">
        <ele>138.711173</ele>
        <time>2020-10-07T14:04:54.529Z</time>
      </trkpt>
      <trkpt lat="54.94835" lon="25.23644">
        <ele>139.629613</ele>
        <time>2020-10-07T14:05:06.403Z</time>
      </trkpt>
      <trkpt lat="54.94755" lon="25.2363">
        <ele>142.114507</ele>
        <time>2020-10-07T14:05:34.724Z</time>
      </trkpt>
      <trkpt lat="54.94744" lon="25.23629">
        <ele>142.438544</ele>
        <time>2020-10-07T14:05:38.455Z</time>
      </trkpt>
      <trkpt lat="54.94719" lon="25.23624">
        <ele>143.225778</ele>
        <time>2020-10-07T14:05:47.384Z</time>
      </trkpt>
      <trkpt lat="54.94698" lon="25.23621">
        <ele>143.855497</ele>
        <time>2020-10-07T14:05:54.621Z</time>
      </trkpt>
      <trkpt lat="54.94692" lon="25.2362">
        <ele>144.037488</ele>
        <time>2020-10-07T14:05:56.742Z</time>
      </trkpt>
      <trkpt lat="54.94689" lon="25.23619">
        <ele>144.136386</ele>
        <time>2020-10-07T14:05:57.893Z</time>
      </trkpt>
      <trkpt lat="54.94688" lon="25.23619">
        <ele>144.182614</ele>
        <time>2020-10-07T14:05:58.411Z</time>
      </trkpt>
      <trkpt lat="54.94649" lon="25.23613">
        <ele>145.688687</ele>
        <time>2020-10-07T14:06:12.690Z</time>
      </trkpt>
      <trkpt lat="54.94629" lon="25.23609">
        <ele>146.504155</ele>
        <time>2020-10-07T14:06:20.421Z</time>
      </trkpt>
      <trkpt lat="54.94618" lon="25.23608">
        <ele>146.958338</ele>
        <time>2020-10-07T14:06:24.769Z</time>
      </trkpt>
      <trkpt lat="54.94604" lon="25.23605">
        <ele>147.530417</ele>
        <time>2020-10-07T14:06:30.272Z</time>
      </trkpt>
      <trkpt lat="54.9459" lon="25.23603">
        <ele>148.069895</ele>
        <time>2020-10-07T14:06:35.587Z</time>
      </trkpt>
      <trkpt lat="54.94584" lon="25.23602">
        <ele>148.305247</ele>
        <time>2020-10-07T14:06:37.926Z</time>
      </trkpt>
      <trkpt lat="54.94568" lon="25.23599">
        <ele>148.986522</ele>
        <time>2020-10-07T14:06:44.679Z</time>
      </trkpt>
      <trkpt lat="54.94558" lon="25.23597">
        <ele>149.378836</ele>
        <time>2020-10-07T14:06:48.658Z</time>
      </trkpt>
      <trkpt lat="54.94546" lon="25.23593">
        <ele>149.873044</ele>
        <time>2020-10-07T14:06:53.681Z</time>
      </trkpt>
      <trkpt lat="54.94533" lon="25.2359">
        <ele>150.399886</ele>
        <time>2020-10-07T14:06:58.977Z</time>
      </trkpt>
      <trkpt lat="54.94527" lon="25.23588">
        <ele>150.665303</ele>
        <time>2020-10-07T14:07:01.759Z</time>
      </trkpt>
      <trkpt lat="54.94512" lon="25.23585">
        <ele>151.249431</ele>
        <time>2020-10-07T14:07:07.457Z</time>
      </trkpt>
      <trkpt lat="54.94508" lon="25.23583">
        <ele>151.421297</ele>
        <time>2020-10-07T14:07:09.084Z</time>
      </trkpt>
      <trkpt lat="54.94499" lon="25.23581">
        <ele>151.755954</ele>
        <time>2020-10-07T14:07:12.706Z</time>
      </trkpt>
      <trkpt lat="54.94471" lon="25.23574">
        <ele>152.509533</ele>
        <time>2020-10-07T14:07:23.090Z</time>
      </trkpt>
      <trkpt lat="54.94457" lon="25.2357">
        <ele>152.901305</ele>
        <time>2020-10-07T14:07:28.311Z</time>
      </trkpt>
      <trkpt lat="54.94445" lon="25.23567">
        <ele>153.235836</ele>
        <time>2020-10-07T14:07:32.633Z</time>
      </trkpt>
      <trkpt lat="54.94401" lon="25.23556">
        <ele>154.42815</ele>
        <time>2020-10-07T14:07:47.618Z</time>
      </trkpt>
      <trkpt lat="54.944" lon="25.23556">
        <ele>154.455664</ele>
        <time>2020-10-07T14:07:47.922Z</time>
      </trkpt>
      <trkpt lat="54.94392" lon="25.23554">
        <ele>154.68599</ele>
        <time>2020-10-07T14:07:50.709Z</time>
      </trkpt>
      <trkpt lat="54.94387" lon="25.23552">
        <ele>154.825749</ele>
        <time>2020-10-07T14:07:52.418Z</time>
      </trkpt>
      <trkpt lat="54.94366" lon="25.23547">
        <ele>155.384561</ele>
        <time>2020-10-07T14:07:58.861Z</time>
      </trkpt>
      <trkpt lat="54.94362" lon="25.23546">
        <ele>155.51068</ele>
        <time>2020-10-07T14:08:00.261Z</time>
      </trkpt>
      <trkpt lat="54.94342" lon="25.23541">
        <ele>156.057891</ele>
        <time>2020-10-07T14:08:06.258Z</time>
      </trkpt>
      <trkpt lat="54.94334" lon="25.23539">
        <ele>156.26876</ele>
        <time>2020-10-07T14:08:08.526Z</time>
      </trkpt>
      <trkpt lat="54.94313" lon="25.23537">
        <ele>156.422749</ele>
        <time>2020-10-07T14:08:14.332Z</time>
      </trkpt>
      <trkpt lat="54.94299" lon="25.23536">
        <ele>156.298802</ele>
        <time>2020-10-07T14:08:17.977Z</time>
      </trkpt>
      <trkpt lat="54.94298" lon="25.23536">
        <ele>156.288994</ele>
        <time>2020-10-07T14:08:18.279Z</time>
      </trkpt>
      <trkpt lat="54.94293" lon="25.23537">
        <ele>156.247896</ele>
        <time>2020-10-07T14:08:19.187Z</time>
      </trkpt>
      <trkpt lat="54.94284" lon="25.23538">
        <ele>156.164868</ele>
        <time>2020-10-07T14:08:21.430Z</time>
      </trkpt>
      <trkpt lat="54.94272" lon="25.23542">
        <ele>156.056282</ele>
        <time>2020-10-07T14:08:24.259Z</time>
      </trkpt>
      <trkpt lat="54.94265" lon="25.23546">
        <ele>155.99105</ele>
        <time>2020-10-07T14:08:25.909Z</time>
      </trkpt>
      <trkpt lat="54.94255" lon="25.23552">
        <ele>155.896734</ele>
        <time>2020-10-07T14:08:27.958Z</time>
      </trkpt>
      <trkpt lat="54.9425" lon="25.23555">
        <ele>155.84385</ele>
        <time>2020-10-07T14:08:29.236Z</time>
      </trkpt>
      <trkpt lat="54.9424" lon="25.23561">
        <ele>155.754081</ele>
        <time>2020-10-07T14:08:31.243Z</time>
      </trkpt>
      <trkpt lat="54.94233" lon="25.23565">
        <ele>155.68806</ele>
        <time>2020-10-07T14:08:32.681Z</time>
      </trkpt>
      <trkpt lat="54.94211" lon="25.23582">
        <ele>155.47404</ele>
        <time>2020-10-07T14:08:37.076Z</time>
      </trkpt>
      <trkpt lat="54.94162" lon="25.23618">
        <ele>154.999598</ele>
        <time>2020-10-07T14:08:46.312Z</time>
      </trkpt>
      <trkpt lat="54.94161" lon="25.23618">
        <ele>154.990808</ele>
        <time>2020-10-07T14:08:46.445Z</time>
      </trkpt>
      <trkpt lat="54.94147" lon="25.2363">
        <ele>154.670659</ele>
        <time>2020-10-07T14:08:49.179Z</time>
      </trkpt>
      <trkpt lat="54.94129" lon="25.23645">
        <ele>154.081471</ele>
        <time>2020-10-07T14:08:52.349Z</time>
      </trkpt>
      <trkpt lat="54.94123" lon="25.23649">
        <ele>153.882988</ele>
        <time>2020-10-07T14:08:53.388Z</time>
      </trkpt>
      <trkpt lat="54.94111" lon="25.2366">
        <ele>153.458742</ele>
        <time>2020-10-07T14:08:55.729Z</time>
      </trkpt>
      <trkpt lat="54.94108" lon="25.23662">
        <ele>153.373367</ele>
        <time>2020-10-07T14:08:56.182Z</time>
      </trkpt>
      <trkpt lat="54.94091" lon="25.23677">
        <ele>152.792125</ele>
        <time>2020-10-07T14:08:59.269Z</time>
      </trkpt>
      <trkpt lat="54.94065" lon="25.23705">
        <ele>151.845372</ele>
        <time>2020-10-07T14:09:04.331Z</time>
      </trkpt>
      <trkpt lat="54.94043" lon="25.23728">
        <ele>151.0833</ele>
        <time>2020-10-07T14:09:08.494Z</time>
      </trkpt>
      <trkpt lat="54.94035" lon="25.23738">
        <ele>150.769071</ele>
        <time>2020-10-07T14:09:10.083Z</time>
      </trkpt>
      <trkpt lat="54.94019" lon="25.23756">
        <ele>150.193578</ele>
        <time>2020-10-07T14:09:13.169Z</time>
      </trkpt>
      <trkpt lat="54.93996" lon="25.2378">
        <ele>149.402816</ele>
        <time>2020-10-07T14:09:17.426Z</time>
      </trkpt>
      <trkpt lat="54.93975" lon="25.23803">
        <ele>148.926724</ele>
        <time>2020-10-07T14:09:21.577Z</time>
      </trkpt>
      <trkpt lat="54.93957" lon="25.23824">
        <ele>148.501858</ele>
        <time>2020-10-07T14:09:25.321Z</time>
      </trkpt>
      <trkpt lat="54.93935" lon="25.2385">
        <ele>147.987172</ele>
        <time>2020-10-07T14:09:29.907Z</time>
      </trkpt>
      <trkpt lat="54.93921" lon="25.23863">
        <ele>147.679795</ele>
        <time>2020-10-07T14:09:32.923Z</time>
      </trkpt>
      <trkpt lat="54.93911" lon="25.23872">
        <ele>147.472722</ele>
        <time>2020-10-07T14:09:34.829Z</time>
      </trkpt>
      <trkpt lat="54.93904" lon="25.23876">
        <ele>147.336115</ele>
        <time>2020-10-07T14:09:36.051Z</time>
      </trkpt>
      <trkpt lat="54.93895" lon="25.23882">
        <ele>147.151915</ele>
        <time>2020-10-07T14:09:37.846Z</time>
      </trkpt>
      <trkpt lat="54.93875" lon="25.2389">
        <ele>146.751657</ele>
        <time>2020-10-07T14:09:41.827Z</time>
      </trkpt>
      <trkpt lat="54.93869" lon="25.23891">
        <ele>146.622413</ele>
        <time>2020-10-07T14:09:43.005Z</time>
      </trkpt>
      <trkpt lat="54.93857" lon="25.2389">
        <ele>146.404564</ele>
        <time>2020-10-07T14:09:45.311Z</time>
      </trkpt>
      <trkpt lat="54.93835" lon="25.23882">
        <ele>145.970486</ele>
        <time>2020-10-07T14:09:49.656Z</time>
      </trkpt>
      <trkpt lat="54.93787" lon="25.23836">
        <ele>145.625726</ele>
        <time>2020-10-07T14:10:00.305Z</time>
      </trkpt>
      <trkpt lat="54.93764" lon="25.23814">
        <ele>145.464459</ele>
        <time>2020-10-07T14:10:05.174Z</time>
      </trkpt>
      <trkpt lat="54.9376" lon="25.23809">
        <ele>145.431156</ele>
        <time>2020-10-07T14:10:06.270Z</time>
      </trkpt>
      <trkpt lat="54.93641" lon="25.23691">
        <ele>144.820404</ele>
        <time>2020-10-07T14:10:35.465Z</time>
      </trkpt>
      <trkpt lat="54.9356" lon="25.23627">
        <ele>144.771262</ele>
        <time>2020-10-07T14:10:55.298Z</time>
      </trkpt>
      <trkpt lat="54.93513" lon="25.23603">
        <ele>144.745592</ele>
        <time>2020-10-07T14:11:06.340Z</time>
      </trkpt>
      <trkpt lat="54.935" lon="25.23598">
        <ele>144.74739</ele>
        <time>2020-10-07T14:11:09.314Z</time>
      </trkpt>
      <trkpt lat="54.93471" lon="25.23591">
        <ele>144.751392</ele>
        <time>2020-10-07T14:11:15.859Z</time>
      </trkpt>
      <trkpt lat="54.93398" lon="25.23585">
        <ele>144.761483</ele>
        <time>2020-10-07T14:11:32.088Z</time>
      </trkpt>
      <trkpt lat="54.93182" lon="25.23597">
        <ele>145.329178</ele>
        <time>2020-10-07T14:12:20.150Z</time>
      </trkpt>
      <trkpt lat="54.93168" lon="25.23598">
        <ele>145.378315</ele>
        <time>2020-10-07T14:12:23.724Z</time>
      </trkpt>
      <trkpt lat="54.93119" lon="25.23601">
        <ele>146.43066</ele>
        <time>2020-10-07T14:12:38.187Z</time>
      </trkpt>
      <trkpt lat="54.92908" lon="25.23616">
        <ele>152.483553</ele>
        <time>2020-10-07T14:13:51.995Z</time>
      </trkpt>
      <trkpt lat="54.92823" lon="25.23622">
        <ele>155.21018</ele>
        <time>2020-10-07T14:14:22.113Z</time>
      </trkpt>
      <trkpt lat="54.9269" lon="25.23629">
        <ele>159.196772</ele>
        <time>2020-10-07T14:15:07.986Z</time>
      </trkpt>
      <trkpt lat="54.92543" lon="25.23638">
        <ele>163.304508</ele>
        <time>2020-10-07T14:15:57.252Z</time>
      </trkpt>
      <trkpt lat="54.92476" lon="25.23656">
        <ele>165.100373</ele>
        <time>2020-10-07T14:16:19.666Z</time>
      </trkpt>
      <trkpt lat="54.9245" lon="25.23663">
        <ele>165.7984</ele>
        <time>2020-10-07T14:16:28.180Z</time>
      </trkpt>
      <trkpt lat="54.92349" lon="25.23692">
        <ele>167.441925</ele>
        <time>2020-10-07T14:17:00.253Z</time>
      </trkpt>
      <trkpt lat="54.92265" lon="25.23715">
        <ele>168.659305</ele>
        <time>2020-10-07T14:17:22.065Z</time>
      </trkpt>
      <trkpt lat="54.9225" lon="25.23719">
        <ele>168.669408</ele>
        <time>2020-10-07T14:17:25.920Z</time>
      </trkpt>
      <trkpt lat="54.92108" lon="25.23759">
        <ele>167.722362</ele>
        <time>2020-10-07T14:17:54.862Z</time>
      </trkpt>
      <trkpt lat="54.91991" lon="25.23792">
        <ele>166.314289</ele>
        <time>2020-10-07T14:18:16.368Z</time>
      </trkpt>
      <trkpt lat="54.91772" lon="25.23854">
        <ele>164.413683</ele>
        <time>2020-10-07T14:18:58.679Z</time>
      </trkpt>
      <trkpt lat="54.91275" lon="25.2399">
        <ele>168.482729</ele>
        <time>2020-10-07T14:21:06.895Z</time>
      </trkpt>
      <trkpt lat="54.91073" lon="25.24045">
        <ele>172.223398</ele>
        <time>2020-10-07T14:22:13.061Z</time>
      </trkpt>
      <trkpt lat="54.90919" lon="25.24087">
        <ele>173.953096</ele>
        <time>2020-10-07T14:22:53.489Z</time>
      </trkpt>
      <trkpt lat="54.90741" lon="25.2414">
        <ele>174.475527</ele>
        <time>2020-10-07T14:23:34.958Z</time>
      </trkpt>
      <trkpt lat="54.90297" lon="25.24277">
        <ele>173.82297</ele>
        <time>2020-10-07T14:25:13.284Z</time>
      </trkpt>
      <trkpt lat="54.90049" lon="25.24353">
        <ele>171.015127</ele>
        <time>2020-10-07T14:26:01.144Z</time>
      </trkpt>
      <trkpt lat="54.89938" lon="25.24387">
        <ele>169.437824</ele>
        <time>2020-10-07T14:26:21.789Z</time>
      </trkpt>
      <trkpt lat="54.89794" lon="25.24432">
        <ele>167.26142</ele>
        <time>2020-10-07T14:26:48.761Z</time>
      </trkpt>
      <trkpt lat="54.89734" lon="25.24451">
        <ele>166.445365</ele>
        <time>2020-10-07T14:26:59.927Z</time>
      </trkpt>
      <trkpt lat="54.89692" lon="25.24463">
        <ele>165.911108</ele>
        <time>2020-10-07T14:27:07.763Z</time>
      </trkpt>
      <trkpt lat="54.89651" lon="25.24465">
        <ele>165.392517</ele>
        <time>2020-10-07T14:27:15.511Z</time>
      </trkpt>
      <trkpt lat="54.89627" lon="25.24462">
        <ele>165.092986</ele>
        <time>2020-10-07T14:27:19.943Z</time>
      </trkpt>
      <trkpt lat="54.89626" lon="25.24462">
        <ele>165.074011</ele>
        <time>2020-10-07T14:27:20.176Z</time>
      </trkpt>
      <trkpt lat="54.89592" lon="25.24456">
        <ele>164.677526</ele>
        <time>2020-10-07T14:27:26.751Z</time>
      </trkpt>
      <trkpt lat="54.89433" lon="25.24432">
        <ele>163.421051</ele>
        <time>2020-10-07T14:27:58.836Z</time>
      </trkpt>
      <trkpt lat="54.89343" lon="25.24414">
        <ele>162.512615</ele>
        <time>2020-10-07T14:28:16.369Z</time>
      </trkpt>
      <trkpt lat="54.89315" lon="25.24411">
        <ele>162.217949</ele>
        <time>2020-10-07T14:28:21.712Z</time>
      </trkpt>
      <trkpt lat="54.89279" lon="25.24406">
        <ele>161.832945</ele>
        <time>2020-10-07T14:28:28.640Z</time>
      </trkpt>
      <trkpt lat="54.89225" lon="25.24404">
        <ele>161.289639</ele>
        <time>2020-10-07T14:28:38.917Z</time>
      </trkpt>
      <trkpt lat="54.89153" lon="25.24409">
        <ele>160.632122</ele>
        <time>2020-10-07T14:28:52.962Z</time>
      </trkpt>
      <trkpt lat="54.89134" lon="25.24406">
        <ele>160.452855</ele>
        <time>2020-10-07T14:28:56.765Z</time>
      </trkpt>
      <trkpt lat="54.89043" lon="25.24368">
        <ele>159.522715</ele>
        <time>2020-10-07T14:29:15.343Z</time>
      </trkpt>
      <trkpt lat="54.88941" lon="25.24326">
        <ele>158.120104</ele>
        <time>2020-10-07T14:29:34.977Z</time>
      </trkpt>
      <trkpt lat="54.88902" lon="25.24312">
        <ele>157.587053</ele>
        <time>2020-10-07T14:29:42.205Z</time>
      </trkpt>
      <trkpt lat="54.88884" lon="25.24311">
        <ele>157.346439</ele>
        <time>2020-10-07T14:29:45.363Z</time>
      </trkpt>
      <trkpt lat="54.88843" lon="25.24314">
        <ele>156.857475</ele>
        <time>2020-10-07T14:29:52.725Z</time>
      </trkpt>
      <trkpt lat="54.88778" lon="25.24322">
        <ele>156.077567</ele>
        <time>2020-10-07T14:30:04.665Z</time>
      </trkpt>
      <trkpt lat="54.88684" lon="25.24333">
        <ele>155.393357</ele>
        <time>2020-10-07T14:30:23.728Z</time>
      </trkpt>
      <trkpt lat="54.88677" lon="25.24334">
        <ele>155.440845</ele>
        <time>2020-10-07T14:30:25.148Z</time>
      </trkpt>
      <trkpt lat="54.88665" lon="25.24336">
        <ele>155.522769</ele>
        <time>2020-10-07T14:30:27.785Z</time>
      </trkpt>
      <trkpt lat="54.88531" lon="25.24394">
        <ele>156.468757</ele>
        <time>2020-10-07T14:31:04.290Z</time>
      </trkpt>
      <trkpt lat="54.88482" lon="25.24399">
        <ele>156.872025</ele>
        <time>2020-10-07T14:31:18.237Z</time>
      </trkpt>
      <trkpt lat="54.88452" lon="25.24389">
        <ele>157.122562</ele>
        <time>2020-10-07T14:31:26.771Z</time>
      </trkpt>
      <trkpt lat="54.88417" lon="25.24375">
        <ele>157.42022</ele>
        <time>2020-10-07T14:31:36.388Z</time>
      </trkpt>
      <trkpt lat="54.88387" lon="25.24365">
        <ele>157.667989</ele>
        <time>2020-10-07T14:31:44.130Z</time>
      </trkpt>
      <trkpt lat="54.88358" lon="25.24362">
        <ele>157.905389</ele>
        <time>2020-10-07T14:31:50.697Z</time>
      </trkpt>
      <trkpt lat="54.88241" lon="25.24377">
        <ele>156.956631</ele>
        <time>2020-10-07T14:32:14.118Z</time>
      </trkpt>
      <trkpt lat="54.88202" lon="25.24382">
        <ele>156.614665</ele>
        <time>2020-10-07T14:32:21.173Z</time>
      </trkpt>
      <trkpt lat="54.88093" lon="25.24395">
        <ele>155.763913</ele>
        <time>2020-10-07T14:32:41.751Z</time>
      </trkpt>
      <trkpt lat="54.88088" lon="25.24396">
        <ele>155.72682</ele>
        <time>2020-10-07T14:32:42.728Z</time>
      </trkpt>
      <trkpt lat="54.87958" lon="25.24412">
        <ele>154.930893</ele>
        <time>2020-10-07T14:33:10.188Z</time>
      </trkpt>
      <trkpt lat="54.87918" lon="25.2443">
        <ele>154.834437</ele>
        <time>2020-10-07T14:33:19.152Z</time>
      </trkpt>
      <trkpt lat="54.8782" lon="25.24522">
        <ele>154.564632</ele>
        <time>2020-10-07T14:33:43.258Z</time>
      </trkpt>
      <trkpt lat="54.87596" lon="25.24734">
        <ele>154.271075</ele>
        <time>2020-10-07T14:34:37.099Z</time>
      </trkpt>
      <trkpt lat="54.8759" lon="25.24738">
        <ele>154.286907</ele>
        <time>2020-10-07T14:34:38.561Z</time>
      </trkpt>
      <trkpt lat="54.87575" lon="25.24749">
        <ele>154.324353</ele>
        <time>2020-10-07T14:34:42.035Z</time>
      </trkpt>
      <trkpt lat="54.87455" lon="25.24796">
        <ele>155.432343</ele>
        <time>2020-10-07T14:35:13.761Z</time>
      </trkpt>
      <trkpt lat="54.87418" lon="25.24809">
        <ele>156.129241</ele>
        <time>2020-10-07T14:35:25.107Z</time>
      </trkpt>
      <trkpt lat="54.87412" lon="25.24812">
        <ele>156.257715</ele>
        <time>2020-10-07T14:35:27.338Z</time>
      </trkpt>
      <trkpt lat="54.87353" lon="25.24832">
        <ele>157.372152</ele>
        <time>2020-10-07T14:35:46.239Z</time>
      </trkpt>
      <trkpt lat="54.8727" lon="25.24862">
        <ele>159.016242</ele>
        <time>2020-10-07T14:36:13.490Z</time>
      </trkpt>
      <trkpt lat="54.87193" lon="25.24889">
        <ele>160.593389</ele>
        <time>2020-10-07T14:36:37.822Z</time>
      </trkpt>
      <trkpt lat="54.87168" lon="25.249">
        <ele>161.109237</ele>
        <time>2020-10-07T14:36:45.153Z</time>
      </trkpt>
      <trkpt lat="54.87145" lon="25.24912">
        <ele>161.492612</ele>
        <time>2020-10-07T14:36:51.762Z</time>
      </trkpt>
      <trkpt lat="54.87059" lon="25.25">
        <ele>162.255953</ele>
        <time>2020-10-07T14:37:17.086Z</time>
      </trkpt>
      <trkpt lat="54.86963" lon="25.25107">
        <ele>162.786472</ele>
        <time>2020-10-07T14:37:44.678Z</time>
      </trkpt>
      <trkpt lat="54.86954" lon="25.25117">
        <ele>162.781755</ele>
        <time>2020-10-07T14:37:47.190Z</time>
      </trkpt>
      <trkpt lat="54.86958" lon="25.25129">
        <ele>162.778121</ele>
        <time>2020-10-07T14:37:49.189Z</time>
      </trkpt>
      <trkpt lat="54.86958" lon="25.25324">
        <ele>162.72674</ele>
        <time>2020-10-07T14:38:13.847Z</time>
      </trkpt>
      <trkpt lat="54.86957" lon="25.25397">
        <ele>162.265514</ele>
        <time>2020-10-07T14:38:22.056Z</time>
      </trkpt>
      <trkpt lat="54.86959" lon="25.25539">
        <ele>161.187412</ele>
        <time>2020-10-07T14:38:37.163Z</time>
      </trkpt>
      <trkpt lat="54.86959" lon="25.25634">
        <ele>160.471316</ele>
        <time>2020-10-07T14:38:47.046Z</time>
      </trkpt>
      <trkpt lat="54.86958" lon="25.25695">
        <ele>159.890357</ele>
        <time>2020-10-07T14:38:53.344Z</time>
      </trkpt>
      <trkpt lat="54.86956" lon="25.25754">
        <ele>159.293465</ele>
        <time>2020-10-07T14:38:59.468Z</time>
      </trkpt>
      <trkpt lat="54.86954" lon="25.25792">
        <ele>158.903371</ele>
        <time>2020-10-07T14:39:03.489Z</time>
      </trkpt>
      <trkpt lat="54.86952" lon="25.25812">
        <ele>158.702023</ele>
        <time>2020-10-07T14:39:05.606Z</time>
      </trkpt>
      <trkpt lat="54.86948" lon="25.25835">
        <ele>158.461647</ele>
        <time>2020-10-07T14:39:08.069Z</time>
      </trkpt>
      <trkpt lat="54.86944" lon="25.2586">
        <ele>158.199868</ele>
        <time>2020-10-07T14:39:10.728Z</time>
      </trkpt>
      <trkpt lat="54.86937" lon="25.25883">
        <ele>157.938584</ele>
        <time>2020-10-07T14:39:13.410Z</time>
      </trkpt>
      <trkpt lat="54.86898" lon="25.26035">
        <ele>156.334443</ele>
        <time>2020-10-07T14:39:30.616Z</time>
      </trkpt>
      <trkpt lat="54.86895" lon="25.26048">
        <ele>156.206026</ele>
        <time>2020-10-07T14:39:32.088Z</time>
      </trkpt>
      <trkpt lat="54.86886" lon="25.26089">
        <ele>155.804847</ele>
        <time>2020-10-07T14:39:36.555Z</time>
      </trkpt>
      <trkpt lat="54.86879" lon="25.26131">
        <ele>155.406446</ele>
        <time>2020-10-07T14:39:41.006Z</time>
      </trkpt>
      <trkpt lat="54.86871" lon="25.26183">
        <ele>154.912692</ele>
        <time>2020-10-07T14:39:46.582Z</time>
      </trkpt>
      <trkpt lat="54.86865" lon="25.26248">
        <ele>154.319157</ele>
        <time>2020-10-07T14:39:53.634Z</time>
      </trkpt>
      <trkpt lat="54.86865" lon="25.26259">
        <ele>154.344846</ele>
        <time>2020-10-07T14:39:54.729Z</time>
      </trkpt>
      <trkpt lat="54.86866" lon="25.26297">
        <ele>154.432698</ele>
        <time>2020-10-07T14:39:59.174Z</time>
      </trkpt>
      <trkpt lat="54.86875" lon="25.26433">
        <ele>154.745791</ele>
        <time>2020-10-07T14:40:16.515Z</time>
      </trkpt>
      <trkpt lat="54.86875" lon="25.26442">
        <ele>154.76767</ele>
        <time>2020-10-07T14:40:17.755Z</time>
      </trkpt>
      <trkpt lat="54.86877" lon="25.26459">
        <ele>154.807359</ele>
        <time>2020-10-07T14:40:20.275Z</time>
      </trkpt>
      <trkpt lat="54.86877" lon="25.2647">
        <ele>154.830918</ele>
        <time>2020-10-07T14:40:22.301Z</time>
      </trkpt>
      <trkpt lat="54.86886" lon="25.26605">
        <ele>155.665817</ele>
        <time>2020-10-07T14:40:45.292Z</time>
      </trkpt>
      <trkpt lat="54.86887" lon="25.26625">
        <ele>155.925275</ele>
        <time>2020-10-07T14:40:49.043Z</time>
      </trkpt>
      <trkpt lat="54.86887" lon="25.26647">
        <ele>156.212558</ele>
        <time>2020-10-07T14:40:53.009Z</time>
      </trkpt>
      <trkpt lat="54.86887" lon="25.26727">
        <ele>157.275707</ele>
        <time>2020-10-07T14:41:08.790Z</time>
      </trkpt>
      <trkpt lat="54.86885" lon="25.26851">
        <ele>158.900073</ele>
        <time>2020-10-07T14:41:31.969Z</time>
      </trkpt>
      <trkpt lat="54.86883" lon="25.2694">
        <ele>159.184506</ele>
        <time>2020-10-07T14:41:47.245Z</time>
      </trkpt>
      <trkpt lat="54.86882" lon="25.2695">
        <ele>159.189943</ele>
        <time>2020-10-07T14:41:48.706Z</time>
      </trkpt>
      <trkpt lat="54.86878" lon="25.27035">
        <ele>159.236329</ele>
        <time>2020-10-07T14:42:00.230Z</time>
      </trkpt>
      <trkpt lat="54.86877" lon="25.27052">
        <ele>159.245597</ele>
        <time>2020-10-07T14:42:02.546Z</time>
      </trkpt>
      <trkpt lat="54.86876" lon="25.27076">
        <ele>159.258576</ele>
        <time>2020-10-07T14:42:05.321Z</time>
      </trkpt>
      <trkpt lat="54.86873" lon="25.27127">
        <ele>159.286542</ele>
        <time>2020-10-07T14:42:11.136Z</time>
      </trkpt>
      <trkpt lat="54.86873" lon="25.27154">
        <ele>159.301419</ele>
        <time>2020-10-07T14:42:13.954Z</time>
      </trkpt>
      <trkpt lat="54.86876" lon="25.272">
        <ele>159.092386</ele>
        <time>2020-10-07T14:42:18.899Z</time>
      </trkpt>
      <trkpt lat="54.86887" lon="25.27256">
        <ele>158.391444</ele>
        <time>2020-10-07T14:42:24.873Z</time>
      </trkpt>
      <trkpt lat="54.86893" lon="25.27282">
        <ele>158.054438</ele>
        <time>2020-10-07T14:42:27.639Z</time>
      </trkpt>
      <trkpt lat="54.86894" lon="25.2729">
        <ele>157.953856</ele>
        <time>2020-10-07T14:42:28.577Z</time>
      </trkpt>
      <trkpt lat="54.86898" lon="25.2731">
        <ele>157.706626</ele>
        <time>2020-10-07T14:42:30.628Z</time>
      </trkpt>
      <trkpt lat="54.8691" lon="25.27417">
        <ele>156.420168</ele>
        <time>2020-10-07T14:42:41.124Z</time>
      </trkpt>
      <trkpt lat="54.86904" lon="25.27544">
        <ele>155.649624</ele>
        <time>2020-10-07T14:42:54.119Z</time>
      </trkpt>
      <trkpt lat="54.86894" lon="25.27619">
        <ele>155.708954</ele>
        <time>2020-10-07T14:43:03.536Z</time>
      </trkpt>
      <trkpt lat="54.86879" lon="25.27722">
        <ele>155.789929</ele>
        <time>2020-10-07T14:43:18.973Z</time>
      </trkpt>
      <trkpt lat="54.86872" lon="25.27773">
        <ele>155.830837</ele>
        <time>2020-10-07T14:43:27.517Z</time>
      </trkpt>
      <trkpt lat="54.86869" lon="25.27797">
        <ele>155.9123</ele>
        <time>2020-10-07T14:43:31.504Z</time>
      </trkpt>
      <trkpt lat="54.86856" lon="25.27894">
        <ele>157.020393</ele>
        <time>2020-10-07T14:43:49.139Z</time>
      </trkpt>
      <trkpt lat="54.8684" lon="25.27999">
        <ele>158.219516</ele>
        <time>2020-10-07T14:44:08.910Z</time>
      </trkpt>
      <trkpt lat="54.86828" lon="25.2807">
        <ele>159.037698</ele>
        <time>2020-10-07T14:44:22.158Z</time>
      </trkpt>
      <trkpt lat="54.86826" lon="25.28078">
        <ele>159.131835</ele>
        <time>2020-10-07T14:44:23.584Z</time>
      </trkpt>
      <trkpt lat="54.86799" lon="25.28209">
        <ele>159.780883</ele>
        <time>2020-10-07T14:44:45.092Z</time>
      </trkpt>
      <trkpt lat="54.86746" lon="25.28435">
        <ele>160.448436</ele>
        <time>2020-10-07T14:45:17.408Z</time>
      </trkpt>
      <trkpt lat="54.86725" lon="25.28519">
        <ele>160.343904</ele>
        <time>2020-10-07T14:45:29.196Z</time>
      </trkpt>
      <trkpt lat="54.86636" lon="25.28857">
        <ele>159.238605</ele>
        <time>2020-10-07T14:46:13.744Z</time>
      </trkpt>
      <trkpt lat="54.86572" lon="25.29093">
        <ele>157.503888</ele>
        <time>2020-10-07T14:46:41.712Z</time>
      </trkpt>
      <trkpt lat="54.86545" lon="25.29211">
        <ele>156.46953</ele>
        <time>2020-10-07T14:46:55.145Z</time>
      </trkpt>
      <trkpt lat="54.86542" lon="25.29247">
        <ele>156.191029</ele>
        <time>2020-10-07T14:46:59.036Z</time>
      </trkpt>
      <trkpt lat="54.86547" lon="25.29297">
        <ele>155.902687</ele>
        <time>2020-10-07T14:47:04.226Z</time>
      </trkpt>
      <trkpt lat="54.86552" lon="25.29322">
        <ele>155.75406</ele>
        <time>2020-10-07T14:47:07.434Z</time>
      </trkpt>
      <trkpt lat="54.86558" lon="25.29344">
        <ele>155.618453</ele>
        <time>2020-10-07T14:47:09.743Z</time>
      </trkpt>
      <trkpt lat="54.86592" lon="25.29486">
        <ele>154.741818</ele>
        <time>2020-10-07T14:47:27.501Z</time>
      </trkpt>
      <trkpt lat="54.86595" lon="25.29511">
        <ele>154.5962</ele>
        <time>2020-10-07T14:47:30.164Z</time>
      </trkpt>
      <trkpt lat="54.86596" lon="25.29534">
        <ele>154.467846</ele>
        <time>2020-10-07T14:47:32.987Z</time>
      </trkpt>
      <trkpt lat="54.86593" lon="25.29668">
        <ele>154.694204</ele>
        <time>2020-10-07T14:47:49.795Z</time>
      </trkpt>
      <trkpt lat="54.86591" lon="25.29694">
        <ele>154.744385</ele>
        <time>2020-10-07T14:47:53.024Z</time>
      </trkpt>
      <trkpt lat="54.86587" lon="25.29723">
        <ele>154.800343</ele>
        <time>2020-10-07T14:47:57.486Z</time>
      </trkpt>
      <trkpt lat="54.86572" lon="25.29818">
        <ele>154.986757</ele>
        <time>2020-10-07T14:48:12.042Z</time>
      </trkpt>
      <trkpt lat="54.86561" lon="25.29886">
        <ele>155.219635</ele>
        <time>2020-10-07T14:48:23.117Z</time>
      </trkpt>
      <trkpt lat="54.86543" lon="25.29999">
        <ele>155.714477</ele>
        <time>2020-10-07T14:48:41.414Z</time>
      </trkpt>
      <trkpt lat="54.86515" lon="25.3015">
        <ele>156.374244</ele>
        <time>2020-10-07T14:49:02.926Z</time>
      </trkpt>
      <trkpt lat="54.86508" lon="25.30167">
        <ele>156.442298</ele>
        <time>2020-10-07T14:49:05.802Z</time>
      </trkpt>
      <trkpt lat="54.86501" lon="25.30187">
        <ele>156.516929</ele>
        <time>2020-10-07T14:49:08.650Z</time>
      </trkpt>
      <trkpt lat="54.86496" lon="25.30189">
        <ele>156.545623</ele>
        <time>2020-10-07T14:49:09.789Z</time>
      </trkpt>
      <trkpt lat="54.86491" lon="25.30198">
        <ele>156.587768</ele>
        <time>2020-10-07T14:49:11.630Z</time>
      </trkpt>
      <trkpt lat="54.86489" lon="25.30205">
        <ele>156.614971</ele>
        <time>2020-10-07T14:49:12.784Z</time>
      </trkpt>
      <trkpt lat="54.86491" lon="25.30216">
        <ele>156.650572</ele>
        <time>2020-10-07T14:49:14.346Z</time>
      </trkpt>
      <trkpt lat="54.86491" lon="25.30224">
        <ele>156.677642</ele>
        <time>2020-10-07T14:49:15.457Z</time>
      </trkpt>
      <trkpt lat="54.86488" lon="25.3024">
        <ele>156.730529</ele>
        <time>2020-10-07T14:49:17.420Z</time>
      </trkpt>
      <trkpt lat="54.8648" lon="25.30272">
        <ele>156.844544</ele>
        <time>2020-10-07T14:49:22.337Z</time>
      </trkpt>
      <trkpt lat="54.86475" lon="25.30284">
        <ele>156.891551</ele>
        <time>2020-10-07T14:49:24.244Z</time>
      </trkpt>
      <trkpt lat="54.86469" lon="25.3029">
        <ele>156.933416</ele>
        <time>2020-10-07T14:49:25.861Z</time>
      </trkpt>
      <trkpt lat="54.86465" lon="25.30297">
        <ele>156.964045</ele>
        <time>2020-10-07T14:49:27.204Z</time>
      </trkpt>
      <trkpt lat="54.86468" lon="25.30322">
        <ele>157.047174</ele>
        <time>2020-10-07T14:49:30.940Z</time>
      </trkpt>
      <trkpt lat="54.8647" lon="25.30327">
        <ele>157.069237</ele>
        <time>2020-10-07T14:49:31.890Z</time>
      </trkpt>
      <trkpt lat="54.86472" lon="25.30349">
        <ele>157.14149</ele>
        <time>2020-10-07T14:49:34.867Z</time>
      </trkpt>
      <trkpt lat="54.86474" lon="25.30378">
        <ele>157.236171</ele>
        <time>2020-10-07T14:49:39.307Z</time>
      </trkpt>
      <trkpt lat="54.86463" lon="25.30463">
        <ele>157.903513</ele>
        <time>2020-10-07T14:49:52.788Z</time>
      </trkpt>
      <trkpt lat="54.86452" lon="25.30586">
        <ele>159.31928</ele>
        <time>2020-10-07T14:50:14.269Z</time>
      </trkpt>
      <trkpt lat="54.86445" lon="25.3082">
        <ele>161.943551</ele>
        <time>2020-10-07T14:50:57.720Z</time>
      </trkpt>
      <trkpt lat="54.86428" lon="25.30961">
        <ele>163.510315</ele>
        <time>2020-10-07T14:51:23.263Z</time>
      </trkpt>
      <trkpt lat="54.8638" lon="25.31175">
        <ele>164.526783</ele>
        <time>2020-10-07T14:51:57.613Z</time>
      </trkpt>
      <trkpt lat="54.86368" lon="25.31252">
        <ele>164.630217</ele>
        <time>2020-10-07T14:52:07.743Z</time>
      </trkpt>
      <trkpt lat="54.86336" lon="25.31589">
        <ele>163.136596</ele>
        <time>2020-10-07T14:52:46.204Z</time>
      </trkpt>
      <trkpt lat="54.86334" lon="25.31647">
        <ele>162.745511</ele>
        <time>2020-10-07T14:52:52.277Z</time>
      </trkpt>
      <trkpt lat="54.86338" lon="25.31734">
        <ele>161.702178</ele>
        <time>2020-10-07T14:53:01.323Z</time>
      </trkpt>
      <trkpt lat="54.86345" lon="25.31871">
        <ele>160.055063</ele>
        <time>2020-10-07T14:53:15.142Z</time>
      </trkpt>
      <trkpt lat="54.86359" lon="25.32148">
        <ele>156.445639</ele>
        <time>2020-10-07T14:53:42.331Z</time>
      </trkpt>
      <trkpt lat="54.86397" lon="25.3287">
        <ele>148.075688</ele>
        <time>2020-10-07T14:54:56.146Z</time>
      </trkpt>
      <trkpt lat="54.86398" lon="25.3288">
        <ele>147.962934</ele>
        <time>2020-10-07T14:54:57.241Z</time>
      </trkpt>
      <trkpt lat="54.86407" lon="25.33036">
        <ele>146.421001</ele>
        <time>2020-10-07T14:55:13.614Z</time>
      </trkpt>
      <trkpt lat="54.86415" lon="25.331">
        <ele>145.771572</ele>
        <time>2020-10-07T14:55:20.515Z</time>
      </trkpt>
      <trkpt lat="54.86433" lon="25.33157">
        <ele>145.132899</ele>
        <time>2020-10-07T14:55:27.323Z</time>
      </trkpt>
      <trkpt lat="54.86447" lon="25.33193">
        <ele>144.7209</ele>
        <time>2020-10-07T14:55:31.780Z</time>
      </trkpt>
      <trkpt lat="54.86488" lon="25.33268">
        <ele>143.788374</ele>
        <time>2020-10-07T14:55:42.539Z</time>
      </trkpt>
      <trkpt lat="54.8661" lon="25.33441">
        <ele>141.624829</ele>
        <time>2020-10-07T14:56:11.517Z</time>
      </trkpt>
      <trkpt lat="54.86646" lon="25.33493">
        <ele>141.211521</ele>
        <time>2020-10-07T14:56:20.591Z</time>
      </trkpt>
      <trkpt lat="54.86661" lon="25.33517">
        <ele>141.034364</ele>
        <time>2020-10-07T14:56:24.616Z</time>
      </trkpt>
      <trkpt lat="54.86669" lon="25.33532">
        <ele>140.92734</ele>
        <time>2020-10-07T14:56:26.980Z</time>
      </trkpt>
      <trkpt lat="54.86682" lon="25.33558">
        <ele>140.751633</ele>
        <time>2020-10-07T14:56:31.053Z</time>
      </trkpt>
      <trkpt lat="54.86708" lon="25.3364">
        <ele>140.393967</ele>
        <time>2020-10-07T14:56:42.156Z</time>
      </trkpt>
      <trkpt lat="54.8672" lon="25.33705">
        <ele>140.310882</ele>
        <time>2020-10-07T14:56:50.558Z</time>
      </trkpt>
      <trkpt lat="54.86728" lon="25.33789">
        <ele>140.207157</ele>
        <time>2020-10-07T14:57:01.384Z</time>
      </trkpt>
      <trkpt lat="54.86728" lon="25.33886">
        <ele>140.088078</ele>
        <time>2020-10-07T14:57:13.890Z</time>
      </trkpt>
      <trkpt lat="54.86724" lon="25.33988">
        <ele>140.160155</ele>
        <time>2020-10-07T14:57:26.131Z</time>
      </trkpt>
      <trkpt lat="54.8672" lon="25.34075">
        <ele>140.296068</ele>
        <time>2020-10-07T14:57:37.580Z</time>
      </trkpt>
      <trkpt lat="54.86719" lon="25.34106">
        <ele>140.343285</ele>
        <time>2020-10-07T14:57:41.582Z</time>
      </trkpt>
      <trkpt lat="54.86716" lon="25.34171">
        <ele>140.444209</ele>
        <time>2020-10-07T14:57:50.598Z</time>
      </trkpt>
      <trkpt lat="54.86717" lon="25.34215">
        <ele>140.512347</ele>
        <time>2020-10-07T14:57:57.288Z</time>
      </trkpt>
      <trkpt lat="54.86719" lon="25.34238">
        <ele>140.647927</ele>
        <time>2020-10-07T14:58:00.505Z</time>
      </trkpt>
      <trkpt lat="54.86721" lon="25.34258">
        <ele>140.88816</ele>
        <time>2020-10-07T14:58:03.613Z</time>
      </trkpt>
      <trkpt lat="54.86725" lon="25.34285">
        <ele>141.226954</ele>
        <time>2020-10-07T14:58:08.157Z</time>
      </trkpt>
      <trkpt lat="54.86745" lon="25.34363">
        <ele>142.255082</ele>
        <time>2020-10-07T14:58:21.558Z</time>
      </trkpt>
      <trkpt lat="54.86759" lon="25.34408">
        <ele>142.864334</ele>
        <time>2020-10-07T14:58:30.508Z</time>
      </trkpt>
      <trkpt lat="54.86779" lon="25.34467">
        <ele>143.691334</ele>
        <time>2020-10-07T14:58:43.903Z</time>
      </trkpt>
      <trkpt lat="54.86817" lon="25.34564">
        <ele>145.358677</ele>
        <time>2020-10-07T14:59:08.984Z</time>
      </trkpt>
      <trkpt lat="54.86893" lon="25.34755">
        <ele>149.040448</ele>
        <time>2020-10-07T14:59:54.452Z</time>
      </trkpt>
      <trkpt lat="54.86997" lon="25.35014">
        <ele>150.607646</ele>
        <time>2020-10-07T15:00:40.595Z</time>
      </trkpt>
      <trkpt lat="54.8704" lon="25.35127">
        <ele>150.017661</ele>
        <time>2020-10-07T15:00:56.039Z</time>
      </trkpt>
      <trkpt lat="54.87065" lon="25.35202">
        <ele>149.582895</ele>
        <time>2020-10-07T15:01:05.601Z</time>
      </trkpt>
      <trkpt lat="54.8714" lon="25.3551">
        <ele>147.348715</ele>
        <time>2020-10-07T15:01:41.386Z</time>
      </trkpt>
      <trkpt lat="54.87186" lon="25.357">
        <ele>146.284817</ele>
        <time>2020-10-07T15:02:04.394Z</time>
      </trkpt>
      <trkpt lat="54.87197" lon="25.35746">
        <ele>146.095686</ele>
        <time>2020-10-07T15:02:10.272Z</time>
      </trkpt>
      <trkpt lat="54.87224" lon="25.35906">
        <ele>145.554321</ele>
        <time>2020-10-07T15:02:30.534Z</time>
      </trkpt>
      <trkpt lat="54.87243" lon="25.36059">
        <ele>145.390876</ele>
        <time>2020-10-07T15:02:50.169Z</time>
      </trkpt>
      <trkpt lat="54.87247" lon="25.36108">
        <ele>145.339599</ele>
        <time>2020-10-07T15:02:56.392Z</time>
      </trkpt>
      <trkpt lat="54.8725" lon="25.36151">
        <ele>145.293561</ele>
        <time>2020-10-07T15:03:01.919Z</time>
      </trkpt>
      <trkpt lat="54.87251" lon="25.36182">
        <ele>145.261525</ele>
        <time>2020-10-07T15:03:05.811Z</time>
      </trkpt>
      <trkpt lat="54.87252" lon="25.36214">
        <ele>145.145971</ele>
        <time>2020-10-07T15:03:09.665Z</time>
      </trkpt>
      <trkpt lat="54.87251" lon="25.36242">
        <ele>145.045674</ele>
        <time>2020-10-07T15:03:13.044Z</time>
      </trkpt>
      <trkpt lat="54.87234" lon="25.36328">
        <ele>144.712141</ele>
        <time>2020-10-07T15:03:23.734Z</time>
      </trkpt>
      <trkpt lat="54.87215" lon="25.36394">
        <ele>144.443109</ele>
        <time>2020-10-07T15:03:32.202Z</time>
      </trkpt>
      <trkpt lat="54.87187" lon="25.36484">
        <ele>144.044506</ele>
        <time>2020-10-07T15:03:43.749Z</time>
      </trkpt>
      <trkpt lat="54.87144" lon="25.36628">
        <ele>143.157922</ele>
        <time>2020-10-07T15:04:01.739Z</time>
      </trkpt>
      <trkpt lat="54.87128" lon="25.36678">
        <ele>142.848588</ele>
        <time>2020-10-07T15:04:08.019Z</time>
      </trkpt>
      <trkpt lat="54.87095" lon="25.36786">
        <ele>142.24948</ele>
        <time>2020-10-07T15:04:22.128Z</time>
      </trkpt>
      <trkpt lat="54.87022" lon="25.37039">
        <ele>141.163564</ele>
        <time>2020-10-07T15:04:55.054Z</time>
      </trkpt>
      <trkpt lat="54.87017" lon="25.37055">
        <ele>141.097939</ele>
        <time>2020-10-07T15:04:57.071Z</time>
      </trkpt>
      <trkpt lat="54.87001" lon="25.37119">
        <ele>140.836601</ele>
        <time>2020-10-07T15:05:05.162Z</time>
      </trkpt>
      <trkpt lat="54.86985" lon="25.37189">
        <ele>140.553195</ele>
        <time>2020-10-07T15:05:13.945Z</time>
      </trkpt>
      <trkpt lat="54.86946" lon="25.37367">
        <ele>139.935909</ele>
        <time>2020-10-07T15:05:36.169Z</time>
      </trkpt>
      <trkpt lat="54.8693" lon="25.37466">
        <ele>139.730232</ele>
        <time>2020-10-07T15:05:48.744Z</time>
      </trkpt>
      <trkpt lat="54.86898" lon="25.37679">
        <ele>139.298676</ele>
        <time>2020-10-07T15:06:15.755Z</time>
      </trkpt>
      <trkpt lat="54.86863" lon="25.37897">
        <ele>138.879577</ele>
        <time>2020-10-07T15:06:43.296Z</time>
      </trkpt>
      <trkpt lat="54.86842" lon="25.38028">
        <ele>138.555438</ele>
        <time>2020-10-07T15:06:59.706Z</time>
      </trkpt>
      <trkpt lat="54.86827" lon="25.38122">
        <ele>138.310957</ele>
        <time>2020-10-07T15:07:11.642Z</time>
      </trkpt>
      <trkpt lat="54.86796" lon="25.38313">
        <ele>137.98886</ele>
        <time>2020-10-07T15:07:34.844Z</time>
      </trkpt>
      <trkpt lat="54.86795" lon="25.38319">
        <ele>137.984889</ele>
        <time>2020-10-07T15:07:35.466Z</time>
      </trkpt>
      <trkpt lat="54.86746" lon="25.38645">
        <ele>138.383257</ele>
        <time>2020-10-07T15:08:19.412Z</time>
      </trkpt>
      <trkpt lat="54.86709" lon="25.38894">
        <ele>139.111892</ele>
        <time>2020-10-07T15:08:59.956Z</time>
      </trkpt>
      <trkpt lat="54.86697" lon="25.38949">
        <ele>139.065817</ele>
        <time>2020-10-07T15:09:09.104Z</time>
      </trkpt>
      <trkpt lat="54.86603" lon="25.39278">
        <ele>136.523956</ele>
        <time>2020-10-07T15:09:49.261Z</time>
      </trkpt>
      <trkpt lat="54.86597" lon="25.39293">
        <ele>136.283821</ele>
        <time>2020-10-07T15:09:51.115Z</time>
      </trkpt>
      <trkpt lat="54.86586" lon="25.39315">
        <ele>135.919804</ele>
        <time>2020-10-07T15:09:53.920Z</time>
      </trkpt>
      <trkpt lat="54.86562" lon="25.39352">
        <ele>135.204243</ele>
        <time>2020-10-07T15:09:59.087Z</time>
      </trkpt>
      <trkpt lat="54.86445" lon="25.39493">
        <ele>127.997454</ele>
        <time>2020-10-07T15:10:20.544Z</time>
      </trkpt>
      <trkpt lat="54.86444" lon="25.39495">
        <ele>127.885815</ele>
        <time>2020-10-07T15:10:20.812Z</time>
      </trkpt>
      <trkpt lat="54.86409" lon="25.39555">
        <ele>125.259133</ele>
        <time>2020-10-07T15:10:28.047Z</time>
      </trkpt>
      <trkpt lat="54.86381" lon="25.39622">
        <ele>122.796849</ele>
        <time>2020-10-07T15:10:35.024Z</time>
      </trkpt>
      <trkpt lat="54.86368" lon="25.39675">
        <ele>121.050181</ele>
        <time>2020-10-07T15:10:39.943Z</time>
      </trkpt>
      <trkpt lat="54.8636" lon="25.39749">
        <ele>118.796172</ele>
        <time>2020-10-07T15:10:46.388Z</time>
      </trkpt>
      <trkpt lat="54.86362" lon="25.39885">
        <ele>115.21244</ele>
        <time>2020-10-07T15:10:58.779Z</time>
      </trkpt>
      <trkpt lat="54.86378" lon="25.40068">
        <ele>111.851193</ele>
        <time>2020-10-07T15:11:16.336Z</time>
      </trkpt>
      <trkpt lat="54.86371" lon="25.4007">
        <ele>111.647089</ele>
        <time>2020-10-07T15:11:17.332Z</time>
      </trkpt>
      <trkpt lat="54.86351" lon="25.40062">
        <ele>110.976425</ele>
        <time>2020-10-07T15:11:21.085Z</time>
      </trkpt>
      <trkpt lat="54.86343" lon="25.40052">
        <ele>110.667227</ele>
        <time>2020-10-07T15:11:22.698Z</time>
      </trkpt>
      <trkpt lat="54.86333" lon="25.40037">
        <ele>110.267872</ele>
        <time>2020-10-07T15:11:24.784Z</time>
      </trkpt>
      <trkpt lat="54.8628" lon="25.39926">
        <ele>108.241218</ele>
        <time>2020-10-07T15:11:38.820Z</time>
      </trkpt>
      <trkpt lat="54.86179" lon="25.39628">
        <ele>103.701441</ele>
        <time>2020-10-07T15:12:13.208Z</time>
      </trkpt>
      <trkpt lat="54.86144" lon="25.39495">
        <ele>101.992906</ele>
        <time>2020-10-07T15:12:28.183Z</time>
      </trkpt>
      <trkpt lat="54.86102" lon="25.3929">
        <ele>100.648033</ele>
        <time>2020-10-07T15:12:51.423Z</time>
      </trkpt>
      <trkpt lat="54.86046" lon="25.39127">
        <ele>100.545439</ele>
        <time>2020-10-07T15:13:15.440Z</time>
      </trkpt>
      <trkpt lat="54.86025" lon="25.39065">
        <ele>100.824183</ele>
        <time>2020-10-07T15:13:25.990Z</time>
      </trkpt>
      <trkpt lat="54.85973" lon="25.38939">
        <ele>101.550037</ele>
        <time>2020-10-07T15:13:50.319Z</time>
      </trkpt>
      <trkpt lat="54.85903" lon="25.38806">
        <ele>103.342765</ele>
        <time>2020-10-07T15:14:20.555Z</time>
      </trkpt>
      <trkpt lat="54.85867" lon="25.38701">
        <ele>104.578328</ele>
        <time>2020-10-07T15:14:41.509Z</time>
      </trkpt>
      <trkpt lat="54.85831" lon="25.38622">
        <ele>105.705024</ele>
        <time>2020-10-07T15:14:59.368Z</time>
      </trkpt>
      <trkpt lat="54.85726" lon="25.38403">
        <ele>108.465448</ele>
        <time>2020-10-07T15:15:48.676Z</time>
      </trkpt>
      <trkpt lat="54.85689" lon="25.38326">
        <ele>109.079001</ele>
        <time>2020-10-07T15:16:04.216Z</time>
      </trkpt>
      <trkpt lat="54.85652" lon="25.38248">
        <ele>109.699005</ele>
        <time>2020-10-07T15:16:18.641Z</time>
      </trkpt>
      <trkpt lat="54.85614" lon="25.38169">
        <ele>109.901255</ele>
        <time>2020-10-07T15:16:32.066Z</time>
      </trkpt>
      <trkpt lat="54.85576" lon="25.3809">
        <ele>109.960949</ele>
        <time>2020-10-07T15:16:45.050Z</time>
      </trkpt>
      <trkpt lat="54.85502" lon="25.37947">
        <ele>110.144491</ele>
        <time>2020-10-07T15:17:09.980Z</time>
      </trkpt>
      <trkpt lat="54.85438" lon="25.37838">
        <ele>110.423358</ele>
        <time>2020-10-07T15:17:31.485Z</time>
      </trkpt>
      <trkpt lat="54.85389" lon="25.37761">
        <ele>110.591361</ele>
        <time>2020-10-07T15:17:47.333Z</time>
      </trkpt>
      <trkpt lat="54.85364" lon="25.37723">
        <ele>110.566959</ele>
        <time>2020-10-07T15:17:55.020Z</time>
      </trkpt>
      <trkpt lat="54.85281" lon="25.37591">
        <ele>110.483248</ele>
        <time>2020-10-07T15:18:19.568Z</time>
      </trkpt>
      <trkpt lat="54.8524" lon="25.37557">
        <ele>110.36509</ele>
        <time>2020-10-07T15:18:29.036Z</time>
      </trkpt>
      <trkpt lat="54.85196" lon="25.37515">
        <ele>110.12566</ele>
        <time>2020-10-07T15:18:39.354Z</time>
      </trkpt>
      <trkpt lat="54.85167" lon="25.37488">
        <ele>109.96894</ele>
        <time>2020-10-07T15:18:46.193Z</time>
      </trkpt>
      <trkpt lat="54.85107" lon="25.37437">
        <ele>109.652975</ele>
        <time>2020-10-07T15:19:00.000Z</time>
      </trkpt>
      <trkpt lat="54.85019" lon="25.37379">
        <ele>108.910505</ele>
        <time>2020-10-07T15:19:19.092Z</time>
      </trkpt>
      <trkpt lat="54.84999" lon="25.37369">
        <ele>108.741623</ele>
        <time>2020-10-07T15:19:23.211Z</time>
      </trkpt>
      <trkpt lat="54.84955" lon="25.37358">
        <ele>108.377607</ele>
        <time>2020-10-07T15:19:31.807Z</time>
      </trkpt>
      <trkpt lat="54.84729" lon="25.37353">
        <ele>106.182227</ele>
        <time>2020-10-07T15:20:14.403Z</time>
      </trkpt>
      <trkpt lat="54.84659" lon="25.37338">
        <ele>106.293184</ele>
        <time>2020-10-07T15:20:29.710Z</time>
      </trkpt>
      <trkpt lat="54.84477" lon="25.37257">
        <ele>106.87662</ele>
        <time>2020-10-07T15:21:17.793Z</time>
      </trkpt>
      <trkpt lat="54.84382" lon="25.37207">
        <ele>107.126891</ele>
        <time>2020-10-07T15:21:41.274Z</time>
      </trkpt>
      <trkpt lat="54.8429" lon="25.37147">
        <ele>106.240218</ele>
        <time>2020-10-07T15:22:00.136Z</time>
      </trkpt>
      <trkpt lat="54.84247" lon="25.3713">
        <ele>105.840141</ele>
        <time>2020-10-07T15:22:08.395Z</time>
      </trkpt>
      <trkpt lat="54.84193" lon="25.37114">
        <ele>105.271261</ele>
        <time>2020-10-07T15:22:18.462Z</time>
      </trkpt>
      <trkpt lat="54.84189" lon="25.37112">
        <ele>105.228401</ele>
        <time>2020-10-07T15:22:19.187Z</time>
      </trkpt>
      <trkpt lat="54.84073" lon="25.37095">
        <ele>103.91537</ele>
        <time>2020-10-07T15:22:41.121Z</time>
      </trkpt>
      <trkpt lat="54.83956" lon="25.37084">
        <ele>103.384127</ele>
        <time>2020-10-07T15:23:05.591Z</time>
      </trkpt>
      <trkpt lat="54.83891" lon="25.37078">
        <ele>103.219733</ele>
        <time>2020-10-07T15:23:19.885Z</time>
      </trkpt>
      <trkpt lat="54.83838" lon="25.37074">
        <ele>103.254469</ele>
        <time>2020-10-07T15:23:31.676Z</time>
      </trkpt>
      <trkpt lat="54.83812" lon="25.37072">
        <ele>103.349345</ele>
        <time>2020-10-07T15:23:37.879Z</time>
      </trkpt>
      <trkpt lat="54.83752" lon="25.37068">
        <ele>103.559432</ele>
        <time>2020-10-07T15:23:52.151Z</time>
      </trkpt>
      <trkpt lat="54.83684" lon="25.37062">
        <ele>103.798735</ele>
        <time>2020-10-07T15:24:09.077Z</time>
      </trkpt>
      <trkpt lat="54.83657" lon="25.37057">
        <ele>103.887671</ele>
        <time>2020-10-07T15:24:15.451Z</time>
      </trkpt>
      <trkpt lat="54.83601" lon="25.37021">
        <ele>104.087323</ele>
        <time>2020-10-07T15:24:29.405Z</time>
      </trkpt>
      <trkpt lat="54.83539" lon="25.3698">
        <ele>104.309725</ele>
        <time>2020-10-07T15:24:45.308Z</time>
      </trkpt>
      <trkpt lat="54.83516" lon="25.36966">
        <ele>104.38981</ele>
        <time>2020-10-07T15:24:50.914Z</time>
      </trkpt>
      <trkpt lat="54.83483" lon="25.36945">
        <ele>104.30202</ele>
        <time>2020-10-07T15:24:59.241Z</time>
      </trkpt>
      <trkpt lat="54.83422" lon="25.36903">
        <ele>104.142225</ele>
        <time>2020-10-07T15:25:13.375Z</time>
      </trkpt>
      <trkpt lat="54.83404" lon="25.36892">
        <ele>104.094807</ele>
        <time>2020-10-07T15:25:17.365Z</time>
      </trkpt>
      <trkpt lat="54.8337" lon="25.3687">
        <ele>104.005391</ele>
        <time>2020-10-07T15:25:24.629Z</time>
      </trkpt>
      <trkpt lat="54.83315" lon="25.36837">
        <ele>103.881181</ele>
        <time>2020-10-07T15:25:36.391Z</time>
      </trkpt>
      <trkpt lat="54.83313" lon="25.36836">
        <ele>103.877623</ele>
        <time>2020-10-07T15:25:36.770Z</time>
      </trkpt>
      <trkpt lat="54.83285" lon="25.36817">
        <ele>103.819274</ele>
        <time>2020-10-07T15:25:42.971Z</time>
      </trkpt>
      <trkpt lat="54.83271" lon="25.36805">
        <ele>103.788079</ele>
        <time>2020-10-07T15:25:46.219Z</time>
      </trkpt>
      <trkpt lat="54.83237" lon="25.36765">
        <ele>103.708509</ele>
        <time>2020-10-07T15:25:54.754Z</time>
      </trkpt>
      <trkpt lat="54.83212" lon="25.36735">
        <ele>103.649201</ele>
        <time>2020-10-07T15:26:01.555Z</time>
      </trkpt>
      <trkpt lat="54.83165" lon="25.3668">
        <ele>103.852237</ele>
        <time>2020-10-07T15:26:15.521Z</time>
      </trkpt>
      <trkpt lat="54.83118" lon="25.36633">
        <ele>104.307877</ele>
        <time>2020-10-07T15:26:29.751Z</time>
      </trkpt>
      <trkpt lat="54.83089" lon="25.36614">
        <ele>104.561806</ele>
        <time>2020-10-07T15:26:38.007Z</time>
      </trkpt>
      <trkpt lat="54.83063" lon="25.36596">
        <ele>104.797314</ele>
        <time>2020-10-07T15:26:45.646Z</time>
      </trkpt>
      <trkpt lat="54.83029" lon="25.3657">
        <ele>105.096242</ele>
        <time>2020-10-07T15:26:55.207Z</time>
      </trkpt>
      <trkpt lat="54.83024" lon="25.36566">
        <ele>105.106181</ele>
        <time>2020-10-07T15:26:56.456Z</time>
      </trkpt>
      <trkpt lat="54.82974" lon="25.36509">
        <ele>105.228021</ele>
        <time>2020-10-07T15:27:11.390Z</time>
      </trkpt>
      <trkpt lat="54.82936" lon="25.3646">
        <ele>105.323932</ele>
        <time>2020-10-07T15:27:22.084Z</time>
      </trkpt>
      <trkpt lat="54.82931" lon="25.36454">
        <ele>105.336048</ele>
        <time>2020-10-07T15:27:23.183Z</time>
      </trkpt>
      <trkpt lat="54.82928" lon="25.36449">
        <ele>105.345402</ele>
        <time>2020-10-07T15:27:24.179Z</time>
      </trkpt>
      <trkpt lat="54.82913" lon="25.3643">
        <ele>105.382569</ele>
        <time>2020-10-07T15:27:28.078Z</time>
      </trkpt>
      <trkpt lat="54.8291" lon="25.36427">
        <ele>105.388791</ele>
        <time>2020-10-07T15:27:28.698Z</time>
      </trkpt>
      <trkpt lat="54.82892" lon="25.36404">
        <ele>105.435038</ele>
        <time>2020-10-07T15:27:33.289Z</time>
      </trkpt>
      <trkpt lat="54.82872" lon="25.3638">
        <ele>105.663885</ele>
        <time>2020-10-07T15:27:38.232Z</time>
      </trkpt>
      <trkpt lat="54.82854" lon="25.36357">
        <ele>106.010236</ele>
        <time>2020-10-07T15:27:43.175Z</time>
      </trkpt>
      <trkpt lat="54.82791" lon="25.3628">
        <ele>107.223128</ele>
        <time>2020-10-07T15:28:04.251Z</time>
      </trkpt>
      <trkpt lat="54.82768" lon="25.36247">
        <ele>107.681795</ele>
        <time>2020-10-07T15:28:13.843Z</time>
      </trkpt>
      <trkpt lat="54.8274" lon="25.36202">
        <ele>108.27612</ele>
        <time>2020-10-07T15:28:27.004Z</time>
      </trkpt>
      <trkpt lat="54.82721" lon="25.36168">
        <ele>109.22222</ele>
        <time>2020-10-07T15:28:37.101Z</time>
      </trkpt>
      <trkpt lat="54.82695" lon="25.36121">
        <ele>110.519464</ele>
        <time>2020-10-07T15:28:51.183Z</time>
      </trkpt>
      <trkpt lat="54.82628" lon="25.36007">
        <ele>113.741035</ele>
        <time>2020-10-07T15:29:27.405Z</time>
      </trkpt>
      <trkpt lat="54.82481" lon="25.35827">
        <ele>117.243294</ele>
        <time>2020-10-07T15:30:22.293Z</time>
      </trkpt>
      <trkpt lat="54.82408" lon="25.35735">
        <ele>117.171005</ele>
        <time>2020-10-07T15:30:41.107Z</time>
      </trkpt>
      <trkpt lat="54.8238" lon="25.35705">
        <ele>116.961656</ele>
        <time>2020-10-07T15:30:47.486Z</time>
      </trkpt>
      <trkpt lat="54.8236" lon="25.35693">
        <ele>116.829872</ele>
        <time>2020-10-07T15:30:51.362Z</time>
      </trkpt>
      <trkpt lat="54.82172" lon="25.35656">
        <ele>116.686145</ele>
        <time>2020-10-07T15:31:28.190Z</time>
      </trkpt>
      <trkpt lat="54.82149" lon="25.35641">
        <ele>116.723918</ele>
        <time>2020-10-07T15:31:35.467Z</time>
      </trkpt>
      <trkpt lat="54.82145" lon="25.35638">
        <ele>116.730373</ele>
        <time>2020-10-07T15:31:36.229Z</time>
      </trkpt>
      <trkpt lat="54.82131" lon="25.35625">
        <ele>116.755894</ele>
        <time>2020-10-07T15:31:42.410Z</time>
      </trkpt>
      <trkpt lat="54.82093" lon="25.35565">
        <ele>119.493972</ele>
        <time>2020-10-07T15:32:00.189Z</time>
      </trkpt>
      <trkpt lat="54.82033" lon="25.35396">
        <ele>125.866052</ele>
        <time>2020-10-07T15:32:56.306Z</time>
      </trkpt>
      <trkpt lat="54.82013" lon="25.35354">
        <ele>127.68453</ele>
        <time>2020-10-07T15:33:12.772Z</time>
      </trkpt>
      <trkpt lat="54.81993" lon="25.35315">
        <ele>129.556615</ele>
        <time>2020-10-07T15:33:28.900Z</time>
      </trkpt>
      <trkpt lat="54.81962" lon="25.35262">
        <ele>132.189137</ele>
        <time>2020-10-07T15:33:49.844Z</time>
      </trkpt>
      <trkpt lat="54.81939" lon="25.35228">
        <ele>134.095911</ele>
        <time>2020-10-07T15:34:04.860Z</time>
      </trkpt>
      <trkpt lat="54.81927" lon="25.35216">
        <ele>134.939031</ele>
        <time>2020-10-07T15:34:11.038Z</time>
      </trkpt>
      <trkpt lat="54.8192" lon="25.35214">
        <ele>135.374294</ele>
        <time>2020-10-07T15:34:14.224Z</time>
      </trkpt>
      <trkpt lat="54.8191" lon="25.35214">
        <ele>135.966159</ele>
        <time>2020-10-07T15:34:19.197Z</time>
      </trkpt>
      <trkpt lat="54.81788" lon="25.35242">
        <ele>140.236874</ele>
        <time>2020-10-07T15:35:05.756Z</time>
      </trkpt>
      <trkpt lat="54.81728" lon="25.35243">
        <ele>141.79205</ele>
        <time>2020-10-07T15:35:23.410Z</time>
      </trkpt>
      <trkpt lat="54.8169" lon="25.35233">
        <ele>142.318832</ele>
        <time>2020-10-07T15:35:33.183Z</time>
      </trkpt>
      <trkpt lat="54.81512" lon="25.35158">
        <ele>139.502603</ele>
        <time>2020-10-07T15:36:06.561Z</time>
      </trkpt>
      <trkpt lat="54.81457" lon="25.35141">
        <ele>137.573143</ele>
        <time>2020-10-07T15:36:15.405Z</time>
      </trkpt>
      <trkpt lat="54.81432" lon="25.35137">
        <ele>136.697119</ele>
        <time>2020-10-07T15:36:19.316Z</time>
      </trkpt>
      <trkpt lat="54.81247" lon="25.35144">
        <ele>130.802227</ele>
        <time>2020-10-07T15:36:48.555Z</time>
      </trkpt>
      <trkpt lat="54.81195" lon="25.35156">
        <ele>129.263262</ele>
        <time>2020-10-07T15:36:57.610Z</time>
      </trkpt>
      <trkpt lat="54.81144" lon="25.3517">
        <ele>128.193569</ele>
        <time>2020-10-07T15:37:07.174Z</time>
      </trkpt>
      <trkpt lat="54.80957" lon="25.35223">
        <ele>126.305647</ele>
        <time>2020-10-07T15:37:43.740Z</time>
      </trkpt>
      <trkpt lat="54.8091" lon="25.35236">
        <ele>126.066913</ele>
        <time>2020-10-07T15:37:53.689Z</time>
      </trkpt>
      <trkpt lat="54.80811" lon="25.35262">
        <ele>125.569199</ele>
        <time>2020-10-07T15:38:14.861Z</time>
      </trkpt>
      <trkpt lat="54.80755" lon="25.35276">
        <ele>125.225567</ele>
        <time>2020-10-07T15:38:26.679Z</time>
      </trkpt>
      <trkpt lat="54.80684" lon="25.35293">
        <ele>124.783747</ele>
        <time>2020-10-07T15:38:41.136Z</time>
      </trkpt>
      <trkpt lat="54.80664" lon="25.35295">
        <ele>124.659722</ele>
        <time>2020-10-07T15:38:45.058Z</time>
      </trkpt>
      <trkpt lat="54.80644" lon="25.35287">
        <ele>124.536298</ele>
        <time>2020-10-07T15:38:49.196Z</time>
      </trkpt>
      <trkpt lat="54.80598" lon="25.35256">
        <ele>124.78848</ele>
        <time>2020-10-07T15:38:58.835Z</time>
      </trkpt>
      <trkpt lat="54.80569" lon="25.35237">
        <ele>125.010503</ele>
        <time>2020-10-07T15:39:04.794Z</time>
      </trkpt>
      <trkpt lat="54.80436" lon="25.35146">
        <ele>127.182011</ele>
        <time>2020-10-07T15:39:46.149Z</time>
      </trkpt>
      <trkpt lat="54.80395" lon="25.35119">
        <ele>128.92663</ele>
        <time>2020-10-07T15:40:02.868Z</time>
      </trkpt>
      <trkpt lat="54.80364" lon="25.35098">
        <ele>130.238983</ele>
        <time>2020-10-07T15:40:16.218Z</time>
      </trkpt>
      <trkpt lat="54.80338" lon="25.3508">
        <ele>131.338934</ele>
        <time>2020-10-07T15:40:28.122Z</time>
      </trkpt>
      <trkpt lat="54.80269" lon="25.35009">
        <ele>134.483685</ele>
        <time>2020-10-07T15:41:03.587Z</time>
      </trkpt>
      <trkpt lat="54.80176" lon="25.34887">
        <ele>139.059777</ele>
        <time>2020-10-07T15:41:47.736Z</time>
      </trkpt>
      <trkpt lat="54.80173" lon="25.34855">
        <ele>139.789138</ele>
        <time>2020-10-07T15:41:53.661Z</time>
      </trkpt>
      <trkpt lat="54.80171" lon="25.34832">
        <ele>140.03308</ele>
        <time>2020-10-07T15:41:57.834Z</time>
      </trkpt>
      <trkpt lat="54.8017" lon="25.3482">
        <ele>140.109925</ele>
        <time>2020-10-07T15:42:00.007Z</time>
      </trkpt>
      <trkpt lat="54.80168" lon="25.34799">
        <ele>140.239625</ele>
        <time>2020-10-07T15:42:03.579Z</time>
      </trkpt>
      <trkpt lat="54.80166" lon="25.34781">
        <ele>140.355315</ele>
        <time>2020-10-07T15:42:06.738Z</time>
      </trkpt>
      <trkpt lat="54.80167" lon="25.3477">
        <ele>140.422945</ele>
        <time>2020-10-07T15:42:08.550Z</time>
      </trkpt>
      <trkpt lat="54.80166" lon="25.34758">
        <ele>140.499926</ele>
        <time>2020-10-07T15:42:10.583Z</time>
      </trkpt>
      <trkpt lat="54.80164" lon="25.34743">
        <ele>140.594107</ele>
        <time>2020-10-07T15:42:12.966Z</time>
      </trkpt>
      <trkpt lat="54.80159" lon="25.34728">
        <ele>140.701474</ele>
        <time>2020-10-07T15:42:15.675Z</time>
      </trkpt>
      <trkpt lat="54.80152" lon="25.34717">
        <ele>140.798215</ele>
        <time>2020-10-07T15:42:18.074Z</time>
      </trkpt>
      <trkpt lat="54.80119" lon="25.34673">
        <ele>141.25706</ele>
        <time>2020-10-07T15:42:28.698Z</time>
      </trkpt>
      <trkpt lat="54.80108" lon="25.3466">
        <ele>141.396366</ele>
        <time>2020-10-07T15:42:31.621Z</time>
      </trkpt>
      <trkpt lat="54.79879" lon="25.3436">
        <ele>141.866872</ele>
        <time>2020-10-07T15:43:35.479Z</time>
      </trkpt>
      <trkpt lat="54.79783" lon="25.34236">
        <ele>141.797074</ele>
        <time>2020-10-07T15:44:02.155Z</time>
      </trkpt>
      <trkpt lat="54.79773" lon="25.3423">
        <ele>141.761176</ele>
        <time>2020-10-07T15:44:04.367Z</time>
      </trkpt>
      <trkpt lat="54.79763" lon="25.34229">
        <ele>141.723241</ele>
        <time>2020-10-07T15:44:06.705Z</time>
      </trkpt>
      <trkpt lat="54.79725" lon="25.34241">
        <ele>141.586008</ele>
        <time>2020-10-07T15:44:15.010Z</time>
      </trkpt>
      <trkpt lat="54.79708" lon="25.34228">
        <ele>141.522529</ele>
        <time>2020-10-07T15:44:18.753Z</time>
      </trkpt>
      <trkpt lat="54.79651" lon="25.34106">
        <ele>141.198117</ele>
        <time>2020-10-07T15:44:37.735Z</time>
      </trkpt>
      <trkpt lat="54.79646" lon="25.34095">
        <ele>141.167485</ele>
        <time>2020-10-07T15:44:39.436Z</time>
      </trkpt>
      <trkpt lat="54.79595" lon="25.34003">
        <ele>140.838623</ele>
        <time>2020-10-07T15:44:53.724Z</time>
      </trkpt>
      <trkpt lat="54.79547" lon="25.33935">
        <ele>140.56139</ele>
        <time>2020-10-07T15:45:06.279Z</time>
      </trkpt>
      <trkpt lat="54.79519" lon="25.33921">
        <ele>140.428448</ele>
        <time>2020-10-07T15:45:12.649Z</time>
      </trkpt>
      <trkpt lat="54.79504" lon="25.33921">
        <ele>140.359707</ele>
        <time>2020-10-07T15:45:15.971Z</time>
      </trkpt>
      <trkpt lat="54.79466" lon="25.33932">
        <ele>140.950522</ele>
        <time>2020-10-07T15:45:24.921Z</time>
      </trkpt>
      <trkpt lat="54.79451" lon="25.33935">
        <ele>141.176863</ele>
        <time>2020-10-07T15:45:28.705Z</time>
      </trkpt>
      <trkpt lat="54.79444" lon="25.33933">
        <ele>141.285378</ele>
        <time>2020-10-07T15:45:30.389Z</time>
      </trkpt>
      <trkpt lat="54.79312" lon="25.33784">
        <ele>144.16497</ele>
        <time>2020-10-07T15:46:19.417Z</time>
      </trkpt>
      <trkpt lat="54.79235" lon="25.3374">
        <ele>146.348987</ele>
        <time>2020-10-07T15:46:48.831Z</time>
      </trkpt>
      <trkpt lat="54.79194" lon="25.33701">
        <ele>147.591323</ele>
        <time>2020-10-07T15:47:03.880Z</time>
      </trkpt>
      <trkpt lat="54.79177" lon="25.3368">
        <ele>148.033844</ele>
        <time>2020-10-07T15:47:09.713Z</time>
      </trkpt>
      <trkpt lat="54.79153" lon="25.33658">
        <ele>148.244401</ele>
        <time>2020-10-07T15:47:18.167Z</time>
      </trkpt>
      <trkpt lat="54.79123" lon="25.33662">
        <ele>148.471894</ele>
        <time>2020-10-07T15:47:26.784Z</time>
      </trkpt>
      <trkpt lat="54.79117" lon="25.33668">
        <ele>148.521035</ele>
        <time>2020-10-07T15:47:28.307Z</time>
      </trkpt>
      <trkpt lat="54.79116" lon="25.33669">
        <ele>148.533373</ele>
        <time>2020-10-07T15:47:28.542Z</time>
      </trkpt>
      <trkpt lat="54.79093" lon="25.33685">
        <ele>148.723889</ele>
        <time>2020-10-07T15:47:36.344Z</time>
      </trkpt>
      <trkpt lat="54.79055" lon="25.3372">
        <ele>149.048745</ele>
        <time>2020-10-07T15:47:46.604Z</time>
      </trkpt>
      <trkpt lat="54.79054" lon="25.33721">
        <ele>149.062233</ele>
        <time>2020-10-07T15:47:46.933Z</time>
      </trkpt>
      <trkpt lat="54.79021" lon="25.33749">
        <ele>149.340449</ele>
        <time>2020-10-07T15:47:54.013Z</time>
      </trkpt>
      <trkpt lat="54.78989" lon="25.33788">
        <ele>149.175435</ele>
        <time>2020-10-07T15:48:01.106Z</time>
      </trkpt>
      <trkpt lat="54.78985" lon="25.33792">
        <ele>149.153973</ele>
        <time>2020-10-07T15:48:02.264Z</time>
      </trkpt>
      <trkpt lat="54.78956" lon="25.33825">
        <ele>148.97883</ele>
        <time>2020-10-07T15:48:09.462Z</time>
      </trkpt>
      <trkpt lat="54.78865" lon="25.33828">
        <ele>148.525277</ele>
        <time>2020-10-07T15:48:42.100Z</time>
      </trkpt>
      <trkpt lat="54.78845" lon="25.33828">
        <ele>148.434306</ele>
        <time>2020-10-07T15:48:49.872Z</time>
      </trkpt>
      <trkpt lat="54.78815" lon="25.33828">
        <ele>148.322525</ele>
        <time>2020-10-07T15:49:00.455Z</time>
      </trkpt>
      <trkpt lat="54.78796" lon="25.33805">
        <ele>148.236043</ele>
        <time>2020-10-07T15:49:08.260Z</time>
      </trkpt>
      <trkpt lat="54.78771" lon="25.33788">
        <ele>148.137061</ele>
        <time>2020-10-07T15:49:17.714Z</time>
      </trkpt>
      <trkpt lat="54.78751" lon="25.33783">
        <ele>148.061384</ele>
        <time>2020-10-07T15:49:25.133Z</time>
      </trkpt>
      <trkpt lat="54.78734" lon="25.33755">
        <ele>147.972542</ele>
        <time>2020-10-07T15:49:33.676Z</time>
      </trkpt>
      <trkpt lat="54.78688" lon="25.3371">
        <ele>147.712642</ele>
        <time>2020-10-07T15:49:53.588Z</time>
      </trkpt>
      <trkpt lat="54.78645" lon="25.33671">
        <ele>146.821306</ele>
        <time>2020-10-07T15:50:09.793Z</time>
      </trkpt>
      <trkpt lat="54.78594" lon="25.33637">
        <ele>145.813573</ele>
        <time>2020-10-07T15:50:27.814Z</time>
      </trkpt>
      <trkpt lat="54.78567" lon="25.33625">
        <ele>145.300379</ele>
        <time>2020-10-07T15:50:36.724Z</time>
      </trkpt>
      <trkpt lat="54.78545" lon="25.33615">
        <ele>144.887775</ele>
        <time>2020-10-07T15:50:43.514Z</time>
      </trkpt>
      <trkpt lat="54.78505" lon="25.33621">
        <ele>143.551665</ele>
        <time>2020-10-07T15:50:55.293Z</time>
      </trkpt>
      <trkpt lat="54.78436" lon="25.33589">
        <ele>139.754712</ele>
        <time>2020-10-07T15:51:14.798Z</time>
      </trkpt>
      <trkpt lat="54.78399" lon="25.33561">
        <ele>137.633377</ele>
        <time>2020-10-07T15:51:25.150Z</time>
      </trkpt>
      <trkpt lat="54.78395" lon="25.33557">
        <ele>137.40005</ele>
        <time>2020-10-07T15:51:26.198Z</time>
      </trkpt>
      <trkpt lat="54.78378" lon="25.33543">
        <ele>136.387067</ele>
        <time>2020-10-07T15:51:31.597Z</time>
      </trkpt>
      <trkpt lat="54.78347" lon="25.33543">
        <ele>134.842569</ele>
        <time>2020-10-07T15:51:40.023Z</time>
      </trkpt>
      <trkpt lat="54.78348" lon="25.33532">
        <ele>134.680685</ele>
        <time>2020-10-07T15:51:40.920Z</time>
      </trkpt>
      <trkpt lat="54.78342" lon="25.33514">
        <ele>134.34919</ele>
        <time>2020-10-07T15:51:42.762Z</time>
      </trkpt>
      <trkpt lat="54.78339" lon="25.33514">
        <ele>134.271187</ele>
        <time>2020-10-07T15:51:43.136Z</time>
      </trkpt>
      <trkpt lat="54.78347" lon="25.33498">
        <ele>133.932926</ele>
        <time>2020-10-07T15:51:45.093Z</time>
      </trkpt>
      <trkpt lat="54.78353" lon="25.33485">
        <ele>133.682062</ele>
        <time>2020-10-07T15:51:46.577Z</time>
      </trkpt>
      <trkpt lat="54.78358" lon="25.33472">
        <ele>133.424909</ele>
        <time>2020-10-07T15:51:48.073Z</time>
      </trkpt>
      <trkpt lat="54.78361" lon="25.33462">
        <ele>133.249416</ele>
        <time>2020-10-07T15:51:48.938Z</time>
      </trkpt>
      <trkpt lat="54.78362" lon="25.33419">
        <ele>132.565929</ele>
        <time>2020-10-07T15:51:53.230Z</time>
      </trkpt>
      <trkpt lat="54.78359" lon="25.334">
        <ele>132.248038</ele>
        <time>2020-10-07T15:51:54.891Z</time>
      </trkpt>
      <trkpt lat="54.78357" lon="25.33392">
        <ele>132.111029</ele>
        <time>2020-10-07T15:51:55.817Z</time>
      </trkpt>
      <trkpt lat="54.78354" lon="25.33386">
        <ele>131.979104</ele>
        <time>2020-10-07T15:51:56.730Z</time>
      </trkpt>
      <trkpt lat="54.78342" lon="25.33373">
        <ele>131.592584</ele>
        <time>2020-10-07T15:52:01.707Z</time>
      </trkpt>
      <trkpt lat="54.78321" lon="25.33357">
        <ele>130.960943</ele>
        <time>2020-10-07T15:52:08.685Z</time>
      </trkpt>
      <trkpt lat="54.78315" lon="25.33346">
        <ele>130.714156</ele>
        <time>2020-10-07T15:52:11.948Z</time>
      </trkpt>
      <trkpt lat="54.78313" lon="25.33318">
        <ele>130.271419</ele>
        <time>2020-10-07T15:52:16.867Z</time>
      </trkpt>
      <trkpt lat="54.78352" lon="25.33224">
        <ele>131.191857</ele>
        <time>2020-10-07T15:52:47.443Z</time>
      </trkpt>
      <trkpt lat="54.78369" lon="25.33197">
        <ele>131.6884</ele>
        <time>2020-10-07T15:52:59.392Z</time>
      </trkpt>
      <trkpt lat="54.78435" lon="25.33142">
        <ele>133.264443</ele>
        <time>2020-10-07T15:53:37.096Z</time>
      </trkpt>
      <trkpt lat="54.78471" lon="25.33025">
        <ele>132.947112</ele>
        <time>2020-10-07T15:54:09.065Z</time>
      </trkpt>
      <trkpt lat="54.78472" lon="25.33019">
        <ele>132.874809</ele>
        <time>2020-10-07T15:54:11.093Z</time>
      </trkpt>
      <trkpt lat="54.78468" lon="25.32988">
        <ele>132.535631</ele>
        <time>2020-10-07T15:54:16.987Z</time>
      </trkpt>
      <trkpt lat="54.78459" lon="25.32827">
        <ele>130.819307</ele>
        <time>2020-10-07T15:54:33.056Z</time>
      </trkpt>
      <trkpt lat="54.78447" lon="25.32786">
        <ele>130.048391</ele>
        <time>2020-10-07T15:54:37.331Z</time>
      </trkpt>
      <trkpt lat="54.78439" lon="25.32775">
        <ele>129.621355</ele>
        <time>2020-10-07T15:54:38.914Z</time>
      </trkpt>
      <trkpt lat="54.78416" lon="25.32758">
        <ele>128.533404</ele>
        <time>2020-10-07T15:54:42.803Z</time>
      </trkpt>
      <trkpt lat="54.78369" lon="25.32736">
        <ele>126.431996</ele>
        <time>2020-10-07T15:54:50.143Z</time>
      </trkpt>
      <trkpt lat="54.78353" lon="25.32727">
        <ele>125.703712</ele>
        <time>2020-10-07T15:54:52.857Z</time>
      </trkpt>
      <trkpt lat="54.78317" lon="25.32707">
        <ele>124.079885</ele>
        <time>2020-10-07T15:54:59.178Z</time>
      </trkpt>
      <trkpt lat="54.78303" lon="25.32693">
        <ele>123.405402</ele>
        <time>2020-10-07T15:55:01.895Z</time>
      </trkpt>
      <trkpt lat="54.78284" lon="25.32662">
        <ele>123.253881</ele>
        <time>2020-10-07T15:55:06.859Z</time>
      </trkpt>
      <trkpt lat="54.78276" lon="25.32649">
        <ele>123.674695</ele>
        <time>2020-10-07T15:55:09.957Z</time>
      </trkpt>
      <trkpt lat="54.78274" lon="25.32642">
        <ele>123.838888</ele>
        <time>2020-10-07T15:55:10.819Z</time>
      </trkpt>
      <trkpt lat="54.78272" lon="25.32635">
        <ele>123.994408</ele>
        <time>2020-10-07T15:55:11.620Z</time>
      </trkpt>
      <trkpt lat="54.78271" lon="25.32618">
        <ele>124.361294</ele>
        <time>2020-10-07T15:55:14.178Z</time>
      </trkpt>
      <trkpt lat="54.78269" lon="25.32551">
        <ele>125.792808</ele>
        <time>2020-10-07T15:55:25.911Z</time>
      </trkpt>
      <trkpt lat="54.78273" lon="25.3254">
        <ele>126.058353</ele>
        <time>2020-10-07T15:55:30.156Z</time>
      </trkpt>
      <trkpt lat="54.78332" lon="25.32455">
        <ele>128.903306</ele>
        <time>2020-10-07T15:56:15.617Z</time>
      </trkpt>
      <trkpt lat="54.78339" lon="25.32421">
        <ele>130.073437</ele>
        <time>2020-10-07T15:56:31.216Z</time>
      </trkpt>
      <trkpt lat="54.78314" lon="25.32387">
        <ele>133.183415</ele>
        <time>2020-10-07T15:56:57.262Z</time>
      </trkpt>
      <trkpt lat="54.78276" lon="25.32337">
        <ele>137.768054</ele>
        <time>2020-10-07T15:57:35.515Z</time>
      </trkpt>
      <trkpt lat="54.78263" lon="25.32248">
        <ele>142.925586</ele>
        <time>2020-10-07T15:58:17.465Z</time>
      </trkpt>
      <trkpt lat="54.78249" lon="25.32167">
        <ele>147.369853</ele>
        <time>2020-10-07T15:58:54.014Z</time>
      </trkpt>
      <trkpt lat="54.7824" lon="25.32143">
        <ele>148.389242</ele>
        <time>2020-10-07T15:59:05.524Z</time>
      </trkpt>
      <trkpt lat="54.78223" lon="25.32139">
        <ele>149.528101</ele>
        <time>2020-10-07T15:59:18.037Z</time>
      </trkpt>
      <trkpt lat="54.782" lon="25.32147">
        <ele>151.004482</ele>
        <time>2020-10-07T15:59:34.179Z</time>
      </trkpt>
      <trkpt lat="54.7818" lon="25.32197">
        <ele>153.251939</ele>
        <time>2020-10-07T15:59:57.366Z</time>
      </trkpt>
      <trkpt lat="54.78125" lon="25.32199">
        <ele>156.80614</ele>
        <time>2020-10-07T16:00:28.993Z</time>
      </trkpt>
      <trkpt lat="54.78101" lon="25.32211">
        <ele>158.358902</ele>
        <time>2020-10-07T16:00:41.157Z</time>
      </trkpt>
      <trkpt lat="54.78067" lon="25.32241">
        <ele>159.389736</ele>
        <time>2020-10-07T16:00:59.527Z</time>
      </trkpt>
      <trkpt lat="54.78063" lon="25.32289">
        <ele>160.145278</ele>
        <time>2020-10-07T16:01:12.903Z</time>
      </trkpt>
      <trkpt lat="54.7804" lon="25.32324">
        <ele>160.95745</ele>
        <time>2020-10-07T16:01:27.126Z</time>
      </trkpt>
      <trkpt lat="54.78001" lon="25.32335">
        <ele>162.027486</ele>
        <time>2020-10-07T16:01:45.809Z</time>
      </trkpt>
      <trkpt lat="54.77909" lon="25.32258">
        <ele>164.312003</ele>
        <time>2020-10-07T16:02:33.299Z</time>
      </trkpt>
      <trkpt lat="54.77828" lon="25.3222">
        <ele>165.905117</ele>
        <time>2020-10-07T16:03:10.962Z</time>
      </trkpt>
      <trkpt lat="54.77761" lon="25.32205">
        <ele>166.74263</ele>
        <time>2020-10-07T16:03:39.489Z</time>
      </trkpt>
      <trkpt lat="54.77721" lon="25.32187">
        <ele>166.927423</ele>
        <time>2020-10-07T16:03:56.476Z</time>
      </trkpt>
      <trkpt lat="54.77602" lon="25.3206">
        <ele>166.907521</ele>
        <time>2020-10-07T16:04:48.676Z</time>
      </trkpt>
      <trkpt lat="54.7751" lon="25.32009">
        <ele>165.351693</ele>
        <time>2020-10-07T16:05:19.929Z</time>
      </trkpt>
      <trkpt lat="54.77437" lon="25.31952">
        <ele>163.524708</ele>
        <time>2020-10-07T16:05:44.209Z</time>
      </trkpt>
      <trkpt lat="54.77375" lon="25.31858">
        <ele>160.622089</ele>
        <time>2020-10-07T16:06:08.284Z</time>
      </trkpt>
      <trkpt lat="54.77321" lon="25.31763">
        <ele>157.825278</ele>
        <time>2020-10-07T16:06:30.360Z</time>
      </trkpt>
      <trkpt lat="54.77257" lon="25.31671">
        <ele>154.109113</ele>
        <time>2020-10-07T16:06:53.374Z</time>
      </trkpt>
      <trkpt lat="54.77182" lon="25.31596">
        <ele>150.226206</ele>
        <time>2020-10-07T16:07:17.409Z</time>
      </trkpt>
      <trkpt lat="54.77143" lon="25.3155">
        <ele>148.906193</ele>
        <time>2020-10-07T16:07:30.884Z</time>
      </trkpt>
      <trkpt lat="54.77087" lon="25.31486">
        <ele>147.101114</ele>
        <time>2020-10-07T16:07:51.030Z</time>
      </trkpt>
      <trkpt lat="54.77052" lon="25.31454">
        <ele>146.032338</ele>
        <time>2020-10-07T16:08:03.420Z</time>
      </trkpt>
      <trkpt lat="54.77021" lon="25.31426">
        <ele>145.281355</ele>
        <time>2020-10-07T16:08:14.681Z</time>
      </trkpt>
      <trkpt lat="54.76899" lon="25.31264">
        <ele>145.431839</ele>
        <time>2020-10-07T16:09:13.624Z</time>
      </trkpt>
      <trkpt lat="54.76847" lon="25.31179">
        <ele>145.897409</ele>
        <time>2020-10-07T16:09:42.635Z</time>
      </trkpt>
      <trkpt lat="54.76807" lon="25.31126">
        <ele>146.32874</ele>
        <time>2020-10-07T16:10:03.420Z</time>
      </trkpt>
      <trkpt lat="54.76757" lon="25.31059">
        <ele>146.866906</ele>
        <time>2020-10-07T16:10:29.375Z</time>
      </trkpt>
      <trkpt lat="54.76725" lon="25.31023">
        <ele>147.103379</ele>
        <time>2020-10-07T16:10:44.518Z</time>
      </trkpt>
      <trkpt lat="54.76677" lon="25.30943">
        <ele>147.416066</ele>
        <time>2020-10-07T16:11:10.898Z</time>
      </trkpt>
      <trkpt lat="54.76642" lon="25.3093">
        <ele>147.579506</ele>
        <time>2020-10-07T16:11:24.464Z</time>
      </trkpt>
      <trkpt lat="54.76619" lon="25.30922">
        <ele>147.691995</ele>
        <time>2020-10-07T16:11:33.592Z</time>
      </trkpt>
      <trkpt lat="54.76562" lon="25.3092">
        <ele>147.873489</ele>
        <time>2020-10-07T16:11:55.375Z</time>
      </trkpt>
      <trkpt lat="54.76387" lon="25.3097">
        <ele>148.051131</ele>
        <time>2020-10-07T16:13:02.202Z</time>
      </trkpt>
      <trkpt lat="54.76252" lon="25.30947">
        <ele>147.75612</ele>
        <time>2020-10-07T16:13:50.806Z</time>
      </trkpt>
      <trkpt lat="54.76241" lon="25.30945">
        <ele>147.731849</ele>
        <time>2020-10-07T16:13:53.931Z</time>
      </trkpt>
      <trkpt lat="54.76228" lon="25.30863">
        <ele>147.870328</ele>
        <time>2020-10-07T16:14:04.081Z</time>
      </trkpt>
      <trkpt lat="54.76208" lon="25.30778">
        <ele>148.080786</ele>
        <time>2020-10-07T16:14:16.130Z</time>
      </trkpt>
      <trkpt lat="54.76202" lon="25.30762">
        <ele>148.125013</ele>
        <time>2020-10-07T16:14:18.342Z</time>
      </trkpt>
      <trkpt lat="54.76194" lon="25.30746">
        <ele>148.173418</ele>
        <time>2020-10-07T16:14:21.399Z</time>
      </trkpt>
      <trkpt lat="54.76091" lon="25.30607">
        <ele>149.858551</ele>
        <time>2020-10-07T16:14:57.273Z</time>
      </trkpt>
      <trkpt lat="54.76071" lon="25.30588">
        <ele>150.362591</ele>
        <time>2020-10-07T16:15:05.229Z</time>
      </trkpt>
      <trkpt lat="54.76051" lon="25.3058">
        <ele>150.787807</ele>
        <time>2020-10-07T16:15:11.892Z</time>
      </trkpt>
      <trkpt lat="54.75946" lon="25.30573">
        <ele>152.743772</ele>
        <time>2020-10-07T16:15:46.680Z</time>
      </trkpt>
      <trkpt lat="54.75917" lon="25.3056">
        <ele>153.120509</ele>
        <time>2020-10-07T16:15:55.664Z</time>
      </trkpt>
      <trkpt lat="54.75886" lon="25.30536">
        <ele>153.547083</ele>
        <time>2020-10-07T16:16:05.136Z</time>
      </trkpt>
      <trkpt lat="54.75841" lon="25.30488">
        <ele>154.224923</ele>
        <time>2020-10-07T16:16:18.716Z</time>
      </trkpt>
      <trkpt lat="54.75728" lon="25.30367">
        <ele>154.015734</ele>
        <time>2020-10-07T16:16:46.400Z</time>
      </trkpt>
      <trkpt lat="54.75587" lon="25.30217">
        <ele>152.589504</ele>
        <time>2020-10-07T16:17:18.651Z</time>
      </trkpt>
      <trkpt lat="54.75534" lon="25.30157">
        <ele>151.870939</ele>
        <time>2020-10-07T16:17:30.858Z</time>
      </trkpt>
      <trkpt lat="54.75428" lon="25.30037">
        <ele>149.575341</ele>
        <time>2020-10-07T16:17:53.710Z</time>
      </trkpt>
      <trkpt lat="54.754" lon="25.29986">
        <ele>148.762388</ele>
        <time>2020-10-07T16:18:00.716Z</time>
      </trkpt>
      <trkpt lat="54.75322" lon="25.29788">
        <ele>145.640863</ele>
        <time>2020-10-07T16:18:24.164Z</time>
      </trkpt>
      <trkpt lat="54.75267" lon="25.29675">
        <ele>143.677321</ele>
        <time>2020-10-07T16:18:39.019Z</time>
      </trkpt>
      <trkpt lat="54.75246" lon="25.29643">
        <ele>143.398988</ele>
        <time>2020-10-07T16:18:43.882Z</time>
      </trkpt>
      <trkpt lat="54.7523" lon="25.2962">
        <ele>143.187187</ele>
        <time>2020-10-07T16:18:47.690Z</time>
      </trkpt>
      <trkpt lat="54.75216" lon="25.296">
        <ele>143.009297</ele>
        <time>2020-10-07T16:18:50.909Z</time>
      </trkpt>
      <trkpt lat="54.75198" lon="25.29568">
        <ele>142.743306</ele>
        <time>2020-10-07T16:18:55.898Z</time>
      </trkpt>
      <trkpt lat="54.7519" lon="25.2955">
        <ele>142.612736</ele>
        <time>2020-10-07T16:18:58.429Z</time>
      </trkpt>
      <trkpt lat="54.75185" lon="25.2956">
        <ele>142.533204</ele>
        <time>2020-10-07T16:18:59.988Z</time>
      </trkpt>
      <trkpt lat="54.75178" lon="25.29557">
        <ele>142.459658</ele>
        <time>2020-10-07T16:19:01.467Z</time>
      </trkpt>
      <trkpt lat="54.75168" lon="25.29553">
        <ele>142.360645</ele>
        <time>2020-10-07T16:19:03.574Z</time>
      </trkpt>
      <trkpt lat="54.75155" lon="25.29547">
        <ele>142.225869</ele>
        <time>2020-10-07T16:19:06.423Z</time>
      </trkpt>
      <trkpt lat="54.75139" lon="25.29541">
        <ele>142.052568</ele>
        <time>2020-10-07T16:19:10.131Z</time>
      </trkpt>
      <trkpt lat="54.75073" lon="25.2948">
        <ele>142.266877</ele>
        <time>2020-10-07T16:19:29.372Z</time>
      </trkpt>
      <trkpt lat="54.75068" lon="25.29475">
        <ele>142.301397</ele>
        <time>2020-10-07T16:19:30.988Z</time>
      </trkpt>
      <trkpt lat="54.75016" lon="25.29427">
        <ele>142.646036</ele>
        <time>2020-10-07T16:19:47.459Z</time>
      </trkpt>
      <trkpt lat="54.75006" lon="25.29402">
        <ele>142.749967</ele>
        <time>2020-10-07T16:19:51.496Z</time>
      </trkpt>
      <trkpt lat="54.75006" lon="25.29396">
        <ele>142.769719</ele>
        <time>2020-10-07T16:19:52.750Z</time>
      </trkpt>
      <trkpt lat="54.7501" lon="25.29385">
        <ele>142.811317</ele>
        <time>2020-10-07T16:19:55.140Z</time>
      </trkpt>
      <trkpt lat="54.75038" lon="25.29348">
        <ele>142.761303</ele>
        <time>2020-10-07T16:20:04.117Z</time>
      </trkpt>
      <trkpt lat="54.75042" lon="25.29304">
        <ele>142.196361</ele>
        <time>2020-10-07T16:20:09.282Z</time>
      </trkpt>
      <trkpt lat="54.75037" lon="25.29281">
        <ele>141.87807</ele>
        <time>2020-10-07T16:20:13.291Z</time>
      </trkpt>
      <trkpt lat="54.75032" lon="25.29252">
        <ele>141.495536</ele>
        <time>2020-10-07T16:20:16.395Z</time>
      </trkpt>
      <trkpt lat="54.74998" lon="25.29158">
        <ele>140.066367</ele>
        <time>2020-10-07T16:20:28.397Z</time>
      </trkpt>
      <trkpt lat="54.74982" lon="25.29123">
        <ele>139.490172</ele>
        <time>2020-10-07T16:20:32.813Z</time>
      </trkpt>
      <trkpt lat="54.74967" lon="25.29105">
        <ele>139.088079</ele>
        <time>2020-10-07T16:20:35.718Z</time>
      </trkpt>
      <trkpt lat="54.74866" lon="25.2903">
        <ele>131.095811</ele>
        <time>2020-10-07T16:20:52.423Z</time>
      </trkpt>
      <trkpt lat="54.74835" lon="25.29">
        <ele>128.407341</ele>
        <time>2020-10-07T16:20:57.552Z</time>
      </trkpt>
      <trkpt lat="54.74806" lon="25.28993">
        <ele>126.211752</ele>
        <time>2020-10-07T16:21:01.694Z</time>
      </trkpt>
      <trkpt lat="54.74792" lon="25.28996">
        <ele>125.116135</ele>
        <time>2020-10-07T16:21:03.675Z</time>
      </trkpt>
      <trkpt lat="54.74776" lon="25.28994">
        <ele>123.41624</ele>
        <time>2020-10-07T16:21:05.974Z</time>
      </trkpt>
      <trkpt lat="54.74761" lon="25.28997">
        <ele>121.802323</ele>
        <time>2020-10-07T16:21:08.244Z</time>
      </trkpt>
      <trkpt lat="54.74751" lon="25.28998">
        <ele>120.73942</ele>
        <time>2020-10-07T16:21:09.719Z</time>
      </trkpt>
      <trkpt lat="54.74744" lon="25.28995">
        <ele>120.000301</ele>
        <time>2020-10-07T16:21:10.705Z</time>
      </trkpt>
      <trkpt lat="54.74739" lon="25.28991">
        <ele>119.39896</ele>
        <time>2020-10-07T16:21:11.497Z</time>
      </trkpt>
      <trkpt lat="54.74733" lon="25.28986">
        <ele>118.732643</ele>
        <time>2020-10-07T16:21:12.439Z</time>
      </trkpt>
      <trkpt lat="54.74725" lon="25.28977">
        <ele>117.753541</ele>
        <time>2020-10-07T16:21:13.766Z</time>
      </trkpt>
      <trkpt lat="54.74691" lon="25.29016">
        <ele>113.520734</ele>
        <time>2020-10-07T16:21:23.558Z</time>
      </trkpt>
      <trkpt lat="54.74627" lon="25.29057">
        <ele>106.546126</ele>
        <time>2020-10-07T16:21:40.044Z</time>
      </trkpt>
      <trkpt lat="54.7461" lon="25.2908">
        <ele>105.485742</ele>
        <time>2020-10-07T16:21:45.505Z</time>
      </trkpt>
      <trkpt lat="54.746" lon="25.29093">
        <ele>104.892817</ele>
        <time>2020-10-07T16:21:48.540Z</time>
      </trkpt>
      <trkpt lat="54.74586" lon="25.29139">
        <ele>103.452175</ele>
        <time>2020-10-07T16:21:56.407Z</time>
      </trkpt>
      <trkpt lat="54.74583" lon="25.29144">
        <ele>103.241869</ele>
        <time>2020-10-07T16:21:57.278Z</time>
      </trkpt>
      <trkpt lat="54.74574" lon="25.29158">
        <ele>102.631258</ele>
        <time>2020-10-07T16:21:59.835Z</time>
      </trkpt>
      <trkpt lat="54.74567" lon="25.29148">
        <ele>102.195848</ele>
        <time>2020-10-07T16:22:01.214Z</time>
      </trkpt>
      <trkpt lat="54.74556" lon="25.29133">
        <ele>101.497214</ele>
        <time>2020-10-07T16:22:03.522Z</time>
      </trkpt>
      <trkpt lat="54.74548" lon="25.29126">
        <ele>101.074471</ele>
        <time>2020-10-07T16:22:04.872Z</time>
      </trkpt>
      <trkpt lat="54.74524" lon="25.29101">
        <ele>99.679788</ele>
        <time>2020-10-07T16:22:09.714Z</time>
      </trkpt>
      <trkpt lat="54.74516" lon="25.29094">
        <ele>99.255352</ele>
        <time>2020-10-07T16:22:11.166Z</time>
      </trkpt>
      <trkpt lat="54.74499" lon="25.29081">
        <ele>98.355966</ele>
        <time>2020-10-07T16:22:14.538Z</time>
      </trkpt>
      <trkpt lat="54.74485" lon="25.29073">
        <ele>98.047521</ele>
        <time>2020-10-07T16:22:17.109Z</time>
      </trkpt>
      <trkpt lat="54.7443" lon="25.29045">
        <ele>99.46032</ele>
        <time>2020-10-07T16:22:33.259Z</time>
      </trkpt>
      <trkpt lat="54.74399" lon="25.29028">
        <ele>100.271029</ele>
        <time>2020-10-07T16:22:45.633Z</time>
      </trkpt>
      <trkpt lat="54.74316" lon="25.29021">
        <ele>102.334772</ele>
        <time>2020-10-07T16:23:17.261Z</time>
      </trkpt>
      <trkpt lat="54.74266" lon="25.29023">
        <ele>103.536232</ele>
        <time>2020-10-07T16:23:35.943Z</time>
      </trkpt>
      <trkpt lat="54.742" lon="25.29025">
        <ele>105.149411</ele>
        <time>2020-10-07T16:23:57.764Z</time>
      </trkpt>
      <trkpt lat="54.74167" lon="25.29021">
        <ele>105.957032</ele>
        <time>2020-10-07T16:24:07.877Z</time>
      </trkpt>
      <trkpt lat="54.74147" lon="25.29017">
        <ele>106.442188</ele>
        <time>2020-10-07T16:24:13.521Z</time>
      </trkpt>
      <trkpt lat="54.74134" lon="25.29014">
        <ele>106.705493</ele>
        <time>2020-10-07T16:24:17.164Z</time>
      </trkpt>
      <trkpt lat="54.74097" lon="25.2899">
        <ele>106.241846</ele>
        <time>2020-10-07T16:24:25.723Z</time>
      </trkpt>
      <trkpt lat="54.74071" lon="25.28987">
        <ele>105.941878</ele>
        <time>2020-10-07T16:24:30.700Z</time>
      </trkpt>
      <trkpt lat="54.74003" lon="25.28987">
        <ele>105.137005</ele>
        <time>2020-10-07T16:24:43.332Z</time>
      </trkpt>
      <trkpt lat="54.73934" lon="25.28992">
        <ele>103.827484</ele>
        <time>2020-10-07T16:24:55.042Z</time>
      </trkpt>
      <trkpt lat="54.73812" lon="25.29006">
        <ele>99.850615</ele>
        <time>2020-10-07T16:25:14.653Z</time>
      </trkpt>
      <trkpt lat="54.73753" lon="25.28999">
        <ele>98.081551</ele>
        <time>2020-10-07T16:25:24.240Z</time>
      </trkpt>
      <trkpt lat="54.73699" lon="25.29034">
        <ele>96.602299</ele>
        <time>2020-10-07T16:25:33.607Z</time>
      </trkpt>
      <trkpt lat="54.73682" lon="25.29038">
        <ele>96.140135</ele>
        <time>2020-10-07T16:25:36.659Z</time>
      </trkpt>
      <trkpt lat="54.73659" lon="25.29042">
        <ele>95.558944</ele>
        <time>2020-10-07T16:25:40.407Z</time>
      </trkpt>
      <trkpt lat="54.73644" lon="25.29044">
        <ele>95.161584</ele>
        <time>2020-10-07T16:25:43.121Z</time>
      </trkpt>
      <trkpt lat="54.73609" lon="25.29046">
        <ele>94.239944</ele>
        <time>2020-10-07T16:25:49.347Z</time>
      </trkpt>
      <trkpt lat="54.73599" lon="25.29047">
        <ele>94.051396</ele>
        <time>2020-10-07T16:25:50.998Z</time>
      </trkpt>
      <trkpt lat="54.7346" lon="25.29057">
        <ele>92.809722</ele>
        <time>2020-10-07T16:26:17.872Z</time>
      </trkpt>
      <trkpt lat="54.73361" lon="25.29042">
        <ele>93.123879</ele>
        <time>2020-10-07T16:26:40.609Z</time>
      </trkpt>
      <trkpt lat="54.73318" lon="25.29045">
        <ele>93.564505</ele>
        <time>2020-10-07T16:26:51.295Z</time>
      </trkpt>
      <trkpt lat="54.73227" lon="25.29078">
        <ele>94.861843</ele>
        <time>2020-10-07T16:27:19.417Z</time>
      </trkpt>
      <trkpt lat="54.73168" lon="25.29132">
        <ele>96.718777</ele>
        <time>2020-10-07T16:27:40.837Z</time>
      </trkpt>
      <trkpt lat="54.73161" lon="25.29138">
        <ele>96.91907</ele>
        <time>2020-10-07T16:27:43.716Z</time>
      </trkpt>
      <trkpt lat="54.73161" lon="25.29131">
        <ele>97.035743</ele>
        <time>2020-10-07T16:27:45.128Z</time>
      </trkpt>
      <trkpt lat="54.73141" lon="25.29152">
        <ele>97.695354</ele>
        <time>2020-10-07T16:27:56.082Z</time>
      </trkpt>
      <trkpt lat="54.7311" lon="25.2918">
        <ele>98.671583</ele>
        <time>2020-10-07T16:28:13.119Z</time>
      </trkpt>
      <trkpt lat="54.72977" lon="25.29273">
        <ele>104.032967</ele>
        <time>2020-10-07T16:29:28.312Z</time>
      </trkpt>
      <trkpt lat="54.72916" lon="25.2932">
        <ele>106.682678</ele>
        <time>2020-10-07T16:30:04.450Z</time>
      </trkpt>
      <trkpt lat="54.72918" lon="25.29328">
        <ele>106.859731</ele>
        <time>2020-10-07T16:30:07.870Z</time>
      </trkpt>
      <trkpt lat="54.7292" lon="25.29335">
        <ele>107.040354</ele>
        <time>2020-10-07T16:30:10.240Z</time>
      </trkpt>
      <trkpt lat="54.72918" lon="25.29348">
        <ele>107.338176</ele>
        <time>2020-10-07T16:30:14.009Z</time>
      </trkpt>
      <trkpt lat="54.72924" lon="25.29411">
        <ele>108.720736</ele>
        <time>2020-10-07T16:30:34.372Z</time>
      </trkpt>
      <trkpt lat="54.72926" lon="25.29452">
        <ele>109.612058</ele>
        <time>2020-10-07T16:30:48.540Z</time>
      </trkpt>
      <trkpt lat="54.72923" lon="25.29552">
        <ele>111.768987</ele>
        <time>2020-10-07T16:31:19.459Z</time>
      </trkpt>
      <trkpt lat="54.7294" lon="25.29814">
        <ele>113.38459</ele>
        <time>2020-10-07T16:32:25.820Z</time>
      </trkpt>
      <trkpt lat="54.72946" lon="25.29906">
        <ele>113.463486</ele>
        <time>2020-10-07T16:32:43.327Z</time>
      </trkpt>
      <trkpt lat="54.72947" lon="25.29919">
        <ele>113.474269</ele>
        <time>2020-10-07T16:32:45.334Z</time>
      </trkpt>
      <trkpt lat="54.72949" lon="25.3017">
        <ele>108.695634</ele>
        <time>2020-10-07T16:33:27.665Z</time>
      </trkpt>
      <trkpt lat="54.72942" lon="25.30258">
        <ele>106.965511</ele>
        <time>2020-10-07T16:33:42.567Z</time>
      </trkpt>
      <trkpt lat="54.7293" lon="25.30313">
        <ele>105.866108</ele>
        <time>2020-10-07T16:33:52.173Z</time>
      </trkpt>
      <trkpt lat="54.72878" lon="25.30463">
        <ele>102.547741</ele>
        <time>2020-10-07T16:34:21.897Z</time>
      </trkpt>
      <trkpt lat="54.72871" lon="25.30488">
        <ele>102.016679</ele>
        <time>2020-10-07T16:34:26.801Z</time>
      </trkpt>
      <trkpt lat="54.72864" lon="25.30518">
        <ele>101.423143</ele>
        <time>2020-10-07T16:34:32.459Z</time>
      </trkpt>
      <trkpt lat="54.72847" lon="25.30586">
        <ele>100.503337</ele>
        <time>2020-10-07T16:34:45.729Z</time>
      </trkpt>
      <trkpt lat="54.72841" lon="25.30617">
        <ele>100.103807</ele>
        <time>2020-10-07T16:34:51.446Z</time>
      </trkpt>
      <trkpt lat="54.72835" lon="25.30649">
        <ele>99.676857</ele>
        <time>2020-10-07T16:34:57.673Z</time>
      </trkpt>
      <trkpt lat="54.72832" lon="25.3066">
        <ele>99.535697</ele>
        <time>2020-10-07T16:34:59.684Z</time>
      </trkpt>
      <trkpt lat="54.72814" lon="25.30726">
        <ele>98.632674</ele>
        <time>2020-10-07T16:35:12.612Z</time>
      </trkpt>
      <trkpt lat="54.72794" lon="25.30784">
        <ele>97.788411</ele>
        <time>2020-10-07T16:35:25.240Z</time>
      </trkpt>
      <trkpt lat="54.7278" lon="25.30813">
        <ele>97.457397</ele>
        <time>2020-10-07T16:35:32.525Z</time>
      </trkpt>
      <trkpt lat="54.72754" lon="25.30861">
        <ele>97.064847</ele>
        <time>2020-10-07T16:35:45.448Z</time>
      </trkpt>
      <trkpt lat="54.72745" lon="25.30879">
        <ele>96.922417</ele>
        <time>2020-10-07T16:35:50.148Z</time>
      </trkpt>
      <trkpt lat="54.72735" lon="25.30891">
        <ele>96.798279</ele>
        <time>2020-10-07T16:35:54.262Z</time>
      </trkpt>
      <trkpt lat="54.72649" lon="25.30992">
        <ele>95.719208</ele>
        <time>2020-10-07T16:36:29.707Z</time>
      </trkpt>
      <trkpt lat="54.72635" lon="25.31008">
        <ele>95.557276</ele>
        <time>2020-10-07T16:36:35.378Z</time>
      </trkpt>
      <trkpt lat="54.72594" lon="25.31055">
        <ele>95.071684</ele>
        <time>2020-10-07T16:36:52.162Z</time>
      </trkpt>
      <trkpt lat="54.72586" lon="25.31063">
        <ele>94.984872</ele>
        <time>2020-10-07T16:36:55.179Z</time>
      </trkpt>
      <trkpt lat="54.72585" lon="25.31065">
        <ele>94.971853</ele>
        <time>2020-10-07T16:36:55.603Z</time>
      </trkpt>
      <trkpt lat="54.72546" lon="25.3111">
        <ele>94.515996</ele>
        <time>2020-10-07T16:37:11.524Z</time>
      </trkpt>
      <trkpt lat="54.72517" lon="25.31133">
        <ele>94.201071</ele>
        <time>2020-10-07T16:37:22.441Z</time>
      </trkpt>
      <trkpt lat="54.72467" lon="25.31142">
        <ele>93.938247</ele>
        <time>2020-10-07T16:37:39.300Z</time>
      </trkpt>
      <trkpt lat="54.72415" lon="25.3113">
        <ele>93.884597</ele>
        <time>2020-10-07T16:37:57.319Z</time>
      </trkpt>
      <trkpt lat="54.72361" lon="25.31096">
        <ele>93.826348</ele>
        <time>2020-10-07T16:38:18.765Z</time>
      </trkpt>
      <trkpt lat="54.72348" lon="25.31087">
        <ele>93.812459</ele>
        <time>2020-10-07T16:38:24.069Z</time>
      </trkpt>
      <trkpt lat="54.72329" lon="25.31073">
        <ele>93.792001</ele>
        <time>2020-10-07T16:38:29.273Z</time>
      </trkpt>
      <trkpt lat="54.72256" lon="25.31018">
        <ele>95.114961</ele>
        <time>2020-10-07T16:38:51.736Z</time>
      </trkpt>
      <trkpt lat="54.72177" lon="25.30969">
        <ele>96.707598</ele>
        <time>2020-10-07T16:39:18.726Z</time>
      </trkpt>
      <trkpt lat="54.72074" lon="25.30945">
        <ele>97.986917</ele>
        <time>2020-10-07T16:39:50.784Z</time>
      </trkpt>
      <trkpt lat="54.72012" lon="25.30949">
        <ele>98.610146</ele>
        <time>2020-10-07T16:40:06.612Z</time>
      </trkpt>
      <trkpt lat="54.71966" lon="25.30963">
        <ele>98.917154</ele>
        <time>2020-10-07T16:40:16.962Z</time>
      </trkpt>
      <trkpt lat="54.71783" lon="25.31072">
        <ele>96.092676</ele>
        <time>2020-10-07T16:40:51.799Z</time>
      </trkpt>
      <trkpt lat="54.71737" lon="25.31095">
        <ele>95.363039</ele>
        <time>2020-10-07T16:41:00.251Z</time>
      </trkpt>
      <trkpt lat="54.7167" lon="25.31114">
        <ele>94.332926</ele>
        <time>2020-10-07T16:41:12.583Z</time>
      </trkpt>
      <trkpt lat="54.71588" lon="25.31112">
        <ele>93.561175</ele>
        <time>2020-10-07T16:41:28.421Z</time>
      </trkpt>
      <trkpt lat="54.71493" lon="25.31093">
        <ele>93.28926</ele>
        <time>2020-10-07T16:41:48.987Z</time>
      </trkpt>
      <trkpt lat="54.71427" lon="25.31071">
        <ele>93.19512</ele>
        <time>2020-10-07T16:42:04.908Z</time>
      </trkpt>
      <trkpt lat="54.71322" lon="25.3102">
        <ele>93.367954</ele>
        <time>2020-10-07T16:42:30.059Z</time>
      </trkpt>
      <trkpt lat="54.71291" lon="25.31004">
        <ele>93.419575</ele>
        <time>2020-10-07T16:42:37.400Z</time>
      </trkpt>
      <trkpt lat="54.71217" lon="25.30965">
        <ele>93.433372</ele>
        <time>2020-10-07T16:42:54.411Z</time>
      </trkpt>
      <trkpt lat="54.71125" lon="25.30957">
        <ele>93.412764</ele>
        <time>2020-10-07T16:43:14.543Z</time>
      </trkpt>
      <trkpt lat="54.71064" lon="25.30938">
        <ele>93.586684</ele>
        <time>2020-10-07T16:43:28.691Z</time>
      </trkpt>
      <trkpt lat="54.71032" lon="25.30907">
        <ele>93.776344</ele>
        <time>2020-10-07T16:43:37.615Z</time>
      </trkpt>
      <trkpt lat="54.70991" lon="25.30802">
        <ele>94.152618</ele>
        <time>2020-10-07T16:43:56.018Z</time>
      </trkpt>
      <trkpt lat="54.70979" lon="25.30783">
        <ele>94.236431</ele>
        <time>2020-10-07T16:44:00.236Z</time>
      </trkpt>
      <trkpt lat="54.70829" lon="25.30671">
        <ele>94.939203</ele>
        <time>2020-10-07T16:44:40.025Z</time>
      </trkpt>
      <trkpt lat="54.70673" lon="25.30587">
        <ele>95.35061</ele>
        <time>2020-10-07T16:45:17.034Z</time>
      </trkpt>
      <trkpt lat="54.70666" lon="25.30586">
        <ele>95.364453</ele>
        <time>2020-10-07T16:45:18.627Z</time>
      </trkpt>
      <trkpt lat="54.70655" lon="25.30585">
        <ele>95.386696</ele>
        <time>2020-10-07T16:45:21.136Z</time>
      </trkpt>
      <trkpt lat="54.70609" lon="25.30576">
        <ele>95.480019</ele>
        <time>2020-10-07T16:45:32.328Z</time>
      </trkpt>
      <trkpt lat="54.70574" lon="25.30568">
        <ele>95.549618</ele>
        <time>2020-10-07T16:45:40.954Z</time>
      </trkpt>
      <trkpt lat="54.70556" lon="25.30563">
        <ele>95.583477</ele>
        <time>2020-10-07T16:45:44.940Z</time>
      </trkpt>
      <trkpt lat="54.70521" lon="25.30534">
        <ele>95.659121</ele>
        <time>2020-10-07T16:45:53.990Z</time>
      </trkpt>
      <trkpt lat="54.70489" lon="25.30519">
        <ele>95.723442</ele>
        <time>2020-10-07T16:46:01.611Z</time>
      </trkpt>
      <trkpt lat="54.70472" lon="25.30515">
        <ele>95.757208</ele>
        <time>2020-10-07T16:46:05.686Z</time>
      </trkpt>
      <trkpt lat="54.70457" lon="25.30513">
        <ele>95.785335</ele>
        <time>2020-10-07T16:46:08.906Z</time>
      </trkpt>
      <trkpt lat="54.70399" lon="25.3051">
        <ele>95.62218</ele>
        <time>2020-10-07T16:46:21.520Z</time>
      </trkpt>
      <trkpt lat="54.70203" lon="25.30486">
        <ele>94.884587</ele>
        <time>2020-10-07T16:47:01.775Z</time>
      </trkpt>
      <trkpt lat="54.70096" lon="25.30443">
        <ele>94.46026</ele>
        <time>2020-10-07T16:47:25.190Z</time>
      </trkpt>
      <trkpt lat="54.70058" lon="25.30438">
        <ele>94.289455</ele>
        <time>2020-10-07T16:47:33.295Z</time>
      </trkpt>
      <trkpt lat="54.70024" lon="25.30426">
        <ele>94.132102</ele>
        <time>2020-10-07T16:47:40.433Z</time>
      </trkpt>
      <trkpt lat="54.69924" lon="25.30393">
        <ele>93.673136</ele>
        <time>2020-10-07T16:48:01.024Z</time>
      </trkpt>
      <trkpt lat="54.69919" lon="25.30391">
        <ele>93.647586</ele>
        <time>2020-10-07T16:48:02.285Z</time>
      </trkpt>
      <trkpt lat="54.69914" lon="25.30391">
        <ele>93.627803</ele>
        <time>2020-10-07T16:48:03.125Z</time>
      </trkpt>
      <trkpt lat="54.6991" lon="25.30395">
        <ele>93.63135</ele>
        <time>2020-10-07T16:48:04.112Z</time>
      </trkpt>
      <trkpt lat="54.69889" lon="25.3039">
        <ele>93.646191</ele>
        <time>2020-10-07T16:48:08.564Z</time>
      </trkpt>
      <trkpt lat="54.69859" lon="25.30395">
        <ele>93.668298</ele>
        <time>2020-10-07T16:48:15.197Z</time>
      </trkpt>
      <trkpt lat="54.69832" lon="25.30396">
        <ele>93.687844</ele>
        <time>2020-10-07T16:48:21.236Z</time>
      </trkpt>
      <trkpt lat="54.69821" lon="25.30394">
        <ele>93.696264</ele>
        <time>2020-10-07T16:48:23.862Z</time>
      </trkpt>
      <trkpt lat="54.69811" lon="25.30391">
        <ele>93.70335</ele>
        <time>2020-10-07T16:48:26.242Z</time>
      </trkpt>
      <trkpt lat="54.69774" lon="25.30369">
        <ele>93.732196</ele>
        <time>2020-10-07T16:48:35.384Z</time>
      </trkpt>
      <trkpt lat="54.69763" lon="25.30359">
        <ele>93.741264</ele>
        <time>2020-10-07T16:48:38.297Z</time>
      </trkpt>
      <trkpt lat="54.6974" lon="25.30337">
        <ele>93.762966</ele>
        <time>2020-10-07T16:48:44.806Z</time>
      </trkpt>
      <trkpt lat="54.69597" lon="25.30197">
        <ele>94.106949</ele>
        <time>2020-10-07T16:49:23.219Z</time>
      </trkpt>
      <trkpt lat="54.69581" lon="25.30181">
        <ele>94.122152</ele>
        <time>2020-10-07T16:49:27.114Z</time>
      </trkpt>
      <trkpt lat="54.69559" lon="25.3016">
        <ele>94.05469</ele>
        <time>2020-10-07T16:49:32.423Z</time>
      </trkpt>
      <trkpt lat="54.69524" lon="25.30128">
        <ele>93.949255</ele>
        <time>2020-10-07T16:49:40.889Z</time>
      </trkpt>
      <trkpt lat="54.69506" lon="25.30117">
        <ele>93.897523</ele>
        <time>2020-10-07T16:49:45.240Z</time>
      </trkpt>
      <trkpt lat="54.6948" lon="25.30085">
        <ele>93.811577</ele>
        <time>2020-10-07T16:49:52.222Z</time>
      </trkpt>
      <trkpt lat="54.69462" lon="25.30063">
        <ele>93.752812</ele>
        <time>2020-10-07T16:49:56.812Z</time>
      </trkpt>
      <trkpt lat="54.69433" lon="25.30021">
        <ele>93.64901</ele>
        <time>2020-10-07T16:50:05.059Z</time>
      </trkpt>
      <trkpt lat="54.69421" lon="25.30002">
        <ele>93.581058</ele>
        <time>2020-10-07T16:50:08.778Z</time>
      </trkpt>
      <trkpt lat="54.69384" lon="25.29944">
        <ele>93.370819</ele>
        <time>2020-10-07T16:50:19.545Z</time>
      </trkpt>
      <trkpt lat="54.69345" lon="25.29876">
        <ele>93.139378</ele>
        <time>2020-10-07T16:50:31.898Z</time>
      </trkpt>
      <trkpt lat="54.69329" lon="25.2984">
        <ele>93.027904</ele>
        <time>2020-10-07T16:50:37.667Z</time>
      </trkpt>
      <trkpt lat="54.69302" lon="25.2978">
        <ele>92.884125</ele>
        <time>2020-10-07T16:50:46.831Z</time>
      </trkpt>
      <trkpt lat="54.69294" lon="25.29764">
        <ele>92.873755</ele>
        <time>2020-10-07T16:50:49.406Z</time>
      </trkpt>
      <trkpt lat="54.69268" lon="25.29707">
        <ele>92.836853</ele>
        <time>2020-10-07T16:50:58.563Z</time>
      </trkpt>
      <trkpt lat="54.69244" lon="25.29654">
        <ele>92.803144</ele>
        <time>2020-10-07T16:51:07.431Z</time>
      </trkpt>
      <trkpt lat="54.69234" lon="25.29632">
        <ele>92.789187</ele>
        <time>2020-10-07T16:51:11.020Z</time>
      </trkpt>
      <trkpt lat="54.69228" lon="25.29618">
        <ele>92.780315</ele>
        <time>2020-10-07T16:51:13.768Z</time>
      </trkpt>
      <trkpt lat="54.69185" lon="25.29542">
        <ele>92.719524</ele>
        <time>2020-10-07T16:51:28.710Z</time>
      </trkpt>
      <trkpt lat="54.69177" lon="25.29529">
        <ele>92.702808</ele>
        <time>2020-10-07T16:51:31.866Z</time>
      </trkpt>
      <trkpt lat="54.69149" lon="25.29489">
        <ele>92.650137</ele>
        <time>2020-10-07T16:51:40.257Z</time>
      </trkpt>
      <trkpt lat="54.69112" lon="25.29438">
        <ele>92.580999</ele>
        <time>2020-10-07T16:51:51.250Z</time>
      </trkpt>
      <trkpt lat="54.69094" lon="25.29412">
        <ele>92.545688</ele>
        <time>2020-10-07T16:51:56.295Z</time>
      </trkpt>
      <trkpt lat="54.69057" lon="25.29358">
        <ele>92.474184</ele>
        <time>2020-10-07T16:52:07.171Z</time>
      </trkpt>
      <trkpt lat="54.6905" lon="25.29357">
        <ele>92.412524</ele>
        <time>2020-10-07T16:52:09.209Z</time>
      </trkpt>
      <trkpt lat="54.69033" lon="25.2935">
        <ele>92.255837</ele>
        <time>2020-10-07T16:52:15.516Z</time>
      </trkpt>
      <trkpt lat="54.69003" lon="25.29306">
        <ele>91.893041</ele>
        <time>2020-10-07T16:52:29.358Z</time>
      </trkpt>
      <trkpt lat="54.68986" lon="25.29272">
        <ele>91.66077</ele>
        <time>2020-10-07T16:52:37.704Z</time>
      </trkpt>
      <trkpt lat="54.68977" lon="25.29242">
        <ele>91.482782</ele>
        <time>2020-10-07T16:52:44.567Z</time>
      </trkpt>
      <trkpt lat="54.68955" lon="25.29156">
        <ele>90.989364</ele>
        <time>2020-10-07T16:53:02.402Z</time>
      </trkpt>
      <trkpt lat="54.68943" lon="25.29055">
        <ele>90.976578</ele>
        <time>2020-10-07T16:53:23.119Z</time>
      </trkpt>
      <trkpt lat="54.6894" lon="25.29">
        <ele>91.073677</ele>
        <time>2020-10-07T16:53:34.975Z</time>
      </trkpt>
      <trkpt lat="54.68939" lon="25.28982">
        <ele>91.105754</ele>
        <time>2020-10-07T16:53:38.903Z</time>
      </trkpt>
      <trkpt lat="54.68942" lon="25.28917">
        <ele>91.220484</ele>
        <time>2020-10-07T16:53:53.796Z</time>
      </trkpt>
      <trkpt lat="54.68947" lon="25.28858">
        <ele>91.324906</ele>
        <time>2020-10-07T16:54:07.682Z</time>
      </trkpt>
      <trkpt lat="54.68943" lon="25.2885">
        <ele>91.343136</ele>
        <time>2020-10-07T16:54:10.253Z</time>
      </trkpt>
      <trkpt lat="54.68922" lon="25.28844">
        <ele>91.495658</ele>
        <time>2020-10-07T16:54:19.697Z</time>
      </trkpt>
      <trkpt lat="54.68854" lon="25.28825">
        <ele>92.703977</ele>
        <time>2020-10-07T16:54:50.478Z</time>
      </trkpt>
      <trkpt lat="54.68836" lon="25.2882">
        <ele>93.02118</ele>
        <time>2020-10-07T16:54:59.098Z</time>
      </trkpt>
      <trkpt lat="54.68833" lon="25.28827">
        <ele>93.104471</ele>
        <time>2020-10-07T16:55:00.625Z</time>
      </trkpt>
      <trkpt lat="54.68822" lon="25.28838">
        <ele>93.320706</ele>
        <time>2020-10-07T16:55:04.219Z</time>
      </trkpt>
      <trkpt lat="54.68806" lon="25.28845">
        <ele>93.606287</ele>
        <time>2020-10-07T16:55:09.438Z</time>
      </trkpt>
      <trkpt lat="54.68802" lon="25.28828">
        <ele>93.796489</ele>
        <time>2020-10-07T16:55:14.497Z</time>
      </trkpt>
      <trkpt lat="54.68799" lon="25.28819">
        <ele>93.89463</ele>
        <time>2020-10-07T16:55:16.786Z</time>
      </trkpt>
      <trkpt lat="54.68793" lon="25.28805">
        <ele>94.07386</ele>
        <time>2020-10-07T16:55:21.454Z</time>
      </trkpt>
      <trkpt lat="54.68779" lon="25.28791">
        <ele>94.353335</ele>
        <time>2020-10-07T16:55:28.644Z</time>
      </trkpt>
      <trkpt lat="54.68751" lon="25.28759">
        <ele>94.68851</ele>
        <time>2020-10-07T16:55:43.098Z</time>
      </trkpt>
      <trkpt lat="54.68734" lon="25.28744">
        <ele>94.809392</ele>
        <time>2020-10-07T16:55:50.656Z</time>
      </trkpt>
      <trkpt lat="54.68718" lon="25.28729">
        <ele>94.926922</ele>
        <time>2020-10-07T16:55:58.235Z</time>
      </trkpt>
      <trkpt lat="54.68693" lon="25.28705">
        <ele>95.106759</ele>
        <time>2020-10-07T16:56:09.009Z</time>
      </trkpt>
      <trkpt lat="54.68674" lon="25.28688">
        <ele>95.246067</ele>
        <time>2020-10-07T16:56:17.515Z</time>
      </trkpt>
      <trkpt lat="54.68633" lon="25.28655">
        <ele>95.53827</ele>
        <time>2020-10-07T16:56:34.684Z</time>
      </trkpt>
      <trkpt lat="54.686" lon="25.28636">
        <ele>95.690422</ele>
        <time>2020-10-07T16:56:45.083Z</time>
      </trkpt>
      <trkpt lat="54.68581" lon="25.28624">
        <ele>95.690422</ele>
        <time>2020-10-07T16:56:50.946Z</time>
      </trkpt>
      <trkpt lat="54.68555" lon="25.28609">
        <ele>95.690422</ele>
        <time>2020-10-07T16:56:59.337Z</time>
      </trkpt>
      <trkpt lat="54.68551" lon="25.28606">
        <ele>95.690422</ele>
        <time>2020-10-07T16:57:00.870Z</time>
      </trkpt>
      <trkpt lat="54.68555" lon="25.2859">
        <ele>95.690422</ele>
        <time>2020-10-07T16:57:03.648Z</time>
      </trkpt>
      <trkpt lat="54.68541" lon="25.2858">
        <ele>95.690422</ele>
        <time>2020-10-07T16:57:07.802Z</time>
      </trkpt>
      <trkpt lat="54.68531" lon="25.28576">
        <ele>95.690422</ele>
        <time>2020-10-07T16:57:10.144Z</time>
      </trkpt>
      <trkpt lat="54.68523" lon="25.28573">
        <ele>95.690422</ele>
        <time>2020-10-07T16:57:12.433Z</time>
      </trkpt>
      <trkpt lat="54.68521" lon="25.28563">
        <ele>95.690422</ele>
        <time>2020-10-07T16:57:14.130Z</time>
      </trkpt>
      <trkpt lat="54.68519" lon="25.28555">
        <ele>95.690422</ele>
        <time>2020-10-07T16:57:15.287Z</time>
      </trkpt>
      <trkpt lat="54.68516" lon="25.28549">
        <ele>95.690422</ele>
        <time>2020-10-07T16:57:16.585Z</time>
      </trkpt>
      <trkpt lat="54.68502" lon="25.28528">
        <ele>95.690422</ele>
        <time>2020-10-07T16:57:21.441Z</time>
      </trkpt>
      <trkpt lat="54.6849" lon="25.28512">
        <ele>95.690422</ele>
        <time>2020-10-07T16:57:25.534Z</time>
      </trkpt>
      <trkpt lat="54.68471" lon="25.28489">
        <ele>95.690422</ele>
        <time>2020-10-07T16:57:32.007Z</time>
      </trkpt>
      <trkpt lat="54.68467" lon="25.28484">
        <ele>95.690422</ele>
        <time>2020-10-07T16:57:33.219Z</time>
      </trkpt>
      <trkpt lat="54.68435" lon="25.28446">
        <ele>95.690422</ele>
        <time>2020-10-07T16:57:44.223Z</time>
      </trkpt>
      <trkpt lat="54.68426" lon="25.28468">
        <ele>95.690422</ele>
        <time>2020-10-07T16:57:48.421Z</time>
      </trkpt>
      <trkpt lat="54.68426" lon="25.28482">
        <ele>95.690422</ele>
        <time>2020-10-07T16:57:50.767Z</time>
      </trkpt>
      <trkpt lat="54.68438" lon="25.28496">
        <ele>95.690422</ele>
        <time>2020-10-07T16:57:54.537Z</time>
      </trkpt>
    </trkseg>
  </trk>
  <trk>
    <name><![CDATA[3_Vilnius à Warszawa: 627km]]></name>
    <trkseg>
      <trkpt lat="54.68438" lon="25.28496">
        <ele>96.928632</ele>
        <time>2020-10-06T13:10:02.252Z</time>
      </trkpt>
      <trkpt lat="54.68426" lon="25.28482">
        <ele>96.928632</ele>
        <time>2020-10-06T13:10:04.905Z</time>
      </trkpt>
      <trkpt lat="54.68426" lon="25.28468">
        <ele>96.928632</ele>
        <time>2020-10-06T13:10:06.431Z</time>
      </trkpt>
      <trkpt lat="54.68435" lon="25.28446">
        <ele>96.928632</ele>
        <time>2020-10-06T13:10:09.435Z</time>
      </trkpt>
      <trkpt lat="54.68467" lon="25.28484">
        <ele>96.928632</ele>
        <time>2020-10-06T13:10:16.726Z</time>
      </trkpt>
      <trkpt lat="54.68471" lon="25.28489">
        <ele>96.928632</ele>
        <time>2020-10-06T13:10:17.490Z</time>
      </trkpt>
      <trkpt lat="54.6849" lon="25.28512">
        <ele>96.869145</ele>
        <time>2020-10-06T13:10:21.898Z</time>
      </trkpt>
      <trkpt lat="54.68502" lon="25.28528">
        <ele>96.809918</ele>
        <time>2020-10-06T13:10:24.683Z</time>
      </trkpt>
      <trkpt lat="54.68516" lon="25.28549">
        <ele>96.736756</ele>
        <time>2020-10-06T13:10:28.193Z</time>
      </trkpt>
      <trkpt lat="54.68519" lon="25.28555">
        <ele>96.717443</ele>
        <time>2020-10-06T13:10:29.124Z</time>
      </trkpt>
      <trkpt lat="54.68521" lon="25.28563">
        <ele>96.698799</ele>
        <time>2020-10-06T13:10:30.068Z</time>
      </trkpt>
      <trkpt lat="54.68523" lon="25.28573">
        <ele>96.673441</ele>
        <time>2020-10-06T13:10:31.285Z</time>
      </trkpt>
      <trkpt lat="54.68531" lon="25.28576">
        <ele>96.64126</ele>
        <time>2020-10-06T13:10:32.903Z</time>
      </trkpt>
      <trkpt lat="54.68541" lon="25.2858">
        <ele>96.603311</ele>
        <time>2020-10-06T13:10:34.966Z</time>
      </trkpt>
      <trkpt lat="54.68555" lon="25.2859">
        <ele>96.540771</ele>
        <time>2020-10-06T13:10:38.259Z</time>
      </trkpt>
      <trkpt lat="54.68585" lon="25.28608">
        <ele>96.415458</ele>
        <time>2020-10-06T13:10:45.085Z</time>
      </trkpt>
      <trkpt lat="54.68596" lon="25.28615">
        <ele>96.372027</ele>
        <time>2020-10-06T13:10:47.565Z</time>
      </trkpt>
      <trkpt lat="54.68599" lon="25.28594">
        <ele>96.322676</ele>
        <time>2020-10-06T13:10:50.703Z</time>
      </trkpt>
      <trkpt lat="54.68611" lon="25.28529">
        <ele>96.464677</ele>
        <time>2020-10-06T13:11:01.064Z</time>
      </trkpt>
      <trkpt lat="54.68655" lon="25.28291">
        <ele>99.171603</ele>
        <time>2020-10-06T13:11:46.530Z</time>
      </trkpt>
      <trkpt lat="54.68665" lon="25.28233">
        <ele>99.852696</ele>
        <time>2020-10-06T13:11:58.283Z</time>
      </trkpt>
      <trkpt lat="54.68668" lon="25.28218">
        <ele>100.039173</ele>
        <time>2020-10-06T13:12:01.318Z</time>
      </trkpt>
      <trkpt lat="54.68671" lon="25.28201">
        <ele>100.243085</ele>
        <time>2020-10-06T13:12:04.534Z</time>
      </trkpt>
      <trkpt lat="54.6869" lon="25.28095">
        <ele>101.540408</ele>
        <time>2020-10-06T13:12:25.639Z</time>
      </trkpt>
      <trkpt lat="54.68704" lon="25.28018">
        <ele>102.480323</ele>
        <time>2020-10-06T13:12:39.942Z</time>
      </trkpt>
      <trkpt lat="54.68711" lon="25.27978">
        <ele>102.966677</ele>
        <time>2020-10-06T13:12:46.889Z</time>
      </trkpt>
      <trkpt lat="54.68713" lon="25.27967">
        <ele>103.103697</ele>
        <time>2020-10-06T13:12:48.727Z</time>
      </trkpt>
      <trkpt lat="54.68715" lon="25.27955">
        <ele>103.242095</ele>
        <time>2020-10-06T13:12:50.748Z</time>
      </trkpt>
      <trkpt lat="54.68726" lon="25.27893">
        <ele>103.572735</ele>
        <time>2020-10-06T13:13:03.684Z</time>
      </trkpt>
      <trkpt lat="54.68728" lon="25.2788">
        <ele>103.63896</ele>
        <time>2020-10-06T13:13:06.334Z</time>
      </trkpt>
      <trkpt lat="54.6873" lon="25.27867">
        <ele>103.705909</ele>
        <time>2020-10-06T13:13:08.917Z</time>
      </trkpt>
      <trkpt lat="54.6874" lon="25.27812">
        <ele>103.998785</ele>
        <time>2020-10-06T13:13:20.010Z</time>
      </trkpt>
      <trkpt lat="54.68765" lon="25.27665">
        <ele>104.777348</ele>
        <time>2020-10-06T13:13:48.636Z</time>
      </trkpt>
      <trkpt lat="54.68789" lon="25.27517">
        <ele>104.939146</ele>
        <time>2020-10-06T13:14:14.604Z</time>
      </trkpt>
      <trkpt lat="54.68791" lon="25.27506">
        <ele>104.94975</ele>
        <time>2020-10-06T13:14:16.901Z</time>
      </trkpt>
      <trkpt lat="54.68793" lon="25.27494">
        <ele>104.960101</ele>
        <time>2020-10-06T13:14:18.698Z</time>
      </trkpt>
      <trkpt lat="54.68811" lon="25.27393">
        <ele>105.052309</ele>
        <time>2020-10-06T13:14:37.655Z</time>
      </trkpt>
      <trkpt lat="54.68817" lon="25.27357">
        <ele>105.074397</ele>
        <time>2020-10-06T13:14:43.895Z</time>
      </trkpt>
      <trkpt lat="54.68839" lon="25.27226">
        <ele>104.594841</ele>
        <time>2020-10-06T13:15:06.376Z</time>
      </trkpt>
      <trkpt lat="54.68841" lon="25.27216">
        <ele>104.556523</ele>
        <time>2020-10-06T13:15:08.253Z</time>
      </trkpt>
      <trkpt lat="54.68842" lon="25.27206">
        <ele>104.521076</ele>
        <time>2020-10-06T13:15:09.802Z</time>
      </trkpt>
      <trkpt lat="54.68866" lon="25.27061">
        <ele>103.989354</ele>
        <time>2020-10-06T13:15:32.810Z</time>
      </trkpt>
      <trkpt lat="54.6887" lon="25.27039">
        <ele>103.778821</ele>
        <time>2020-10-06T13:15:36.224Z</time>
      </trkpt>
      <trkpt lat="54.68874" lon="25.27012">
        <ele>103.522039</ele>
        <time>2020-10-06T13:15:40.094Z</time>
      </trkpt>
      <trkpt lat="54.68896" lon="25.2689">
        <ele>102.329317</ele>
        <time>2020-10-06T13:15:58.402Z</time>
      </trkpt>
      <trkpt lat="54.689" lon="25.26864">
        <ele>102.081942</ele>
        <time>2020-10-06T13:16:02.252Z</time>
      </trkpt>
      <trkpt lat="54.68904" lon="25.26844">
        <ele>101.88413</ele>
        <time>2020-10-06T13:16:05.264Z</time>
      </trkpt>
      <trkpt lat="54.68904" lon="25.26841">
        <ele>101.857775</ele>
        <time>2020-10-06T13:16:05.602Z</time>
      </trkpt>
      <trkpt lat="54.68911" lon="25.26796">
        <ele>101.422417</ele>
        <time>2020-10-06T13:16:12.335Z</time>
      </trkpt>
      <trkpt lat="54.68918" lon="25.26755">
        <ele>101.019329</ele>
        <time>2020-10-06T13:16:18.367Z</time>
      </trkpt>
      <trkpt lat="54.68934" lon="25.26659">
        <ele>99.975018</ele>
        <time>2020-10-06T13:16:32.723Z</time>
      </trkpt>
      <trkpt lat="54.68945" lon="25.26593">
        <ele>99.255298</ele>
        <time>2020-10-06T13:16:42.557Z</time>
      </trkpt>
      <trkpt lat="54.68945" lon="25.26589">
        <ele>99.211938</ele>
        <time>2020-10-06T13:16:43.161Z</time>
      </trkpt>
      <trkpt lat="54.68961" lon="25.26493">
        <ele>98.163102</ele>
        <time>2020-10-06T13:16:57.334Z</time>
      </trkpt>
      <trkpt lat="54.68967" lon="25.26458">
        <ele>97.766266</ele>
        <time>2020-10-06T13:17:02.271Z</time>
      </trkpt>
      <trkpt lat="54.68981" lon="25.2637">
        <ele>96.460403</ele>
        <time>2020-10-06T13:17:14.847Z</time>
      </trkpt>
      <trkpt lat="54.68983" lon="25.26356">
        <ele>96.255336</ele>
        <time>2020-10-06T13:17:16.696Z</time>
      </trkpt>
      <trkpt lat="54.68987" lon="25.26332">
        <ele>95.891834</ele>
        <time>2020-10-06T13:17:20.212Z</time>
      </trkpt>
      <trkpt lat="54.68991" lon="25.2631">
        <ele>95.562621</ele>
        <time>2020-10-06T13:17:23.342Z</time>
      </trkpt>
      <trkpt lat="54.68995" lon="25.26286">
        <ele>95.216272</ele>
        <time>2020-10-06T13:17:26.522Z</time>
      </trkpt>
      <trkpt lat="54.69003" lon="25.26237">
        <ele>94.476932</ele>
        <time>2020-10-06T13:17:33.341Z</time>
      </trkpt>
      <trkpt lat="54.69017" lon="25.26154">
        <ele>93.372401</ele>
        <time>2020-10-06T13:17:44.667Z</time>
      </trkpt>
      <trkpt lat="54.6904" lon="25.26017">
        <ele>93.131008</ele>
        <time>2020-10-06T13:18:05.177Z</time>
      </trkpt>
      <trkpt lat="54.69042" lon="25.25993">
        <ele>93.088773</ele>
        <time>2020-10-06T13:18:08.890Z</time>
      </trkpt>
      <trkpt lat="54.69044" lon="25.25971">
        <ele>93.051494</ele>
        <time>2020-10-06T13:18:12.360Z</time>
      </trkpt>
      <trkpt lat="54.69044" lon="25.25966">
        <ele>93.042994</ele>
        <time>2020-10-06T13:18:13.206Z</time>
      </trkpt>
      <trkpt lat="54.69049" lon="25.25805">
        <ele>93.714185</ele>
        <time>2020-10-06T13:18:40.508Z</time>
      </trkpt>
      <trkpt lat="54.69049" lon="25.25798">
        <ele>93.819371</ele>
        <time>2020-10-06T13:18:41.827Z</time>
      </trkpt>
      <trkpt lat="54.69048" lon="25.25774">
        <ele>94.19523</ele>
        <time>2020-10-06T13:18:47.075Z</time>
      </trkpt>
      <trkpt lat="54.69042" lon="25.25694">
        <ele>95.463474</ele>
        <time>2020-10-06T13:19:02.171Z</time>
      </trkpt>
      <trkpt lat="54.69041" lon="25.25661">
        <ele>95.983607</ele>
        <time>2020-10-06T13:19:09.727Z</time>
      </trkpt>
      <trkpt lat="54.69041" lon="25.25648">
        <ele>96.197274</ele>
        <time>2020-10-06T13:19:12.587Z</time>
      </trkpt>
      <trkpt lat="54.6904" lon="25.25632">
        <ele>96.437858</ele>
        <time>2020-10-06T13:19:15.204Z</time>
      </trkpt>
      <trkpt lat="54.6904" lon="25.25624">
        <ele>96.570431</ele>
        <time>2020-10-06T13:19:16.825Z</time>
      </trkpt>
      <trkpt lat="54.69029" lon="25.25507">
        <ele>98.03346</ele>
        <time>2020-10-06T13:19:40.995Z</time>
      </trkpt>
      <trkpt lat="54.69021" lon="25.25417">
        <ele>98.639961</ele>
        <time>2020-10-06T13:19:56.791Z</time>
      </trkpt>
      <trkpt lat="54.69018" lon="25.25387">
        <ele>98.839007</ele>
        <time>2020-10-06T13:20:01.234Z</time>
      </trkpt>
      <trkpt lat="54.6901" lon="25.25299">
        <ele>99.434654</ele>
        <time>2020-10-06T13:20:13.137Z</time>
      </trkpt>
      <trkpt lat="54.69008" lon="25.2527">
        <ele>99.626304</ele>
        <time>2020-10-06T13:20:16.884Z</time>
      </trkpt>
      <trkpt lat="54.69005" lon="25.25244">
        <ele>99.801849</ele>
        <time>2020-10-06T13:20:20.260Z</time>
      </trkpt>
      <trkpt lat="54.69003" lon="25.25218">
        <ele>99.649295</ele>
        <time>2020-10-06T13:20:23.668Z</time>
      </trkpt>
      <trkpt lat="54.69" lon="25.25186">
        <ele>99.431135</ele>
        <time>2020-10-06T13:20:27.681Z</time>
      </trkpt>
      <trkpt lat="54.6898" lon="25.24958">
        <ele>97.89447</ele>
        <time>2020-10-06T13:20:52.588Z</time>
      </trkpt>
      <trkpt lat="54.68978" lon="25.24937">
        <ele>97.755588</ele>
        <time>2020-10-06T13:20:54.702Z</time>
      </trkpt>
      <trkpt lat="54.68973" lon="25.24874">
        <ele>97.311727</ele>
        <time>2020-10-06T13:21:01.167Z</time>
      </trkpt>
      <trkpt lat="54.68968" lon="25.24817">
        <ele>96.902501</ele>
        <time>2020-10-06T13:21:07.152Z</time>
      </trkpt>
      <trkpt lat="54.68965" lon="25.24768">
        <ele>96.56116</ele>
        <time>2020-10-06T13:21:12.289Z</time>
      </trkpt>
      <trkpt lat="54.68959" lon="25.24703">
        <ele>96.09669</ele>
        <time>2020-10-06T13:21:19.619Z</time>
      </trkpt>
      <trkpt lat="54.68993" lon="25.24687">
        <ele>95.670109</ele>
        <time>2020-10-06T13:21:26.934Z</time>
      </trkpt>
      <trkpt lat="54.69035" lon="25.2467">
        <ele>95.583826</ele>
        <time>2020-10-06T13:21:36.222Z</time>
      </trkpt>
      <trkpt lat="54.69042" lon="25.24667">
        <ele>95.589228</ele>
        <time>2020-10-06T13:21:38.007Z</time>
      </trkpt>
      <trkpt lat="54.69111" lon="25.24639">
        <ele>95.640549</ele>
        <time>2020-10-06T13:21:55.204Z</time>
      </trkpt>
      <trkpt lat="54.69116" lon="25.24638">
        <ele>95.64406</ele>
        <time>2020-10-06T13:21:56.340Z</time>
      </trkpt>
      <trkpt lat="54.69129" lon="25.24633">
        <ele>95.653604</ele>
        <time>2020-10-06T13:21:59.532Z</time>
      </trkpt>
      <trkpt lat="54.69197" lon="25.24609">
        <ele>95.923328</ele>
        <time>2020-10-06T13:22:14.143Z</time>
      </trkpt>
      <trkpt lat="54.69204" lon="25.24577">
        <ele>96.163449</ele>
        <time>2020-10-06T13:22:21.699Z</time>
      </trkpt>
      <trkpt lat="54.6921" lon="25.24544">
        <ele>96.40137</ele>
        <time>2020-10-06T13:22:29.385Z</time>
      </trkpt>
      <trkpt lat="54.6921" lon="25.24528">
        <ele>96.509194</ele>
        <time>2020-10-06T13:22:33.005Z</time>
      </trkpt>
      <trkpt lat="54.69207" lon="25.24517">
        <ele>96.597039</ele>
        <time>2020-10-06T13:22:35.546Z</time>
      </trkpt>
      <trkpt lat="54.69198" lon="25.2449">
        <ele>96.808076</ele>
        <time>2020-10-06T13:22:42.451Z</time>
      </trkpt>
      <trkpt lat="54.69195" lon="25.24477">
        <ele>96.911761</ele>
        <time>2020-10-06T13:22:45.891Z</time>
      </trkpt>
      <trkpt lat="54.69187" lon="25.24447">
        <ele>97.135519</ele>
        <time>2020-10-06T13:22:52.651Z</time>
      </trkpt>
      <trkpt lat="54.69185" lon="25.24444">
        <ele>97.163637</ele>
        <time>2020-10-06T13:22:53.513Z</time>
      </trkpt>
      <trkpt lat="54.69091" lon="25.24129">
        <ele>103.290312</ele>
        <time>2020-10-06T13:24:07.166Z</time>
      </trkpt>
      <trkpt lat="54.6909" lon="25.24124">
        <ele>103.413765</ele>
        <time>2020-10-06T13:24:08.613Z</time>
      </trkpt>
      <trkpt lat="54.6908" lon="25.2411">
        <ele>103.895488</ele>
        <time>2020-10-06T13:24:14.578Z</time>
      </trkpt>
      <trkpt lat="54.69072" lon="25.24108">
        <ele>104.19762</ele>
        <time>2020-10-06T13:24:18.216Z</time>
      </trkpt>
      <trkpt lat="54.69066" lon="25.24105">
        <ele>104.419842</ele>
        <time>2020-10-06T13:24:21.287Z</time>
      </trkpt>
      <trkpt lat="54.69054" lon="25.24087">
        <ele>104.922341</ele>
        <time>2020-10-06T13:24:27.206Z</time>
      </trkpt>
      <trkpt lat="54.69031" lon="25.24034">
        <ele>106.168271</ele>
        <time>2020-10-06T13:24:43.391Z</time>
      </trkpt>
      <trkpt lat="54.69031" lon="25.24034">
        <ele>106.168271</ele>
        <time>2020-10-06T13:24:43.543Z</time>
      </trkpt>
      <trkpt lat="54.69029" lon="25.24018">
        <ele>106.464169</ele>
        <time>2020-10-06T13:24:47.175Z</time>
      </trkpt>
      <trkpt lat="54.68865" lon="25.23801">
        <ele>111.60341</ele>
        <time>2020-10-06T13:25:54.916Z</time>
      </trkpt>
      <trkpt lat="54.68829" lon="25.23752">
        <ele>112.30645</ele>
        <time>2020-10-06T13:26:07.475Z</time>
      </trkpt>
      <trkpt lat="54.68731" lon="25.23625">
        <ele>112.475928</ele>
        <time>2020-10-06T13:26:38.220Z</time>
      </trkpt>
      <trkpt lat="54.68534" lon="25.23398">
        <ele>109.434408</ele>
        <time>2020-10-06T13:27:23.466Z</time>
      </trkpt>
      <trkpt lat="54.68526" lon="25.2339">
        <ele>109.263301</ele>
        <time>2020-10-06T13:27:25.087Z</time>
      </trkpt>
      <trkpt lat="54.68515" lon="25.23385">
        <ele>109.072702</ele>
        <time>2020-10-06T13:27:26.962Z</time>
      </trkpt>
      <trkpt lat="54.68497" lon="25.23384">
        <ele>108.744554</ele>
        <time>2020-10-06T13:27:30.240Z</time>
      </trkpt>
      <trkpt lat="54.68472" lon="25.23385">
        <ele>108.443779</ele>
        <time>2020-10-06T13:27:34.482Z</time>
      </trkpt>
      <trkpt lat="54.68356" lon="25.23393">
        <ele>107.267637</ele>
        <time>2020-10-06T13:27:55.604Z</time>
      </trkpt>
      <trkpt lat="54.68316" lon="25.23395">
        <ele>106.861467</ele>
        <time>2020-10-06T13:28:05.062Z</time>
      </trkpt>
      <trkpt lat="54.68297" lon="25.23397">
        <ele>107.043681</ele>
        <time>2020-10-06T13:28:09.836Z</time>
      </trkpt>
      <trkpt lat="54.68274" lon="25.234">
        <ele>107.466165</ele>
        <time>2020-10-06T13:28:16.303Z</time>
      </trkpt>
      <trkpt lat="54.68186" lon="25.23411">
        <ele>109.060099</ele>
        <time>2020-10-06T13:28:42.807Z</time>
      </trkpt>
      <trkpt lat="54.68105" lon="25.23419">
        <ele>110.410943</ele>
        <time>2020-10-06T13:29:09.670Z</time>
      </trkpt>
      <trkpt lat="54.68078" lon="25.23419">
        <ele>110.788305</ele>
        <time>2020-10-06T13:29:18.393Z</time>
      </trkpt>
      <trkpt lat="54.68074" lon="25.23419">
        <ele>110.842799</ele>
        <time>2020-10-06T13:29:19.568Z</time>
      </trkpt>
      <trkpt lat="54.68006" lon="25.23428">
        <ele>111.762064</ele>
        <time>2020-10-06T13:29:38.948Z</time>
      </trkpt>
      <trkpt lat="54.67834" lon="25.2344">
        <ele>112.06559</ele>
        <time>2020-10-06T13:30:16.973Z</time>
      </trkpt>
      <trkpt lat="54.67813" lon="25.23445">
        <ele>111.986332</ele>
        <time>2020-10-06T13:30:20.948Z</time>
      </trkpt>
      <trkpt lat="54.67786" lon="25.23468">
        <ele>111.870528</ele>
        <time>2020-10-06T13:30:26.781Z</time>
      </trkpt>
      <trkpt lat="54.67588" lon="25.23743">
        <ele>110.36102</ele>
        <time>2020-10-06T13:31:16.302Z</time>
      </trkpt>
      <trkpt lat="54.67581" lon="25.23753">
        <ele>110.385167</ele>
        <time>2020-10-06T13:31:18.193Z</time>
      </trkpt>
      <trkpt lat="54.67439" lon="25.23949">
        <ele>111.180262</ele>
        <time>2020-10-06T13:32:05.841Z</time>
      </trkpt>
      <trkpt lat="54.67403" lon="25.23998">
        <ele>111.495904</ele>
        <time>2020-10-06T13:32:17.866Z</time>
      </trkpt>
      <trkpt lat="54.67363" lon="25.24054">
        <ele>111.853296</ele>
        <time>2020-10-06T13:32:30.508Z</time>
      </trkpt>
      <trkpt lat="54.67359" lon="25.2406">
        <ele>111.892653</ele>
        <time>2020-10-06T13:32:31.816Z</time>
      </trkpt>
      <trkpt lat="54.67354" lon="25.24067">
        <ele>111.895514</ele>
        <time>2020-10-06T13:32:33.154Z</time>
      </trkpt>
      <trkpt lat="54.67342" lon="25.24049">
        <ele>111.771772</ele>
        <time>2020-10-06T13:32:36.544Z</time>
      </trkpt>
      <trkpt lat="54.67342" lon="25.24048">
        <ele>111.764683</ele>
        <time>2020-10-06T13:32:36.712Z</time>
      </trkpt>
      <trkpt lat="54.67325" lon="25.24022">
        <ele>111.586895</ele>
        <time>2020-10-06T13:32:41.562Z</time>
      </trkpt>
      <trkpt lat="54.67311" lon="25.24">
        <ele>111.443185</ele>
        <time>2020-10-06T13:32:45.247Z</time>
      </trkpt>
      <trkpt lat="54.67289" lon="25.23969">
        <ele>111.220338</ele>
        <time>2020-10-06T13:32:50.959Z</time>
      </trkpt>
      <trkpt lat="54.67256" lon="25.23927">
        <ele>110.898773</ele>
        <time>2020-10-06T13:32:58.834Z</time>
      </trkpt>
      <trkpt lat="54.6724" lon="25.23909">
        <ele>110.752479</ele>
        <time>2020-10-06T13:33:02.353Z</time>
      </trkpt>
      <trkpt lat="54.67221" lon="25.23889">
        <ele>110.5815</ele>
        <time>2020-10-06T13:33:06.329Z</time>
      </trkpt>
      <trkpt lat="54.67187" lon="25.23854">
        <ele>110.045022</ele>
        <time>2020-10-06T13:33:13.785Z</time>
      </trkpt>
      <trkpt lat="54.67123" lon="25.23797">
        <ele>108.941291</ele>
        <time>2020-10-06T13:33:27.145Z</time>
      </trkpt>
      <trkpt lat="54.67104" lon="25.23783">
        <ele>108.624289</ele>
        <time>2020-10-06T13:33:30.912Z</time>
      </trkpt>
      <trkpt lat="54.67082" lon="25.23771">
        <ele>108.277145</ele>
        <time>2020-10-06T13:33:35.045Z</time>
      </trkpt>
      <trkpt lat="54.67058" lon="25.23763">
        <ele>107.913824</ele>
        <time>2020-10-06T13:33:39.257Z</time>
      </trkpt>
      <trkpt lat="54.67045" lon="25.23759">
        <ele>107.72576</ele>
        <time>2020-10-06T13:33:41.986Z</time>
      </trkpt>
      <trkpt lat="54.67027" lon="25.23756">
        <ele>107.538271</ele>
        <time>2020-10-06T13:33:45.116Z</time>
      </trkpt>
      <trkpt lat="54.66962" lon="25.2375">
        <ele>106.862859</ele>
        <time>2020-10-06T13:33:57.213Z</time>
      </trkpt>
      <trkpt lat="54.6695" lon="25.23738">
        <ele>106.709789</ele>
        <time>2020-10-06T13:33:59.954Z</time>
      </trkpt>
      <trkpt lat="54.66925" lon="25.23712">
        <ele>106.411151</ele>
        <time>2020-10-06T13:34:05.547Z</time>
      </trkpt>
      <trkpt lat="54.66905" lon="25.23701">
        <ele>106.190892</ele>
        <time>2020-10-06T13:34:09.855Z</time>
      </trkpt>
      <trkpt lat="54.66879" lon="25.23699">
        <ele>105.920263</ele>
        <time>2020-10-06T13:34:14.817Z</time>
      </trkpt>
      <trkpt lat="54.66859" lon="25.23702">
        <ele>106.025617</ele>
        <time>2020-10-06T13:34:19.333Z</time>
      </trkpt>
      <trkpt lat="54.6685" lon="25.23708">
        <ele>106.098101</ele>
        <time>2020-10-06T13:34:21.372Z</time>
      </trkpt>
      <trkpt lat="54.66832" lon="25.23724">
        <ele>106.240475</ele>
        <time>2020-10-06T13:34:25.822Z</time>
      </trkpt>
      <trkpt lat="54.66826" lon="25.23735">
        <ele>106.308369</ele>
        <time>2020-10-06T13:34:27.946Z</time>
      </trkpt>
      <trkpt lat="54.66812" lon="25.2374">
        <ele>106.413513</ele>
        <time>2020-10-06T13:34:31.169Z</time>
      </trkpt>
      <trkpt lat="54.66704" lon="25.23709">
        <ele>107.211945</ele>
        <time>2020-10-06T13:35:01.991Z</time>
      </trkpt>
      <trkpt lat="54.66622" lon="25.23699">
        <ele>107.521464</ele>
        <time>2020-10-06T13:35:23.672Z</time>
      </trkpt>
      <trkpt lat="54.66574" lon="25.23701">
        <ele>107.705063</ele>
        <time>2020-10-06T13:35:35.548Z</time>
      </trkpt>
      <trkpt lat="54.66549" lon="25.23693">
        <ele>107.798269</ele>
        <time>2020-10-06T13:35:40.564Z</time>
      </trkpt>
      <trkpt lat="54.66427" lon="25.23621">
        <ele>106.383933</ele>
        <time>2020-10-06T13:36:05.165Z</time>
      </trkpt>
      <trkpt lat="54.66385" lon="25.23594">
        <ele>105.747518</ele>
        <time>2020-10-06T13:36:12.864Z</time>
      </trkpt>
      <trkpt lat="54.6637" lon="25.23584">
        <ele>105.514183</ele>
        <time>2020-10-06T13:36:15.773Z</time>
      </trkpt>
      <trkpt lat="54.66301" lon="25.23542">
        <ele>104.619291</ele>
        <time>2020-10-06T13:36:28.968Z</time>
      </trkpt>
      <trkpt lat="54.66232" lon="25.23497">
        <ele>103.75129</ele>
        <time>2020-10-06T13:36:43.006Z</time>
      </trkpt>
      <trkpt lat="54.66224" lon="25.23492">
        <ele>103.659901</ele>
        <time>2020-10-06T13:36:44.575Z</time>
      </trkpt>
      <trkpt lat="54.66103" lon="25.23412">
        <ele>102.749504</ele>
        <time>2020-10-06T13:37:11.495Z</time>
      </trkpt>
      <trkpt lat="54.6605" lon="25.2338">
        <ele>102.464345</ele>
        <time>2020-10-06T13:37:23.420Z</time>
      </trkpt>
      <trkpt lat="54.66002" lon="25.23349">
        <ele>102.113265</ele>
        <time>2020-10-06T13:37:33.655Z</time>
      </trkpt>
      <trkpt lat="54.65968" lon="25.23326">
        <ele>101.732747</ele>
        <time>2020-10-06T13:37:40.959Z</time>
      </trkpt>
      <trkpt lat="54.65935" lon="25.23299">
        <ele>101.359848</ele>
        <time>2020-10-06T13:37:48.115Z</time>
      </trkpt>
      <trkpt lat="54.65928" lon="25.23292">
        <ele>101.275211</ele>
        <time>2020-10-06T13:37:49.702Z</time>
      </trkpt>
      <trkpt lat="54.6592" lon="25.23283">
        <ele>101.184664</ele>
        <time>2020-10-06T13:37:51.411Z</time>
      </trkpt>
      <trkpt lat="54.65913" lon="25.23275">
        <ele>101.098254</ele>
        <time>2020-10-06T13:37:53.095Z</time>
      </trkpt>
      <trkpt lat="54.65906" lon="25.23264">
        <ele>100.998687</ele>
        <time>2020-10-06T13:37:54.903Z</time>
      </trkpt>
      <trkpt lat="54.65888" lon="25.23237">
        <ele>100.755414</ele>
        <time>2020-10-06T13:37:59.330Z</time>
      </trkpt>
      <trkpt lat="54.65872" lon="25.23209">
        <ele>100.52116</ele>
        <time>2020-10-06T13:38:03.486Z</time>
      </trkpt>
      <trkpt lat="54.65813" lon="25.23103">
        <ele>99.565737</ele>
        <time>2020-10-06T13:38:19.287Z</time>
      </trkpt>
      <trkpt lat="54.65777" lon="25.23038">
        <ele>98.970201</ele>
        <time>2020-10-06T13:38:29.246Z</time>
      </trkpt>
      <trkpt lat="54.65683" lon="25.2287">
        <ele>97.84837</ele>
        <time>2020-10-06T13:38:56.084Z</time>
      </trkpt>
      <trkpt lat="54.65545" lon="25.22623">
        <ele>96.787319</ele>
        <time>2020-10-06T13:39:36.929Z</time>
      </trkpt>
      <trkpt lat="54.65487" lon="25.22525">
        <ele>96.475092</ele>
        <time>2020-10-06T13:39:53.930Z</time>
      </trkpt>
      <trkpt lat="54.65439" lon="25.2244">
        <ele>96.487276</ele>
        <time>2020-10-06T13:40:09.043Z</time>
      </trkpt>
      <trkpt lat="54.65429" lon="25.22424">
        <ele>96.489598</ele>
        <time>2020-10-06T13:40:12.094Z</time>
      </trkpt>
      <trkpt lat="54.6531" lon="25.22209">
        <ele>96.38205</ele>
        <time>2020-10-06T13:40:51.502Z</time>
      </trkpt>
      <trkpt lat="54.65288" lon="25.22169">
        <ele>96.333084</ele>
        <time>2020-10-06T13:40:58.497Z</time>
      </trkpt>
      <trkpt lat="54.65221" lon="25.22047">
        <ele>96.10224</ele>
        <time>2020-10-06T13:41:18.701Z</time>
      </trkpt>
      <trkpt lat="54.6519" lon="25.21993">
        <ele>95.917252</ele>
        <time>2020-10-06T13:41:27.333Z</time>
      </trkpt>
      <trkpt lat="54.65166" lon="25.21949">
        <ele>95.768499</ele>
        <time>2020-10-06T13:41:34.255Z</time>
      </trkpt>
      <trkpt lat="54.65099" lon="25.2183">
        <ele>95.599138</ele>
        <time>2020-10-06T13:41:55.190Z</time>
      </trkpt>
      <trkpt lat="54.65096" lon="25.21824">
        <ele>95.621182</ele>
        <time>2020-10-06T13:41:56.193Z</time>
      </trkpt>
      <trkpt lat="54.65068" lon="25.21774">
        <ele>95.824912</ele>
        <time>2020-10-06T13:42:05.779Z</time>
      </trkpt>
      <trkpt lat="54.65062" lon="25.21764">
        <ele>95.864062</ele>
        <time>2020-10-06T13:42:07.716Z</time>
      </trkpt>
      <trkpt lat="54.65012" lon="25.21675">
        <ele>96.224454</ele>
        <time>2020-10-06T13:42:25.628Z</time>
      </trkpt>
      <trkpt lat="54.64988" lon="25.21632">
        <ele>96.416417</ele>
        <time>2020-10-06T13:42:34.895Z</time>
      </trkpt>
      <trkpt lat="54.64952" lon="25.21568">
        <ele>96.831086</ele>
        <time>2020-10-06T13:42:49.016Z</time>
      </trkpt>
      <trkpt lat="54.64805" lon="25.21309">
        <ele>98.252273</ele>
        <time>2020-10-06T13:43:40.979Z</time>
      </trkpt>
      <trkpt lat="54.64792" lon="25.21285">
        <ele>98.349293</ele>
        <time>2020-10-06T13:43:45.364Z</time>
      </trkpt>
      <trkpt lat="54.64763" lon="25.21234">
        <ele>98.553568</ele>
        <time>2020-10-06T13:43:55.008Z</time>
      </trkpt>
      <trkpt lat="54.64699" lon="25.21119">
        <ele>99.433768</ele>
        <time>2020-10-06T13:44:17.830Z</time>
      </trkpt>
      <trkpt lat="54.6469" lon="25.21103">
        <ele>99.588118</ele>
        <time>2020-10-06T13:44:21.070Z</time>
      </trkpt>
      <trkpt lat="54.6466" lon="25.21051">
        <ele>100.094616</ele>
        <time>2020-10-06T13:44:32.583Z</time>
      </trkpt>
      <trkpt lat="54.64645" lon="25.21025">
        <ele>100.349269</ele>
        <time>2020-10-06T13:44:38.744Z</time>
      </trkpt>
      <trkpt lat="54.64589" lon="25.2092">
        <ele>101.560259</ele>
        <time>2020-10-06T13:45:03.784Z</time>
      </trkpt>
      <trkpt lat="54.64542" lon="25.20837">
        <ele>102.727599</ele>
        <time>2020-10-06T13:45:23.797Z</time>
      </trkpt>
      <trkpt lat="54.64516" lon="25.20793">
        <ele>103.358185</ele>
        <time>2020-10-06T13:45:34.344Z</time>
      </trkpt>
      <trkpt lat="54.64513" lon="25.20786">
        <ele>103.454091</ele>
        <time>2020-10-06T13:45:35.837Z</time>
      </trkpt>
      <trkpt lat="54.64495" lon="25.20752">
        <ele>103.915571</ele>
        <time>2020-10-06T13:45:43.477Z</time>
      </trkpt>
      <trkpt lat="54.64482" lon="25.2072">
        <ele>104.191084</ele>
        <time>2020-10-06T13:45:49.725Z</time>
      </trkpt>
      <trkpt lat="54.64462" lon="25.2067">
        <ele>104.560448</ele>
        <time>2020-10-06T13:45:59.286Z</time>
      </trkpt>
      <trkpt lat="54.64429" lon="25.20574">
        <ele>105.236258</ele>
        <time>2020-10-06T13:46:16.079Z</time>
      </trkpt>
      <trkpt lat="54.64423" lon="25.20557">
        <ele>105.353628</ele>
        <time>2020-10-06T13:46:18.957Z</time>
      </trkpt>
      <trkpt lat="54.64418" lon="25.20519">
        <ele>105.591871</ele>
        <time>2020-10-06T13:46:24.673Z</time>
      </trkpt>
      <trkpt lat="54.64404" lon="25.20435">
        <ele>106.225003</ele>
        <time>2020-10-06T13:46:37.781Z</time>
      </trkpt>
      <trkpt lat="54.64402" lon="25.20402">
        <ele>106.516931</ele>
        <time>2020-10-06T13:46:42.683Z</time>
      </trkpt>
      <trkpt lat="54.644" lon="25.20355">
        <ele>106.934399</ele>
        <time>2020-10-06T13:46:49.841Z</time>
      </trkpt>
      <trkpt lat="54.644" lon="25.20326">
        <ele>107.191105</ele>
        <time>2020-10-06T13:46:54.308Z</time>
      </trkpt>
      <trkpt lat="54.64399" lon="25.2031">
        <ele>107.335331</ele>
        <time>2020-10-06T13:46:56.853Z</time>
      </trkpt>
      <trkpt lat="54.64399" lon="25.20241">
        <ele>107.946638</ele>
        <time>2020-10-06T13:47:07.952Z</time>
      </trkpt>
      <trkpt lat="54.64399" lon="25.20225">
        <ele>108.084648</ele>
        <time>2020-10-06T13:47:10.585Z</time>
      </trkpt>
      <trkpt lat="54.64399" lon="25.20119">
        <ele>109.785197</ele>
        <time>2020-10-06T13:47:30.308Z</time>
      </trkpt>
      <trkpt lat="54.64399" lon="25.20088">
        <ele>110.590378</ele>
        <time>2020-10-06T13:47:36.994Z</time>
      </trkpt>
      <trkpt lat="54.64399" lon="25.20049">
        <ele>111.625984</ele>
        <time>2020-10-06T13:47:45.233Z</time>
      </trkpt>
      <trkpt lat="54.64399" lon="25.19926">
        <ele>114.891713</ele>
        <time>2020-10-06T13:48:16.176Z</time>
      </trkpt>
      <trkpt lat="54.64399" lon="25.19867">
        <ele>116.464977</ele>
        <time>2020-10-06T13:48:32.160Z</time>
      </trkpt>
      <trkpt lat="54.644" lon="25.19851">
        <ele>116.879282</ele>
        <time>2020-10-06T13:48:35.904Z</time>
      </trkpt>
      <trkpt lat="54.644" lon="25.19819">
        <ele>117.957181</ele>
        <time>2020-10-06T13:48:44.942Z</time>
      </trkpt>
      <trkpt lat="54.64403" lon="25.19793">
        <ele>118.86224</ele>
        <time>2020-10-06T13:48:51.937Z</time>
      </trkpt>
      <trkpt lat="54.6441" lon="25.19762">
        <ele>119.98404</ele>
        <time>2020-10-06T13:49:01.269Z</time>
      </trkpt>
      <trkpt lat="54.64403" lon="25.19754">
        <ele>120.471392</ele>
        <time>2020-10-06T13:49:06.069Z</time>
      </trkpt>
      <trkpt lat="54.64396" lon="25.19727">
        <ele>121.452406</ele>
        <time>2020-10-06T13:49:14.253Z</time>
      </trkpt>
      <trkpt lat="54.64396" lon="25.19717">
        <ele>121.784278</ele>
        <time>2020-10-06T13:49:17.838Z</time>
      </trkpt>
      <trkpt lat="54.64398" lon="25.19692">
        <ele>122.64871</ele>
        <time>2020-10-06T13:49:26.029Z</time>
      </trkpt>
      <trkpt lat="54.64403" lon="25.19556">
        <ele>127.229008</ele>
        <time>2020-10-06T13:50:06.930Z</time>
      </trkpt>
      <trkpt lat="54.64417" lon="25.19461">
        <ele>130.022432</ele>
        <time>2020-10-06T13:50:35.369Z</time>
      </trkpt>
      <trkpt lat="54.64486" lon="25.19286">
        <ele>135.98305</ele>
        <time>2020-10-06T13:51:33.257Z</time>
      </trkpt>
      <trkpt lat="54.64491" lon="25.19256">
        <ele>136.932344</ele>
        <time>2020-10-06T13:51:42.342Z</time>
      </trkpt>
      <trkpt lat="54.64488" lon="25.19214">
        <ele>138.209051</ele>
        <time>2020-10-06T13:51:54.663Z</time>
      </trkpt>
      <trkpt lat="54.64479" lon="25.19193">
        <ele>139.00773</ele>
        <time>2020-10-06T13:52:02.445Z</time>
      </trkpt>
      <trkpt lat="54.64462" lon="25.19176">
        <ele>140.047357</ele>
        <time>2020-10-06T13:52:12.461Z</time>
      </trkpt>
      <trkpt lat="54.64397" lon="25.19183">
        <ele>143.515012</ele>
        <time>2020-10-06T13:52:45.889Z</time>
      </trkpt>
      <trkpt lat="54.64386" lon="25.19177">
        <ele>144.108479</ele>
        <time>2020-10-06T13:52:51.590Z</time>
      </trkpt>
      <trkpt lat="54.64349" lon="25.19125">
        <ele>146.605063</ele>
        <time>2020-10-06T13:53:15.793Z</time>
      </trkpt>
      <trkpt lat="54.64335" lon="25.19092">
        <ele>147.851895</ele>
        <time>2020-10-06T13:53:28.026Z</time>
      </trkpt>
      <trkpt lat="54.6431" lon="25.19065">
        <ele>149.378387</ele>
        <time>2020-10-06T13:53:42.833Z</time>
      </trkpt>
      <trkpt lat="54.64267" lon="25.19061">
        <ele>151.628306</ele>
        <time>2020-10-06T13:54:04.353Z</time>
      </trkpt>
      <trkpt lat="54.64221" lon="25.19084">
        <ele>154.078942</ele>
        <time>2020-10-06T13:54:27.282Z</time>
      </trkpt>
      <trkpt lat="54.64195" lon="25.19086">
        <ele>155.413998</ele>
        <time>2020-10-06T13:54:40.333Z</time>
      </trkpt>
      <trkpt lat="54.64172" lon="25.1907">
        <ele>156.603304</ele>
        <time>2020-10-06T13:54:52.897Z</time>
      </trkpt>
      <trkpt lat="54.64131" lon="25.18982">
        <ele>159.727638</ele>
        <time>2020-10-06T13:55:27.575Z</time>
      </trkpt>
      <trkpt lat="54.64112" lon="25.18927">
        <ele>161.518528</ele>
        <time>2020-10-06T13:55:46.079Z</time>
      </trkpt>
      <trkpt lat="54.64091" lon="25.18757">
        <ele>164.500894</ele>
        <time>2020-10-06T13:56:28.643Z</time>
      </trkpt>
      <trkpt lat="54.64089" lon="25.18739">
        <ele>164.662811</ele>
        <time>2020-10-06T13:56:31.627Z</time>
      </trkpt>
      <trkpt lat="54.64083" lon="25.18667">
        <ele>165.336892</ele>
        <time>2020-10-06T13:56:47.175Z</time>
      </trkpt>
      <trkpt lat="54.64077" lon="25.18617">
        <ele>165.806564</ele>
        <time>2020-10-06T13:56:56.903Z</time>
      </trkpt>
      <trkpt lat="54.64072" lon="25.18563">
        <ele>166.306144</ele>
        <time>2020-10-06T13:57:09.354Z</time>
      </trkpt>
      <trkpt lat="54.64066" lon="25.18505">
        <ele>166.115913</ele>
        <time>2020-10-06T13:57:21.385Z</time>
      </trkpt>
      <trkpt lat="54.64064" lon="25.18495">
        <ele>166.031273</ele>
        <time>2020-10-06T13:57:23.264Z</time>
      </trkpt>
      <trkpt lat="54.64081" lon="25.18481">
        <ele>165.787855</ele>
        <time>2020-10-06T13:57:26.939Z</time>
      </trkpt>
      <trkpt lat="54.64096" lon="25.18472">
        <ele>165.583133</ele>
        <time>2020-10-06T13:57:29.760Z</time>
      </trkpt>
      <trkpt lat="54.64112" lon="25.18463">
        <ele>165.362458</ele>
        <time>2020-10-06T13:57:33.120Z</time>
      </trkpt>
      <trkpt lat="54.64189" lon="25.18423">
        <ele>164.318581</ele>
        <time>2020-10-06T13:57:47.524Z</time>
      </trkpt>
      <trkpt lat="54.64198" lon="25.18416">
        <ele>164.188818</ele>
        <time>2020-10-06T13:57:49.082Z</time>
      </trkpt>
      <trkpt lat="54.64217" lon="25.18381">
        <ele>163.838648</ele>
        <time>2020-10-06T13:57:54.342Z</time>
      </trkpt>
      <trkpt lat="54.64225" lon="25.18334">
        <ele>163.492851</ele>
        <time>2020-10-06T13:57:59.365Z</time>
      </trkpt>
      <trkpt lat="54.64224" lon="25.18317">
        <ele>163.374206</ele>
        <time>2020-10-06T13:58:01.063Z</time>
      </trkpt>
      <trkpt lat="54.64222" lon="25.18303">
        <ele>163.274476</ele>
        <time>2020-10-06T13:58:02.351Z</time>
      </trkpt>
      <trkpt lat="54.64214" lon="25.18275">
        <ele>163.046578</ele>
        <time>2020-10-06T13:58:06.390Z</time>
      </trkpt>
      <trkpt lat="54.64197" lon="25.18245">
        <ele>162.746602</ele>
        <time>2020-10-06T13:58:10.782Z</time>
      </trkpt>
      <trkpt lat="54.64173" lon="25.18215">
        <ele>162.391787</ele>
        <time>2020-10-06T13:58:16.181Z</time>
      </trkpt>
      <trkpt lat="54.64135" lon="25.18166">
        <ele>161.902641</ele>
        <time>2020-10-06T13:58:26.549Z</time>
      </trkpt>
      <trkpt lat="54.64035" lon="25.18039">
        <ele>161.951832</ele>
        <time>2020-10-06T13:58:55.971Z</time>
      </trkpt>
      <trkpt lat="54.64017" lon="25.18018">
        <ele>161.96035</ele>
        <time>2020-10-06T13:59:00.730Z</time>
      </trkpt>
      <trkpt lat="54.63976" lon="25.17964">
        <ele>161.657304</ele>
        <time>2020-10-06T13:59:12.299Z</time>
      </trkpt>
      <trkpt lat="54.63955" lon="25.17934">
        <ele>161.326858</ele>
        <time>2020-10-06T13:59:17.574Z</time>
      </trkpt>
      <trkpt lat="54.63937" lon="25.17911">
        <ele>161.048039</ele>
        <time>2020-10-06T13:59:21.756Z</time>
      </trkpt>
      <trkpt lat="54.63957" lon="25.17877">
        <ele>160.703361</ele>
        <time>2020-10-06T13:59:26.689Z</time>
      </trkpt>
      <trkpt lat="54.64162" lon="25.17532">
        <ele>156.802966</ele>
        <time>2020-10-06T14:00:18.088Z</time>
      </trkpt>
      <trkpt lat="54.64192" lon="25.17466">
        <ele>156.808294</ele>
        <time>2020-10-06T14:00:29.342Z</time>
      </trkpt>
      <trkpt lat="54.64204" lon="25.17431">
        <ele>156.810846</ele>
        <time>2020-10-06T14:00:34.767Z</time>
      </trkpt>
      <trkpt lat="54.64215" lon="25.17391">
        <ele>156.813603</ele>
        <time>2020-10-06T14:00:40.984Z</time>
      </trkpt>
      <trkpt lat="54.64224" lon="25.17347">
        <ele>156.816541</ele>
        <time>2020-10-06T14:00:47.642Z</time>
      </trkpt>
      <trkpt lat="54.64231" lon="25.17292">
        <ele>156.8685</ele>
        <time>2020-10-06T14:00:55.996Z</time>
      </trkpt>
      <trkpt lat="54.64244" lon="25.17171">
        <ele>157.489542</ele>
        <time>2020-10-06T14:01:15.155Z</time>
      </trkpt>
      <trkpt lat="54.64277" lon="25.16861">
        <ele>158.933202</ele>
        <time>2020-10-06T14:02:01.682Z</time>
      </trkpt>
      <trkpt lat="54.64338" lon="25.16281">
        <ele>160.836426</ele>
        <time>2020-10-06T14:03:25.915Z</time>
      </trkpt>
      <trkpt lat="54.64357" lon="25.16103">
        <ele>161.050408</ele>
        <time>2020-10-06T14:03:49.966Z</time>
      </trkpt>
      <trkpt lat="54.64435" lon="25.15376">
        <ele>159.523517</ele>
        <time>2020-10-06T14:05:19.870Z</time>
      </trkpt>
      <trkpt lat="54.64444" lon="25.15295">
        <ele>159.220145</ele>
        <time>2020-10-06T14:05:29.122Z</time>
      </trkpt>
      <trkpt lat="54.64451" lon="25.15231">
        <ele>158.983735</ele>
        <time>2020-10-06T14:05:36.540Z</time>
      </trkpt>
      <trkpt lat="54.64457" lon="25.15178">
        <ele>158.787503</ele>
        <time>2020-10-06T14:05:43.023Z</time>
      </trkpt>
      <trkpt lat="54.64472" lon="25.15037">
        <ele>158.135693</ele>
        <time>2020-10-06T14:06:00.586Z</time>
      </trkpt>
      <trkpt lat="54.64485" lon="25.14924">
        <ele>157.603243</ele>
        <time>2020-10-06T14:06:14.238Z</time>
      </trkpt>
      <trkpt lat="54.64503" lon="25.1475">
        <ele>155.778189</ele>
        <time>2020-10-06T14:06:32.679Z</time>
      </trkpt>
      <trkpt lat="54.64524" lon="25.14562">
        <ele>153.113598</ele>
        <time>2020-10-06T14:06:50.965Z</time>
      </trkpt>
      <trkpt lat="54.64528" lon="25.14521">
        <ele>152.628734</ele>
        <time>2020-10-06T14:06:55.038Z</time>
      </trkpt>
      <trkpt lat="54.64532" lon="25.14485">
        <ele>152.238327</ele>
        <time>2020-10-06T14:06:58.735Z</time>
      </trkpt>
      <trkpt lat="54.64541" lon="25.14405">
        <ele>151.363583</ele>
        <time>2020-10-06T14:07:06.958Z</time>
      </trkpt>
      <trkpt lat="54.64548" lon="25.14334">
        <ele>150.585499</ele>
        <time>2020-10-06T14:07:14.742Z</time>
      </trkpt>
      <trkpt lat="54.64555" lon="25.1427">
        <ele>149.885208</ele>
        <time>2020-10-06T14:07:21.984Z</time>
      </trkpt>
      <trkpt lat="54.64557" lon="25.14249">
        <ele>149.655876</ele>
        <time>2020-10-06T14:07:24.592Z</time>
      </trkpt>
      <trkpt lat="54.64579" lon="25.14051">
        <ele>146.286419</ele>
        <time>2020-10-06T14:07:45.296Z</time>
      </trkpt>
      <trkpt lat="54.64592" lon="25.13924">
        <ele>143.958729</ele>
        <time>2020-10-06T14:07:56.783Z</time>
      </trkpt>
      <trkpt lat="54.64596" lon="25.1389">
        <ele>143.039399</ele>
        <time>2020-10-06T14:07:59.796Z</time>
      </trkpt>
      <trkpt lat="54.64603" lon="25.13822">
        <ele>141.235217</ele>
        <time>2020-10-06T14:08:05.757Z</time>
      </trkpt>
      <trkpt lat="54.64604" lon="25.13813">
        <ele>140.990211</ele>
        <time>2020-10-06T14:08:06.573Z</time>
      </trkpt>
      <trkpt lat="54.64623" lon="25.13636">
        <ele>136.272549</ele>
        <time>2020-10-06T14:08:22.516Z</time>
      </trkpt>
      <trkpt lat="54.64644" lon="25.13441">
        <ele>135.079981</ele>
        <time>2020-10-06T14:08:43.266Z</time>
      </trkpt>
      <trkpt lat="54.64648" lon="25.13403">
        <ele>134.855451</ele>
        <time>2020-10-06T14:08:48.078Z</time>
      </trkpt>
      <trkpt lat="54.64711" lon="25.12809">
        <ele>138.421947</ele>
        <time>2020-10-06T14:10:28.045Z</time>
      </trkpt>
      <trkpt lat="54.64718" lon="25.12746">
        <ele>138.808691</ele>
        <time>2020-10-06T14:10:37.525Z</time>
      </trkpt>
      <trkpt lat="54.64726" lon="25.12661">
        <ele>137.740838</ele>
        <time>2020-10-06T14:10:49.153Z</time>
      </trkpt>
      <trkpt lat="54.64732" lon="25.12503">
        <ele>134.29649</ele>
        <time>2020-10-06T14:11:03.903Z</time>
      </trkpt>
      <trkpt lat="54.64754" lon="25.12419">
        <ele>132.282369</ele>
        <time>2020-10-06T14:11:11.662Z</time>
      </trkpt>
      <trkpt lat="54.64757" lon="25.12406">
        <ele>131.761338</ele>
        <time>2020-10-06T14:11:12.770Z</time>
      </trkpt>
      <trkpt lat="54.6476" lon="25.12386">
        <ele>130.880302</ele>
        <time>2020-10-06T14:11:14.486Z</time>
      </trkpt>
      <trkpt lat="54.64764" lon="25.1236">
        <ele>129.780971</ele>
        <time>2020-10-06T14:11:16.645Z</time>
      </trkpt>
      <trkpt lat="54.64776" lon="25.12246">
        <ele>124.892601</ele>
        <time>2020-10-06T14:11:26.072Z</time>
      </trkpt>
      <trkpt lat="54.64788" lon="25.12133">
        <ele>120.065873</ele>
        <time>2020-10-06T14:11:35.423Z</time>
      </trkpt>
      <trkpt lat="54.64798" lon="25.12047">
        <ele>118.826753</ele>
        <time>2020-10-06T14:11:43.087Z</time>
      </trkpt>
      <trkpt lat="54.648" lon="25.12032">
        <ele>118.757089</ele>
        <time>2020-10-06T14:11:44.497Z</time>
      </trkpt>
      <trkpt lat="54.64801" lon="25.12018">
        <ele>118.696237</ele>
        <time>2020-10-06T14:11:45.722Z</time>
      </trkpt>
      <trkpt lat="54.648" lon="25.12005">
        <ele>118.635236</ele>
        <time>2020-10-06T14:11:47.052Z</time>
      </trkpt>
      <trkpt lat="54.64791" lon="25.11907">
        <ele>118.178027</ele>
        <time>2020-10-06T14:11:59.114Z</time>
      </trkpt>
      <trkpt lat="54.64778" lon="25.11792">
        <ele>118.105894</ele>
        <time>2020-10-06T14:12:22.651Z</time>
      </trkpt>
      <trkpt lat="54.6477" lon="25.11704">
        <ele>120.801508</ele>
        <time>2020-10-06T14:12:44.576Z</time>
      </trkpt>
      <trkpt lat="54.64768" lon="25.11665">
        <ele>121.967397</ele>
        <time>2020-10-06T14:12:54.044Z</time>
      </trkpt>
      <trkpt lat="54.64766" lon="25.1158">
        <ele>124.524085</ele>
        <time>2020-10-06T14:13:16.956Z</time>
      </trkpt>
      <trkpt lat="54.64766" lon="25.11566">
        <ele>124.945432</ele>
        <time>2020-10-06T14:13:20.681Z</time>
      </trkpt>
      <trkpt lat="54.64765" lon="25.115">
        <ele>126.93481</ele>
        <time>2020-10-06T14:13:38.736Z</time>
      </trkpt>
      <trkpt lat="54.64765" lon="25.11351">
        <ele>131.194754</ele>
        <time>2020-10-06T14:14:16.956Z</time>
      </trkpt>
      <trkpt lat="54.64768" lon="25.11209">
        <ele>135.229793</ele>
        <time>2020-10-06T14:14:50.016Z</time>
      </trkpt>
      <trkpt lat="54.64771" lon="25.11094">
        <ele>137.923365</ele>
        <time>2020-10-06T14:15:14.828Z</time>
      </trkpt>
      <trkpt lat="54.64771" lon="25.11086">
        <ele>138.110053</ele>
        <time>2020-10-06T14:15:17.008Z</time>
      </trkpt>
      <trkpt lat="54.64775" lon="25.10942">
        <ele>141.310071</ele>
        <time>2020-10-06T14:15:48.218Z</time>
      </trkpt>
      <trkpt lat="54.64778" lon="25.1081">
        <ele>143.848347</ele>
        <time>2020-10-06T14:16:16.814Z</time>
      </trkpt>
      <trkpt lat="54.64778" lon="25.10794">
        <ele>144.106149</ele>
        <time>2020-10-06T14:16:20.172Z</time>
      </trkpt>
      <trkpt lat="54.64785" lon="25.10567">
        <ele>147.783976</ele>
        <time>2020-10-06T14:17:03.447Z</time>
      </trkpt>
      <trkpt lat="54.64785" lon="25.10541">
        <ele>147.96832</ele>
        <time>2020-10-06T14:17:07.844Z</time>
      </trkpt>
      <trkpt lat="54.64783" lon="25.10496">
        <ele>148.237628</ele>
        <time>2020-10-06T14:17:15.209Z</time>
      </trkpt>
      <trkpt lat="54.64776" lon="25.10453">
        <ele>148.501515</ele>
        <time>2020-10-06T14:17:22.033Z</time>
      </trkpt>
      <trkpt lat="54.64709" lon="25.10221">
        <ele>149.776305</ele>
        <time>2020-10-06T14:17:59.280Z</time>
      </trkpt>
      <trkpt lat="54.64654" lon="25.10028">
        <ele>150.124891</ele>
        <time>2020-10-06T14:18:29.467Z</time>
      </trkpt>
      <trkpt lat="54.64617" lon="25.09897">
        <ele>149.127949</ele>
        <time>2020-10-06T14:18:46.284Z</time>
      </trkpt>
      <trkpt lat="54.64605" lon="25.09861">
        <ele>148.743653</ele>
        <time>2020-10-06T14:18:50.575Z</time>
      </trkpt>
      <trkpt lat="54.64595" lon="25.09835">
        <ele>148.457832</ele>
        <time>2020-10-06T14:18:53.651Z</time>
      </trkpt>
      <trkpt lat="54.64539" lon="25.09693">
        <ele>146.746843</ele>
        <time>2020-10-06T14:19:10.702Z</time>
      </trkpt>
      <trkpt lat="54.64533" lon="25.09676">
        <ele>146.515844</ele>
        <time>2020-10-06T14:19:12.579Z</time>
      </trkpt>
      <trkpt lat="54.64525" lon="25.09622">
        <ele>145.867179</ele>
        <time>2020-10-06T14:19:18.065Z</time>
      </trkpt>
      <trkpt lat="54.64525" lon="25.09574">
        <ele>145.320714</ele>
        <time>2020-10-06T14:19:22.785Z</time>
      </trkpt>
      <trkpt lat="54.64535" lon="25.09464">
        <ele>144.029396</ele>
        <time>2020-10-06T14:19:34.401Z</time>
      </trkpt>
      <trkpt lat="54.64539" lon="25.09424">
        <ele>143.691405</ele>
        <time>2020-10-06T14:19:38.865Z</time>
      </trkpt>
      <trkpt lat="54.64544" lon="25.09336">
        <ele>143.803816</ele>
        <time>2020-10-06T14:19:49.668Z</time>
      </trkpt>
      <trkpt lat="54.64537" lon="25.09275">
        <ele>143.883294</ele>
        <time>2020-10-06T14:19:57.678Z</time>
      </trkpt>
      <trkpt lat="54.64525" lon="25.09241">
        <ele>143.934893</ele>
        <time>2020-10-06T14:20:03.490Z</time>
      </trkpt>
      <trkpt lat="54.64493" lon="25.09187">
        <ele>144.031794</ele>
        <time>2020-10-06T14:20:14.789Z</time>
      </trkpt>
      <trkpt lat="54.64436" lon="25.09101">
        <ele>145.336131</ele>
        <time>2020-10-06T14:20:35.954Z</time>
      </trkpt>
      <trkpt lat="54.64427" lon="25.09088">
        <ele>145.590457</ele>
        <time>2020-10-06T14:20:39.913Z</time>
      </trkpt>
      <trkpt lat="54.64367" lon="25.08994">
        <ele>147.395547</ele>
        <time>2020-10-06T14:21:05.893Z</time>
      </trkpt>
      <trkpt lat="54.64351" lon="25.08947">
        <ele>148.107939</ele>
        <time>2020-10-06T14:21:16.840Z</time>
      </trkpt>
      <trkpt lat="54.64347" lon="25.08919">
        <ele>148.614952</ele>
        <time>2020-10-06T14:21:22.152Z</time>
      </trkpt>
      <trkpt lat="54.64346" lon="25.08907">
        <ele>148.815934</ele>
        <time>2020-10-06T14:21:25.124Z</time>
      </trkpt>
      <trkpt lat="54.64362" lon="25.08419">
        <ele>156.666589</ele>
        <time>2020-10-06T14:23:02.737Z</time>
      </trkpt>
      <trkpt lat="54.64365" lon="25.08327">
        <ele>157.952311</ele>
        <time>2020-10-06T14:23:18.206Z</time>
      </trkpt>
      <trkpt lat="54.64366" lon="25.08321">
        <ele>157.97099</ele>
        <time>2020-10-06T14:23:19.194Z</time>
      </trkpt>
      <trkpt lat="54.64379" lon="25.07974">
        <ele>158.71683</ele>
        <time>2020-10-06T14:24:07.506Z</time>
      </trkpt>
      <trkpt lat="54.64399" lon="25.0744">
        <ele>155.993895</ele>
        <time>2020-10-06T14:25:07.042Z</time>
      </trkpt>
      <trkpt lat="54.64408" lon="25.07215">
        <ele>155.875269</ele>
        <time>2020-10-06T14:25:33.030Z</time>
      </trkpt>
      <trkpt lat="54.64422" lon="25.0679">
        <ele>158.510433</ele>
        <time>2020-10-06T14:26:42.112Z</time>
      </trkpt>
      <trkpt lat="54.64423" lon="25.06757">
        <ele>158.757441</ele>
        <time>2020-10-06T14:26:48.051Z</time>
      </trkpt>
      <trkpt lat="54.64425" lon="25.06702">
        <ele>159.129542</ele>
        <time>2020-10-06T14:26:57.523Z</time>
      </trkpt>
      <trkpt lat="54.6443" lon="25.06585">
        <ele>159.918947</ele>
        <time>2020-10-06T14:27:16.383Z</time>
      </trkpt>
      <trkpt lat="54.64432" lon="25.06511">
        <ele>160.418092</ele>
        <time>2020-10-06T14:27:27.506Z</time>
      </trkpt>
      <trkpt lat="54.64435" lon="25.06432">
        <ele>160.685692</ele>
        <time>2020-10-06T14:27:38.488Z</time>
      </trkpt>
      <trkpt lat="54.64436" lon="25.06414">
        <ele>160.671927</ele>
        <time>2020-10-06T14:27:40.872Z</time>
      </trkpt>
      <trkpt lat="54.6445" lon="25.06274">
        <ele>160.56545</ele>
        <time>2020-10-06T14:27:58.450Z</time>
      </trkpt>
      <trkpt lat="54.64472" lon="25.06074">
        <ele>160.385828</ele>
        <time>2020-10-06T14:28:23.164Z</time>
      </trkpt>
      <trkpt lat="54.6449" lon="25.05883">
        <ele>160.181198</ele>
        <time>2020-10-06T14:28:47.435Z</time>
      </trkpt>
      <trkpt lat="54.64511" lon="25.05656">
        <ele>160.420157</ele>
        <time>2020-10-06T14:29:17.611Z</time>
      </trkpt>
      <trkpt lat="54.64513" lon="25.0559">
        <ele>160.508937</ele>
        <time>2020-10-06T14:29:26.496Z</time>
      </trkpt>
      <trkpt lat="54.64513" lon="25.05574">
        <ele>160.529863</ele>
        <time>2020-10-06T14:29:28.599Z</time>
      </trkpt>
      <trkpt lat="54.64512" lon="25.05438">
        <ele>161.26632</ele>
        <time>2020-10-06T14:29:48.730Z</time>
      </trkpt>
      <trkpt lat="54.64512" lon="25.0541">
        <ele>161.450435</ele>
        <time>2020-10-06T14:29:53.587Z</time>
      </trkpt>
      <trkpt lat="54.64511" lon="25.05369">
        <ele>161.716808</ele>
        <time>2020-10-06T14:29:59.915Z</time>
      </trkpt>
      <trkpt lat="54.64508" lon="25.05339">
        <ele>161.912121</ele>
        <time>2020-10-06T14:30:04.984Z</time>
      </trkpt>
      <trkpt lat="54.64505" lon="25.05325">
        <ele>162.011229</ele>
        <time>2020-10-06T14:30:07.126Z</time>
      </trkpt>
      <trkpt lat="54.64497" lon="25.0533">
        <ele>162.10725</ele>
        <time>2020-10-06T14:30:09.567Z</time>
      </trkpt>
      <trkpt lat="54.6449" lon="25.05331">
        <ele>162.184735</ele>
        <time>2020-10-06T14:30:11.699Z</time>
      </trkpt>
      <trkpt lat="54.64483" lon="25.0533">
        <ele>162.263095</ele>
        <time>2020-10-06T14:30:13.791Z</time>
      </trkpt>
      <trkpt lat="54.64461" lon="25.05327">
        <ele>162.504001</ele>
        <time>2020-10-06T14:30:19.311Z</time>
      </trkpt>
      <trkpt lat="54.64451" lon="25.05325">
        <ele>162.63358</ele>
        <time>2020-10-06T14:30:22.485Z</time>
      </trkpt>
      <trkpt lat="54.64441" lon="25.0532">
        <ele>162.772413</ele>
        <time>2020-10-06T14:30:25.142Z</time>
      </trkpt>
      <trkpt lat="54.64434" lon="25.05313">
        <ele>162.893658</ele>
        <time>2020-10-06T14:30:27.240Z</time>
      </trkpt>
      <trkpt lat="54.64426" lon="25.05308">
        <ele>163.001731</ele>
        <time>2020-10-06T14:30:29.467Z</time>
      </trkpt>
      <trkpt lat="54.64423" lon="25.05296">
        <ele>163.111688</ele>
        <time>2020-10-06T14:30:31.878Z</time>
      </trkpt>
      <trkpt lat="54.64413" lon="25.05263">
        <ele>163.422573</ele>
        <time>2020-10-06T14:30:37.760Z</time>
      </trkpt>
      <trkpt lat="54.6441" lon="25.0525">
        <ele>163.535283</ele>
        <time>2020-10-06T14:30:40.258Z</time>
      </trkpt>
      <trkpt lat="54.6441" lon="25.05215">
        <ele>163.816424</ele>
        <time>2020-10-06T14:30:46.140Z</time>
      </trkpt>
      <trkpt lat="54.64414" lon="25.05114">
        <ele>164.642156</ele>
        <time>2020-10-06T14:31:03.069Z</time>
      </trkpt>
      <trkpt lat="54.64418" lon="25.05007">
        <ele>165.306558</ele>
        <time>2020-10-06T14:31:19.698Z</time>
      </trkpt>
      <trkpt lat="54.6442" lon="25.04974">
        <ele>165.440728</ele>
        <time>2020-10-06T14:31:24.609Z</time>
      </trkpt>
      <trkpt lat="54.64421" lon="25.04943">
        <ele>165.565141</ele>
        <time>2020-10-06T14:31:28.952Z</time>
      </trkpt>
      <trkpt lat="54.64423" lon="25.04884">
        <ele>165.804564</ele>
        <time>2020-10-06T14:31:37.342Z</time>
      </trkpt>
      <trkpt lat="54.64424" lon="25.04865">
        <ele>165.881056</ele>
        <time>2020-10-06T14:31:39.900Z</time>
      </trkpt>
      <trkpt lat="54.64426" lon="25.04828">
        <ele>166.033175</ele>
        <time>2020-10-06T14:31:45.312Z</time>
      </trkpt>
      <trkpt lat="54.64428" lon="25.04778">
        <ele>166.23807</ele>
        <time>2020-10-06T14:31:52.380Z</time>
      </trkpt>
      <trkpt lat="54.64428" lon="25.0477">
        <ele>166.269363</ele>
        <time>2020-10-06T14:31:53.473Z</time>
      </trkpt>
      <trkpt lat="54.64429" lon="25.04762">
        <ele>166.301465</ele>
        <time>2020-10-06T14:31:54.512Z</time>
      </trkpt>
      <trkpt lat="54.64431" lon="25.0471">
        <ele>166.526973</ele>
        <time>2020-10-06T14:32:02.021Z</time>
      </trkpt>
      <trkpt lat="54.64431" lon="25.04702">
        <ele>166.561004</ele>
        <time>2020-10-06T14:32:03.071Z</time>
      </trkpt>
      <trkpt lat="54.64431" lon="25.04665">
        <ele>166.722839</ele>
        <time>2020-10-06T14:32:08.089Z</time>
      </trkpt>
      <trkpt lat="54.64431" lon="25.04647">
        <ele>166.804474</ele>
        <time>2020-10-06T14:32:10.816Z</time>
      </trkpt>
      <trkpt lat="54.64429" lon="25.04612">
        <ele>166.958739</ele>
        <time>2020-10-06T14:32:15.546Z</time>
      </trkpt>
      <trkpt lat="54.64427" lon="25.04558">
        <ele>167.197682</ele>
        <time>2020-10-06T14:32:23.347Z</time>
      </trkpt>
      <trkpt lat="54.64426" lon="25.04546">
        <ele>167.251823</ele>
        <time>2020-10-06T14:32:25.083Z</time>
      </trkpt>
      <trkpt lat="54.64424" lon="25.04519">
        <ele>167.371945</ele>
        <time>2020-10-06T14:32:29.304Z</time>
      </trkpt>
      <trkpt lat="54.64419" lon="25.04449">
        <ele>167.681164</ele>
        <time>2020-10-06T14:32:40.114Z</time>
      </trkpt>
      <trkpt lat="54.64417" lon="25.04417">
        <ele>167.878114</ele>
        <time>2020-10-06T14:32:44.977Z</time>
      </trkpt>
      <trkpt lat="54.64414" lon="25.04347">
        <ele>168.376134</ele>
        <time>2020-10-06T14:32:56.776Z</time>
      </trkpt>
      <trkpt lat="54.64412" lon="25.04317">
        <ele>168.590369</ele>
        <time>2020-10-06T14:33:02.076Z</time>
      </trkpt>
      <trkpt lat="54.6441" lon="25.04293">
        <ele>168.765298</ele>
        <time>2020-10-06T14:33:05.980Z</time>
      </trkpt>
      <trkpt lat="54.64408" lon="25.04283">
        <ele>168.83695</ele>
        <time>2020-10-06T14:33:07.698Z</time>
      </trkpt>
      <trkpt lat="54.64405" lon="25.04264">
        <ele>168.975096</ele>
        <time>2020-10-06T14:33:11.214Z</time>
      </trkpt>
      <trkpt lat="54.64399" lon="25.04235">
        <ele>169.195621</ele>
        <time>2020-10-06T14:33:15.951Z</time>
      </trkpt>
      <trkpt lat="54.64391" lon="25.04197">
        <ele>169.480033</ele>
        <time>2020-10-06T14:33:22.372Z</time>
      </trkpt>
      <trkpt lat="54.64385" lon="25.0417">
        <ele>169.687782</ele>
        <time>2020-10-06T14:33:26.545Z</time>
      </trkpt>
      <trkpt lat="54.64367" lon="25.04097">
        <ele>169.897683</ele>
        <time>2020-10-06T14:33:37.949Z</time>
      </trkpt>
      <trkpt lat="54.64352" lon="25.04038">
        <ele>169.844839</ele>
        <time>2020-10-06T14:33:46.729Z</time>
      </trkpt>
      <trkpt lat="54.64332" lon="25.0397">
        <ele>169.782425</ele>
        <time>2020-10-06T14:33:56.313Z</time>
      </trkpt>
      <trkpt lat="54.6432" lon="25.03934">
        <ele>169.748487</ele>
        <time>2020-10-06T14:34:01.352Z</time>
      </trkpt>
      <trkpt lat="54.64315" lon="25.03914">
        <ele>169.730488</ele>
        <time>2020-10-06T14:34:03.903Z</time>
      </trkpt>
      <trkpt lat="54.64293" lon="25.03835">
        <ele>169.548557</ele>
        <time>2020-10-06T14:34:13.754Z</time>
      </trkpt>
      <trkpt lat="54.64289" lon="25.03812">
        <ele>169.426565</ele>
        <time>2020-10-06T14:34:16.430Z</time>
      </trkpt>
      <trkpt lat="54.64287" lon="25.03799">
        <ele>169.355719</ele>
        <time>2020-10-06T14:34:17.979Z</time>
      </trkpt>
      <trkpt lat="54.64278" lon="25.03735">
        <ele>169.013809</ele>
        <time>2020-10-06T14:34:25.437Z</time>
      </trkpt>
      <trkpt lat="54.64271" lon="25.03677">
        <ele>168.706716</ele>
        <time>2020-10-06T14:34:32.154Z</time>
      </trkpt>
      <trkpt lat="54.64269" lon="25.03654">
        <ele>168.589685</ele>
        <time>2020-10-06T14:34:34.689Z</time>
      </trkpt>
      <trkpt lat="54.64259" lon="25.03511">
        <ele>167.753526</ele>
        <time>2020-10-06T14:34:51.404Z</time>
      </trkpt>
      <trkpt lat="54.64254" lon="25.03454">
        <ele>167.343287</ele>
        <time>2020-10-06T14:34:57.696Z</time>
      </trkpt>
      <trkpt lat="54.64249" lon="25.03384">
        <ele>166.837304</ele>
        <time>2020-10-06T14:35:05.311Z</time>
      </trkpt>
      <trkpt lat="54.64241" lon="25.03289">
        <ele>166.156067</ele>
        <time>2020-10-06T14:35:15.525Z</time>
      </trkpt>
      <trkpt lat="54.64244" lon="25.03234">
        <ele>165.773052</ele>
        <time>2020-10-06T14:35:21.487Z</time>
      </trkpt>
      <trkpt lat="54.64247" lon="25.03213">
        <ele>165.648635</ele>
        <time>2020-10-06T14:35:23.730Z</time>
      </trkpt>
      <trkpt lat="54.64252" lon="25.03186">
        <ele>165.48153</ele>
        <time>2020-10-06T14:35:26.838Z</time>
      </trkpt>
      <trkpt lat="54.64281" lon="25.03032">
        <ele>164.535777</ele>
        <time>2020-10-06T14:35:44.675Z</time>
      </trkpt>
      <trkpt lat="54.64292" lon="25.02953">
        <ele>164.058389</ele>
        <time>2020-10-06T14:35:54.113Z</time>
      </trkpt>
      <trkpt lat="54.64292" lon="25.02801">
        <ele>164.305778</ele>
        <time>2020-10-06T14:36:13.506Z</time>
      </trkpt>
      <trkpt lat="54.64289" lon="25.02783">
        <ele>164.340513</ele>
        <time>2020-10-06T14:36:16.310Z</time>
      </trkpt>
      <trkpt lat="54.64285" lon="25.02763">
        <ele>164.378268</ele>
        <time>2020-10-06T14:36:19.205Z</time>
      </trkpt>
      <trkpt lat="54.64276" lon="25.02726">
        <ele>164.451991</ele>
        <time>2020-10-06T14:36:25.252Z</time>
      </trkpt>
      <trkpt lat="54.64272" lon="25.02709">
        <ele>164.487155</ele>
        <time>2020-10-06T14:36:27.982Z</time>
      </trkpt>
      <trkpt lat="54.64259" lon="25.02667">
        <ele>164.576195</ele>
        <time>2020-10-06T14:36:35.295Z</time>
      </trkpt>
      <trkpt lat="54.64241" lon="25.02617">
        <ele>164.79057</ele>
        <time>2020-10-06T14:36:44.059Z</time>
      </trkpt>
      <trkpt lat="54.64239" lon="25.02606">
        <ele>164.842987</ele>
        <time>2020-10-06T14:36:45.749Z</time>
      </trkpt>
      <trkpt lat="54.64239" lon="25.02596">
        <ele>164.885535</ele>
        <time>2020-10-06T14:36:47.143Z</time>
      </trkpt>
      <trkpt lat="54.64239" lon="25.02587">
        <ele>164.924745</ele>
        <time>2020-10-06T14:36:48.442Z</time>
      </trkpt>
      <trkpt lat="54.64241" lon="25.02579">
        <ele>164.967537</ele>
        <time>2020-10-06T14:36:49.795Z</time>
      </trkpt>
      <trkpt lat="54.64245" lon="25.0257">
        <ele>165.015959</ele>
        <time>2020-10-06T14:36:51.573Z</time>
      </trkpt>
      <trkpt lat="54.64248" lon="25.02567">
        <ele>165.041576</ele>
        <time>2020-10-06T14:36:52.527Z</time>
      </trkpt>
      <trkpt lat="54.64251" lon="25.02562">
        <ele>165.075343</ele>
        <time>2020-10-06T14:36:53.706Z</time>
      </trkpt>
      <trkpt lat="54.64261" lon="25.02545">
        <ele>165.180375</ele>
        <time>2020-10-06T14:36:57.160Z</time>
      </trkpt>
      <trkpt lat="54.64264" lon="25.02538">
        <ele>165.221618</ele>
        <time>2020-10-06T14:36:58.437Z</time>
      </trkpt>
      <trkpt lat="54.64266" lon="25.02531">
        <ele>165.255688</ele>
        <time>2020-10-06T14:36:59.614Z</time>
      </trkpt>
      <trkpt lat="54.64265" lon="25.02514">
        <ele>165.331379</ele>
        <time>2020-10-06T14:37:02.199Z</time>
      </trkpt>
      <trkpt lat="54.64255" lon="25.02447">
        <ele>165.637826</ele>
        <time>2020-10-06T14:37:12.251Z</time>
      </trkpt>
      <trkpt lat="54.64247" lon="25.02278">
        <ele>165.982707</ele>
        <time>2020-10-06T14:37:36.307Z</time>
      </trkpt>
      <trkpt lat="54.6425" lon="25.02062">
        <ele>165.96229</ele>
        <time>2020-10-06T14:38:03.365Z</time>
      </trkpt>
      <trkpt lat="54.64248" lon="25.02044">
        <ele>165.922545</ele>
        <time>2020-10-06T14:38:05.474Z</time>
      </trkpt>
      <trkpt lat="54.64245" lon="25.0202">
        <ele>165.849976</ele>
        <time>2020-10-06T14:38:08.513Z</time>
      </trkpt>
      <trkpt lat="54.64222" lon="25.01888">
        <ele>165.451268</ele>
        <time>2020-10-06T14:38:25.166Z</time>
      </trkpt>
      <trkpt lat="54.64221" lon="25.01884">
        <ele>165.43948</ele>
        <time>2020-10-06T14:38:25.686Z</time>
      </trkpt>
      <trkpt lat="54.64189" lon="25.01704">
        <ele>164.940133</ele>
        <time>2020-10-06T14:38:47.494Z</time>
      </trkpt>
      <trkpt lat="54.64174" lon="25.01653">
        <ele>164.81933</ele>
        <time>2020-10-06T14:38:54.305Z</time>
      </trkpt>
      <trkpt lat="54.64131" lon="25.0151">
        <ele>164.477944</ele>
        <time>2020-10-06T14:39:14.438Z</time>
      </trkpt>
      <trkpt lat="54.64074" lon="25.01322">
        <ele>163.882105</ele>
        <time>2020-10-06T14:39:40.373Z</time>
      </trkpt>
      <trkpt lat="54.64048" lon="25.01245">
        <ele>163.620209</ele>
        <time>2020-10-06T14:39:51.172Z</time>
      </trkpt>
      <trkpt lat="54.64037" lon="25.01219">
        <ele>163.524573</ele>
        <time>2020-10-06T14:39:54.900Z</time>
      </trkpt>
      <trkpt lat="54.63972" lon="25.01104">
        <ele>161.856026</ele>
        <time>2020-10-06T14:40:12.227Z</time>
      </trkpt>
      <trkpt lat="54.63956" lon="25.01075">
        <ele>161.405416</ele>
        <time>2020-10-06T14:40:16.294Z</time>
      </trkpt>
      <trkpt lat="54.63929" lon="25.01026">
        <ele>160.672586</ele>
        <time>2020-10-06T14:40:22.820Z</time>
      </trkpt>
      <trkpt lat="54.63906" lon="25.00981">
        <ele>159.988762</ele>
        <time>2020-10-06T14:40:28.743Z</time>
      </trkpt>
      <trkpt lat="54.6389" lon="25.00947">
        <ele>159.440478</ele>
        <time>2020-10-06T14:40:32.940Z</time>
      </trkpt>
      <trkpt lat="54.63869" lon="25.00902">
        <ele>158.696892</ele>
        <time>2020-10-06T14:40:38.691Z</time>
      </trkpt>
      <trkpt lat="54.6385" lon="25.00863">
        <ele>158.048578</ele>
        <time>2020-10-06T14:40:43.748Z</time>
      </trkpt>
      <trkpt lat="54.63834" lon="25.00821">
        <ele>157.403851</ele>
        <time>2020-10-06T14:40:48.836Z</time>
      </trkpt>
      <trkpt lat="54.63823" lon="25.00787">
        <ele>156.900849</ele>
        <time>2020-10-06T14:40:52.745Z</time>
      </trkpt>
      <trkpt lat="54.63758" lon="25.00587">
        <ele>154.861248</ele>
        <time>2020-10-06T14:41:17.077Z</time>
      </trkpt>
      <trkpt lat="54.63751" lon="25.00568">
        <ele>154.699724</ele>
        <time>2020-10-06T14:41:19.478Z</time>
      </trkpt>
      <trkpt lat="54.63717" lon="25.00457">
        <ele>153.786696</ele>
        <time>2020-10-06T14:41:33.894Z</time>
      </trkpt>
      <trkpt lat="54.63714" lon="25.00448">
        <ele>153.747901</ele>
        <time>2020-10-06T14:41:35.033Z</time>
      </trkpt>
      <trkpt lat="54.63671" lon="25.00289">
        <ele>153.072359</ele>
        <time>2020-10-06T14:41:55.209Z</time>
      </trkpt>
      <trkpt lat="54.63567" lon="24.99881">
        <ele>151.81549</ele>
        <time>2020-10-06T14:42:48.790Z</time>
      </trkpt>
      <trkpt lat="54.63561" lon="24.9986">
        <ele>151.780766</ele>
        <time>2020-10-06T14:42:51.714Z</time>
      </trkpt>
      <trkpt lat="54.63554" lon="24.99841">
        <ele>151.74861</ele>
        <time>2020-10-06T14:42:54.379Z</time>
      </trkpt>
      <trkpt lat="54.63547" lon="24.99824">
        <ele>151.718581</ele>
        <time>2020-10-06T14:42:56.792Z</time>
      </trkpt>
      <trkpt lat="54.63373" lon="24.99535">
        <ele>151.583339</ele>
        <time>2020-10-06T14:43:48.948Z</time>
      </trkpt>
      <trkpt lat="54.63354" lon="24.99486">
        <ele>151.647138</ele>
        <time>2020-10-06T14:43:56.803Z</time>
      </trkpt>
      <trkpt lat="54.63345" lon="24.9944">
        <ele>151.700996</ele>
        <time>2020-10-06T14:44:03.839Z</time>
      </trkpt>
      <trkpt lat="54.63314" lon="24.99244">
        <ele>153.229735</ele>
        <time>2020-10-06T14:44:36.201Z</time>
      </trkpt>
      <trkpt lat="54.63313" lon="24.99235">
        <ele>153.311559</ele>
        <time>2020-10-06T14:44:37.879Z</time>
      </trkpt>
      <trkpt lat="54.6329" lon="24.99094">
        <ele>154.474255</ele>
        <time>2020-10-06T14:45:02.722Z</time>
      </trkpt>
      <trkpt lat="54.63279" lon="24.99021">
        <ele>155.025696</ele>
        <time>2020-10-06T14:45:15.517Z</time>
      </trkpt>
      <trkpt lat="54.63202" lon="24.98553">
        <ele>157.999041</ele>
        <time>2020-10-06T14:46:29.901Z</time>
      </trkpt>
      <trkpt lat="54.63153" lon="24.98243">
        <ele>158.732403</ele>
        <time>2020-10-06T14:47:13.724Z</time>
      </trkpt>
      <trkpt lat="54.63091" lon="24.97854">
        <ele>158.770871</ele>
        <time>2020-10-06T14:48:06.690Z</time>
      </trkpt>
      <trkpt lat="54.62989" lon="24.97217">
        <ele>156.885175</ele>
        <time>2020-10-06T14:49:25.237Z</time>
      </trkpt>
      <trkpt lat="54.6295" lon="24.96896">
        <ele>155.639651</ele>
        <time>2020-10-06T14:50:02.987Z</time>
      </trkpt>
      <trkpt lat="54.6294" lon="24.9684">
        <ele>155.433246</ele>
        <time>2020-10-06T14:50:09.737Z</time>
      </trkpt>
      <trkpt lat="54.62928" lon="24.96782">
        <ele>155.213861</ele>
        <time>2020-10-06T14:50:16.939Z</time>
      </trkpt>
      <trkpt lat="54.62908" lon="24.96699">
        <ele>154.903872</ele>
        <time>2020-10-06T14:50:28.038Z</time>
      </trkpt>
      <trkpt lat="54.62895" lon="24.9663">
        <ele>154.664624</ele>
        <time>2020-10-06T14:50:37.412Z</time>
      </trkpt>
      <trkpt lat="54.62886" lon="24.96576">
        <ele>154.477852</ele>
        <time>2020-10-06T14:50:44.284Z</time>
      </trkpt>
      <trkpt lat="54.62881" lon="24.96542">
        <ele>154.36085</ele>
        <time>2020-10-06T14:50:48.329Z</time>
      </trkpt>
      <trkpt lat="54.62885" lon="24.96539">
        <ele>154.333722</ele>
        <time>2020-10-06T14:50:49.288Z</time>
      </trkpt>
      <trkpt lat="54.62897" lon="24.9653">
        <ele>154.259526</ele>
        <time>2020-10-06T14:50:52.080Z</time>
      </trkpt>
      <trkpt lat="54.62961" lon="24.96461">
        <ele>153.525212</ele>
        <time>2020-10-06T14:51:06.672Z</time>
      </trkpt>
      <trkpt lat="54.63043" lon="24.96372">
        <ele>151.859243</ele>
        <time>2020-10-06T14:51:24.225Z</time>
      </trkpt>
      <trkpt lat="54.63165" lon="24.96239">
        <ele>149.452183</ele>
        <time>2020-10-06T14:51:49.072Z</time>
      </trkpt>
      <trkpt lat="54.63191" lon="24.96211">
        <ele>148.947423</ele>
        <time>2020-10-06T14:51:54.781Z</time>
      </trkpt>
      <trkpt lat="54.63272" lon="24.96119">
        <ele>147.839008</ele>
        <time>2020-10-06T14:52:13.753Z</time>
      </trkpt>
      <trkpt lat="54.63315" lon="24.9608">
        <ele>147.690388</ele>
        <time>2020-10-06T14:52:24.019Z</time>
      </trkpt>
      <trkpt lat="54.63362" lon="24.96056">
        <ele>147.542969</ele>
        <time>2020-10-06T14:52:34.919Z</time>
      </trkpt>
      <trkpt lat="54.63435" lon="24.96038">
        <ele>147.412016</ele>
        <time>2020-10-06T14:52:51.437Z</time>
      </trkpt>
      <trkpt lat="54.63519" lon="24.96028">
        <ele>147.449048</ele>
        <time>2020-10-06T14:53:09.958Z</time>
      </trkpt>
      <trkpt lat="54.63555" lon="24.96012">
        <ele>147.465523</ele>
        <time>2020-10-06T14:53:18.238Z</time>
      </trkpt>
      <trkpt lat="54.63587" lon="24.95971">
        <ele>147.54226</ele>
        <time>2020-10-06T14:53:27.146Z</time>
      </trkpt>
      <trkpt lat="54.63622" lon="24.95896">
        <ele>147.980328</ele>
        <time>2020-10-06T14:53:40.189Z</time>
      </trkpt>
      <trkpt lat="54.63677" lon="24.95724">
        <ele>148.867902</ele>
        <time>2020-10-06T14:54:10.597Z</time>
      </trkpt>
      <trkpt lat="54.6369" lon="24.95693">
        <ele>149.144325</ele>
        <time>2020-10-06T14:54:16.353Z</time>
      </trkpt>
      <trkpt lat="54.63697" lon="24.95684">
        <ele>149.255298</ele>
        <time>2020-10-06T14:54:18.784Z</time>
      </trkpt>
      <trkpt lat="54.63703" lon="24.95676">
        <ele>149.362739</ele>
        <time>2020-10-06T14:54:21.445Z</time>
      </trkpt>
      <trkpt lat="54.63723" lon="24.95666">
        <ele>149.625153</ele>
        <time>2020-10-06T14:54:26.621Z</time>
      </trkpt>
      <trkpt lat="54.63742" lon="24.95665">
        <ele>149.875449</ele>
        <time>2020-10-06T14:54:32.376Z</time>
      </trkpt>
      <trkpt lat="54.63784" lon="24.9567">
        <ele>150.428023</ele>
        <time>2020-10-06T14:54:44.169Z</time>
      </trkpt>
      <trkpt lat="54.63822" lon="24.95685">
        <ele>150.932291</ele>
        <time>2020-10-06T14:54:55.005Z</time>
      </trkpt>
      <trkpt lat="54.63904" lon="24.95724">
        <ele>151.604824</ele>
        <time>2020-10-06T14:55:17.460Z</time>
      </trkpt>
      <trkpt lat="54.6412" lon="24.95829">
        <ele>152.602915</ele>
        <time>2020-10-06T14:56:10.706Z</time>
      </trkpt>
      <trkpt lat="54.64139" lon="24.95837">
        <ele>152.652944</ele>
        <time>2020-10-06T14:56:14.938Z</time>
      </trkpt>
      <trkpt lat="54.64222" lon="24.95846">
        <ele>152.763009</ele>
        <time>2020-10-06T14:56:34.043Z</time>
      </trkpt>
      <trkpt lat="54.64288" lon="24.95832">
        <ele>152.69208</ele>
        <time>2020-10-06T14:56:48.318Z</time>
      </trkpt>
      <trkpt lat="54.64312" lon="24.95821">
        <ele>152.665352</ele>
        <time>2020-10-06T14:56:53.693Z</time>
      </trkpt>
      <trkpt lat="54.64333" lon="24.9581">
        <ele>152.640889</ele>
        <time>2020-10-06T14:56:58.496Z</time>
      </trkpt>
      <trkpt lat="54.64466" lon="24.95739">
        <ele>152.447552</ele>
        <time>2020-10-06T14:57:28.959Z</time>
      </trkpt>
      <trkpt lat="54.64523" lon="24.95707">
        <ele>152.35725</ele>
        <time>2020-10-06T14:57:41.801Z</time>
      </trkpt>
      <trkpt lat="54.6457" lon="24.95676">
        <ele>152.174664</ele>
        <time>2020-10-06T14:57:52.576Z</time>
      </trkpt>
      <trkpt lat="54.64605" lon="24.9565">
        <ele>151.990148</ele>
        <time>2020-10-06T14:58:00.555Z</time>
      </trkpt>
      <trkpt lat="54.64642" lon="24.95617">
        <ele>151.788462</ele>
        <time>2020-10-06T14:58:09.162Z</time>
      </trkpt>
      <trkpt lat="54.64679" lon="24.9557">
        <ele>151.569565</ele>
        <time>2020-10-06T14:58:18.387Z</time>
      </trkpt>
      <trkpt lat="54.64702" lon="24.95529">
        <ele>151.39277</ele>
        <time>2020-10-06T14:58:24.992Z</time>
      </trkpt>
      <trkpt lat="54.64733" lon="24.95468">
        <ele>151.084295</ele>
        <time>2020-10-06T14:58:34.511Z</time>
      </trkpt>
      <trkpt lat="54.64822" lon="24.95262">
        <ele>150.111428</ele>
        <time>2020-10-06T14:59:04.448Z</time>
      </trkpt>
      <trkpt lat="54.64858" lon="24.95179">
        <ele>149.737514</ele>
        <time>2020-10-06T14:59:16.469Z</time>
      </trkpt>
      <trkpt lat="54.64893" lon="24.95098">
        <ele>149.365809</ele>
        <time>2020-10-06T14:59:28.124Z</time>
      </trkpt>
      <trkpt lat="54.64932" lon="24.95009">
        <ele>149.181342</ele>
        <time>2020-10-06T14:59:41.419Z</time>
      </trkpt>
      <trkpt lat="54.64964" lon="24.94923">
        <ele>149.231498</ele>
        <time>2020-10-06T14:59:55.560Z</time>
      </trkpt>
      <trkpt lat="54.6497" lon="24.94892">
        <ele>149.247596</ele>
        <time>2020-10-06T14:59:59.674Z</time>
      </trkpt>
      <trkpt lat="54.64973" lon="24.94866">
        <ele>149.26069</ele>
        <time>2020-10-06T15:00:03.821Z</time>
      </trkpt>
      <trkpt lat="54.64973" lon="24.9484">
        <ele>149.273404</ele>
        <time>2020-10-06T15:00:06.931Z</time>
      </trkpt>
      <trkpt lat="54.64972" lon="24.94806">
        <ele>149.289902</ele>
        <time>2020-10-06T15:00:11.949Z</time>
      </trkpt>
      <trkpt lat="54.64963" lon="24.94711">
        <ele>149.267226</ele>
        <time>2020-10-06T15:00:24.029Z</time>
      </trkpt>
      <trkpt lat="54.64964" lon="24.94682">
        <ele>149.247687</ele>
        <time>2020-10-06T15:00:28.421Z</time>
      </trkpt>
      <trkpt lat="54.64971" lon="24.94566">
        <ele>149.168579</ele>
        <time>2020-10-06T15:00:43.518Z</time>
      </trkpt>
      <trkpt lat="54.64971" lon="24.94543">
        <ele>149.15326</ele>
        <time>2020-10-06T15:00:46.542Z</time>
      </trkpt>
      <trkpt lat="54.6497" lon="24.94525">
        <ele>149.14052</ele>
        <time>2020-10-06T15:00:48.610Z</time>
      </trkpt>
      <trkpt lat="54.64967" lon="24.94509">
        <ele>149.129768</ele>
        <time>2020-10-06T15:00:50.594Z</time>
      </trkpt>
      <trkpt lat="54.64922" lon="24.94328">
        <ele>148.977004</ele>
        <time>2020-10-06T15:01:13.800Z</time>
      </trkpt>
      <trkpt lat="54.64906" lon="24.94212">
        <ele>148.881319</ele>
        <time>2020-10-06T15:01:29.253Z</time>
      </trkpt>
      <trkpt lat="54.64902" lon="24.94196">
        <ele>148.867141</ele>
        <time>2020-10-06T15:01:31.775Z</time>
      </trkpt>
      <trkpt lat="54.64897" lon="24.9417">
        <ele>148.85935</ele>
        <time>2020-10-06T15:01:35.619Z</time>
      </trkpt>
      <trkpt lat="54.64893" lon="24.94156">
        <ele>148.929465</ele>
        <time>2020-10-06T15:01:37.675Z</time>
      </trkpt>
      <trkpt lat="54.64891" lon="24.94145">
        <ele>148.981979</ele>
        <time>2020-10-06T15:01:39.353Z</time>
      </trkpt>
      <trkpt lat="54.64885" lon="24.94148">
        <ele>149.033848</ele>
        <time>2020-10-06T15:01:41.312Z</time>
      </trkpt>
      <trkpt lat="54.64877" lon="24.9415">
        <ele>149.096304</ele>
        <time>2020-10-06T15:01:43.727Z</time>
      </trkpt>
      <trkpt lat="54.64862" lon="24.94147">
        <ele>149.223145</ele>
        <time>2020-10-06T15:01:48.674Z</time>
      </trkpt>
      <trkpt lat="54.64811" lon="24.94139">
        <ele>149.634673</ele>
        <time>2020-10-06T15:02:09.803Z</time>
      </trkpt>
      <trkpt lat="54.64805" lon="24.94122">
        <ele>149.727019</ele>
        <time>2020-10-06T15:02:14.791Z</time>
      </trkpt>
      <trkpt lat="54.64798" lon="24.94118">
        <ele>149.788914</ele>
        <time>2020-10-06T15:02:17.792Z</time>
      </trkpt>
      <trkpt lat="54.64773" lon="24.94127">
        <ele>149.993678</ele>
        <time>2020-10-06T15:02:28.605Z</time>
      </trkpt>
      <trkpt lat="54.64729" lon="24.94196">
        <ele>150.339163</ele>
        <time>2020-10-06T15:02:52.546Z</time>
      </trkpt>
      <trkpt lat="54.64724" lon="24.94201">
        <ele>150.348699</ele>
        <time>2020-10-06T15:02:54.961Z</time>
      </trkpt>
      <trkpt lat="54.64721" lon="24.942">
        <ele>150.355048</ele>
        <time>2020-10-06T15:02:56.520Z</time>
      </trkpt>
      <trkpt lat="54.64645" lon="24.9415">
        <ele>150.49834</ele>
        <time>2020-10-06T15:03:24.975Z</time>
      </trkpt>
      <trkpt lat="54.6463" lon="24.94132">
        <ele>150.530866</ele>
        <time>2020-10-06T15:03:32.514Z</time>
      </trkpt>
      <trkpt lat="54.64627" lon="24.94126">
        <ele>150.538812</ele>
        <time>2020-10-06T15:03:34.308Z</time>
      </trkpt>
      <trkpt lat="54.64626" lon="24.94119">
        <ele>150.545872</ele>
        <time>2020-10-06T15:03:35.779Z</time>
      </trkpt>
      <trkpt lat="54.64671" lon="24.93929">
        <ele>151.242119</ele>
        <time>2020-10-06T15:04:04.920Z</time>
      </trkpt>
      <trkpt lat="54.6468" lon="24.93933">
        <ele>151.311872</ele>
        <time>2020-10-06T15:04:10.231Z</time>
      </trkpt>
      <trkpt lat="54.64701" lon="24.93912">
        <ele>151.509352</ele>
        <time>2020-10-06T15:04:18.987Z</time>
      </trkpt>
      <trkpt lat="54.64711" lon="24.93883">
        <ele>151.667323</ele>
        <time>2020-10-06T15:04:27.987Z</time>
      </trkpt>
      <trkpt lat="54.64721" lon="24.93803">
        <ele>152.043058</ele>
        <time>2020-10-06T15:04:46.559Z</time>
      </trkpt>
      <trkpt lat="54.64713" lon="24.93741">
        <ele>152.107291</ele>
        <time>2020-10-06T15:05:01.648Z</time>
      </trkpt>
      <trkpt lat="54.64705" lon="24.93714">
        <ele>152.131185</ele>
        <time>2020-10-06T15:05:10.070Z</time>
      </trkpt>
      <trkpt lat="54.64705" lon="24.93712">
        <ele>152.13246</ele>
        <time>2020-10-06T15:05:10.406Z</time>
      </trkpt>
      <trkpt lat="54.64691" lon="24.93673">
        <ele>152.169525</ele>
        <time>2020-10-06T15:05:20.544Z</time>
      </trkpt>
      <trkpt lat="54.64687" lon="24.93661">
        <ele>152.180372</ele>
        <time>2020-10-06T15:05:23.813Z</time>
      </trkpt>
      <trkpt lat="54.64682" lon="24.93631">
        <ele>152.205848</ele>
        <time>2020-10-06T15:05:30.362Z</time>
      </trkpt>
      <trkpt lat="54.64682" lon="24.93622">
        <ele>152.213083</ele>
        <time>2020-10-06T15:05:32.341Z</time>
      </trkpt>
      <trkpt lat="54.64686" lon="24.93611">
        <ele>152.223794</ele>
        <time>2020-10-06T15:05:35.360Z</time>
      </trkpt>
      <trkpt lat="54.64702" lon="24.93582">
        <ele>152.256068</ele>
        <time>2020-10-06T15:05:43.629Z</time>
      </trkpt>
      <trkpt lat="54.64717" lon="24.93559">
        <ele>152.283566</ele>
        <time>2020-10-06T15:05:51.032Z</time>
      </trkpt>
      <trkpt lat="54.64724" lon="24.93545">
        <ele>152.298542</ele>
        <time>2020-10-06T15:05:54.573Z</time>
      </trkpt>
      <trkpt lat="54.64756" lon="24.93492">
        <ele>151.943275</ele>
        <time>2020-10-06T15:06:09.069Z</time>
      </trkpt>
      <trkpt lat="54.64777" lon="24.93458">
        <ele>151.667457</ele>
        <time>2020-10-06T15:06:17.923Z</time>
      </trkpt>
      <trkpt lat="54.64827" lon="24.93371">
        <ele>150.977451</ele>
        <time>2020-10-06T15:06:41.924Z</time>
      </trkpt>
      <trkpt lat="54.64838" lon="24.93351">
        <ele>150.819051</ele>
        <time>2020-10-06T15:06:48.049Z</time>
      </trkpt>
      <trkpt lat="54.64843" lon="24.93342">
        <ele>150.747927</ele>
        <time>2020-10-06T15:06:50.946Z</time>
      </trkpt>
      <trkpt lat="54.64851" lon="24.9333">
        <ele>150.64498</ele>
        <time>2020-10-06T15:06:54.461Z</time>
      </trkpt>
      <trkpt lat="54.64863" lon="24.93316">
        <ele>150.543996</ele>
        <time>2020-10-06T15:06:59.707Z</time>
      </trkpt>
      <trkpt lat="54.64875" lon="24.93299">
        <ele>150.498631</ele>
        <time>2020-10-06T15:07:05.253Z</time>
      </trkpt>
      <trkpt lat="54.64889" lon="24.93275">
        <ele>150.44053</ele>
        <time>2020-10-06T15:07:11.981Z</time>
      </trkpt>
      <trkpt lat="54.64879" lon="24.93254">
        <ele>150.393436</ele>
        <time>2020-10-06T15:07:15.512Z</time>
      </trkpt>
      <trkpt lat="54.64865" lon="24.93222">
        <ele>150.325153</ele>
        <time>2020-10-06T15:07:20.507Z</time>
      </trkpt>
      <trkpt lat="54.64877" lon="24.93208">
        <ele>150.28202</ele>
        <time>2020-10-06T15:07:23.676Z</time>
      </trkpt>
      <trkpt lat="54.64881" lon="24.93204">
        <ele>150.267962</ele>
        <time>2020-10-06T15:07:24.452Z</time>
      </trkpt>
      <trkpt lat="54.649" lon="24.93171">
        <ele>150.189487</ele>
        <time>2020-10-06T15:07:30.597Z</time>
      </trkpt>
      <trkpt lat="54.64916" lon="24.93124">
        <ele>150.096408</ele>
        <time>2020-10-06T15:07:38.125Z</time>
      </trkpt>
      <trkpt lat="54.64918" lon="24.93118">
        <ele>150.084311</ele>
        <time>2020-10-06T15:07:38.842Z</time>
      </trkpt>
      <trkpt lat="54.64924" lon="24.93099">
        <ele>150.048303</ele>
        <time>2020-10-06T15:07:41.475Z</time>
      </trkpt>
      <trkpt lat="54.64935" lon="24.93054">
        <ele>149.90797</ele>
        <time>2020-10-06T15:07:48.546Z</time>
      </trkpt>
      <trkpt lat="54.64939" lon="24.93035">
        <ele>149.848148</ele>
        <time>2020-10-06T15:07:50.696Z</time>
      </trkpt>
      <trkpt lat="54.64945" lon="24.93017">
        <ele>149.78187</ele>
        <time>2020-10-06T15:07:53.587Z</time>
      </trkpt>
      <trkpt lat="54.64955" lon="24.92981">
        <ele>149.656965</ele>
        <time>2020-10-06T15:07:57.746Z</time>
      </trkpt>
      <trkpt lat="54.64972" lon="24.92886">
        <ele>149.349061</ele>
        <time>2020-10-06T15:08:08.473Z</time>
      </trkpt>
      <trkpt lat="54.64974" lon="24.92877">
        <ele>149.319887</ele>
        <time>2020-10-06T15:08:09.685Z</time>
      </trkpt>
      <trkpt lat="54.64977" lon="24.92854">
        <ele>149.246082</ele>
        <time>2020-10-06T15:08:12.380Z</time>
      </trkpt>
      <trkpt lat="54.64993" lon="24.92741">
        <ele>149.443596</ele>
        <time>2020-10-06T15:08:27.855Z</time>
      </trkpt>
      <trkpt lat="54.64997" lon="24.92711">
        <ele>149.645277</ele>
        <time>2020-10-06T15:08:32.300Z</time>
      </trkpt>
      <trkpt lat="54.65001" lon="24.92684">
        <ele>149.832048</ele>
        <time>2020-10-06T15:08:36.198Z</time>
      </trkpt>
      <trkpt lat="54.65011" lon="24.92611">
        <ele>150.323954</ele>
        <time>2020-10-06T15:08:47.329Z</time>
      </trkpt>
      <trkpt lat="54.65015" lon="24.92582">
        <ele>150.520237</ele>
        <time>2020-10-06T15:08:52.353Z</time>
      </trkpt>
      <trkpt lat="54.6502" lon="24.92556">
        <ele>150.704037</ele>
        <time>2020-10-06T15:08:56.818Z</time>
      </trkpt>
      <trkpt lat="54.65024" lon="24.92541">
        <ele>150.808721</ele>
        <time>2020-10-06T15:08:59.898Z</time>
      </trkpt>
      <trkpt lat="54.65031" lon="24.92523">
        <ele>150.95558</ele>
        <time>2020-10-06T15:09:03.747Z</time>
      </trkpt>
      <trkpt lat="54.65051" lon="24.92472">
        <ele>151.717339</ele>
        <time>2020-10-06T15:09:15.468Z</time>
      </trkpt>
      <trkpt lat="54.65086" lon="24.92386">
        <ele>153.396831</ele>
        <time>2020-10-06T15:09:37.183Z</time>
      </trkpt>
      <trkpt lat="54.65091" lon="24.92374">
        <ele>153.616299</ele>
        <time>2020-10-06T15:09:40.069Z</time>
      </trkpt>
      <trkpt lat="54.65105" lon="24.92338">
        <ele>154.316656</ele>
        <time>2020-10-06T15:09:49.195Z</time>
      </trkpt>
      <trkpt lat="54.65118" lon="24.92308">
        <ele>154.919608</ele>
        <time>2020-10-06T15:09:56.603Z</time>
      </trkpt>
      <trkpt lat="54.65141" lon="24.92265">
        <ele>155.848769</ele>
        <time>2020-10-06T15:10:07.721Z</time>
      </trkpt>
      <trkpt lat="54.65145" lon="24.92257">
        <ele>156.014305</ele>
        <time>2020-10-06T15:10:09.712Z</time>
      </trkpt>
      <trkpt lat="54.65227" lon="24.92135">
        <ele>156.809821</ele>
        <time>2020-10-06T15:10:40.050Z</time>
      </trkpt>
      <trkpt lat="54.65259" lon="24.92052">
        <ele>157.21209</ele>
        <time>2020-10-06T15:10:51.941Z</time>
      </trkpt>
      <trkpt lat="54.65268" lon="24.92021">
        <ele>157.260868</ele>
        <time>2020-10-06T15:10:56.014Z</time>
      </trkpt>
      <trkpt lat="54.65273" lon="24.92004">
        <ele>157.099534</ele>
        <time>2020-10-06T15:10:58.240Z</time>
      </trkpt>
      <trkpt lat="54.65275" lon="24.91995">
        <ele>157.014673</ele>
        <time>2020-10-06T15:10:59.248Z</time>
      </trkpt>
      <trkpt lat="54.65279" lon="24.91982">
        <ele>156.893028</ele>
        <time>2020-10-06T15:11:00.895Z</time>
      </trkpt>
      <trkpt lat="54.65315" lon="24.91862">
        <ele>155.760294</ele>
        <time>2020-10-06T15:11:15.084Z</time>
      </trkpt>
      <trkpt lat="54.65336" lon="24.91803">
        <ele>155.176171</ele>
        <time>2020-10-06T15:11:22.297Z</time>
      </trkpt>
      <trkpt lat="54.6534" lon="24.91796">
        <ele>155.094841</ele>
        <time>2020-10-06T15:11:23.295Z</time>
      </trkpt>
      <trkpt lat="54.65343" lon="24.91787">
        <ele>155.013324</ele>
        <time>2020-10-06T15:11:24.311Z</time>
      </trkpt>
      <trkpt lat="54.65344" lon="24.91778">
        <ele>154.932115</ele>
        <time>2020-10-06T15:11:25.227Z</time>
      </trkpt>
      <trkpt lat="54.65344" lon="24.91759">
        <ele>154.770645</ele>
        <time>2020-10-06T15:11:27.235Z</time>
      </trkpt>
      <trkpt lat="54.65342" lon="24.9175">
        <ele>154.70339</ele>
        <time>2020-10-06T15:11:28.190Z</time>
      </trkpt>
      <trkpt lat="54.65345" lon="24.91719">
        <ele>154.649043</ele>
        <time>2020-10-06T15:11:31.520Z</time>
      </trkpt>
      <trkpt lat="54.65353" lon="24.91675">
        <ele>154.569445</ele>
        <time>2020-10-06T15:11:36.503Z</time>
      </trkpt>
      <trkpt lat="54.65393" lon="24.91524">
        <ele>154.280959</ele>
        <time>2020-10-06T15:11:56.775Z</time>
      </trkpt>
      <trkpt lat="54.65413" lon="24.91427">
        <ele>154.667389</ele>
        <time>2020-10-06T15:12:12.525Z</time>
      </trkpt>
      <trkpt lat="54.65426" lon="24.91366">
        <ele>155.518507</ele>
        <time>2020-10-06T15:12:23.892Z</time>
      </trkpt>
      <trkpt lat="54.65458" lon="24.91208">
        <ele>157.696794</ele>
        <time>2020-10-06T15:12:55.575Z</time>
      </trkpt>
      <trkpt lat="54.65618" lon="24.90407">
        <ele>172.589523</ele>
        <time>2020-10-06T15:15:47.569Z</time>
      </trkpt>
      <trkpt lat="54.65628" lon="24.90352">
        <ele>173.483868</ele>
        <time>2020-10-06T15:15:58.373Z</time>
      </trkpt>
      <trkpt lat="54.65633" lon="24.90323">
        <ele>173.962838</ele>
        <time>2020-10-06T15:16:04.156Z</time>
      </trkpt>
      <trkpt lat="54.65663" lon="24.90116">
        <ele>175.186344</ele>
        <time>2020-10-06T15:16:38.888Z</time>
      </trkpt>
      <trkpt lat="54.65697" lon="24.89863">
        <ele>174.818359</ele>
        <time>2020-10-06T15:17:09.048Z</time>
      </trkpt>
      <trkpt lat="54.65731" lon="24.89611">
        <ele>172.920394</ele>
        <time>2020-10-06T15:17:36.641Z</time>
      </trkpt>
      <trkpt lat="54.65745" lon="24.89506">
        <ele>171.981015</ele>
        <time>2020-10-06T15:17:48.136Z</time>
      </trkpt>
      <trkpt lat="54.65755" lon="24.89433">
        <ele>171.327449</ele>
        <time>2020-10-06T15:17:56.161Z</time>
      </trkpt>
      <trkpt lat="54.65765" lon="24.89353">
        <ele>170.581643</ele>
        <time>2020-10-06T15:18:04.898Z</time>
      </trkpt>
      <trkpt lat="54.65788" lon="24.89059">
        <ele>167.461159</ele>
        <time>2020-10-06T15:18:35.815Z</time>
      </trkpt>
      <trkpt lat="54.6579" lon="24.88748">
        <ele>163.038034</ele>
        <time>2020-10-06T15:19:06.113Z</time>
      </trkpt>
      <trkpt lat="54.65788" lon="24.88676">
        <ele>162.633841</ele>
        <time>2020-10-06T15:19:13.347Z</time>
      </trkpt>
      <trkpt lat="54.65787" lon="24.88646">
        <ele>162.463646</ele>
        <time>2020-10-06T15:19:16.462Z</time>
      </trkpt>
      <trkpt lat="54.65786" lon="24.88634">
        <ele>162.397877</ele>
        <time>2020-10-06T15:19:17.662Z</time>
      </trkpt>
      <trkpt lat="54.65748" lon="24.87775">
        <ele>157.901884</ele>
        <time>2020-10-06T15:20:58.731Z</time>
      </trkpt>
      <trkpt lat="54.65742" lon="24.87646">
        <ele>156.775834</ele>
        <time>2020-10-06T15:21:12.012Z</time>
      </trkpt>
      <trkpt lat="54.65731" lon="24.87439">
        <ele>155.464233</ele>
        <time>2020-10-06T15:21:33.682Z</time>
      </trkpt>
      <trkpt lat="54.65728" lon="24.87394">
        <ele>155.346571</ele>
        <time>2020-10-06T15:21:38.998Z</time>
      </trkpt>
      <trkpt lat="54.65724" lon="24.87352">
        <ele>155.236883</ele>
        <time>2020-10-06T15:21:44.264Z</time>
      </trkpt>
      <trkpt lat="54.65717" lon="24.87283">
        <ele>155.060062</ele>
        <time>2020-10-06T15:21:53.290Z</time>
      </trkpt>
      <trkpt lat="54.6565" lon="24.86714">
        <ele>156.971196</ele>
        <time>2020-10-06T15:23:16.279Z</time>
      </trkpt>
      <trkpt lat="54.65628" lon="24.86546">
        <ele>158.330443</ele>
        <time>2020-10-06T15:23:43.946Z</time>
      </trkpt>
      <trkpt lat="54.65583" lon="24.86164">
        <ele>162.963142</ele>
        <time>2020-10-06T15:24:57.056Z</time>
      </trkpt>
      <trkpt lat="54.65524" lon="24.85685">
        <ele>167.317798</ele>
        <time>2020-10-06T15:26:12.472Z</time>
      </trkpt>
      <trkpt lat="54.65491" lon="24.85399">
        <ele>172.841546</ele>
        <time>2020-10-06T15:27:15.373Z</time>
      </trkpt>
      <trkpt lat="54.65467" lon="24.85201">
        <ele>175.485189</ele>
        <time>2020-10-06T15:27:55.783Z</time>
      </trkpt>
      <trkpt lat="54.65465" lon="24.85188">
        <ele>175.647403</ele>
        <time>2020-10-06T15:27:57.995Z</time>
      </trkpt>
      <trkpt lat="54.65441" lon="24.85003">
        <ele>176.823772</ele>
        <time>2020-10-06T15:28:25.619Z</time>
      </trkpt>
      <trkpt lat="54.65413" lon="24.84763">
        <ele>176.130563</ele>
        <time>2020-10-06T15:28:53.416Z</time>
      </trkpt>
      <trkpt lat="54.65368" lon="24.8435">
        <ele>173.800651</ele>
        <time>2020-10-06T15:29:39.593Z</time>
      </trkpt>
      <trkpt lat="54.65327" lon="24.83976">
        <ele>173.879989</ele>
        <time>2020-10-06T15:30:28.314Z</time>
      </trkpt>
      <trkpt lat="54.65266" lon="24.8341">
        <ele>177.964866</ele>
        <time>2020-10-06T15:32:03.032Z</time>
      </trkpt>
      <trkpt lat="54.65224" lon="24.83021">
        <ele>180.389931</ele>
        <time>2020-10-06T15:33:01.290Z</time>
      </trkpt>
      <trkpt lat="54.6522" lon="24.82979">
        <ele>180.642383</ele>
        <time>2020-10-06T15:33:08.193Z</time>
      </trkpt>
      <trkpt lat="54.65188" lon="24.82683">
        <ele>183.228634</ele>
        <time>2020-10-06T15:33:58.900Z</time>
      </trkpt>
      <trkpt lat="54.6517" lon="24.82528">
        <ele>183.88214</ele>
        <time>2020-10-06T15:34:23.479Z</time>
      </trkpt>
      <trkpt lat="54.65151" lon="24.82382">
        <ele>184.202757</ele>
        <time>2020-10-06T15:34:43.297Z</time>
      </trkpt>
      <trkpt lat="54.6514" lon="24.82314">
        <ele>184.1324</ele>
        <time>2020-10-06T15:34:51.569Z</time>
      </trkpt>
      <trkpt lat="54.65133" lon="24.82271">
        <ele>183.767283</ele>
        <time>2020-10-06T15:34:56.769Z</time>
      </trkpt>
      <trkpt lat="54.65099" lon="24.82117">
        <ele>182.416567</ele>
        <time>2020-10-06T15:35:14.587Z</time>
      </trkpt>
      <trkpt lat="54.6505" lon="24.8196">
        <ele>180.376259</ele>
        <time>2020-10-06T15:35:32.475Z</time>
      </trkpt>
      <trkpt lat="54.64998" lon="24.81821">
        <ele>178.072004</ele>
        <time>2020-10-06T15:35:48.407Z</time>
      </trkpt>
      <trkpt lat="54.64903" lon="24.816">
        <ele>175.384551</ele>
        <time>2020-10-06T15:36:16.894Z</time>
      </trkpt>
      <trkpt lat="54.64878" lon="24.81545">
        <ele>174.756347</ele>
        <time>2020-10-06T15:36:25.081Z</time>
      </trkpt>
      <trkpt lat="54.64856" lon="24.81497">
        <ele>174.484226</ele>
        <time>2020-10-06T15:36:32.204Z</time>
      </trkpt>
      <trkpt lat="54.64835" lon="24.81457">
        <ele>174.298639</ele>
        <time>2020-10-06T15:36:38.668Z</time>
      </trkpt>
      <trkpt lat="54.648" lon="24.81395">
        <ele>174.001814</ele>
        <time>2020-10-06T15:36:49.332Z</time>
      </trkpt>
      <trkpt lat="54.64732" lon="24.81293">
        <ele>173.276656</ele>
        <time>2020-10-06T15:37:07.639Z</time>
      </trkpt>
      <trkpt lat="54.64661" lon="24.81194">
        <ele>171.85338</ele>
        <time>2020-10-06T15:37:24.665Z</time>
      </trkpt>
      <trkpt lat="54.64329" lon="24.80765">
        <ele>163.211858</ele>
        <time>2020-10-06T15:38:36.585Z</time>
      </trkpt>
      <trkpt lat="54.64307" lon="24.80737">
        <ele>162.657944</ele>
        <time>2020-10-06T15:38:41.342Z</time>
      </trkpt>
      <trkpt lat="54.64281" lon="24.80703">
        <ele>162.073282</ele>
        <time>2020-10-06T15:38:46.992Z</time>
      </trkpt>
      <trkpt lat="54.6425" lon="24.80664">
        <ele>161.389896</ele>
        <time>2020-10-06T15:38:53.703Z</time>
      </trkpt>
      <trkpt lat="54.64207" lon="24.8061">
        <ele>160.427123</ele>
        <time>2020-10-06T15:39:03.351Z</time>
      </trkpt>
      <trkpt lat="54.64054" lon="24.80411">
        <ele>157.118144</ele>
        <time>2020-10-06T15:39:38.729Z</time>
      </trkpt>
      <trkpt lat="54.63962" lon="24.80291">
        <ele>154.907926</ele>
        <time>2020-10-06T15:39:58.501Z</time>
      </trkpt>
      <trkpt lat="54.63923" lon="24.80226">
        <ele>153.820726</ele>
        <time>2020-10-06T15:40:07.857Z</time>
      </trkpt>
      <trkpt lat="54.63899" lon="24.80165">
        <ele>152.99558</ele>
        <time>2020-10-06T15:40:15.580Z</time>
      </trkpt>
      <trkpt lat="54.63889" lon="24.80129">
        <ele>153.008408</ele>
        <time>2020-10-06T15:40:19.867Z</time>
      </trkpt>
      <trkpt lat="54.6388" lon="24.80083">
        <ele>153.024182</ele>
        <time>2020-10-06T15:40:25.447Z</time>
      </trkpt>
      <trkpt lat="54.63872" lon="24.8002">
        <ele>153.044808</ele>
        <time>2020-10-06T15:40:33.203Z</time>
      </trkpt>
      <trkpt lat="54.63871" lon="24.79984">
        <ele>153.056337</ele>
        <time>2020-10-06T15:40:37.939Z</time>
      </trkpt>
      <trkpt lat="54.63871" lon="24.79943">
        <ele>153.069649</ele>
        <time>2020-10-06T15:40:43.745Z</time>
      </trkpt>
      <trkpt lat="54.63883" lon="24.79837">
        <ele>153.50368</ele>
        <time>2020-10-06T15:41:01.559Z</time>
      </trkpt>
      <trkpt lat="54.63892" lon="24.79784">
        <ele>154.269106</ele>
        <time>2020-10-06T15:41:11.563Z</time>
      </trkpt>
      <trkpt lat="54.63898" lon="24.7975">
        <ele>154.749415</ele>
        <time>2020-10-06T15:41:17.933Z</time>
      </trkpt>
      <trkpt lat="54.63919" lon="24.79621">
        <ele>156.597808</ele>
        <time>2020-10-06T15:41:43.388Z</time>
      </trkpt>
      <trkpt lat="54.63941" lon="24.79435">
        <ele>159.334487</ele>
        <time>2020-10-06T15:42:20.762Z</time>
      </trkpt>
      <trkpt lat="54.63949" lon="24.79327">
        <ele>160.910777</ele>
        <time>2020-10-06T15:42:40.758Z</time>
      </trkpt>
      <trkpt lat="54.63951" lon="24.79267">
        <ele>161.79457</ele>
        <time>2020-10-06T15:42:51.544Z</time>
      </trkpt>
      <trkpt lat="54.63952" lon="24.79117">
        <ele>163.418494</ele>
        <time>2020-10-06T15:43:18.338Z</time>
      </trkpt>
      <trkpt lat="54.63952" lon="24.78979">
        <ele>164.893918</ele>
        <time>2020-10-06T15:43:42.068Z</time>
      </trkpt>
      <trkpt lat="54.63952" lon="24.78861">
        <ele>165.4038</ele>
        <time>2020-10-06T15:44:00.590Z</time>
      </trkpt>
      <trkpt lat="54.63952" lon="24.78599">
        <ele>165.609717</ele>
        <time>2020-10-06T15:44:34.818Z</time>
      </trkpt>
      <trkpt lat="54.63951" lon="24.78181">
        <ele>162.616347</ele>
        <time>2020-10-06T15:45:19.244Z</time>
      </trkpt>
      <trkpt lat="54.63953" lon="24.78043">
        <ele>161.596417</ele>
        <time>2020-10-06T15:45:34.095Z</time>
      </trkpt>
      <trkpt lat="54.63962" lon="24.77763">
        <ele>161.514147</ele>
        <time>2020-10-06T15:46:08.343Z</time>
      </trkpt>
      <trkpt lat="54.63969" lon="24.77621">
        <ele>163.035263</ele>
        <time>2020-10-06T15:46:32.717Z</time>
      </trkpt>
      <trkpt lat="54.63971" lon="24.77568">
        <ele>163.96202</ele>
        <time>2020-10-06T15:46:42.815Z</time>
      </trkpt>
      <trkpt lat="54.63987" lon="24.77184">
        <ele>171.804942</ele>
        <time>2020-10-06T15:48:08.194Z</time>
      </trkpt>
      <trkpt lat="54.63996" lon="24.77039">
        <ele>174.644817</ele>
        <time>2020-10-06T15:48:39.915Z</time>
      </trkpt>
      <trkpt lat="54.64006" lon="24.76954">
        <ele>175.750306</ele>
        <time>2020-10-06T15:48:57.756Z</time>
      </trkpt>
      <trkpt lat="54.64073" lon="24.7659">
        <ele>177.594351</ele>
        <time>2020-10-06T15:49:57.398Z</time>
      </trkpt>
      <trkpt lat="54.64085" lon="24.76499">
        <ele>177.406005</ele>
        <time>2020-10-06T15:50:06.766Z</time>
      </trkpt>
      <trkpt lat="54.64095" lon="24.76348">
        <ele>174.029108</ele>
        <time>2020-10-06T15:50:20.378Z</time>
      </trkpt>
      <trkpt lat="54.64087" lon="24.76192">
        <ele>170.256254</ele>
        <time>2020-10-06T15:50:34.208Z</time>
      </trkpt>
      <trkpt lat="54.64076" lon="24.761">
        <ele>169.305364</ele>
        <time>2020-10-06T15:50:42.833Z</time>
      </trkpt>
      <trkpt lat="54.64022" lon="24.75709">
        <ele>167.371228</ele>
        <time>2020-10-06T15:51:32.785Z</time>
      </trkpt>
      <trkpt lat="54.6401" lon="24.75629">
        <ele>167.303525</ele>
        <time>2020-10-06T15:51:44.277Z</time>
      </trkpt>
      <trkpt lat="54.63975" lon="24.75391">
        <ele>166.462975</ele>
        <time>2020-10-06T15:52:13.652Z</time>
      </trkpt>
      <trkpt lat="54.63944" lon="24.75166">
        <ele>165.338657</ele>
        <time>2020-10-06T15:52:39.051Z</time>
      </trkpt>
      <trkpt lat="54.63937" lon="24.75078">
        <ele>164.844323</ele>
        <time>2020-10-06T15:52:48.894Z</time>
      </trkpt>
      <trkpt lat="54.63941" lon="24.74931">
        <ele>164.206295</ele>
        <time>2020-10-06T15:53:05.900Z</time>
      </trkpt>
      <trkpt lat="54.63949" lon="24.74876">
        <ele>164.196276</ele>
        <time>2020-10-06T15:53:12.786Z</time>
      </trkpt>
      <trkpt lat="54.6397" lon="24.74798">
        <ele>164.180858</ele>
        <time>2020-10-06T15:53:24.084Z</time>
      </trkpt>
      <trkpt lat="54.64024" lon="24.74685">
        <ele>164.136117</ele>
        <time>2020-10-06T15:53:44.066Z</time>
      </trkpt>
      <trkpt lat="54.64084" lon="24.74603">
        <ele>163.91473</ele>
        <time>2020-10-06T15:54:02.091Z</time>
      </trkpt>
      <trkpt lat="54.64215" lon="24.74425">
        <ele>161.963889</ele>
        <time>2020-10-06T15:54:35.223Z</time>
      </trkpt>
      <trkpt lat="54.64234" lon="24.744">
        <ele>161.404341</ele>
        <time>2020-10-06T15:54:39.233Z</time>
      </trkpt>
      <trkpt lat="54.64323" lon="24.74279">
        <ele>158.474568</ele>
        <time>2020-10-06T15:54:57.309Z</time>
      </trkpt>
      <trkpt lat="54.64404" lon="24.7416">
        <ele>154.996653</ele>
        <time>2020-10-06T15:55:13.931Z</time>
      </trkpt>
      <trkpt lat="54.64498" lon="24.73995">
        <ele>153.429387</ele>
        <time>2020-10-06T15:55:38.846Z</time>
      </trkpt>
      <trkpt lat="54.64515" lon="24.73962">
        <ele>153.410871</ele>
        <time>2020-10-06T15:55:45.616Z</time>
      </trkpt>
      <trkpt lat="54.64525" lon="24.73941">
        <ele>153.399495</ele>
        <time>2020-10-06T15:55:49.900Z</time>
      </trkpt>
      <trkpt lat="54.64563" lon="24.73867">
        <ele>153.387673</ele>
        <time>2020-10-06T15:56:06.424Z</time>
      </trkpt>
      <trkpt lat="54.64637" lon="24.73702">
        <ele>153.843129</ele>
        <time>2020-10-06T15:56:39.819Z</time>
      </trkpt>
      <trkpt lat="54.64705" lon="24.73532">
        <ele>152.416764</ele>
        <time>2020-10-06T15:57:01.230Z</time>
      </trkpt>
      <trkpt lat="54.64764" lon="24.73357">
        <ele>149.57669</ele>
        <time>2020-10-06T15:57:20.610Z</time>
      </trkpt>
      <trkpt lat="54.64817" lon="24.73175">
        <ele>146.622337</ele>
        <time>2020-10-06T15:57:40.405Z</time>
      </trkpt>
      <trkpt lat="54.649" lon="24.72876">
        <ele>142.258877</ele>
        <time>2020-10-06T15:58:14.313Z</time>
      </trkpt>
      <trkpt lat="54.64963" lon="24.7263">
        <ele>138.547788</ele>
        <time>2020-10-06T15:58:40.690Z</time>
      </trkpt>
      <trkpt lat="54.6498" lon="24.7255">
        <ele>137.325872</ele>
        <time>2020-10-06T15:58:49.092Z</time>
      </trkpt>
      <trkpt lat="54.65" lon="24.72451">
        <ele>136.272522</ele>
        <time>2020-10-06T15:58:59.737Z</time>
      </trkpt>
      <trkpt lat="54.65006" lon="24.72411">
        <ele>135.936379</ele>
        <time>2020-10-06T15:59:04.180Z</time>
      </trkpt>
      <trkpt lat="54.65019" lon="24.72331">
        <ele>135.266314</ele>
        <time>2020-10-06T15:59:13.134Z</time>
      </trkpt>
      <trkpt lat="54.65029" lon="24.72255">
        <ele>134.634323</ele>
        <time>2020-10-06T15:59:22.040Z</time>
      </trkpt>
      <trkpt lat="54.65039" lon="24.72159">
        <ele>133.756253</ele>
        <time>2020-10-06T15:59:32.996Z</time>
      </trkpt>
      <trkpt lat="54.65048" lon="24.72032">
        <ele>132.523874</ele>
        <time>2020-10-06T15:59:47.111Z</time>
      </trkpt>
      <trkpt lat="54.65051" lon="24.71991">
        <ele>132.122803</ele>
        <time>2020-10-06T15:59:51.389Z</time>
      </trkpt>
      <trkpt lat="54.65063" lon="24.71674">
        <ele>127.649942</ele>
        <time>2020-10-06T16:00:22.175Z</time>
      </trkpt>
      <trkpt lat="54.65072" lon="24.71437">
        <ele>124.473059</ele>
        <time>2020-10-06T16:00:45.430Z</time>
      </trkpt>
      <trkpt lat="54.65111" lon="24.70352">
        <ele>114.444376</ele>
        <time>2020-10-06T16:02:40.500Z</time>
      </trkpt>
      <trkpt lat="54.65121" lon="24.70102">
        <ele>114.32544</ele>
        <time>2020-10-06T16:03:11.898Z</time>
      </trkpt>
      <trkpt lat="54.65126" lon="24.70002">
        <ele>114.424601</ele>
        <time>2020-10-06T16:03:27.404Z</time>
      </trkpt>
      <trkpt lat="54.65134" lon="24.69901">
        <ele>114.707065</ele>
        <time>2020-10-06T16:03:42.315Z</time>
      </trkpt>
      <trkpt lat="54.6514" lon="24.69839">
        <ele>114.880613</ele>
        <time>2020-10-06T16:03:50.970Z</time>
      </trkpt>
      <trkpt lat="54.65149" lon="24.69763">
        <ele>115.093171</ele>
        <time>2020-10-06T16:04:01.405Z</time>
      </trkpt>
      <trkpt lat="54.65157" lon="24.69707">
        <ele>115.137835</ele>
        <time>2020-10-06T16:04:09.267Z</time>
      </trkpt>
      <trkpt lat="54.65159" lon="24.69694">
        <ele>115.128946</ele>
        <time>2020-10-06T16:04:10.982Z</time>
      </trkpt>
      <trkpt lat="54.6518" lon="24.6957">
        <ele>115.045815</ele>
        <time>2020-10-06T16:04:26.580Z</time>
      </trkpt>
      <trkpt lat="54.65231" lon="24.69323">
        <ele>115.41522</ele>
        <time>2020-10-06T16:05:00.002Z</time>
      </trkpt>
      <trkpt lat="54.65288" lon="24.69128">
        <ele>116.121893</ele>
        <time>2020-10-06T16:05:34.324Z</time>
      </trkpt>
      <trkpt lat="54.65357" lon="24.68947">
        <ele>116.425632</ele>
        <time>2020-10-06T16:06:04.974Z</time>
      </trkpt>
      <trkpt lat="54.65466" lon="24.68734">
        <ele>115.018964</ele>
        <time>2020-10-06T16:06:35.849Z</time>
      </trkpt>
      <trkpt lat="54.65498" lon="24.68679">
        <ele>114.505539</ele>
        <time>2020-10-06T16:06:44.197Z</time>
      </trkpt>
      <trkpt lat="54.65571" lon="24.68559">
        <ele>114.325231</ele>
        <time>2020-10-06T16:07:04.422Z</time>
      </trkpt>
      <trkpt lat="54.65806" lon="24.68163">
        <ele>115.802879</ele>
        <time>2020-10-06T16:08:25.753Z</time>
      </trkpt>
      <trkpt lat="54.65866" lon="24.68035">
        <ele>116.532797</ele>
        <time>2020-10-06T16:08:49.305Z</time>
      </trkpt>
      <trkpt lat="54.65927" lon="24.6787">
        <ele>118.187653</ele>
        <time>2020-10-06T16:09:20.992Z</time>
      </trkpt>
      <trkpt lat="54.65957" lon="24.67781">
        <ele>119.130563</ele>
        <time>2020-10-06T16:09:38.997Z</time>
      </trkpt>
      <trkpt lat="54.66003" lon="24.67643">
        <ele>120.274819</ele>
        <time>2020-10-06T16:10:06.610Z</time>
      </trkpt>
      <trkpt lat="54.66034" lon="24.67553">
        <ele>120.932217</ele>
        <time>2020-10-06T16:10:23.009Z</time>
      </trkpt>
      <trkpt lat="54.6607" lon="24.67443">
        <ele>121.553424</ele>
        <time>2020-10-06T16:10:39.798Z</time>
      </trkpt>
      <trkpt lat="54.66103" lon="24.67344">
        <ele>121.687455</ele>
        <time>2020-10-06T16:10:53.682Z</time>
      </trkpt>
      <trkpt lat="54.66157" lon="24.67188">
        <ele>121.913606</ele>
        <time>2020-10-06T16:11:19.078Z</time>
      </trkpt>
      <trkpt lat="54.66171" lon="24.67146">
        <ele>122.004089</ele>
        <time>2020-10-06T16:11:26.109Z</time>
      </trkpt>
      <trkpt lat="54.66217" lon="24.67012">
        <ele>122.296003</ele>
        <time>2020-10-06T16:11:48.186Z</time>
      </trkpt>
      <trkpt lat="54.66246" lon="24.66924">
        <ele>122.356963</ele>
        <time>2020-10-06T16:12:01.703Z</time>
      </trkpt>
      <trkpt lat="54.66271" lon="24.66846">
        <ele>121.650088</ele>
        <time>2020-10-06T16:12:12.017Z</time>
      </trkpt>
      <trkpt lat="54.66365" lon="24.66569">
        <ele>119.340794</ele>
        <time>2020-10-06T16:12:44.955Z</time>
      </trkpt>
      <trkpt lat="54.66447" lon="24.66293">
        <ele>118.358817</ele>
        <time>2020-10-06T16:13:22.227Z</time>
      </trkpt>
      <trkpt lat="54.66465" lon="24.66235">
        <ele>118.447733</ele>
        <time>2020-10-06T16:13:31.575Z</time>
      </trkpt>
      <trkpt lat="54.66482" lon="24.66186">
        <ele>118.526286</ele>
        <time>2020-10-06T16:13:39.993Z</time>
      </trkpt>
      <trkpt lat="54.6653" lon="24.6605">
        <ele>118.406173</ele>
        <time>2020-10-06T16:14:02.973Z</time>
      </trkpt>
      <trkpt lat="54.66583" lon="24.65941">
        <ele>118.025968</ele>
        <time>2020-10-06T16:14:20.688Z</time>
      </trkpt>
      <trkpt lat="54.66636" lon="24.65992">
        <ele>117.515576</ele>
        <time>2020-10-06T16:14:31.624Z</time>
      </trkpt>
      <trkpt lat="54.66669" lon="24.66023">
        <ele>116.519542</ele>
        <time>2020-10-06T16:14:38.019Z</time>
      </trkpt>
      <trkpt lat="54.66697" lon="24.66036">
        <ele>115.742052</ele>
        <time>2020-10-06T16:14:42.953Z</time>
      </trkpt>
      <trkpt lat="54.66752" lon="24.6602">
        <ele>114.280584</ele>
        <time>2020-10-06T16:14:52.115Z</time>
      </trkpt>
      <trkpt lat="54.66773" lon="24.66009">
        <ele>113.691096</ele>
        <time>2020-10-06T16:14:55.708Z</time>
      </trkpt>
      <trkpt lat="54.66796" lon="24.65997">
        <ele>113.046609</ele>
        <time>2020-10-06T16:14:59.757Z</time>
      </trkpt>
      <trkpt lat="54.66838" lon="24.65974">
        <ele>112.054338</ele>
        <time>2020-10-06T16:15:07.038Z</time>
      </trkpt>
      <trkpt lat="54.66863" lon="24.65961">
        <ele>111.478212</ele>
        <time>2020-10-06T16:15:11.327Z</time>
      </trkpt>
      <trkpt lat="54.66879" lon="24.65951">
        <ele>111.081347</ele>
        <time>2020-10-06T16:15:14.284Z</time>
      </trkpt>
      <trkpt lat="54.66896" lon="24.65939">
        <ele>110.666398</ele>
        <time>2020-10-06T16:15:17.404Z</time>
      </trkpt>
      <trkpt lat="54.66984" lon="24.65874">
        <ele>108.834478</ele>
        <time>2020-10-06T16:15:34.622Z</time>
      </trkpt>
      <trkpt lat="54.67074" lon="24.65831">
        <ele>108.176481</ele>
        <time>2020-10-06T16:15:53.268Z</time>
      </trkpt>
      <trkpt lat="54.67096" lon="24.65825">
        <ele>108.022937</ele>
        <time>2020-10-06T16:15:58.065Z</time>
      </trkpt>
      <trkpt lat="54.67117" lon="24.65822">
        <ele>107.872499</ele>
        <time>2020-10-06T16:16:03.117Z</time>
      </trkpt>
      <trkpt lat="54.67179" lon="24.65815">
        <ele>107.548112</ele>
        <time>2020-10-06T16:16:16.192Z</time>
      </trkpt>
      <trkpt lat="54.67192" lon="24.65774">
        <ele>107.429626</ele>
        <time>2020-10-06T16:16:21.697Z</time>
      </trkpt>
      <trkpt lat="54.67194" lon="24.65766">
        <ele>107.406183</ele>
        <time>2020-10-06T16:16:22.950Z</time>
      </trkpt>
      <trkpt lat="54.67205" lon="24.65723">
        <ele>107.290987</ele>
        <time>2020-10-06T16:16:28.251Z</time>
      </trkpt>
      <trkpt lat="54.67207" lon="24.65699">
        <ele>107.227615</ele>
        <time>2020-10-06T16:16:31.728Z</time>
      </trkpt>
      <trkpt lat="54.67181" lon="24.65673">
        <ele>107.097176</ele>
        <time>2020-10-06T16:16:37.920Z</time>
      </trkpt>
      <trkpt lat="54.67104" lon="24.65577">
        <ele>106.624231</ele>
        <time>2020-10-06T16:16:57.250Z</time>
      </trkpt>
      <trkpt lat="54.67018" lon="24.65446">
        <ele>106.011136</ele>
        <time>2020-10-06T16:17:19.934Z</time>
      </trkpt>
      <trkpt lat="54.6694" lon="24.65325">
        <ele>106.675999</ele>
        <time>2020-10-06T16:17:45.146Z</time>
      </trkpt>
      <trkpt lat="54.66927" lon="24.65304">
        <ele>106.80282</ele>
        <time>2020-10-06T16:17:49.851Z</time>
      </trkpt>
      <trkpt lat="54.66904" lon="24.65269">
        <ele>107.023537</ele>
        <time>2020-10-06T16:17:58.315Z</time>
      </trkpt>
      <trkpt lat="54.66893" lon="24.65253">
        <ele>107.123919</ele>
        <time>2020-10-06T16:18:02.271Z</time>
      </trkpt>
      <trkpt lat="54.66868" lon="24.65258">
        <ele>107.312161</ele>
        <time>2020-10-06T16:18:09.476Z</time>
      </trkpt>
      <trkpt lat="54.66857" lon="24.65241">
        <ele>107.425815</ele>
        <time>2020-10-06T16:18:13.558Z</time>
      </trkpt>
      <trkpt lat="54.66852" lon="24.65224">
        <ele>107.512206</ele>
        <time>2020-10-06T16:18:16.667Z</time>
      </trkpt>
      <trkpt lat="54.6685" lon="24.65187">
        <ele>107.679947</ele>
        <time>2020-10-06T16:18:22.496Z</time>
      </trkpt>
      <trkpt lat="54.66785" lon="24.65086">
        <ele>108.361046</ele>
        <time>2020-10-06T16:18:45.270Z</time>
      </trkpt>
      <trkpt lat="54.66694" lon="24.64948">
        <ele>108.394834</ele>
        <time>2020-10-06T16:19:11.337Z</time>
      </trkpt>
      <trkpt lat="54.6665" lon="24.64879">
        <ele>108.206408</ele>
        <time>2020-10-06T16:19:23.336Z</time>
      </trkpt>
      <trkpt lat="54.66563" lon="24.64747">
        <ele>108.550859</ele>
        <time>2020-10-06T16:19:48.124Z</time>
      </trkpt>
      <trkpt lat="54.66527" lon="24.64667">
        <ele>108.894624</ele>
        <time>2020-10-06T16:20:02.589Z</time>
      </trkpt>
      <trkpt lat="54.66513" lon="24.64589">
        <ele>109.242896</ele>
        <time>2020-10-06T16:20:16.580Z</time>
      </trkpt>
      <trkpt lat="54.6652" lon="24.64426">
        <ele>111.412433</ele>
        <time>2020-10-06T16:20:45.927Z</time>
      </trkpt>
      <trkpt lat="54.66519" lon="24.64403">
        <ele>111.70965</ele>
        <time>2020-10-06T16:20:50.191Z</time>
      </trkpt>
      <trkpt lat="54.66515" lon="24.64387">
        <ele>111.942235</ele>
        <time>2020-10-06T16:20:53.707Z</time>
      </trkpt>
      <trkpt lat="54.66491" lon="24.6432">
        <ele>112.979573</ele>
        <time>2020-10-06T16:21:08.165Z</time>
      </trkpt>
      <trkpt lat="54.66397" lon="24.64156">
        <ele>117.223563</ele>
        <time>2020-10-06T16:21:52.293Z</time>
      </trkpt>
      <trkpt lat="54.66385" lon="24.64133">
        <ele>117.817884</ele>
        <time>2020-10-06T16:21:58.931Z</time>
      </trkpt>
      <trkpt lat="54.66309" lon="24.63972">
        <ele>123.772462</ele>
        <time>2020-10-06T16:22:48.462Z</time>
      </trkpt>
      <trkpt lat="54.66269" lon="24.63878">
        <ele>127.678567</ele>
        <time>2020-10-06T16:23:20.955Z</time>
      </trkpt>
      <trkpt lat="54.66217" lon="24.63717">
        <ele>134.033407</ele>
        <time>2020-10-06T16:24:15.555Z</time>
      </trkpt>
      <trkpt lat="54.66205" lon="24.63674">
        <ele>135.688555</ele>
        <time>2020-10-06T16:24:29.034Z</time>
      </trkpt>
      <trkpt lat="54.66182" lon="24.63582">
        <ele>139.177232</ele>
        <time>2020-10-06T16:24:53.982Z</time>
      </trkpt>
      <trkpt lat="54.66171" lon="24.63548">
        <ele>140.48449</ele>
        <time>2020-10-06T16:25:03.165Z</time>
      </trkpt>
      <trkpt lat="54.66142" lon="24.63496">
        <ele>141.888221</ele>
        <time>2020-10-06T16:25:19.629Z</time>
      </trkpt>
      <trkpt lat="54.66024" lon="24.63392">
        <ele>146.383568</ele>
        <time>2020-10-06T16:26:05.312Z</time>
      </trkpt>
      <trkpt lat="54.65917" lon="24.63286">
        <ele>148.749641</ele>
        <time>2020-10-06T16:26:44.428Z</time>
      </trkpt>
      <trkpt lat="54.65847" lon="24.63214">
        <ele>149.675316</ele>
        <time>2020-10-06T16:27:06.026Z</time>
      </trkpt>
      <trkpt lat="54.65815" lon="24.63184">
        <ele>149.347718</ele>
        <time>2020-10-06T16:27:14.300Z</time>
      </trkpt>
      <trkpt lat="54.6556" lon="24.62929">
        <ele>145.148937</ele>
        <time>2020-10-06T16:28:07.260Z</time>
      </trkpt>
      <trkpt lat="54.65495" lon="24.62876">
        <ele>144.762064</ele>
        <time>2020-10-06T16:28:19.844Z</time>
      </trkpt>
      <trkpt lat="54.65462" lon="24.62865">
        <ele>144.628526</ele>
        <time>2020-10-06T16:28:26.956Z</time>
      </trkpt>
      <trkpt lat="54.6546" lon="24.62864">
        <ele>144.619921</ele>
        <time>2020-10-06T16:28:27.259Z</time>
      </trkpt>
      <trkpt lat="54.65441" lon="24.62863">
        <ele>144.547928</ele>
        <time>2020-10-06T16:28:31.427Z</time>
      </trkpt>
      <trkpt lat="54.65419" lon="24.62865">
        <ele>144.462205</ele>
        <time>2020-10-06T16:28:36.385Z</time>
      </trkpt>
      <trkpt lat="54.65411" lon="24.62867">
        <ele>144.428798</ele>
        <time>2020-10-06T16:28:38.421Z</time>
      </trkpt>
      <trkpt lat="54.6532" lon="24.62883">
        <ele>146.683086</ele>
        <time>2020-10-06T16:29:06.571Z</time>
      </trkpt>
      <trkpt lat="54.65174" lon="24.62889">
        <ele>152.600268</ele>
        <time>2020-10-06T16:30:08.589Z</time>
      </trkpt>
      <trkpt lat="54.65118" lon="24.62882">
        <ele>155.259677</ele>
        <time>2020-10-06T16:30:31.839Z</time>
      </trkpt>
      <trkpt lat="54.65083" lon="24.62866">
        <ele>156.984234</ele>
        <time>2020-10-06T16:30:47.246Z</time>
      </trkpt>
      <trkpt lat="54.65074" lon="24.62858">
        <ele>157.474891</ele>
        <time>2020-10-06T16:30:51.971Z</time>
      </trkpt>
      <trkpt lat="54.65065" lon="24.62847">
        <ele>157.997386</ele>
        <time>2020-10-06T16:30:56.203Z</time>
      </trkpt>
      <trkpt lat="54.65045" lon="24.62801">
        <ele>159.595525</ele>
        <time>2020-10-06T16:31:09.593Z</time>
      </trkpt>
      <trkpt lat="54.6503" lon="24.62736">
        <ele>160.898382</ele>
        <time>2020-10-06T16:31:24.851Z</time>
      </trkpt>
      <trkpt lat="54.65021" lon="24.62681">
        <ele>161.892294</ele>
        <time>2020-10-06T16:31:37.019Z</time>
      </trkpt>
      <trkpt lat="54.65018" lon="24.62662">
        <ele>162.23024</ele>
        <time>2020-10-06T16:31:41.117Z</time>
      </trkpt>
      <trkpt lat="54.64982" lon="24.62412">
        <ele>165.996644</ele>
        <time>2020-10-06T16:32:28.170Z</time>
      </trkpt>
      <trkpt lat="54.64955" lon="24.62283">
        <ele>167.217718</ele>
        <time>2020-10-06T16:32:49.984Z</time>
      </trkpt>
      <trkpt lat="54.64859" lon="24.62013">
        <ele>169.566439</ele>
        <time>2020-10-06T16:33:39.718Z</time>
      </trkpt>
      <trkpt lat="54.64836" lon="24.61967">
        <ele>169.977969</ele>
        <time>2020-10-06T16:33:49.266Z</time>
      </trkpt>
      <trkpt lat="54.64795" lon="24.61911">
        <ele>170.336893</ele>
        <time>2020-10-06T16:34:03.093Z</time>
      </trkpt>
      <trkpt lat="54.64753" lon="24.61867">
        <ele>170.584724</ele>
        <time>2020-10-06T16:34:15.300Z</time>
      </trkpt>
      <trkpt lat="54.64715" lon="24.61823">
        <ele>170.812804</ele>
        <time>2020-10-06T16:34:25.798Z</time>
      </trkpt>
      <trkpt lat="54.64673" lon="24.61747">
        <ele>171.029197</ele>
        <time>2020-10-06T16:34:39.911Z</time>
      </trkpt>
      <trkpt lat="54.64668" lon="24.61733">
        <ele>171.014621</ele>
        <time>2020-10-06T16:34:41.868Z</time>
      </trkpt>
      <trkpt lat="54.64661" lon="24.61715">
        <ele>170.99577</ele>
        <time>2020-10-06T16:34:44.580Z</time>
      </trkpt>
      <trkpt lat="54.64552" lon="24.61288">
        <ele>170.474389</ele>
        <time>2020-10-06T16:35:42.529Z</time>
      </trkpt>
      <trkpt lat="54.6451" lon="24.61133">
        <ele>170.331123</ele>
        <time>2020-10-06T16:36:03.589Z</time>
      </trkpt>
      <trkpt lat="54.64477" lon="24.61001">
        <ele>170.306924</ele>
        <time>2020-10-06T16:36:21.770Z</time>
      </trkpt>
      <trkpt lat="54.64443" lon="24.60913">
        <ele>170.367171</ele>
        <time>2020-10-06T16:36:36.001Z</time>
      </trkpt>
      <trkpt lat="54.64365" lon="24.60808">
        <ele>171.111857</ele>
        <time>2020-10-06T16:37:00.705Z</time>
      </trkpt>
      <trkpt lat="54.64327" lon="24.60751">
        <ele>171.487561</ele>
        <time>2020-10-06T16:37:14.069Z</time>
      </trkpt>
      <trkpt lat="54.64276" lon="24.60665">
        <ele>172.138613</ele>
        <time>2020-10-06T16:37:33.276Z</time>
      </trkpt>
      <trkpt lat="54.64206" lon="24.60556">
        <ele>173.051544</ele>
        <time>2020-10-06T16:37:57.827Z</time>
      </trkpt>
      <trkpt lat="54.64111" lon="24.60379">
        <ele>174.233502</ele>
        <time>2020-10-06T16:38:33.429Z</time>
      </trkpt>
      <trkpt lat="54.63996" lon="24.6021">
        <ele>174.484465</ele>
        <time>2020-10-06T16:39:11.828Z</time>
      </trkpt>
      <trkpt lat="54.63918" lon="24.60071">
        <ele>173.804577</ele>
        <time>2020-10-06T16:39:33.172Z</time>
      </trkpt>
      <trkpt lat="54.63893" lon="24.60022">
        <ele>172.860861</ele>
        <time>2020-10-06T16:39:39.677Z</time>
      </trkpt>
      <trkpt lat="54.63864" lon="24.59976">
        <ele>171.884617</ele>
        <time>2020-10-06T16:39:46.319Z</time>
      </trkpt>
      <trkpt lat="54.6383" lon="24.59947">
        <ele>170.970581</ele>
        <time>2020-10-06T16:39:52.455Z</time>
      </trkpt>
      <trkpt lat="54.6382" lon="24.59944">
        <ele>170.703115</ele>
        <time>2020-10-06T16:39:54.095Z</time>
      </trkpt>
      <trkpt lat="54.63807" lon="24.59943">
        <ele>170.393552</ele>
        <time>2020-10-06T16:39:56.254Z</time>
      </trkpt>
      <trkpt lat="54.63772" lon="24.59952">
        <ele>169.541651</ele>
        <time>2020-10-06T16:40:02.201Z</time>
      </trkpt>
      <trkpt lat="54.63738" lon="24.5997">
        <ele>169.413845</ele>
        <time>2020-10-06T16:40:08.416Z</time>
      </trkpt>
      <trkpt lat="54.63719" lon="24.59979">
        <ele>169.343098</ele>
        <time>2020-10-06T16:40:12.050Z</time>
      </trkpt>
      <trkpt lat="54.63702" lon="24.59985">
        <ele>169.281153</ele>
        <time>2020-10-06T16:40:15.306Z</time>
      </trkpt>
      <trkpt lat="54.63685" lon="24.59989">
        <ele>169.217158</ele>
        <time>2020-10-06T16:40:18.859Z</time>
      </trkpt>
      <trkpt lat="54.63674" lon="24.5999">
        <ele>169.179097</ele>
        <time>2020-10-06T16:40:20.845Z</time>
      </trkpt>
      <trkpt lat="54.6365" lon="24.59987">
        <ele>169.089481</ele>
        <time>2020-10-06T16:40:26.915Z</time>
      </trkpt>
      <trkpt lat="54.63615" lon="24.59963">
        <ele>168.953229</ele>
        <time>2020-10-06T16:40:36.990Z</time>
      </trkpt>
      <trkpt lat="54.63476" lon="24.59759">
        <ele>172.305636</ele>
        <time>2020-10-06T16:41:33.312Z</time>
      </trkpt>
      <trkpt lat="54.63437" lon="24.59712">
        <ele>173.012126</ele>
        <time>2020-10-06T16:41:48.203Z</time>
      </trkpt>
      <trkpt lat="54.63399" lon="24.5968">
        <ele>173.552106</ele>
        <time>2020-10-06T16:42:00.391Z</time>
      </trkpt>
      <trkpt lat="54.6336" lon="24.59655">
        <ele>174.090464</ele>
        <time>2020-10-06T16:42:11.954Z</time>
      </trkpt>
      <trkpt lat="54.63284" lon="24.59604">
        <ele>174.83621</ele>
        <time>2020-10-06T16:42:32.026Z</time>
      </trkpt>
      <trkpt lat="54.6327" lon="24.59597">
        <ele>174.812988</ele>
        <time>2020-10-06T16:42:35.123Z</time>
      </trkpt>
      <trkpt lat="54.63239" lon="24.59589">
        <ele>174.762285</ele>
        <time>2020-10-06T16:42:42.195Z</time>
      </trkpt>
      <trkpt lat="54.63192" lon="24.59591">
        <ele>174.685612</ele>
        <time>2020-10-06T16:42:51.867Z</time>
      </trkpt>
      <trkpt lat="54.62899" lon="24.59633">
        <ele>173.346842</ele>
        <time>2020-10-06T16:43:53.521Z</time>
      </trkpt>
      <trkpt lat="54.62825" lon="24.59645">
        <ele>172.440059</ele>
        <time>2020-10-06T16:44:07.985Z</time>
      </trkpt>
      <trkpt lat="54.62787" lon="24.59654">
        <ele>171.980439</ele>
        <time>2020-10-06T16:44:14.772Z</time>
      </trkpt>
      <trkpt lat="54.62751" lon="24.59664">
        <ele>171.325481</ele>
        <time>2020-10-06T16:44:21.034Z</time>
      </trkpt>
      <trkpt lat="54.62669" lon="24.59704">
        <ele>169.201845</ele>
        <time>2020-10-06T16:44:35.334Z</time>
      </trkpt>
      <trkpt lat="54.62645" lon="24.59714">
        <ele>168.588241</ele>
        <time>2020-10-06T16:44:39.425Z</time>
      </trkpt>
      <trkpt lat="54.62629" lon="24.5972">
        <ele>168.167825</ele>
        <time>2020-10-06T16:44:42.240Z</time>
      </trkpt>
      <trkpt lat="54.62511" lon="24.59739">
        <ele>166.134895</ele>
        <time>2020-10-06T16:45:02.706Z</time>
      </trkpt>
      <trkpt lat="54.62254" lon="24.5972">
        <ele>163.942803</ele>
        <time>2020-10-06T16:45:54.859Z</time>
      </trkpt>
      <trkpt lat="54.61915" lon="24.59615">
        <ele>163.041607</ele>
        <time>2020-10-06T16:47:09.609Z</time>
      </trkpt>
      <trkpt lat="54.6183" lon="24.59576">
        <ele>162.699857</ele>
        <time>2020-10-06T16:47:26.823Z</time>
      </trkpt>
      <trkpt lat="54.61813" lon="24.59559">
        <ele>162.611602</ele>
        <time>2020-10-06T16:47:30.886Z</time>
      </trkpt>
      <trkpt lat="54.618" lon="24.5954">
        <ele>162.538941</ele>
        <time>2020-10-06T16:47:34.161Z</time>
      </trkpt>
      <trkpt lat="54.61717" lon="24.59393">
        <ele>162.362137</ele>
        <time>2020-10-06T16:47:59.846Z</time>
      </trkpt>
      <trkpt lat="54.61693" lon="24.59344">
        <ele>162.662269</ele>
        <time>2020-10-06T16:48:08.588Z</time>
      </trkpt>
      <trkpt lat="54.61671" lon="24.59288">
        <ele>162.976574</ele>
        <time>2020-10-06T16:48:18.679Z</time>
      </trkpt>
      <trkpt lat="54.61638" lon="24.5919">
        <ele>163.50598</ele>
        <time>2020-10-06T16:48:36.816Z</time>
      </trkpt>
      <trkpt lat="54.61605" lon="24.59084">
        <ele>164.212935</ele>
        <time>2020-10-06T16:48:56.882Z</time>
      </trkpt>
      <trkpt lat="54.6157" lon="24.58974">
        <ele>164.975301</ele>
        <time>2020-10-06T16:49:16.199Z</time>
      </trkpt>
      <trkpt lat="54.61544" lon="24.58907">
        <ele>165.464142</ele>
        <time>2020-10-06T16:49:27.947Z</time>
      </trkpt>
      <trkpt lat="54.61516" lon="24.5885">
        <ele>165.38889</ele>
        <time>2020-10-06T16:49:38.507Z</time>
      </trkpt>
      <trkpt lat="54.61407" lon="24.58662">
        <ele>165.246872</ele>
        <time>2020-10-06T16:50:09.661Z</time>
      </trkpt>
      <trkpt lat="54.61353" lon="24.58553">
        <ele>165.981778</ele>
        <time>2020-10-06T16:50:28.683Z</time>
      </trkpt>
      <trkpt lat="54.61324" lon="24.585">
        <ele>166.354383</ele>
        <time>2020-10-06T16:50:40.027Z</time>
      </trkpt>
      <trkpt lat="54.61191" lon="24.58322">
        <ele>170.113591</ele>
        <time>2020-10-06T16:51:36.231Z</time>
      </trkpt>
      <trkpt lat="54.61126" lon="24.58253">
        <ele>171.86362</ele>
        <time>2020-10-06T16:52:01.664Z</time>
      </trkpt>
      <trkpt lat="54.61067" lon="24.58211">
        <ele>172.875425</ele>
        <time>2020-10-06T16:52:20.733Z</time>
      </trkpt>
      <trkpt lat="54.61005" lon="24.58144">
        <ele>174.05547</ele>
        <time>2020-10-06T16:52:40.887Z</time>
      </trkpt>
      <trkpt lat="54.60875" lon="24.57985">
        <ele>174.594634</ele>
        <time>2020-10-06T16:53:18.133Z</time>
      </trkpt>
      <trkpt lat="54.60801" lon="24.57915">
        <ele>174.045638</ele>
        <time>2020-10-06T16:53:36.128Z</time>
      </trkpt>
      <trkpt lat="54.60711" lon="24.57846">
        <ele>172.767878</ele>
        <time>2020-10-06T16:53:54.309Z</time>
      </trkpt>
      <trkpt lat="54.6068" lon="24.5782">
        <ele>172.303374</ele>
        <time>2020-10-06T16:54:00.359Z</time>
      </trkpt>
      <trkpt lat="54.60647" lon="24.57777">
        <ele>170.769417</ele>
        <time>2020-10-06T16:54:07.365Z</time>
      </trkpt>
      <trkpt lat="54.60628" lon="24.57735">
        <ele>169.632361</ele>
        <time>2020-10-06T16:54:12.442Z</time>
      </trkpt>
      <trkpt lat="54.60528" lon="24.57462">
        <ele>161.398929</ele>
        <time>2020-10-06T16:54:41.266Z</time>
      </trkpt>
      <trkpt lat="54.60488" lon="24.57349">
        <ele>157.28808</ele>
        <time>2020-10-06T16:54:52.510Z</time>
      </trkpt>
      <trkpt lat="54.60462" lon="24.5728">
        <ele>154.943163</ele>
        <time>2020-10-06T16:54:59.571Z</time>
      </trkpt>
      <trkpt lat="54.60445" lon="24.5724">
        <ele>153.698675</ele>
        <time>2020-10-06T16:55:03.754Z</time>
      </trkpt>
      <trkpt lat="54.60434" lon="24.57215">
        <ele>152.872058</ele>
        <time>2020-10-06T16:55:06.558Z</time>
      </trkpt>
      <trkpt lat="54.60424" lon="24.57195">
        <ele>152.218851</ele>
        <time>2020-10-06T16:55:08.786Z</time>
      </trkpt>
      <trkpt lat="54.60385" lon="24.57138">
        <ele>149.977241</ele>
        <time>2020-10-06T16:55:16.841Z</time>
      </trkpt>
      <trkpt lat="54.60374" lon="24.57127">
        <ele>149.411116</ele>
        <time>2020-10-06T16:55:18.857Z</time>
      </trkpt>
      <trkpt lat="54.60299" lon="24.57072">
        <ele>147.773233</ele>
        <time>2020-10-06T16:55:33.037Z</time>
      </trkpt>
      <trkpt lat="54.60098" lon="24.56902">
        <ele>147.028728</ele>
        <time>2020-10-06T16:56:24.518Z</time>
      </trkpt>
      <trkpt lat="54.60026" lon="24.56822">
        <ele>147.118534</ele>
        <time>2020-10-06T16:56:43.761Z</time>
      </trkpt>
      <trkpt lat="54.59967" lon="24.5674">
        <ele>147.19762</ele>
        <time>2020-10-06T16:57:00.189Z</time>
      </trkpt>
      <trkpt lat="54.59945" lon="24.56697">
        <ele>147.232656</ele>
        <time>2020-10-06T16:57:07.665Z</time>
      </trkpt>
      <trkpt lat="54.5991" lon="24.56629">
        <ele>147.287264</ele>
        <time>2020-10-06T16:57:19.652Z</time>
      </trkpt>
      <trkpt lat="54.59892" lon="24.56596">
        <ele>147.396106</ele>
        <time>2020-10-06T16:57:26.063Z</time>
      </trkpt>
      <trkpt lat="54.59756" lon="24.56397">
        <ele>148.970803</ele>
        <time>2020-10-06T16:58:12.930Z</time>
      </trkpt>
      <trkpt lat="54.59749" lon="24.56386">
        <ele>149.012583</ele>
        <time>2020-10-06T16:58:15.427Z</time>
      </trkpt>
      <trkpt lat="54.59737" lon="24.56367">
        <ele>149.089133</ele>
        <time>2020-10-06T16:58:19.889Z</time>
      </trkpt>
      <trkpt lat="54.59684" lon="24.56276">
        <ele>149.435823</ele>
        <time>2020-10-06T16:58:39.001Z</time>
      </trkpt>
      <trkpt lat="54.59664" lon="24.56223">
        <ele>149.606804</ele>
        <time>2020-10-06T16:58:47.554Z</time>
      </trkpt>
      <trkpt lat="54.59636" lon="24.56141">
        <ele>149.461728</ele>
        <time>2020-10-06T16:58:59.154Z</time>
      </trkpt>
      <trkpt lat="54.59607" lon="24.56071">
        <ele>148.731082</ele>
        <time>2020-10-06T16:59:08.711Z</time>
      </trkpt>
      <trkpt lat="54.59512" lon="24.55887">
        <ele>147.081011</ele>
        <time>2020-10-06T16:59:33.868Z</time>
      </trkpt>
      <trkpt lat="54.59475" lon="24.55801">
        <ele>147.024716</ele>
        <time>2020-10-06T16:59:45.125Z</time>
      </trkpt>
      <trkpt lat="54.59403" lon="24.55626">
        <ele>149.048309</ele>
        <time>2020-10-06T17:00:20.456Z</time>
      </trkpt>
      <trkpt lat="54.59379" lon="24.5557">
        <ele>151.168122</ele>
        <time>2020-10-06T17:00:37.789Z</time>
      </trkpt>
      <trkpt lat="54.59362" lon="24.5553">
        <ele>152.684466</ele>
        <time>2020-10-06T17:00:51.423Z</time>
      </trkpt>
      <trkpt lat="54.59312" lon="24.55415">
        <ele>157.164377</ele>
        <time>2020-10-06T17:01:34.014Z</time>
      </trkpt>
      <trkpt lat="54.59288" lon="24.55339">
        <ele>160.340131</ele>
        <time>2020-10-06T17:02:01.104Z</time>
      </trkpt>
      <trkpt lat="54.59274" lon="24.55236">
        <ele>164.184051</ele>
        <time>2020-10-06T17:02:31.895Z</time>
      </trkpt>
      <trkpt lat="54.59271" lon="24.55166">
        <ele>166.748208</ele>
        <time>2020-10-06T17:02:49.735Z</time>
      </trkpt>
      <trkpt lat="54.59275" lon="24.54981">
        <ele>169.883693</ele>
        <time>2020-10-06T17:03:27.413Z</time>
      </trkpt>
      <trkpt lat="54.59264" lon="24.54872">
        <ele>171.393739</ele>
        <time>2020-10-06T17:03:45.126Z</time>
      </trkpt>
      <trkpt lat="54.59252" lon="24.54771">
        <ele>171.985715</ele>
        <time>2020-10-06T17:03:59.885Z</time>
      </trkpt>
      <trkpt lat="54.5925" lon="24.54747">
        <ele>171.998991</ele>
        <time>2020-10-06T17:04:03.380Z</time>
      </trkpt>
      <trkpt lat="54.59246" lon="24.54477">
        <ele>172.022011</ele>
        <time>2020-10-06T17:04:37.209Z</time>
      </trkpt>
      <trkpt lat="54.59197" lon="24.54092">
        <ele>171.845095</ele>
        <time>2020-10-06T17:05:24.972Z</time>
      </trkpt>
      <trkpt lat="54.59194" lon="24.5405">
        <ele>171.977982</ele>
        <time>2020-10-06T17:05:30.997Z</time>
      </trkpt>
      <trkpt lat="54.59191" lon="24.54005">
        <ele>172.121324</ele>
        <time>2020-10-06T17:05:38.285Z</time>
      </trkpt>
      <trkpt lat="54.59189" lon="24.53955">
        <ele>172.278431</ele>
        <time>2020-10-06T17:05:46.176Z</time>
      </trkpt>
      <trkpt lat="54.59185" lon="24.53832">
        <ele>172.70949</ele>
        <time>2020-10-06T17:06:06.446Z</time>
      </trkpt>
      <trkpt lat="54.59181" lon="24.53745">
        <ele>173.029598</ele>
        <time>2020-10-06T17:06:21.115Z</time>
      </trkpt>
      <trkpt lat="54.59166" lon="24.53587">
        <ele>173.294039</ele>
        <time>2020-10-06T17:06:41.646Z</time>
      </trkpt>
      <trkpt lat="54.59157" lon="24.53548">
        <ele>172.653073</ele>
        <time>2020-10-06T17:06:46.068Z</time>
      </trkpt>
      <trkpt lat="54.5915" lon="24.5353">
        <ele>172.335718</ele>
        <time>2020-10-06T17:06:48.272Z</time>
      </trkpt>
      <trkpt lat="54.59145" lon="24.53517">
        <ele>172.095443</ele>
        <time>2020-10-06T17:06:49.941Z</time>
      </trkpt>
      <trkpt lat="54.59134" lon="24.53494">
        <ele>171.641796</ele>
        <time>2020-10-06T17:06:52.774Z</time>
      </trkpt>
      <trkpt lat="54.59096" lon="24.53434">
        <ele>170.296805</ele>
        <time>2020-10-06T17:07:01.319Z</time>
      </trkpt>
      <trkpt lat="54.59035" lon="24.53349">
        <ele>167.947018</ele>
        <time>2020-10-06T17:07:13.726Z</time>
      </trkpt>
      <trkpt lat="54.58997" lon="24.53296">
        <ele>166.042943</ele>
        <time>2020-10-06T17:07:21.387Z</time>
      </trkpt>
      <trkpt lat="54.58783" lon="24.53011">
        <ele>155.763724</ele>
        <time>2020-10-06T17:08:04.433Z</time>
      </trkpt>
      <trkpt lat="54.58692" lon="24.52914">
        <ele>152.189462</ele>
        <time>2020-10-06T17:08:21.159Z</time>
      </trkpt>
      <trkpt lat="54.58653" lon="24.52882">
        <ele>150.751411</ele>
        <time>2020-10-06T17:08:28.158Z</time>
      </trkpt>
      <trkpt lat="54.58635" lon="24.52871">
        <ele>150.113145</ele>
        <time>2020-10-06T17:08:31.394Z</time>
      </trkpt>
      <trkpt lat="54.58616" lon="24.52863">
        <ele>149.46533</ele>
        <time>2020-10-06T17:08:34.712Z</time>
      </trkpt>
      <trkpt lat="54.58591" lon="24.52854">
        <ele>149.211265</ele>
        <time>2020-10-06T17:08:39.152Z</time>
      </trkpt>
      <trkpt lat="54.58578" lon="24.5285">
        <ele>149.215989</ele>
        <time>2020-10-06T17:08:41.547Z</time>
      </trkpt>
      <trkpt lat="54.5852" lon="24.52835">
        <ele>149.237017</ele>
        <time>2020-10-06T17:08:53.103Z</time>
      </trkpt>
      <trkpt lat="54.58396" lon="24.52803">
        <ele>149.967533</ele>
        <time>2020-10-06T17:09:28.488Z</time>
      </trkpt>
      <trkpt lat="54.58307" lon="24.52782">
        <ele>151.774898</ele>
        <time>2020-10-06T17:09:58.262Z</time>
      </trkpt>
      <trkpt lat="54.58253" lon="24.52766">
        <ele>152.860849</ele>
        <time>2020-10-06T17:10:14.136Z</time>
      </trkpt>
      <trkpt lat="54.58228" lon="24.52755">
        <ele>152.663239</ele>
        <time>2020-10-06T17:10:21.455Z</time>
      </trkpt>
      <trkpt lat="54.58177" lon="24.52729">
        <ele>152.200033</ele>
        <time>2020-10-06T17:10:34.276Z</time>
      </trkpt>
      <trkpt lat="54.58155" lon="24.52723">
        <ele>152.001909</ele>
        <time>2020-10-06T17:10:39.105Z</time>
      </trkpt>
      <trkpt lat="54.58132" lon="24.52722">
        <ele>151.801188</ele>
        <time>2020-10-06T17:10:43.106Z</time>
      </trkpt>
      <trkpt lat="54.58117" lon="24.52722">
        <ele>151.6729</ele>
        <time>2020-10-06T17:10:45.769Z</time>
      </trkpt>
      <trkpt lat="54.58103" lon="24.52722">
        <ele>151.548981</ele>
        <time>2020-10-06T17:10:48.117Z</time>
      </trkpt>
      <trkpt lat="54.5808" lon="24.52721">
        <ele>151.353495</ele>
        <time>2020-10-06T17:10:52.014Z</time>
      </trkpt>
      <trkpt lat="54.58057" lon="24.5272">
        <ele>150.307594</ele>
        <time>2020-10-06T17:10:55.671Z</time>
      </trkpt>
      <trkpt lat="54.58044" lon="24.5272">
        <ele>149.624598</ele>
        <time>2020-10-06T17:10:57.740Z</time>
      </trkpt>
      <trkpt lat="54.58008" lon="24.5272">
        <ele>147.743642</ele>
        <time>2020-10-06T17:11:03.177Z</time>
      </trkpt>
      <trkpt lat="54.58001" lon="24.5272">
        <ele>147.412596</ele>
        <time>2020-10-06T17:11:04.081Z</time>
      </trkpt>
      <trkpt lat="54.5798" lon="24.5272">
        <ele>146.262005</ele>
        <time>2020-10-06T17:11:07.391Z</time>
      </trkpt>
      <trkpt lat="54.5794" lon="24.52726">
        <ele>144.173487</ele>
        <time>2020-10-06T17:11:13.370Z</time>
      </trkpt>
      <trkpt lat="54.57918" lon="24.52733">
        <ele>142.980985</ele>
        <time>2020-10-06T17:11:16.624Z</time>
      </trkpt>
      <trkpt lat="54.57886" lon="24.52744">
        <ele>141.101737</ele>
        <time>2020-10-06T17:11:21.267Z</time>
      </trkpt>
      <trkpt lat="54.57792" lon="24.52792">
        <ele>134.374216</ele>
        <time>2020-10-06T17:11:35.131Z</time>
      </trkpt>
      <trkpt lat="54.57762" lon="24.52802">
        <ele>132.208523</ele>
        <time>2020-10-06T17:11:39.608Z</time>
      </trkpt>
      <trkpt lat="54.57691" lon="24.52822">
        <ele>128.05645</ele>
        <time>2020-10-06T17:11:50.099Z</time>
      </trkpt>
      <trkpt lat="54.57678" lon="24.52827">
        <ele>127.448997</ele>
        <time>2020-10-06T17:11:52.061Z</time>
      </trkpt>
      <trkpt lat="54.57638" lon="24.52844">
        <ele>125.610104</ele>
        <time>2020-10-06T17:11:58.269Z</time>
      </trkpt>
      <trkpt lat="54.57566" lon="24.52894">
        <ele>122.163211</ele>
        <time>2020-10-06T17:12:10.547Z</time>
      </trkpt>
      <trkpt lat="54.57539" lon="24.52916">
        <ele>121.3636</ele>
        <time>2020-10-06T17:12:15.547Z</time>
      </trkpt>
      <trkpt lat="54.57524" lon="24.52923">
        <ele>121.262578</ele>
        <time>2020-10-06T17:12:18.458Z</time>
      </trkpt>
      <trkpt lat="54.57465" lon="24.52932">
        <ele>120.879561</ele>
        <time>2020-10-06T17:12:29.946Z</time>
      </trkpt>
      <trkpt lat="54.5738" lon="24.52939">
        <ele>120.328131</ele>
        <time>2020-10-06T17:12:48.235Z</time>
      </trkpt>
      <trkpt lat="54.57372" lon="24.5294">
        <ele>120.36311</ele>
        <time>2020-10-06T17:12:50.342Z</time>
      </trkpt>
      <trkpt lat="54.57333" lon="24.52944">
        <ele>121.834572</ele>
        <time>2020-10-06T17:13:01.888Z</time>
      </trkpt>
      <trkpt lat="54.57233" lon="24.52949">
        <ele>125.561551</ele>
        <time>2020-10-06T17:13:37.964Z</time>
      </trkpt>
      <trkpt lat="54.57186" lon="24.5295">
        <ele>127.679465</ele>
        <time>2020-10-06T17:14:02.114Z</time>
      </trkpt>
      <trkpt lat="54.57129" lon="24.52957">
        <ele>132.18466</ele>
        <time>2020-10-06T17:14:31.547Z</time>
      </trkpt>
      <trkpt lat="54.57098" lon="24.52963">
        <ele>134.603816</ele>
        <time>2020-10-06T17:14:48.645Z</time>
      </trkpt>
      <trkpt lat="54.57078" lon="24.52968">
        <ele>136.212032</ele>
        <time>2020-10-06T17:15:01.034Z</time>
      </trkpt>
      <trkpt lat="54.56982" lon="24.53014">
        <ele>143.840591</ele>
        <time>2020-10-06T17:15:56.471Z</time>
      </trkpt>
      <trkpt lat="54.56953" lon="24.53022">
        <ele>145.929763</ele>
        <time>2020-10-06T17:16:12.275Z</time>
      </trkpt>
      <trkpt lat="54.56892" lon="24.53004">
        <ele>150.344456</ele>
        <time>2020-10-06T17:16:45.561Z</time>
      </trkpt>
      <trkpt lat="54.5681" lon="24.52956">
        <ele>154.744183</ele>
        <time>2020-10-06T17:17:23.143Z</time>
      </trkpt>
      <trkpt lat="54.56802" lon="24.52953">
        <ele>154.908069</ele>
        <time>2020-10-06T17:17:28.239Z</time>
      </trkpt>
      <trkpt lat="54.56798" lon="24.52952">
        <ele>154.974116</ele>
        <time>2020-10-06T17:17:29.601Z</time>
      </trkpt>
      <trkpt lat="54.56781" lon="24.52949">
        <ele>155.294296</ele>
        <time>2020-10-06T17:17:34.791Z</time>
      </trkpt>
      <trkpt lat="54.56771" lon="24.52949">
        <ele>155.478779</ele>
        <time>2020-10-06T17:17:38.407Z</time>
      </trkpt>
      <trkpt lat="54.56766" lon="24.52949">
        <ele>155.567335</ele>
        <time>2020-10-06T17:17:41.184Z</time>
      </trkpt>
      <trkpt lat="54.56615" lon="24.52994">
        <ele>155.331813</ele>
        <time>2020-10-06T17:18:12.811Z</time>
      </trkpt>
      <trkpt lat="54.56539" lon="24.53005">
        <ele>152.217712</ele>
        <time>2020-10-06T17:18:24.269Z</time>
      </trkpt>
      <trkpt lat="54.5647" lon="24.5303">
        <ele>149.195973</ele>
        <time>2020-10-06T17:18:34.646Z</time>
      </trkpt>
      <trkpt lat="54.56415" lon="24.53009">
        <ele>146.447521</ele>
        <time>2020-10-06T17:18:42.846Z</time>
      </trkpt>
      <trkpt lat="54.56305" lon="24.52917">
        <ele>140.860306</ele>
        <time>2020-10-06T17:19:01.806Z</time>
      </trkpt>
      <trkpt lat="54.56272" lon="24.52901">
        <ele>140.047776</ele>
        <time>2020-10-06T17:19:07.479Z</time>
      </trkpt>
      <trkpt lat="54.56232" lon="24.52905">
        <ele>139.093263</ele>
        <time>2020-10-06T17:19:14.439Z</time>
      </trkpt>
      <trkpt lat="54.56132" lon="24.52937">
        <ele>136.703842</ele>
        <time>2020-10-06T17:19:33.023Z</time>
      </trkpt>
      <trkpt lat="54.56093" lon="24.52942">
        <ele>135.820876</ele>
        <time>2020-10-06T17:19:40.139Z</time>
      </trkpt>
      <trkpt lat="54.56032" lon="24.52925">
        <ele>134.402617</ele>
        <time>2020-10-06T17:19:51.281Z</time>
      </trkpt>
      <trkpt lat="54.55894" lon="24.52864">
        <ele>129.820744</ele>
        <time>2020-10-06T17:20:14.452Z</time>
      </trkpt>
      <trkpt lat="54.55873" lon="24.52864">
        <ele>128.979995</ele>
        <time>2020-10-06T17:20:17.692Z</time>
      </trkpt>
      <trkpt lat="54.55859" lon="24.52864">
        <ele>128.419499</ele>
        <time>2020-10-06T17:20:19.831Z</time>
      </trkpt>
      <trkpt lat="54.55774" lon="24.52894">
        <ele>125.018914</ele>
        <time>2020-10-06T17:20:33.075Z</time>
      </trkpt>
      <trkpt lat="54.55747" lon="24.52889">
        <ele>124.011907</ele>
        <time>2020-10-06T17:20:37.311Z</time>
      </trkpt>
      <trkpt lat="54.55714" lon="24.52866">
        <ele>122.701041</ele>
        <time>2020-10-06T17:20:42.850Z</time>
      </trkpt>
      <trkpt lat="54.55667" lon="24.52825">
        <ele>120.792456</ele>
        <time>2020-10-06T17:20:51.130Z</time>
      </trkpt>
      <trkpt lat="54.55656" lon="24.52815">
        <ele>120.333968</ele>
        <time>2020-10-06T17:20:53.257Z</time>
      </trkpt>
      <trkpt lat="54.55642" lon="24.52806">
        <ele>119.766776</ele>
        <time>2020-10-06T17:20:55.734Z</time>
      </trkpt>
      <trkpt lat="54.55581" lon="24.52793">
        <ele>118.863235</ele>
        <time>2020-10-06T17:21:06.444Z</time>
      </trkpt>
      <trkpt lat="54.55524" lon="24.52811">
        <ele>118.505573</ele>
        <time>2020-10-06T17:21:17.688Z</time>
      </trkpt>
      <trkpt lat="54.55482" lon="24.52844">
        <ele>118.222577</ele>
        <time>2020-10-06T17:21:27.915Z</time>
      </trkpt>
      <trkpt lat="54.55373" lon="24.5296">
        <ele>120.252782</ele>
        <time>2020-10-06T17:22:04.920Z</time>
      </trkpt>
      <trkpt lat="54.55303" lon="24.53019">
        <ele>122.056961</ele>
        <time>2020-10-06T17:22:32.172Z</time>
      </trkpt>
      <trkpt lat="54.55266" lon="24.53044">
        <ele>123.184696</ele>
        <time>2020-10-06T17:22:46.462Z</time>
      </trkpt>
      <trkpt lat="54.55241" lon="24.53061">
        <ele>123.981279</ele>
        <time>2020-10-06T17:22:56.392Z</time>
      </trkpt>
      <trkpt lat="54.55134" lon="24.53129">
        <ele>127.317062</ele>
        <time>2020-10-06T17:23:35.602Z</time>
      </trkpt>
      <trkpt lat="54.55095" lon="24.53149">
        <ele>127.8853</ele>
        <time>2020-10-06T17:23:47.484Z</time>
      </trkpt>
      <trkpt lat="54.55027" lon="24.53171">
        <ele>128.708872</ele>
        <time>2020-10-06T17:24:05.143Z</time>
      </trkpt>
      <trkpt lat="54.5499" lon="24.53181">
        <ele>129.155319</ele>
        <time>2020-10-06T17:24:14.611Z</time>
      </trkpt>
      <trkpt lat="54.5497" lon="24.53185">
        <ele>129.393092</ele>
        <time>2020-10-06T17:24:19.649Z</time>
      </trkpt>
      <trkpt lat="54.54912" lon="24.53185">
        <ele>130.089424</ele>
        <time>2020-10-06T17:24:34.622Z</time>
      </trkpt>
      <trkpt lat="54.54878" lon="24.53178">
        <ele>130.504001</ele>
        <time>2020-10-06T17:24:43.727Z</time>
      </trkpt>
      <trkpt lat="54.54822" lon="24.53162">
        <ele>131.186932</ele>
        <time>2020-10-06T17:24:59.181Z</time>
      </trkpt>
      <trkpt lat="54.54759" lon="24.53141">
        <ele>131.953445</ele>
        <time>2020-10-06T17:25:17.430Z</time>
      </trkpt>
      <trkpt lat="54.54655" lon="24.53129">
        <ele>133.21543</ele>
        <time>2020-10-06T17:25:46.890Z</time>
      </trkpt>
      <trkpt lat="54.54584" lon="24.53142">
        <ele>133.978058</ele>
        <time>2020-10-06T17:26:04.743Z</time>
      </trkpt>
      <trkpt lat="54.545" lon="24.53176">
        <ele>134.28131</ele>
        <time>2020-10-06T17:26:25.069Z</time>
      </trkpt>
      <trkpt lat="54.54316" lon="24.53267">
        <ele>134.920288</ele>
        <time>2020-10-06T17:27:09.697Z</time>
      </trkpt>
      <trkpt lat="54.54236" lon="24.5331">
        <ele>135.176418</ele>
        <time>2020-10-06T17:27:29.833Z</time>
      </trkpt>
      <trkpt lat="54.54164" lon="24.53364">
        <ele>135.371532</ele>
        <time>2020-10-06T17:27:48.731Z</time>
      </trkpt>
      <trkpt lat="54.54094" lon="24.53405">
        <ele>135.553205</ele>
        <time>2020-10-06T17:28:05.672Z</time>
      </trkpt>
      <trkpt lat="54.53798" lon="24.5349">
        <ele>134.833579</ele>
        <time>2020-10-06T17:29:09.263Z</time>
      </trkpt>
      <trkpt lat="54.53667" lon="24.53529">
        <ele>134.456632</ele>
        <time>2020-10-06T17:29:37.888Z</time>
      </trkpt>
      <trkpt lat="54.5361" lon="24.53528">
        <ele>134.285962</ele>
        <time>2020-10-06T17:29:50.078Z</time>
      </trkpt>
      <trkpt lat="54.53256" lon="24.53409">
        <ele>132.621481</ele>
        <time>2020-10-06T17:31:04.589Z</time>
      </trkpt>
      <trkpt lat="54.5324" lon="24.5341">
        <ele>132.535878</ele>
        <time>2020-10-06T17:31:07.742Z</time>
      </trkpt>
      <trkpt lat="54.53221" lon="24.53417">
        <ele>132.430206</ele>
        <time>2020-10-06T17:31:11.823Z</time>
      </trkpt>
      <trkpt lat="54.53053" lon="24.53586">
        <ele>131.189937</ele>
        <time>2020-10-06T17:31:50.529Z</time>
      </trkpt>
      <trkpt lat="54.53036" lon="24.53602">
        <ele>131.103299</ele>
        <time>2020-10-06T17:31:54.711Z</time>
      </trkpt>
      <trkpt lat="54.53026" lon="24.53607">
        <ele>131.099118</ele>
        <time>2020-10-06T17:31:56.768Z</time>
      </trkpt>
      <trkpt lat="54.52948" lon="24.53627">
        <ele>131.066508</ele>
        <time>2020-10-06T17:32:13.740Z</time>
      </trkpt>
      <trkpt lat="54.52909" lon="24.53633">
        <ele>131.050496</ele>
        <time>2020-10-06T17:32:22.516Z</time>
      </trkpt>
      <trkpt lat="54.52895" lon="24.53634">
        <ele>131.044801</ele>
        <time>2020-10-06T17:32:25.858Z</time>
      </trkpt>
      <trkpt lat="54.52857" lon="24.53626">
        <ele>131.061181</ele>
        <time>2020-10-06T17:32:34.981Z</time>
      </trkpt>
      <trkpt lat="54.52826" lon="24.53604">
        <ele>131.197629</ele>
        <time>2020-10-06T17:32:43.271Z</time>
      </trkpt>
      <trkpt lat="54.52753" lon="24.53536">
        <ele>131.530964</ele>
        <time>2020-10-06T17:33:03.467Z</time>
      </trkpt>
      <trkpt lat="54.52668" lon="24.53456">
        <ele>131.876769</ele>
        <time>2020-10-06T17:33:26.087Z</time>
      </trkpt>
      <trkpt lat="54.52587" lon="24.53367">
        <ele>132.164636</ele>
        <time>2020-10-06T17:33:47.998Z</time>
      </trkpt>
      <trkpt lat="54.524" lon="24.53094">
        <ele>133.719523</ele>
        <time>2020-10-06T17:34:48.632Z</time>
      </trkpt>
      <trkpt lat="54.52363" lon="24.53053">
        <ele>134.295827</ele>
        <time>2020-10-06T17:35:00.523Z</time>
      </trkpt>
      <trkpt lat="54.52334" lon="24.53031">
        <ele>134.695666</ele>
        <time>2020-10-06T17:35:08.922Z</time>
      </trkpt>
      <trkpt lat="54.52307" lon="24.53022">
        <ele>135.061346</ele>
        <time>2020-10-06T17:35:16.748Z</time>
      </trkpt>
      <trkpt lat="54.5227" lon="24.53023">
        <ele>135.534601</ele>
        <time>2020-10-06T17:35:27.099Z</time>
      </trkpt>
      <trkpt lat="54.52039" lon="24.53067">
        <ele>139.673954</ele>
        <time>2020-10-06T17:36:37.630Z</time>
      </trkpt>
      <trkpt lat="54.52021" lon="24.53067">
        <ele>139.849511</ele>
        <time>2020-10-06T17:36:43.416Z</time>
      </trkpt>
      <trkpt lat="54.52008" lon="24.53066">
        <ele>139.962654</ele>
        <time>2020-10-06T17:36:46.914Z</time>
      </trkpt>
      <trkpt lat="54.51591" lon="24.52934">
        <ele>143.091451</ele>
        <time>2020-10-06T17:38:33.130Z</time>
      </trkpt>
      <trkpt lat="54.51535" lon="24.52929">
        <ele>143.155663</ele>
        <time>2020-10-06T17:38:44.713Z</time>
      </trkpt>
      <trkpt lat="54.5149" lon="24.52948">
        <ele>142.643992</ele>
        <time>2020-10-06T17:38:53.814Z</time>
      </trkpt>
      <trkpt lat="54.5142" lon="24.53008">
        <ele>141.77085</ele>
        <time>2020-10-06T17:39:08.675Z</time>
      </trkpt>
      <trkpt lat="54.51267" lon="24.53171">
        <ele>139.255034</ele>
        <time>2020-10-06T17:39:41.495Z</time>
      </trkpt>
      <trkpt lat="54.51233" lon="24.53201">
        <ele>138.674998</ele>
        <time>2020-10-06T17:39:48.563Z</time>
      </trkpt>
      <trkpt lat="54.51181" lon="24.53227">
        <ele>138.018231</ele>
        <time>2020-10-06T17:39:58.621Z</time>
      </trkpt>
      <trkpt lat="54.51073" lon="24.53245">
        <ele>136.787595</ele>
        <time>2020-10-06T17:40:19.020Z</time>
      </trkpt>
      <trkpt lat="54.50992" lon="24.53302">
        <ele>136.246259</ele>
        <time>2020-10-06T17:40:36.765Z</time>
      </trkpt>
      <trkpt lat="54.50973" lon="24.53309">
        <ele>136.17047</ele>
        <time>2020-10-06T17:40:40.888Z</time>
      </trkpt>
      <trkpt lat="54.50965" lon="24.53308">
        <ele>136.142494</ele>
        <time>2020-10-06T17:40:42.438Z</time>
      </trkpt>
      <trkpt lat="54.50963" lon="24.53321">
        <ele>136.114045</ele>
        <time>2020-10-06T17:40:44.152Z</time>
      </trkpt>
      <trkpt lat="54.5095" lon="24.53365">
        <ele>136.003899</ele>
        <time>2020-10-06T17:40:50.277Z</time>
      </trkpt>
      <trkpt lat="54.5091" lon="24.53446">
        <ele>135.799715</ele>
        <time>2020-10-06T17:41:03.786Z</time>
      </trkpt>
      <trkpt lat="54.50888" lon="24.53477">
        <ele>135.838002</ele>
        <time>2020-10-06T17:41:10.209Z</time>
      </trkpt>
      <trkpt lat="54.5076" lon="24.53555">
        <ele>136.020972</ele>
        <time>2020-10-06T17:41:41.060Z</time>
      </trkpt>
      <trkpt lat="54.50631" lon="24.53691">
        <ele>136.596935</ele>
        <time>2020-10-06T17:42:17.925Z</time>
      </trkpt>
      <trkpt lat="54.5062" lon="24.53699">
        <ele>136.644832</ele>
        <time>2020-10-06T17:42:20.928Z</time>
      </trkpt>
      <trkpt lat="54.50602" lon="24.53704">
        <ele>136.717311</ele>
        <time>2020-10-06T17:42:25.007Z</time>
      </trkpt>
      <trkpt lat="54.5055" lon="24.53718">
        <ele>136.568889</ele>
        <time>2020-10-06T17:42:36.999Z</time>
      </trkpt>
      <trkpt lat="54.50515" lon="24.53728">
        <ele>136.421216</ele>
        <time>2020-10-06T17:42:44.641Z</time>
      </trkpt>
      <trkpt lat="54.50502" lon="24.53734">
        <ele>136.362014</ele>
        <time>2020-10-06T17:42:47.486Z</time>
      </trkpt>
      <trkpt lat="54.50447" lon="24.53781">
        <ele>136.106151</ele>
        <time>2020-10-06T17:42:59.978Z</time>
      </trkpt>
      <trkpt lat="54.50389" lon="24.53855">
        <ele>135.598406</ele>
        <time>2020-10-06T17:43:13.612Z</time>
      </trkpt>
      <trkpt lat="54.50361" lon="24.53912">
        <ele>135.223073</ele>
        <time>2020-10-06T17:43:21.811Z</time>
      </trkpt>
      <trkpt lat="54.50345" lon="24.5396">
        <ele>134.944872</ele>
        <time>2020-10-06T17:43:28.143Z</time>
      </trkpt>
      <trkpt lat="54.50328" lon="24.54032">
        <ele>134.556518</ele>
        <time>2020-10-06T17:43:37.199Z</time>
      </trkpt>
      <trkpt lat="54.50302" lon="24.54129">
        <ele>134.491557</ele>
        <time>2020-10-06T17:43:50.345Z</time>
      </trkpt>
      <trkpt lat="54.50259" lon="24.54279">
        <ele>134.574808</ele>
        <time>2020-10-06T17:44:12.673Z</time>
      </trkpt>
      <trkpt lat="54.5023" lon="24.54354">
        <ele>134.706993</ele>
        <time>2020-10-06T17:44:25.467Z</time>
      </trkpt>
      <trkpt lat="54.50195" lon="24.5441">
        <ele>134.963408</ele>
        <time>2020-10-06T17:44:37.252Z</time>
      </trkpt>
      <trkpt lat="54.49918" lon="24.54689">
        <ele>136.650496</ele>
        <time>2020-10-06T17:45:56.236Z</time>
      </trkpt>
      <trkpt lat="54.49857" lon="24.54762">
        <ele>136.823768</ele>
        <time>2020-10-06T17:46:13.087Z</time>
      </trkpt>
      <trkpt lat="54.49774" lon="24.54893">
        <ele>137.179203</ele>
        <time>2020-10-06T17:46:38.341Z</time>
      </trkpt>
      <trkpt lat="54.49674" lon="24.55088">
        <ele>137.969454</ele>
        <time>2020-10-06T17:47:15.478Z</time>
      </trkpt>
      <trkpt lat="54.49522" lon="24.55422">
        <ele>140.132837</ele>
        <time>2020-10-06T17:48:22.571Z</time>
      </trkpt>
      <trkpt lat="54.49473" lon="24.5552">
        <ele>140.368032</ele>
        <time>2020-10-06T17:48:38.953Z</time>
      </trkpt>
      <trkpt lat="54.4943" lon="24.55584">
        <ele>140.333022</ele>
        <time>2020-10-06T17:48:50.420Z</time>
      </trkpt>
      <trkpt lat="54.49397" lon="24.5565">
        <ele>140.060752</ele>
        <time>2020-10-06T17:49:00.569Z</time>
      </trkpt>
      <trkpt lat="54.49385" lon="24.55683">
        <ele>139.938941</ele>
        <time>2020-10-06T17:49:04.919Z</time>
      </trkpt>
      <trkpt lat="54.49378" lon="24.55712">
        <ele>139.839986</ele>
        <time>2020-10-06T17:49:08.720Z</time>
      </trkpt>
      <trkpt lat="54.4937" lon="24.55754">
        <ele>139.703952</ele>
        <time>2020-10-06T17:49:13.766Z</time>
      </trkpt>
      <trkpt lat="54.49368" lon="24.55773">
        <ele>139.640606</ele>
        <time>2020-10-06T17:49:16.207Z</time>
      </trkpt>
      <trkpt lat="54.49363" lon="24.5582">
        <ele>139.509928</ele>
        <time>2020-10-06T17:49:21.993Z</time>
      </trkpt>
      <trkpt lat="54.49344" lon="24.55978">
        <ele>140.391583</ele>
        <time>2020-10-06T17:49:43.139Z</time>
      </trkpt>
      <trkpt lat="54.49327" lon="24.56068">
        <ele>140.912625</ele>
        <time>2020-10-06T17:49:59.037Z</time>
      </trkpt>
      <trkpt lat="54.49284" lon="24.5622">
        <ele>143.223768</ele>
        <time>2020-10-06T17:50:31.032Z</time>
      </trkpt>
      <trkpt lat="54.49273" lon="24.5625">
        <ele>143.84296</ele>
        <time>2020-10-06T17:50:37.756Z</time>
      </trkpt>
      <trkpt lat="54.49262" lon="24.56274">
        <ele>144.385124</ele>
        <time>2020-10-06T17:50:44.736Z</time>
      </trkpt>
      <trkpt lat="54.4921" lon="24.56359">
        <ele>146.507943</ele>
        <time>2020-10-06T17:51:10.632Z</time>
      </trkpt>
      <trkpt lat="54.49083" lon="24.56539">
        <ele>151.238376</ele>
        <time>2020-10-06T17:52:07.613Z</time>
      </trkpt>
      <trkpt lat="54.49041" lon="24.56623">
        <ele>152.098207</ele>
        <time>2020-10-06T17:52:25.984Z</time>
      </trkpt>
      <trkpt lat="54.49017" lon="24.56682">
        <ele>152.437796</ele>
        <time>2020-10-06T17:52:37.215Z</time>
      </trkpt>
      <trkpt lat="54.48939" lon="24.56918">
        <ele>152.575815</ele>
        <time>2020-10-06T17:53:12.441Z</time>
      </trkpt>
      <trkpt lat="54.48767" lon="24.57348">
        <ele>148.632676</ele>
        <time>2020-10-06T17:54:08.549Z</time>
      </trkpt>
      <trkpt lat="54.48712" lon="24.57514">
        <ele>146.390001</ele>
        <time>2020-10-06T17:54:28.018Z</time>
      </trkpt>
      <trkpt lat="54.48674" lon="24.57643">
        <ele>144.839915</ele>
        <time>2020-10-06T17:54:42.583Z</time>
      </trkpt>
      <trkpt lat="54.48648" lon="24.57732">
        <ele>143.985467</ele>
        <time>2020-10-06T17:54:52.870Z</time>
      </trkpt>
      <trkpt lat="54.48634" lon="24.57796">
        <ele>143.392652</ele>
        <time>2020-10-06T17:55:00.335Z</time>
      </trkpt>
      <trkpt lat="54.48626" lon="24.57948">
        <ele>142.567565</ele>
        <time>2020-10-06T17:55:17.627Z</time>
      </trkpt>
      <trkpt lat="54.48624" lon="24.57964">
        <ele>142.569745</ele>
        <time>2020-10-06T17:55:19.460Z</time>
      </trkpt>
      <trkpt lat="54.48621" lon="24.57975">
        <ele>142.571491</ele>
        <time>2020-10-06T17:55:21.244Z</time>
      </trkpt>
      <trkpt lat="54.4861" lon="24.58007">
        <ele>142.576598</ele>
        <time>2020-10-06T17:55:25.799Z</time>
      </trkpt>
      <trkpt lat="54.48537" lon="24.58154">
        <ele>142.626007</ele>
        <time>2020-10-06T17:55:52.376Z</time>
      </trkpt>
      <trkpt lat="54.485" lon="24.5823">
        <ele>143.198054</ele>
        <time>2020-10-06T17:56:07.488Z</time>
      </trkpt>
      <trkpt lat="54.48472" lon="24.58279">
        <ele>143.590845</ele>
        <time>2020-10-06T17:56:17.960Z</time>
      </trkpt>
      <trkpt lat="54.48404" lon="24.58391">
        <ele>144.596053</ele>
        <time>2020-10-06T17:56:43.405Z</time>
      </trkpt>
      <trkpt lat="54.4831" lon="24.58685">
        <ele>147.51391</ele>
        <time>2020-10-06T17:57:38.436Z</time>
      </trkpt>
      <trkpt lat="54.48309" lon="24.58695">
        <ele>147.626492</ele>
        <time>2020-10-06T17:57:40.304Z</time>
      </trkpt>
      <trkpt lat="54.48308" lon="24.58707">
        <ele>147.744332</ele>
        <time>2020-10-06T17:57:42.527Z</time>
      </trkpt>
      <trkpt lat="54.4831" lon="24.58734">
        <ele>148.026389</ele>
        <time>2020-10-06T17:57:46.885Z</time>
      </trkpt>
      <trkpt lat="54.48326" lon="24.58869">
        <ele>149.440587</ele>
        <time>2020-10-06T17:58:10.589Z</time>
      </trkpt>
      <trkpt lat="54.48318" lon="24.58872">
        <ele>149.588925</ele>
        <time>2020-10-06T17:58:13.352Z</time>
      </trkpt>
      <trkpt lat="54.48272" lon="24.58877">
        <ele>150.363364</ele>
        <time>2020-10-06T17:58:27.308Z</time>
      </trkpt>
      <trkpt lat="54.48235" lon="24.5888">
        <ele>150.892046</ele>
        <time>2020-10-06T17:58:37.970Z</time>
      </trkpt>
      <trkpt lat="54.4816" lon="24.58881">
        <ele>151.955602</ele>
        <time>2020-10-06T17:58:58.887Z</time>
      </trkpt>
      <trkpt lat="54.47989" lon="24.58888">
        <ele>153.700371</ele>
        <time>2020-10-06T17:59:43.674Z</time>
      </trkpt>
      <trkpt lat="54.4797" lon="24.58889">
        <ele>153.855573</ele>
        <time>2020-10-06T17:59:48.305Z</time>
      </trkpt>
      <trkpt lat="54.4792" lon="24.58883">
        <ele>154.25658</ele>
        <time>2020-10-06T18:00:00.782Z</time>
      </trkpt>
      <trkpt lat="54.47764" lon="24.5887">
        <ele>154.952368</ele>
        <time>2020-10-06T18:00:38.321Z</time>
      </trkpt>
      <trkpt lat="54.47697" lon="24.58856">
        <ele>155.34298</ele>
        <time>2020-10-06T18:00:54.198Z</time>
      </trkpt>
      <trkpt lat="54.47665" lon="24.58841">
        <ele>155.5494</ele>
        <time>2020-10-06T18:01:02.121Z</time>
      </trkpt>
      <trkpt lat="54.47631" lon="24.58813">
        <ele>155.781726</ele>
        <time>2020-10-06T18:01:11.192Z</time>
      </trkpt>
      <trkpt lat="54.47571" lon="24.58749">
        <ele>156.327836</ele>
        <time>2020-10-06T18:01:29.195Z</time>
      </trkpt>
      <trkpt lat="54.47481" lon="24.58627">
        <ele>158.151607</ele>
        <time>2020-10-06T18:02:02.603Z</time>
      </trkpt>
      <trkpt lat="54.4739" lon="24.58513">
        <ele>159.810001</ele>
        <time>2020-10-06T18:02:36.106Z</time>
      </trkpt>
      <trkpt lat="54.47327" lon="24.58461">
        <ele>160.763888</ele>
        <time>2020-10-06T18:02:55.967Z</time>
      </trkpt>
      <trkpt lat="54.4711" lon="24.58329">
        <ele>162.520998</ele>
        <time>2020-10-06T18:03:52.809Z</time>
      </trkpt>
      <trkpt lat="54.46806" lon="24.58066">
        <ele>163.043983</ele>
        <time>2020-10-06T18:05:11.973Z</time>
      </trkpt>
      <trkpt lat="54.46743" lon="24.58015">
        <ele>162.255058</ele>
        <time>2020-10-06T18:05:25.349Z</time>
      </trkpt>
      <trkpt lat="54.46638" lon="24.57945">
        <ele>160.442999</ele>
        <time>2020-10-06T18:05:45.398Z</time>
      </trkpt>
      <trkpt lat="54.4656" lon="24.5791">
        <ele>158.972366</ele>
        <time>2020-10-06T18:05:59.427Z</time>
      </trkpt>
      <trkpt lat="54.46151" lon="24.57826">
        <ele>152.314602</ele>
        <time>2020-10-06T18:07:12.921Z</time>
      </trkpt>
      <trkpt lat="54.46109" lon="24.57826">
        <ele>151.923005</ele>
        <time>2020-10-06T18:07:22.149Z</time>
      </trkpt>
      <trkpt lat="54.46038" lon="24.57852">
        <ele>152.609223</ele>
        <time>2020-10-06T18:07:40.554Z</time>
      </trkpt>
      <trkpt lat="54.45903" lon="24.57914">
        <ele>155.287329</ele>
        <time>2020-10-06T18:08:24.987Z</time>
      </trkpt>
      <trkpt lat="54.45864" lon="24.57916">
        <ele>156.23479</ele>
        <time>2020-10-06T18:08:38.087Z</time>
      </trkpt>
      <trkpt lat="54.45801" lon="24.5791">
        <ele>157.750115</ele>
        <time>2020-10-06T18:08:58.810Z</time>
      </trkpt>
      <trkpt lat="54.45704" lon="24.57886">
        <ele>159.63649</ele>
        <time>2020-10-06T18:09:29.397Z</time>
      </trkpt>
      <trkpt lat="54.45635" lon="24.57858">
        <ele>160.142709</ele>
        <time>2020-10-06T18:09:48.739Z</time>
      </trkpt>
      <trkpt lat="54.45577" lon="24.57824">
        <ele>160.578084</ele>
        <time>2020-10-06T18:10:02.784Z</time>
      </trkpt>
      <trkpt lat="54.4547" lon="24.57749">
        <ele>159.480487</ele>
        <time>2020-10-06T18:10:24.743Z</time>
      </trkpt>
      <trkpt lat="54.45409" lon="24.57695">
        <ele>158.610434</ele>
        <time>2020-10-06T18:10:37.109Z</time>
      </trkpt>
      <trkpt lat="54.45241" lon="24.575">
        <ele>155.847014</ele>
        <time>2020-10-06T18:11:14.376Z</time>
      </trkpt>
      <trkpt lat="54.44925" lon="24.57181">
        <ele>153.791616</ele>
        <time>2020-10-06T18:12:29.719Z</time>
      </trkpt>
      <trkpt lat="54.44845" lon="24.57075">
        <ele>153.645414</ele>
        <time>2020-10-06T18:12:50.992Z</time>
      </trkpt>
      <trkpt lat="54.44779" lon="24.5697">
        <ele>153.64372</ele>
        <time>2020-10-06T18:13:11.755Z</time>
      </trkpt>
      <trkpt lat="54.44749" lon="24.56915">
        <ele>153.789133</ele>
        <time>2020-10-06T18:13:21.938Z</time>
      </trkpt>
      <trkpt lat="54.4472" lon="24.56856">
        <ele>153.93832</ele>
        <time>2020-10-06T18:13:32.707Z</time>
      </trkpt>
      <trkpt lat="54.44663" lon="24.5672">
        <ele>154.165394</ele>
        <time>2020-10-06T18:13:56.113Z</time>
      </trkpt>
      <trkpt lat="54.44629" lon="24.56622">
        <ele>154.184024</ele>
        <time>2020-10-06T18:14:11.764Z</time>
      </trkpt>
      <trkpt lat="54.44573" lon="24.56425">
        <ele>153.683074</ele>
        <time>2020-10-06T18:14:38.742Z</time>
      </trkpt>
      <trkpt lat="54.44551" lon="24.56301">
        <ele>152.835185</ele>
        <time>2020-10-06T18:14:53.262Z</time>
      </trkpt>
      <trkpt lat="54.44536" lon="24.56218">
        <ele>152.275138</ele>
        <time>2020-10-06T18:15:02.297Z</time>
      </trkpt>
      <trkpt lat="54.44521" lon="24.56107">
        <ele>150.995209</ele>
        <time>2020-10-06T18:15:13.983Z</time>
      </trkpt>
      <trkpt lat="54.44511" lon="24.55976">
        <ele>149.428984</ele>
        <time>2020-10-06T18:15:27.324Z</time>
      </trkpt>
      <trkpt lat="54.44483" lon="24.55417">
        <ele>144.481663</ele>
        <time>2020-10-06T18:16:25.707Z</time>
      </trkpt>
      <trkpt lat="54.44481" lon="24.55384">
        <ele>144.337383</ele>
        <time>2020-10-06T18:16:29.597Z</time>
      </trkpt>
      <trkpt lat="54.4448" lon="24.55349">
        <ele>144.182594</ele>
        <time>2020-10-06T18:16:33.886Z</time>
      </trkpt>
      <trkpt lat="54.44432" lon="24.54507">
        <ele>150.565698</ele>
        <time>2020-10-06T18:18:52.300Z</time>
      </trkpt>
      <trkpt lat="54.44385" lon="24.53981">
        <ele>155.980174</ele>
        <time>2020-10-06T18:20:26.432Z</time>
      </trkpt>
      <trkpt lat="54.44359" lon="24.53741">
        <ele>157.022753</ele>
        <time>2020-10-06T18:21:01.874Z</time>
      </trkpt>
      <trkpt lat="54.44313" lon="24.53416">
        <ele>155.045486</ele>
        <time>2020-10-06T18:21:38.289Z</time>
      </trkpt>
      <trkpt lat="54.44303" lon="24.53365">
        <ele>154.743896</ele>
        <time>2020-10-06T18:21:44.066Z</time>
      </trkpt>
      <trkpt lat="54.4429" lon="24.53308">
        <ele>154.404829</ele>
        <time>2020-10-06T18:21:50.767Z</time>
      </trkpt>
      <trkpt lat="54.44226" lon="24.53097">
        <ele>153.235798</ele>
        <time>2020-10-06T18:22:18.878Z</time>
      </trkpt>
      <trkpt lat="54.44171" lon="24.52961">
        <ele>152.649878</ele>
        <time>2020-10-06T18:22:39.174Z</time>
      </trkpt>
      <trkpt lat="54.44109" lon="24.52824">
        <ele>151.647966</ele>
        <time>2020-10-06T18:22:58.527Z</time>
      </trkpt>
      <trkpt lat="54.44103" lon="24.52809">
        <ele>151.513461</ele>
        <time>2020-10-06T18:23:00.545Z</time>
      </trkpt>
      <trkpt lat="54.44016" lon="24.52603">
        <ele>149.983247</ele>
        <time>2020-10-06T18:23:28.021Z</time>
      </trkpt>
      <trkpt lat="54.43678" lon="24.51783">
        <ele>146.452578</ele>
        <time>2020-10-06T18:25:29.124Z</time>
      </trkpt>
      <trkpt lat="54.43653" lon="24.51702">
        <ele>145.926545</ele>
        <time>2020-10-06T18:25:39.301Z</time>
      </trkpt>
      <trkpt lat="54.43594" lon="24.51456">
        <ele>143.894688</ele>
        <time>2020-10-06T18:26:07.370Z</time>
      </trkpt>
      <trkpt lat="54.43572" lon="24.51379">
        <ele>143.181664</ele>
        <time>2020-10-06T18:26:16.675Z</time>
      </trkpt>
      <trkpt lat="54.43444" lon="24.51005">
        <ele>140.101701</ele>
        <time>2020-10-06T18:27:05.340Z</time>
      </trkpt>
      <trkpt lat="54.43429" lon="24.50951">
        <ele>139.562063</ele>
        <time>2020-10-06T18:27:11.684Z</time>
      </trkpt>
      <trkpt lat="54.43414" lon="24.50878">
        <ele>138.866092</ele>
        <time>2020-10-06T18:27:19.730Z</time>
      </trkpt>
      <trkpt lat="54.43398" lon="24.50709">
        <ele>137.75386</ele>
        <time>2020-10-06T18:27:37.416Z</time>
      </trkpt>
      <trkpt lat="54.43394" lon="24.50647">
        <ele>137.46412</ele>
        <time>2020-10-06T18:27:44.463Z</time>
      </trkpt>
      <trkpt lat="54.43394" lon="24.50624">
        <ele>137.357649</ele>
        <time>2020-10-06T18:27:47.068Z</time>
      </trkpt>
      <trkpt lat="54.43403" lon="24.50482">
        <ele>136.813681</ele>
        <time>2020-10-06T18:28:06.041Z</time>
      </trkpt>
      <trkpt lat="54.43409" lon="24.50446">
        <ele>136.890007</ele>
        <time>2020-10-06T18:28:11.053Z</time>
      </trkpt>
      <trkpt lat="54.43412" lon="24.50433">
        <ele>136.916491</ele>
        <time>2020-10-06T18:28:13.242Z</time>
      </trkpt>
      <trkpt lat="54.43422" lon="24.50399">
        <ele>136.994502</ele>
        <time>2020-10-06T18:28:18.708Z</time>
      </trkpt>
      <trkpt lat="54.43445" lon="24.50335">
        <ele>137.145353</ele>
        <time>2020-10-06T18:28:29.526Z</time>
      </trkpt>
      <trkpt lat="54.43459" lon="24.50298">
        <ele>137.233597</ele>
        <time>2020-10-06T18:28:35.837Z</time>
      </trkpt>
      <trkpt lat="54.43476" lon="24.50257">
        <ele>137.337143</ele>
        <time>2020-10-06T18:28:42.863Z</time>
      </trkpt>
      <trkpt lat="54.43493" lon="24.5022">
        <ele>137.335463</ele>
        <time>2020-10-06T18:28:49.129Z</time>
      </trkpt>
      <trkpt lat="54.4351" lon="24.50179">
        <ele>137.137407</ele>
        <time>2020-10-06T18:28:55.227Z</time>
      </trkpt>
      <trkpt lat="54.43517" lon="24.50155">
        <ele>137.027597</ele>
        <time>2020-10-06T18:28:58.504Z</time>
      </trkpt>
      <trkpt lat="54.43529" lon="24.50095">
        <ele>136.779332</ele>
        <time>2020-10-06T18:29:05.639Z</time>
      </trkpt>
      <trkpt lat="54.43532" lon="24.50036">
        <ele>136.541713</ele>
        <time>2020-10-06T18:29:12.468Z</time>
      </trkpt>
      <trkpt lat="54.43538" lon="24.49945">
        <ele>136.175843</ele>
        <time>2020-10-06T18:29:23.002Z</time>
      </trkpt>
      <trkpt lat="54.43546" lon="24.49843">
        <ele>135.685345</ele>
        <time>2020-10-06T18:29:34.184Z</time>
      </trkpt>
      <trkpt lat="54.43549" lon="24.4981">
        <ele>135.524087</ele>
        <time>2020-10-06T18:29:38.001Z</time>
      </trkpt>
      <trkpt lat="54.43553" lon="24.49747">
        <ele>135.217741</ele>
        <time>2020-10-06T18:29:45.209Z</time>
      </trkpt>
      <trkpt lat="54.43564" lon="24.49626">
        <ele>134.647989</ele>
        <time>2020-10-06T18:29:59.870Z</time>
      </trkpt>
      <trkpt lat="54.43569" lon="24.49556">
        <ele>134.437123</ele>
        <time>2020-10-06T18:30:08.533Z</time>
      </trkpt>
      <trkpt lat="54.43576" lon="24.4945">
        <ele>134.112725</ele>
        <time>2020-10-06T18:30:21.187Z</time>
      </trkpt>
      <trkpt lat="54.43543" lon="24.49325">
        <ele>133.707298</ele>
        <time>2020-10-06T18:30:37.569Z</time>
      </trkpt>
      <trkpt lat="54.43519" lon="24.49197">
        <ele>133.374148</ele>
        <time>2020-10-06T18:30:53.882Z</time>
      </trkpt>
      <trkpt lat="54.43518" lon="24.49188">
        <ele>133.353573</ele>
        <time>2020-10-06T18:30:55.008Z</time>
      </trkpt>
      <trkpt lat="54.4351" lon="24.49125">
        <ele>133.192399</ele>
        <time>2020-10-06T18:31:02.809Z</time>
      </trkpt>
      <trkpt lat="54.43503" lon="24.49097">
        <ele>133.118258</ele>
        <time>2020-10-06T18:31:06.338Z</time>
      </trkpt>
      <trkpt lat="54.43462" lon="24.49001">
        <ele>132.981546</ele>
        <time>2020-10-06T18:31:20.736Z</time>
      </trkpt>
      <trkpt lat="54.4345" lon="24.48943">
        <ele>132.979649</ele>
        <time>2020-10-06T18:31:28.397Z</time>
      </trkpt>
      <trkpt lat="54.43451" lon="24.48903">
        <ele>132.978425</ele>
        <time>2020-10-06T18:31:33.354Z</time>
      </trkpt>
      <trkpt lat="54.43456" lon="24.48854">
        <ele>132.976905</ele>
        <time>2020-10-06T18:31:39.850Z</time>
      </trkpt>
      <trkpt lat="54.43507" lon="24.48408">
        <ele>134.262752</ele>
        <time>2020-10-06T18:32:45.409Z</time>
      </trkpt>
      <trkpt lat="54.43518" lon="24.48275">
        <ele>134.699712</ele>
        <time>2020-10-06T18:33:04.611Z</time>
      </trkpt>
      <trkpt lat="54.43539" lon="24.48002">
        <ele>135.603425</ele>
        <time>2020-10-06T18:33:43.981Z</time>
      </trkpt>
      <trkpt lat="54.43547" lon="24.47839">
        <ele>136.12224</ele>
        <time>2020-10-06T18:34:07.558Z</time>
      </trkpt>
      <trkpt lat="54.43557" lon="24.47748">
        <ele>136.197731</ele>
        <time>2020-10-06T18:34:20.245Z</time>
      </trkpt>
      <trkpt lat="54.43574" lon="24.47662">
        <ele>136.271607</ele>
        <time>2020-10-06T18:34:32.461Z</time>
      </trkpt>
      <trkpt lat="54.43591" lon="24.4759">
        <ele>136.334141</ele>
        <time>2020-10-06T18:34:42.342Z</time>
      </trkpt>
      <trkpt lat="54.43632" lon="24.47477">
        <ele>136.346692</ele>
        <time>2020-10-06T18:34:59.035Z</time>
      </trkpt>
      <trkpt lat="54.43653" lon="24.47439">
        <ele>136.334569</ele>
        <time>2020-10-06T18:35:05.425Z</time>
      </trkpt>
      <trkpt lat="54.43737" lon="24.47336">
        <ele>136.346912</ele>
        <time>2020-10-06T18:35:28.628Z</time>
      </trkpt>
      <trkpt lat="54.43766" lon="24.47296">
        <ele>136.597903</ele>
        <time>2020-10-06T18:35:37.602Z</time>
      </trkpt>
      <trkpt lat="54.43777" lon="24.4728">
        <ele>136.690709</ele>
        <time>2020-10-06T18:35:40.936Z</time>
      </trkpt>
      <trkpt lat="54.43792" lon="24.47255">
        <ele>136.835619</ele>
        <time>2020-10-06T18:35:46.341Z</time>
      </trkpt>
      <trkpt lat="54.43836" lon="24.47158">
        <ele>137.31872</ele>
        <time>2020-10-06T18:36:04.815Z</time>
      </trkpt>
      <trkpt lat="54.43894" lon="24.46945">
        <ele>138.497063</ele>
        <time>2020-10-06T18:36:41.067Z</time>
      </trkpt>
      <trkpt lat="54.43927" lon="24.46859">
        <ele>139.03906</ele>
        <time>2020-10-06T18:36:56.457Z</time>
      </trkpt>
      <trkpt lat="54.44021" lon="24.46667">
        <ele>139.578886</ele>
        <time>2020-10-06T18:37:31.342Z</time>
      </trkpt>
      <trkpt lat="54.44131" lon="24.46374">
        <ele>139.794024</ele>
        <time>2020-10-06T18:38:16.121Z</time>
      </trkpt>
      <trkpt lat="54.4417" lon="24.46293">
        <ele>140.015028</ele>
        <time>2020-10-06T18:38:30.714Z</time>
      </trkpt>
      <trkpt lat="54.44219" lon="24.46211">
        <ele>140.393245</ele>
        <time>2020-10-06T18:38:47.967Z</time>
      </trkpt>
      <trkpt lat="54.44265" lon="24.46143">
        <ele>140.727818</ele>
        <time>2020-10-06T18:39:03.018Z</time>
      </trkpt>
      <trkpt lat="54.44298" lon="24.46096">
        <ele>140.763679</ele>
        <time>2020-10-06T18:39:13.392Z</time>
      </trkpt>
      <trkpt lat="54.44331" lon="24.46047">
        <ele>140.714692</ele>
        <time>2020-10-06T18:39:23.592Z</time>
      </trkpt>
      <trkpt lat="54.44477" lon="24.45787">
        <ele>140.136372</ele>
        <time>2020-10-06T18:40:07.101Z</time>
      </trkpt>
      <trkpt lat="54.44511" lon="24.45712">
        <ele>139.892553</ele>
        <time>2020-10-06T18:40:18.528Z</time>
      </trkpt>
      <trkpt lat="54.44529" lon="24.4566">
        <ele>139.746151</ele>
        <time>2020-10-06T18:40:25.900Z</time>
      </trkpt>
      <trkpt lat="54.44546" lon="24.45598">
        <ele>139.590992</ele>
        <time>2020-10-06T18:40:34.482Z</time>
      </trkpt>
      <trkpt lat="54.44579" lon="24.45424">
        <ele>139.181747</ele>
        <time>2020-10-06T18:40:56.782Z</time>
      </trkpt>
      <trkpt lat="54.44586" lon="24.45312">
        <ele>138.950056</ele>
        <time>2020-10-06T18:41:10.384Z</time>
      </trkpt>
      <trkpt lat="54.44586" lon="24.45254">
        <ele>138.833842</ele>
        <time>2020-10-06T18:41:17.375Z</time>
      </trkpt>
      <trkpt lat="54.44585" lon="24.45195">
        <ele>138.715193</ele>
        <time>2020-10-06T18:41:24.553Z</time>
      </trkpt>
      <trkpt lat="54.44576" lon="24.44809">
        <ele>138.117303</ele>
        <time>2020-10-06T18:42:13.065Z</time>
      </trkpt>
      <trkpt lat="54.44562" lon="24.44585">
        <ele>137.496073</ele>
        <time>2020-10-06T18:42:40.408Z</time>
      </trkpt>
      <trkpt lat="54.44546" lon="24.4443">
        <ele>137.038978</ele>
        <time>2020-10-06T18:42:58.588Z</time>
      </trkpt>
      <trkpt lat="54.44517" lon="24.4429">
        <ele>136.646763</ele>
        <time>2020-10-06T18:43:16.009Z</time>
      </trkpt>
      <trkpt lat="54.44439" lon="24.44015">
        <ele>136.566182</ele>
        <time>2020-10-06T18:43:55.030Z</time>
      </trkpt>
      <trkpt lat="54.44418" lon="24.4386">
        <ele>136.879584</ele>
        <time>2020-10-06T18:44:18.185Z</time>
      </trkpt>
      <trkpt lat="54.44419" lon="24.4376">
        <ele>137.320939</ele>
        <time>2020-10-06T18:44:33.302Z</time>
      </trkpt>
      <trkpt lat="54.44433" lon="24.43527">
        <ele>138.137518</ele>
        <time>2020-10-06T18:45:07.719Z</time>
      </trkpt>
      <trkpt lat="54.4445" lon="24.43369">
        <ele>138.253676</ele>
        <time>2020-10-06T18:45:28.969Z</time>
      </trkpt>
      <trkpt lat="54.44465" lon="24.43289">
        <ele>138.313988</ele>
        <time>2020-10-06T18:45:39.355Z</time>
      </trkpt>
      <trkpt lat="54.44508" lon="24.43128">
        <ele>138.397692</ele>
        <time>2020-10-06T18:46:01.525Z</time>
      </trkpt>
      <trkpt lat="54.44541" lon="24.4303">
        <ele>138.449682</ele>
        <time>2020-10-06T18:46:16.958Z</time>
      </trkpt>
      <trkpt lat="54.44575" lon="24.42943">
        <ele>138.876799</ele>
        <time>2020-10-06T18:46:32.237Z</time>
      </trkpt>
      <trkpt lat="54.44598" lon="24.42896">
        <ele>139.194913</ele>
        <time>2020-10-06T18:46:41.453Z</time>
      </trkpt>
      <trkpt lat="54.44632" lon="24.42839">
        <ele>139.617121</ele>
        <time>2020-10-06T18:46:53.976Z</time>
      </trkpt>
      <trkpt lat="54.44741" lon="24.42657">
        <ele>141.169573</ele>
        <time>2020-10-06T18:47:34.716Z</time>
      </trkpt>
      <trkpt lat="54.44844" lon="24.42463">
        <ele>142.899309</ele>
        <time>2020-10-06T18:48:15.200Z</time>
      </trkpt>
      <trkpt lat="54.44926" lon="24.42274">
        <ele>144.569258</ele>
        <time>2020-10-06T18:48:52.442Z</time>
      </trkpt>
      <trkpt lat="54.44991" lon="24.42087">
        <ele>146.282795</ele>
        <time>2020-10-06T18:49:28.425Z</time>
      </trkpt>
      <trkpt lat="54.45019" lon="24.41984">
        <ele>146.516515</ele>
        <time>2020-10-06T18:49:45.621Z</time>
      </trkpt>
      <trkpt lat="54.45042" lon="24.41896">
        <ele>146.444447</ele>
        <time>2020-10-06T18:49:59.076Z</time>
      </trkpt>
      <trkpt lat="54.45058" lon="24.41824">
        <ele>146.387405</ele>
        <time>2020-10-06T18:50:08.429Z</time>
      </trkpt>
      <trkpt lat="54.45102" lon="24.41586">
        <ele>144.44952</ele>
        <time>2020-10-06T18:50:34.384Z</time>
      </trkpt>
      <trkpt lat="54.45137" lon="24.41391">
        <ele>143.322285</ele>
        <time>2020-10-06T18:50:55.720Z</time>
      </trkpt>
      <trkpt lat="54.45272" lon="24.40617">
        <ele>144.575625</ele>
        <time>2020-10-06T18:52:48.101Z</time>
      </trkpt>
      <trkpt lat="54.45289" lon="24.40524">
        <ele>145.335832</ele>
        <time>2020-10-06T18:53:04.341Z</time>
      </trkpt>
      <trkpt lat="54.45301" lon="24.40456">
        <ele>146.048891</ele>
        <time>2020-10-06T18:53:16.750Z</time>
      </trkpt>
      <trkpt lat="54.45315" lon="24.40381">
        <ele>146.831548</ele>
        <time>2020-10-06T18:53:30.398Z</time>
      </trkpt>
      <trkpt lat="54.45336" lon="24.40257">
        <ele>148.023167</ele>
        <time>2020-10-06T18:53:53.114Z</time>
      </trkpt>
      <trkpt lat="54.45409" lon="24.3984">
        <ele>150.524428</ele>
        <time>2020-10-06T18:55:00.425Z</time>
      </trkpt>
      <trkpt lat="54.45461" lon="24.39585">
        <ele>151.576799</ele>
        <time>2020-10-06T18:55:35.625Z</time>
      </trkpt>
      <trkpt lat="54.45482" lon="24.39502">
        <ele>152.00681</ele>
        <time>2020-10-06T18:55:48.767Z</time>
      </trkpt>
      <trkpt lat="54.45541" lon="24.39317">
        <ele>153.911356</ele>
        <time>2020-10-06T18:56:25.476Z</time>
      </trkpt>
      <trkpt lat="54.45635" lon="24.39087">
        <ele>157.026382</ele>
        <time>2020-10-06T18:57:17.983Z</time>
      </trkpt>
      <trkpt lat="54.45683" lon="24.38991">
        <ele>157.889726</ele>
        <time>2020-10-06T18:57:38.350Z</time>
      </trkpt>
      <trkpt lat="54.45774" lon="24.38832">
        <ele>157.873593</ele>
        <time>2020-10-06T18:58:06.486Z</time>
      </trkpt>
      <trkpt lat="54.45808" lon="24.38755">
        <ele>157.348145</ele>
        <time>2020-10-06T18:58:17.099Z</time>
      </trkpt>
      <trkpt lat="54.45821" lon="24.38714">
        <ele>157.08991</ele>
        <time>2020-10-06T18:58:22.171Z</time>
      </trkpt>
      <trkpt lat="54.45881" lon="24.38377">
        <ele>153.449755</ele>
        <time>2020-10-06T18:58:58.441Z</time>
      </trkpt>
      <trkpt lat="54.45912" lon="24.38262">
        <ele>152.392194</ele>
        <time>2020-10-06T18:59:11.677Z</time>
      </trkpt>
      <trkpt lat="54.4593" lon="24.3807">
        <ele>150.902398</ele>
        <time>2020-10-06T18:59:32.888Z</time>
      </trkpt>
      <trkpt lat="54.45946" lon="24.3802">
        <ele>150.981251</ele>
        <time>2020-10-06T18:59:39.659Z</time>
      </trkpt>
      <trkpt lat="54.45962" lon="24.37965">
        <ele>151.068117</ele>
        <time>2020-10-06T18:59:47.524Z</time>
      </trkpt>
      <trkpt lat="54.45984" lon="24.37875">
        <ele>151.204164</ele>
        <time>2020-10-06T19:00:00.772Z</time>
      </trkpt>
      <trkpt lat="54.4599" lon="24.37847">
        <ele>151.245562</ele>
        <time>2020-10-06T19:00:05.378Z</time>
      </trkpt>
      <trkpt lat="54.45994" lon="24.37831">
        <ele>151.27016</ele>
        <time>2020-10-06T19:00:07.955Z</time>
      </trkpt>
      <trkpt lat="54.45999" lon="24.37818">
        <ele>151.292923</ele>
        <time>2020-10-06T19:00:10.558Z</time>
      </trkpt>
      <trkpt lat="54.46015" lon="24.37774">
        <ele>151.89546</ele>
        <time>2020-10-06T19:00:19.197Z</time>
      </trkpt>
      <trkpt lat="54.46036" lon="24.37708">
        <ele>153.11812</ele>
        <time>2020-10-06T19:00:32.859Z</time>
      </trkpt>
      <trkpt lat="54.46038" lon="24.37694">
        <ele>153.340355</ele>
        <time>2020-10-06T19:00:35.978Z</time>
      </trkpt>
      <trkpt lat="54.46044" lon="24.37501">
        <ele>156.521667</ele>
        <time>2020-10-06T19:01:15.457Z</time>
      </trkpt>
      <trkpt lat="54.46048" lon="24.37467">
        <ele>157.174189</ele>
        <time>2020-10-06T19:01:22.977Z</time>
      </trkpt>
      <trkpt lat="54.46051" lon="24.37454">
        <ele>157.451407</ele>
        <time>2020-10-06T19:01:26.893Z</time>
      </trkpt>
      <trkpt lat="54.46066" lon="24.3742">
        <ele>158.253327</ele>
        <time>2020-10-06T19:01:36.052Z</time>
      </trkpt>
      <trkpt lat="54.46075" lon="24.37404">
        <ele>158.700751</ele>
        <time>2020-10-06T19:01:41.706Z</time>
      </trkpt>
      <trkpt lat="54.46084" lon="24.37389">
        <ele>159.099526</ele>
        <time>2020-10-06T19:01:46.088Z</time>
      </trkpt>
      <trkpt lat="54.46092" lon="24.37376">
        <ele>159.455719</ele>
        <time>2020-10-06T19:01:50.022Z</time>
      </trkpt>
      <trkpt lat="54.4612" lon="24.37329">
        <ele>160.74928</ele>
        <time>2020-10-06T19:02:04.509Z</time>
      </trkpt>
      <trkpt lat="54.46127" lon="24.37313">
        <ele>161.131438</ele>
        <time>2020-10-06T19:02:08.853Z</time>
      </trkpt>
      <trkpt lat="54.46138" lon="24.37286">
        <ele>161.769291</ele>
        <time>2020-10-06T19:02:15.405Z</time>
      </trkpt>
      <trkpt lat="54.46143" lon="24.37269">
        <ele>162.143502</ele>
        <time>2020-10-06T19:02:19.767Z</time>
      </trkpt>
      <trkpt lat="54.46152" lon="24.3722">
        <ele>161.997454</ele>
        <time>2020-10-06T19:02:27.704Z</time>
      </trkpt>
      <trkpt lat="54.46154" lon="24.37155">
        <ele>161.584318</ele>
        <time>2020-10-06T19:02:36.056Z</time>
      </trkpt>
      <trkpt lat="54.4615" lon="24.37106">
        <ele>161.27051</ele>
        <time>2020-10-06T19:02:41.449Z</time>
      </trkpt>
      <trkpt lat="54.46138" lon="24.37058">
        <ele>160.942391</ele>
        <time>2020-10-06T19:02:46.702Z</time>
      </trkpt>
      <trkpt lat="54.46126" lon="24.37033">
        <ele>160.733503</ele>
        <time>2020-10-06T19:02:50.260Z</time>
      </trkpt>
      <trkpt lat="54.46126" lon="24.37033">
        <ele>160.733503</ele>
        <time>2020-10-06T19:02:50.267Z</time>
      </trkpt>
      <trkpt lat="54.46126" lon="24.37033">
        <ele>160.733503</ele>
        <time>2020-10-06T19:02:50.317Z</time>
      </trkpt>
      <trkpt lat="54.46096" lon="24.36978">
        <ele>160.15487</ele>
        <time>2020-10-06T19:02:57.288Z</time>
      </trkpt>
      <trkpt lat="54.46093" lon="24.36972">
        <ele>160.007316</ele>
        <time>2020-10-06T19:02:57.967Z</time>
      </trkpt>
      <trkpt lat="54.46079" lon="24.36945">
        <ele>159.315223</ele>
        <time>2020-10-06T19:03:01.626Z</time>
      </trkpt>
      <trkpt lat="54.46066" lon="24.36931">
        <ele>158.843039</ele>
        <time>2020-10-06T19:03:03.866Z</time>
      </trkpt>
      <trkpt lat="54.46034" lon="24.36926">
        <ele>157.823677</ele>
        <time>2020-10-06T19:03:08.963Z</time>
      </trkpt>
      <trkpt lat="54.45939" lon="24.36946">
        <ele>154.772853</ele>
        <time>2020-10-06T19:03:24.468Z</time>
      </trkpt>
      <trkpt lat="54.45892" lon="24.36941">
        <ele>154.339254</ele>
        <time>2020-10-06T19:03:33.265Z</time>
      </trkpt>
      <trkpt lat="54.45879" lon="24.36937">
        <ele>154.2553</ele>
        <time>2020-10-06T19:03:35.828Z</time>
      </trkpt>
      <trkpt lat="54.45861" lon="24.36926">
        <ele>154.132706</ele>
        <time>2020-10-06T19:03:39.951Z</time>
      </trkpt>
      <trkpt lat="54.45835" lon="24.36907">
        <ele>153.95097</ele>
        <time>2020-10-06T19:03:45.975Z</time>
      </trkpt>
      <trkpt lat="54.4581" lon="24.36889">
        <ele>153.780338</ele>
        <time>2020-10-06T19:03:51.785Z</time>
      </trkpt>
      <trkpt lat="54.45648" lon="24.36768">
        <ele>153.545244</ele>
        <time>2020-10-06T19:04:33.405Z</time>
      </trkpt>
      <trkpt lat="54.45602" lon="24.36745">
        <ele>153.578077</ele>
        <time>2020-10-06T19:04:43.426Z</time>
      </trkpt>
      <trkpt lat="54.45585" lon="24.36739">
        <ele>153.492309</ele>
        <time>2020-10-06T19:04:47.352Z</time>
      </trkpt>
      <trkpt lat="54.45567" lon="24.36732">
        <ele>153.34704</ele>
        <time>2020-10-06T19:04:50.931Z</time>
      </trkpt>
      <trkpt lat="54.45236" lon="24.36634">
        <ele>150.282115</ele>
        <time>2020-10-06T19:05:56.193Z</time>
      </trkpt>
      <trkpt lat="54.45206" lon="24.36617">
        <ele>149.93962</ele>
        <time>2020-10-06T19:06:02.308Z</time>
      </trkpt>
      <trkpt lat="54.452" lon="24.36613">
        <ele>149.871528</ele>
        <time>2020-10-06T19:06:03.496Z</time>
      </trkpt>
      <trkpt lat="54.4516" lon="24.36574">
        <ele>149.382036</ele>
        <time>2020-10-06T19:06:12.218Z</time>
      </trkpt>
      <trkpt lat="54.45134" lon="24.36534">
        <ele>149.006358</ele>
        <time>2020-10-06T19:06:18.923Z</time>
      </trkpt>
      <trkpt lat="54.45102" lon="24.36465">
        <ele>148.45204</ele>
        <time>2020-10-06T19:06:28.827Z</time>
      </trkpt>
      <trkpt lat="54.45079" lon="24.36392">
        <ele>147.914422</ele>
        <time>2020-10-06T19:06:37.921Z</time>
      </trkpt>
      <trkpt lat="54.4502" lon="24.36197">
        <ele>146.493447</ele>
        <time>2020-10-06T19:07:02.431Z</time>
      </trkpt>
      <trkpt lat="54.44973" lon="24.35983">
        <ele>145.168159</ele>
        <time>2020-10-06T19:07:27.970Z</time>
      </trkpt>
      <trkpt lat="54.44955" lon="24.35882">
        <ele>144.602237</ele>
        <time>2020-10-06T19:07:40.057Z</time>
      </trkpt>
      <trkpt lat="54.44921" lon="24.35675">
        <ele>144.061251</ele>
        <time>2020-10-06T19:08:05.899Z</time>
      </trkpt>
      <trkpt lat="54.44916" lon="24.35568">
        <ele>143.841402</ele>
        <time>2020-10-06T19:08:19.530Z</time>
      </trkpt>
      <trkpt lat="54.44941" lon="24.35025">
        <ele>143.466955</ele>
        <time>2020-10-06T19:09:29.208Z</time>
      </trkpt>
      <trkpt lat="54.44938" lon="24.34905">
        <ele>143.13385</ele>
        <time>2020-10-06T19:09:43.705Z</time>
      </trkpt>
      <trkpt lat="54.44923" lon="24.34748">
        <ele>142.47792</ele>
        <time>2020-10-06T19:10:02.291Z</time>
      </trkpt>
      <trkpt lat="54.44886" lon="24.34561">
        <ele>141.387694</ele>
        <time>2020-10-06T19:10:24.361Z</time>
      </trkpt>
      <trkpt lat="54.44845" lon="24.34424">
        <ele>140.396848</ele>
        <time>2020-10-06T19:10:41.327Z</time>
      </trkpt>
      <trkpt lat="54.44836" lon="24.34395">
        <ele>140.183344</ele>
        <time>2020-10-06T19:10:44.960Z</time>
      </trkpt>
      <trkpt lat="54.44685" lon="24.33949">
        <ele>138.204261</ele>
        <time>2020-10-06T19:11:44.317Z</time>
      </trkpt>
      <trkpt lat="54.44629" lon="24.33781">
        <ele>138.443382</ele>
        <time>2020-10-06T19:12:11.292Z</time>
      </trkpt>
      <trkpt lat="54.44618" lon="24.3375">
        <ele>138.633431</ele>
        <time>2020-10-06T19:12:16.787Z</time>
      </trkpt>
      <trkpt lat="54.44533" lon="24.33498">
        <ele>140.112297</ele>
        <time>2020-10-06T19:13:02.819Z</time>
      </trkpt>
      <trkpt lat="54.44515" lon="24.33499">
        <ele>140.250265</ele>
        <time>2020-10-06T19:13:07.593Z</time>
      </trkpt>
      <trkpt lat="54.44481" lon="24.335">
        <ele>140.513628</ele>
        <time>2020-10-06T19:13:16.185Z</time>
      </trkpt>
      <trkpt lat="54.44404" lon="24.33487">
        <ele>140.979361</ele>
        <time>2020-10-06T19:13:34.763Z</time>
      </trkpt>
      <trkpt lat="54.44357" lon="24.33492">
        <ele>140.762737</ele>
        <time>2020-10-06T19:13:45.283Z</time>
      </trkpt>
      <trkpt lat="54.44092" lon="24.3356">
        <ele>138.853518</ele>
        <time>2020-10-06T19:14:38.252Z</time>
      </trkpt>
      <trkpt lat="54.4399" lon="24.33597">
        <ele>137.826875</ele>
        <time>2020-10-06T19:14:57.804Z</time>
      </trkpt>
      <trkpt lat="54.43892" lon="24.33626">
        <ele>136.812539</ele>
        <time>2020-10-06T19:15:16.938Z</time>
      </trkpt>
      <trkpt lat="54.43851" lon="24.33641">
        <ele>136.773369</ele>
        <time>2020-10-06T19:15:25.219Z</time>
      </trkpt>
      <trkpt lat="54.43545" lon="24.3376">
        <ele>138.052541</ele>
        <time>2020-10-06T19:16:41.294Z</time>
      </trkpt>
      <trkpt lat="54.43488" lon="24.33782">
        <ele>138.559574</ele>
        <time>2020-10-06T19:16:57.059Z</time>
      </trkpt>
      <trkpt lat="54.43463" lon="24.33784">
        <ele>138.796596</ele>
        <time>2020-10-06T19:17:03.723Z</time>
      </trkpt>
      <trkpt lat="54.43422" lon="24.33787">
        <ele>139.189512</ele>
        <time>2020-10-06T19:17:14.685Z</time>
      </trkpt>
      <trkpt lat="54.43325" lon="24.33782">
        <ele>139.984824</ele>
        <time>2020-10-06T19:17:39.681Z</time>
      </trkpt>
      <trkpt lat="54.4328" lon="24.3379">
        <ele>140.215498</ele>
        <time>2020-10-06T19:17:51.065Z</time>
      </trkpt>
      <trkpt lat="54.43254" lon="24.33804">
        <ele>140.347897</ele>
        <time>2020-10-06T19:17:57.451Z</time>
      </trkpt>
      <trkpt lat="54.43236" lon="24.33821">
        <ele>140.454276</ele>
        <time>2020-10-06T19:18:02.481Z</time>
      </trkpt>
      <trkpt lat="54.43205" lon="24.33848">
        <ele>140.625915</ele>
        <time>2020-10-06T19:18:10.553Z</time>
      </trkpt>
      <trkpt lat="54.43181" lon="24.33864">
        <ele>140.75109</ele>
        <time>2020-10-06T19:18:16.507Z</time>
      </trkpt>
      <trkpt lat="54.43162" lon="24.33872">
        <ele>140.784053</ele>
        <time>2020-10-06T19:18:21.065Z</time>
      </trkpt>
      <trkpt lat="54.43127" lon="24.33888">
        <ele>140.844426</ele>
        <time>2020-10-06T19:18:29.283Z</time>
      </trkpt>
      <trkpt lat="54.43046" lon="24.33917">
        <ele>140.980988</ele>
        <time>2020-10-06T19:18:48.027Z</time>
      </trkpt>
      <trkpt lat="54.43026" lon="24.33923">
        <ele>141.015938</ele>
        <time>2020-10-06T19:18:52.787Z</time>
      </trkpt>
      <trkpt lat="54.42998" lon="24.33931">
        <ele>141.063067</ele>
        <time>2020-10-06T19:18:59.351Z</time>
      </trkpt>
      <trkpt lat="54.42976" lon="24.33939">
        <ele>141.098293</ele>
        <time>2020-10-06T19:19:04.392Z</time>
      </trkpt>
      <trkpt lat="54.42873" lon="24.34002">
        <ele>141.275097</ele>
        <time>2020-10-06T19:19:29.428Z</time>
      </trkpt>
      <trkpt lat="54.42855" lon="24.34011">
        <ele>141.305344</ele>
        <time>2020-10-06T19:19:33.863Z</time>
      </trkpt>
      <trkpt lat="54.42822" lon="24.34026">
        <ele>141.330021</ele>
        <time>2020-10-06T19:19:41.838Z</time>
      </trkpt>
      <trkpt lat="54.42704" lon="24.34068">
        <ele>141.243459</ele>
        <time>2020-10-06T19:20:08.363Z</time>
      </trkpt>
      <trkpt lat="54.42658" lon="24.34086">
        <ele>141.206471</ele>
        <time>2020-10-06T19:20:18.412Z</time>
      </trkpt>
      <trkpt lat="54.42597" lon="24.34107">
        <ele>141.009925</ele>
        <time>2020-10-06T19:20:31.636Z</time>
      </trkpt>
      <trkpt lat="54.42579" lon="24.34114">
        <ele>140.951681</ele>
        <time>2020-10-06T19:20:35.611Z</time>
      </trkpt>
      <trkpt lat="54.42365" lon="24.34194">
        <ele>139.981804</ele>
        <time>2020-10-06T19:21:21.726Z</time>
      </trkpt>
      <trkpt lat="54.42179" lon="24.3427">
        <ele>138.623552</ele>
        <time>2020-10-06T19:21:58.894Z</time>
      </trkpt>
      <trkpt lat="54.42023" lon="24.34323">
        <ele>137.793771</ele>
        <time>2020-10-06T19:22:31.365Z</time>
      </trkpt>
      <trkpt lat="54.41722" lon="24.34444">
        <ele>137.590327</ele>
        <time>2020-10-06T19:23:38.660Z</time>
      </trkpt>
      <trkpt lat="54.41442" lon="24.34545">
        <ele>139.46027</ele>
        <time>2020-10-06T19:24:51.650Z</time>
      </trkpt>
      <trkpt lat="54.41371" lon="24.3458">
        <ele>139.875718</ele>
        <time>2020-10-06T19:25:10.238Z</time>
      </trkpt>
      <trkpt lat="54.41256" lon="24.34612">
        <ele>140.474106</ele>
        <time>2020-10-06T19:25:37.781Z</time>
      </trkpt>
      <trkpt lat="54.41231" lon="24.34612">
        <ele>140.616005</ele>
        <time>2020-10-06T19:25:43.886Z</time>
      </trkpt>
      <trkpt lat="54.41195" lon="24.34605">
        <ele>140.812918</ele>
        <time>2020-10-06T19:25:52.327Z</time>
      </trkpt>
      <trkpt lat="54.41163" lon="24.34594">
        <ele>140.9953</ele>
        <time>2020-10-06T19:26:00.251Z</time>
      </trkpt>
      <trkpt lat="54.41096" lon="24.34547">
        <ele>141.392638</ele>
        <time>2020-10-06T19:26:18.054Z</time>
      </trkpt>
      <trkpt lat="54.41032" lon="24.34516">
        <ele>141.871238</ele>
        <time>2020-10-06T19:26:35.297Z</time>
      </trkpt>
      <trkpt lat="54.40973" lon="24.34494">
        <ele>142.338687</ele>
        <time>2020-10-06T19:26:51.227Z</time>
      </trkpt>
      <trkpt lat="54.40886" lon="24.3448">
        <ele>142.849685</ele>
        <time>2020-10-06T19:27:13.223Z</time>
      </trkpt>
      <trkpt lat="54.40866" lon="24.34469">
        <ele>142.817885</ele>
        <time>2020-10-06T19:27:18.325Z</time>
      </trkpt>
      <trkpt lat="54.40633" lon="24.34272">
        <ele>141.745581</ele>
        <time>2020-10-06T19:28:12.077Z</time>
      </trkpt>
      <trkpt lat="54.40566" lon="24.34226">
        <ele>141.180037</ele>
        <time>2020-10-06T19:28:25.784Z</time>
      </trkpt>
      <trkpt lat="54.40485" lon="24.34209">
        <ele>140.274988</ele>
        <time>2020-10-06T19:28:41.164Z</time>
      </trkpt>
      <trkpt lat="54.40185" lon="24.342">
        <ele>137.820553</ele>
        <time>2020-10-06T19:29:39.528Z</time>
      </trkpt>
      <trkpt lat="54.40152" lon="24.3421">
        <ele>137.855731</ele>
        <time>2020-10-06T19:29:47.061Z</time>
      </trkpt>
      <trkpt lat="54.40033" lon="24.34269">
        <ele>138.038952</ele>
        <time>2020-10-06T19:30:17.028Z</time>
      </trkpt>
      <trkpt lat="54.3979" lon="24.34394">
        <ele>139.107385</ele>
        <time>2020-10-06T19:31:20.047Z</time>
      </trkpt>
      <trkpt lat="54.39762" lon="24.34411">
        <ele>139.121507</ele>
        <time>2020-10-06T19:31:26.419Z</time>
      </trkpt>
      <trkpt lat="54.3947" lon="24.34682">
        <ele>137.472904</ele>
        <time>2020-10-06T19:32:33.378Z</time>
      </trkpt>
      <trkpt lat="54.39274" lon="24.34855">
        <ele>137.218309</ele>
        <time>2020-10-06T19:33:18.651Z</time>
      </trkpt>
      <trkpt lat="54.39241" lon="24.34868">
        <ele>137.29372</ele>
        <time>2020-10-06T19:33:27.849Z</time>
      </trkpt>
      <trkpt lat="54.39222" lon="24.34873">
        <ele>137.347051</ele>
        <time>2020-10-06T19:33:33.501Z</time>
      </trkpt>
      <trkpt lat="54.39204" lon="24.34877">
        <ele>137.844858</ele>
        <time>2020-10-06T19:33:38.824Z</time>
      </trkpt>
      <trkpt lat="54.39202" lon="24.34878">
        <ele>137.911347</ele>
        <time>2020-10-06T19:33:39.628Z</time>
      </trkpt>
      <trkpt lat="54.39128" lon="24.34901">
        <ele>140.069926</ele>
        <time>2020-10-06T19:34:05.085Z</time>
      </trkpt>
      <trkpt lat="54.39051" lon="24.3492">
        <ele>142.279763</ele>
        <time>2020-10-06T19:34:33.415Z</time>
      </trkpt>
      <trkpt lat="54.38986" lon="24.34926">
        <ele>143.655575</ele>
        <time>2020-10-06T19:34:56.495Z</time>
      </trkpt>
      <trkpt lat="54.3888" lon="24.34922">
        <ele>145.845189</ele>
        <time>2020-10-06T19:35:28.055Z</time>
      </trkpt>
      <trkpt lat="54.38796" lon="24.34895">
        <ele>145.563032</ele>
        <time>2020-10-06T19:35:46.873Z</time>
      </trkpt>
      <trkpt lat="54.3858" lon="24.34756">
        <ele>142.892255</ele>
        <time>2020-10-06T19:36:28.744Z</time>
      </trkpt>
      <trkpt lat="54.38381" lon="24.34599">
        <ele>140.393155</ele>
        <time>2020-10-06T19:37:10.391Z</time>
      </trkpt>
      <trkpt lat="54.38369" lon="24.34596">
        <ele>140.268865</ele>
        <time>2020-10-06T19:37:12.872Z</time>
      </trkpt>
      <trkpt lat="54.38351" lon="24.34596">
        <ele>140.163428</ele>
        <time>2020-10-06T19:37:16.614Z</time>
      </trkpt>
      <trkpt lat="54.38314" lon="24.34615">
        <ele>140.081394</ele>
        <time>2020-10-06T19:37:24.484Z</time>
      </trkpt>
      <trkpt lat="54.38183" lon="24.34728">
        <ele>139.904972</ele>
        <time>2020-10-06T19:37:56.724Z</time>
      </trkpt>
      <trkpt lat="54.38144" lon="24.34748">
        <ele>140.17201</ele>
        <time>2020-10-06T19:38:06.401Z</time>
      </trkpt>
      <trkpt lat="54.38082" lon="24.34766">
        <ele>140.581709</ele>
        <time>2020-10-06T19:38:21.950Z</time>
      </trkpt>
      <trkpt lat="54.38044" lon="24.34772">
        <ele>140.834582</ele>
        <time>2020-10-06T19:38:32.006Z</time>
      </trkpt>
      <trkpt lat="54.38024" lon="24.34767">
        <ele>140.967521</ele>
        <time>2020-10-06T19:38:37.433Z</time>
      </trkpt>
      <trkpt lat="54.37939" lon="24.34704">
        <ele>142.315471</ele>
        <time>2020-10-06T19:39:02.987Z</time>
      </trkpt>
      <trkpt lat="54.37871" lon="24.34687">
        <ele>143.346588</ele>
        <time>2020-10-06T19:39:23.054Z</time>
      </trkpt>
      <trkpt lat="54.37789" lon="24.3468">
        <ele>144.668595</ele>
        <time>2020-10-06T19:39:46.716Z</time>
      </trkpt>
      <trkpt lat="54.37583" lon="24.34658">
        <ele>147.755452</ele>
        <time>2020-10-06T19:40:46.354Z</time>
      </trkpt>
      <trkpt lat="54.37537" lon="24.34646">
        <ele>148.33862</ele>
        <time>2020-10-06T19:40:58.960Z</time>
      </trkpt>
      <trkpt lat="54.37509" lon="24.34634">
        <ele>148.701818</ele>
        <time>2020-10-06T19:41:06.359Z</time>
      </trkpt>
      <trkpt lat="54.37481" lon="24.34616">
        <ele>148.902217</ele>
        <time>2020-10-06T19:41:13.847Z</time>
      </trkpt>
      <trkpt lat="54.3742" lon="24.34564">
        <ele>148.842121</ele>
        <time>2020-10-06T19:41:29.906Z</time>
      </trkpt>
      <trkpt lat="54.37335" lon="24.34474">
        <ele>148.739292</ele>
        <time>2020-10-06T19:41:50.566Z</time>
      </trkpt>
      <trkpt lat="54.37304" lon="24.34459">
        <ele>148.457868</ele>
        <time>2020-10-06T19:41:56.919Z</time>
      </trkpt>
      <trkpt lat="54.37261" lon="24.34451">
        <ele>148.073228</ele>
        <time>2020-10-06T19:42:05.498Z</time>
      </trkpt>
      <trkpt lat="54.37227" lon="24.34455">
        <ele>147.777228</ele>
        <time>2020-10-06T19:42:11.996Z</time>
      </trkpt>
      <trkpt lat="54.37163" lon="24.34462">
        <ele>147.202408</ele>
        <time>2020-10-06T19:42:24.510Z</time>
      </trkpt>
      <trkpt lat="54.37133" lon="24.34468">
        <ele>146.843314</ele>
        <time>2020-10-06T19:42:30.180Z</time>
      </trkpt>
      <trkpt lat="54.37105" lon="24.34475">
        <ele>146.487877</ele>
        <time>2020-10-06T19:42:35.527Z</time>
      </trkpt>
      <trkpt lat="54.37056" lon="24.34491">
        <ele>145.851109</ele>
        <time>2020-10-06T19:42:45.257Z</time>
      </trkpt>
      <trkpt lat="54.37023" lon="24.34499">
        <ele>145.429119</ele>
        <time>2020-10-06T19:42:51.648Z</time>
      </trkpt>
      <trkpt lat="54.36896" lon="24.34516">
        <ele>142.932319</ele>
        <time>2020-10-06T19:43:14.358Z</time>
      </trkpt>
      <trkpt lat="54.36868" lon="24.34512">
        <ele>142.28735</ele>
        <time>2020-10-06T19:43:19.114Z</time>
      </trkpt>
      <trkpt lat="54.36849" lon="24.34508">
        <ele>141.850519</ele>
        <time>2020-10-06T19:43:22.428Z</time>
      </trkpt>
      <trkpt lat="54.36832" lon="24.34505">
        <ele>141.463586</ele>
        <time>2020-10-06T19:43:25.185Z</time>
      </trkpt>
      <trkpt lat="54.36823" lon="24.34505">
        <ele>141.248615</ele>
        <time>2020-10-06T19:43:26.818Z</time>
      </trkpt>
      <trkpt lat="54.36815" lon="24.34506">
        <ele>141.063101</ele>
        <time>2020-10-06T19:43:28.148Z</time>
      </trkpt>
      <trkpt lat="54.36804" lon="24.34511">
        <ele>140.803082</ele>
        <time>2020-10-06T19:43:29.951Z</time>
      </trkpt>
      <trkpt lat="54.36792" lon="24.34513">
        <ele>140.414571</ele>
        <time>2020-10-06T19:43:32.121Z</time>
      </trkpt>
      <trkpt lat="54.3679" lon="24.3451">
        <ele>140.345014</ele>
        <time>2020-10-06T19:43:32.507Z</time>
      </trkpt>
      <trkpt lat="54.36787" lon="24.34508">
        <ele>140.235108</ele>
        <time>2020-10-06T19:43:33.059Z</time>
      </trkpt>
      <trkpt lat="54.36784" lon="24.34507">
        <ele>140.127669</ele>
        <time>2020-10-06T19:43:33.608Z</time>
      </trkpt>
      <trkpt lat="54.36781" lon="24.34508">
        <ele>140.016979</ele>
        <time>2020-10-06T19:43:34.129Z</time>
      </trkpt>
      <trkpt lat="54.36778" lon="24.3451">
        <ele>139.908004</ele>
        <time>2020-10-06T19:43:34.656Z</time>
      </trkpt>
      <trkpt lat="54.36776" lon="24.34514">
        <ele>139.804385</ele>
        <time>2020-10-06T19:43:35.155Z</time>
      </trkpt>
      <trkpt lat="54.36775" lon="24.34519">
        <ele>139.69902</ele>
        <time>2020-10-06T19:43:35.667Z</time>
      </trkpt>
      <trkpt lat="54.36775" lon="24.3452">
        <ele>139.675692</ele>
        <time>2020-10-06T19:43:35.770Z</time>
      </trkpt>
      <trkpt lat="54.36763" lon="24.34535">
        <ele>139.204357</ele>
        <time>2020-10-06T19:43:38.057Z</time>
      </trkpt>
      <trkpt lat="54.36721" lon="24.34558">
        <ele>137.758336</ele>
        <time>2020-10-06T19:43:45.307Z</time>
      </trkpt>
      <trkpt lat="54.36574" lon="24.34643">
        <ele>133.961213</ele>
        <time>2020-10-06T19:44:12.006Z</time>
      </trkpt>
      <trkpt lat="54.36565" lon="24.34649">
        <ele>133.844631</ele>
        <time>2020-10-06T19:44:13.636Z</time>
      </trkpt>
      <trkpt lat="54.36705" lon="24.35186">
        <ele>133.23375</ele>
        <time>2020-10-06T19:45:31.604Z</time>
      </trkpt>
      <trkpt lat="54.3681" lon="24.35588">
        <ele>135.481963</ele>
        <time>2020-10-06T19:46:40.846Z</time>
      </trkpt>
      <trkpt lat="54.36859" lon="24.35779">
        <ele>136.026286</ele>
        <time>2020-10-06T19:47:09.510Z</time>
      </trkpt>
      <trkpt lat="54.36883" lon="24.35874">
        <ele>136.128269</ele>
        <time>2020-10-06T19:47:22.951Z</time>
      </trkpt>
      <trkpt lat="54.36891" lon="24.35909">
        <ele>136.165257</ele>
        <time>2020-10-06T19:47:27.835Z</time>
      </trkpt>
      <trkpt lat="54.369" lon="24.35951">
        <ele>136.211808</ele>
        <time>2020-10-06T19:47:33.584Z</time>
      </trkpt>
      <trkpt lat="54.36917" lon="24.36023">
        <ele>136.316399</ele>
        <time>2020-10-06T19:47:46.918Z</time>
      </trkpt>
      <trkpt lat="54.36905" lon="24.36132">
        <ele>136.466433</ele>
        <time>2020-10-06T19:48:01.288Z</time>
      </trkpt>
      <trkpt lat="54.36896" lon="24.36218">
        <ele>136.584222</ele>
        <time>2020-10-06T19:48:13.510Z</time>
      </trkpt>
      <trkpt lat="54.36877" lon="24.36385">
        <ele>137.437698</ele>
        <time>2020-10-06T19:48:39.439Z</time>
      </trkpt>
      <trkpt lat="54.36866" lon="24.3648">
        <ele>137.981859</ele>
        <time>2020-10-06T19:48:54.840Z</time>
      </trkpt>
      <trkpt lat="54.36839" lon="24.36724">
        <ele>138.870629</ele>
        <time>2020-10-06T19:49:32.578Z</time>
      </trkpt>
      <trkpt lat="54.36656" lon="24.36694">
        <ele>138.917044</ele>
        <time>2020-10-06T19:50:13.545Z</time>
      </trkpt>
      <trkpt lat="54.36629" lon="24.36698">
        <ele>138.838163</ele>
        <time>2020-10-06T19:50:19.437Z</time>
      </trkpt>
      <trkpt lat="54.36614" lon="24.36708">
        <ele>138.793871</ele>
        <time>2020-10-06T19:50:22.739Z</time>
      </trkpt>
      <trkpt lat="54.36365" lon="24.37105">
        <ele>137.59281</ele>
        <time>2020-10-06T19:51:37.792Z</time>
      </trkpt>
      <trkpt lat="54.36351" lon="24.37126">
        <ele>137.517478</ele>
        <time>2020-10-06T19:51:41.822Z</time>
      </trkpt>
      <trkpt lat="54.36329" lon="24.3716">
        <ele>137.394667</ele>
        <time>2020-10-06T19:51:48.012Z</time>
      </trkpt>
      <trkpt lat="54.36188" lon="24.37372">
        <ele>136.295887</ele>
        <time>2020-10-06T19:52:27.783Z</time>
      </trkpt>
      <trkpt lat="54.3615" lon="24.3743">
        <ele>135.977735</ele>
        <time>2020-10-06T19:52:38.678Z</time>
      </trkpt>
      <trkpt lat="54.361" lon="24.37504">
        <ele>135.567256</ele>
        <time>2020-10-06T19:52:52.575Z</time>
      </trkpt>
      <trkpt lat="54.36034" lon="24.37619">
        <ele>134.886672</ele>
        <time>2020-10-06T19:53:12.473Z</time>
      </trkpt>
      <trkpt lat="54.3599" lon="24.3769">
        <ele>134.366039</ele>
        <time>2020-10-06T19:53:24.784Z</time>
      </trkpt>
      <trkpt lat="54.35939" lon="24.37775">
        <ele>133.758554</ele>
        <time>2020-10-06T19:53:39.216Z</time>
      </trkpt>
      <trkpt lat="54.3591" lon="24.37824">
        <ele>133.468217</ele>
        <time>2020-10-06T19:53:47.655Z</time>
      </trkpt>
      <trkpt lat="54.35855" lon="24.37934">
        <ele>132.897164</ele>
        <time>2020-10-06T19:54:05.326Z</time>
      </trkpt>
      <trkpt lat="54.35793" lon="24.38026">
        <ele>132.379698</ele>
        <time>2020-10-06T19:54:22.875Z</time>
      </trkpt>
      <trkpt lat="54.35786" lon="24.38049">
        <ele>132.310371</ele>
        <time>2020-10-06T19:54:26.165Z</time>
      </trkpt>
      <trkpt lat="54.35761" lon="24.38216">
        <ele>131.844424</ele>
        <time>2020-10-06T19:54:48.299Z</time>
      </trkpt>
      <trkpt lat="54.35759" lon="24.38244">
        <ele>131.767161</ele>
        <time>2020-10-06T19:54:51.974Z</time>
      </trkpt>
      <trkpt lat="54.35772" lon="24.38342">
        <ele>131.347054</ele>
        <time>2020-10-06T19:55:12.495Z</time>
      </trkpt>
      <trkpt lat="54.35764" lon="24.38516">
        <ele>130.376357</ele>
        <time>2020-10-06T19:55:46.998Z</time>
      </trkpt>
      <trkpt lat="54.35765" lon="24.38791">
        <ele>128.746535</ele>
        <time>2020-10-06T19:56:39.992Z</time>
      </trkpt>
      <trkpt lat="54.35757" lon="24.38889">
        <ele>128.143376</ele>
        <time>2020-10-06T19:56:59.659Z</time>
      </trkpt>
      <trkpt lat="54.35756" lon="24.39108">
        <ele>128.229455</ele>
        <time>2020-10-06T19:57:46.520Z</time>
      </trkpt>
      <trkpt lat="54.35756" lon="24.39152">
        <ele>128.271889</ele>
        <time>2020-10-06T19:57:56.726Z</time>
      </trkpt>
      <trkpt lat="54.35756" lon="24.39308">
        <ele>128.85342</ele>
        <time>2020-10-06T19:58:33.932Z</time>
      </trkpt>
      <trkpt lat="54.3575" lon="24.39375">
        <ele>129.234581</ele>
        <time>2020-10-06T19:58:50.630Z</time>
      </trkpt>
      <trkpt lat="54.35754" lon="24.39396">
        <ele>129.356605</ele>
        <time>2020-10-06T19:58:55.895Z</time>
      </trkpt>
      <trkpt lat="54.35751" lon="24.39618">
        <ele>130.336642</ele>
        <time>2020-10-06T19:59:48.915Z</time>
      </trkpt>
      <trkpt lat="54.35723" lon="24.39672">
        <ele>130.539822</ele>
        <time>2020-10-06T20:00:05.408Z</time>
      </trkpt>
      <trkpt lat="54.35714" lon="24.39701">
        <ele>130.631314</ele>
        <time>2020-10-06T20:00:12.733Z</time>
      </trkpt>
      <trkpt lat="54.35669" lon="24.39953">
        <ele>131.161141</ele>
        <time>2020-10-06T20:01:10.207Z</time>
      </trkpt>
      <trkpt lat="54.35654" lon="24.40016">
        <ele>131.260974</ele>
        <time>2020-10-06T20:01:25.462Z</time>
      </trkpt>
      <trkpt lat="54.3565" lon="24.40024">
        <ele>131.276665</ele>
        <time>2020-10-06T20:01:27.880Z</time>
      </trkpt>
      <trkpt lat="54.35645" lon="24.40036">
        <ele>131.298688</ele>
        <time>2020-10-06T20:01:31.199Z</time>
      </trkpt>
      <trkpt lat="54.35606" lon="24.40115">
        <ele>131.479583</ele>
        <time>2020-10-06T20:01:54.914Z</time>
      </trkpt>
      <trkpt lat="54.3559" lon="24.40145">
        <ele>131.566386</ele>
        <time>2020-10-06T20:02:04.253Z</time>
      </trkpt>
      <trkpt lat="54.35548" lon="24.40181">
        <ele>131.739896</ele>
        <time>2020-10-06T20:02:23.090Z</time>
      </trkpt>
      <trkpt lat="54.35484" lon="24.40216">
        <ele>131.984386</ele>
        <time>2020-10-06T20:02:48.908Z</time>
      </trkpt>
      <trkpt lat="54.35416" lon="24.40236">
        <ele>131.823805</ele>
        <time>2020-10-06T20:03:13.576Z</time>
      </trkpt>
      <trkpt lat="54.35392" lon="24.40259">
        <ele>131.70727</ele>
        <time>2020-10-06T20:03:23.126Z</time>
      </trkpt>
      <trkpt lat="54.35284" lon="24.40358">
        <ele>131.317467</ele>
        <time>2020-10-06T20:04:06.117Z</time>
      </trkpt>
      <trkpt lat="54.35229" lon="24.40404">
        <ele>131.418102</ele>
        <time>2020-10-06T20:04:28.196Z</time>
      </trkpt>
      <trkpt lat="54.35159" lon="24.40524">
        <ele>131.591701</ele>
        <time>2020-10-06T20:05:07.177Z</time>
      </trkpt>
      <trkpt lat="54.35095" lon="24.40591">
        <ele>132.053648</ele>
        <time>2020-10-06T20:05:37.847Z</time>
      </trkpt>
      <trkpt lat="54.35058" lon="24.40646">
        <ele>132.352946</ele>
        <time>2020-10-06T20:05:57.312Z</time>
      </trkpt>
      <trkpt lat="54.35022" lon="24.40683">
        <ele>132.609304</ele>
        <time>2020-10-06T20:06:13.724Z</time>
      </trkpt>
      <trkpt lat="54.34931" lon="24.40741">
        <ele>132.567385</ele>
        <time>2020-10-06T20:06:50.329Z</time>
      </trkpt>
      <trkpt lat="54.34901" lon="24.40768">
        <ele>132.521984</ele>
        <time>2020-10-06T20:07:02.567Z</time>
      </trkpt>
      <trkpt lat="54.34766" lon="24.40932">
        <ele>132.031648</ele>
        <time>2020-10-06T20:08:00.973Z</time>
      </trkpt>
      <trkpt lat="54.34735" lon="24.40957">
        <ele>131.895499</ele>
        <time>2020-10-06T20:08:13.304Z</time>
      </trkpt>
      <trkpt lat="54.34659" lon="24.40993">
        <ele>131.740497</ele>
        <time>2020-10-06T20:08:41.605Z</time>
      </trkpt>
      <trkpt lat="54.34566" lon="24.41092">
        <ele>131.748786</ele>
        <time>2020-10-06T20:09:22.187Z</time>
      </trkpt>
      <trkpt lat="54.34519" lon="24.41104">
        <ele>131.831313</ele>
        <time>2020-10-06T20:09:40.382Z</time>
      </trkpt>
      <trkpt lat="54.34397" lon="24.41163">
        <ele>132.46908</ele>
        <time>2020-10-06T20:10:30.413Z</time>
      </trkpt>
      <trkpt lat="54.34339" lon="24.41224">
        <ele>132.599873</ele>
        <time>2020-10-06T20:10:57.334Z</time>
      </trkpt>
      <trkpt lat="54.34317" lon="24.41236">
        <ele>132.553614</ele>
        <time>2020-10-06T20:11:05.994Z</time>
      </trkpt>
      <trkpt lat="54.34294" lon="24.4124">
        <ele>132.508472</ele>
        <time>2020-10-06T20:11:14.495Z</time>
      </trkpt>
      <trkpt lat="54.34268" lon="24.41241">
        <ele>132.456712</ele>
        <time>2020-10-06T20:11:23.949Z</time>
      </trkpt>
      <trkpt lat="54.34128" lon="24.41173">
        <ele>131.661294</ele>
        <time>2020-10-06T20:12:14.348Z</time>
      </trkpt>
      <trkpt lat="54.34083" lon="24.4116">
        <ele>131.234603</ele>
        <time>2020-10-06T20:12:29.237Z</time>
      </trkpt>
      <trkpt lat="54.33776" lon="24.41164">
        <ele>129.496284</ele>
        <time>2020-10-06T20:14:14.867Z</time>
      </trkpt>
      <trkpt lat="54.33749" lon="24.41154">
        <ele>129.597228</ele>
        <time>2020-10-06T20:14:26.030Z</time>
      </trkpt>
      <trkpt lat="54.3368" lon="24.41116">
        <ele>129.85164</ele>
        <time>2020-10-06T20:14:55.346Z</time>
      </trkpt>
      <trkpt lat="54.33604" lon="24.4107">
        <ele>130.607843</ele>
        <time>2020-10-06T20:15:29.976Z</time>
      </trkpt>
      <trkpt lat="54.33561" lon="24.41052">
        <ele>131.105919</ele>
        <time>2020-10-06T20:15:49.042Z</time>
      </trkpt>
      <trkpt lat="54.33491" lon="24.41044">
        <ele>131.887576</ele>
        <time>2020-10-06T20:16:17.546Z</time>
      </trkpt>
      <trkpt lat="54.33465" lon="24.41049">
        <ele>131.907976</ele>
        <time>2020-10-06T20:16:27.855Z</time>
      </trkpt>
      <trkpt lat="54.33434" lon="24.41069">
        <ele>131.87953</ele>
        <time>2020-10-06T20:16:40.547Z</time>
      </trkpt>
      <trkpt lat="54.33081" lon="24.41395">
        <ele>131.262663</ele>
        <time>2020-10-06T20:19:06.019Z</time>
      </trkpt>
      <trkpt lat="54.3295" lon="24.41516">
        <ele>130.75726</ele>
        <time>2020-10-06T20:19:58.571Z</time>
      </trkpt>
      <trkpt lat="54.32922" lon="24.41541">
        <ele>130.661038</ele>
        <time>2020-10-06T20:20:09.808Z</time>
      </trkpt>
      <trkpt lat="54.32671" lon="24.4177">
        <ele>130.316834</ele>
        <time>2020-10-06T20:21:54.245Z</time>
      </trkpt>
      <trkpt lat="54.32642" lon="24.41813">
        <ele>130.40133</ele>
        <time>2020-10-06T20:22:08.930Z</time>
      </trkpt>
      <trkpt lat="54.32595" lon="24.41913">
        <ele>130.562969</ele>
        <time>2020-10-06T20:22:37.195Z</time>
      </trkpt>
      <trkpt lat="54.32566" lon="24.41804">
        <ele>130.805695</ele>
        <time>2020-10-06T20:23:04.286Z</time>
      </trkpt>
      <trkpt lat="54.3254" lon="24.41754">
        <ele>131.030643</ele>
        <time>2020-10-06T20:23:19.344Z</time>
      </trkpt>
      <trkpt lat="54.32376" lon="24.41514">
        <ele>132.537472</ele>
        <time>2020-10-06T20:24:45.557Z</time>
      </trkpt>
      <trkpt lat="54.3231" lon="24.41397">
        <ele>133.323978</ele>
        <time>2020-10-06T20:25:24.637Z</time>
      </trkpt>
      <trkpt lat="54.32271" lon="24.41316">
        <ele>133.801915</ele>
        <time>2020-10-06T20:25:49.546Z</time>
      </trkpt>
      <trkpt lat="54.32251" lon="24.41253">
        <ele>134.128781</ele>
        <time>2020-10-06T20:26:06.480Z</time>
      </trkpt>
      <trkpt lat="54.32237" lon="24.41228">
        <ele>134.288226</ele>
        <time>2020-10-06T20:26:14.659Z</time>
      </trkpt>
      <trkpt lat="54.32223" lon="24.41214">
        <ele>134.413079</ele>
        <time>2020-10-06T20:26:21.058Z</time>
      </trkpt>
      <trkpt lat="54.32173" lon="24.4119">
        <ele>134.703839</ele>
        <time>2020-10-06T20:26:41.427Z</time>
      </trkpt>
      <trkpt lat="54.32158" lon="24.41172">
        <ele>134.767364</ele>
        <time>2020-10-06T20:26:48.577Z</time>
      </trkpt>
      <trkpt lat="54.32129" lon="24.41098">
        <ele>134.950082</ele>
        <time>2020-10-06T20:27:08.935Z</time>
      </trkpt>
      <trkpt lat="54.32082" lon="24.41012">
        <ele>135.18785</ele>
        <time>2020-10-06T20:27:35.024Z</time>
      </trkpt>
      <trkpt lat="54.32063" lon="24.4095">
        <ele>135.219483</ele>
        <time>2020-10-06T20:27:50.490Z</time>
      </trkpt>
      <trkpt lat="54.31963" lon="24.40444">
        <ele>134.880382</ele>
        <time>2020-10-06T20:29:44.629Z</time>
      </trkpt>
      <trkpt lat="54.31935" lon="24.40182">
        <ele>134.574648</ele>
        <time>2020-10-06T20:30:41.098Z</time>
      </trkpt>
      <trkpt lat="54.31913" lon="24.40073">
        <ele>134.478874</ele>
        <time>2020-10-06T20:31:05.490Z</time>
      </trkpt>
      <trkpt lat="54.31878" lon="24.39949">
        <ele>134.475883</ele>
        <time>2020-10-06T20:31:35.104Z</time>
      </trkpt>
      <trkpt lat="54.31869" lon="24.39917">
        <ele>134.475106</ele>
        <time>2020-10-06T20:31:42.892Z</time>
      </trkpt>
      <trkpt lat="54.31818" lon="24.39829">
        <ele>134.491073</ele>
        <time>2020-10-06T20:32:10.237Z</time>
      </trkpt>
      <trkpt lat="54.31632" lon="24.39647">
        <ele>134.488633</ele>
        <time>2020-10-06T20:33:30.909Z</time>
      </trkpt>
      <trkpt lat="54.31592" lon="24.3962">
        <ele>134.296809</ele>
        <time>2020-10-06T20:33:46.218Z</time>
      </trkpt>
      <trkpt lat="54.31556" lon="24.39591">
        <ele>134.122597</ele>
        <time>2020-10-06T20:33:59.877Z</time>
      </trkpt>
      <trkpt lat="54.31511" lon="24.39532">
        <ele>133.863651</ele>
        <time>2020-10-06T20:34:19.330Z</time>
      </trkpt>
      <trkpt lat="54.31458" lon="24.39491">
        <ele>133.538472</ele>
        <time>2020-10-06T20:34:39.414Z</time>
      </trkpt>
      <trkpt lat="54.31416" lon="24.39423">
        <ele>133.221238</ele>
        <time>2020-10-06T20:34:59.500Z</time>
      </trkpt>
      <trkpt lat="54.31343" lon="24.39346">
        <ele>132.964102</ele>
        <time>2020-10-06T20:35:30.616Z</time>
      </trkpt>
      <trkpt lat="54.31252" lon="24.3931">
        <ele>133.120601</ele>
        <time>2020-10-06T20:36:05.642Z</time>
      </trkpt>
      <trkpt lat="54.31226" lon="24.39306">
        <ele>133.164722</ele>
        <time>2020-10-06T20:36:15.716Z</time>
      </trkpt>
      <trkpt lat="54.30898" lon="24.39363">
        <ele>135.193862</ele>
        <time>2020-10-06T20:38:25.875Z</time>
      </trkpt>
      <trkpt lat="54.30599" lon="24.39547">
        <ele>137.994671</ele>
        <time>2020-10-06T20:40:37.560Z</time>
      </trkpt>
      <trkpt lat="54.30525" lon="24.39562">
        <ele>138.40155</ele>
        <time>2020-10-06T20:41:06.611Z</time>
      </trkpt>
      <trkpt lat="54.3052" lon="24.39595">
        <ele>138.512593</ele>
        <time>2020-10-06T20:41:14.407Z</time>
      </trkpt>
      <trkpt lat="54.30342" lon="24.39759">
        <ele>137.490107</ele>
        <time>2020-10-06T20:42:24.425Z</time>
      </trkpt>
      <trkpt lat="54.30314" lon="24.39778">
        <ele>137.434802</ele>
        <time>2020-10-06T20:42:34.820Z</time>
      </trkpt>
      <trkpt lat="54.30296" lon="24.39779">
        <ele>137.401708</ele>
        <time>2020-10-06T20:42:40.818Z</time>
      </trkpt>
      <trkpt lat="54.30205" lon="24.3974">
        <ele>137.227232</ele>
        <time>2020-10-06T20:43:15.548Z</time>
      </trkpt>
      <trkpt lat="54.30193" lon="24.39737">
        <ele>137.203818</ele>
        <time>2020-10-06T20:43:19.964Z</time>
      </trkpt>
      <trkpt lat="54.30176" lon="24.39741">
        <ele>137.205757</ele>
        <time>2020-10-06T20:43:26.945Z</time>
      </trkpt>
      <trkpt lat="54.30113" lon="24.39788">
        <ele>137.543928</ele>
        <time>2020-10-06T20:43:53.783Z</time>
      </trkpt>
      <trkpt lat="54.29837" lon="24.4012">
        <ele>138.888923</ele>
        <time>2020-10-06T20:46:06.286Z</time>
      </trkpt>
      <trkpt lat="54.29806" lon="24.40135">
        <ele>138.814136</ele>
        <time>2020-10-06T20:46:18.299Z</time>
      </trkpt>
      <trkpt lat="54.29389" lon="24.40134">
        <ele>137.547326</ele>
        <time>2020-10-06T20:48:46.832Z</time>
      </trkpt>
      <trkpt lat="54.29153" lon="24.40133">
        <ele>136.387716</ele>
        <time>2020-10-06T20:50:09.393Z</time>
      </trkpt>
      <trkpt lat="54.29136" lon="24.40128">
        <ele>136.344385</ele>
        <time>2020-10-06T20:50:15.867Z</time>
      </trkpt>
      <trkpt lat="54.29059" lon="24.40069">
        <ele>136.142193</ele>
        <time>2020-10-06T20:50:46.350Z</time>
      </trkpt>
      <trkpt lat="54.29026" lon="24.40038">
        <ele>136.049215</ele>
        <time>2020-10-06T20:51:00.540Z</time>
      </trkpt>
      <trkpt lat="54.28994" lon="24.40001">
        <ele>135.960583</ele>
        <time>2020-10-06T20:51:14.888Z</time>
      </trkpt>
      <trkpt lat="54.28688" lon="24.39601">
        <ele>134.753663</ele>
        <time>2020-10-06T20:53:34.226Z</time>
      </trkpt>
      <trkpt lat="54.28618" lon="24.39536">
        <ele>134.00559</ele>
        <time>2020-10-06T20:54:00.693Z</time>
      </trkpt>
      <trkpt lat="54.2854" lon="24.39464">
        <ele>133.169906</ele>
        <time>2020-10-06T20:54:30.144Z</time>
      </trkpt>
      <trkpt lat="54.2853" lon="24.39457">
        <ele>133.070131</ele>
        <time>2020-10-06T20:54:33.435Z</time>
      </trkpt>
      <trkpt lat="54.28505" lon="24.39453">
        <ele>132.834953</ele>
        <time>2020-10-06T20:54:41.918Z</time>
      </trkpt>
      <trkpt lat="54.28365" lon="24.39478">
        <ele>131.827765</ele>
        <time>2020-10-06T20:55:30.305Z</time>
      </trkpt>
      <trkpt lat="54.28285" lon="24.39481">
        <ele>132.096318</ele>
        <time>2020-10-06T20:56:00.560Z</time>
      </trkpt>
      <trkpt lat="54.28056" lon="24.39534">
        <ele>133.989009</ele>
        <time>2020-10-06T20:57:35.914Z</time>
      </trkpt>
      <trkpt lat="54.27956" lon="24.39569">
        <ele>135.025631</ele>
        <time>2020-10-06T20:58:18.608Z</time>
      </trkpt>
      <trkpt lat="54.27922" lon="24.3958">
        <ele>135.374657</ele>
        <time>2020-10-06T20:58:32.839Z</time>
      </trkpt>
      <trkpt lat="54.27813" lon="24.39606">
        <ele>136.230119</ele>
        <time>2020-10-06T20:59:17.256Z</time>
      </trkpt>
      <trkpt lat="54.27638" lon="24.39635">
        <ele>136.897709</ele>
        <time>2020-10-06T21:00:24.508Z</time>
      </trkpt>
      <trkpt lat="54.2746" lon="24.39651">
        <ele>137.3818</ele>
        <time>2020-10-06T21:01:32.654Z</time>
      </trkpt>
      <trkpt lat="54.27415" lon="24.39661">
        <ele>137.491193</ele>
        <time>2020-10-06T21:01:49.761Z</time>
      </trkpt>
      <trkpt lat="54.27385" lon="24.39662">
        <ele>137.565313</ele>
        <time>2020-10-06T21:02:01.405Z</time>
      </trkpt>
      <trkpt lat="54.27367" lon="24.3966">
        <ele>137.609991</ele>
        <time>2020-10-06T21:02:08.420Z</time>
      </trkpt>
      <trkpt lat="54.27371" lon="24.39499">
        <ele>137.764663</ele>
        <time>2020-10-06T21:02:30.146Z</time>
      </trkpt>
      <trkpt lat="54.27368" lon="24.3943">
        <ele>137.797143</ele>
        <time>2020-10-06T21:02:39.103Z</time>
      </trkpt>
      <trkpt lat="54.27361" lon="24.39378">
        <ele>137.822249</ele>
        <time>2020-10-06T21:02:46.232Z</time>
      </trkpt>
      <trkpt lat="54.27353" lon="24.39349">
        <ele>137.837318</ele>
        <time>2020-10-06T21:02:50.324Z</time>
      </trkpt>
      <trkpt lat="54.27319" lon="24.39271">
        <ele>137.88237</ele>
        <time>2020-10-06T21:03:03.236Z</time>
      </trkpt>
      <trkpt lat="54.27252" lon="24.39165">
        <ele>137.952558</ele>
        <time>2020-10-06T21:03:23.333Z</time>
      </trkpt>
      <trkpt lat="54.27194" lon="24.39053">
        <ele>138.023398</ele>
        <time>2020-10-06T21:03:43.458Z</time>
      </trkpt>
      <trkpt lat="54.27163" lon="24.38999">
        <ele>138.069919</ele>
        <time>2020-10-06T21:03:53.693Z</time>
      </trkpt>
      <trkpt lat="54.27147" lon="24.38969">
        <ele>138.095139</ele>
        <time>2020-10-06T21:03:59.256Z</time>
      </trkpt>
      <trkpt lat="54.27125" lon="24.3893">
        <ele>138.128271</ele>
        <time>2020-10-06T21:04:06.576Z</time>
      </trkpt>
      <trkpt lat="54.26935" lon="24.38588">
        <ele>138.074798</ele>
        <time>2020-10-06T21:05:07.747Z</time>
      </trkpt>
      <trkpt lat="54.26819" lon="24.38349">
        <ele>137.509173</ele>
        <time>2020-10-06T21:05:45.666Z</time>
      </trkpt>
      <trkpt lat="54.26788" lon="24.38276">
        <ele>137.318747</ele>
        <time>2020-10-06T21:05:56.862Z</time>
      </trkpt>
      <trkpt lat="54.26768" lon="24.38175">
        <ele>137.096527</ele>
        <time>2020-10-06T21:06:09.983Z</time>
      </trkpt>
      <trkpt lat="54.26744" lon="24.38044">
        <ele>136.841883</ele>
        <time>2020-10-06T21:06:26.970Z</time>
      </trkpt>
      <trkpt lat="54.26654" lon="24.37461">
        <ele>136.223057</ele>
        <time>2020-10-06T21:07:41.999Z</time>
      </trkpt>
      <trkpt lat="54.2656" lon="24.36854">
        <ele>138.540528</ele>
        <time>2020-10-06T21:09:13.544Z</time>
      </trkpt>
      <trkpt lat="54.26491" lon="24.36406">
        <ele>142.325</ele>
        <time>2020-10-06T21:10:28.099Z</time>
      </trkpt>
      <trkpt lat="54.26396" lon="24.358">
        <ele>150.454165</ele>
        <time>2020-10-06T21:12:29.128Z</time>
      </trkpt>
      <trkpt lat="54.26388" lon="24.35742">
        <ele>151.100648</ele>
        <time>2020-10-06T21:12:37.448Z</time>
      </trkpt>
      <trkpt lat="54.26369" lon="24.3561">
        <ele>148.749724</ele>
        <time>2020-10-06T21:12:52.207Z</time>
      </trkpt>
      <trkpt lat="54.26347" lon="24.35489">
        <ele>146.389898</ele>
        <time>2020-10-06T21:13:03.656Z</time>
      </trkpt>
      <trkpt lat="54.26315" lon="24.35349">
        <ele>142.355116</ele>
        <time>2020-10-06T21:13:16.622Z</time>
      </trkpt>
      <trkpt lat="54.26299" lon="24.35288">
        <ele>140.278653</ele>
        <time>2020-10-06T21:13:22.335Z</time>
      </trkpt>
      <trkpt lat="54.26255" lon="24.35165">
        <ele>135.852824</ele>
        <time>2020-10-06T21:13:35.087Z</time>
      </trkpt>
      <trkpt lat="54.26226" lon="24.35102">
        <ele>134.815205</ele>
        <time>2020-10-06T21:13:42.535Z</time>
      </trkpt>
      <trkpt lat="54.2615" lon="24.34965">
        <ele>132.356071</ele>
        <time>2020-10-06T21:14:02.597Z</time>
      </trkpt>
      <trkpt lat="54.26033" lon="24.34805">
        <ele>131.408445</ele>
        <time>2020-10-06T21:14:33.844Z</time>
      </trkpt>
      <trkpt lat="54.25861" lon="24.34563">
        <ele>131.017543</ele>
        <time>2020-10-06T21:15:23.101Z</time>
      </trkpt>
      <trkpt lat="54.2507" lon="24.33453">
        <ele>124.106488</ele>
        <time>2020-10-06T21:18:47.806Z</time>
      </trkpt>
      <trkpt lat="54.25006" lon="24.33363">
        <ele>123.72668</ele>
        <time>2020-10-06T21:19:05.378Z</time>
      </trkpt>
      <trkpt lat="54.24837" lon="24.33118">
        <ele>123.481035</ele>
        <time>2020-10-06T21:19:53.278Z</time>
      </trkpt>
      <trkpt lat="54.24744" lon="24.32986">
        <ele>123.605947</ele>
        <time>2020-10-06T21:20:22.108Z</time>
      </trkpt>
      <trkpt lat="54.24734" lon="24.32965">
        <ele>123.571504</ele>
        <time>2020-10-06T21:20:25.295Z</time>
      </trkpt>
      <trkpt lat="54.2473" lon="24.32947">
        <ele>123.546324</ele>
        <time>2020-10-06T21:20:27.984Z</time>
      </trkpt>
      <trkpt lat="54.24727" lon="24.32915">
        <ele>123.505928</ele>
        <time>2020-10-06T21:20:32.113Z</time>
      </trkpt>
      <trkpt lat="54.24725" lon="24.32833">
        <ele>123.399963</ele>
        <time>2020-10-06T21:20:42.576Z</time>
      </trkpt>
      <trkpt lat="54.24723" lon="24.32809">
        <ele>123.369886</ele>
        <time>2020-10-06T21:20:46.006Z</time>
      </trkpt>
      <trkpt lat="54.2472" lon="24.32794">
        <ele>123.349227</ele>
        <time>2020-10-06T21:20:47.747Z</time>
      </trkpt>
      <trkpt lat="54.24703" lon="24.32772">
        <ele>123.30196</ele>
        <time>2020-10-06T21:20:52.074Z</time>
      </trkpt>
      <trkpt lat="54.2461" lon="24.32721">
        <ele>123.252251</ele>
        <time>2020-10-06T21:21:12.120Z</time>
      </trkpt>
      <trkpt lat="54.24581" lon="24.32693">
        <ele>123.275524</ele>
        <time>2020-10-06T21:21:19.556Z</time>
      </trkpt>
      <trkpt lat="54.24573" lon="24.32673">
        <ele>123.285357</ele>
        <time>2020-10-06T21:21:22.404Z</time>
      </trkpt>
      <trkpt lat="54.2457" lon="24.32653">
        <ele>123.293615</ele>
        <time>2020-10-06T21:21:25.485Z</time>
      </trkpt>
      <trkpt lat="54.24563" lon="24.32633">
        <ele>123.302925</ele>
        <time>2020-10-06T21:21:28.623Z</time>
      </trkpt>
      <trkpt lat="54.24557" lon="24.32626">
        <ele>123.308298</ele>
        <time>2020-10-06T21:21:30.267Z</time>
      </trkpt>
      <trkpt lat="54.24524" lon="24.32617">
        <ele>123.331099</ele>
        <time>2020-10-06T21:21:38.456Z</time>
      </trkpt>
      <trkpt lat="54.24501" lon="24.32612">
        <ele>123.517673</ele>
        <time>2020-10-06T21:21:44.800Z</time>
      </trkpt>
      <trkpt lat="54.24443" lon="24.32606">
        <ele>124.254205</ele>
        <time>2020-10-06T21:22:00.052Z</time>
      </trkpt>
      <trkpt lat="54.24402" lon="24.32592">
        <ele>124.787196</ele>
        <time>2020-10-06T21:22:12.321Z</time>
      </trkpt>
      <trkpt lat="54.24375" lon="24.32573">
        <ele>125.155937</ele>
        <time>2020-10-06T21:22:20.675Z</time>
      </trkpt>
      <trkpt lat="54.24344" lon="24.32538">
        <ele>125.626902</ele>
        <time>2020-10-06T21:22:31.072Z</time>
      </trkpt>
      <trkpt lat="54.24329" lon="24.32512">
        <ele>125.896873</ele>
        <time>2020-10-06T21:22:36.934Z</time>
      </trkpt>
      <trkpt lat="54.24282" lon="24.3242">
        <ele>126.76645</ele>
        <time>2020-10-06T21:22:55.662Z</time>
      </trkpt>
      <trkpt lat="54.24136" lon="24.32116">
        <ele>129.887013</ele>
        <time>2020-10-06T21:23:59.076Z</time>
      </trkpt>
      <trkpt lat="54.23949" lon="24.31739">
        <ele>134.036874</ele>
        <time>2020-10-06T21:25:24.490Z</time>
      </trkpt>
      <trkpt lat="54.2391" lon="24.31652">
        <ele>134.377859</ele>
        <time>2020-10-06T21:25:38.870Z</time>
      </trkpt>
      <trkpt lat="54.23885" lon="24.31581">
        <ele>134.570167</ele>
        <time>2020-10-06T21:25:48.764Z</time>
      </trkpt>
      <trkpt lat="54.23854" lon="24.31466">
        <ele>134.086026</ele>
        <time>2020-10-06T21:26:02.873Z</time>
      </trkpt>
      <trkpt lat="54.23801" lon="24.31266">
        <ele>133.429192</ele>
        <time>2020-10-06T21:26:29.178Z</time>
      </trkpt>
      <trkpt lat="54.23758" lon="24.31082">
        <ele>133.430911</ele>
        <time>2020-10-06T21:26:55.755Z</time>
      </trkpt>
      <trkpt lat="54.23752" lon="24.31033">
        <ele>133.431348</ele>
        <time>2020-10-06T21:27:02.607Z</time>
      </trkpt>
      <trkpt lat="54.23747" lon="24.30968">
        <ele>133.235158</ele>
        <time>2020-10-06T21:27:11.254Z</time>
      </trkpt>
      <trkpt lat="54.23744" lon="24.3087">
        <ele>132.877793</ele>
        <time>2020-10-06T21:27:23.618Z</time>
      </trkpt>
      <trkpt lat="54.23753" lon="24.30442">
        <ele>130.463053</ele>
        <time>2020-10-06T21:28:11.130Z</time>
      </trkpt>
      <trkpt lat="54.23739" lon="24.302">
        <ele>129.449722</ele>
        <time>2020-10-06T21:28:38.643Z</time>
      </trkpt>
      <trkpt lat="54.2373" lon="24.30063">
        <ele>129.254081</ele>
        <time>2020-10-06T21:28:56.573Z</time>
      </trkpt>
      <trkpt lat="54.23725" lon="24.2998">
        <ele>129.640336</ele>
        <time>2020-10-06T21:29:08.837Z</time>
      </trkpt>
      <trkpt lat="54.23709" lon="24.29871">
        <ele>130.16572</ele>
        <time>2020-10-06T21:29:26.708Z</time>
      </trkpt>
      <trkpt lat="54.23677" lon="24.2976">
        <ele>130.700227</ele>
        <time>2020-10-06T21:29:46.188Z</time>
      </trkpt>
      <trkpt lat="54.23531" lon="24.29369">
        <ele>131.760227</ele>
        <time>2020-10-06T21:30:52.111Z</time>
      </trkpt>
      <trkpt lat="54.23485" lon="24.29275">
        <ele>131.688538</ele>
        <time>2020-10-06T21:31:06.606Z</time>
      </trkpt>
      <trkpt lat="54.23365" lon="24.29082">
        <ele>130.238755</ele>
        <time>2020-10-06T21:31:38.420Z</time>
      </trkpt>
      <trkpt lat="54.23335" lon="24.29034">
        <ele>130.147778</ele>
        <time>2020-10-06T21:31:46.616Z</time>
      </trkpt>
      <trkpt lat="54.23289" lon="24.28949">
        <ele>130.024041</ele>
        <time>2020-10-06T21:32:00.948Z</time>
      </trkpt>
      <trkpt lat="54.23213" lon="24.28784">
        <ele>130.034385</ele>
        <time>2020-10-06T21:32:29.841Z</time>
      </trkpt>
      <trkpt lat="54.23061" lon="24.28453">
        <ele>130.435933</ele>
        <time>2020-10-06T21:33:27.955Z</time>
      </trkpt>
      <trkpt lat="54.22914" lon="24.28117">
        <ele>129.466959</ele>
        <time>2020-10-06T21:34:17.937Z</time>
      </trkpt>
      <trkpt lat="54.22482" lon="24.27094">
        <ele>124.70714</ele>
        <time>2020-10-06T21:36:46.472Z</time>
      </trkpt>
      <trkpt lat="54.22462" lon="24.27036">
        <ele>124.717614</ele>
        <time>2020-10-06T21:36:54.807Z</time>
      </trkpt>
      <trkpt lat="54.22353" lon="24.26598">
        <ele>125.485997</ele>
        <time>2020-10-06T21:37:59.943Z</time>
      </trkpt>
      <trkpt lat="54.22332" lon="24.26524">
        <ele>125.937058</ele>
        <time>2020-10-06T21:38:12.870Z</time>
      </trkpt>
      <trkpt lat="54.22242" lon="24.26297">
        <ele>128.105642</ele>
        <time>2020-10-06T21:38:58.632Z</time>
      </trkpt>
      <trkpt lat="54.22197" lon="24.26209">
        <ele>128.643355</ele>
        <time>2020-10-06T21:39:17.382Z</time>
      </trkpt>
      <trkpt lat="54.22157" lon="24.26159">
        <ele>129.029754</ele>
        <time>2020-10-06T21:39:30.048Z</time>
      </trkpt>
      <trkpt lat="54.21958" lon="24.2595">
        <ele>129.353085</ele>
        <time>2020-10-06T21:40:22.382Z</time>
      </trkpt>
      <trkpt lat="54.21749" lon="24.25746">
        <ele>127.781722</ele>
        <time>2020-10-06T21:41:10.865Z</time>
      </trkpt>
      <trkpt lat="54.21583" lon="24.25594">
        <ele>126.191888</ele>
        <time>2020-10-06T21:41:46.667Z</time>
      </trkpt>
      <trkpt lat="54.21376" lon="24.25392">
        <ele>125.123442</ele>
        <time>2020-10-06T21:42:37.395Z</time>
      </trkpt>
      <trkpt lat="54.21325" lon="24.25352">
        <ele>124.945481</ele>
        <time>2020-10-06T21:42:49.256Z</time>
      </trkpt>
      <trkpt lat="54.21177" lon="24.25273">
        <ele>124.119504</ele>
        <time>2020-10-06T21:43:20.814Z</time>
      </trkpt>
      <trkpt lat="54.21151" lon="24.25254">
        <ele>123.976664</ele>
        <time>2020-10-06T21:43:26.499Z</time>
      </trkpt>
      <trkpt lat="54.20866" lon="24.24954">
        <ele>122.926437</ele>
        <time>2020-10-06T21:44:36.918Z</time>
      </trkpt>
      <trkpt lat="54.20776" lon="24.24846">
        <ele>123.079825</ele>
        <time>2020-10-06T21:45:02.038Z</time>
      </trkpt>
      <trkpt lat="54.20661" lon="24.24703">
        <ele>123.520154</ele>
        <time>2020-10-06T21:45:35.892Z</time>
      </trkpt>
      <trkpt lat="54.20566" lon="24.24529">
        <ele>124.122923</ele>
        <time>2020-10-06T21:46:09.798Z</time>
      </trkpt>
      <trkpt lat="54.20476" lon="24.24447">
        <ele>124.243781</ele>
        <time>2020-10-06T21:46:33.652Z</time>
      </trkpt>
      <trkpt lat="54.20451" lon="24.24414">
        <ele>124.281814</ele>
        <time>2020-10-06T21:46:40.852Z</time>
      </trkpt>
      <trkpt lat="54.20377" lon="24.24287">
        <ele>123.941853</ele>
        <time>2020-10-06T21:47:02.747Z</time>
      </trkpt>
      <trkpt lat="54.20339" lon="24.24193">
        <ele>123.57059</ele>
        <time>2020-10-06T21:47:16.130Z</time>
      </trkpt>
      <trkpt lat="54.20314" lon="24.24134">
        <ele>123.33215</ele>
        <time>2020-10-06T21:47:24.748Z</time>
      </trkpt>
      <trkpt lat="54.20283" lon="24.24082">
        <ele>123.29183</ele>
        <time>2020-10-06T21:47:33.495Z</time>
      </trkpt>
      <trkpt lat="54.20244" lon="24.24043">
        <ele>123.254658</ele>
        <time>2020-10-06T21:47:42.868Z</time>
      </trkpt>
      <trkpt lat="54.20124" lon="24.23979">
        <ele>123.436083</ele>
        <time>2020-10-06T21:48:12.227Z</time>
      </trkpt>
      <trkpt lat="54.20038" lon="24.23927">
        <ele>124.148149</ele>
        <time>2020-10-06T21:48:35.800Z</time>
      </trkpt>
      <trkpt lat="54.20008" lon="24.23903">
        <ele>124.408197</ele>
        <time>2020-10-06T21:48:44.552Z</time>
      </trkpt>
      <trkpt lat="54.19937" lon="24.23816">
        <ele>125.223811</ele>
        <time>2020-10-06T21:49:07.770Z</time>
      </trkpt>
      <trkpt lat="54.198" lon="24.23629">
        <ele>126.990535</ele>
        <time>2020-10-06T21:49:53.203Z</time>
      </trkpt>
      <trkpt lat="54.1974" lon="24.23509">
        <ele>127.972357</ele>
        <time>2020-10-06T21:50:17.610Z</time>
      </trkpt>
      <trkpt lat="54.19688" lon="24.23445">
        <ele>128.933463</ele>
        <time>2020-10-06T21:50:35.094Z</time>
      </trkpt>
      <trkpt lat="54.19584" lon="24.23377">
        <ele>130.982198</ele>
        <time>2020-10-06T21:51:08.182Z</time>
      </trkpt>
      <trkpt lat="54.19533" lon="24.23352">
        <ele>132.07437</ele>
        <time>2020-10-06T21:51:25.198Z</time>
      </trkpt>
      <trkpt lat="54.19488" lon="24.23343">
        <ele>133.136541</ele>
        <time>2020-10-06T21:51:39.999Z</time>
      </trkpt>
      <trkpt lat="54.19454" lon="24.23346">
        <ele>133.949125</ele>
        <time>2020-10-06T21:51:51.426Z</time>
      </trkpt>
      <trkpt lat="54.19319" lon="24.23379">
        <ele>136.659416</ele>
        <time>2020-10-06T21:52:33.734Z</time>
      </trkpt>
      <trkpt lat="54.19288" lon="24.23376">
        <ele>137.114109</ele>
        <time>2020-10-06T21:52:42.583Z</time>
      </trkpt>
      <trkpt lat="54.19248" lon="24.23353">
        <ele>137.728468</ele>
        <time>2020-10-06T21:52:54.185Z</time>
      </trkpt>
      <trkpt lat="54.1909" lon="24.23182">
        <ele>139.093556</ele>
        <time>2020-10-06T21:53:40.417Z</time>
      </trkpt>
      <trkpt lat="54.18814" lon="24.2282">
        <ele>139.036978</ele>
        <time>2020-10-06T21:54:58.605Z</time>
      </trkpt>
      <trkpt lat="54.18394" lon="24.22374">
        <ele>134.112327</ele>
        <time>2020-10-06T21:56:33.198Z</time>
      </trkpt>
      <trkpt lat="54.18243" lon="24.22244">
        <ele>132.259767</ele>
        <time>2020-10-06T21:57:05.640Z</time>
      </trkpt>
      <trkpt lat="54.18084" lon="24.22066">
        <ele>130.298193</ele>
        <time>2020-10-06T21:57:41.929Z</time>
      </trkpt>
      <trkpt lat="54.18046" lon="24.22016">
        <ele>129.864558</ele>
        <time>2020-10-06T21:57:51.206Z</time>
      </trkpt>
      <trkpt lat="54.18019" lon="24.21968">
        <ele>129.506865</ele>
        <time>2020-10-06T21:57:59.017Z</time>
      </trkpt>
      <trkpt lat="54.17989" lon="24.21893">
        <ele>129.305438</ele>
        <time>2020-10-06T21:58:09.838Z</time>
      </trkpt>
      <trkpt lat="54.17655" lon="24.20959">
        <ele>128.21088</ele>
        <time>2020-10-06T22:00:28.625Z</time>
      </trkpt>
      <trkpt lat="54.17642" lon="24.20916">
        <ele>128.204401</ele>
        <time>2020-10-06T22:00:35.429Z</time>
      </trkpt>
      <trkpt lat="54.17638" lon="24.2087">
        <ele>128.267895</ele>
        <time>2020-10-06T22:00:42.027Z</time>
      </trkpt>
      <trkpt lat="54.17638" lon="24.20842">
        <ele>128.33009</ele>
        <time>2020-10-06T22:00:45.826Z</time>
      </trkpt>
      <trkpt lat="54.17592" lon="24.20843">
        <ele>128.506145</ele>
        <time>2020-10-06T22:00:57.054Z</time>
      </trkpt>
      <trkpt lat="54.17592" lon="24.20833">
        <ele>128.528149</ele>
        <time>2020-10-06T22:00:59.451Z</time>
      </trkpt>
      <trkpt lat="54.17579" lon="24.208">
        <ele>128.61677</ele>
        <time>2020-10-06T22:01:08.444Z</time>
      </trkpt>
      <trkpt lat="54.17321" lon="24.20439">
        <ele>129.213822</ele>
        <time>2020-10-06T22:03:15.971Z</time>
      </trkpt>
      <trkpt lat="54.1717" lon="24.20256">
        <ele>128.774392</ele>
        <time>2020-10-06T22:04:20.948Z</time>
      </trkpt>
      <trkpt lat="54.17133" lon="24.20195">
        <ele>128.62982</ele>
        <time>2020-10-06T22:04:39.495Z</time>
      </trkpt>
      <trkpt lat="54.17128" lon="24.20183">
        <ele>128.606297</ele>
        <time>2020-10-06T22:04:42.538Z</time>
      </trkpt>
      <trkpt lat="54.17127" lon="24.20173">
        <ele>128.590062</ele>
        <time>2020-10-06T22:04:44.444Z</time>
      </trkpt>
      <trkpt lat="54.17127" lon="24.20164">
        <ele>128.575002</ele>
        <time>2020-10-06T22:04:47.053Z</time>
      </trkpt>
      <trkpt lat="54.17166" lon="24.20115">
        <ele>128.630792</ele>
        <time>2020-10-06T22:05:05.161Z</time>
      </trkpt>
      <trkpt lat="54.17245" lon="24.19971">
        <ele>129.124891</ele>
        <time>2020-10-06T22:05:50.557Z</time>
      </trkpt>
      <trkpt lat="54.17252" lon="24.1995">
        <ele>129.183704</ele>
        <time>2020-10-06T22:05:55.946Z</time>
      </trkpt>
      <trkpt lat="54.17248" lon="24.19926">
        <ele>129.245657</ele>
        <time>2020-10-06T22:06:01.606Z</time>
      </trkpt>
      <trkpt lat="54.17234" lon="24.19904">
        <ele>129.342492</ele>
        <time>2020-10-06T22:06:09.101Z</time>
      </trkpt>
      <trkpt lat="54.17093" lon="24.1971">
        <ele>130.275925</ele>
        <time>2020-10-06T22:07:20.519Z</time>
      </trkpt>
      <trkpt lat="54.17028" lon="24.19617">
        <ele>130.018153</ele>
        <time>2020-10-06T22:07:53.786Z</time>
      </trkpt>
      <trkpt lat="54.16953" lon="24.19511">
        <ele>129.452834</ele>
        <time>2020-10-06T22:08:26.771Z</time>
      </trkpt>
      <trkpt lat="54.16943" lon="24.19498">
        <ele>129.167428</ele>
        <time>2020-10-06T22:08:30.635Z</time>
      </trkpt>
      <trkpt lat="54.16903" lon="24.19445">
        <ele>128.016376</ele>
        <time>2020-10-06T22:08:46.705Z</time>
      </trkpt>
      <trkpt lat="54.16877" lon="24.19416">
        <ele>127.31719</ele>
        <time>2020-10-06T22:08:56.145Z</time>
      </trkpt>
      <trkpt lat="54.16864" lon="24.19402">
        <ele>126.973426</ele>
        <time>2020-10-06T22:09:00.749Z</time>
      </trkpt>
      <trkpt lat="54.1685" lon="24.19386">
        <ele>126.586998</ele>
        <time>2020-10-06T22:09:05.756Z</time>
      </trkpt>
      <trkpt lat="54.16751" lon="24.19267">
        <ele>124.358819</ele>
        <time>2020-10-06T22:09:42.524Z</time>
      </trkpt>
      <trkpt lat="54.16746" lon="24.19261">
        <ele>124.268172</ele>
        <time>2020-10-06T22:09:44.253Z</time>
      </trkpt>
      <trkpt lat="54.16728" lon="24.19235">
        <ele>123.878866</ele>
        <time>2020-10-06T22:09:52.471Z</time>
      </trkpt>
      <trkpt lat="54.167" lon="24.19204">
        <ele>123.333163</ele>
        <time>2020-10-06T22:10:04.256Z</time>
      </trkpt>
      <trkpt lat="54.16665" lon="24.19163">
        <ele>122.712564</ele>
        <time>2020-10-06T22:10:19.046Z</time>
      </trkpt>
      <trkpt lat="54.16655" lon="24.19143">
        <ele>122.621364</ele>
        <time>2020-10-06T22:10:24.372Z</time>
      </trkpt>
      <trkpt lat="54.16643" lon="24.19105">
        <ele>122.473224</ele>
        <time>2020-10-06T22:10:32.876Z</time>
      </trkpt>
      <trkpt lat="54.1664" lon="24.19093">
        <ele>122.426952</ele>
        <time>2020-10-06T22:10:35.620Z</time>
      </trkpt>
      <trkpt lat="54.16625" lon="24.19045">
        <ele>122.238537</ele>
        <time>2020-10-06T22:10:46.820Z</time>
      </trkpt>
      <trkpt lat="54.1661" lon="24.18997">
        <ele>122.047414</ele>
        <time>2020-10-06T22:10:58.011Z</time>
      </trkpt>
      <trkpt lat="54.16599" lon="24.18963">
        <ele>121.912363</ele>
        <time>2020-10-06T22:11:06.365Z</time>
      </trkpt>
      <trkpt lat="54.16584" lon="24.18928">
        <ele>121.759766</ele>
        <time>2020-10-06T22:11:15.513Z</time>
      </trkpt>
      <trkpt lat="54.16576" lon="24.18911">
        <ele>121.686799</ele>
        <time>2020-10-06T22:11:19.761Z</time>
      </trkpt>
      <trkpt lat="54.16543" lon="24.18805">
        <ele>120.899114</ele>
        <time>2020-10-06T22:11:43.954Z</time>
      </trkpt>
      <trkpt lat="54.16541" lon="24.18799">
        <ele>120.85598</ele>
        <time>2020-10-06T22:11:45.130Z</time>
      </trkpt>
      <trkpt lat="54.16534" lon="24.18734">
        <ele>120.420022</ele>
        <time>2020-10-06T22:11:58.293Z</time>
      </trkpt>
      <trkpt lat="54.1651" lon="24.18669">
        <ele>119.919247</ele>
        <time>2020-10-06T22:12:13.125Z</time>
      </trkpt>
      <trkpt lat="54.16497" lon="24.18596">
        <ele>119.179893</ele>
        <time>2020-10-06T22:12:27.708Z</time>
      </trkpt>
      <trkpt lat="54.16485" lon="24.18549">
        <ele>118.531499</ele>
        <time>2020-10-06T22:12:37.190Z</time>
      </trkpt>
      <trkpt lat="54.16467" lon="24.18546">
        <ele>118.147055</ele>
        <time>2020-10-06T22:12:40.495Z</time>
      </trkpt>
      <trkpt lat="54.16447" lon="24.18542">
        <ele>117.713802</ele>
        <time>2020-10-06T22:12:44.146Z</time>
      </trkpt>
      <trkpt lat="54.16376" lon="24.18523">
        <ele>116.169483</ele>
        <time>2020-10-06T22:12:57.184Z</time>
      </trkpt>
      <trkpt lat="54.16306" lon="24.18503">
        <ele>114.178308</ele>
        <time>2020-10-06T22:13:09.359Z</time>
      </trkpt>
      <trkpt lat="54.16312" lon="24.18467">
        <ele>113.523533</ele>
        <time>2020-10-06T22:13:13.034Z</time>
      </trkpt>
      <trkpt lat="54.16318" lon="24.18425">
        <ele>112.751377</ele>
        <time>2020-10-06T22:13:17.120Z</time>
      </trkpt>
      <trkpt lat="54.16324" lon="24.18395">
        <ele>112.194863</ele>
        <time>2020-10-06T22:13:20.106Z</time>
      </trkpt>
      <trkpt lat="54.16332" lon="24.18353">
        <ele>111.416386</ele>
        <time>2020-10-06T22:13:24.492Z</time>
      </trkpt>
      <trkpt lat="54.16336" lon="24.18336">
        <ele>111.081559</ele>
        <time>2020-10-06T22:13:26.224Z</time>
      </trkpt>
      <trkpt lat="54.16339" lon="24.18295">
        <ele>110.350749</ele>
        <time>2020-10-06T22:13:30.413Z</time>
      </trkpt>
      <trkpt lat="54.16338" lon="24.18279">
        <ele>110.063883</ele>
        <time>2020-10-06T22:13:31.796Z</time>
      </trkpt>
      <trkpt lat="54.16337" lon="24.18267">
        <ele>109.821615</ele>
        <time>2020-10-06T22:13:32.932Z</time>
      </trkpt>
      <trkpt lat="54.16309" lon="24.18196">
        <ele>108.227993</ele>
        <time>2020-10-06T22:13:41.372Z</time>
      </trkpt>
      <trkpt lat="54.1625" lon="24.1812">
        <ele>105.846591</ele>
        <time>2020-10-06T22:13:53.634Z</time>
      </trkpt>
      <trkpt lat="54.16242" lon="24.1811">
        <ele>105.51951</ele>
        <time>2020-10-06T22:13:55.217Z</time>
      </trkpt>
      <trkpt lat="54.16233" lon="24.18094">
        <ele>105.117378</ele>
        <time>2020-10-06T22:13:57.154Z</time>
      </trkpt>
      <trkpt lat="54.16217" lon="24.18054">
        <ele>103.994465</ele>
        <time>2020-10-06T22:14:01.742Z</time>
      </trkpt>
      <trkpt lat="54.16196" lon="24.17966">
        <ele>101.200579</ele>
        <time>2020-10-06T22:14:10.607Z</time>
      </trkpt>
      <trkpt lat="54.16192" lon="24.17958">
        <ele>100.905109</ele>
        <time>2020-10-06T22:14:11.485Z</time>
      </trkpt>
      <trkpt lat="54.16188" lon="24.1795">
        <ele>100.586475</ele>
        <time>2020-10-06T22:14:12.450Z</time>
      </trkpt>
      <trkpt lat="54.16178" lon="24.17939">
        <ele>100.001369</ele>
        <time>2020-10-06T22:14:14.234Z</time>
      </trkpt>
      <trkpt lat="54.16159" lon="24.17935">
        <ele>99.048379</ele>
        <time>2020-10-06T22:14:17.173Z</time>
      </trkpt>
      <trkpt lat="54.16153" lon="24.17936">
        <ele>98.717002</ele>
        <time>2020-10-06T22:14:18.178Z</time>
      </trkpt>
      <trkpt lat="54.16105" lon="24.17941">
        <ele>96.321601</ele>
        <time>2020-10-06T22:14:25.157Z</time>
      </trkpt>
      <trkpt lat="54.16047" lon="24.17935">
        <ele>92.676697</ele>
        <time>2020-10-06T22:14:33.503Z</time>
      </trkpt>
      <trkpt lat="54.16001" lon="24.17921">
        <ele>89.547498</ele>
        <time>2020-10-06T22:14:40.295Z</time>
      </trkpt>
      <trkpt lat="54.15987" lon="24.17919">
        <ele>88.644248</ele>
        <time>2020-10-06T22:14:42.156Z</time>
      </trkpt>
      <trkpt lat="54.15979" lon="24.17921">
        <ele>88.121847</ele>
        <time>2020-10-06T22:14:43.286Z</time>
      </trkpt>
      <trkpt lat="54.1596" lon="24.1793">
        <ele>86.781906</ele>
        <time>2020-10-06T22:14:46.234Z</time>
      </trkpt>
      <trkpt lat="54.15939" lon="24.17961">
        <ele>84.902351</ele>
        <time>2020-10-06T22:14:50.384Z</time>
      </trkpt>
      <trkpt lat="54.15936" lon="24.17966">
        <ele>84.648508</ele>
        <time>2020-10-06T22:14:50.919Z</time>
      </trkpt>
      <trkpt lat="54.15926" lon="24.17986">
        <ele>83.608033</ele>
        <time>2020-10-06T22:14:53.111Z</time>
      </trkpt>
      <trkpt lat="54.15884" lon="24.18064">
        <ele>81.347332</ele>
        <time>2020-10-06T22:15:02.267Z</time>
      </trkpt>
      <trkpt lat="54.1587" lon="24.18092">
        <ele>80.549984</ele>
        <time>2020-10-06T22:15:05.540Z</time>
      </trkpt>
      <trkpt lat="54.15862" lon="24.18105">
        <ele>80.15867</ele>
        <time>2020-10-06T22:15:07.297Z</time>
      </trkpt>
      <trkpt lat="54.15853" lon="24.18116">
        <ele>79.751332</ele>
        <time>2020-10-06T22:15:09.206Z</time>
      </trkpt>
      <trkpt lat="54.15846" lon="24.18121">
        <ele>79.455676</ele>
        <time>2020-10-06T22:15:10.534Z</time>
      </trkpt>
      <trkpt lat="54.1584" lon="24.18123">
        <ele>79.225843</ele>
        <time>2020-10-06T22:15:11.545Z</time>
      </trkpt>
      <trkpt lat="54.15822" lon="24.18116">
        <ele>78.579748</ele>
        <time>2020-10-06T22:15:14.556Z</time>
      </trkpt>
      <trkpt lat="54.15816" lon="24.18109">
        <ele>78.315565</ele>
        <time>2020-10-06T22:15:15.706Z</time>
      </trkpt>
      <trkpt lat="54.15657" lon="24.1791">
        <ele>77.102358</ele>
        <time>2020-10-06T22:15:57.787Z</time>
      </trkpt>
      <trkpt lat="54.15603" lon="24.17844">
        <ele>78.30554</ele>
        <time>2020-10-06T22:16:18.415Z</time>
      </trkpt>
      <trkpt lat="54.15434" lon="24.17629">
        <ele>83.724111</ele>
        <time>2020-10-06T22:17:29.995Z</time>
      </trkpt>
      <trkpt lat="54.15365" lon="24.17528">
        <ele>86.133607</ele>
        <time>2020-10-06T22:17:59.667Z</time>
      </trkpt>
      <trkpt lat="54.15331" lon="24.17461">
        <ele>87.287565</ele>
        <time>2020-10-06T22:18:15.233Z</time>
      </trkpt>
      <trkpt lat="54.15318" lon="24.17428">
        <ele>87.785595</ele>
        <time>2020-10-06T22:18:22.828Z</time>
      </trkpt>
      <trkpt lat="54.15302" lon="24.17388">
        <ele>88.381533</ele>
        <time>2020-10-06T22:18:31.427Z</time>
      </trkpt>
      <trkpt lat="54.15289" lon="24.17347">
        <ele>88.976902</ele>
        <time>2020-10-06T22:18:40.069Z</time>
      </trkpt>
      <trkpt lat="54.15262" lon="24.17235">
        <ele>90.405934</ele>
        <time>2020-10-06T22:19:01.555Z</time>
      </trkpt>
      <trkpt lat="54.15256" lon="24.17198">
        <ele>90.742695</ele>
        <time>2020-10-06T22:19:08.422Z</time>
      </trkpt>
      <trkpt lat="54.15255" lon="24.17185">
        <ele>90.860916</ele>
        <time>2020-10-06T22:19:10.512Z</time>
      </trkpt>
      <trkpt lat="54.15246" lon="24.17101">
        <ele>91.610656</ele>
        <time>2020-10-06T22:19:24.532Z</time>
      </trkpt>
      <trkpt lat="54.15241" lon="24.17003">
        <ele>92.473799</ele>
        <time>2020-10-06T22:19:40.974Z</time>
      </trkpt>
      <trkpt lat="54.15218" lon="24.16306">
        <ele>96.618434</ele>
        <time>2020-10-06T22:21:27.597Z</time>
      </trkpt>
      <trkpt lat="54.15189" lon="24.15465">
        <ele>101.40251</ele>
        <time>2020-10-06T22:23:37.936Z</time>
      </trkpt>
      <trkpt lat="54.15174" lon="24.15002">
        <ele>102.447139</ele>
        <time>2020-10-06T22:24:42.896Z</time>
      </trkpt>
      <trkpt lat="54.15161" lon="24.14644">
        <ele>102.293217</ele>
        <time>2020-10-06T22:25:28.226Z</time>
      </trkpt>
      <trkpt lat="54.15156" lon="24.14521">
        <ele>102.150836</ele>
        <time>2020-10-06T22:25:43.459Z</time>
      </trkpt>
      <trkpt lat="54.15154" lon="24.14454">
        <ele>102.195333</ele>
        <time>2020-10-06T22:25:51.940Z</time>
      </trkpt>
      <trkpt lat="54.15146" lon="24.14232">
        <ele>102.5413</ele>
        <time>2020-10-06T22:26:22.436Z</time>
      </trkpt>
      <trkpt lat="54.15141" lon="24.14066">
        <ele>103.400761</ele>
        <time>2020-10-06T22:26:47.784Z</time>
      </trkpt>
      <trkpt lat="54.15142" lon="24.13934">
        <ele>104.230364</ele>
        <time>2020-10-06T22:27:09.040Z</time>
      </trkpt>
      <trkpt lat="54.15186" lon="24.13504">
        <ele>107.264817</ele>
        <time>2020-10-06T22:28:18.127Z</time>
      </trkpt>
      <trkpt lat="54.15186" lon="24.13474">
        <ele>107.472776</ele>
        <time>2020-10-06T22:28:22.608Z</time>
      </trkpt>
      <trkpt lat="54.15184" lon="24.13447">
        <ele>107.663328</ele>
        <time>2020-10-06T22:28:27.177Z</time>
      </trkpt>
      <trkpt lat="54.1518" lon="24.13417">
        <ele>107.881339</ele>
        <time>2020-10-06T22:28:31.915Z</time>
      </trkpt>
      <trkpt lat="54.15152" lon="24.13258">
        <ele>109.075242</ele>
        <time>2020-10-06T22:28:58.432Z</time>
      </trkpt>
      <trkpt lat="54.14921" lon="24.11862">
        <ele>121.872904</ele>
        <time>2020-10-06T22:32:58.186Z</time>
      </trkpt>
      <trkpt lat="54.14823" lon="24.11269">
        <ele>128.828114</ele>
        <time>2020-10-06T22:34:51.486Z</time>
      </trkpt>
      <trkpt lat="54.14761" lon="24.10891">
        <ele>128.316316</ele>
        <time>2020-10-06T22:35:38.431Z</time>
      </trkpt>
      <trkpt lat="54.14719" lon="24.10639">
        <ele>126.704862</ele>
        <time>2020-10-06T22:36:07.528Z</time>
      </trkpt>
      <trkpt lat="54.14688" lon="24.10453">
        <ele>125.972282</ele>
        <time>2020-10-06T22:36:30.056Z</time>
      </trkpt>
      <trkpt lat="54.14547" lon="24.09605">
        <ele>125.070818</ele>
        <time>2020-10-06T22:38:20.333Z</time>
      </trkpt>
      <trkpt lat="54.14486" lon="24.09237">
        <ele>126.878794</ele>
        <time>2020-10-06T22:39:21.704Z</time>
      </trkpt>
      <trkpt lat="54.14431" lon="24.08912">
        <ele>128.023593</ele>
        <time>2020-10-06T22:40:09.252Z</time>
      </trkpt>
      <trkpt lat="54.14335" lon="24.08334">
        <ele>129.230576</ele>
        <time>2020-10-06T22:41:31.591Z</time>
      </trkpt>
      <trkpt lat="54.14259" lon="24.0788">
        <ele>131.02798</ele>
        <time>2020-10-06T22:42:42.652Z</time>
      </trkpt>
      <trkpt lat="54.14254" lon="24.07849">
        <ele>131.064933</ele>
        <time>2020-10-06T22:42:47.436Z</time>
      </trkpt>
      <trkpt lat="54.14093" lon="24.06877">
        <ele>132.040841</ele>
        <time>2020-10-06T22:45:01.708Z</time>
      </trkpt>
      <trkpt lat="54.14029" lon="24.06499">
        <ele>132.237682</ele>
        <time>2020-10-06T22:45:52.846Z</time>
      </trkpt>
      <trkpt lat="54.13907" lon="24.05771">
        <ele>136.201907</ele>
        <time>2020-10-06T22:47:48.221Z</time>
      </trkpt>
      <trkpt lat="54.1389" lon="24.05671">
        <ele>136.848149</ele>
        <time>2020-10-06T22:48:04.467Z</time>
      </trkpt>
      <trkpt lat="54.13888" lon="24.05656">
        <ele>136.940637</ele>
        <time>2020-10-06T22:48:06.802Z</time>
      </trkpt>
      <trkpt lat="54.13881" lon="24.05614">
        <ele>137.215434</ele>
        <time>2020-10-06T22:48:13.748Z</time>
      </trkpt>
      <trkpt lat="54.13825" lon="24.05282">
        <ele>139.53402</ele>
        <time>2020-10-06T22:49:08.474Z</time>
      </trkpt>
      <trkpt lat="54.13771" lon="24.04958">
        <ele>141.296851</ele>
        <time>2020-10-06T22:50:00.382Z</time>
      </trkpt>
      <trkpt lat="54.13754" lon="24.04859">
        <ele>141.564241</ele>
        <time>2020-10-06T22:50:15.169Z</time>
      </trkpt>
      <trkpt lat="54.13644" lon="24.04199">
        <ele>141.949309</ele>
        <time>2020-10-06T22:51:45.689Z</time>
      </trkpt>
      <trkpt lat="54.1345" lon="24.03038">
        <ele>138.850071</ele>
        <time>2020-10-06T22:54:14.880Z</time>
      </trkpt>
      <trkpt lat="54.13447" lon="24.0302">
        <ele>138.751079</ele>
        <time>2020-10-06T22:54:16.759Z</time>
      </trkpt>
      <trkpt lat="54.13439" lon="24.02967">
        <ele>138.440048</ele>
        <time>2020-10-06T22:54:22.531Z</time>
      </trkpt>
      <trkpt lat="54.13434" lon="24.02915">
        <ele>137.841733</ele>
        <time>2020-10-06T22:54:27.813Z</time>
      </trkpt>
      <trkpt lat="54.13428" lon="24.02632">
        <ele>133.513913</ele>
        <time>2020-10-06T22:54:55.499Z</time>
      </trkpt>
      <trkpt lat="54.13423" lon="24.02573">
        <ele>132.988739</ele>
        <time>2020-10-06T22:55:01.443Z</time>
      </trkpt>
      <trkpt lat="54.13403" lon="24.02433">
        <ele>131.723261</ele>
        <time>2020-10-06T22:55:16.416Z</time>
      </trkpt>
      <trkpt lat="54.13348" lon="24.02057">
        <ele>131.001872</ele>
        <time>2020-10-06T22:56:06.183Z</time>
      </trkpt>
      <trkpt lat="54.13299" lon="24.01729">
        <ele>133.625279</ele>
        <time>2020-10-06T22:57:01.343Z</time>
      </trkpt>
      <trkpt lat="54.1328" lon="24.0166">
        <ele>134.698093</ele>
        <time>2020-10-06T22:57:15.147Z</time>
      </trkpt>
      <trkpt lat="54.13271" lon="24.01638">
        <ele>135.077606</ele>
        <time>2020-10-06T22:57:20.239Z</time>
      </trkpt>
      <trkpt lat="54.13196" lon="24.01453">
        <ele>137.996506</ele>
        <time>2020-10-06T22:58:04.233Z</time>
      </trkpt>
      <trkpt lat="54.13178" lon="24.01403">
        <ele>138.428695</ele>
        <time>2020-10-06T22:58:15.068Z</time>
      </trkpt>
      <trkpt lat="54.13172" lon="24.01374">
        <ele>138.662083</ele>
        <time>2020-10-06T22:58:21.223Z</time>
      </trkpt>
      <trkpt lat="54.13073" lon="24.00786">
        <ele>141.197482</ele>
        <time>2020-10-06T22:59:45.426Z</time>
      </trkpt>
      <trkpt lat="54.13039" lon="24.00587">
        <ele>142.481396</ele>
        <time>2020-10-06T23:00:18.733Z</time>
      </trkpt>
      <trkpt lat="54.1298" lon="24.0024">
        <ele>145.998873</ele>
        <time>2020-10-06T23:01:22.753Z</time>
      </trkpt>
      <trkpt lat="54.12841" lon="23.99413">
        <ele>150.702294</ele>
        <time>2020-10-06T23:03:32.749Z</time>
      </trkpt>
      <trkpt lat="54.12821" lon="23.99316">
        <ele>150.817121</ele>
        <time>2020-10-06T23:03:46.764Z</time>
      </trkpt>
      <trkpt lat="54.12801" lon="23.99252">
        <ele>150.898796</ele>
        <time>2020-10-06T23:03:56.530Z</time>
      </trkpt>
      <trkpt lat="54.12509" lon="23.98399">
        <ele>150.160216</ele>
        <time>2020-10-06T23:06:03.245Z</time>
      </trkpt>
      <trkpt lat="54.12378" lon="23.98018">
        <ele>148.373247</ele>
        <time>2020-10-06T23:06:52.446Z</time>
      </trkpt>
      <trkpt lat="54.12101" lon="23.97214">
        <ele>151.089349</ele>
        <time>2020-10-06T23:09:08.892Z</time>
      </trkpt>
      <trkpt lat="54.12015" lon="23.96963">
        <ele>151.524981</ele>
        <time>2020-10-06T23:09:51.813Z</time>
      </trkpt>
      <trkpt lat="54.1182" lon="23.96396">
        <ele>147.092093</ele>
        <time>2020-10-06T23:11:04.117Z</time>
      </trkpt>
      <trkpt lat="54.11625" lon="23.95828">
        <ele>140.996791</ele>
        <time>2020-10-06T23:12:13.441Z</time>
      </trkpt>
      <trkpt lat="54.11413" lon="23.95211">
        <ele>137.707617</ele>
        <time>2020-10-06T23:13:37.985Z</time>
      </trkpt>
      <trkpt lat="54.11207" lon="23.94617">
        <ele>135.272698</ele>
        <time>2020-10-06T23:14:59.856Z</time>
      </trkpt>
      <trkpt lat="54.11057" lon="23.94185">
        <ele>134.933102</ele>
        <time>2020-10-06T23:16:04.209Z</time>
      </trkpt>
      <trkpt lat="54.11" lon="23.94022">
        <ele>134.998086</ele>
        <time>2020-10-06T23:16:30.038Z</time>
      </trkpt>
      <trkpt lat="54.10889" lon="23.93699">
        <ele>135.757801</ele>
        <time>2020-10-06T23:17:19.216Z</time>
      </trkpt>
      <trkpt lat="54.10792" lon="23.93419">
        <ele>138.235672</ele>
        <time>2020-10-06T23:18:13.230Z</time>
      </trkpt>
      <trkpt lat="54.10635" lon="23.92968">
        <ele>142.578674</ele>
        <time>2020-10-06T23:19:47.552Z</time>
      </trkpt>
      <trkpt lat="54.1041" lon="23.92314">
        <ele>138.603784</ele>
        <time>2020-10-06T23:21:12.642Z</time>
      </trkpt>
      <trkpt lat="54.10392" lon="23.92233">
        <ele>137.135884</ele>
        <time>2020-10-06T23:21:20.633Z</time>
      </trkpt>
      <trkpt lat="54.10391" lon="23.92157">
        <ele>135.290664</ele>
        <time>2020-10-06T23:21:27.566Z</time>
      </trkpt>
      <trkpt lat="54.10395" lon="23.92128">
        <ele>134.568928</ele>
        <time>2020-10-06T23:21:30.299Z</time>
      </trkpt>
      <trkpt lat="54.10402" lon="23.92091">
        <ele>133.619916</ele>
        <time>2020-10-06T23:21:33.752Z</time>
      </trkpt>
      <trkpt lat="54.10445" lon="23.91878">
        <ele>129.675477</ele>
        <time>2020-10-06T23:21:54.259Z</time>
      </trkpt>
      <trkpt lat="54.10449" lon="23.91832">
        <ele>129.20233</ele>
        <time>2020-10-06T23:21:58.928Z</time>
      </trkpt>
      <trkpt lat="54.10445" lon="23.91785">
        <ele>128.72842</ele>
        <time>2020-10-06T23:22:04.151Z</time>
      </trkpt>
      <trkpt lat="54.10174" lon="23.90335">
        <ele>135.702093</ele>
        <time>2020-10-06T23:26:04.029Z</time>
      </trkpt>
      <trkpt lat="54.10094" lon="23.89915">
        <ele>131.90127</ele>
        <time>2020-10-06T23:26:49.440Z</time>
      </trkpt>
      <trkpt lat="54.10076" lon="23.89823">
        <ele>131.304529</ele>
        <time>2020-10-06T23:26:59.795Z</time>
      </trkpt>
      <trkpt lat="54.10057" lon="23.89724">
        <ele>130.662179</ele>
        <time>2020-10-06T23:27:11.582Z</time>
      </trkpt>
      <trkpt lat="54.09968" lon="23.89365">
        <ele>129.697261</ele>
        <time>2020-10-06T23:28:00.674Z</time>
      </trkpt>
      <trkpt lat="54.09918" lon="23.89163">
        <ele>129.296708</ele>
        <time>2020-10-06T23:28:28.440Z</time>
      </trkpt>
      <trkpt lat="54.09862" lon="23.88936">
        <ele>128.560481</ele>
        <time>2020-10-06T23:28:58.120Z</time>
      </trkpt>
      <trkpt lat="54.09793" lon="23.88657">
        <ele>127.405152</ele>
        <time>2020-10-06T23:29:33.497Z</time>
      </trkpt>
      <trkpt lat="54.0976" lon="23.88522">
        <ele>126.833942</ele>
        <time>2020-10-06T23:29:50.783Z</time>
      </trkpt>
      <trkpt lat="54.09746" lon="23.88465">
        <ele>126.633627</ele>
        <time>2020-10-06T23:29:58.324Z</time>
      </trkpt>
      <trkpt lat="54.09733" lon="23.88414">
        <ele>126.464343</ele>
        <time>2020-10-06T23:30:05.097Z</time>
      </trkpt>
      <trkpt lat="54.0968" lon="23.88201">
        <ele>125.706931</ele>
        <time>2020-10-06T23:30:33.162Z</time>
      </trkpt>
      <trkpt lat="54.09569" lon="23.8775">
        <ele>123.498239</ele>
        <time>2020-10-06T23:31:29.822Z</time>
      </trkpt>
      <trkpt lat="54.09524" lon="23.87568">
        <ele>122.86072</ele>
        <time>2020-10-06T23:31:53.417Z</time>
      </trkpt>
      <trkpt lat="54.0947" lon="23.87348">
        <ele>122.423003</ele>
        <time>2020-10-06T23:32:23.054Z</time>
      </trkpt>
      <trkpt lat="54.09462" lon="23.87299">
        <ele>122.420449</ele>
        <time>2020-10-06T23:32:29.716Z</time>
      </trkpt>
      <trkpt lat="54.0946" lon="23.87275">
        <ele>122.41919</ele>
        <time>2020-10-06T23:32:33.110Z</time>
      </trkpt>
      <trkpt lat="54.0946" lon="23.87263">
        <ele>122.418562</ele>
        <time>2020-10-06T23:32:34.605Z</time>
      </trkpt>
      <trkpt lat="54.09462" lon="23.87256">
        <ele>122.418196</ele>
        <time>2020-10-06T23:32:35.590Z</time>
      </trkpt>
      <trkpt lat="54.09462" lon="23.87249">
        <ele>122.41783</ele>
        <time>2020-10-06T23:32:36.580Z</time>
      </trkpt>
      <trkpt lat="54.09461" lon="23.87238">
        <ele>122.417268</ele>
        <time>2020-10-06T23:32:38.103Z</time>
      </trkpt>
      <trkpt lat="54.09457" lon="23.87229">
        <ele>122.416706</ele>
        <time>2020-10-06T23:32:39.643Z</time>
      </trkpt>
      <trkpt lat="54.09453" lon="23.87225">
        <ele>122.416345</ele>
        <time>2020-10-06T23:32:40.595Z</time>
      </trkpt>
      <trkpt lat="54.09449" lon="23.87223">
        <ele>122.415973</ele>
        <time>2020-10-06T23:32:41.524Z</time>
      </trkpt>
      <trkpt lat="54.09438" lon="23.872">
        <ele>122.41452</ele>
        <time>2020-10-06T23:32:45.230Z</time>
      </trkpt>
      <trkpt lat="54.09425" lon="23.87162">
        <ele>122.412246</ele>
        <time>2020-10-06T23:32:51.031Z</time>
      </trkpt>
      <trkpt lat="54.09414" lon="23.87114">
        <ele>122.409661</ele>
        <time>2020-10-06T23:32:57.784Z</time>
      </trkpt>
      <trkpt lat="54.09393" lon="23.8703">
        <ele>122.455919</ele>
        <time>2020-10-06T23:33:09.924Z</time>
      </trkpt>
      <trkpt lat="54.09354" lon="23.86873">
        <ele>122.550692</ele>
        <time>2020-10-06T23:33:32.947Z</time>
      </trkpt>
      <trkpt lat="54.09325" lon="23.86753">
        <ele>122.576231</ele>
        <time>2020-10-06T23:33:49.783Z</time>
      </trkpt>
      <trkpt lat="54.09317" lon="23.86723">
        <ele>122.574563</ele>
        <time>2020-10-06T23:33:54.240Z</time>
      </trkpt>
      <trkpt lat="54.0919" lon="23.8621">
        <ele>122.072595</ele>
        <time>2020-10-06T23:35:06.648Z</time>
      </trkpt>
      <trkpt lat="54.09183" lon="23.86182">
        <ele>121.841568</ele>
        <time>2020-10-06T23:35:10.587Z</time>
      </trkpt>
      <trkpt lat="54.09181" lon="23.86174">
        <ele>121.775883</ele>
        <time>2020-10-06T23:35:11.687Z</time>
      </trkpt>
      <trkpt lat="54.09164" lon="23.86108">
        <ele>121.246972</ele>
        <time>2020-10-06T23:35:19.760Z</time>
      </trkpt>
      <trkpt lat="54.09138" lon="23.86009">
        <ele>120.44211</ele>
        <time>2020-10-06T23:35:31.146Z</time>
      </trkpt>
      <trkpt lat="54.0913" lon="23.85983">
        <ele>120.225221</ele>
        <time>2020-10-06T23:35:34.111Z</time>
      </trkpt>
      <trkpt lat="54.09124" lon="23.85969">
        <ele>119.908115</ele>
        <time>2020-10-06T23:35:35.856Z</time>
      </trkpt>
      <trkpt lat="54.09115" lon="23.85948">
        <ele>119.36629</ele>
        <time>2020-10-06T23:35:38.509Z</time>
      </trkpt>
      <trkpt lat="54.09099" lon="23.85917">
        <ele>118.518593</ele>
        <time>2020-10-06T23:35:42.458Z</time>
      </trkpt>
      <trkpt lat="54.08996" lon="23.85749">
        <ele>113.506027</ele>
        <time>2020-10-06T23:36:04.959Z</time>
      </trkpt>
      <trkpt lat="54.08959" lon="23.85676">
        <ele>111.590305</ele>
        <time>2020-10-06T23:36:13.770Z</time>
      </trkpt>
      <trkpt lat="54.08932" lon="23.85591">
        <ele>109.693312</ele>
        <time>2020-10-06T23:36:22.575Z</time>
      </trkpt>
      <trkpt lat="54.08921" lon="23.85518">
        <ele>108.186846</ele>
        <time>2020-10-06T23:36:29.964Z</time>
      </trkpt>
      <trkpt lat="54.08916" lon="23.85474">
        <ele>108.034953</ele>
        <time>2020-10-06T23:36:34.545Z</time>
      </trkpt>
      <trkpt lat="54.08911" lon="23.85395">
        <ele>108.87598</ele>
        <time>2020-10-06T23:36:45.383Z</time>
      </trkpt>
      <trkpt lat="54.08907" lon="23.85345">
        <ele>109.409019</ele>
        <time>2020-10-06T23:36:53.882Z</time>
      </trkpt>
      <trkpt lat="54.08905" lon="23.85314">
        <ele>109.741038</ele>
        <time>2020-10-06T23:36:59.702Z</time>
      </trkpt>
      <trkpt lat="54.089" lon="23.85274">
        <ele>110.166665</ele>
        <time>2020-10-06T23:37:08.041Z</time>
      </trkpt>
      <trkpt lat="54.08895" lon="23.8525">
        <ele>110.43674</ele>
        <time>2020-10-06T23:37:13.198Z</time>
      </trkpt>
      <trkpt lat="54.08889" lon="23.85222">
        <ele>110.750331</ele>
        <time>2020-10-06T23:37:20.200Z</time>
      </trkpt>
      <trkpt lat="54.08882" lon="23.85198">
        <ele>111.067082</ele>
        <time>2020-10-06T23:37:26.835Z</time>
      </trkpt>
      <trkpt lat="54.08876" lon="23.85181">
        <ele>111.683131</ele>
        <time>2020-10-06T23:37:31.872Z</time>
      </trkpt>
      <trkpt lat="54.08863" lon="23.85149">
        <ele>112.841955</ele>
        <time>2020-10-06T23:37:42.140Z</time>
      </trkpt>
      <trkpt lat="54.08836" lon="23.85094">
        <ele>115.008865</ele>
        <time>2020-10-06T23:38:01.708Z</time>
      </trkpt>
      <trkpt lat="54.08788" lon="23.85003">
        <ele>118.732535</ele>
        <time>2020-10-06T23:38:35.224Z</time>
      </trkpt>
      <trkpt lat="54.08745" lon="23.84918">
        <ele>121.077061</ele>
        <time>2020-10-06T23:39:00.823Z</time>
      </trkpt>
      <trkpt lat="54.08603" lon="23.846">
        <ele>124.316618</ele>
        <time>2020-10-06T23:40:05.418Z</time>
      </trkpt>
      <trkpt lat="54.08525" lon="23.84415">
        <ele>123.918055</ele>
        <time>2020-10-06T23:40:31.929Z</time>
      </trkpt>
      <trkpt lat="54.085" lon="23.84359">
        <ele>123.345262</ele>
        <time>2020-10-06T23:40:39.531Z</time>
      </trkpt>
      <trkpt lat="54.08451" lon="23.8428">
        <ele>122.419751</ele>
        <time>2020-10-06T23:40:51.658Z</time>
      </trkpt>
      <trkpt lat="54.08403" lon="23.84233">
        <ele>121.762969</ele>
        <time>2020-10-06T23:41:01.539Z</time>
      </trkpt>
      <trkpt lat="54.08244" lon="23.84098">
        <ele>120.340102</ele>
        <time>2020-10-06T23:41:36.452Z</time>
      </trkpt>
      <trkpt lat="54.08134" lon="23.84002">
        <ele>120.681418</ele>
        <time>2020-10-06T23:42:06.398Z</time>
      </trkpt>
      <trkpt lat="54.07697" lon="23.8362">
        <ele>124.023665</ele>
        <time>2020-10-06T23:44:10.884Z</time>
      </trkpt>
      <trkpt lat="54.06941" lon="23.82971">
        <ele>125.548567</ele>
        <time>2020-10-06T23:47:24.704Z</time>
      </trkpt>
      <trkpt lat="54.06892" lon="23.82909">
        <ele>125.586299</ele>
        <time>2020-10-06T23:47:38.415Z</time>
      </trkpt>
      <trkpt lat="54.06889" lon="23.82905">
        <ele>125.588858</ele>
        <time>2020-10-06T23:47:39.371Z</time>
      </trkpt>
      <trkpt lat="54.06527" lon="23.82449">
        <ele>125.939054</ele>
        <time>2020-10-06T23:49:20.298Z</time>
      </trkpt>
      <trkpt lat="54.06335" lon="23.82196">
        <ele>126.687106</ele>
        <time>2020-10-06T23:50:19.274Z</time>
      </trkpt>
      <trkpt lat="54.06279" lon="23.82124">
        <ele>126.778806</ele>
        <time>2020-10-06T23:50:35.287Z</time>
      </trkpt>
      <trkpt lat="54.05931" lon="23.81683">
        <ele>124.662377</ele>
        <time>2020-10-06T23:52:01.544Z</time>
      </trkpt>
      <trkpt lat="54.0554" lon="23.81188">
        <ele>128.633244</ele>
        <time>2020-10-06T23:54:10.593Z</time>
      </trkpt>
      <trkpt lat="54.04901" lon="23.80366">
        <ele>124.211615</ele>
        <time>2020-10-06T23:56:55.478Z</time>
      </trkpt>
      <trkpt lat="54.048" lon="23.80231">
        <ele>122.260815</ele>
        <time>2020-10-06T23:57:17.661Z</time>
      </trkpt>
      <trkpt lat="54.0478" lon="23.80205">
        <ele>121.837038</ele>
        <time>2020-10-06T23:57:22.039Z</time>
      </trkpt>
      <trkpt lat="54.04717" lon="23.80128">
        <ele>120.554847</ele>
        <time>2020-10-06T23:57:35.505Z</time>
      </trkpt>
      <trkpt lat="54.04092" lon="23.7936">
        <ele>118.666983</ele>
        <time>2020-10-07T00:00:23.634Z</time>
      </trkpt>
      <trkpt lat="54.04073" lon="23.79337">
        <ele>118.612996</ele>
        <time>2020-10-07T00:00:28.144Z</time>
      </trkpt>
      <trkpt lat="54.03979" lon="23.79221">
        <ele>118.342856</ele>
        <time>2020-10-07T00:00:51.546Z</time>
      </trkpt>
      <trkpt lat="54.03723" lon="23.78905">
        <ele>119.679471</ele>
        <time>2020-10-07T00:02:10.557Z</time>
      </trkpt>
      <trkpt lat="54.03408" lon="23.78522">
        <ele>119.681399</ele>
        <time>2020-10-07T00:03:36.010Z</time>
      </trkpt>
      <trkpt lat="54.0322" lon="23.7829">
        <ele>118.966765</ele>
        <time>2020-10-07T00:04:25.160Z</time>
      </trkpt>
      <trkpt lat="54.03103" lon="23.78145">
        <ele>118.158196</ele>
        <time>2020-10-07T00:04:54.733Z</time>
      </trkpt>
      <trkpt lat="54.03076" lon="23.78098">
        <ele>117.937261</ele>
        <time>2020-10-07T00:05:02.407Z</time>
      </trkpt>
      <trkpt lat="54.03064" lon="23.78059">
        <ele>117.635898</ele>
        <time>2020-10-07T00:05:07.540Z</time>
      </trkpt>
      <trkpt lat="54.0303" lon="23.77904">
        <ele>116.513166</ele>
        <time>2020-10-07T00:05:26.139Z</time>
      </trkpt>
      <trkpt lat="54.02992" lon="23.77732">
        <ele>115.32757</ele>
        <time>2020-10-07T00:05:45.962Z</time>
      </trkpt>
      <trkpt lat="54.02962" lon="23.77592">
        <ele>114.414992</ele>
        <time>2020-10-07T00:06:02.469Z</time>
      </trkpt>
      <trkpt lat="54.02839" lon="23.77026">
        <ele>113.688022</ele>
        <time>2020-10-07T00:07:19.149Z</time>
      </trkpt>
      <trkpt lat="54.0261" lon="23.75976">
        <ele>118.657206</ele>
        <time>2020-10-07T00:10:07.272Z</time>
      </trkpt>
      <trkpt lat="54.02519" lon="23.75557">
        <ele>120.356325</ele>
        <time>2020-10-07T00:11:13.403Z</time>
      </trkpt>
      <trkpt lat="54.02452" lon="23.75251">
        <ele>120.551124</ele>
        <time>2020-10-07T00:11:55.889Z</time>
      </trkpt>
      <trkpt lat="54.02387" lon="23.74951">
        <ele>120.657097</ele>
        <time>2020-10-07T00:12:39.095Z</time>
      </trkpt>
      <trkpt lat="54.0233" lon="23.74694">
        <ele>120.271471</ele>
        <time>2020-10-07T00:13:12.664Z</time>
      </trkpt>
      <trkpt lat="54.02227" lon="23.74219">
        <ele>120.57467</ele>
        <time>2020-10-07T00:14:20.933Z</time>
      </trkpt>
      <trkpt lat="54.02221" lon="23.74195">
        <ele>120.595809</ele>
        <time>2020-10-07T00:14:24.421Z</time>
      </trkpt>
      <trkpt lat="54.02143" lon="23.73836">
        <ele>120.829019</ele>
        <time>2020-10-07T00:15:15.669Z</time>
      </trkpt>
      <trkpt lat="54.02066" lon="23.73483">
        <ele>120.644271</ele>
        <time>2020-10-07T00:16:04.019Z</time>
      </trkpt>
      <trkpt lat="54.02024" lon="23.73292">
        <ele>120.2993</ele>
        <time>2020-10-07T00:16:29.968Z</time>
      </trkpt>
      <trkpt lat="54.01974" lon="23.73062">
        <ele>120.033151</ele>
        <time>2020-10-07T00:16:59.730Z</time>
      </trkpt>
      <trkpt lat="54.01934" lon="23.72879">
        <ele>120.42248</ele>
        <time>2020-10-07T00:17:25.883Z</time>
      </trkpt>
      <trkpt lat="54.01907" lon="23.72754">
        <ele>121.544708</ele>
        <time>2020-10-07T00:17:47.028Z</time>
      </trkpt>
      <trkpt lat="54.01889" lon="23.72701">
        <ele>122.054363</ele>
        <time>2020-10-07T00:17:57.992Z</time>
      </trkpt>
      <trkpt lat="54.01859" lon="23.72646">
        <ele>122.822439</ele>
        <time>2020-10-07T00:18:12.811Z</time>
      </trkpt>
      <trkpt lat="54.01749" lon="23.72476">
        <ele>126.476716</ele>
        <time>2020-10-07T00:19:02.769Z</time>
      </trkpt>
      <trkpt lat="54.016" lon="23.72247">
        <ele>128.38099</ele>
        <time>2020-10-07T00:19:55.733Z</time>
      </trkpt>
      <trkpt lat="54.00829" lon="23.7105">
        <ele>112.799998</ele>
        <time>2020-10-07T00:23:06.259Z</time>
      </trkpt>
      <trkpt lat="54.00807" lon="23.71013">
        <ele>112.351195</ele>
        <time>2020-10-07T00:23:12.212Z</time>
      </trkpt>
      <trkpt lat="54.00787" lon="23.70975">
        <ele>112.169406</ele>
        <time>2020-10-07T00:23:17.911Z</time>
      </trkpt>
      <trkpt lat="54.00698" lon="23.70749">
        <ele>111.276968</ele>
        <time>2020-10-07T00:23:51.229Z</time>
      </trkpt>
      <trkpt lat="54.00496" lon="23.70235">
        <ele>110.812671</ele>
        <time>2020-10-07T00:25:10.434Z</time>
      </trkpt>
      <trkpt lat="54.00418" lon="23.70033">
        <ele>111.363052</ele>
        <time>2020-10-07T00:25:42.688Z</time>
      </trkpt>
      <trkpt lat="54.00404" lon="23.69997">
        <ele>111.46276</ele>
        <time>2020-10-07T00:25:49.587Z</time>
      </trkpt>
      <trkpt lat="54.00385" lon="23.69942">
        <ele>112.453801</ele>
        <time>2020-10-07T00:26:00.367Z</time>
      </trkpt>
      <trkpt lat="54.00372" lon="23.69874">
        <ele>113.558348</ele>
        <time>2020-10-07T00:26:13.357Z</time>
      </trkpt>
      <trkpt lat="54.00336" lon="23.6953">
        <ele>118.61518</ele>
        <time>2020-10-07T00:27:27.740Z</time>
      </trkpt>
      <trkpt lat="54.00333" lon="23.69502">
        <ele>118.985426</ele>
        <time>2020-10-07T00:27:32.550Z</time>
      </trkpt>
      <trkpt lat="54.00326" lon="23.69442">
        <ele>119.807027</ele>
        <time>2020-10-07T00:27:42.323Z</time>
      </trkpt>
      <trkpt lat="54.00316" lon="23.69403">
        <ele>120.281062</ele>
        <time>2020-10-07T00:27:48.187Z</time>
      </trkpt>
      <trkpt lat="54.00303" lon="23.69383">
        <ele>120.052073</ele>
        <time>2020-10-07T00:27:51.847Z</time>
      </trkpt>
      <trkpt lat="54.00297" lon="23.69375">
        <ele>119.95143</ele>
        <time>2020-10-07T00:27:53.685Z</time>
      </trkpt>
      <trkpt lat="54.00235" lon="23.69328">
        <ele>119.034695</ele>
        <time>2020-10-07T00:28:06.929Z</time>
      </trkpt>
      <trkpt lat="54.00211" lon="23.69311">
        <ele>118.685126</ele>
        <time>2020-10-07T00:28:11.536Z</time>
      </trkpt>
      <trkpt lat="54.00198" lon="23.693">
        <ele>118.485143</ele>
        <time>2020-10-07T00:28:14.128Z</time>
      </trkpt>
      <trkpt lat="54.00167" lon="23.69261">
        <ele>117.964855</ele>
        <time>2020-10-07T00:28:20.651Z</time>
      </trkpt>
      <trkpt lat="54.00145" lon="23.6919">
        <ele>116.951012</ele>
        <time>2020-10-07T00:28:28.482Z</time>
      </trkpt>
      <trkpt lat="54.00142" lon="23.69174">
        <ele>116.739862</ele>
        <time>2020-10-07T00:28:30.022Z</time>
      </trkpt>
      <trkpt lat="54.00122" lon="23.68949">
        <ele>113.769689</ele>
        <time>2020-10-07T00:28:53.700Z</time>
      </trkpt>
      <trkpt lat="54.00111" lon="23.68832">
        <ele>112.514212</ele>
        <time>2020-10-07T00:29:06.776Z</time>
      </trkpt>
      <trkpt lat="54.00085" lon="23.68573">
        <ele>110.121439</ele>
        <time>2020-10-07T00:29:35.733Z</time>
      </trkpt>
      <trkpt lat="54.00079" lon="23.6851">
        <ele>109.724169</ele>
        <time>2020-10-07T00:29:43.247Z</time>
      </trkpt>
      <trkpt lat="54.00071" lon="23.68411">
        <ele>109.114447</ele>
        <time>2020-10-07T00:29:55.250Z</time>
      </trkpt>
      <trkpt lat="54.00068" lon="23.68363">
        <ele>108.8167</ele>
        <time>2020-10-07T00:30:01.247Z</time>
      </trkpt>
      <trkpt lat="54.00067" lon="23.68332">
        <ele>108.806515</ele>
        <time>2020-10-07T00:30:05.248Z</time>
      </trkpt>
      <trkpt lat="54.00055" lon="23.67857">
        <ele>110.030572</ele>
        <time>2020-10-07T00:31:13.210Z</time>
      </trkpt>
      <trkpt lat="54.00051" lon="23.67705">
        <ele>110.637752</ele>
        <time>2020-10-07T00:31:35.737Z</time>
      </trkpt>
      <trkpt lat="54.00027" lon="23.66883">
        <ele>114.483851</ele>
        <time>2020-10-07T00:33:41.002Z</time>
      </trkpt>
      <trkpt lat="54.00016" lon="23.66507">
        <ele>114.010372</ele>
        <time>2020-10-07T00:34:27.689Z</time>
      </trkpt>
      <trkpt lat="54.00011" lon="23.66472">
        <ele>113.820884</ele>
        <time>2020-10-07T00:34:31.812Z</time>
      </trkpt>
      <trkpt lat="54.00008" lon="23.66462">
        <ele>113.764958</ele>
        <time>2020-10-07T00:34:33.036Z</time>
      </trkpt>
      <trkpt lat="53.99945" lon="23.66218">
        <ele>112.387886</ele>
        <time>2020-10-07T00:35:03.310Z</time>
      </trkpt>
      <trkpt lat="53.99934" lon="23.66178">
        <ele>112.199881</ele>
        <time>2020-10-07T00:35:08.460Z</time>
      </trkpt>
      <trkpt lat="53.99833" lon="23.65797">
        <ele>110.346431</ele>
        <time>2020-10-07T00:35:58.107Z</time>
      </trkpt>
      <trkpt lat="53.99822" lon="23.6575">
        <ele>110.113034</ele>
        <time>2020-10-07T00:36:03.895Z</time>
      </trkpt>
      <trkpt lat="53.99816" lon="23.65683">
        <ele>109.79272</ele>
        <time>2020-10-07T00:36:11.746Z</time>
      </trkpt>
      <trkpt lat="53.99818" lon="23.65632">
        <ele>109.507794</ele>
        <time>2020-10-07T00:36:17.537Z</time>
      </trkpt>
      <trkpt lat="53.99819" lon="23.65573">
        <ele>109.16799</ele>
        <time>2020-10-07T00:36:24.136Z</time>
      </trkpt>
      <trkpt lat="53.99828" lon="23.65504">
        <ele>108.755261</ele>
        <time>2020-10-07T00:36:32.030Z</time>
      </trkpt>
      <trkpt lat="53.9985" lon="23.65318">
        <ele>107.778647</ele>
        <time>2020-10-07T00:36:53.879Z</time>
      </trkpt>
      <trkpt lat="53.99855" lon="23.65268">
        <ele>107.601511</ele>
        <time>2020-10-07T00:36:59.619Z</time>
      </trkpt>
      <trkpt lat="53.99862" lon="23.65217">
        <ele>107.419737</ele>
        <time>2020-10-07T00:37:05.847Z</time>
      </trkpt>
      <trkpt lat="53.99891" lon="23.65232">
        <ele>107.24133</ele>
        <time>2020-10-07T00:37:11.977Z</time>
      </trkpt>
      <trkpt lat="53.99914" lon="23.65249">
        <ele>107.09098</ele>
        <time>2020-10-07T00:37:17.212Z</time>
      </trkpt>
      <trkpt lat="53.99936" lon="23.65272">
        <ele>106.938641</ele>
        <time>2020-10-07T00:37:22.630Z</time>
      </trkpt>
      <trkpt lat="54.00056" lon="23.65424">
        <ele>107.59098</ele>
        <time>2020-10-07T00:37:56.506Z</time>
      </trkpt>
      <trkpt lat="54.00107" lon="23.6548">
        <ele>108.30756</ele>
        <time>2020-10-07T00:38:13.810Z</time>
      </trkpt>
      <trkpt lat="54.00181" lon="23.65553">
        <ele>110.206006</ele>
        <time>2020-10-07T00:38:42.555Z</time>
      </trkpt>
      <trkpt lat="54.00193" lon="23.65564">
        <ele>110.516536</ele>
        <time>2020-10-07T00:38:47.559Z</time>
      </trkpt>
      <trkpt lat="54.00219" lon="23.65579">
        <ele>111.115466</ele>
        <time>2020-10-07T00:38:55.754Z</time>
      </trkpt>
      <trkpt lat="54.00242" lon="23.65584">
        <ele>111.636764</ele>
        <time>2020-10-07T00:39:03.011Z</time>
      </trkpt>
      <trkpt lat="54.00253" lon="23.65586">
        <ele>111.798472</ele>
        <time>2020-10-07T00:39:06.201Z</time>
      </trkpt>
      <trkpt lat="54.0028" lon="23.65589">
        <ele>111.919017</ele>
        <time>2020-10-07T00:39:14.005Z</time>
      </trkpt>
      <trkpt lat="54.00331" lon="23.65594">
        <ele>112.148021</ele>
        <time>2020-10-07T00:39:28.052Z</time>
      </trkpt>
      <trkpt lat="54.00346" lon="23.65593">
        <ele>112.214692</ele>
        <time>2020-10-07T00:39:31.772Z</time>
      </trkpt>
      <trkpt lat="54.00353" lon="23.65587">
        <ele>112.250437</ele>
        <time>2020-10-07T00:39:33.149Z</time>
      </trkpt>
      <trkpt lat="54.00365" lon="23.6556">
        <ele>112.340538</ele>
        <time>2020-10-07T00:39:38.560Z</time>
      </trkpt>
      <trkpt lat="54.0039" lon="23.65379">
        <ele>112.487746</ele>
        <time>2020-10-07T00:40:00.850Z</time>
      </trkpt>
      <trkpt lat="54.0039" lon="23.65351">
        <ele>112.459684</ele>
        <time>2020-10-07T00:40:03.770Z</time>
      </trkpt>
      <trkpt lat="54.0039" lon="23.65314">
        <ele>112.422995</ele>
        <time>2020-10-07T00:40:08.934Z</time>
      </trkpt>
      <trkpt lat="54.00389" lon="23.65273">
        <ele>112.381012</ele>
        <time>2020-10-07T00:40:14.369Z</time>
      </trkpt>
      <trkpt lat="54.00386" lon="23.65145">
        <ele>112.494038</ele>
        <time>2020-10-07T00:40:33.577Z</time>
      </trkpt>
      <trkpt lat="54.00386" lon="23.65117">
        <ele>112.785593</ele>
        <time>2020-10-07T00:40:38.397Z</time>
      </trkpt>
      <trkpt lat="54.00386" lon="23.65019">
        <ele>113.783031</ele>
        <time>2020-10-07T00:40:56.283Z</time>
      </trkpt>
      <trkpt lat="54.00388" lon="23.64959">
        <ele>114.404494</ele>
        <time>2020-10-07T00:41:07.666Z</time>
      </trkpt>
      <trkpt lat="54.00392" lon="23.64931">
        <ele>114.696339</ele>
        <time>2020-10-07T00:41:13.248Z</time>
      </trkpt>
      <trkpt lat="54.00431" lon="23.64726">
        <ele>116.947664</ele>
        <time>2020-10-07T00:41:52.016Z</time>
      </trkpt>
      <trkpt lat="54.00456" lon="23.64589">
        <ele>118.459744</ele>
        <time>2020-10-07T00:42:17.484Z</time>
      </trkpt>
      <trkpt lat="54.00497" lon="23.64382">
        <ele>120.501896</ele>
        <time>2020-10-07T00:42:55.718Z</time>
      </trkpt>
      <trkpt lat="54.00525" lon="23.64239">
        <ele>121.801583</ele>
        <time>2020-10-07T00:43:21.434Z</time>
      </trkpt>
      <trkpt lat="54.00545" lon="23.64106">
        <ele>122.777194</ele>
        <time>2020-10-07T00:43:44.339Z</time>
      </trkpt>
      <trkpt lat="54.00612" lon="23.63445">
        <ele>126.860474</ele>
        <time>2020-10-07T00:45:32.050Z</time>
      </trkpt>
      <trkpt lat="54.00645" lon="23.63082">
        <ele>127.948085</ele>
        <time>2020-10-07T00:46:27.983Z</time>
      </trkpt>
      <trkpt lat="54.00702" lon="23.62446">
        <ele>124.142711</ele>
        <time>2020-10-07T00:47:42.121Z</time>
      </trkpt>
      <trkpt lat="54.00741" lon="23.62002">
        <ele>126.078795</ele>
        <time>2020-10-07T00:48:56.775Z</time>
      </trkpt>
      <trkpt lat="54.00957" lon="23.60034">
        <ele>124.83433</ele>
        <time>2020-10-07T00:53:23.450Z</time>
      </trkpt>
      <trkpt lat="54.00962" lon="23.59989">
        <ele>124.651152</ele>
        <time>2020-10-07T00:53:29.335Z</time>
      </trkpt>
      <trkpt lat="54.00979" lon="23.59878">
        <ele>124.198905</ele>
        <time>2020-10-07T00:53:43.683Z</time>
      </trkpt>
      <trkpt lat="54.00995" lon="23.59821">
        <ele>123.948832</ele>
        <time>2020-10-07T00:53:51.448Z</time>
      </trkpt>
      <trkpt lat="54.01139" lon="23.59383">
        <ele>119.788557</ele>
        <time>2020-10-07T00:54:49.250Z</time>
      </trkpt>
      <trkpt lat="54.01163" lon="23.59292">
        <ele>118.666313</ele>
        <time>2020-10-07T00:54:59.725Z</time>
      </trkpt>
      <trkpt lat="54.01164" lon="23.59236">
        <ele>118.026806</ele>
        <time>2020-10-07T00:55:05.710Z</time>
      </trkpt>
      <trkpt lat="54.01164" lon="23.59216">
        <ele>117.828365</ele>
        <time>2020-10-07T00:55:07.696Z</time>
      </trkpt>
      <trkpt lat="54.01162" lon="23.59134">
        <ele>117.003195</ele>
        <time>2020-10-07T00:55:16.364Z</time>
      </trkpt>
      <trkpt lat="54.01161" lon="23.59101">
        <ele>116.678944</ele>
        <time>2020-10-07T00:55:19.702Z</time>
      </trkpt>
      <trkpt lat="54.01163" lon="23.59009">
        <ele>115.75734</ele>
        <time>2020-10-07T00:55:29.925Z</time>
      </trkpt>
      <trkpt lat="54.01168" lon="23.58961">
        <ele>115.269097</ele>
        <time>2020-10-07T00:55:35.711Z</time>
      </trkpt>
      <trkpt lat="54.0118" lon="23.58932">
        <ele>114.921932</ele>
        <time>2020-10-07T00:55:40.062Z</time>
      </trkpt>
      <trkpt lat="54.01184" lon="23.58921">
        <ele>115.049526</ele>
        <time>2020-10-07T00:55:41.885Z</time>
      </trkpt>
      <trkpt lat="54.01204" lon="23.58862">
        <ele>115.741532</ele>
        <time>2020-10-07T00:55:51.668Z</time>
      </trkpt>
      <trkpt lat="54.01212" lon="23.58805">
        <ele>116.340749</ele>
        <time>2020-10-07T00:56:01.202Z</time>
      </trkpt>
      <trkpt lat="54.01214" lon="23.58656">
        <ele>117.873541</ele>
        <time>2020-10-07T00:56:31.750Z</time>
      </trkpt>
      <trkpt lat="54.01203" lon="23.58558">
        <ele>118.812702</ele>
        <time>2020-10-07T00:56:53.247Z</time>
      </trkpt>
      <trkpt lat="54.01197" lon="23.58506">
        <ele>119.304502</ele>
        <time>2020-10-07T00:57:04.775Z</time>
      </trkpt>
      <trkpt lat="54.01086" lon="23.57605">
        <ele>125.701437</ele>
        <time>2020-10-07T00:59:33.892Z</time>
      </trkpt>
      <trkpt lat="54.01013" lon="23.57026">
        <ele>123.505707</ele>
        <time>2020-10-07T01:00:46.691Z</time>
      </trkpt>
      <trkpt lat="54.0099" lon="23.56833">
        <ele>121.937797</ele>
        <time>2020-10-07T01:01:08.136Z</time>
      </trkpt>
      <trkpt lat="54.00985" lon="23.56766">
        <ele>121.891124</ele>
        <time>2020-10-07T01:01:15.684Z</time>
      </trkpt>
      <trkpt lat="54.0099" lon="23.56724">
        <ele>121.860605</ele>
        <time>2020-10-07T01:01:21.127Z</time>
      </trkpt>
      <trkpt lat="54.01006" lon="23.56669">
        <ele>121.818017</ele>
        <time>2020-10-07T01:01:29.376Z</time>
      </trkpt>
      <trkpt lat="54.01035" lon="23.56586">
        <ele>121.750268</ele>
        <time>2020-10-07T01:01:43.980Z</time>
      </trkpt>
      <trkpt lat="54.01061" lon="23.56536">
        <ele>122.13936</ele>
        <time>2020-10-07T01:01:55.077Z</time>
      </trkpt>
      <trkpt lat="54.01113" lon="23.56472">
        <ele>123.335438</ele>
        <time>2020-10-07T01:02:14.571Z</time>
      </trkpt>
      <trkpt lat="54.01536" lon="23.56077">
        <ele>131.834354</ele>
        <time>2020-10-07T01:04:39.502Z</time>
      </trkpt>
      <trkpt lat="54.01721" lon="23.55882">
        <ele>131.996049</ele>
        <time>2020-10-07T01:05:27.227Z</time>
      </trkpt>
      <trkpt lat="54.01815" lon="23.55769">
        <ele>131.384008</ele>
        <time>2020-10-07T01:05:50.041Z</time>
      </trkpt>
      <trkpt lat="54.01887" lon="23.55671">
        <ele>130.788062</ele>
        <time>2020-10-07T01:06:08.131Z</time>
      </trkpt>
      <trkpt lat="54.01912" lon="23.55651">
        <ele>130.607807</ele>
        <time>2020-10-07T01:06:13.635Z</time>
      </trkpt>
      <trkpt lat="54.01979" lon="23.55632">
        <ele>130.27441</ele>
        <time>2020-10-07T01:06:27.570Z</time>
      </trkpt>
      <trkpt lat="54.02051" lon="23.55642">
        <ele>130.617354</ele>
        <time>2020-10-07T01:06:43.760Z</time>
      </trkpt>
      <trkpt lat="54.02262" lon="23.55751">
        <ele>132.413089</ele>
        <time>2020-10-07T01:07:41.420Z</time>
      </trkpt>
      <trkpt lat="54.02369" lon="23.55763">
        <ele>133.505096</ele>
        <time>2020-10-07T01:08:10.968Z</time>
      </trkpt>
      <trkpt lat="54.02491" lon="23.55762">
        <ele>134.640543</ele>
        <time>2020-10-07T01:08:42.659Z</time>
      </trkpt>
      <trkpt lat="54.02516" lon="23.55753">
        <ele>134.746844</ele>
        <time>2020-10-07T01:08:48.957Z</time>
      </trkpt>
      <trkpt lat="54.02541" lon="23.55726">
        <ele>134.794761</ele>
        <time>2020-10-07T01:08:55.916Z</time>
      </trkpt>
      <trkpt lat="54.02612" lon="23.55624">
        <ele>134.945396</ele>
        <time>2020-10-07T01:09:16.810Z</time>
      </trkpt>
      <trkpt lat="54.02628" lon="23.55592">
        <ele>134.986068</ele>
        <time>2020-10-07T01:09:22.206Z</time>
      </trkpt>
      <trkpt lat="54.02705" lon="23.55317">
        <ele>135.081491</ele>
        <time>2020-10-07T01:10:01.418Z</time>
      </trkpt>
      <trkpt lat="54.02726" lon="23.55242">
        <ele>135.429753</ele>
        <time>2020-10-07T01:10:13.402Z</time>
      </trkpt>
      <trkpt lat="54.0274" lon="23.55194">
        <ele>135.753558</ele>
        <time>2020-10-07T01:10:21.472Z</time>
      </trkpt>
      <trkpt lat="54.02763" lon="23.55111">
        <ele>136.313796</ele>
        <time>2020-10-07T01:10:36.089Z</time>
      </trkpt>
      <trkpt lat="54.02805" lon="23.55003">
        <ele>137.106592</ele>
        <time>2020-10-07T01:10:57.758Z</time>
      </trkpt>
      <trkpt lat="54.02867" lon="23.54866">
        <ele>138.197523</ele>
        <time>2020-10-07T01:11:25.993Z</time>
      </trkpt>
      <trkpt lat="54.0311" lon="23.5428">
        <ele>140.526573</ele>
        <time>2020-10-07T01:13:07.795Z</time>
      </trkpt>
      <trkpt lat="54.03125" lon="23.54203">
        <ele>140.32289</ele>
        <time>2020-10-07T01:13:18.802Z</time>
      </trkpt>
      <trkpt lat="54.03131" lon="23.5412">
        <ele>140.088965</ele>
        <time>2020-10-07T01:13:29.801Z</time>
      </trkpt>
      <trkpt lat="54.03126" lon="23.53995">
        <ele>139.741784</ele>
        <time>2020-10-07T01:13:44.305Z</time>
      </trkpt>
      <trkpt lat="54.03132" lon="23.539">
        <ele>138.682576</ele>
        <time>2020-10-07T01:13:54.450Z</time>
      </trkpt>
      <trkpt lat="54.03125" lon="23.5381">
        <ele>137.466633</ele>
        <time>2020-10-07T01:14:03.497Z</time>
      </trkpt>
      <trkpt lat="54.03139" lon="23.53783">
        <ele>136.976773</ele>
        <time>2020-10-07T01:14:07.013Z</time>
      </trkpt>
      <trkpt lat="54.0326" lon="23.53639">
        <ele>135.06121</ele>
        <time>2020-10-07T01:14:32.171Z</time>
      </trkpt>
      <trkpt lat="54.03265" lon="23.536">
        <ele>134.918099</ele>
        <time>2020-10-07T01:14:36.941Z</time>
      </trkpt>
      <trkpt lat="54.03254" lon="23.53537">
        <ele>134.680236</ele>
        <time>2020-10-07T01:14:46.119Z</time>
      </trkpt>
      <trkpt lat="54.03252" lon="23.53499">
        <ele>134.543989</ele>
        <time>2020-10-07T01:14:52.684Z</time>
      </trkpt>
      <trkpt lat="54.03261" lon="23.5347">
        <ele>134.853081</ele>
        <time>2020-10-07T01:14:58.973Z</time>
      </trkpt>
      <trkpt lat="54.0328" lon="23.53446">
        <ele>135.649145</ele>
        <time>2020-10-07T01:15:07.431Z</time>
      </trkpt>
      <trkpt lat="54.0335" lon="23.53389">
        <ele>138.240674</ele>
        <time>2020-10-07T01:15:36.282Z</time>
      </trkpt>
      <trkpt lat="54.03403" lon="23.53341">
        <ele>140.264736</ele>
        <time>2020-10-07T01:15:59.503Z</time>
      </trkpt>
      <trkpt lat="54.03413" lon="23.53365">
        <ele>140.73701</ele>
        <time>2020-10-07T01:16:08.233Z</time>
      </trkpt>
      <trkpt lat="54.03403" lon="23.53341">
        <ele>141.134724</ele>
        <time>2020-10-07T01:16:17.104Z</time>
      </trkpt>
      <trkpt lat="54.03425" lon="23.53321">
        <ele>141.712756</ele>
        <time>2020-10-07T01:16:25.765Z</time>
      </trkpt>
      <trkpt lat="54.03488" lon="23.53473">
        <ele>144.263218</ele>
        <time>2020-10-07T01:17:15.475Z</time>
      </trkpt>
      <trkpt lat="54.03522" lon="23.53539">
        <ele>144.942481</ele>
        <time>2020-10-07T01:17:36.257Z</time>
      </trkpt>
      <trkpt lat="54.03576" lon="23.53596">
        <ele>145.395267</ele>
        <time>2020-10-07T01:18:01.729Z</time>
      </trkpt>
      <trkpt lat="54.03659" lon="23.53666">
        <ele>146.009746</ele>
        <time>2020-10-07T01:18:38.130Z</time>
      </trkpt>
      <trkpt lat="54.03762" lon="23.5374">
        <ele>146.132524</ele>
        <time>2020-10-07T01:19:20.167Z</time>
      </trkpt>
      <trkpt lat="54.03845" lon="23.53782">
        <ele>146.233104</ele>
        <time>2020-10-07T01:19:52.050Z</time>
      </trkpt>
      <trkpt lat="54.03934" lon="23.5379">
        <ele>146.350371</ele>
        <time>2020-10-07T01:20:25.330Z</time>
      </trkpt>
      <trkpt lat="54.04466" lon="23.53762">
        <ele>147.937604</ele>
        <time>2020-10-07T01:23:50.185Z</time>
      </trkpt>
      <trkpt lat="54.04495" lon="23.5376">
        <ele>147.997347</ele>
        <time>2020-10-07T01:24:00.991Z</time>
      </trkpt>
      <trkpt lat="54.04926" lon="23.53723">
        <ele>147.974895</ele>
        <time>2020-10-07T01:26:40.551Z</time>
      </trkpt>
      <trkpt lat="54.05132" lon="23.53708">
        <ele>147.72352</ele>
        <time>2020-10-07T01:27:56.322Z</time>
      </trkpt>
      <trkpt lat="54.0633" lon="23.53629">
        <ele>145.134378</ele>
        <time>2020-10-07T01:35:10.419Z</time>
      </trkpt>
      <trkpt lat="54.06823" lon="23.53588">
        <ele>146.058255</ele>
        <time>2020-10-07T01:38:19.971Z</time>
      </trkpt>
      <trkpt lat="54.07309" lon="23.53553">
        <ele>142.245945</ele>
        <time>2020-10-07T01:41:04.008Z</time>
      </trkpt>
      <trkpt lat="54.07445" lon="23.53543">
        <ele>142.292856</ele>
        <time>2020-10-07T01:41:57.901Z</time>
      </trkpt>
      <trkpt lat="54.08531" lon="23.53472">
        <ele>146.200254</ele>
        <time>2020-10-07T01:48:58.334Z</time>
      </trkpt>
      <trkpt lat="54.08556" lon="23.53453">
        <ele>146.010416</ele>
        <time>2020-10-07T01:49:08.097Z</time>
      </trkpt>
      <trkpt lat="54.09166" lon="23.5278">
        <ele>140.707077</ele>
        <time>2020-10-07T01:53:17.739Z</time>
      </trkpt>
      <trkpt lat="54.09295" lon="23.52506">
        <ele>139.584792</ele>
        <time>2020-10-07T01:54:30.176Z</time>
      </trkpt>
      <trkpt lat="54.09299" lon="23.52498">
        <ele>139.562922</ele>
        <time>2020-10-07T01:54:32.030Z</time>
      </trkpt>
      <trkpt lat="54.09303" lon="23.5249">
        <ele>139.537642</ele>
        <time>2020-10-07T01:54:34.562Z</time>
      </trkpt>
      <trkpt lat="54.09378" lon="23.52335">
        <ele>139.049033</ele>
        <time>2020-10-07T01:55:17.543Z</time>
      </trkpt>
      <trkpt lat="54.09684" lon="23.5206">
        <ele>137.058311</ele>
        <time>2020-10-07T01:57:19.063Z</time>
      </trkpt>
      <trkpt lat="54.09953" lon="23.51796">
        <ele>133.721193</ele>
        <time>2020-10-07T01:59:02.313Z</time>
      </trkpt>
      <trkpt lat="54.09985" lon="23.51779">
        <ele>133.670977</ele>
        <time>2020-10-07T01:59:14.035Z</time>
      </trkpt>
      <trkpt lat="54.10006" lon="23.51772">
        <ele>133.746978</ele>
        <time>2020-10-07T01:59:21.455Z</time>
      </trkpt>
      <trkpt lat="54.10025" lon="23.5177">
        <ele>133.816021</ele>
        <time>2020-10-07T01:59:28.363Z</time>
      </trkpt>
      <trkpt lat="54.10648" lon="23.51903">
        <ele>136.404716</ele>
        <time>2020-10-07T02:03:33.911Z</time>
      </trkpt>
      <trkpt lat="54.10678" lon="23.51898">
        <ele>136.570415</ele>
        <time>2020-10-07T02:03:45.665Z</time>
      </trkpt>
      <trkpt lat="54.11034" lon="23.51524">
        <ele>140.214874</ele>
        <time>2020-10-07T02:06:36.113Z</time>
      </trkpt>
      <trkpt lat="54.11245" lon="23.51468">
        <ele>141.338788</ele>
        <time>2020-10-07T02:08:01.522Z</time>
      </trkpt>
      <trkpt lat="54.11396" lon="23.51385">
        <ele>140.957189</ele>
        <time>2020-10-07T02:08:58.550Z</time>
      </trkpt>
      <trkpt lat="54.11442" lon="23.51359">
        <ele>140.573197</ele>
        <time>2020-10-07T02:09:14.975Z</time>
      </trkpt>
      <trkpt lat="54.11571" lon="23.51065">
        <ele>138.60052</ele>
        <time>2020-10-07T02:10:26.996Z</time>
      </trkpt>
      <trkpt lat="54.11666" lon="23.50871">
        <ele>137.88303</ele>
        <time>2020-10-07T02:11:20.706Z</time>
      </trkpt>
      <trkpt lat="54.11681" lon="23.50812">
        <ele>137.735447</ele>
        <time>2020-10-07T02:11:35.012Z</time>
      </trkpt>
      <trkpt lat="54.11712" lon="23.50556">
        <ele>135.54744</ele>
        <time>2020-10-07T02:12:26.500Z</time>
      </trkpt>
      <trkpt lat="54.11732" lon="23.5036">
        <ele>132.648211</ele>
        <time>2020-10-07T02:13:01.204Z</time>
      </trkpt>
      <trkpt lat="54.11734" lon="23.50342">
        <ele>132.334346</ele>
        <time>2020-10-07T02:13:04.098Z</time>
      </trkpt>
      <trkpt lat="54.11743" lon="23.50283">
        <ele>131.235033</ele>
        <time>2020-10-07T02:13:14.652Z</time>
      </trkpt>
      <trkpt lat="54.11761" lon="23.50245">
        <ele>130.34861</ele>
        <time>2020-10-07T02:13:23.297Z</time>
      </trkpt>
      <trkpt lat="54.11779" lon="23.50219">
        <ele>129.649469</ele>
        <time>2020-10-07T02:13:30.184Z</time>
      </trkpt>
      <trkpt lat="54.11818" lon="23.50155">
        <ele>129.013982</ele>
        <time>2020-10-07T02:13:46.737Z</time>
      </trkpt>
      <trkpt lat="54.11838" lon="23.50092">
        <ele>128.704736</ele>
        <time>2020-10-07T02:14:00.629Z</time>
      </trkpt>
      <trkpt lat="54.1215" lon="23.49726">
        <ele>126.733032</ele>
        <time>2020-10-07T02:16:17.168Z</time>
      </trkpt>
      <trkpt lat="54.12187" lon="23.49712">
        <ele>126.743135</ele>
        <time>2020-10-07T02:16:31.653Z</time>
      </trkpt>
      <trkpt lat="54.12247" lon="23.49691">
        <ele>126.937276</ele>
        <time>2020-10-07T02:16:55.420Z</time>
      </trkpt>
      <trkpt lat="54.12378" lon="23.49647">
        <ele>127.966854</ele>
        <time>2020-10-07T02:17:49.603Z</time>
      </trkpt>
      <trkpt lat="54.12409" lon="23.49636">
        <ele>128.206356</ele>
        <time>2020-10-07T02:18:02.647Z</time>
      </trkpt>
      <trkpt lat="54.12468" lon="23.49617">
        <ele>128.613685</ele>
        <time>2020-10-07T02:18:26.761Z</time>
      </trkpt>
      <trkpt lat="54.12544" lon="23.49601">
        <ele>129.130575</ele>
        <time>2020-10-07T02:18:57.067Z</time>
      </trkpt>
      <trkpt lat="54.12643" lon="23.49612">
        <ele>129.883922</ele>
        <time>2020-10-07T02:19:36.194Z</time>
      </trkpt>
      <trkpt lat="54.12733" lon="23.4962">
        <ele>130.595731</ele>
        <time>2020-10-07T02:20:12.229Z</time>
      </trkpt>
      <trkpt lat="54.12769" lon="23.49624">
        <ele>130.981533</ele>
        <time>2020-10-07T02:20:27.313Z</time>
      </trkpt>
      <trkpt lat="54.1295" lon="23.49642">
        <ele>133.908344</ele>
        <time>2020-10-07T02:21:46.093Z</time>
      </trkpt>
      <trkpt lat="54.13144" lon="23.49665">
        <ele>138.267204</ele>
        <time>2020-10-07T02:23:16.864Z</time>
      </trkpt>
      <trkpt lat="54.13205" lon="23.49668">
        <ele>139.627962</ele>
        <time>2020-10-07T02:23:45.450Z</time>
      </trkpt>
      <trkpt lat="54.13216" lon="23.49668">
        <ele>139.858446</ele>
        <time>2020-10-07T02:23:50.320Z</time>
      </trkpt>
      <trkpt lat="54.13253" lon="23.49681">
        <ele>140.695298</ele>
        <time>2020-10-07T02:24:07.704Z</time>
      </trkpt>
      <trkpt lat="54.13486" lon="23.49852">
        <ele>145.480389</ele>
        <time>2020-10-07T02:26:00.395Z</time>
      </trkpt>
      <trkpt lat="54.13749" lon="23.50085">
        <ele>150.369408</ele>
        <time>2020-10-07T02:28:11.143Z</time>
      </trkpt>
      <trkpt lat="54.13761" lon="23.50091">
        <ele>150.556542</ele>
        <time>2020-10-07T02:28:16.498Z</time>
      </trkpt>
      <trkpt lat="54.1378" lon="23.50084">
        <ele>150.855229</ele>
        <time>2020-10-07T02:28:24.585Z</time>
      </trkpt>
      <trkpt lat="54.14017" lon="23.49859">
        <ele>151.793172</ele>
        <time>2020-10-07T02:30:09.264Z</time>
      </trkpt>
      <trkpt lat="54.14081" lon="23.49796">
        <ele>151.816881</ele>
        <time>2020-10-07T02:30:35.747Z</time>
      </trkpt>
      <trkpt lat="54.14104" lon="23.49787">
        <ele>151.789642</ele>
        <time>2020-10-07T02:30:44.120Z</time>
      </trkpt>
      <trkpt lat="54.14315" lon="23.49751">
        <ele>150.981987</ele>
        <time>2020-10-07T02:32:00.147Z</time>
      </trkpt>
      <trkpt lat="54.14356" lon="23.49735">
        <ele>150.794996</ele>
        <time>2020-10-07T02:32:15.340Z</time>
      </trkpt>
      <trkpt lat="54.14445" lon="23.49655">
        <ele>150.340256</ele>
        <time>2020-10-07T02:32:50.840Z</time>
      </trkpt>
      <trkpt lat="54.14641" lon="23.49378">
        <ele>148.587013</ele>
        <time>2020-10-07T02:34:18.723Z</time>
      </trkpt>
      <trkpt lat="54.14665" lon="23.49352">
        <ele>148.405747</ele>
        <time>2020-10-07T02:34:28.633Z</time>
      </trkpt>
      <trkpt lat="54.14988" lon="23.49314">
        <ele>146.403443</ele>
        <time>2020-10-07T02:36:22.947Z</time>
      </trkpt>
      <trkpt lat="54.15186" lon="23.49116">
        <ele>143.947053</ele>
        <time>2020-10-07T02:37:39.646Z</time>
      </trkpt>
      <trkpt lat="54.15238" lon="23.49078">
        <ele>143.261125</ele>
        <time>2020-10-07T02:37:58.081Z</time>
      </trkpt>
      <trkpt lat="54.15242" lon="23.49075">
        <ele>143.207891</ele>
        <time>2020-10-07T02:37:59.534Z</time>
      </trkpt>
      <trkpt lat="54.15492" lon="23.489">
        <ele>140.592153</ele>
        <time>2020-10-07T02:39:30.561Z</time>
      </trkpt>
      <trkpt lat="54.15693" lon="23.48803">
        <ele>139.618154</ele>
        <time>2020-10-07T02:40:44.084Z</time>
      </trkpt>
      <trkpt lat="54.15707" lon="23.48779">
        <ele>139.572617</ele>
        <time>2020-10-07T02:40:51.463Z</time>
      </trkpt>
      <trkpt lat="54.15783" lon="23.48548">
        <ele>140.291152</ele>
        <time>2020-10-07T02:41:52.587Z</time>
      </trkpt>
      <trkpt lat="54.15799" lon="23.48514">
        <ele>140.468509</ele>
        <time>2020-10-07T02:42:03.234Z</time>
      </trkpt>
      <trkpt lat="54.15846" lon="23.48492">
        <ele>140.810379</ele>
        <time>2020-10-07T02:42:22.891Z</time>
      </trkpt>
      <trkpt lat="54.15868" lon="23.4847">
        <ele>141.004224</ele>
        <time>2020-10-07T02:42:33.404Z</time>
      </trkpt>
      <trkpt lat="54.15949" lon="23.48372">
        <ele>141.766085</ele>
        <time>2020-10-07T02:43:13.838Z</time>
      </trkpt>
      <trkpt lat="54.16061" lon="23.48232">
        <ele>142.544761</ele>
        <time>2020-10-07T02:44:08.138Z</time>
      </trkpt>
      <trkpt lat="54.16075" lon="23.48225">
        <ele>142.613453</ele>
        <time>2020-10-07T02:44:13.895Z</time>
      </trkpt>
      <trkpt lat="54.16151" lon="23.48263">
        <ele>142.940518</ele>
        <time>2020-10-07T02:44:44.460Z</time>
      </trkpt>
      <trkpt lat="54.16176" lon="23.48266">
        <ele>142.932922</ele>
        <time>2020-10-07T02:44:54.037Z</time>
      </trkpt>
      <trkpt lat="54.16197" lon="23.48258">
        <ele>142.926331</ele>
        <time>2020-10-07T02:45:02.279Z</time>
      </trkpt>
      <trkpt lat="54.16236" lon="23.48242">
        <ele>142.914143</ele>
        <time>2020-10-07T02:45:17.455Z</time>
      </trkpt>
      <trkpt lat="54.16446" lon="23.48135">
        <ele>141.987081</ele>
        <time>2020-10-07T02:46:35.694Z</time>
      </trkpt>
      <trkpt lat="54.16488" lon="23.48105">
        <ele>141.674323</ele>
        <time>2020-10-07T02:46:51.027Z</time>
      </trkpt>
      <trkpt lat="54.16552" lon="23.48007">
        <ele>140.315214</ele>
        <time>2020-10-07T02:47:18.640Z</time>
      </trkpt>
      <trkpt lat="54.16683" lon="23.47784">
        <ele>137.817008</ele>
        <time>2020-10-07T02:48:18.249Z</time>
      </trkpt>
      <trkpt lat="54.167" lon="23.47768">
        <ele>137.599073</ele>
        <time>2020-10-07T02:48:24.986Z</time>
      </trkpt>
      <trkpt lat="54.16808" lon="23.47758">
        <ele>136.905705</ele>
        <time>2020-10-07T02:49:03.261Z</time>
      </trkpt>
      <trkpt lat="54.16831" lon="23.4775">
        <ele>136.952806</ele>
        <time>2020-10-07T02:49:12.037Z</time>
      </trkpt>
      <trkpt lat="54.16559" lon="23.47636">
        <ele>138.132173</ele>
        <time>2020-10-07T02:50:19.856Z</time>
      </trkpt>
      <trkpt lat="54.16534" lon="23.47625">
        <ele>138.271774</ele>
        <time>2020-10-07T02:50:26.734Z</time>
      </trkpt>
      <trkpt lat="54.16494" lon="23.47608">
        <ele>138.461473</ele>
        <time>2020-10-07T02:50:37.443Z</time>
      </trkpt>
      <trkpt lat="54.1648" lon="23.47602">
        <ele>138.531513</ele>
        <time>2020-10-07T02:50:41.291Z</time>
      </trkpt>
      <trkpt lat="54.16439" lon="23.47585">
        <ele>138.729275</ele>
        <time>2020-10-07T02:50:51.893Z</time>
      </trkpt>
      <trkpt lat="54.16381" lon="23.47561">
        <ele>139.010473</ele>
        <time>2020-10-07T02:51:05.988Z</time>
      </trkpt>
      <trkpt lat="54.16367" lon="23.47552">
        <ele>139.051047</ele>
        <time>2020-10-07T02:51:09.236Z</time>
      </trkpt>
      <trkpt lat="54.16355" lon="23.47542">
        <ele>138.90259</ele>
        <time>2020-10-07T02:51:12.097Z</time>
      </trkpt>
      <trkpt lat="54.16346" lon="23.47529">
        <ele>138.77132</ele>
        <time>2020-10-07T02:51:14.498Z</time>
      </trkpt>
      <trkpt lat="54.16303" lon="23.47503">
        <ele>138.269957</ele>
        <time>2020-10-07T02:51:23.267Z</time>
      </trkpt>
      <trkpt lat="54.16234" lon="23.47471">
        <ele>137.480464</ele>
        <time>2020-10-07T02:51:36.321Z</time>
      </trkpt>
      <trkpt lat="54.16202" lon="23.47458">
        <ele>137.110827</ele>
        <time>2020-10-07T02:51:42.378Z</time>
      </trkpt>
      <trkpt lat="54.16106" lon="23.47416">
        <ele>136.028071</ele>
        <time>2020-10-07T02:52:00.655Z</time>
      </trkpt>
      <trkpt lat="54.15957" lon="23.47353">
        <ele>134.789729</ele>
        <time>2020-10-07T02:52:31.272Z</time>
      </trkpt>
      <trkpt lat="54.15868" lon="23.47316">
        <ele>134.380199</ele>
        <time>2020-10-07T02:52:50.647Z</time>
      </trkpt>
      <trkpt lat="54.15858" lon="23.47312">
        <ele>134.333533</ele>
        <time>2020-10-07T02:52:52.837Z</time>
      </trkpt>
      <trkpt lat="54.15862" lon="23.47291">
        <ele>134.293721</ele>
        <time>2020-10-07T02:52:55.602Z</time>
      </trkpt>
      <trkpt lat="54.15871" lon="23.47269">
        <ele>134.290225</ele>
        <time>2020-10-07T02:52:59.381Z</time>
      </trkpt>
      <trkpt lat="54.15881" lon="23.47256">
        <ele>134.287565</ele>
        <time>2020-10-07T02:53:02.120Z</time>
      </trkpt>
      <trkpt lat="54.15889" lon="23.4725">
        <ele>134.285664</ele>
        <time>2020-10-07T02:53:04.126Z</time>
      </trkpt>
      <trkpt lat="54.15928" lon="23.47235">
        <ele>134.277083</ele>
        <time>2020-10-07T02:53:13.325Z</time>
      </trkpt>
      <trkpt lat="54.15995" lon="23.47209">
        <ele>134.262373</ele>
        <time>2020-10-07T02:53:29.446Z</time>
      </trkpt>
      <trkpt lat="54.16008" lon="23.47204">
        <ele>134.259416</ele>
        <time>2020-10-07T02:53:32.691Z</time>
      </trkpt>
      <trkpt lat="54.1602" lon="23.47203">
        <ele>134.256898</ele>
        <time>2020-10-07T02:53:35.533Z</time>
      </trkpt>
      <trkpt lat="54.16037" lon="23.47209">
        <ele>134.261388</ele>
        <time>2020-10-07T02:53:39.629Z</time>
      </trkpt>
      <trkpt lat="54.1606" lon="23.47218">
        <ele>134.271242</ele>
        <time>2020-10-07T02:53:45.159Z</time>
      </trkpt>
      <trkpt lat="54.16067" lon="23.47168">
        <ele>134.283729</ele>
        <time>2020-10-07T02:53:51.809Z</time>
      </trkpt>
      <trkpt lat="54.16077" lon="23.4713">
        <ele>134.294005</ele>
        <time>2020-10-07T02:53:57.203Z</time>
      </trkpt>
      <trkpt lat="54.16087" lon="23.47106">
        <ele>134.301089</ele>
        <time>2020-10-07T02:54:01.091Z</time>
      </trkpt>
      <trkpt lat="54.16101" lon="23.4708">
        <ele>134.309775</ele>
        <time>2020-10-07T02:54:05.657Z</time>
      </trkpt>
      <trkpt lat="54.16133" lon="23.47042">
        <ele>134.326207</ele>
        <time>2020-10-07T02:54:14.529Z</time>
      </trkpt>
      <trkpt lat="54.16216" lon="23.46978">
        <ele>134.450328</ele>
        <time>2020-10-07T02:54:35.360Z</time>
      </trkpt>
      <trkpt lat="54.16246" lon="23.46963">
        <ele>134.497289</ele>
        <time>2020-10-07T02:54:42.433Z</time>
      </trkpt>
      <trkpt lat="54.16271" lon="23.46961">
        <ele>134.534203</ele>
        <time>2020-10-07T02:54:48.114Z</time>
      </trkpt>
      <trkpt lat="54.16397" lon="23.46982">
        <ele>134.738016</ele>
        <time>2020-10-07T02:55:17.799Z</time>
      </trkpt>
      <trkpt lat="54.16408" lon="23.4697">
        <ele>134.759434</ele>
        <time>2020-10-07T02:55:20.848Z</time>
      </trkpt>
      <trkpt lat="54.16512" lon="23.46718">
        <ele>134.701071</ele>
        <time>2020-10-07T02:56:01.267Z</time>
      </trkpt>
      <trkpt lat="54.16629" lon="23.46434">
        <ele>134.100793</ele>
        <time>2020-10-07T02:56:43.463Z</time>
      </trkpt>
      <trkpt lat="54.16713" lon="23.46224">
        <ele>133.762821</ele>
        <time>2020-10-07T02:57:15.329Z</time>
      </trkpt>
      <trkpt lat="54.16799" lon="23.45995">
        <ele>133.440525</ele>
        <time>2020-10-07T02:57:50.371Z</time>
      </trkpt>
      <trkpt lat="54.16847" lon="23.45727">
        <ele>132.919367</ele>
        <time>2020-10-07T02:58:24.671Z</time>
      </trkpt>
      <trkpt lat="54.16852" lon="23.45697">
        <ele>132.850502</ele>
        <time>2020-10-07T02:58:28.551Z</time>
      </trkpt>
      <trkpt lat="54.16856" lon="23.45681">
        <ele>132.812587</ele>
        <time>2020-10-07T02:58:30.526Z</time>
      </trkpt>
      <trkpt lat="54.16874" lon="23.45634">
        <ele>132.689945</ele>
        <time>2020-10-07T02:58:37.375Z</time>
      </trkpt>
      <trkpt lat="54.16899" lon="23.45599">
        <ele>132.56998</ele>
        <time>2020-10-07T02:58:44.139Z</time>
      </trkpt>
      <trkpt lat="54.16986" lon="23.45538">
        <ele>132.51793</ele>
        <time>2020-10-07T02:59:04.304Z</time>
      </trkpt>
      <trkpt lat="54.17021" lon="23.45488">
        <ele>132.575272</ele>
        <time>2020-10-07T02:59:14.609Z</time>
      </trkpt>
      <trkpt lat="54.17126" lon="23.4515">
        <ele>133.358106</ele>
        <time>2020-10-07T03:00:08.820Z</time>
      </trkpt>
      <trkpt lat="54.17151" lon="23.4507">
        <ele>133.578054</ele>
        <time>2020-10-07T03:00:21.514Z</time>
      </trkpt>
      <trkpt lat="54.17164" lon="23.45028">
        <ele>133.674186</ele>
        <time>2020-10-07T03:00:28.046Z</time>
      </trkpt>
      <trkpt lat="54.17207" lon="23.44886">
        <ele>133.996513</ele>
        <time>2020-10-07T03:00:50.246Z</time>
      </trkpt>
      <trkpt lat="54.17228" lon="23.44809">
        <ele>134.153255</ele>
        <time>2020-10-07T03:01:02.032Z</time>
      </trkpt>
      <trkpt lat="54.17233" lon="23.4478">
        <ele>134.195079</ele>
        <time>2020-10-07T03:01:06.030Z</time>
      </trkpt>
      <trkpt lat="54.17234" lon="23.44765">
        <ele>134.215474</ele>
        <time>2020-10-07T03:01:08.145Z</time>
      </trkpt>
      <trkpt lat="54.17232" lon="23.44726">
        <ele>134.269349</ele>
        <time>2020-10-07T03:01:13.441Z</time>
      </trkpt>
      <trkpt lat="54.17223" lon="23.44673">
        <ele>134.346918</ele>
        <time>2020-10-07T03:01:21.375Z</time>
      </trkpt>
      <trkpt lat="54.17173" lon="23.44418">
        <ele>134.236213</ele>
        <time>2020-10-07T03:01:57.259Z</time>
      </trkpt>
      <trkpt lat="54.17139" lon="23.44253">
        <ele>133.804613</ele>
        <time>2020-10-07T03:02:17.544Z</time>
      </trkpt>
      <trkpt lat="54.1713" lon="23.44217">
        <ele>133.669116</ele>
        <time>2020-10-07T03:02:21.915Z</time>
      </trkpt>
      <trkpt lat="54.17058" lon="23.44022">
        <ele>132.821635</ele>
        <time>2020-10-07T03:02:48.616Z</time>
      </trkpt>
      <trkpt lat="54.17054" lon="23.44016">
        <ele>132.785078</ele>
        <time>2020-10-07T03:02:49.714Z</time>
      </trkpt>
      <trkpt lat="54.17048" lon="23.44015">
        <ele>132.75164</ele>
        <time>2020-10-07T03:02:51.129Z</time>
      </trkpt>
      <trkpt lat="54.16831" lon="23.44141">
        <ele>133.085837</ele>
        <time>2020-10-07T03:03:44.306Z</time>
      </trkpt>
      <trkpt lat="54.16604" lon="23.44248">
        <ele>134.223052</ele>
        <time>2020-10-07T03:04:41.365Z</time>
      </trkpt>
      <trkpt lat="54.16517" lon="23.44258">
        <ele>134.747808</ele>
        <time>2020-10-07T03:05:03.051Z</time>
      </trkpt>
      <trkpt lat="54.16358" lon="23.44257">
        <ele>136.043445</ele>
        <time>2020-10-07T03:05:43.861Z</time>
      </trkpt>
      <trkpt lat="54.16344" lon="23.44253">
        <ele>136.155793</ele>
        <time>2020-10-07T03:05:47.470Z</time>
      </trkpt>
      <trkpt lat="54.1633" lon="23.44246">
        <ele>136.273871</ele>
        <time>2020-10-07T03:05:51.057Z</time>
      </trkpt>
      <trkpt lat="54.16315" lon="23.44236">
        <ele>136.392131</ele>
        <time>2020-10-07T03:05:55.111Z</time>
      </trkpt>
      <trkpt lat="54.16276" lon="23.44204">
        <ele>136.713371</ele>
        <time>2020-10-07T03:06:06.044Z</time>
      </trkpt>
      <trkpt lat="54.16264" lon="23.44192">
        <ele>136.816535</ele>
        <time>2020-10-07T03:06:09.407Z</time>
      </trkpt>
      <trkpt lat="54.1622" lon="23.44122">
        <ele>137.262012</ele>
        <time>2020-10-07T03:06:24.673Z</time>
      </trkpt>
      <trkpt lat="54.16213" lon="23.44107">
        <ele>137.342669</ele>
        <time>2020-10-07T03:06:27.293Z</time>
      </trkpt>
      <trkpt lat="54.1611" lon="23.43836">
        <ele>138.982076</ele>
        <time>2020-10-07T03:07:15.869Z</time>
      </trkpt>
      <trkpt lat="54.16097" lon="23.43803">
        <ele>139.197464</ele>
        <time>2020-10-07T03:07:22.143Z</time>
      </trkpt>
      <trkpt lat="54.16092" lon="23.43787">
        <ele>139.324212</ele>
        <time>2020-10-07T03:07:24.980Z</time>
      </trkpt>
      <trkpt lat="54.16076" lon="23.43726">
        <ele>139.800753</ele>
        <time>2020-10-07T03:07:35.595Z</time>
      </trkpt>
      <trkpt lat="54.16001" lon="23.43378">
        <ele>142.296312</ele>
        <time>2020-10-07T03:08:34.946Z</time>
      </trkpt>
      <trkpt lat="54.1599" lon="23.43335">
        <ele>142.589088</ele>
        <time>2020-10-07T03:08:42.359Z</time>
      </trkpt>
      <trkpt lat="54.15984" lon="23.43315">
        <ele>142.728556</ele>
        <time>2020-10-07T03:08:45.831Z</time>
      </trkpt>
      <trkpt lat="54.15909" lon="23.43121">
        <ele>143.29529</ele>
        <time>2020-10-07T03:09:20.080Z</time>
      </trkpt>
      <trkpt lat="54.15874" lon="23.43051">
        <ele>143.319771</ele>
        <time>2020-10-07T03:09:31.276Z</time>
      </trkpt>
      <trkpt lat="54.15865" lon="23.43038">
        <ele>143.32498</ele>
        <time>2020-10-07T03:09:33.725Z</time>
      </trkpt>
      <trkpt lat="54.15857" lon="23.43028">
        <ele>143.32966</ele>
        <time>2020-10-07T03:09:35.690Z</time>
      </trkpt>
      <trkpt lat="54.15824" lon="23.42991">
        <ele>143.236893</ele>
        <time>2020-10-07T03:09:43.559Z</time>
      </trkpt>
      <trkpt lat="54.15818" lon="23.42983">
        <ele>143.199946</ele>
        <time>2020-10-07T03:09:45.124Z</time>
      </trkpt>
      <trkpt lat="54.15751" lon="23.42907">
        <ele>142.827556</ele>
        <time>2020-10-07T03:10:01.114Z</time>
      </trkpt>
      <trkpt lat="54.15675" lon="23.4283">
        <ele>142.660329</ele>
        <time>2020-10-07T03:10:20.047Z</time>
      </trkpt>
      <trkpt lat="54.15661" lon="23.42821">
        <ele>142.784267</ele>
        <time>2020-10-07T03:10:23.819Z</time>
      </trkpt>
      <trkpt lat="54.1565" lon="23.42818">
        <ele>142.87047</ele>
        <time>2020-10-07T03:10:26.548Z</time>
      </trkpt>
      <trkpt lat="54.15633" lon="23.42815">
        <ele>143.014328</ele>
        <time>2020-10-07T03:10:30.977Z</time>
      </trkpt>
      <trkpt lat="54.1559" lon="23.42814">
        <ele>143.370249</ele>
        <time>2020-10-07T03:10:42.441Z</time>
      </trkpt>
      <trkpt lat="54.15541" lon="23.42816">
        <ele>143.772442</ele>
        <time>2020-10-07T03:10:55.731Z</time>
      </trkpt>
      <trkpt lat="54.15524" lon="23.42815">
        <ele>143.913653</ele>
        <time>2020-10-07T03:11:00.291Z</time>
      </trkpt>
      <trkpt lat="54.15513" lon="23.42814">
        <ele>144.005541</ele>
        <time>2020-10-07T03:11:03.308Z</time>
      </trkpt>
      <trkpt lat="54.15399" lon="23.42762">
        <ele>145.267652</ele>
        <time>2020-10-07T03:11:33.532Z</time>
      </trkpt>
      <trkpt lat="54.15318" lon="23.42721">
        <ele>146.543694</ele>
        <time>2020-10-07T03:11:56.371Z</time>
      </trkpt>
      <trkpt lat="54.15308" lon="23.42716">
        <ele>146.81417</ele>
        <time>2020-10-07T03:11:59.461Z</time>
      </trkpt>
      <trkpt lat="54.15282" lon="23.42703">
        <ele>147.502124</ele>
        <time>2020-10-07T03:12:07.643Z</time>
      </trkpt>
      <trkpt lat="54.15223" lon="23.42673">
        <ele>149.074097</ele>
        <time>2020-10-07T03:12:27.992Z</time>
      </trkpt>
      <trkpt lat="54.15159" lon="23.4264">
        <ele>150.738476</ele>
        <time>2020-10-07T03:12:52.741Z</time>
      </trkpt>
      <trkpt lat="54.15125" lon="23.42622">
        <ele>151.403251</ele>
        <time>2020-10-07T03:13:06.203Z</time>
      </trkpt>
      <trkpt lat="54.15047" lon="23.42582">
        <ele>152.919556</ele>
        <time>2020-10-07T03:13:32.568Z</time>
      </trkpt>
      <trkpt lat="54.15" lon="23.42558">
        <ele>153.832197</ele>
        <time>2020-10-07T03:13:43.876Z</time>
      </trkpt>
      <trkpt lat="54.14987" lon="23.42551">
        <ele>153.601514</ele>
        <time>2020-10-07T03:13:46.612Z</time>
      </trkpt>
      <trkpt lat="54.14929" lon="23.42525">
        <ele>151.901335</ele>
        <time>2020-10-07T03:13:57.104Z</time>
      </trkpt>
      <trkpt lat="54.14819" lon="23.42472">
        <ele>148.637194</ele>
        <time>2020-10-07T03:14:15.176Z</time>
      </trkpt>
      <trkpt lat="54.14707" lon="23.42417">
        <ele>144.320557</ele>
        <time>2020-10-07T03:14:33.270Z</time>
      </trkpt>
      <trkpt lat="54.14597" lon="23.42359">
        <ele>141.179565</ele>
        <time>2020-10-07T03:14:52.349Z</time>
      </trkpt>
      <trkpt lat="54.14485" lon="23.42265">
        <ele>139.081777</ele>
        <time>2020-10-07T03:15:15.196Z</time>
      </trkpt>
      <trkpt lat="54.14324" lon="23.42214">
        <ele>140.740105</ele>
        <time>2020-10-07T03:15:57.871Z</time>
      </trkpt>
      <trkpt lat="54.14049" lon="23.42084">
        <ele>147.682987</ele>
        <time>2020-10-07T03:17:36.902Z</time>
      </trkpt>
      <trkpt lat="54.13977" lon="23.42037">
        <ele>149.028206</ele>
        <time>2020-10-07T03:17:56.785Z</time>
      </trkpt>
      <trkpt lat="54.13954" lon="23.42016">
        <ele>148.987713</ele>
        <time>2020-10-07T03:18:02.617Z</time>
      </trkpt>
      <trkpt lat="54.1391" lon="23.41971">
        <ele>148.082494</ele>
        <time>2020-10-07T03:18:12.292Z</time>
      </trkpt>
      <trkpt lat="54.13874" lon="23.41949">
        <ele>147.381602</ele>
        <time>2020-10-07T03:18:19.077Z</time>
      </trkpt>
      <trkpt lat="54.13738" lon="23.41923">
        <ele>144.601803</ele>
        <time>2020-10-07T03:18:41.890Z</time>
      </trkpt>
      <trkpt lat="54.13731" lon="23.41918">
        <ele>144.427222</ele>
        <time>2020-10-07T03:18:43.031Z</time>
      </trkpt>
      <trkpt lat="54.1373" lon="23.41912">
        <ele>144.333659</ele>
        <time>2020-10-07T03:18:43.762Z</time>
      </trkpt>
      <trkpt lat="54.13734" lon="23.41751">
        <ele>142.113054</ele>
        <time>2020-10-07T03:19:00.189Z</time>
      </trkpt>
      <trkpt lat="54.13725" lon="23.41556">
        <ele>140.343722</ele>
        <time>2020-10-07T03:19:21.005Z</time>
      </trkpt>
      <trkpt lat="54.1372" lon="23.41484">
        <ele>139.73263</ele>
        <time>2020-10-07T03:19:29.207Z</time>
      </trkpt>
      <trkpt lat="54.13692" lon="23.41272">
        <ele>138.38566</ele>
        <time>2020-10-07T03:19:53.629Z</time>
      </trkpt>
      <trkpt lat="54.13685" lon="23.41247">
        <ele>138.241465</ele>
        <time>2020-10-07T03:19:56.953Z</time>
      </trkpt>
      <trkpt lat="54.13672" lon="23.41223">
        <ele>138.06554</ele>
        <time>2020-10-07T03:20:00.625Z</time>
      </trkpt>
      <trkpt lat="54.13641" lon="23.41189">
        <ele>137.736632</ele>
        <time>2020-10-07T03:20:07.774Z</time>
      </trkpt>
      <trkpt lat="54.13529" lon="23.41168">
        <ele>137.494645</ele>
        <time>2020-10-07T03:20:31.235Z</time>
      </trkpt>
      <trkpt lat="54.1349" lon="23.41148">
        <ele>137.455911</ele>
        <time>2020-10-07T03:20:40.297Z</time>
      </trkpt>
      <trkpt lat="54.1348" lon="23.4114">
        <ele>137.444937</ele>
        <time>2020-10-07T03:20:42.714Z</time>
      </trkpt>
      <trkpt lat="54.13465" lon="23.41122">
        <ele>137.427924</ele>
        <time>2020-10-07T03:20:47.248Z</time>
      </trkpt>
      <trkpt lat="54.1306" lon="23.40576">
        <ele>141.47743</ele>
        <time>2020-10-07T03:22:59.384Z</time>
      </trkpt>
      <trkpt lat="54.13025" lon="23.40517">
        <ele>141.869656</ele>
        <time>2020-10-07T03:23:11.878Z</time>
      </trkpt>
      <trkpt lat="54.12886" lon="23.40243">
        <ele>143.119135</ele>
        <time>2020-10-07T03:24:05.239Z</time>
      </trkpt>
      <trkpt lat="54.12834" lon="23.40158">
        <ele>143.196673</ele>
        <time>2020-10-07T03:24:22.666Z</time>
      </trkpt>
      <trkpt lat="54.12743" lon="23.40026">
        <ele>142.540665</ele>
        <time>2020-10-07T03:24:46.797Z</time>
      </trkpt>
      <trkpt lat="54.12673" lon="23.39924">
        <ele>141.342195</ele>
        <time>2020-10-07T03:25:03.332Z</time>
      </trkpt>
      <trkpt lat="54.12653" lon="23.39894">
        <ele>141.001317</ele>
        <time>2020-10-07T03:25:08.312Z</time>
      </trkpt>
      <trkpt lat="54.12632" lon="23.39841">
        <ele>140.743747</ele>
        <time>2020-10-07T03:25:15.234Z</time>
      </trkpt>
      <trkpt lat="54.12626" lon="23.3982">
        <ele>140.664592</ele>
        <time>2020-10-07T03:25:17.565Z</time>
      </trkpt>
      <trkpt lat="54.12622" lon="23.39791">
        <ele>140.56667</ele>
        <time>2020-10-07T03:25:21.207Z</time>
      </trkpt>
      <trkpt lat="54.12616" lon="23.39732">
        <ele>140.366326</ele>
        <time>2020-10-07T03:25:28.147Z</time>
      </trkpt>
      <trkpt lat="54.12615" lon="23.39677">
        <ele>140.180706</ele>
        <time>2020-10-07T03:25:34.970Z</time>
      </trkpt>
      <trkpt lat="54.12676" lon="23.39267">
        <ele>140.858169</ele>
        <time>2020-10-07T03:26:35.398Z</time>
      </trkpt>
      <trkpt lat="54.12684" lon="23.39166">
        <ele>141.272033</ele>
        <time>2020-10-07T03:26:48.734Z</time>
      </trkpt>
      <trkpt lat="54.12687" lon="23.38995">
        <ele>141.959651</ele>
        <time>2020-10-07T03:27:14.460Z</time>
      </trkpt>
      <trkpt lat="54.12692" lon="23.38958">
        <ele>142.41837</ele>
        <time>2020-10-07T03:27:20.711Z</time>
      </trkpt>
      <trkpt lat="54.12699" lon="23.38921">
        <ele>142.896516</ele>
        <time>2020-10-07T03:27:27.119Z</time>
      </trkpt>
      <trkpt lat="54.12709" lon="23.38855">
        <ele>143.763238</ele>
        <time>2020-10-07T03:27:39.460Z</time>
      </trkpt>
      <trkpt lat="54.12706" lon="23.38772">
        <ele>144.798985</ele>
        <time>2020-10-07T03:27:55.071Z</time>
      </trkpt>
      <trkpt lat="54.1269" lon="23.38728">
        <ele>145.455202</ele>
        <time>2020-10-07T03:28:05.380Z</time>
      </trkpt>
      <trkpt lat="54.1263" lon="23.38638">
        <ele>147.062504</ele>
        <time>2020-10-07T03:28:32.332Z</time>
      </trkpt>
      <trkpt lat="54.12623" lon="23.38616">
        <ele>147.355915</ele>
        <time>2020-10-07T03:28:36.958Z</time>
      </trkpt>
      <trkpt lat="54.12618" lon="23.38566">
        <ele>147.941638</ele>
        <time>2020-10-07T03:28:46.047Z</time>
      </trkpt>
      <trkpt lat="54.12626" lon="23.38468">
        <ele>149.083181</ele>
        <time>2020-10-07T03:29:02.522Z</time>
      </trkpt>
      <trkpt lat="54.12638" lon="23.38316">
        <ele>149.544567</ele>
        <time>2020-10-07T03:29:24.937Z</time>
      </trkpt>
      <trkpt lat="54.1266" lon="23.38231">
        <ele>149.66837</ele>
        <time>2020-10-07T03:29:37.001Z</time>
      </trkpt>
      <trkpt lat="54.12685" lon="23.38166">
        <ele>149.771344</ele>
        <time>2020-10-07T03:29:46.589Z</time>
      </trkpt>
      <trkpt lat="54.12694" lon="23.38113">
        <ele>149.639333</ele>
        <time>2020-10-07T03:29:53.299Z</time>
      </trkpt>
      <trkpt lat="54.12711" lon="23.37975">
        <ele>149.212165</ele>
        <time>2020-10-07T03:30:10.103Z</time>
      </trkpt>
      <trkpt lat="54.12729" lon="23.37852">
        <ele>148.836458</ele>
        <time>2020-10-07T03:30:25.296Z</time>
      </trkpt>
      <trkpt lat="54.12736" lon="23.37817">
        <ele>148.753385</ele>
        <time>2020-10-07T03:30:29.823Z</time>
      </trkpt>
      <trkpt lat="54.12801" lon="23.37603">
        <ele>148.215836</ele>
        <time>2020-10-07T03:30:59.558Z</time>
      </trkpt>
      <trkpt lat="54.12847" lon="23.37399">
        <ele>147.906461</ele>
        <time>2020-10-07T03:31:26.821Z</time>
      </trkpt>
      <trkpt lat="54.12901" lon="23.37204">
        <ele>147.888729</ele>
        <time>2020-10-07T03:31:54.454Z</time>
      </trkpt>
      <trkpt lat="54.12907" lon="23.37153">
        <ele>147.949611</ele>
        <time>2020-10-07T03:32:01.467Z</time>
      </trkpt>
      <trkpt lat="54.12897" lon="23.36961">
        <ele>148.189861</ele>
        <time>2020-10-07T03:32:28.521Z</time>
      </trkpt>
      <trkpt lat="54.12893" lon="23.36903">
        <ele>148.275799</ele>
        <time>2020-10-07T03:32:37.021Z</time>
      </trkpt>
      <trkpt lat="54.12846" lon="23.36683">
        <ele>148.522921</ele>
        <time>2020-10-07T03:33:08.517Z</time>
      </trkpt>
      <trkpt lat="54.12819" lon="23.36514">
        <ele>148.230685</ele>
        <time>2020-10-07T03:33:29.959Z</time>
      </trkpt>
      <trkpt lat="54.12809" lon="23.36495">
        <ele>148.187218</ele>
        <time>2020-10-07T03:33:33.052Z</time>
      </trkpt>
      <trkpt lat="54.12665" lon="23.36321">
        <ele>147.853635</ele>
        <time>2020-10-07T03:34:10.518Z</time>
      </trkpt>
      <trkpt lat="54.12598" lon="23.36217">
        <ele>147.83537</ele>
        <time>2020-10-07T03:34:31.608Z</time>
      </trkpt>
      <trkpt lat="54.12522" lon="23.36157">
        <ele>147.947933</ele>
        <time>2020-10-07T03:34:50.937Z</time>
      </trkpt>
      <trkpt lat="54.12459" lon="23.3609">
        <ele>148.017723</ele>
        <time>2020-10-07T03:35:07.733Z</time>
      </trkpt>
      <trkpt lat="54.12448" lon="23.36083">
        <ele>148.016589</ele>
        <time>2020-10-07T03:35:10.048Z</time>
      </trkpt>
      <trkpt lat="54.12433" lon="23.36076">
        <ele>148.015203</ele>
        <time>2020-10-07T03:35:13.595Z</time>
      </trkpt>
      <trkpt lat="54.12416" lon="23.3607">
        <ele>148.013565</ele>
        <time>2020-10-07T03:35:17.284Z</time>
      </trkpt>
      <trkpt lat="54.12225" lon="23.3604">
        <ele>148.28423</ele>
        <time>2020-10-07T03:36:00.092Z</time>
      </trkpt>
      <trkpt lat="54.12158" lon="23.3602">
        <ele>148.53652</ele>
        <time>2020-10-07T03:36:16.923Z</time>
      </trkpt>
      <trkpt lat="54.12131" lon="23.36002">
        <ele>148.6403</ele>
        <time>2020-10-07T03:36:24.099Z</time>
      </trkpt>
      <trkpt lat="54.121" lon="23.35972">
        <ele>148.777682</ele>
        <time>2020-10-07T03:36:33.245Z</time>
      </trkpt>
      <trkpt lat="54.12049" lon="23.35898">
        <ele>149.034099</ele>
        <time>2020-10-07T03:36:49.795Z</time>
      </trkpt>
      <trkpt lat="54.12002" lon="23.3583">
        <ele>149.270778</ele>
        <time>2020-10-07T03:37:04.166Z</time>
      </trkpt>
      <trkpt lat="54.11973" lon="23.35793">
        <ele>149.152104</ele>
        <time>2020-10-07T03:37:12.156Z</time>
      </trkpt>
      <trkpt lat="54.11916" lon="23.35746">
        <ele>148.285006</ele>
        <time>2020-10-07T03:37:25.261Z</time>
      </trkpt>
      <trkpt lat="54.11807" lon="23.35721">
        <ele>146.619793</ele>
        <time>2020-10-07T03:37:44.634Z</time>
      </trkpt>
      <trkpt lat="54.1176" lon="23.35693">
        <ele>144.857966</ele>
        <time>2020-10-07T03:37:52.789Z</time>
      </trkpt>
      <trkpt lat="54.11736" lon="23.35672">
        <ele>143.903586</ele>
        <time>2020-10-07T03:37:57.094Z</time>
      </trkpt>
      <trkpt lat="54.11644" lon="23.35591">
        <ele>140.285394</ele>
        <time>2020-10-07T03:38:13.324Z</time>
      </trkpt>
      <trkpt lat="54.11612" lon="23.3555">
        <ele>138.928352</ele>
        <time>2020-10-07T03:38:19.578Z</time>
      </trkpt>
      <trkpt lat="54.11491" lon="23.35354">
        <ele>134.033687</ele>
        <time>2020-10-07T03:38:46.943Z</time>
      </trkpt>
      <trkpt lat="54.1148" lon="23.35338">
        <ele>133.836112</ele>
        <time>2020-10-07T03:38:49.460Z</time>
      </trkpt>
      <trkpt lat="54.11474" lon="23.35332">
        <ele>133.74152</ele>
        <time>2020-10-07T03:38:50.714Z</time>
      </trkpt>
      <trkpt lat="54.11393" lon="23.35269">
        <ele>132.512767</ele>
        <time>2020-10-07T03:39:08.054Z</time>
      </trkpt>
      <trkpt lat="54.11337" lon="23.35227">
        <ele>132.095707</ele>
        <time>2020-10-07T03:39:21.127Z</time>
      </trkpt>
      <trkpt lat="54.1133" lon="23.35221">
        <ele>132.107475</ele>
        <time>2020-10-07T03:39:23.044Z</time>
      </trkpt>
      <trkpt lat="54.11242" lon="23.35131">
        <ele>132.269249</ele>
        <time>2020-10-07T03:39:47.104Z</time>
      </trkpt>
      <trkpt lat="54.1118" lon="23.3507">
        <ele>132.314671</ele>
        <time>2020-10-07T03:40:03.979Z</time>
      </trkpt>
      <trkpt lat="54.11173" lon="23.35063">
        <ele>132.308737</ele>
        <time>2020-10-07T03:40:05.913Z</time>
      </trkpt>
      <trkpt lat="54.11164" lon="23.35055">
        <ele>132.301983</ele>
        <time>2020-10-07T03:40:08.080Z</time>
      </trkpt>
      <trkpt lat="54.11154" lon="23.35044">
        <ele>132.293601</ele>
        <time>2020-10-07T03:40:10.972Z</time>
      </trkpt>
      <trkpt lat="54.11025" lon="23.34902">
        <ele>132.274658</ele>
        <time>2020-10-07T03:40:43.730Z</time>
      </trkpt>
      <trkpt lat="54.11017" lon="23.34895">
        <ele>132.292767</ele>
        <time>2020-10-07T03:40:45.686Z</time>
      </trkpt>
      <trkpt lat="54.11009" lon="23.3489">
        <ele>132.308066</ele>
        <time>2020-10-07T03:40:47.350Z</time>
      </trkpt>
      <trkpt lat="54.10991" lon="23.34881">
        <ele>132.344889</ele>
        <time>2020-10-07T03:40:51.602Z</time>
      </trkpt>
      <trkpt lat="54.10982" lon="23.34876">
        <ele>132.363228</ele>
        <time>2020-10-07T03:40:53.589Z</time>
      </trkpt>
      <trkpt lat="54.10941" lon="23.34848">
        <ele>132.449334</ele>
        <time>2020-10-07T03:41:03.453Z</time>
      </trkpt>
      <trkpt lat="54.10913" lon="23.34825">
        <ele>132.509227</ele>
        <time>2020-10-07T03:41:11.267Z</time>
      </trkpt>
      <trkpt lat="54.109" lon="23.34815">
        <ele>132.537139</ele>
        <time>2020-10-07T03:41:14.674Z</time>
      </trkpt>
      <trkpt lat="54.10882" lon="23.34802">
        <ele>132.665517</ele>
        <time>2020-10-07T03:41:19.875Z</time>
      </trkpt>
      <trkpt lat="54.10862" lon="23.34788">
        <ele>132.944063</ele>
        <time>2020-10-07T03:41:25.423Z</time>
      </trkpt>
      <trkpt lat="54.10856" lon="23.34784">
        <ele>133.025881</ele>
        <time>2020-10-07T03:41:26.941Z</time>
      </trkpt>
      <trkpt lat="54.1085" lon="23.34777">
        <ele>133.117855</ele>
        <time>2020-10-07T03:41:29.101Z</time>
      </trkpt>
      <trkpt lat="54.10845" lon="23.34771">
        <ele>133.198137</ele>
        <time>2020-10-07T03:41:31.038Z</time>
      </trkpt>
      <trkpt lat="54.10843" lon="23.34764">
        <ele>133.251039</ele>
        <time>2020-10-07T03:41:32.086Z</time>
      </trkpt>
      <trkpt lat="54.10843" lon="23.34756">
        <ele>133.311399</ele>
        <time>2020-10-07T03:41:33.276Z</time>
      </trkpt>
      <trkpt lat="54.10843" lon="23.3475">
        <ele>133.359932</ele>
        <time>2020-10-07T03:41:34.248Z</time>
      </trkpt>
      <trkpt lat="54.10845" lon="23.34743">
        <ele>133.417761</ele>
        <time>2020-10-07T03:41:35.394Z</time>
      </trkpt>
      <trkpt lat="54.10846" lon="23.34738">
        <ele>133.456208</ele>
        <time>2020-10-07T03:41:36.145Z</time>
      </trkpt>
      <trkpt lat="54.10866" lon="23.34684">
        <ele>133.938881</ele>
        <time>2020-10-07T03:41:46.912Z</time>
      </trkpt>
      <trkpt lat="54.10868" lon="23.34677">
        <ele>133.99868</ele>
        <time>2020-10-07T03:41:48.101Z</time>
      </trkpt>
      <trkpt lat="54.10869" lon="23.34672">
        <ele>134.038888</ele>
        <time>2020-10-07T03:41:49.404Z</time>
      </trkpt>
      <trkpt lat="54.10869" lon="23.34667">
        <ele>134.074298</ele>
        <time>2020-10-07T03:41:50.324Z</time>
      </trkpt>
      <trkpt lat="54.10862" lon="23.34651">
        <ele>134.223565</ele>
        <time>2020-10-07T03:41:53.733Z</time>
      </trkpt>
      <trkpt lat="54.10846" lon="23.34634">
        <ele>134.464859</ele>
        <time>2020-10-07T03:41:58.546Z</time>
      </trkpt>
      <trkpt lat="54.10842" lon="23.34635">
        <ele>134.521866</ele>
        <time>2020-10-07T03:42:00.188Z</time>
      </trkpt>
      <trkpt lat="54.10841" lon="23.34629">
        <ele>134.567384</ele>
        <time>2020-10-07T03:42:01.380Z</time>
      </trkpt>
      <trkpt lat="54.10782" lon="23.34545">
        <ele>135.162782</ele>
        <time>2020-10-07T03:42:22.137Z</time>
      </trkpt>
      <trkpt lat="54.10778" lon="23.34535">
        <ele>135.203033</ele>
        <time>2020-10-07T03:42:24.166Z</time>
      </trkpt>
      <trkpt lat="54.10776" lon="23.34536">
        <ele>135.21846</ele>
        <time>2020-10-07T03:42:24.728Z</time>
      </trkpt>
      <trkpt lat="54.10732" lon="23.34535">
        <ele>135.461893</ele>
        <time>2020-10-07T03:42:35.503Z</time>
      </trkpt>
      <trkpt lat="54.10693" lon="23.34535">
        <ele>135.676957</ele>
        <time>2020-10-07T03:42:44.358Z</time>
      </trkpt>
      <trkpt lat="54.10691" lon="23.34535">
        <ele>135.689742</ele>
        <time>2020-10-07T03:42:44.845Z</time>
      </trkpt>
      <trkpt lat="54.10674" lon="23.34534">
        <ele>135.784214</ele>
        <time>2020-10-07T03:42:48.646Z</time>
      </trkpt>
      <trkpt lat="54.10654" lon="23.34534">
        <ele>135.850115</ele>
        <time>2020-10-07T03:42:52.852Z</time>
      </trkpt>
      <trkpt lat="54.10614" lon="23.34534">
        <ele>135.685024</ele>
        <time>2020-10-07T03:43:01.303Z</time>
      </trkpt>
      <trkpt lat="54.10609" lon="23.34534">
        <ele>135.662984</ele>
        <time>2020-10-07T03:43:02.399Z</time>
      </trkpt>
      <trkpt lat="54.10598" lon="23.34534">
        <ele>135.617655</ele>
        <time>2020-10-07T03:43:04.677Z</time>
      </trkpt>
      <trkpt lat="54.10587" lon="23.34534">
        <ele>135.570665</ele>
        <time>2020-10-07T03:43:07.007Z</time>
      </trkpt>
      <trkpt lat="54.10469" lon="23.34532">
        <ele>135.052786</ele>
        <time>2020-10-07T03:43:31.177Z</time>
      </trkpt>
      <trkpt lat="54.10395" lon="23.34531">
        <ele>134.553453</ele>
        <time>2020-10-07T03:43:45.987Z</time>
      </trkpt>
      <trkpt lat="54.10384" lon="23.34531">
        <ele>134.482503</ele>
        <time>2020-10-07T03:43:48.206Z</time>
      </trkpt>
      <trkpt lat="54.10372" lon="23.34531">
        <ele>134.403441</ele>
        <time>2020-10-07T03:43:50.361Z</time>
      </trkpt>
      <trkpt lat="54.10288" lon="23.34529">
        <ele>133.875467</ele>
        <time>2020-10-07T03:44:07.459Z</time>
      </trkpt>
      <trkpt lat="54.10275" lon="23.34522">
        <ele>133.839967</ele>
        <time>2020-10-07T03:44:10.130Z</time>
      </trkpt>
      <trkpt lat="54.10229" lon="23.34399">
        <ele>133.605983</ele>
        <time>2020-10-07T03:44:27.759Z</time>
      </trkpt>
      <trkpt lat="54.10224" lon="23.34381">
        <ele>133.573599</ele>
        <time>2020-10-07T03:44:30.432Z</time>
      </trkpt>
      <trkpt lat="54.10219" lon="23.34358">
        <ele>133.534653</ele>
        <time>2020-10-07T03:44:33.553Z</time>
      </trkpt>
      <trkpt lat="54.10211" lon="23.34293">
        <ele>133.427623</ele>
        <time>2020-10-07T03:44:42.436Z</time>
      </trkpt>
      <trkpt lat="54.10168" lon="23.33953">
        <ele>134.201015</ele>
        <time>2020-10-07T03:45:31.208Z</time>
      </trkpt>
      <trkpt lat="54.1012" lon="23.33576">
        <ele>135.471145</ele>
        <time>2020-10-07T03:46:25.675Z</time>
      </trkpt>
      <trkpt lat="54.10101" lon="23.33512">
        <ele>135.826205</ele>
        <time>2020-10-07T03:46:36.841Z</time>
      </trkpt>
      <trkpt lat="54.10053" lon="23.33417">
        <ele>136.441552</ele>
        <time>2020-10-07T03:46:56.812Z</time>
      </trkpt>
      <trkpt lat="54.09973" lon="23.33308">
        <ele>137.134352</ele>
        <time>2020-10-07T03:47:23.429Z</time>
      </trkpt>
      <trkpt lat="54.09961" lon="23.3329">
        <ele>137.244709</ele>
        <time>2020-10-07T03:47:27.291Z</time>
      </trkpt>
      <trkpt lat="54.09945" lon="23.33266">
        <ele>137.3895</ele>
        <time>2020-10-07T03:47:32.620Z</time>
      </trkpt>
      <trkpt lat="54.09911" lon="23.33205">
        <ele>137.605362</ele>
        <time>2020-10-07T03:47:43.878Z</time>
      </trkpt>
      <trkpt lat="54.09885" lon="23.33154">
        <ele>137.417374</ele>
        <time>2020-10-07T03:47:52.544Z</time>
      </trkpt>
      <trkpt lat="54.09479" lon="23.3238">
        <ele>134.781823</ele>
        <time>2020-10-07T03:49:57.513Z</time>
      </trkpt>
      <trkpt lat="54.09391" lon="23.32213">
        <ele>134.661417</ele>
        <time>2020-10-07T03:50:27.809Z</time>
      </trkpt>
      <trkpt lat="54.09282" lon="23.32006">
        <ele>134.480574</ele>
        <time>2020-10-07T03:51:04.462Z</time>
      </trkpt>
      <trkpt lat="54.09226" lon="23.31899">
        <ele>134.074968</ele>
        <time>2020-10-07T03:51:21.534Z</time>
      </trkpt>
      <trkpt lat="54.0915" lon="23.31753">
        <ele>133.235575</ele>
        <time>2020-10-07T03:51:43.666Z</time>
      </trkpt>
      <trkpt lat="54.09133" lon="23.31704">
        <ele>132.934579</ele>
        <time>2020-10-07T03:51:50.272Z</time>
      </trkpt>
      <trkpt lat="54.0912" lon="23.31635">
        <ele>132.564601</ele>
        <time>2020-10-07T03:51:58.486Z</time>
      </trkpt>
      <trkpt lat="54.09116" lon="23.31561">
        <ele>132.287388</ele>
        <time>2020-10-07T03:52:07.220Z</time>
      </trkpt>
      <trkpt lat="54.0912" lon="23.31518">
        <ele>132.276088</ele>
        <time>2020-10-07T03:52:12.501Z</time>
      </trkpt>
      <trkpt lat="54.09132" lon="23.31431">
        <ele>132.252731</ele>
        <time>2020-10-07T03:52:24.120Z</time>
      </trkpt>
      <trkpt lat="54.09144" lon="23.31346">
        <ele>132.230002</ele>
        <time>2020-10-07T03:52:35.891Z</time>
      </trkpt>
      <trkpt lat="54.09157" lon="23.31261">
        <ele>132.257856</ele>
        <time>2020-10-07T03:52:47.890Z</time>
      </trkpt>
      <trkpt lat="54.09163" lon="23.31212">
        <ele>132.355172</ele>
        <time>2020-10-07T03:52:55.020Z</time>
      </trkpt>
      <trkpt lat="54.09167" lon="23.31127">
        <ele>132.518833</ele>
        <time>2020-10-07T03:53:07.018Z</time>
      </trkpt>
      <trkpt lat="54.09165" lon="23.31067">
        <ele>132.63605</ele>
        <time>2020-10-07T03:53:15.608Z</time>
      </trkpt>
      <trkpt lat="54.09159" lon="23.30936">
        <ele>132.867397</ele>
        <time>2020-10-07T03:53:33.543Z</time>
      </trkpt>
      <trkpt lat="54.09151" lon="23.3086">
        <ele>132.975871</ele>
        <time>2020-10-07T03:53:43.714Z</time>
      </trkpt>
      <trkpt lat="54.09122" lon="23.30763">
        <ele>133.129847</ele>
        <time>2020-10-07T03:53:58.514Z</time>
      </trkpt>
      <trkpt lat="54.09089" lon="23.30705">
        <ele>133.246831</ele>
        <time>2020-10-07T03:54:09.510Z</time>
      </trkpt>
      <trkpt lat="54.09064" lon="23.30675">
        <ele>133.403025</ele>
        <time>2020-10-07T03:54:16.919Z</time>
      </trkpt>
      <trkpt lat="54.08951" lon="23.30546">
        <ele>134.084276</ele>
        <time>2020-10-07T03:54:50.152Z</time>
      </trkpt>
      <trkpt lat="54.08908" lon="23.30484">
        <ele>134.345439</ele>
        <time>2020-10-07T03:55:03.919Z</time>
      </trkpt>
      <trkpt lat="54.08872" lon="23.30413">
        <ele>134.594669</ele>
        <time>2020-10-07T03:55:16.982Z</time>
      </trkpt>
      <trkpt lat="54.08833" lon="23.303">
        <ele>134.94179</ele>
        <time>2020-10-07T03:55:35.280Z</time>
      </trkpt>
      <trkpt lat="54.08806" lon="23.30185">
        <ele>135.584715</ele>
        <time>2020-10-07T03:55:53.363Z</time>
      </trkpt>
      <trkpt lat="54.08787" lon="23.3011">
        <ele>136.016965</ele>
        <time>2020-10-07T03:56:05.706Z</time>
      </trkpt>
      <trkpt lat="54.08773" lon="23.30065">
        <ele>136.289356</ele>
        <time>2020-10-07T03:56:13.609Z</time>
      </trkpt>
      <trkpt lat="54.0876" lon="23.30025">
        <ele>136.533349</ele>
        <time>2020-10-07T03:56:20.883Z</time>
      </trkpt>
      <trkpt lat="54.08674" lon="23.29755">
        <ele>139.222285</ele>
        <time>2020-10-07T03:57:12.227Z</time>
      </trkpt>
      <trkpt lat="54.0865" lon="23.29699">
        <ele>139.809551</ele>
        <time>2020-10-07T03:57:24.034Z</time>
      </trkpt>
      <trkpt lat="54.08605" lon="23.29649">
        <ele>140.58347</ele>
        <time>2020-10-07T03:57:39.654Z</time>
      </trkpt>
      <trkpt lat="54.08483" lon="23.29586">
        <ele>142.261995</ele>
        <time>2020-10-07T03:58:14.722Z</time>
      </trkpt>
      <trkpt lat="54.08406" lon="23.29557">
        <ele>143.092944</ele>
        <time>2020-10-07T03:58:35.071Z</time>
      </trkpt>
      <trkpt lat="54.08366" lon="23.29547">
        <ele>143.519069</ele>
        <time>2020-10-07T03:58:45.546Z</time>
      </trkpt>
      <trkpt lat="54.08331" lon="23.29539">
        <ele>143.90474</ele>
        <time>2020-10-07T03:58:54.901Z</time>
      </trkpt>
      <trkpt lat="54.08291" lon="23.29531">
        <ele>144.355458</ele>
        <time>2020-10-07T03:59:05.469Z</time>
      </trkpt>
      <trkpt lat="54.08126" lon="23.29493">
        <ele>145.766201</ele>
        <time>2020-10-07T03:59:50.753Z</time>
      </trkpt>
      <trkpt lat="54.08102" lon="23.2949">
        <ele>145.750114</ele>
        <time>2020-10-07T03:59:56.658Z</time>
      </trkpt>
      <trkpt lat="54.08066" lon="23.29498">
        <ele>145.726018</ele>
        <time>2020-10-07T04:00:04.702Z</time>
      </trkpt>
      <trkpt lat="54.08034" lon="23.29513">
        <ele>145.703575</ele>
        <time>2020-10-07T04:00:11.605Z</time>
      </trkpt>
      <trkpt lat="54.07894" lon="23.29573">
        <ele>144.547071</ele>
        <time>2020-10-07T04:00:38.776Z</time>
      </trkpt>
      <trkpt lat="54.07772" lon="23.29621">
        <ele>143.429516</ele>
        <time>2020-10-07T04:01:02.386Z</time>
      </trkpt>
      <trkpt lat="54.07636" lon="23.29617">
        <ele>142.959949</ele>
        <time>2020-10-07T04:01:32.569Z</time>
      </trkpt>
      <trkpt lat="54.07595" lon="23.29642">
        <ele>142.937295</ele>
        <time>2020-10-07T04:01:42.394Z</time>
      </trkpt>
      <trkpt lat="54.07504" lon="23.29735">
        <ele>142.892117</ele>
        <time>2020-10-07T04:02:05.865Z</time>
      </trkpt>
      <trkpt lat="54.07444" lon="23.29796">
        <ele>142.792618</ele>
        <time>2020-10-07T04:02:20.900Z</time>
      </trkpt>
      <trkpt lat="54.07423" lon="23.29814">
        <ele>142.739433</ele>
        <time>2020-10-07T04:02:25.722Z</time>
      </trkpt>
      <trkpt lat="54.07402" lon="23.29825">
        <ele>142.687686</ele>
        <time>2020-10-07T04:02:30.639Z</time>
      </trkpt>
      <trkpt lat="54.07394" lon="23.29825">
        <ele>142.6705</ele>
        <time>2020-10-07T04:02:32.114Z</time>
      </trkpt>
      <trkpt lat="54.07377" lon="23.29819">
        <ele>142.630569</ele>
        <time>2020-10-07T04:02:36.000Z</time>
      </trkpt>
      <trkpt lat="54.06801" lon="23.29551">
        <ele>141.427639</ele>
        <time>2020-10-07T04:04:44.713Z</time>
      </trkpt>
      <trkpt lat="54.06756" lon="23.29537">
        <ele>141.172991</ele>
        <time>2020-10-07T04:04:54.252Z</time>
      </trkpt>
      <trkpt lat="54.06724" lon="23.29541">
        <ele>140.950366</ele>
        <time>2020-10-07T04:05:00.880Z</time>
      </trkpt>
      <trkpt lat="54.06708" lon="23.29547">
        <ele>140.834257</ele>
        <time>2020-10-07T04:05:04.130Z</time>
      </trkpt>
      <trkpt lat="54.067" lon="23.29551">
        <ele>140.77306</ele>
        <time>2020-10-07T04:05:06.126Z</time>
      </trkpt>
      <trkpt lat="54.06609" lon="23.29602">
        <ele>140.057589</ele>
        <time>2020-10-07T04:05:24.949Z</time>
      </trkpt>
      <trkpt lat="54.06575" lon="23.29632">
        <ele>139.469637</ele>
        <time>2020-10-07T04:05:32.145Z</time>
      </trkpt>
      <trkpt lat="54.06551" lon="23.29656">
        <ele>139.036202</ele>
        <time>2020-10-07T04:05:37.348Z</time>
      </trkpt>
      <trkpt lat="54.06471" lon="23.29765">
        <ele>137.460254</ele>
        <time>2020-10-07T04:05:55.564Z</time>
      </trkpt>
      <trkpt lat="54.06441" lon="23.29802">
        <ele>136.816398</ele>
        <time>2020-10-07T04:06:02.193Z</time>
      </trkpt>
      <trkpt lat="54.06411" lon="23.29825">
        <ele>136.24609</ele>
        <time>2020-10-07T04:06:07.967Z</time>
      </trkpt>
      <trkpt lat="54.06253" lon="23.29941">
        <ele>133.551284</ele>
        <time>2020-10-07T04:06:39.006Z</time>
      </trkpt>
      <trkpt lat="54.06243" lon="23.29947">
        <ele>133.43629</ele>
        <time>2020-10-07T04:06:40.923Z</time>
      </trkpt>
      <trkpt lat="54.06233" lon="23.29952">
        <ele>133.317621</ele>
        <time>2020-10-07T04:06:42.773Z</time>
      </trkpt>
      <trkpt lat="54.0621" lon="23.29958">
        <ele>133.053727</ele>
        <time>2020-10-07T04:06:47.313Z</time>
      </trkpt>
      <trkpt lat="54.06196" lon="23.29953">
        <ele>132.893139</ele>
        <time>2020-10-07T04:06:49.881Z</time>
      </trkpt>
      <trkpt lat="54.06115" lon="23.29908">
        <ele>132.244772</ele>
        <time>2020-10-07T04:07:07.231Z</time>
      </trkpt>
      <trkpt lat="54.06095" lon="23.2989">
        <ele>132.36721</ele>
        <time>2020-10-07T04:07:12.206Z</time>
      </trkpt>
      <trkpt lat="54.0606" lon="23.29828">
        <ele>132.634859</ele>
        <time>2020-10-07T04:07:24.401Z</time>
      </trkpt>
      <trkpt lat="54.06037" lon="23.29784">
        <ele>132.819253</ele>
        <time>2020-10-07T04:07:33.258Z</time>
      </trkpt>
      <trkpt lat="54.06031" lon="23.29775">
        <ele>132.865828</ele>
        <time>2020-10-07T04:07:36.043Z</time>
      </trkpt>
      <trkpt lat="54.0601" lon="23.29755">
        <ele>132.992744</ele>
        <time>2020-10-07T04:07:42.009Z</time>
      </trkpt>
      <trkpt lat="54.05868" lon="23.29659">
        <ele>134.363828</ele>
        <time>2020-10-07T04:08:24.085Z</time>
      </trkpt>
      <trkpt lat="54.05777" lon="23.29597">
        <ele>134.76934</ele>
        <time>2020-10-07T04:08:46.635Z</time>
      </trkpt>
      <trkpt lat="54.05748" lon="23.29577">
        <ele>134.736816</ele>
        <time>2020-10-07T04:08:53.444Z</time>
      </trkpt>
      <trkpt lat="54.05699" lon="23.29544">
        <ele>134.682547</ele>
        <time>2020-10-07T04:09:04.578Z</time>
      </trkpt>
      <trkpt lat="54.05676" lon="23.29532">
        <ele>134.657685</ele>
        <time>2020-10-07T04:09:09.630Z</time>
      </trkpt>
      <trkpt lat="54.05644" lon="23.29534">
        <ele>134.642886</ele>
        <time>2020-10-07T04:09:16.144Z</time>
      </trkpt>
      <trkpt lat="54.05514" lon="23.29575">
        <ele>134.735601</ele>
        <time>2020-10-07T04:09:45.550Z</time>
      </trkpt>
      <trkpt lat="54.05477" lon="23.29569">
        <ele>134.761067</ele>
        <time>2020-10-07T04:09:54.329Z</time>
      </trkpt>
      <trkpt lat="54.05463" lon="23.29558">
        <ele>134.906466</ele>
        <time>2020-10-07T04:09:58.254Z</time>
      </trkpt>
      <trkpt lat="54.0545" lon="23.29543">
        <ele>135.052502</ele>
        <time>2020-10-07T04:10:02.191Z</time>
      </trkpt>
      <trkpt lat="54.05436" lon="23.29522">
        <ele>135.220074</ele>
        <time>2020-10-07T04:10:06.738Z</time>
      </trkpt>
      <trkpt lat="54.05361" lon="23.29378">
        <ele>136.266068</ele>
        <time>2020-10-07T04:10:36.574Z</time>
      </trkpt>
      <trkpt lat="54.05351" lon="23.29346">
        <ele>136.472189</ele>
        <time>2020-10-07T04:10:42.617Z</time>
      </trkpt>
      <trkpt lat="54.05269" lon="23.28996">
        <ele>138.255336</ele>
        <time>2020-10-07T04:11:41.798Z</time>
      </trkpt>
      <trkpt lat="54.05259" lon="23.28968">
        <ele>138.213245</ele>
        <time>2020-10-07T04:11:46.270Z</time>
      </trkpt>
      <trkpt lat="54.05176" lon="23.28778">
        <ele>137.610972</ele>
        <time>2020-10-07T04:12:13.971Z</time>
      </trkpt>
      <trkpt lat="54.05155" lon="23.28735">
        <ele>137.116455</ele>
        <time>2020-10-07T04:12:19.869Z</time>
      </trkpt>
      <trkpt lat="54.05099" lon="23.28619">
        <ele>135.802969</ele>
        <time>2020-10-07T04:12:35.651Z</time>
      </trkpt>
      <trkpt lat="54.05088" lon="23.28577">
        <ele>135.403801</ele>
        <time>2020-10-07T04:12:40.450Z</time>
      </trkpt>
      <trkpt lat="54.05076" lon="23.28527">
        <ele>135.167768</ele>
        <time>2020-10-07T04:12:46.383Z</time>
      </trkpt>
      <trkpt lat="54.05062" lon="23.28491">
        <ele>135.048889</ele>
        <time>2020-10-07T04:12:51.458Z</time>
      </trkpt>
      <trkpt lat="54.05051" lon="23.28475">
        <ele>134.982016</ele>
        <time>2020-10-07T04:12:54.259Z</time>
      </trkpt>
      <trkpt lat="54.05039" lon="23.28463">
        <ele>134.91923</ele>
        <time>2020-10-07T04:12:57.256Z</time>
      </trkpt>
      <trkpt lat="54.04968" lon="23.28435">
        <ele>134.578322</ele>
        <time>2020-10-07T04:13:12.825Z</time>
      </trkpt>
      <trkpt lat="54.04935" lon="23.28395">
        <ele>134.467277</ele>
        <time>2020-10-07T04:13:22.279Z</time>
      </trkpt>
      <trkpt lat="54.0492" lon="23.28363">
        <ele>134.527294</ele>
        <time>2020-10-07T04:13:27.992Z</time>
      </trkpt>
      <trkpt lat="54.04911" lon="23.28342">
        <ele>134.565981</ele>
        <time>2020-10-07T04:13:31.731Z</time>
      </trkpt>
      <trkpt lat="54.04888" lon="23.28278">
        <ele>134.675444</ele>
        <time>2020-10-07T04:13:42.286Z</time>
      </trkpt>
      <trkpt lat="54.04866" lon="23.28166">
        <ele>134.850006</ele>
        <time>2020-10-07T04:13:58.618Z</time>
      </trkpt>
      <trkpt lat="54.0486" lon="23.28109">
        <ele>134.892465</ele>
        <time>2020-10-07T04:14:06.336Z</time>
      </trkpt>
      <trkpt lat="54.04887" lon="23.27951">
        <ele>134.897898</ele>
        <time>2020-10-07T04:14:27.556Z</time>
      </trkpt>
      <trkpt lat="54.04891" lon="23.27895">
        <ele>134.899774</ele>
        <time>2020-10-07T04:14:34.977Z</time>
      </trkpt>
      <trkpt lat="54.04892" lon="23.27828">
        <ele>134.896886</ele>
        <time>2020-10-07T04:14:43.641Z</time>
      </trkpt>
      <trkpt lat="54.04896" lon="23.27748">
        <ele>134.859078</ele>
        <time>2020-10-07T04:14:54.221Z</time>
      </trkpt>
      <trkpt lat="54.04911" lon="23.27563">
        <ele>134.771061</ele>
        <time>2020-10-07T04:15:18.517Z</time>
      </trkpt>
      <trkpt lat="54.0491" lon="23.27473">
        <ele>134.526398</ele>
        <time>2020-10-07T04:15:29.678Z</time>
      </trkpt>
      <trkpt lat="54.04892" lon="23.27373">
        <ele>134.127138</ele>
        <time>2020-10-07T04:15:42.223Z</time>
      </trkpt>
      <trkpt lat="54.04857" lon="23.27248">
        <ele>133.603668</ele>
        <time>2020-10-07T04:15:58.129Z</time>
      </trkpt>
      <trkpt lat="54.04847" lon="23.27224">
        <ele>133.491736</ele>
        <time>2020-10-07T04:16:01.634Z</time>
      </trkpt>
      <trkpt lat="54.04836" lon="23.27202">
        <ele>133.385923</ele>
        <time>2020-10-07T04:16:04.862Z</time>
      </trkpt>
      <trkpt lat="54.04827" lon="23.27184">
        <ele>133.299883</ele>
        <time>2020-10-07T04:16:07.524Z</time>
      </trkpt>
      <trkpt lat="54.04807" lon="23.27117">
        <ele>133.019971</ele>
        <time>2020-10-07T04:16:16.308Z</time>
      </trkpt>
      <trkpt lat="54.04806" lon="23.27105">
        <ele>132.973096</ele>
        <time>2020-10-07T04:16:17.690Z</time>
      </trkpt>
      <trkpt lat="54.04797" lon="23.27045">
        <ele>132.744063</ele>
        <time>2020-10-07T04:16:25.110Z</time>
      </trkpt>
      <trkpt lat="54.04788" lon="23.26977">
        <ele>132.487583</ele>
        <time>2020-10-07T04:16:33.615Z</time>
      </trkpt>
      <trkpt lat="54.04779" lon="23.26909">
        <ele>132.599152</ele>
        <time>2020-10-07T04:16:42.626Z</time>
      </trkpt>
      <trkpt lat="54.04775" lon="23.26871">
        <ele>132.686675</ele>
        <time>2020-10-07T04:16:47.895Z</time>
      </trkpt>
      <trkpt lat="54.04772" lon="23.26846">
        <ele>132.744149</ele>
        <time>2020-10-07T04:16:51.221Z</time>
      </trkpt>
      <trkpt lat="54.04772" lon="23.2683">
        <ele>132.781158</ele>
        <time>2020-10-07T04:16:53.680Z</time>
      </trkpt>
      <trkpt lat="54.04788" lon="23.26698">
        <ele>133.087597</ele>
        <time>2020-10-07T04:17:13.093Z</time>
      </trkpt>
      <trkpt lat="54.04803" lon="23.26368">
        <ele>134.346878</ele>
        <time>2020-10-07T04:18:02.578Z</time>
      </trkpt>
      <trkpt lat="54.04874" lon="23.2611">
        <ele>134.385114</ele>
        <time>2020-10-07T04:18:40.832Z</time>
      </trkpt>
      <trkpt lat="54.04879" lon="23.2608">
        <ele>134.360383</ele>
        <time>2020-10-07T04:18:44.659Z</time>
      </trkpt>
      <trkpt lat="54.04911" lon="23.25862">
        <ele>132.958056</ele>
        <time>2020-10-07T04:19:09.835Z</time>
      </trkpt>
      <trkpt lat="54.04935" lon="23.25707">
        <ele>132.149653</ele>
        <time>2020-10-07T04:19:27.336Z</time>
      </trkpt>
      <trkpt lat="54.04935" lon="23.25683">
        <ele>132.056238</ele>
        <time>2020-10-07T04:19:30.100Z</time>
      </trkpt>
      <trkpt lat="54.04933" lon="23.25674">
        <ele>132.016865</ele>
        <time>2020-10-07T04:19:31.123Z</time>
      </trkpt>
      <trkpt lat="54.0493" lon="23.25667">
        <ele>131.985749</ele>
        <time>2020-10-07T04:19:32.126Z</time>
      </trkpt>
      <trkpt lat="54.04906" lon="23.25653">
        <ele>131.815717</ele>
        <time>2020-10-07T04:19:37.341Z</time>
      </trkpt>
      <trkpt lat="54.04817" lon="23.25654">
        <ele>131.302049</ele>
        <time>2020-10-07T04:19:56.153Z</time>
      </trkpt>
      <trkpt lat="54.04726" lon="23.25655">
        <ele>131.650987</ele>
        <time>2020-10-07T04:20:17.924Z</time>
      </trkpt>
      <trkpt lat="54.04675" lon="23.25637">
        <ele>131.853081</ele>
        <time>2020-10-07T04:20:30.857Z</time>
      </trkpt>
      <trkpt lat="54.04591" lon="23.25591">
        <ele>132.310762</ele>
        <time>2020-10-07T04:20:52.410Z</time>
      </trkpt>
      <trkpt lat="54.04525" lon="23.25555">
        <ele>132.7145</ele>
        <time>2020-10-07T04:21:09.306Z</time>
      </trkpt>
      <trkpt lat="54.04439" lon="23.25507">
        <ele>133.064174</ele>
        <time>2020-10-07T04:21:31.897Z</time>
      </trkpt>
      <trkpt lat="54.0441" lon="23.25495">
        <ele>133.099805</ele>
        <time>2020-10-07T04:21:38.808Z</time>
      </trkpt>
      <trkpt lat="54.0439" lon="23.25489">
        <ele>133.125275</ele>
        <time>2020-10-07T04:21:43.702Z</time>
      </trkpt>
      <trkpt lat="54.04343" lon="23.25484">
        <ele>133.182159</ele>
        <time>2020-10-07T04:21:53.928Z</time>
      </trkpt>
      <trkpt lat="54.0431" lon="23.25482">
        <ele>133.222666</ele>
        <time>2020-10-07T04:22:01.144Z</time>
      </trkpt>
      <trkpt lat="54.04316" lon="23.25336">
        <ele>132.688779</ele>
        <time>2020-10-07T04:22:18.757Z</time>
      </trkpt>
      <trkpt lat="54.04332" lon="23.25192">
        <ele>132.066852</ele>
        <time>2020-10-07T04:22:35.432Z</time>
      </trkpt>
      <trkpt lat="54.04341" lon="23.25141">
        <ele>131.856979</ele>
        <time>2020-10-07T04:22:41.444Z</time>
      </trkpt>
      <trkpt lat="54.04398" lon="23.24854">
        <ele>130.874965</ele>
        <time>2020-10-07T04:23:17.689Z</time>
      </trkpt>
      <trkpt lat="54.0446" lon="23.24579">
        <ele>131.015182</ele>
        <time>2020-10-07T04:23:56.925Z</time>
      </trkpt>
      <trkpt lat="54.04463" lon="23.24553">
        <ele>131.17665</ele>
        <time>2020-10-07T04:24:00.639Z</time>
      </trkpt>
      <trkpt lat="54.04464" lon="23.24527">
        <ele>131.337025</ele>
        <time>2020-10-07T04:24:04.512Z</time>
      </trkpt>
      <trkpt lat="54.04479" lon="23.24155">
        <ele>134.21611</ele>
        <time>2020-10-07T04:25:04.553Z</time>
      </trkpt>
      <trkpt lat="54.04506" lon="23.23955">
        <ele>136.478381</ele>
        <time>2020-10-07T04:25:41.576Z</time>
      </trkpt>
      <trkpt lat="54.04507" lon="23.23889">
        <ele>137.362228</ele>
        <time>2020-10-07T04:25:54.246Z</time>
      </trkpt>
      <trkpt lat="54.04498" lon="23.23822">
        <ele>138.293001</ele>
        <time>2020-10-07T04:26:07.603Z</time>
      </trkpt>
      <trkpt lat="54.04483" lon="23.23767">
        <ele>139.098439</ele>
        <time>2020-10-07T04:26:19.023Z</time>
      </trkpt>
      <trkpt lat="54.04447" lon="23.23638">
        <ele>140.527569</ele>
        <time>2020-10-07T04:26:44.535Z</time>
      </trkpt>
      <trkpt lat="54.04428" lon="23.23542">
        <ele>141.003559</ele>
        <time>2020-10-07T04:27:01.168Z</time>
      </trkpt>
      <trkpt lat="54.04408" lon="23.23333">
        <ele>141.500355</ele>
        <time>2020-10-07T04:27:28.510Z</time>
      </trkpt>
      <trkpt lat="54.04407" lon="23.23277">
        <ele>141.323597</ele>
        <time>2020-10-07T04:27:34.805Z</time>
      </trkpt>
      <trkpt lat="54.04439" lon="23.2303">
        <ele>141.069144</ele>
        <time>2020-10-07T04:28:04.644Z</time>
      </trkpt>
      <trkpt lat="54.04446" lon="23.2295">
        <ele>141.495839</ele>
        <time>2020-10-07T04:28:15.851Z</time>
      </trkpt>
      <trkpt lat="54.04445" lon="23.22775">
        <ele>142.542784</ele>
        <time>2020-10-07T04:28:45.980Z</time>
      </trkpt>
      <trkpt lat="54.04434" lon="23.22698">
        <ele>143.622004</ele>
        <time>2020-10-07T04:29:01.489Z</time>
      </trkpt>
      <trkpt lat="54.04411" lon="23.22603">
        <ele>145.032849</ele>
        <time>2020-10-07T04:29:21.713Z</time>
      </trkpt>
      <trkpt lat="54.04387" lon="23.22509">
        <ele>146.421353</ele>
        <time>2020-10-07T04:29:40.870Z</time>
      </trkpt>
      <trkpt lat="54.0434" lon="23.22202">
        <ele>148.343406</ele>
        <time>2020-10-07T04:30:29.854Z</time>
      </trkpt>
      <trkpt lat="54.04307" lon="23.22098">
        <ele>148.373107</ele>
        <time>2020-10-07T04:30:45.064Z</time>
      </trkpt>
      <trkpt lat="54.04284" lon="23.22055">
        <ele>148.387593</ele>
        <time>2020-10-07T04:30:52.391Z</time>
      </trkpt>
      <trkpt lat="54.04255" lon="23.22017">
        <ele>148.403016</ele>
        <time>2020-10-07T04:31:00.158Z</time>
      </trkpt>
      <trkpt lat="54.04031" lon="23.21742">
        <ele>148.476181</ele>
        <time>2020-10-07T04:32:01.932Z</time>
      </trkpt>
      <trkpt lat="54.03992" lon="23.2166">
        <ele>148.551648</ele>
        <time>2020-10-07T04:32:16.131Z</time>
      </trkpt>
      <trkpt lat="54.03964" lon="23.21555">
        <ele>148.615401</ele>
        <time>2020-10-07T04:32:31.709Z</time>
      </trkpt>
      <trkpt lat="54.03955" lon="23.21519">
        <ele>148.592213</ele>
        <time>2020-10-07T04:32:37.056Z</time>
      </trkpt>
      <trkpt lat="54.03902" lon="23.21288">
        <ele>148.44695</ele>
        <time>2020-10-07T04:33:09.346Z</time>
      </trkpt>
      <trkpt lat="54.03767" lon="23.20835">
        <ele>144.065099</ele>
        <time>2020-10-07T04:34:06.679Z</time>
      </trkpt>
      <trkpt lat="54.03728" lon="23.20709">
        <ele>141.598723</ele>
        <time>2020-10-07T04:34:19.820Z</time>
      </trkpt>
      <trkpt lat="54.03708" lon="23.20637">
        <ele>139.28075</ele>
        <time>2020-10-07T04:34:26.793Z</time>
      </trkpt>
      <trkpt lat="54.03682" lon="23.20529">
        <ele>135.884102</ele>
        <time>2020-10-07T04:34:37.016Z</time>
      </trkpt>
      <trkpt lat="54.03674" lon="23.20477">
        <ele>134.310458</ele>
        <time>2020-10-07T04:34:41.749Z</time>
      </trkpt>
      <trkpt lat="54.0367" lon="23.20435">
        <ele>133.41591</ele>
        <time>2020-10-07T04:34:45.448Z</time>
      </trkpt>
      <trkpt lat="54.0366" lon="23.20287">
        <ele>131.522492</ele>
        <time>2020-10-07T04:34:59.797Z</time>
      </trkpt>
      <trkpt lat="54.03656" lon="23.20237">
        <ele>130.879839</ele>
        <time>2020-10-07T04:35:05.212Z</time>
      </trkpt>
      <trkpt lat="54.03652" lon="23.20179">
        <ele>130.132553</ele>
        <time>2020-10-07T04:35:12.977Z</time>
      </trkpt>
      <trkpt lat="54.03652" lon="23.20124">
        <ele>130.019075</ele>
        <time>2020-10-07T04:35:20.983Z</time>
      </trkpt>
      <trkpt lat="54.03659" lon="23.20083">
        <ele>130.420154</ele>
        <time>2020-10-07T04:35:27.559Z</time>
      </trkpt>
      <trkpt lat="54.03662" lon="23.20071">
        <ele>130.53754</ele>
        <time>2020-10-07T04:35:29.720Z</time>
      </trkpt>
      <trkpt lat="54.03667" lon="23.20052">
        <ele>130.732418</ele>
        <time>2020-10-07T04:35:33.379Z</time>
      </trkpt>
      <trkpt lat="54.03675" lon="23.20025">
        <ele>131.015489</ele>
        <time>2020-10-07T04:35:38.116Z</time>
      </trkpt>
      <trkpt lat="54.03685" lon="23.20001">
        <ele>131.29128</ele>
        <time>2020-10-07T04:35:43.644Z</time>
      </trkpt>
      <trkpt lat="54.03714" lon="23.1995">
        <ele>131.95821</ele>
        <time>2020-10-07T04:35:56.564Z</time>
      </trkpt>
      <trkpt lat="54.03749" lon="23.19916">
        <ele>132.598296</ele>
        <time>2020-10-07T04:36:09.240Z</time>
      </trkpt>
      <trkpt lat="54.04123" lon="23.19693">
        <ele>140.619329</ele>
        <time>2020-10-07T04:38:11.320Z</time>
      </trkpt>
      <trkpt lat="54.0416" lon="23.19657">
        <ele>141.017558</ele>
        <time>2020-10-07T04:38:23.402Z</time>
      </trkpt>
      <trkpt lat="54.04172" lon="23.19643">
        <ele>141.148624</ele>
        <time>2020-10-07T04:38:27.186Z</time>
      </trkpt>
      <trkpt lat="54.04185" lon="23.19626">
        <ele>141.300953</ele>
        <time>2020-10-07T04:38:31.787Z</time>
      </trkpt>
      <trkpt lat="54.04202" lon="23.19595">
        <ele>141.535477</ele>
        <time>2020-10-07T04:38:38.014Z</time>
      </trkpt>
      <trkpt lat="54.04227" lon="23.19531">
        <ele>141.957748</ele>
        <time>2020-10-07T04:38:48.897Z</time>
      </trkpt>
      <trkpt lat="54.04371" lon="23.19048">
        <ele>136.905834</ele>
        <time>2020-10-07T04:39:46.207Z</time>
      </trkpt>
      <trkpt lat="54.04437" lon="23.18924">
        <ele>135.322085</ele>
        <time>2020-10-07T04:40:03.509Z</time>
      </trkpt>
      <trkpt lat="54.04618" lon="23.18615">
        <ele>132.487302</ele>
        <time>2020-10-07T04:40:51.952Z</time>
      </trkpt>
      <trkpt lat="54.05098" lon="23.17796">
        <ele>133.808886</ele>
        <time>2020-10-07T04:43:31.485Z</time>
      </trkpt>
      <trkpt lat="54.05252" lon="23.17533">
        <ele>134.076421</ele>
        <time>2020-10-07T04:44:21.009Z</time>
      </trkpt>
      <trkpt lat="54.05216" lon="23.17508">
        <ele>134.105331</ele>
        <time>2020-10-07T04:44:29.749Z</time>
      </trkpt>
      <trkpt lat="54.0518" lon="23.17473">
        <ele>134.159015</ele>
        <time>2020-10-07T04:44:39.059Z</time>
      </trkpt>
      <trkpt lat="54.05046" lon="23.17297">
        <ele>134.482186</ele>
        <time>2020-10-07T04:45:17.656Z</time>
      </trkpt>
      <trkpt lat="54.04967" lon="23.17189">
        <ele>135.003017</ele>
        <time>2020-10-07T04:45:41.473Z</time>
      </trkpt>
      <trkpt lat="54.04886" lon="23.17064">
        <ele>135.944205</ele>
        <time>2020-10-07T04:46:10.241Z</time>
      </trkpt>
      <trkpt lat="54.04876" lon="23.1705">
        <ele>136.099951</ele>
        <time>2020-10-07T04:46:12.982Z</time>
      </trkpt>
      <trkpt lat="54.04868" lon="23.17035">
        <ele>136.252739</ele>
        <time>2020-10-07T04:46:16.924Z</time>
      </trkpt>
      <trkpt lat="54.04854" lon="23.16991">
        <ele>136.622451</ele>
        <time>2020-10-07T04:46:24.393Z</time>
      </trkpt>
      <trkpt lat="54.04852" lon="23.16977">
        <ele>136.729293</ele>
        <time>2020-10-07T04:46:27.337Z</time>
      </trkpt>
      <trkpt lat="54.04852" lon="23.16962">
        <ele>136.837439</ele>
        <time>2020-10-07T04:46:29.585Z</time>
      </trkpt>
      <trkpt lat="54.04882" lon="23.16698">
        <ele>139.317456</ele>
        <time>2020-10-07T04:47:15.221Z</time>
      </trkpt>
      <trkpt lat="54.04896" lon="23.16636">
        <ele>140.010235</ele>
        <time>2020-10-07T04:47:26.375Z</time>
      </trkpt>
      <trkpt lat="54.05089" lon="23.16146">
        <ele>147.697935</ele>
        <time>2020-10-07T04:49:13.488Z</time>
      </trkpt>
      <trkpt lat="54.05096" lon="23.16114">
        <ele>148.199139</ele>
        <time>2020-10-07T04:49:20.221Z</time>
      </trkpt>
      <trkpt lat="54.05097" lon="23.16093">
        <ele>148.498882</ele>
        <time>2020-10-07T04:49:24.895Z</time>
      </trkpt>
      <trkpt lat="54.05069" lon="23.1596">
        <ele>150.44463</ele>
        <time>2020-10-07T04:49:53.975Z</time>
      </trkpt>
      <trkpt lat="54.05038" lon="23.1578">
        <ele>152.962807</ele>
        <time>2020-10-07T04:50:29.099Z</time>
      </trkpt>
      <trkpt lat="54.05027" lon="23.15563">
        <ele>152.53489</ele>
        <time>2020-10-07T04:50:57.646Z</time>
      </trkpt>
      <trkpt lat="54.05029" lon="23.15477">
        <ele>152.267969</ele>
        <time>2020-10-07T04:51:06.642Z</time>
      </trkpt>
      <trkpt lat="54.05072" lon="23.15179">
        <ele>148.021542</ele>
        <time>2020-10-07T04:51:36.946Z</time>
      </trkpt>
      <trkpt lat="54.05082" lon="23.1514">
        <ele>147.5736</ele>
        <time>2020-10-07T04:51:41.341Z</time>
      </trkpt>
      <trkpt lat="54.05156" lon="23.14949">
        <ele>145.864397</ele>
        <time>2020-10-07T04:52:06.072Z</time>
      </trkpt>
      <trkpt lat="54.0517" lon="23.14895">
        <ele>145.491345</ele>
        <time>2020-10-07T04:52:13.575Z</time>
      </trkpt>
      <trkpt lat="54.05174" lon="23.1487">
        <ele>145.569089</ele>
        <time>2020-10-07T04:52:16.999Z</time>
      </trkpt>
      <trkpt lat="54.05178" lon="23.14843">
        <ele>145.652434</ele>
        <time>2020-10-07T04:52:20.695Z</time>
      </trkpt>
      <trkpt lat="54.05203" lon="23.14666">
        <ele>146.198241</ele>
        <time>2020-10-07T04:52:47.064Z</time>
      </trkpt>
      <trkpt lat="54.05224" lon="23.14543">
        <ele>146.76623</ele>
        <time>2020-10-07T04:53:07.334Z</time>
      </trkpt>
      <trkpt lat="54.05239" lon="23.14488">
        <ele>147.119576</ele>
        <time>2020-10-07T04:53:16.992Z</time>
      </trkpt>
      <trkpt lat="54.05295" lon="23.14294">
        <ele>148.323083</ele>
        <time>2020-10-07T04:53:50.302Z</time>
      </trkpt>
      <trkpt lat="54.05318" lon="23.14213">
        <ele>148.691169</ele>
        <time>2020-10-07T04:54:03.770Z</time>
      </trkpt>
      <trkpt lat="54.05329" lon="23.14158">
        <ele>148.923651</ele>
        <time>2020-10-07T04:54:12.147Z</time>
      </trkpt>
      <trkpt lat="54.05327" lon="23.14087">
        <ele>149.210945</ele>
        <time>2020-10-07T04:54:22.315Z</time>
      </trkpt>
      <trkpt lat="54.05264" lon="23.13748">
        <ele>150.180715</ele>
        <time>2020-10-07T04:55:12.521Z</time>
      </trkpt>
      <trkpt lat="54.05261" lon="23.13708">
        <ele>150.275028</ele>
        <time>2020-10-07T04:55:18.098Z</time>
      </trkpt>
      <trkpt lat="54.05264" lon="23.13693">
        <ele>150.310184</ele>
        <time>2020-10-07T04:55:20.281Z</time>
      </trkpt>
      <trkpt lat="54.05266" lon="23.13687">
        <ele>150.328481</ele>
        <time>2020-10-07T04:55:21.361Z</time>
      </trkpt>
      <trkpt lat="54.05295" lon="23.13657">
        <ele>150.462434</ele>
        <time>2020-10-07T04:55:29.464Z</time>
      </trkpt>
      <trkpt lat="54.05375" lon="23.13586">
        <ele>150.817982</ele>
        <time>2020-10-07T04:55:50.928Z</time>
      </trkpt>
      <trkpt lat="54.05377" lon="23.13584">
        <ele>150.828323</ele>
        <time>2020-10-07T04:55:51.551Z</time>
      </trkpt>
      <trkpt lat="54.05396" lon="23.13566">
        <ele>150.909676</ele>
        <time>2020-10-07T04:55:56.762Z</time>
      </trkpt>
      <trkpt lat="54.05413" lon="23.13552">
        <ele>150.959036</ele>
        <time>2020-10-07T04:56:01.153Z</time>
      </trkpt>
      <trkpt lat="54.05484" lon="23.13488">
        <ele>151.175123</ele>
        <time>2020-10-07T04:56:20.257Z</time>
      </trkpt>
      <trkpt lat="54.05564" lon="23.13414">
        <ele>151.349197</ele>
        <time>2020-10-07T04:56:41.354Z</time>
      </trkpt>
      <trkpt lat="54.05829" lon="23.13137">
        <ele>150.397326</ele>
        <time>2020-10-07T04:57:47.017Z</time>
      </trkpt>
      <trkpt lat="54.06068" lon="23.12804">
        <ele>148.564004</ele>
        <time>2020-10-07T04:58:49.605Z</time>
      </trkpt>
      <trkpt lat="54.0609" lon="23.12762">
        <ele>148.344006</ele>
        <time>2020-10-07T04:58:56.406Z</time>
      </trkpt>
      <trkpt lat="54.06095" lon="23.12749">
        <ele>148.284415</ele>
        <time>2020-10-07T04:58:58.238Z</time>
      </trkpt>
      <trkpt lat="54.06099" lon="23.12731">
        <ele>148.212398</ele>
        <time>2020-10-07T04:59:00.451Z</time>
      </trkpt>
      <trkpt lat="54.06111" lon="23.12601">
        <ele>147.4764</ele>
        <time>2020-10-07T04:59:15.794Z</time>
      </trkpt>
      <trkpt lat="54.06149" lon="23.12455">
        <ele>146.370064</ele>
        <time>2020-10-07T04:59:33.788Z</time>
      </trkpt>
      <trkpt lat="54.06178" lon="23.12327">
        <ele>145.262048</ele>
        <time>2020-10-07T04:59:48.407Z</time>
      </trkpt>
      <trkpt lat="54.06196" lon="23.12241">
        <ele>144.41319</ele>
        <time>2020-10-07T04:59:57.983Z</time>
      </trkpt>
      <trkpt lat="54.06214" lon="23.12146">
        <ele>143.478956</ele>
        <time>2020-10-07T05:00:08.675Z</time>
      </trkpt>
      <trkpt lat="54.0622" lon="23.12109">
        <ele>143.123071</ele>
        <time>2020-10-07T05:00:12.904Z</time>
      </trkpt>
      <trkpt lat="54.06223" lon="23.12083">
        <ele>142.922699</ele>
        <time>2020-10-07T05:00:15.767Z</time>
      </trkpt>
      <trkpt lat="54.06228" lon="23.12031">
        <ele>142.586476</ele>
        <time>2020-10-07T05:00:21.498Z</time>
      </trkpt>
      <trkpt lat="54.06235" lon="23.11988">
        <ele>142.301584</ele>
        <time>2020-10-07T05:00:26.472Z</time>
      </trkpt>
      <trkpt lat="54.06254" lon="23.1194">
        <ele>141.936758</ele>
        <time>2020-10-07T05:00:32.958Z</time>
      </trkpt>
      <trkpt lat="54.0629" lon="23.11862">
        <ele>141.306468</ele>
        <time>2020-10-07T05:00:44.428Z</time>
      </trkpt>
      <trkpt lat="54.06299" lon="23.1184">
        <ele>141.138477</ele>
        <time>2020-10-07T05:00:47.454Z</time>
      </trkpt>
      <trkpt lat="54.06312" lon="23.11778">
        <ele>140.702036</ele>
        <time>2020-10-07T05:00:55.363Z</time>
      </trkpt>
      <trkpt lat="54.06337" lon="23.1157">
        <ele>139.285586</ele>
        <time>2020-10-07T05:01:19.446Z</time>
      </trkpt>
      <trkpt lat="54.06343" lon="23.11525">
        <ele>138.928977</ele>
        <time>2020-10-07T05:01:24.249Z</time>
      </trkpt>
      <trkpt lat="54.06351" lon="23.11487">
        <ele>138.433911</ele>
        <time>2020-10-07T05:01:28.483Z</time>
      </trkpt>
      <trkpt lat="54.06365" lon="23.11436">
        <ele>137.760902</ele>
        <time>2020-10-07T05:01:34.155Z</time>
      </trkpt>
      <trkpt lat="54.06385" lon="23.11377">
        <ele>136.933733</ele>
        <time>2020-10-07T05:01:41.120Z</time>
      </trkpt>
      <trkpt lat="54.06403" lon="23.11342">
        <ele>136.367001</ele>
        <time>2020-10-07T05:01:45.881Z</time>
      </trkpt>
      <trkpt lat="54.06416" lon="23.11322">
        <ele>136.008074</ele>
        <time>2020-10-07T05:01:48.870Z</time>
      </trkpt>
      <trkpt lat="54.06425" lon="23.11314">
        <ele>135.807132</ele>
        <time>2020-10-07T05:01:50.480Z</time>
      </trkpt>
      <trkpt lat="54.06466" lon="23.11288">
        <ele>135.044141</ele>
        <time>2020-10-07T05:01:58.135Z</time>
      </trkpt>
      <trkpt lat="54.06625" lon="23.11227">
        <ele>132.872237</ele>
        <time>2020-10-07T05:02:28.643Z</time>
      </trkpt>
      <trkpt lat="54.0664" lon="23.11224">
        <ele>132.871352</ele>
        <time>2020-10-07T05:02:31.918Z</time>
      </trkpt>
      <trkpt lat="54.06657" lon="23.11209">
        <ele>132.870268</ele>
        <time>2020-10-07T05:02:36.036Z</time>
      </trkpt>
      <trkpt lat="54.06662" lon="23.11199">
        <ele>132.869837</ele>
        <time>2020-10-07T05:02:37.670Z</time>
      </trkpt>
      <trkpt lat="54.06683" lon="23.1111">
        <ele>132.866599</ele>
        <time>2020-10-07T05:02:50.446Z</time>
      </trkpt>
      <trkpt lat="54.06705" lon="23.1103">
        <ele>132.863631</ele>
        <time>2020-10-07T05:03:02.595Z</time>
      </trkpt>
      <trkpt lat="54.06733" lon="23.10931">
        <ele>132.903113</ele>
        <time>2020-10-07T05:03:18.748Z</time>
      </trkpt>
      <trkpt lat="54.06747" lon="23.10886">
        <ele>132.934031</ele>
        <time>2020-10-07T05:03:25.568Z</time>
      </trkpt>
      <trkpt lat="54.06762" lon="23.10814">
        <ele>132.981167</ele>
        <time>2020-10-07T05:03:35.706Z</time>
      </trkpt>
      <trkpt lat="54.06764" lon="23.10793">
        <ele>132.994766</ele>
        <time>2020-10-07T05:03:38.594Z</time>
      </trkpt>
      <trkpt lat="54.06776" lon="23.107">
        <ele>133.040572</ele>
        <time>2020-10-07T05:03:58.948Z</time>
      </trkpt>
      <trkpt lat="54.06776" lon="23.10686">
        <ele>133.003453</ele>
        <time>2020-10-07T05:04:01.763Z</time>
      </trkpt>
      <trkpt lat="54.06776" lon="23.10645">
        <ele>132.885735</ele>
        <time>2020-10-07T05:04:10.444Z</time>
      </trkpt>
      <trkpt lat="54.0676" lon="23.10589">
        <ele>132.711526</ele>
        <time>2020-10-07T05:04:23.272Z</time>
      </trkpt>
      <trkpt lat="54.06756" lon="23.10522">
        <ele>132.520264</ele>
        <time>2020-10-07T05:04:37.341Z</time>
      </trkpt>
      <trkpt lat="54.0676" lon="23.10379">
        <ele>132.160847</ele>
        <time>2020-10-07T05:05:06.515Z</time>
      </trkpt>
      <trkpt lat="54.06767" lon="23.10291">
        <ele>132.068292</ele>
        <time>2020-10-07T05:05:25.418Z</time>
      </trkpt>
      <trkpt lat="54.06788" lon="23.10225">
        <ele>131.98988</ele>
        <time>2020-10-07T05:05:41.688Z</time>
      </trkpt>
      <trkpt lat="54.06832" lon="23.10148">
        <ele>131.877911</ele>
        <time>2020-10-07T05:06:05.139Z</time>
      </trkpt>
      <trkpt lat="54.06877" lon="23.10037">
        <ele>131.750208</ele>
        <time>2020-10-07T05:06:34.358Z</time>
      </trkpt>
      <trkpt lat="54.0689" lon="23.09977">
        <ele>131.690682</ele>
        <time>2020-10-07T05:06:47.888Z</time>
      </trkpt>
      <trkpt lat="54.06899" lon="23.09907">
        <ele>131.623278</ele>
        <time>2020-10-07T05:07:03.205Z</time>
      </trkpt>
      <trkpt lat="54.06902" lon="23.09868">
        <ele>131.586588</ele>
        <time>2020-10-07T05:07:11.582Z</time>
      </trkpt>
      <trkpt lat="54.06907" lon="23.0982">
        <ele>131.593099</ele>
        <time>2020-10-07T05:07:22.092Z</time>
      </trkpt>
      <trkpt lat="54.06912" lon="23.09799">
        <ele>131.600316</ele>
        <time>2020-10-07T05:07:26.862Z</time>
      </trkpt>
      <trkpt lat="54.06917" lon="23.09782">
        <ele>131.606646</ele>
        <time>2020-10-07T05:07:31.059Z</time>
      </trkpt>
      <trkpt lat="54.06918" lon="23.09778">
        <ele>131.608017</ele>
        <time>2020-10-07T05:07:31.973Z</time>
      </trkpt>
      <trkpt lat="54.06931" lon="23.09747">
        <ele>131.620271</ele>
        <time>2020-10-07T05:07:40.095Z</time>
      </trkpt>
      <trkpt lat="54.06956" lon="23.09701">
        <ele>131.640652</ele>
        <time>2020-10-07T05:07:53.710Z</time>
      </trkpt>
      <trkpt lat="54.06971" lon="23.09725">
        <ele>131.652236</ele>
        <time>2020-10-07T05:07:58.385Z</time>
      </trkpt>
      <trkpt lat="54.07201" lon="23.10077">
        <ele>133.137781</ele>
        <time>2020-10-07T05:09:13.258Z</time>
      </trkpt>
      <trkpt lat="54.07317" lon="23.1026">
        <ele>134.147227</ele>
        <time>2020-10-07T05:09:54.098Z</time>
      </trkpt>
      <trkpt lat="54.07346" lon="23.10303">
        <ele>134.359775</ele>
        <time>2020-10-07T05:10:03.911Z</time>
      </trkpt>
      <trkpt lat="54.0737" lon="23.10368">
        <ele>134.609187</ele>
        <time>2020-10-07T05:10:14.674Z</time>
      </trkpt>
      <trkpt lat="54.07376" lon="23.10392">
        <ele>134.692335</ele>
        <time>2020-10-07T05:10:18.309Z</time>
      </trkpt>
      <trkpt lat="54.07381" lon="23.10406">
        <ele>134.745524</ele>
        <time>2020-10-07T05:10:20.382Z</time>
      </trkpt>
      <trkpt lat="54.07383" lon="23.10417">
        <ele>134.785334</ele>
        <time>2020-10-07T05:10:21.906Z</time>
      </trkpt>
      <trkpt lat="54.07389" lon="23.10427">
        <ele>134.817156</ele>
        <time>2020-10-07T05:10:23.763Z</time>
      </trkpt>
      <trkpt lat="54.07404" lon="23.10437">
        <ele>134.83299</ele>
        <time>2020-10-07T05:10:27.362Z</time>
      </trkpt>
      <trkpt lat="54.07412" lon="23.10439">
        <ele>134.841711</ele>
        <time>2020-10-07T05:10:29.286Z</time>
      </trkpt>
      <trkpt lat="54.07495" lon="23.10339">
        <ele>134.940958</ele>
        <time>2020-10-07T05:10:52.408Z</time>
      </trkpt>
      <trkpt lat="54.07544" lon="23.10273">
        <ele>135.054829</ele>
        <time>2020-10-07T05:11:06.078Z</time>
      </trkpt>
      <trkpt lat="54.0755" lon="23.10264">
        <ele>135.102028</ele>
        <time>2020-10-07T05:11:08.589Z</time>
      </trkpt>
      <trkpt lat="54.076" lon="23.10222">
        <ele>135.411486</ele>
        <time>2020-10-07T05:11:21.682Z</time>
      </trkpt>
      <trkpt lat="54.07628" lon="23.10219">
        <ele>135.572147</ele>
        <time>2020-10-07T05:11:29.010Z</time>
      </trkpt>
      <trkpt lat="54.07689" lon="23.10256">
        <ele>135.9343</ele>
        <time>2020-10-07T05:11:45.587Z</time>
      </trkpt>
      <trkpt lat="54.0774" lon="23.10303">
        <ele>136.194465</ele>
        <time>2020-10-07T05:11:59.539Z</time>
      </trkpt>
      <trkpt lat="54.07748" lon="23.10311">
        <ele>136.231597</ele>
        <time>2020-10-07T05:12:01.771Z</time>
      </trkpt>
      <trkpt lat="54.07773" lon="23.10302">
        <ele>136.339301</ele>
        <time>2020-10-07T05:12:11.462Z</time>
      </trkpt>
      <trkpt lat="54.07794" lon="23.10285">
        <ele>136.434</ele>
        <time>2020-10-07T05:12:20.113Z</time>
      </trkpt>
      <trkpt lat="54.07824" lon="23.1022">
        <ele>136.638669</ele>
        <time>2020-10-07T05:12:38.429Z</time>
      </trkpt>
      <trkpt lat="54.07991" lon="23.09968">
        <ele>138.44753</ele>
        <time>2020-10-07T05:14:07.701Z</time>
      </trkpt>
      <trkpt lat="54.08029" lon="23.09933">
        <ele>139.192753</ele>
        <time>2020-10-07T05:14:27.072Z</time>
      </trkpt>
      <trkpt lat="54.08106" lon="23.09912">
        <ele>140.543104</ele>
        <time>2020-10-07T05:15:02.847Z</time>
      </trkpt>
      <trkpt lat="54.08154" lon="23.09873">
        <ele>141.24531</ele>
        <time>2020-10-07T05:15:26.655Z</time>
      </trkpt>
      <trkpt lat="54.08203" lon="23.09823">
        <ele>140.974336</ele>
        <time>2020-10-07T05:15:50.451Z</time>
      </trkpt>
      <trkpt lat="54.08225" lon="23.0977">
        <ele>140.798134</ele>
        <time>2020-10-07T05:16:04.709Z</time>
      </trkpt>
      <trkpt lat="54.08278" lon="23.09549">
        <ele>138.637644</ele>
        <time>2020-10-07T05:16:47.788Z</time>
      </trkpt>
      <trkpt lat="54.08286" lon="23.09532">
        <ele>138.288684</ele>
        <time>2020-10-07T05:16:51.790Z</time>
      </trkpt>
      <trkpt lat="54.08287" lon="23.0953">
        <ele>138.244534</ele>
        <time>2020-10-07T05:16:52.147Z</time>
      </trkpt>
      <trkpt lat="54.08287" lon="23.09524">
        <ele>138.149175</ele>
        <time>2020-10-07T05:16:52.666Z</time>
      </trkpt>
      <trkpt lat="54.08291" lon="23.09511">
        <ele>137.911345</ele>
        <time>2020-10-07T05:16:54.230Z</time>
      </trkpt>
      <trkpt lat="54.0827" lon="23.09357">
        <ele>135.459853</ele>
        <time>2020-10-07T05:17:09.865Z</time>
      </trkpt>
      <trkpt lat="54.08264" lon="23.09309">
        <ele>135.18623</ele>
        <time>2020-10-07T05:17:14.766Z</time>
      </trkpt>
      <trkpt lat="54.08259" lon="23.09269">
        <ele>134.960516</ele>
        <time>2020-10-07T05:17:18.777Z</time>
      </trkpt>
      <trkpt lat="54.08251" lon="23.0918">
        <ele>134.466014</ele>
        <time>2020-10-07T05:17:29.854Z</time>
      </trkpt>
      <trkpt lat="54.08249" lon="23.0914">
        <ele>134.24863</ele>
        <time>2020-10-07T05:17:35.217Z</time>
      </trkpt>
      <trkpt lat="54.08249" lon="23.09135">
        <ele>134.216582</ele>
        <time>2020-10-07T05:17:36.226Z</time>
      </trkpt>
      <trkpt lat="54.08249" lon="23.09131">
        <ele>134.194485</ele>
        <time>2020-10-07T05:17:36.946Z</time>
      </trkpt>
      <trkpt lat="54.08249" lon="23.09111">
        <ele>134.084398</ele>
        <time>2020-10-07T05:17:40.432Z</time>
      </trkpt>
      <trkpt lat="54.08249" lon="23.09062">
        <ele>133.819445</ele>
        <time>2020-10-07T05:17:49.234Z</time>
      </trkpt>
      <trkpt lat="54.0825" lon="23.08998">
        <ele>133.885837</ele>
        <time>2020-10-07T05:18:00.616Z</time>
      </trkpt>
      <trkpt lat="54.0825" lon="23.08927">
        <ele>133.958796</ele>
        <time>2020-10-07T05:18:13.226Z</time>
      </trkpt>
      <trkpt lat="54.08245" lon="23.08914">
        <ele>133.974516</ele>
        <time>2020-10-07T05:18:15.685Z</time>
      </trkpt>
      <trkpt lat="54.08246" lon="23.08906">
        <ele>133.982738</ele>
        <time>2020-10-07T05:18:17.174Z</time>
      </trkpt>
      <trkpt lat="54.08246" lon="23.08899">
        <ele>133.989668</ele>
        <time>2020-10-07T05:18:18.378Z</time>
      </trkpt>
      <trkpt lat="54.08252" lon="23.08897">
        <ele>134.000673</ele>
        <time>2020-10-07T05:18:20.312Z</time>
      </trkpt>
      <trkpt lat="54.08252" lon="23.08886">
        <ele>134.011501</ele>
        <time>2020-10-07T05:18:22.222Z</time>
      </trkpt>
      <trkpt lat="54.08257" lon="23.08886">
        <ele>134.019225</ele>
        <time>2020-10-07T05:18:23.606Z</time>
      </trkpt>
      <trkpt lat="54.08262" lon="23.08887">
        <ele>134.027836</ele>
        <time>2020-10-07T05:18:25.011Z</time>
      </trkpt>
      <trkpt lat="54.08263" lon="23.08835">
        <ele>134.081</ele>
        <time>2020-10-07T05:18:34.232Z</time>
      </trkpt>
      <trkpt lat="54.0827" lon="23.08828">
        <ele>134.095236</ele>
        <time>2020-10-07T05:18:36.573Z</time>
      </trkpt>
      <trkpt lat="54.0827" lon="23.08821">
        <ele>134.103161</ele>
        <time>2020-10-07T05:18:37.802Z</time>
      </trkpt>
      <trkpt lat="54.0827" lon="23.08813">
        <ele>134.111093</ele>
        <time>2020-10-07T05:18:39.207Z</time>
      </trkpt>
      <trkpt lat="54.08263" lon="23.08799">
        <ele>134.129224</ele>
        <time>2020-10-07T05:18:42.379Z</time>
      </trkpt>
      <trkpt lat="54.08266" lon="23.08711">
        <ele>134.254015</ele>
        <time>2020-10-07T05:18:57.646Z</time>
      </trkpt>
      <trkpt lat="54.08266" lon="23.08703">
        <ele>134.265473</ele>
        <time>2020-10-07T05:18:58.881Z</time>
      </trkpt>
      <trkpt lat="54.08273" lon="23.08294">
        <ele>135.404972</ele>
        <time>2020-10-07T05:19:55.862Z</time>
      </trkpt>
      <trkpt lat="54.08276" lon="23.08221">
        <ele>135.717229</ele>
        <time>2020-10-07T05:20:07.797Z</time>
      </trkpt>
      <trkpt lat="54.0828" lon="23.08216">
        <ele>135.75602</ele>
        <time>2020-10-07T05:20:08.979Z</time>
      </trkpt>
      <trkpt lat="54.08281" lon="23.08206">
        <ele>135.797421</ele>
        <time>2020-10-07T05:20:10.499Z</time>
      </trkpt>
      <trkpt lat="54.08282" lon="23.08198">
        <ele>135.831511</ele>
        <time>2020-10-07T05:20:12.187Z</time>
      </trkpt>
      <trkpt lat="54.08277" lon="23.08188">
        <ele>135.888186</ele>
        <time>2020-10-07T05:20:14.305Z</time>
      </trkpt>
      <trkpt lat="54.08277" lon="23.08105">
        <ele>136.44428</ele>
        <time>2020-10-07T05:20:27.575Z</time>
      </trkpt>
      <trkpt lat="54.08271" lon="23.08016">
        <ele>137.050814</ele>
        <time>2020-10-07T05:20:42.235Z</time>
      </trkpt>
      <trkpt lat="54.08267" lon="23.0799">
        <ele>137.230924</ele>
        <time>2020-10-07T05:20:46.727Z</time>
      </trkpt>
      <trkpt lat="54.08262" lon="23.07963">
        <ele>137.417361</ele>
        <time>2020-10-07T05:20:50.996Z</time>
      </trkpt>
      <trkpt lat="54.08232" lon="23.07849">
        <ele>138.129933</ele>
        <time>2020-10-07T05:21:09.843Z</time>
      </trkpt>
      <trkpt lat="54.08133" lon="23.0755">
        <ele>139.444683</ele>
        <time>2020-10-07T05:21:59.848Z</time>
      </trkpt>
      <trkpt lat="54.08121" lon="23.07514">
        <ele>139.577138</ele>
        <time>2020-10-07T05:22:05.718Z</time>
      </trkpt>
      <trkpt lat="54.08115" lon="23.0752">
        <ele>139.618567</ele>
        <time>2020-10-07T05:22:08.016Z</time>
      </trkpt>
      <trkpt lat="54.08109" lon="23.07525">
        <ele>139.65136</ele>
        <time>2020-10-07T05:22:09.804Z</time>
      </trkpt>
      <trkpt lat="54.081" lon="23.07496">
        <ele>139.75873</ele>
        <time>2020-10-07T05:22:15.963Z</time>
      </trkpt>
      <trkpt lat="54.08096" lon="23.07482">
        <ele>139.809558</ele>
        <time>2020-10-07T05:22:18.868Z</time>
      </trkpt>
      <trkpt lat="54.08088" lon="23.07455">
        <ele>139.905461</ele>
        <time>2020-10-07T05:22:24.272Z</time>
      </trkpt>
      <trkpt lat="54.08075" lon="23.07405">
        <ele>140.084664</ele>
        <time>2020-10-07T05:22:34.516Z</time>
      </trkpt>
      <trkpt lat="54.0806" lon="23.0735">
        <ele>140.271637</ele>
        <time>2020-10-07T05:22:45.691Z</time>
      </trkpt>
      <trkpt lat="54.08023" lon="23.07205">
        <ele>140.747063</ele>
        <time>2020-10-07T05:23:14.666Z</time>
      </trkpt>
      <trkpt lat="54.07946" lon="23.06909">
        <ele>141.695449</ele>
        <time>2020-10-07T05:24:14.900Z</time>
      </trkpt>
      <trkpt lat="54.07951" lon="23.06906">
        <ele>141.722881</ele>
        <time>2020-10-07T05:24:16.692Z</time>
      </trkpt>
      <trkpt lat="54.07955" lon="23.06903">
        <ele>141.742265</ele>
        <time>2020-10-07T05:24:17.920Z</time>
      </trkpt>
      <trkpt lat="54.07952" lon="23.06878">
        <ele>141.814435</ele>
        <time>2020-10-07T05:24:22.395Z</time>
      </trkpt>
      <trkpt lat="54.07951" lon="23.06871">
        <ele>141.83676</ele>
        <time>2020-10-07T05:24:23.834Z</time>
      </trkpt>
      <trkpt lat="54.07956" lon="23.06869">
        <ele>141.862371</ele>
        <time>2020-10-07T05:24:25.638Z</time>
      </trkpt>
      <trkpt lat="54.08085" lon="23.06873">
        <ele>142.384124</ele>
        <time>2020-10-07T05:25:14.986Z</time>
      </trkpt>
      <trkpt lat="54.08173" lon="23.06737">
        <ele>142.801567</ele>
        <time>2020-10-07T05:26:01.635Z</time>
      </trkpt>
      <trkpt lat="54.08219" lon="23.06726">
        <ele>142.936806</ele>
        <time>2020-10-07T05:26:19.693Z</time>
      </trkpt>
      <trkpt lat="54.0826" lon="23.06699">
        <ele>143.066183</ele>
        <time>2020-10-07T05:26:36.672Z</time>
      </trkpt>
      <trkpt lat="54.08265" lon="23.06696">
        <ele>143.081146</ele>
        <time>2020-10-07T05:26:39.014Z</time>
      </trkpt>
      <trkpt lat="54.08271" lon="23.0669">
        <ele>143.099854</ele>
        <time>2020-10-07T05:26:41.168Z</time>
      </trkpt>
      <trkpt lat="54.08296" lon="23.06577">
        <ele>142.96752</ele>
        <time>2020-10-07T05:27:07.210Z</time>
      </trkpt>
      <trkpt lat="54.0833" lon="23.06481">
        <ele>142.577443</ele>
        <time>2020-10-07T05:27:30.533Z</time>
      </trkpt>
      <trkpt lat="54.08358" lon="23.06374">
        <ele>142.171161</ele>
        <time>2020-10-07T05:27:53.664Z</time>
      </trkpt>
      <trkpt lat="54.08399" lon="23.06319">
        <ele>141.955958</ele>
        <time>2020-10-07T05:28:11.480Z</time>
      </trkpt>
      <trkpt lat="54.08425" lon="23.06242">
        <ele>141.753797</ele>
        <time>2020-10-07T05:28:29.742Z</time>
      </trkpt>
      <trkpt lat="54.08501" lon="23.06171">
        <ele>141.4539</ele>
        <time>2020-10-07T05:29:01.633Z</time>
      </trkpt>
      <trkpt lat="54.0852" lon="23.06141">
        <ele>141.55321</ele>
        <time>2020-10-07T05:29:11.513Z</time>
      </trkpt>
      <trkpt lat="54.08587" lon="23.06004">
        <ele>141.958136</ele>
        <time>2020-10-07T05:29:53.264Z</time>
      </trkpt>
      <trkpt lat="54.08597" lon="23.05999">
        <ele>141.998699</ele>
        <time>2020-10-07T05:29:57.258Z</time>
      </trkpt>
      <trkpt lat="54.08637" lon="23.0601">
        <ele>142.104231</ele>
        <time>2020-10-07T05:30:13.072Z</time>
      </trkpt>
      <trkpt lat="54.08643" lon="23.06007">
        <ele>142.076668</ele>
        <time>2020-10-07T05:30:15.844Z</time>
      </trkpt>
      <trkpt lat="54.08647" lon="23.05997">
        <ele>142.047605</ele>
        <time>2020-10-07T05:30:18.545Z</time>
      </trkpt>
      <trkpt lat="54.08662" lon="23.05464">
        <ele>140.313677</ele>
        <time>2020-10-07T05:32:07.740Z</time>
      </trkpt>
      <trkpt lat="54.08677" lon="23.05279">
        <ele>139.793705</ele>
        <time>2020-10-07T05:32:45.440Z</time>
      </trkpt>
      <trkpt lat="54.0868" lon="23.05175">
        <ele>139.551233</ele>
        <time>2020-10-07T05:33:07.343Z</time>
      </trkpt>
      <trkpt lat="54.0868" lon="23.05173">
        <ele>139.545129</ele>
        <time>2020-10-07T05:33:07.871Z</time>
      </trkpt>
      <trkpt lat="54.08687" lon="23.05019">
        <ele>140.195574</ele>
        <time>2020-10-07T05:33:42.653Z</time>
      </trkpt>
      <trkpt lat="54.0869" lon="23.04927">
        <ele>140.961045</ele>
        <time>2020-10-07T05:34:05.978Z</time>
      </trkpt>
      <trkpt lat="54.087" lon="23.04808">
        <ele>141.959966</ele>
        <time>2020-10-07T05:34:38.314Z</time>
      </trkpt>
      <trkpt lat="54.08717" lon="23.0474">
        <ele>143.302486</ele>
        <time>2020-10-07T05:34:58.866Z</time>
      </trkpt>
      <trkpt lat="54.08732" lon="23.04699">
        <ele>144.185874</ele>
        <time>2020-10-07T05:35:12.962Z</time>
      </trkpt>
      <trkpt lat="54.08813" lon="23.04525">
        <ele>148.221031</ele>
        <time>2020-10-07T05:36:19.517Z</time>
      </trkpt>
      <trkpt lat="54.08845" lon="23.04466">
        <ele>149.721854</ele>
        <time>2020-10-07T05:36:42.597Z</time>
      </trkpt>
      <trkpt lat="54.08847" lon="23.04443">
        <ele>150.150779</ele>
        <time>2020-10-07T05:36:49.555Z</time>
      </trkpt>
      <trkpt lat="54.08848" lon="23.04369">
        <ele>151.527649</ele>
        <time>2020-10-07T05:37:10.553Z</time>
      </trkpt>
      <trkpt lat="54.0884" lon="23.04317">
        <ele>152.511418</ele>
        <time>2020-10-07T05:37:26.203Z</time>
      </trkpt>
      <trkpt lat="54.08821" lon="23.04249">
        <ele>154.082029</ele>
        <time>2020-10-07T05:37:48.654Z</time>
      </trkpt>
      <trkpt lat="54.08784" lon="23.04177">
        <ele>156.293983</ele>
        <time>2020-10-07T05:38:17.446Z</time>
      </trkpt>
      <trkpt lat="54.08753" lon="23.04046">
        <ele>159.522697</ele>
        <time>2020-10-07T05:39:01.657Z</time>
      </trkpt>
      <trkpt lat="54.0875" lon="23.03999">
        <ele>160.596556</ele>
        <time>2020-10-07T05:39:17.394Z</time>
      </trkpt>
      <trkpt lat="54.0876" lon="23.03939">
        <ele>161.99625</ele>
        <time>2020-10-07T05:39:38.457Z</time>
      </trkpt>
      <trkpt lat="54.08762" lon="23.0389">
        <ele>163.08601</ele>
        <time>2020-10-07T05:39:54.656Z</time>
      </trkpt>
      <trkpt lat="54.08751" lon="23.03847">
        <ele>164.127136</ele>
        <time>2020-10-07T05:40:09.435Z</time>
      </trkpt>
      <trkpt lat="54.08737" lon="23.03831">
        <ele>164.756356</ele>
        <time>2020-10-07T05:40:18.161Z</time>
      </trkpt>
      <trkpt lat="54.08694" lon="23.03828">
        <ele>166.394072</ele>
        <time>2020-10-07T05:40:39.480Z</time>
      </trkpt>
      <trkpt lat="54.08672" lon="23.03838">
        <ele>167.118027</ele>
        <time>2020-10-07T05:40:49.933Z</time>
      </trkpt>
      <trkpt lat="54.0865" lon="23.03838">
        <ele>167.379644</ele>
        <time>2020-10-07T05:40:59.779Z</time>
      </trkpt>
      <trkpt lat="54.08635" lon="23.03829">
        <ele>167.565367</ele>
        <time>2020-10-07T05:41:06.859Z</time>
      </trkpt>
      <trkpt lat="54.0859" lon="23.03829">
        <ele>168.083942</ele>
        <time>2020-10-07T05:41:25.571Z</time>
      </trkpt>
      <trkpt lat="54.08502" lon="23.038">
        <ele>169.129604</ele>
        <time>2020-10-07T05:42:00.817Z</time>
      </trkpt>
      <trkpt lat="54.08481" lon="23.03786">
        <ele>169.221255</ele>
        <time>2020-10-07T05:42:09.511Z</time>
      </trkpt>
      <trkpt lat="54.0847" lon="23.03776">
        <ele>169.25875</ele>
        <time>2020-10-07T05:42:14.189Z</time>
      </trkpt>
      <trkpt lat="54.08397" lon="23.03642">
        <ele>169.583377</ele>
        <time>2020-10-07T05:42:56.027Z</time>
      </trkpt>
      <trkpt lat="54.08382" lon="23.03632">
        <ele>169.631017</ele>
        <time>2020-10-07T05:43:02.213Z</time>
      </trkpt>
      <trkpt lat="54.08349" lon="23.03573">
        <ele>169.418864</ele>
        <time>2020-10-07T05:43:20.503Z</time>
      </trkpt>
      <trkpt lat="54.08332" lon="23.03436">
        <ele>168.450304</ele>
        <time>2020-10-07T05:43:48.643Z</time>
      </trkpt>
      <trkpt lat="54.08327" lon="23.03397">
        <ele>168.171129</ele>
        <time>2020-10-07T05:43:56.167Z</time>
      </trkpt>
      <trkpt lat="54.08293" lon="23.03333">
        <ele>167.57088</ele>
        <time>2020-10-07T05:44:11.962Z</time>
      </trkpt>
      <trkpt lat="54.08281" lon="23.03301">
        <ele>166.986866</ele>
        <time>2020-10-07T05:44:18.753Z</time>
      </trkpt>
      <trkpt lat="54.08232" lon="23.0311">
        <ele>163.776639</ele>
        <time>2020-10-07T05:44:55.817Z</time>
      </trkpt>
      <trkpt lat="54.08204" lon="23.03041">
        <ele>162.569653</ele>
        <time>2020-10-07T05:45:10.679Z</time>
      </trkpt>
      <trkpt lat="54.08198" lon="23.02971">
        <ele>161.712593</ele>
        <time>2020-10-07T05:45:23.599Z</time>
      </trkpt>
      <trkpt lat="54.0822" lon="23.02908">
        <ele>160.833806</ele>
        <time>2020-10-07T05:45:36.839Z</time>
      </trkpt>
      <trkpt lat="54.08243" lon="23.02809">
        <ele>159.55688</ele>
        <time>2020-10-07T05:45:56.787Z</time>
      </trkpt>
      <trkpt lat="54.08247" lon="23.02733">
        <ele>159.223994</ele>
        <time>2020-10-07T05:46:12.057Z</time>
      </trkpt>
      <trkpt lat="54.08245" lon="23.02702">
        <ele>159.251344</ele>
        <time>2020-10-07T05:46:18.139Z</time>
      </trkpt>
      <trkpt lat="54.08238" lon="23.02664">
        <ele>159.286768</ele>
        <time>2020-10-07T05:46:26.694Z</time>
      </trkpt>
      <trkpt lat="54.08238" lon="23.0262">
        <ele>159.325725</ele>
        <time>2020-10-07T05:46:36.288Z</time>
      </trkpt>
      <trkpt lat="54.08281" lon="23.0252">
        <ele>159.435858</ele>
        <time>2020-10-07T05:47:05.399Z</time>
      </trkpt>
      <trkpt lat="54.08283" lon="23.02492">
        <ele>159.507526</ele>
        <time>2020-10-07T05:47:12.134Z</time>
      </trkpt>
      <trkpt lat="54.08206" lon="23.02335">
        <ele>161.702515</ele>
        <time>2020-10-07T05:48:06.828Z</time>
      </trkpt>
      <trkpt lat="54.08202" lon="23.0228">
        <ele>162.284315</ele>
        <time>2020-10-07T05:48:21.276Z</time>
      </trkpt>
      <trkpt lat="54.0821" lon="23.02201">
        <ele>162.970809</ele>
        <time>2020-10-07T05:48:42.355Z</time>
      </trkpt>
      <trkpt lat="54.08186" lon="23.02133">
        <ele>163.457837</ele>
        <time>2020-10-07T05:49:02.397Z</time>
      </trkpt>
      <trkpt lat="54.08174" lon="23.02081">
        <ele>163.79976</ele>
        <time>2020-10-07T05:49:16.003Z</time>
      </trkpt>
      <trkpt lat="54.08165" lon="23.01996">
        <ele>164.327615</ele>
        <time>2020-10-07T05:49:36.253Z</time>
      </trkpt>
      <trkpt lat="54.08166" lon="23.01917">
        <ele>164.465761</ele>
        <time>2020-10-07T05:49:54.093Z</time>
      </trkpt>
      <trkpt lat="54.08159" lon="23.01816">
        <ele>164.020141</ele>
        <time>2020-10-07T05:50:16.007Z</time>
      </trkpt>
      <trkpt lat="54.0816" lon="23.01795">
        <ele>163.929055</ele>
        <time>2020-10-07T05:50:20.158Z</time>
      </trkpt>
      <trkpt lat="54.08166" lon="23.01778">
        <ele>163.840233</ele>
        <time>2020-10-07T05:50:24.251Z</time>
      </trkpt>
      <trkpt lat="54.08233" lon="23.01654">
        <ele>162.648389</ele>
        <time>2020-10-07T05:50:56.628Z</time>
      </trkpt>
      <trkpt lat="54.08239" lon="23.01606">
        <ele>161.859733</ele>
        <time>2020-10-07T05:51:05.784Z</time>
      </trkpt>
      <trkpt lat="54.08237" lon="23.01596">
        <ele>161.677058</ele>
        <time>2020-10-07T05:51:07.693Z</time>
      </trkpt>
      <trkpt lat="54.08233" lon="23.0159">
        <ele>161.539893</ele>
        <time>2020-10-07T05:51:09.298Z</time>
      </trkpt>
      <trkpt lat="54.0825" lon="23.01556">
        <ele>160.815544</ele>
        <time>2020-10-07T05:51:13.763Z</time>
      </trkpt>
      <trkpt lat="54.08279" lon="23.0148">
        <ele>159.348411</ele>
        <time>2020-10-07T05:51:22.437Z</time>
      </trkpt>
      <trkpt lat="54.08299" lon="23.014">
        <ele>157.794168</ele>
        <time>2020-10-07T05:51:30.601Z</time>
      </trkpt>
      <trkpt lat="54.08344" lon="23.01189">
        <ele>152.765184</ele>
        <time>2020-10-07T05:51:51.242Z</time>
      </trkpt>
      <trkpt lat="54.08368" lon="23.01078">
        <ele>150.587788</ele>
        <time>2020-10-07T05:52:06.464Z</time>
      </trkpt>
      <trkpt lat="54.08376" lon="23.01068">
        <ele>150.340654</ele>
        <time>2020-10-07T05:52:08.835Z</time>
      </trkpt>
      <trkpt lat="54.08378" lon="23.0106">
        <ele>150.208517</ele>
        <time>2020-10-07T05:52:09.949Z</time>
      </trkpt>
      <trkpt lat="54.0838" lon="23.01049">
        <ele>150.048198</ele>
        <time>2020-10-07T05:52:11.427Z</time>
      </trkpt>
      <trkpt lat="54.08383" lon="23.01044">
        <ele>149.949418</ele>
        <time>2020-10-07T05:52:12.394Z</time>
      </trkpt>
      <trkpt lat="54.08391" lon="23.01007">
        <ele>149.37461</ele>
        <time>2020-10-07T05:52:17.906Z</time>
      </trkpt>
      <trkpt lat="54.08392" lon="23.00998">
        <ele>149.247621</ele>
        <time>2020-10-07T05:52:19.025Z</time>
      </trkpt>
      <trkpt lat="54.08388" lon="23.0098">
        <ele>148.9712</ele>
        <time>2020-10-07T05:52:21.780Z</time>
      </trkpt>
      <trkpt lat="54.08404" lon="23.00909">
        <ele>147.877361</ele>
        <time>2020-10-07T05:52:32.613Z</time>
      </trkpt>
      <trkpt lat="54.08439" lon="23.00752">
        <ele>146.501719</ele>
        <time>2020-10-07T05:52:57.703Z</time>
      </trkpt>
      <trkpt lat="54.08447" lon="23.00744">
        <ele>146.427422</ele>
        <time>2020-10-07T05:53:00.300Z</time>
      </trkpt>
      <trkpt lat="54.08449" lon="23.00737">
        <ele>146.389344</ele>
        <time>2020-10-07T05:53:01.545Z</time>
      </trkpt>
      <trkpt lat="54.08437" lon="23.0073">
        <ele>146.290293</ele>
        <time>2020-10-07T05:53:04.105Z</time>
      </trkpt>
      <trkpt lat="54.08433" lon="23.00727">
        <ele>146.254018</ele>
        <time>2020-10-07T05:53:05.026Z</time>
      </trkpt>
      <trkpt lat="54.08393" lon="23.00669">
        <ele>145.836606</ele>
        <time>2020-10-07T05:53:15.860Z</time>
      </trkpt>
      <trkpt lat="54.08376" lon="23.00663">
        <ele>145.701569</ele>
        <time>2020-10-07T05:53:19.312Z</time>
      </trkpt>
      <trkpt lat="54.08357" lon="23.00654">
        <ele>145.559236</ele>
        <time>2020-10-07T05:53:23.510Z</time>
      </trkpt>
      <trkpt lat="54.08344" lon="23.00651">
        <ele>145.52835</ele>
        <time>2020-10-07T05:53:26.194Z</time>
      </trkpt>
      <trkpt lat="54.08319" lon="23.00644">
        <ele>145.469192</ele>
        <time>2020-10-07T05:53:31.404Z</time>
      </trkpt>
      <trkpt lat="54.08237" lon="23.00623">
        <ele>145.272098</ele>
        <time>2020-10-07T05:53:49.211Z</time>
      </trkpt>
      <trkpt lat="54.08187" lon="23.00619">
        <ele>145.152502</ele>
        <time>2020-10-07T05:54:00.088Z</time>
      </trkpt>
      <trkpt lat="54.08078" lon="23.00632">
        <ele>145.368039</ele>
        <time>2020-10-07T05:54:24.209Z</time>
      </trkpt>
      <trkpt lat="54.07921" lon="23.0059">
        <ele>146.029723</ele>
        <time>2020-10-07T05:55:03.523Z</time>
      </trkpt>
      <trkpt lat="54.07808" lon="23.00618">
        <ele>146.596817</ele>
        <time>2020-10-07T05:55:32.357Z</time>
      </trkpt>
      <trkpt lat="54.0758" lon="23.00597">
        <ele>146.178031</ele>
        <time>2020-10-07T05:56:21.249Z</time>
      </trkpt>
      <trkpt lat="54.07564" lon="23.00592">
        <ele>146.107853</ele>
        <time>2020-10-07T05:56:24.288Z</time>
      </trkpt>
      <trkpt lat="54.07535" lon="23.00575">
        <ele>145.972727</ele>
        <time>2020-10-07T05:56:30.570Z</time>
      </trkpt>
      <trkpt lat="54.07471" lon="23.00529">
        <ele>145.680526</ele>
        <time>2020-10-07T05:56:44.825Z</time>
      </trkpt>
      <trkpt lat="54.07453" lon="23.00518">
        <ele>145.689769</ele>
        <time>2020-10-07T05:56:48.723Z</time>
      </trkpt>
      <trkpt lat="54.07445" lon="23.00515">
        <ele>145.693918</ele>
        <time>2020-10-07T05:56:50.528Z</time>
      </trkpt>
      <trkpt lat="54.07428" lon="23.00505">
        <ele>145.703176</ele>
        <time>2020-10-07T05:56:54.246Z</time>
      </trkpt>
      <trkpt lat="54.07283" lon="23.00456">
        <ele>145.799964</ele>
        <time>2020-10-07T05:57:28.816Z</time>
      </trkpt>
      <trkpt lat="54.07262" lon="23.00436">
        <ele>145.845496</ele>
        <time>2020-10-07T05:57:34.311Z</time>
      </trkpt>
      <trkpt lat="54.07242" lon="23.00382">
        <ele>145.919246</ele>
        <time>2020-10-07T05:57:43.153Z</time>
      </trkpt>
      <trkpt lat="54.0722" lon="23.00301">
        <ele>146.022369</ele>
        <time>2020-10-07T05:57:55.314Z</time>
      </trkpt>
      <trkpt lat="54.07208" lon="23.00251">
        <ele>146.083872</ele>
        <time>2020-10-07T05:58:02.493Z</time>
      </trkpt>
      <trkpt lat="54.07197" lon="23.00208">
        <ele>146.111747</ele>
        <time>2020-10-07T05:58:08.786Z</time>
      </trkpt>
      <trkpt lat="54.07157" lon="23.00099">
        <ele>146.043312</ele>
        <time>2020-10-07T05:58:25.407Z</time>
      </trkpt>
      <trkpt lat="54.07124" lon="23.00021">
        <ele>145.992251</ele>
        <time>2020-10-07T05:58:37.542Z</time>
      </trkpt>
      <trkpt lat="54.07084" lon="22.99952">
        <ele>145.944738</ele>
        <time>2020-10-07T05:58:49.910Z</time>
      </trkpt>
      <trkpt lat="54.07066" lon="22.9993">
        <ele>145.929214</ele>
        <time>2020-10-07T05:58:54.784Z</time>
      </trkpt>
      <trkpt lat="54.07044" lon="22.99904">
        <ele>145.910466</ele>
        <time>2020-10-07T05:59:00.725Z</time>
      </trkpt>
      <trkpt lat="54.07008" lon="22.99865">
        <ele>145.880817</ele>
        <time>2020-10-07T05:59:10.115Z</time>
      </trkpt>
      <trkpt lat="54.0698" lon="22.99834">
        <ele>145.857581</ele>
        <time>2020-10-07T05:59:17.472Z</time>
      </trkpt>
      <trkpt lat="54.06943" lon="22.99789">
        <ele>145.857106</ele>
        <time>2020-10-07T05:59:27.313Z</time>
      </trkpt>
      <trkpt lat="54.0691" lon="22.99717">
        <ele>146.012571</ele>
        <time>2020-10-07T05:59:39.496Z</time>
      </trkpt>
      <trkpt lat="54.06847" lon="22.99525">
        <ele>146.381315</ele>
        <time>2020-10-07T06:00:10.935Z</time>
      </trkpt>
      <trkpt lat="54.06832" lon="22.9948">
        <ele>146.446702</ele>
        <time>2020-10-07T06:00:17.791Z</time>
      </trkpt>
      <trkpt lat="54.06821" lon="22.99448">
        <ele>146.493018</ele>
        <time>2020-10-07T06:00:22.953Z</time>
      </trkpt>
      <trkpt lat="54.06815" lon="22.99429">
        <ele>146.519983</ele>
        <time>2020-10-07T06:00:25.544Z</time>
      </trkpt>
      <trkpt lat="54.06783" lon="22.99335">
        <ele>146.658056</ele>
        <time>2020-10-07T06:00:40.545Z</time>
      </trkpt>
      <trkpt lat="54.06775" lon="22.99323">
        <ele>146.680545</ele>
        <time>2020-10-07T06:00:42.962Z</time>
      </trkpt>
      <trkpt lat="54.06759" lon="22.99314">
        <ele>146.716174</ele>
        <time>2020-10-07T06:00:47.283Z</time>
      </trkpt>
      <trkpt lat="54.06751" lon="22.99313">
        <ele>146.733833</ele>
        <time>2020-10-07T06:00:49.119Z</time>
      </trkpt>
      <trkpt lat="54.06734" lon="22.99311">
        <ele>146.694495</ele>
        <time>2020-10-07T06:00:52.987Z</time>
      </trkpt>
      <trkpt lat="54.06729" lon="22.99311">
        <ele>146.67308</ele>
        <time>2020-10-07T06:00:54.178Z</time>
      </trkpt>
      <trkpt lat="54.06717" lon="22.99309">
        <ele>146.624923</ele>
        <time>2020-10-07T06:00:56.912Z</time>
      </trkpt>
      <trkpt lat="54.06649" lon="22.99283">
        <ele>146.341937</ele>
        <time>2020-10-07T06:01:11.157Z</time>
      </trkpt>
      <trkpt lat="54.06614" lon="22.99262">
        <ele>146.193142</ele>
        <time>2020-10-07T06:01:18.615Z</time>
      </trkpt>
      <trkpt lat="54.06562" lon="22.99228">
        <ele>145.906834</ele>
        <time>2020-10-07T06:01:29.865Z</time>
      </trkpt>
      <trkpt lat="54.06543" lon="22.99216">
        <ele>145.711751</ele>
        <time>2020-10-07T06:01:34.042Z</time>
      </trkpt>
      <trkpt lat="54.06487" lon="22.99191">
        <ele>145.162514</ele>
        <time>2020-10-07T06:01:45.514Z</time>
      </trkpt>
      <trkpt lat="54.06436" lon="22.99191">
        <ele>144.681855</ele>
        <time>2020-10-07T06:01:55.157Z</time>
      </trkpt>
      <trkpt lat="54.06433" lon="22.99191">
        <ele>144.660857</ele>
        <time>2020-10-07T06:01:55.488Z</time>
      </trkpt>
      <trkpt lat="54.06421" lon="22.99194">
        <ele>144.544606</ele>
        <time>2020-10-07T06:01:57.954Z</time>
      </trkpt>
      <trkpt lat="54.06387" lon="22.99212">
        <ele>144.258174</ele>
        <time>2020-10-07T06:02:04.594Z</time>
      </trkpt>
      <trkpt lat="54.06356" lon="22.99242">
        <ele>144.060527</ele>
        <time>2020-10-07T06:02:11.681Z</time>
      </trkpt>
      <trkpt lat="54.06315" lon="22.99293">
        <ele>143.782688</ele>
        <time>2020-10-07T06:02:21.897Z</time>
      </trkpt>
      <trkpt lat="54.06207" lon="22.99431">
        <ele>143.42683</ele>
        <time>2020-10-07T06:02:50.976Z</time>
      </trkpt>
      <trkpt lat="54.0617" lon="22.99478">
        <ele>143.504541</ele>
        <time>2020-10-07T06:03:01.508Z</time>
      </trkpt>
      <trkpt lat="54.061" lon="22.99568">
        <ele>143.718026</ele>
        <time>2020-10-07T06:03:22.239Z</time>
      </trkpt>
      <trkpt lat="54.0603" lon="22.99656">
        <ele>144.627457</ele>
        <time>2020-10-07T06:03:44.261Z</time>
      </trkpt>
      <trkpt lat="54.05923" lon="22.99789">
        <ele>146.44994</ele>
        <time>2020-10-07T06:04:21.614Z</time>
      </trkpt>
      <trkpt lat="54.05825" lon="22.99917">
        <ele>148.883515</ele>
        <time>2020-10-07T06:04:59.771Z</time>
      </trkpt>
      <trkpt lat="54.05728" lon="23.00045">
        <ele>151.599072</ele>
        <time>2020-10-07T06:05:38.666Z</time>
      </trkpt>
      <trkpt lat="54.05723" lon="23.00052">
        <ele>151.752702</ele>
        <time>2020-10-07T06:05:40.978Z</time>
      </trkpt>
      <trkpt lat="54.05692" lon="23.00086">
        <ele>152.56835</ele>
        <time>2020-10-07T06:05:52.329Z</time>
      </trkpt>
      <trkpt lat="54.0568" lon="23.00093">
        <ele>152.867458</ele>
        <time>2020-10-07T06:05:56.392Z</time>
      </trkpt>
      <trkpt lat="54.05655" lon="23.00069">
        <ele>153.327415</ele>
        <time>2020-10-07T06:06:04.848Z</time>
      </trkpt>
      <trkpt lat="54.05563" lon="22.99964">
        <ele>154.809722</ele>
        <time>2020-10-07T06:06:36.432Z</time>
      </trkpt>
      <trkpt lat="54.05534" lon="22.99932">
        <ele>155.258037</ele>
        <time>2020-10-07T06:06:45.461Z</time>
      </trkpt>
      <trkpt lat="54.05285" lon="22.9965">
        <ele>155.979463</ele>
        <time>2020-10-07T06:07:54.540Z</time>
      </trkpt>
      <trkpt lat="54.05033" lon="22.99368">
        <ele>155.945279</ele>
        <time>2020-10-07T06:08:58.350Z</time>
      </trkpt>
      <trkpt lat="54.04722" lon="22.99017">
        <ele>161.02744</ele>
        <time>2020-10-07T06:10:42.465Z</time>
      </trkpt>
      <trkpt lat="54.0438" lon="22.98627">
        <ele>169.491078</ele>
        <time>2020-10-07T06:12:53.967Z</time>
      </trkpt>
      <trkpt lat="54.04361" lon="22.9862">
        <ele>169.787209</ele>
        <time>2020-10-07T06:12:59.130Z</time>
      </trkpt>
      <trkpt lat="54.04329" lon="22.98608">
        <ele>170.282695</ele>
        <time>2020-10-07T06:13:06.881Z</time>
      </trkpt>
      <trkpt lat="54.04296" lon="22.98591">
        <ele>170.377856</ele>
        <time>2020-10-07T06:13:14.545Z</time>
      </trkpt>
      <trkpt lat="54.04174" lon="22.98534">
        <ele>169.153358</ele>
        <time>2020-10-07T06:13:38.714Z</time>
      </trkpt>
      <trkpt lat="54.04047" lon="22.98492">
        <ele>167.160494</ele>
        <time>2020-10-07T06:14:02.318Z</time>
      </trkpt>
      <trkpt lat="54.03864" lon="22.98443">
        <ele>163.690031</ele>
        <time>2020-10-07T06:14:34.854Z</time>
      </trkpt>
      <trkpt lat="54.03683" lon="22.98385">
        <ele>160.740392</ele>
        <time>2020-10-07T06:15:07.693Z</time>
      </trkpt>
      <trkpt lat="54.03416" lon="22.98294">
        <ele>158.41305</ele>
        <time>2020-10-07T06:16:02.729Z</time>
      </trkpt>
      <trkpt lat="54.0323" lon="22.98229">
        <ele>156.871338</ele>
        <time>2020-10-07T06:16:39.705Z</time>
      </trkpt>
      <trkpt lat="54.03158" lon="22.98204">
        <ele>156.538183</ele>
        <time>2020-10-07T06:16:54.655Z</time>
      </trkpt>
      <trkpt lat="54.03103" lon="22.98182">
        <ele>156.280987</ele>
        <time>2020-10-07T06:17:06.509Z</time>
      </trkpt>
      <trkpt lat="54.03089" lon="22.98171">
        <ele>156.209186</ele>
        <time>2020-10-07T06:17:10.027Z</time>
      </trkpt>
      <trkpt lat="54.03079" lon="22.98165">
        <ele>156.171441</ele>
        <time>2020-10-07T06:17:12.315Z</time>
      </trkpt>
      <trkpt lat="54.0301" lon="22.98096">
        <ele>156.271334</ele>
        <time>2020-10-07T06:17:30.292Z</time>
      </trkpt>
      <trkpt lat="54.02957" lon="22.98047">
        <ele>156.348017</ele>
        <time>2020-10-07T06:17:44.197Z</time>
      </trkpt>
      <trkpt lat="54.02928" lon="22.98029">
        <ele>156.386469</ele>
        <time>2020-10-07T06:17:51.430Z</time>
      </trkpt>
      <trkpt lat="54.02906" lon="22.98023">
        <ele>156.397698</ele>
        <time>2020-10-07T06:17:56.966Z</time>
      </trkpt>
      <trkpt lat="54.02887" lon="22.98018">
        <ele>156.399917</ele>
        <time>2020-10-07T06:18:01.546Z</time>
      </trkpt>
      <trkpt lat="54.02859" lon="22.98008">
        <ele>156.403195</ele>
        <time>2020-10-07T06:18:07.990Z</time>
      </trkpt>
      <trkpt lat="54.02838" lon="22.97995">
        <ele>156.405792</ele>
        <time>2020-10-07T06:18:13.085Z</time>
      </trkpt>
      <trkpt lat="54.02824" lon="22.97976">
        <ele>156.407885</ele>
        <time>2020-10-07T06:18:16.969Z</time>
      </trkpt>
      <trkpt lat="54.02791" lon="22.97935">
        <ele>156.412654</ele>
        <time>2020-10-07T06:18:25.773Z</time>
      </trkpt>
      <trkpt lat="54.02706" lon="22.97969">
        <ele>156.27812</ele>
        <time>2020-10-07T06:18:45.115Z</time>
      </trkpt>
      <trkpt lat="54.02669" lon="22.97984">
        <ele>156.177353</ele>
        <time>2020-10-07T06:18:53.522Z</time>
      </trkpt>
      <trkpt lat="54.02659" lon="22.97988">
        <ele>156.147987</ele>
        <time>2020-10-07T06:18:55.938Z</time>
      </trkpt>
      <trkpt lat="54.02558" lon="22.98027">
        <ele>155.942227</ele>
        <time>2020-10-07T06:19:18.510Z</time>
      </trkpt>
      <trkpt lat="54.02427" lon="22.98081">
        <ele>155.997961</ele>
        <time>2020-10-07T06:19:51.176Z</time>
      </trkpt>
      <trkpt lat="54.02399" lon="22.98092">
        <ele>155.98329</ele>
        <time>2020-10-07T06:19:57.769Z</time>
      </trkpt>
      <trkpt lat="54.02381" lon="22.981">
        <ele>155.922572</ele>
        <time>2020-10-07T06:20:02.005Z</time>
      </trkpt>
      <trkpt lat="54.02364" lon="22.98109">
        <ele>155.868097</ele>
        <time>2020-10-07T06:20:05.715Z</time>
      </trkpt>
      <trkpt lat="54.0236" lon="22.98112">
        <ele>155.852022</ele>
        <time>2020-10-07T06:20:06.818Z</time>
      </trkpt>
      <trkpt lat="54.02341" lon="22.98126">
        <ele>155.784351</ele>
        <time>2020-10-07T06:20:11.448Z</time>
      </trkpt>
      <trkpt lat="54.02323" lon="22.98142">
        <ele>155.71974</ele>
        <time>2020-10-07T06:20:15.842Z</time>
      </trkpt>
      <trkpt lat="54.02286" lon="22.98181">
        <ele>155.580643</ele>
        <time>2020-10-07T06:20:25.295Z</time>
      </trkpt>
      <trkpt lat="54.02264" lon="22.98203">
        <ele>155.497606</ele>
        <time>2020-10-07T06:20:30.812Z</time>
      </trkpt>
      <trkpt lat="54.02218" lon="22.98254">
        <ele>155.327195</ele>
        <time>2020-10-07T06:20:42.679Z</time>
      </trkpt>
      <trkpt lat="54.0216" lon="22.98315">
        <ele>155.125558</ele>
        <time>2020-10-07T06:20:57.108Z</time>
      </trkpt>
      <trkpt lat="54.02086" lon="22.98392">
        <ele>154.980549</ele>
        <time>2020-10-07T06:21:16.732Z</time>
      </trkpt>
      <trkpt lat="54.02032" lon="22.98449">
        <ele>155.702334</ele>
        <time>2020-10-07T06:21:33.129Z</time>
      </trkpt>
      <trkpt lat="54.02028" lon="22.98453">
        <ele>155.753709</ele>
        <time>2020-10-07T06:21:34.369Z</time>
      </trkpt>
      <trkpt lat="54.01976" lon="22.9851">
        <ele>156.460025</ele>
        <time>2020-10-07T06:21:52.473Z</time>
      </trkpt>
      <trkpt lat="54.01958" lon="22.98529">
        <ele>156.698775</ele>
        <time>2020-10-07T06:21:59.001Z</time>
      </trkpt>
      <trkpt lat="54.01913" lon="22.98582">
        <ele>157.745316</ele>
        <time>2020-10-07T06:22:15.692Z</time>
      </trkpt>
      <trkpt lat="54.01883" lon="22.98618">
        <ele>158.618033</ele>
        <time>2020-10-07T06:22:27.465Z</time>
      </trkpt>
      <trkpt lat="54.01872" lon="22.9863">
        <ele>158.912143</ele>
        <time>2020-10-07T06:22:31.711Z</time>
      </trkpt>
      <trkpt lat="54.01862" lon="22.98639">
        <ele>159.196081</ele>
        <time>2020-10-07T06:22:35.438Z</time>
      </trkpt>
      <trkpt lat="54.01852" lon="22.98646">
        <ele>159.453766</ele>
        <time>2020-10-07T06:22:38.863Z</time>
      </trkpt>
      <trkpt lat="54.01786" lon="22.98694">
        <ele>161.133891</ele>
        <time>2020-10-07T06:23:02.743Z</time>
      </trkpt>
      <trkpt lat="54.0178" lon="22.98698">
        <ele>161.320547</ele>
        <time>2020-10-07T06:23:05.161Z</time>
      </trkpt>
      <trkpt lat="54.01679" lon="22.98771">
        <ele>164.874171</ele>
        <time>2020-10-07T06:23:44.767Z</time>
      </trkpt>
      <trkpt lat="54.01662" lon="22.98783">
        <ele>165.499273</ele>
        <time>2020-10-07T06:23:51.990Z</time>
      </trkpt>
      <trkpt lat="54.0165" lon="22.98794">
        <ele>165.931833</ele>
        <time>2020-10-07T06:23:56.754Z</time>
      </trkpt>
      <trkpt lat="54.01637" lon="22.98807">
        <ele>166.433056</ele>
        <time>2020-10-07T06:24:02.887Z</time>
      </trkpt>
      <trkpt lat="54.01605" lon="22.98852">
        <ele>167.707129</ele>
        <time>2020-10-07T06:24:18.330Z</time>
      </trkpt>
      <trkpt lat="54.01495" lon="22.99055">
        <ele>172.382308</ele>
        <time>2020-10-07T06:25:15.338Z</time>
      </trkpt>
      <trkpt lat="54.01444" lon="22.99151">
        <ele>173.211078</ele>
        <time>2020-10-07T06:25:37.476Z</time>
      </trkpt>
      <trkpt lat="54.01429" lon="22.99183">
        <ele>173.477131</ele>
        <time>2020-10-07T06:25:44.161Z</time>
      </trkpt>
      <trkpt lat="54.0138" lon="22.99298">
        <ele>174.175106</ele>
        <time>2020-10-07T06:26:04.867Z</time>
      </trkpt>
      <trkpt lat="54.01351" lon="22.99412">
        <ele>173.188125</ele>
        <time>2020-10-07T06:26:20.279Z</time>
      </trkpt>
      <trkpt lat="54.01202" lon="23.0018">
        <ele>166.23819</ele>
        <time>2020-10-07T06:27:50.634Z</time>
      </trkpt>
      <trkpt lat="54.01173" lon="23.00392">
        <ele>164.720957</ele>
        <time>2020-10-07T06:28:15.592Z</time>
      </trkpt>
      <trkpt lat="54.01163" lon="23.00495">
        <ele>164.285221</ele>
        <time>2020-10-07T06:28:28.607Z</time>
      </trkpt>
      <trkpt lat="54.01159" lon="23.00548">
        <ele>164.254541</ele>
        <time>2020-10-07T06:28:35.817Z</time>
      </trkpt>
      <trkpt lat="54.01141" lon="23.00788">
        <ele>163.940072</ele>
        <time>2020-10-07T06:29:10.036Z</time>
      </trkpt>
      <trkpt lat="54.01123" lon="23.00959">
        <ele>162.966163</ele>
        <time>2020-10-07T06:29:31.509Z</time>
      </trkpt>
      <trkpt lat="54.01075" lon="23.01219">
        <ele>160.354255</ele>
        <time>2020-10-07T06:30:01.184Z</time>
      </trkpt>
      <trkpt lat="54.01055" lon="23.014">
        <ele>158.437375</ele>
        <time>2020-10-07T06:30:20.991Z</time>
      </trkpt>
      <trkpt lat="54.01002" lon="23.01755">
        <ele>156.350544</ele>
        <time>2020-10-07T06:31:04.760Z</time>
      </trkpt>
      <trkpt lat="54.00858" lon="23.02134">
        <ele>155.736791</ele>
        <time>2020-10-07T06:32:05.513Z</time>
      </trkpt>
      <trkpt lat="54.00736" lon="23.02364">
        <ele>155.875472</ele>
        <time>2020-10-07T06:32:47.612Z</time>
      </trkpt>
      <trkpt lat="54.00716" lon="23.02413">
        <ele>155.959241</ele>
        <time>2020-10-07T06:32:56.249Z</time>
      </trkpt>
      <trkpt lat="54.00699" lon="23.0249">
        <ele>156.25389</ele>
        <time>2020-10-07T06:33:08.848Z</time>
      </trkpt>
      <trkpt lat="54.00686" lon="23.02616">
        <ele>156.708829</ele>
        <time>2020-10-07T06:33:28.659Z</time>
      </trkpt>
      <trkpt lat="54.00678" lon="23.02743">
        <ele>156.987568</ele>
        <time>2020-10-07T06:33:48.027Z</time>
      </trkpt>
      <trkpt lat="54.0067" lon="23.02876">
        <ele>156.972408</ele>
        <time>2020-10-07T06:34:06.449Z</time>
      </trkpt>
      <trkpt lat="54.00663" lon="23.02975">
        <ele>156.961266</ele>
        <time>2020-10-07T06:34:19.191Z</time>
      </trkpt>
      <trkpt lat="54.00657" lon="23.03014">
        <ele>156.918798</ele>
        <time>2020-10-07T06:34:24.390Z</time>
      </trkpt>
      <trkpt lat="54.00649" lon="23.03043">
        <ele>156.842588</ele>
        <time>2020-10-07T06:34:28.338Z</time>
      </trkpt>
      <trkpt lat="54.00595" lon="23.03201">
        <ele>156.397267</ele>
        <time>2020-10-07T06:34:51.716Z</time>
      </trkpt>
      <trkpt lat="54.0058" lon="23.03274">
        <ele>156.209723</ele>
        <time>2020-10-07T06:35:01.828Z</time>
      </trkpt>
      <trkpt lat="54.00572" lon="23.03495">
        <ele>155.714538</ele>
        <time>2020-10-07T06:35:30.918Z</time>
      </trkpt>
      <trkpt lat="54.00467" lon="23.04062">
        <ele>153.653746</ele>
        <time>2020-10-07T06:36:43.921Z</time>
      </trkpt>
      <trkpt lat="54.00456" lon="23.04137">
        <ele>153.422307</ele>
        <time>2020-10-07T06:36:53.973Z</time>
      </trkpt>
      <trkpt lat="54.00434" lon="23.04396">
        <ele>153.883305</ele>
        <time>2020-10-07T06:37:31.335Z</time>
      </trkpt>
      <trkpt lat="54.00421" lon="23.04466">
        <ele>154.068986</ele>
        <time>2020-10-07T06:37:42.853Z</time>
      </trkpt>
      <trkpt lat="54.00405" lon="23.0451">
        <ele>154.380836</ele>
        <time>2020-10-07T06:37:51.122Z</time>
      </trkpt>
      <trkpt lat="54.00371" lon="23.04566">
        <ele>154.862095</ele>
        <time>2020-10-07T06:38:04.119Z</time>
      </trkpt>
      <trkpt lat="54.002" lon="23.04804">
        <ele>156.938363</ele>
        <time>2020-10-07T06:39:04.904Z</time>
      </trkpt>
      <trkpt lat="54.00181" lon="23.04838">
        <ele>157.176293</ele>
        <time>2020-10-07T06:39:11.988Z</time>
      </trkpt>
      <trkpt lat="54.00065" lon="23.05126">
        <ele>158.271465</ele>
        <time>2020-10-07T06:40:03.614Z</time>
      </trkpt>
      <trkpt lat="54.00017" lon="23.0523">
        <ele>158.31865</ele>
        <time>2020-10-07T06:40:22.907Z</time>
      </trkpt>
      <trkpt lat="53.99951" lon="23.05351">
        <ele>158.352661</ele>
        <time>2020-10-07T06:40:44.792Z</time>
      </trkpt>
      <trkpt lat="53.99936" lon="23.05393">
        <ele>158.182405</ele>
        <time>2020-10-07T06:40:51.077Z</time>
      </trkpt>
      <trkpt lat="53.99926" lon="23.05438">
        <ele>157.928309</ele>
        <time>2020-10-07T06:40:57.055Z</time>
      </trkpt>
      <trkpt lat="53.99917" lon="23.05483">
        <ele>157.679167</ele>
        <time>2020-10-07T06:41:02.919Z</time>
      </trkpt>
      <trkpt lat="53.99915" lon="23.05539">
        <ele>157.387262</ele>
        <time>2020-10-07T06:41:09.627Z</time>
      </trkpt>
      <trkpt lat="53.99961" lon="23.05955">
        <ele>154.015139</ele>
        <time>2020-10-07T06:41:58.396Z</time>
      </trkpt>
      <trkpt lat="53.99955" lon="23.06425">
        <ele>146.581009</ele>
        <time>2020-10-07T06:42:46.516Z</time>
      </trkpt>
      <trkpt lat="53.99955" lon="23.0645">
        <ele>146.201948</ele>
        <time>2020-10-07T06:42:49.032Z</time>
      </trkpt>
      <trkpt lat="53.99954" lon="23.06514">
        <ele>145.25238</ele>
        <time>2020-10-07T06:42:55.697Z</time>
      </trkpt>
      <trkpt lat="53.99952" lon="23.06554">
        <ele>144.647679</ele>
        <time>2020-10-07T06:43:00.144Z</time>
      </trkpt>
      <trkpt lat="53.9995" lon="23.0659">
        <ele>144.288459</ele>
        <time>2020-10-07T06:43:04.116Z</time>
      </trkpt>
      <trkpt lat="53.99932" lon="23.06821">
        <ele>143.126954</ele>
        <time>2020-10-07T06:43:32.242Z</time>
      </trkpt>
      <trkpt lat="53.99925" lon="23.0691">
        <ele>142.826637</ele>
        <time>2020-10-07T06:43:44.545Z</time>
      </trkpt>
      <trkpt lat="53.99923" lon="23.07021">
        <ele>142.738057</ele>
        <time>2020-10-07T06:43:59.484Z</time>
      </trkpt>
      <trkpt lat="53.99924" lon="23.07055">
        <ele>142.710467</ele>
        <time>2020-10-07T06:44:04.220Z</time>
      </trkpt>
      <trkpt lat="53.99926" lon="23.07084">
        <ele>142.687695</ele>
        <time>2020-10-07T06:44:07.918Z</time>
      </trkpt>
      <trkpt lat="53.99929" lon="23.07109">
        <ele>142.667551</ele>
        <time>2020-10-07T06:44:11.422Z</time>
      </trkpt>
      <trkpt lat="53.99953" lon="23.07296">
        <ele>142.370473</ele>
        <time>2020-10-07T06:44:37.141Z</time>
      </trkpt>
      <trkpt lat="53.99959" lon="23.07355">
        <ele>142.252518</ele>
        <time>2020-10-07T06:44:44.636Z</time>
      </trkpt>
      <trkpt lat="53.99965" lon="23.0741">
        <ele>142.142259</ele>
        <time>2020-10-07T06:44:51.706Z</time>
      </trkpt>
      <trkpt lat="53.99971" lon="23.07478">
        <ele>142.005415</ele>
        <time>2020-10-07T06:45:00.487Z</time>
      </trkpt>
      <trkpt lat="53.99976" lon="23.07561">
        <ele>141.751785</ele>
        <time>2020-10-07T06:45:11.294Z</time>
      </trkpt>
      <trkpt lat="53.99978" lon="23.07598">
        <ele>141.637835</ele>
        <time>2020-10-07T06:45:16.050Z</time>
      </trkpt>
      <trkpt lat="53.99983" lon="23.07725">
        <ele>141.252677</ele>
        <time>2020-10-07T06:45:32.000Z</time>
      </trkpt>
      <trkpt lat="53.99982" lon="23.07825">
        <ele>141.004009</ele>
        <time>2020-10-07T06:45:44.415Z</time>
      </trkpt>
      <trkpt lat="53.99979" lon="23.07925">
        <ele>140.837092</ele>
        <time>2020-10-07T06:45:57.051Z</time>
      </trkpt>
      <trkpt lat="53.99929" lon="23.07926">
        <ele>140.693567</ele>
        <time>2020-10-07T06:46:07.654Z</time>
      </trkpt>
      <trkpt lat="53.99616" lon="23.07943">
        <ele>140.729729</ele>
        <time>2020-10-07T06:47:18.527Z</time>
      </trkpt>
      <trkpt lat="53.99286" lon="23.07968">
        <ele>140.410358</ele>
        <time>2020-10-07T06:48:31.207Z</time>
      </trkpt>
      <trkpt lat="53.99264" lon="23.07975">
        <ele>140.323934</ele>
        <time>2020-10-07T06:48:35.967Z</time>
      </trkpt>
      <trkpt lat="53.99204" lon="23.07997">
        <ele>140.096272</ele>
        <time>2020-10-07T06:48:48.431Z</time>
      </trkpt>
      <trkpt lat="53.98997" lon="23.08069">
        <ele>139.254557</ele>
        <time>2020-10-07T06:49:32.195Z</time>
      </trkpt>
      <trkpt lat="53.98933" lon="23.08093">
        <ele>138.885315</ele>
        <time>2020-10-07T06:49:46.278Z</time>
      </trkpt>
      <trkpt lat="53.98791" lon="23.08147">
        <ele>137.845277</ele>
        <time>2020-10-07T06:50:15.560Z</time>
      </trkpt>
      <trkpt lat="53.98742" lon="23.08188">
        <ele>137.089164</ele>
        <time>2020-10-07T06:50:25.790Z</time>
      </trkpt>
      <trkpt lat="53.98611" lon="23.08374">
        <ele>135.032687</ele>
        <time>2020-10-07T06:50:56.732Z</time>
      </trkpt>
      <trkpt lat="53.98571" lon="23.08431">
        <ele>134.526743</ele>
        <time>2020-10-07T06:51:06.935Z</time>
      </trkpt>
      <trkpt lat="53.98525" lon="23.08497">
        <ele>133.955081</ele>
        <time>2020-10-07T06:51:19.476Z</time>
      </trkpt>
      <trkpt lat="53.98515" lon="23.08523">
        <ele>133.944334</ele>
        <time>2020-10-07T06:51:23.471Z</time>
      </trkpt>
      <trkpt lat="53.98379" lon="23.08802">
        <ele>133.721959</ele>
        <time>2020-10-07T06:52:11.434Z</time>
      </trkpt>
      <trkpt lat="53.98376" lon="23.08804">
        <ele>133.713131</ele>
        <time>2020-10-07T06:52:12.159Z</time>
      </trkpt>
      <trkpt lat="53.9837" lon="23.08802">
        <ele>133.70043</ele>
        <time>2020-10-07T06:52:13.112Z</time>
      </trkpt>
      <trkpt lat="53.98323" lon="23.08731">
        <ele>133.547225</ele>
        <time>2020-10-07T06:52:26.611Z</time>
      </trkpt>
      <trkpt lat="53.98317" lon="23.08729">
        <ele>133.53229</ele>
        <time>2020-10-07T06:52:27.759Z</time>
      </trkpt>
      <trkpt lat="53.98313" lon="23.08731">
        <ele>133.522408</ele>
        <time>2020-10-07T06:52:28.532Z</time>
      </trkpt>
      <trkpt lat="53.98279" lon="23.08788">
        <ele>133.423556</ele>
        <time>2020-10-07T06:52:38.711Z</time>
      </trkpt>
      <trkpt lat="53.98224" lon="23.08832">
        <ele>133.572941</ele>
        <time>2020-10-07T06:52:51.765Z</time>
      </trkpt>
      <trkpt lat="53.98202" lon="23.08858">
        <ele>133.637022</ele>
        <time>2020-10-07T06:52:57.781Z</time>
      </trkpt>
      <trkpt lat="53.98175" lon="23.08902">
        <ele>133.728939</ele>
        <time>2020-10-07T06:53:06.449Z</time>
      </trkpt>
      <trkpt lat="53.98156" lon="23.08929">
        <ele>133.791046</ele>
        <time>2020-10-07T06:53:12.656Z</time>
      </trkpt>
      <trkpt lat="53.9808" lon="23.09033">
        <ele>135.012111</ele>
        <time>2020-10-07T06:53:38.215Z</time>
      </trkpt>
      <trkpt lat="53.98032" lon="23.09084">
        <ele>135.933658</ele>
        <time>2020-10-07T06:53:54.402Z</time>
      </trkpt>
      <trkpt lat="53.97969" lon="23.09139">
        <ele>137.358181</ele>
        <time>2020-10-07T06:54:16.962Z</time>
      </trkpt>
      <trkpt lat="53.97915" lon="23.09229">
        <ele>139.65371</ele>
        <time>2020-10-07T06:54:43.677Z</time>
      </trkpt>
      <trkpt lat="53.97882" lon="23.09271">
        <ele>140.887081</ele>
        <time>2020-10-07T06:54:58.287Z</time>
      </trkpt>
      <trkpt lat="53.97853" lon="23.09301">
        <ele>141.916855</ele>
        <time>2020-10-07T06:55:10.395Z</time>
      </trkpt>
      <trkpt lat="53.97771" lon="23.09377">
        <ele>143.984605</ele>
        <time>2020-10-07T06:55:41.806Z</time>
      </trkpt>
      <trkpt lat="53.97715" lon="23.0941">
        <ele>145.230775</ele>
        <time>2020-10-07T06:56:00.082Z</time>
      </trkpt>
      <trkpt lat="53.97542" lon="23.09456">
        <ele>146.387161</ele>
        <time>2020-10-07T06:56:42.509Z</time>
      </trkpt>
      <trkpt lat="53.97304" lon="23.09646">
        <ele>145.655761</ele>
        <time>2020-10-07T06:57:36.106Z</time>
      </trkpt>
      <trkpt lat="53.97252" lon="23.09675">
        <ele>145.756192</ele>
        <time>2020-10-07T06:57:48.395Z</time>
      </trkpt>
      <trkpt lat="53.97207" lon="23.09675">
        <ele>145.840704</ele>
        <time>2020-10-07T06:57:59.358Z</time>
      </trkpt>
      <trkpt lat="53.97125" lon="23.09651">
        <ele>146.153644</ele>
        <time>2020-10-07T06:58:20.441Z</time>
      </trkpt>
      <trkpt lat="53.971" lon="23.09655">
        <ele>146.294757</ele>
        <time>2020-10-07T06:58:27.070Z</time>
      </trkpt>
      <trkpt lat="53.97082" lon="23.09667">
        <ele>146.397985</ele>
        <time>2020-10-07T06:58:31.925Z</time>
      </trkpt>
      <trkpt lat="53.97002" lon="23.09768">
        <ele>146.888412</ele>
        <time>2020-10-07T06:58:56.012Z</time>
      </trkpt>
      <trkpt lat="53.9697" lon="23.09794">
        <ele>146.789573</ele>
        <time>2020-10-07T06:59:03.697Z</time>
      </trkpt>
      <trkpt lat="53.96918" lon="23.09792">
        <ele>146.644051</ele>
        <time>2020-10-07T06:59:14.508Z</time>
      </trkpt>
      <trkpt lat="53.96856" lon="23.09754">
        <ele>146.460051</ele>
        <time>2020-10-07T06:59:28.013Z</time>
      </trkpt>
      <trkpt lat="53.9681" lon="23.09749">
        <ele>146.511257</ele>
        <time>2020-10-07T06:59:37.238Z</time>
      </trkpt>
      <trkpt lat="53.96613" lon="23.09783">
        <ele>147.540354</ele>
        <time>2020-10-07T07:00:26.119Z</time>
      </trkpt>
      <trkpt lat="53.96538" lon="23.09781">
        <ele>148.325961</ele>
        <time>2020-10-07T07:00:47.477Z</time>
      </trkpt>
      <trkpt lat="53.96444" lon="23.09778">
        <ele>148.701022</ele>
        <time>2020-10-07T07:01:12.005Z</time>
      </trkpt>
      <trkpt lat="53.96406" lon="23.09782">
        <ele>148.437491</ele>
        <time>2020-10-07T07:01:20.865Z</time>
      </trkpt>
      <trkpt lat="53.96242" lon="23.09859">
        <ele>146.042901</ele>
        <time>2020-10-07T07:01:51.803Z</time>
      </trkpt>
      <trkpt lat="53.96181" lon="23.09893">
        <ele>144.336095</ele>
        <time>2020-10-07T07:02:02.252Z</time>
      </trkpt>
      <trkpt lat="53.9615" lon="23.09922">
        <ele>143.415981</ele>
        <time>2020-10-07T07:02:07.931Z</time>
      </trkpt>
      <trkpt lat="53.96126" lon="23.09955">
        <ele>142.614944</ele>
        <time>2020-10-07T07:02:13.161Z</time>
      </trkpt>
      <trkpt lat="53.96106" lon="23.09986">
        <ele>141.978575</ele>
        <time>2020-10-07T07:02:17.587Z</time>
      </trkpt>
      <trkpt lat="53.96101" lon="23.09995">
        <ele>141.809914</ele>
        <time>2020-10-07T07:02:18.766Z</time>
      </trkpt>
      <trkpt lat="53.96078" lon="23.1005">
        <ele>140.865652</ele>
        <time>2020-10-07T07:02:25.518Z</time>
      </trkpt>
      <trkpt lat="53.96055" lon="23.101">
        <ele>139.989656</ele>
        <time>2020-10-07T07:02:31.913Z</time>
      </trkpt>
      <trkpt lat="53.96032" lon="23.10146">
        <ele>139.153844</ele>
        <time>2020-10-07T07:02:38.127Z</time>
      </trkpt>
      <trkpt lat="53.96025" lon="23.10158">
        <ele>138.907311</ele>
        <time>2020-10-07T07:02:39.967Z</time>
      </trkpt>
      <trkpt lat="53.96011" lon="23.10173">
        <ele>138.601191</ele>
        <time>2020-10-07T07:02:42.826Z</time>
      </trkpt>
      <trkpt lat="53.95932" lon="23.10243">
        <ele>137.448955</ele>
        <time>2020-10-07T07:03:00.515Z</time>
      </trkpt>
      <trkpt lat="53.95922" lon="23.1025">
        <ele>137.311002</ele>
        <time>2020-10-07T07:03:02.528Z</time>
      </trkpt>
      <trkpt lat="53.95911" lon="23.10256">
        <ele>137.162816</ele>
        <time>2020-10-07T07:03:04.707Z</time>
      </trkpt>
      <trkpt lat="53.95892" lon="23.10266">
        <ele>136.904273</ele>
        <time>2020-10-07T07:03:08.447Z</time>
      </trkpt>
      <trkpt lat="53.9585" lon="23.10286">
        <ele>136.348064</ele>
        <time>2020-10-07T07:03:16.400Z</time>
      </trkpt>
      <trkpt lat="53.95808" lon="23.10305">
        <ele>135.912101</ele>
        <time>2020-10-07T07:03:24.561Z</time>
      </trkpt>
      <trkpt lat="53.95795" lon="23.1031">
        <ele>135.779415</ele>
        <time>2020-10-07T07:03:27.004Z</time>
      </trkpt>
      <trkpt lat="53.95758" lon="23.10323">
        <ele>135.393686</ele>
        <time>2020-10-07T07:03:34.254Z</time>
      </trkpt>
      <trkpt lat="53.9571" lon="23.10338">
        <ele>134.898866</ele>
        <time>2020-10-07T07:03:44.247Z</time>
      </trkpt>
      <trkpt lat="53.95662" lon="23.10344">
        <ele>134.906575</ele>
        <time>2020-10-07T07:03:55.195Z</time>
      </trkpt>
      <trkpt lat="53.95648" lon="23.10339">
        <ele>135.267198</ele>
        <time>2020-10-07T07:03:58.584Z</time>
      </trkpt>
      <trkpt lat="53.95579" lon="23.10313">
        <ele>137.068212</ele>
        <time>2020-10-07T07:04:19.320Z</time>
      </trkpt>
      <trkpt lat="53.95463" lon="23.10174">
        <ele>142.064934</ele>
        <time>2020-10-07T07:05:18.557Z</time>
      </trkpt>
      <trkpt lat="53.95416" lon="23.10121">
        <ele>144.760897</ele>
        <time>2020-10-07T07:05:43.933Z</time>
      </trkpt>
      <trkpt lat="53.95386" lon="23.10085">
        <ele>146.514343</ele>
        <time>2020-10-07T07:05:59.772Z</time>
      </trkpt>
      <trkpt lat="53.9532" lon="23.10023">
        <ele>148.842634</ele>
        <time>2020-10-07T07:06:40.722Z</time>
      </trkpt>
      <trkpt lat="53.95231" lon="23.09925">
        <ele>151.199298</ele>
        <time>2020-10-07T07:07:28.574Z</time>
      </trkpt>
      <trkpt lat="53.95108" lon="23.09754">
        <ele>151.023568</ele>
        <time>2020-10-07T07:08:23.935Z</time>
      </trkpt>
      <trkpt lat="53.94908" lon="23.09475">
        <ele>149.391513</ele>
        <time>2020-10-07T07:09:52.668Z</time>
      </trkpt>
      <trkpt lat="53.94549" lon="23.09104">
        <ele>150.555857</ele>
        <time>2020-10-07T07:12:35.071Z</time>
      </trkpt>
      <trkpt lat="53.94473" lon="23.0904">
        <ele>150.929552</ele>
        <time>2020-10-07T07:13:08.152Z</time>
      </trkpt>
      <trkpt lat="53.9445" lon="23.09014">
        <ele>151.09808</ele>
        <time>2020-10-07T07:13:19.063Z</time>
      </trkpt>
      <trkpt lat="53.9444" lon="23.09003">
        <ele>151.171954</ele>
        <time>2020-10-07T07:13:23.611Z</time>
      </trkpt>
      <trkpt lat="53.94372" lon="23.08968">
        <ele>151.607624</ele>
        <time>2020-10-07T07:13:51.526Z</time>
      </trkpt>
      <trkpt lat="53.94278" lon="23.08959">
        <ele>152.090653</ele>
        <time>2020-10-07T07:14:29.076Z</time>
      </trkpt>
      <trkpt lat="53.94194" lon="23.08932">
        <ele>152.267205</ele>
        <time>2020-10-07T07:15:02.725Z</time>
      </trkpt>
      <trkpt lat="53.94134" lon="23.08931">
        <ele>152.39231</ele>
        <time>2020-10-07T07:15:25.105Z</time>
      </trkpt>
      <trkpt lat="53.94105" lon="23.08917">
        <ele>152.131136</ele>
        <time>2020-10-07T07:15:35.401Z</time>
      </trkpt>
      <trkpt lat="53.94086" lon="23.08882">
        <ele>151.744609</ele>
        <time>2020-10-07T07:15:44.861Z</time>
      </trkpt>
      <trkpt lat="53.94064" lon="23.08841">
        <ele>151.292947</ele>
        <time>2020-10-07T07:15:55.370Z</time>
      </trkpt>
      <trkpt lat="53.94021" lon="23.08738">
        <ele>150.247392</ele>
        <time>2020-10-07T07:16:19.493Z</time>
      </trkpt>
      <trkpt lat="53.94014" lon="23.08729">
        <ele>150.129541</ele>
        <time>2020-10-07T07:16:22.032Z</time>
      </trkpt>
      <trkpt lat="53.94013" lon="23.08727">
        <ele>150.102691</ele>
        <time>2020-10-07T07:16:22.323Z</time>
      </trkpt>
      <trkpt lat="53.93915" lon="23.08665">
        <ele>148.822334</ele>
        <time>2020-10-07T07:16:43.816Z</time>
      </trkpt>
      <trkpt lat="53.93876" lon="23.0863">
        <ele>148.300057</ele>
        <time>2020-10-07T07:16:52.884Z</time>
      </trkpt>
      <trkpt lat="53.93841" lon="23.08581">
        <ele>147.7547</ele>
        <time>2020-10-07T07:17:03.752Z</time>
      </trkpt>
      <trkpt lat="53.93678" lon="23.08393">
        <ele>147.75951</ele>
        <time>2020-10-07T07:17:53.172Z</time>
      </trkpt>
      <trkpt lat="53.93602" lon="23.08348">
        <ele>147.718828</ele>
        <time>2020-10-07T07:18:13.257Z</time>
      </trkpt>
      <trkpt lat="53.93502" lon="23.08308">
        <ele>147.625429</ele>
        <time>2020-10-07T07:18:38.065Z</time>
      </trkpt>
      <trkpt lat="53.93459" lon="23.08273">
        <ele>147.49939</ele>
        <time>2020-10-07T07:18:49.409Z</time>
      </trkpt>
      <trkpt lat="53.93397" lon="23.08264">
        <ele>147.338574</ele>
        <time>2020-10-07T07:19:03.784Z</time>
      </trkpt>
      <trkpt lat="53.93312" lon="23.0824">
        <ele>147.24872</ele>
        <time>2020-10-07T07:19:24.453Z</time>
      </trkpt>
      <trkpt lat="53.93276" lon="23.08199">
        <ele>147.298417</ele>
        <time>2020-10-07T07:19:35.128Z</time>
      </trkpt>
      <trkpt lat="53.93151" lon="23.08131">
        <ele>147.399945</ele>
        <time>2020-10-07T07:20:09.422Z</time>
      </trkpt>
      <trkpt lat="53.9311" lon="23.08078">
        <ele>147.375335</ele>
        <time>2020-10-07T07:20:23.080Z</time>
      </trkpt>
      <trkpt lat="53.93069" lon="23.08042">
        <ele>147.353571</ele>
        <time>2020-10-07T07:20:34.619Z</time>
      </trkpt>
      <trkpt lat="53.92949" lon="23.08">
        <ele>146.343542</ele>
        <time>2020-10-07T07:21:01.869Z</time>
      </trkpt>
      <trkpt lat="53.92801" lon="23.07973">
        <ele>144.464615</ele>
        <time>2020-10-07T07:21:31.739Z</time>
      </trkpt>
      <trkpt lat="53.92773" lon="23.07952">
        <ele>144.167075</ele>
        <time>2020-10-07T07:21:38.007Z</time>
      </trkpt>
      <trkpt lat="53.92683" lon="23.07846">
        <ele>143.115267</ele>
        <time>2020-10-07T07:22:02.584Z</time>
      </trkpt>
      <trkpt lat="53.92634" lon="23.07747">
        <ele>143.706607</ele>
        <time>2020-10-07T07:22:23.333Z</time>
      </trkpt>
      <trkpt lat="53.92604" lon="23.07706">
        <ele>144.008292</ele>
        <time>2020-10-07T07:22:34.606Z</time>
      </trkpt>
      <trkpt lat="53.92579" lon="23.07684">
        <ele>144.226041</ele>
        <time>2020-10-07T07:22:42.935Z</time>
      </trkpt>
      <trkpt lat="53.9251" lon="23.07671">
        <ele>144.802775</ele>
        <time>2020-10-07T07:23:03.907Z</time>
      </trkpt>
      <trkpt lat="53.92368" lon="23.07671">
        <ele>146.071807</ele>
        <time>2020-10-07T07:23:44.207Z</time>
      </trkpt>
      <trkpt lat="53.92266" lon="23.0767">
        <ele>145.776753</ele>
        <time>2020-10-07T07:24:09.592Z</time>
      </trkpt>
      <trkpt lat="53.92249" lon="23.07677">
        <ele>145.714995</ele>
        <time>2020-10-07T07:24:13.689Z</time>
      </trkpt>
      <trkpt lat="53.92195" lon="23.07718">
        <ele>145.505384</ele>
        <time>2020-10-07T07:24:26.693Z</time>
      </trkpt>
      <trkpt lat="53.92149" lon="23.07733">
        <ele>144.875955</ele>
        <time>2020-10-07T07:24:36.483Z</time>
      </trkpt>
      <trkpt lat="53.92016" lon="23.07758">
        <ele>142.887658</ele>
        <time>2020-10-07T07:25:03.636Z</time>
      </trkpt>
      <trkpt lat="53.91955" lon="23.07743">
        <ele>142.793825</ele>
        <time>2020-10-07T07:25:16.852Z</time>
      </trkpt>
      <trkpt lat="53.91795" lon="23.07644">
        <ele>143.098956</ele>
        <time>2020-10-07T07:26:02.736Z</time>
      </trkpt>
      <trkpt lat="53.91767" lon="23.07609">
        <ele>143.352239</ele>
        <time>2020-10-07T07:26:13.178Z</time>
      </trkpt>
      <trkpt lat="53.91721" lon="23.07534">
        <ele>143.818838</ele>
        <time>2020-10-07T07:26:31.612Z</time>
      </trkpt>
      <trkpt lat="53.91662" lon="23.07398">
        <ele>143.658215</ele>
        <time>2020-10-07T07:26:56.907Z</time>
      </trkpt>
      <trkpt lat="53.91636" lon="23.0736">
        <ele>143.439596</ele>
        <time>2020-10-07T07:27:04.598Z</time>
      </trkpt>
      <trkpt lat="53.91606" lon="23.07326">
        <ele>143.207238</ele>
        <time>2020-10-07T07:27:12.389Z</time>
      </trkpt>
      <trkpt lat="53.9148" lon="23.07211">
        <ele>141.668403</ele>
        <time>2020-10-07T07:27:41.953Z</time>
      </trkpt>
      <trkpt lat="53.91394" lon="23.07097">
        <ele>140.418378</ele>
        <time>2020-10-07T07:28:05.573Z</time>
      </trkpt>
      <trkpt lat="53.9132" lon="23.07031">
        <ele>139.819871</ele>
        <time>2020-10-07T07:28:23.787Z</time>
      </trkpt>
      <trkpt lat="53.91188" lon="23.06973">
        <ele>139.761261</ele>
        <time>2020-10-07T07:28:55.931Z</time>
      </trkpt>
      <trkpt lat="53.91077" lon="23.0695">
        <ele>140.485011</ele>
        <time>2020-10-07T07:29:28.073Z</time>
      </trkpt>
      <trkpt lat="53.90965" lon="23.06943">
        <ele>142.813032</ele>
        <time>2020-10-07T07:30:05.881Z</time>
      </trkpt>
      <trkpt lat="53.90905" lon="23.06956">
        <ele>144.074045</ele>
        <time>2020-10-07T07:30:26.938Z</time>
      </trkpt>
      <trkpt lat="53.90776" lon="23.0696">
        <ele>146.239133</ele>
        <time>2020-10-07T07:31:08.294Z</time>
      </trkpt>
      <trkpt lat="53.90753" lon="23.06958">
        <ele>146.628499</ele>
        <time>2020-10-07T07:31:15.278Z</time>
      </trkpt>
      <trkpt lat="53.90735" lon="23.06994">
        <ele>147.086812</ele>
        <time>2020-10-07T07:31:23.241Z</time>
      </trkpt>
      <trkpt lat="53.90641" lon="23.07138">
        <ele>148.431669</ele>
        <time>2020-10-07T07:31:59.316Z</time>
      </trkpt>
      <trkpt lat="53.90566" lon="23.07232">
        <ele>149.370332</ele>
        <time>2020-10-07T07:32:26.477Z</time>
      </trkpt>
      <trkpt lat="53.90497" lon="23.07361">
        <ele>150.373951</ele>
        <time>2020-10-07T07:32:56.393Z</time>
      </trkpt>
      <trkpt lat="53.90436" lon="23.07459">
        <ele>150.821995</ele>
        <time>2020-10-07T07:33:19.753Z</time>
      </trkpt>
      <trkpt lat="53.90372" lon="23.07554">
        <ele>150.851764</ele>
        <time>2020-10-07T07:33:41.374Z</time>
      </trkpt>
      <trkpt lat="53.90297" lon="23.07704">
        <ele>150.061571</ele>
        <time>2020-10-07T07:34:07.408Z</time>
      </trkpt>
      <trkpt lat="53.90292" lon="23.0772">
        <ele>149.919186</ele>
        <time>2020-10-07T07:34:09.632Z</time>
      </trkpt>
      <trkpt lat="53.90282" lon="23.07736">
        <ele>149.732535</ele>
        <time>2020-10-07T07:34:14.244Z</time>
      </trkpt>
      <trkpt lat="53.9027" lon="23.07766">
        <ele>149.447937</ele>
        <time>2020-10-07T07:34:21.180Z</time>
      </trkpt>
      <trkpt lat="53.90249" lon="23.07882">
        <ele>148.488418</ele>
        <time>2020-10-07T07:34:44.041Z</time>
      </trkpt>
      <trkpt lat="53.90222" lon="23.07962">
        <ele>147.452571</ele>
        <time>2020-10-07T07:35:01.030Z</time>
      </trkpt>
      <trkpt lat="53.90196" lon="23.08021">
        <ele>146.612975</ele>
        <time>2020-10-07T07:35:14.511Z</time>
      </trkpt>
      <trkpt lat="53.9002" lon="23.0811">
        <ele>143.805785</ele>
        <time>2020-10-07T07:36:13.549Z</time>
      </trkpt>
      <trkpt lat="53.89967" lon="23.08191">
        <ele>142.966565</ele>
        <time>2020-10-07T07:36:38.240Z</time>
      </trkpt>
      <trkpt lat="53.89947" lon="23.08208">
        <ele>142.870069</ele>
        <time>2020-10-07T07:36:46.253Z</time>
      </trkpt>
      <trkpt lat="53.89903" lon="23.08232">
        <ele>142.915622</ele>
        <time>2020-10-07T07:37:03.189Z</time>
      </trkpt>
      <trkpt lat="53.89867" lon="23.08241">
        <ele>142.951821</ele>
        <time>2020-10-07T07:37:17.128Z</time>
      </trkpt>
      <trkpt lat="53.89667" lon="23.08204">
        <ele>143.679565</ele>
        <time>2020-10-07T07:38:34.952Z</time>
      </trkpt>
      <trkpt lat="53.89634" lon="23.08219">
        <ele>143.868332</ele>
        <time>2020-10-07T07:38:48.500Z</time>
      </trkpt>
      <trkpt lat="53.89576" lon="23.08264">
        <ele>144.43266</ele>
        <time>2020-10-07T07:39:14.278Z</time>
      </trkpt>
      <trkpt lat="53.89549" lon="23.08278">
        <ele>144.753907</ele>
        <time>2020-10-07T07:39:25.681Z</time>
      </trkpt>
      <trkpt lat="53.89525" lon="23.08298">
        <ele>145.066931</ele>
        <time>2020-10-07T07:39:36.933Z</time>
      </trkpt>
      <trkpt lat="53.89487" lon="23.08332">
        <ele>145.55883</ele>
        <time>2020-10-07T07:39:55.204Z</time>
      </trkpt>
      <trkpt lat="53.89387" lon="23.08359">
        <ele>146.881088</ele>
        <time>2020-10-07T07:40:38.901Z</time>
      </trkpt>
      <trkpt lat="53.8935" lon="23.0838">
        <ele>147.435446</ele>
        <time>2020-10-07T07:40:55.666Z</time>
      </trkpt>
      <trkpt lat="53.89212" lon="23.08461">
        <ele>149.182718</ele>
        <time>2020-10-07T07:41:57.484Z</time>
      </trkpt>
      <trkpt lat="53.89166" lon="23.08471">
        <ele>149.583103</ele>
        <time>2020-10-07T07:42:16.276Z</time>
      </trkpt>
      <trkpt lat="53.88982" lon="23.08457">
        <ele>150.540554</ele>
        <time>2020-10-07T07:43:28.083Z</time>
      </trkpt>
      <trkpt lat="53.88863" lon="23.08411">
        <ele>150.734443</ele>
        <time>2020-10-07T07:44:13.466Z</time>
      </trkpt>
      <trkpt lat="53.88775" lon="23.08408">
        <ele>150.715129</ele>
        <time>2020-10-07T07:44:45.856Z</time>
      </trkpt>
      <trkpt lat="53.88714" lon="23.08396">
        <ele>150.688735</ele>
        <time>2020-10-07T07:45:08.742Z</time>
      </trkpt>
      <trkpt lat="53.88668" lon="23.08401">
        <ele>150.651554</ele>
        <time>2020-10-07T07:45:25.904Z</time>
      </trkpt>
      <trkpt lat="53.88494" lon="23.08447">
        <ele>150.165635</ele>
        <time>2020-10-07T07:46:30.181Z</time>
      </trkpt>
      <trkpt lat="53.88424" lon="23.08457">
        <ele>149.730612</ele>
        <time>2020-10-07T07:46:54.726Z</time>
      </trkpt>
      <trkpt lat="53.88277" lon="23.08449">
        <ele>148.203559</ele>
        <time>2020-10-07T07:47:43.809Z</time>
      </trkpt>
      <trkpt lat="53.88257" lon="23.08453">
        <ele>147.958961</ele>
        <time>2020-10-07T07:47:50.361Z</time>
      </trkpt>
      <trkpt lat="53.88212" lon="23.08469">
        <ele>147.391661</ele>
        <time>2020-10-07T07:48:05.647Z</time>
      </trkpt>
      <trkpt lat="53.8816" lon="23.08489">
        <ele>146.715328</ele>
        <time>2020-10-07T07:48:23.327Z</time>
      </trkpt>
      <trkpt lat="53.88092" lon="23.0849">
        <ele>145.859457</ele>
        <time>2020-10-07T07:48:45.547Z</time>
      </trkpt>
      <trkpt lat="53.88008" lon="23.08523">
        <ele>144.761674</ele>
        <time>2020-10-07T07:49:14.331Z</time>
      </trkpt>
      <trkpt lat="53.87899" lon="23.0862">
        <ele>143.192998</ele>
        <time>2020-10-07T07:49:54.978Z</time>
      </trkpt>
      <trkpt lat="53.87842" lon="23.08648">
        <ele>142.529804</ele>
        <time>2020-10-07T07:50:14.721Z</time>
      </trkpt>
      <trkpt lat="53.87824" lon="23.08672">
        <ele>142.36104</ele>
        <time>2020-10-07T07:50:22.433Z</time>
      </trkpt>
      <trkpt lat="53.87802" lon="23.08724">
        <ele>142.088993</ele>
        <time>2020-10-07T07:50:35.031Z</time>
      </trkpt>
      <trkpt lat="53.87782" lon="23.0874">
        <ele>141.928755</ele>
        <time>2020-10-07T07:50:42.595Z</time>
      </trkpt>
      <trkpt lat="53.87761" lon="23.08743">
        <ele>141.772948</ele>
        <time>2020-10-07T07:50:50.019Z</time>
      </trkpt>
      <trkpt lat="53.87701" lon="23.08712">
        <ele>141.395078</ele>
        <time>2020-10-07T07:51:12.428Z</time>
      </trkpt>
      <trkpt lat="53.87659" lon="23.08709">
        <ele>141.786472</ele>
        <time>2020-10-07T07:51:28.205Z</time>
      </trkpt>
      <trkpt lat="53.87552" lon="23.08742">
        <ele>142.809117</ele>
        <time>2020-10-07T07:52:14.384Z</time>
      </trkpt>
      <trkpt lat="53.87505" lon="23.08774">
        <ele>143.364643</ele>
        <time>2020-10-07T07:52:36.224Z</time>
      </trkpt>
      <trkpt lat="53.8748" lon="23.08789">
        <ele>143.70116</ele>
        <time>2020-10-07T07:52:47.988Z</time>
      </trkpt>
      <trkpt lat="53.87462" lon="23.08807">
        <ele>143.957071</ele>
        <time>2020-10-07T07:52:56.831Z</time>
      </trkpt>
      <trkpt lat="53.87425" lon="23.08851">
        <ele>144.531895</ele>
        <time>2020-10-07T07:53:16.324Z</time>
      </trkpt>
      <trkpt lat="53.87334" lon="23.0891">
        <ele>145.219805</ele>
        <time>2020-10-07T07:53:56.255Z</time>
      </trkpt>
      <trkpt lat="53.87174" lon="23.09064">
        <ele>144.210289</ele>
        <time>2020-10-07T07:55:00.980Z</time>
      </trkpt>
      <trkpt lat="53.87142" lon="23.09084">
        <ele>143.610117</ele>
        <time>2020-10-07T07:55:11.882Z</time>
      </trkpt>
      <trkpt lat="53.87128" lon="23.09084">
        <ele>143.358589</ele>
        <time>2020-10-07T07:55:16.458Z</time>
      </trkpt>
      <trkpt lat="53.8711" lon="23.09103">
        <ele>142.972812</ele>
        <time>2020-10-07T07:55:20.189Z</time>
      </trkpt>
      <trkpt lat="53.87033" lon="23.09163">
        <ele>141.288114</ele>
        <time>2020-10-07T07:55:34.623Z</time>
      </trkpt>
      <trkpt lat="53.86972" lon="23.0923">
        <ele>139.209357</ele>
        <time>2020-10-07T07:55:46.699Z</time>
      </trkpt>
      <trkpt lat="53.86945" lon="23.0926">
        <ele>138.26814</ele>
        <time>2020-10-07T07:55:52.086Z</time>
      </trkpt>
      <trkpt lat="53.86855" lon="23.09394">
        <ele>135.172946</ele>
        <time>2020-10-07T07:56:11.645Z</time>
      </trkpt>
      <trkpt lat="53.86847" lon="23.09407">
        <ele>134.91336</ele>
        <time>2020-10-07T07:56:13.500Z</time>
      </trkpt>
      <trkpt lat="53.86834" lon="23.09377">
        <ele>134.412924</ele>
        <time>2020-10-07T07:56:17.091Z</time>
      </trkpt>
      <trkpt lat="53.86804" lon="23.09308">
        <ele>133.250251</ele>
        <time>2020-10-07T07:56:25.941Z</time>
      </trkpt>
      <trkpt lat="53.86783" lon="23.09259">
        <ele>132.434513</ele>
        <time>2020-10-07T07:56:32.375Z</time>
      </trkpt>
      <trkpt lat="53.86764" lon="23.09213">
        <ele>132.982183</ele>
        <time>2020-10-07T07:56:39.142Z</time>
      </trkpt>
      <trkpt lat="53.86745" lon="23.09162">
        <ele>133.613426</ele>
        <time>2020-10-07T07:56:47.975Z</time>
      </trkpt>
      <trkpt lat="53.86736" lon="23.09145">
        <ele>133.845031</ele>
        <time>2020-10-07T07:56:52.325Z</time>
      </trkpt>
      <trkpt lat="53.86712" lon="23.09114">
        <ele>134.37436</ele>
        <time>2020-10-07T07:57:01.610Z</time>
      </trkpt>
      <trkpt lat="53.86679" lon="23.09092">
        <ele>135.001278</ele>
        <time>2020-10-07T07:57:13.828Z</time>
      </trkpt>
      <trkpt lat="53.86656" lon="23.09079">
        <ele>135.437477</ele>
        <time>2020-10-07T07:57:23.124Z</time>
      </trkpt>
      <trkpt lat="53.86576" lon="23.09033">
        <ele>138.017052</ele>
        <time>2020-10-07T07:57:55.914Z</time>
      </trkpt>
      <trkpt lat="53.86568" lon="23.09047">
        <ele>138.386753</ele>
        <time>2020-10-07T07:58:01.722Z</time>
      </trkpt>
      <trkpt lat="53.86564" lon="23.09045">
        <ele>138.502753</ele>
        <time>2020-10-07T07:58:03.622Z</time>
      </trkpt>
      <trkpt lat="53.86563" lon="23.09038">
        <ele>138.636048</ele>
        <time>2020-10-07T07:58:05.129Z</time>
      </trkpt>
      <trkpt lat="53.86455" lon="23.08973">
        <ele>141.529875</ele>
        <time>2020-10-07T07:58:42.600Z</time>
      </trkpt>
      <trkpt lat="53.86237" lon="23.08851">
        <ele>142.748863</ele>
        <time>2020-10-07T07:59:33.813Z</time>
      </trkpt>
      <trkpt lat="53.86155" lon="23.08804">
        <ele>143.128705</ele>
        <time>2020-10-07T07:59:54.991Z</time>
      </trkpt>
      <trkpt lat="53.86158" lon="23.08793">
        <ele>143.159679</ele>
        <time>2020-10-07T07:59:57.013Z</time>
      </trkpt>
      <trkpt lat="53.86163" lon="23.08778">
        <ele>143.222805</ele>
        <time>2020-10-07T07:59:59.977Z</time>
      </trkpt>
      <trkpt lat="53.86202" lon="23.08671">
        <ele>143.990578</ele>
        <time>2020-10-07T08:00:20.098Z</time>
      </trkpt>
      <trkpt lat="53.86289" lon="23.0846">
        <ele>144.699646</ele>
        <time>2020-10-07T08:01:00.431Z</time>
      </trkpt>
      <trkpt lat="53.86341" lon="23.08272">
        <ele>143.850634</ele>
        <time>2020-10-07T08:01:23.794Z</time>
      </trkpt>
      <trkpt lat="53.86344" lon="23.08258">
        <ele>143.775198</ele>
        <time>2020-10-07T08:01:25.239Z</time>
      </trkpt>
      <trkpt lat="53.86351" lon="23.08221">
        <ele>143.16438</ele>
        <time>2020-10-07T08:01:29.228Z</time>
      </trkpt>
      <trkpt lat="53.86375" lon="23.08095">
        <ele>141.067419</ele>
        <time>2020-10-07T08:01:42.263Z</time>
      </trkpt>
      <trkpt lat="53.86388" lon="23.07998">
        <ele>139.477693</ele>
        <time>2020-10-07T08:01:51.962Z</time>
      </trkpt>
      <trkpt lat="53.86431" lon="23.07721">
        <ele>134.970457</ele>
        <time>2020-10-07T08:02:20.355Z</time>
      </trkpt>
      <trkpt lat="53.8644" lon="23.07655">
        <ele>133.936516</ele>
        <time>2020-10-07T08:02:27.142Z</time>
      </trkpt>
      <trkpt lat="53.86453" lon="23.07579">
        <ele>132.827265</ele>
        <time>2020-10-07T08:02:35.139Z</time>
      </trkpt>
      <trkpt lat="53.86455" lon="23.07568">
        <ele>132.659883</ele>
        <time>2020-10-07T08:02:36.255Z</time>
      </trkpt>
      <trkpt lat="53.86463" lon="23.07514">
        <ele>131.875439</ele>
        <time>2020-10-07T08:02:41.926Z</time>
      </trkpt>
      <trkpt lat="53.86466" lon="23.07495">
        <ele>131.604182</ele>
        <time>2020-10-07T08:02:43.918Z</time>
      </trkpt>
      <trkpt lat="53.86469" lon="23.0748">
        <ele>131.380186</ele>
        <time>2020-10-07T08:02:45.537Z</time>
      </trkpt>
      <trkpt lat="53.86472" lon="23.07455">
        <ele>131.020631</ele>
        <time>2020-10-07T08:02:48.087Z</time>
      </trkpt>
      <trkpt lat="53.86473" lon="23.07415">
        <ele>130.452978</ele>
        <time>2020-10-07T08:02:52.222Z</time>
      </trkpt>
      <trkpt lat="53.8645" lon="23.07203">
        <ele>128.460352</ele>
        <time>2020-10-07T08:03:14.386Z</time>
      </trkpt>
      <trkpt lat="53.8642" lon="23.07062">
        <ele>127.738386</ele>
        <time>2020-10-07T08:03:31.757Z</time>
      </trkpt>
      <trkpt lat="53.86417" lon="23.07044">
        <ele>128.073074</ele>
        <time>2020-10-07T08:03:34.543Z</time>
      </trkpt>
      <trkpt lat="53.86398" lon="23.06991">
        <ele>129.207433</ele>
        <time>2020-10-07T08:03:44.965Z</time>
      </trkpt>
      <trkpt lat="53.86382" lon="23.06974">
        <ele>129.760273</ele>
        <time>2020-10-07T08:03:51.585Z</time>
      </trkpt>
      <trkpt lat="53.86369" lon="23.06973">
        <ele>130.164871</ele>
        <time>2020-10-07T08:03:55.923Z</time>
      </trkpt>
      <trkpt lat="53.86337" lon="23.06992">
        <ele>131.193256</ele>
        <time>2020-10-07T08:04:09.534Z</time>
      </trkpt>
      <trkpt lat="53.86324" lon="23.07005">
        <ele>131.651391</ele>
        <time>2020-10-07T08:04:17.373Z</time>
      </trkpt>
      <trkpt lat="53.86279" lon="23.0706">
        <ele>133.406866</ele>
        <time>2020-10-07T08:04:39.315Z</time>
      </trkpt>
      <trkpt lat="53.86275" lon="23.07064">
        <ele>133.572741</ele>
        <time>2020-10-07T08:04:41.507Z</time>
      </trkpt>
      <trkpt lat="53.8627" lon="23.07068">
        <ele>133.780954</ele>
        <time>2020-10-07T08:04:43.980Z</time>
      </trkpt>
      <trkpt lat="53.86263" lon="23.07073">
        <ele>134.06481</ele>
        <time>2020-10-07T08:04:48.553Z</time>
      </trkpt>
      <trkpt lat="53.86237" lon="23.07073">
        <ele>134.973714</ele>
        <time>2020-10-07T08:04:57.611Z</time>
      </trkpt>
      <trkpt lat="53.86198" lon="23.07052">
        <ele>136.428494</ele>
        <time>2020-10-07T08:05:13.531Z</time>
      </trkpt>
      <trkpt lat="53.86177" lon="23.07035">
        <ele>137.250033</ele>
        <time>2020-10-07T08:05:25.028Z</time>
      </trkpt>
      <trkpt lat="53.86176" lon="23.07033">
        <ele>137.308913</ele>
        <time>2020-10-07T08:05:25.776Z</time>
      </trkpt>
      <trkpt lat="53.86149" lon="23.07005">
        <ele>138.41995</ele>
        <time>2020-10-07T08:05:41.604Z</time>
      </trkpt>
      <trkpt lat="53.86113" lon="23.06952">
        <ele>139.387272</ele>
        <time>2020-10-07T08:06:03.481Z</time>
      </trkpt>
      <trkpt lat="53.86109" lon="23.06945">
        <ele>139.417742</ele>
        <time>2020-10-07T08:06:05.433Z</time>
      </trkpt>
      <trkpt lat="53.8607" lon="23.06868">
        <ele>139.739763</ele>
        <time>2020-10-07T08:06:27.088Z</time>
      </trkpt>
      <trkpt lat="53.85936" lon="23.06615">
        <ele>140.843237</ele>
        <time>2020-10-07T08:07:43.570Z</time>
      </trkpt>
      <trkpt lat="53.85837" lon="23.06415">
        <ele>141.965567</ele>
        <time>2020-10-07T08:08:47.296Z</time>
      </trkpt>
      <trkpt lat="53.85719" lon="23.0619">
        <ele>142.905914</ele>
        <time>2020-10-07T08:09:58.201Z</time>
      </trkpt>
      <trkpt lat="53.85611" lon="23.05977">
        <ele>142.424658</ele>
        <time>2020-10-07T08:10:57.665Z</time>
      </trkpt>
      <trkpt lat="53.85585" lon="23.05922">
        <ele>142.057804</ele>
        <time>2020-10-07T08:11:11.456Z</time>
      </trkpt>
      <trkpt lat="53.8549" lon="23.05651">
        <ele>140.043235</ele>
        <time>2020-10-07T08:12:13.352Z</time>
      </trkpt>
      <trkpt lat="53.85432" lon="23.05486">
        <ele>138.807408</ele>
        <time>2020-10-07T08:12:51.135Z</time>
      </trkpt>
      <trkpt lat="53.854" lon="23.05398">
        <ele>138.233692</ele>
        <time>2020-10-07T08:13:11.796Z</time>
      </trkpt>
      <trkpt lat="53.85388" lon="23.05361">
        <ele>137.991957</ele>
        <time>2020-10-07T08:13:20.556Z</time>
      </trkpt>
      <trkpt lat="53.85389" lon="23.05331">
        <ele>137.826232</ele>
        <time>2020-10-07T08:13:23.947Z</time>
      </trkpt>
      <trkpt lat="53.85372" lon="23.04705">
        <ele>135.336817</ele>
        <time>2020-10-07T08:14:39.004Z</time>
      </trkpt>
      <trkpt lat="53.8538" lon="23.04444">
        <ele>134.028358</ele>
        <time>2020-10-07T08:15:09.319Z</time>
      </trkpt>
      <trkpt lat="53.85382" lon="23.04394">
        <ele>133.771439</ele>
        <time>2020-10-07T08:15:15.028Z</time>
      </trkpt>
      <trkpt lat="53.85377" lon="23.04294">
        <ele>133.183356</ele>
        <time>2020-10-07T08:15:26.489Z</time>
      </trkpt>
      <trkpt lat="53.85357" lon="23.04128">
        <ele>132.157874</ele>
        <time>2020-10-07T08:15:45.790Z</time>
      </trkpt>
      <trkpt lat="53.85341" lon="23.04007">
        <ele>131.344349</ele>
        <time>2020-10-07T08:15:59.839Z</time>
      </trkpt>
      <trkpt lat="53.85317" lon="23.03891">
        <ele>130.478909</ele>
        <time>2020-10-07T08:16:13.541Z</time>
      </trkpt>
      <trkpt lat="53.85307" lon="23.03862">
        <ele>130.2406</ele>
        <time>2020-10-07T08:16:17.286Z</time>
      </trkpt>
      <trkpt lat="53.85269" lon="23.03748">
        <ele>129.368996</ele>
        <time>2020-10-07T08:16:31.799Z</time>
      </trkpt>
      <trkpt lat="53.85151" lon="23.03372">
        <ele>127.013276</ele>
        <time>2020-10-07T08:17:20.468Z</time>
      </trkpt>
      <trkpt lat="53.85152" lon="23.03346">
        <ele>126.893335</ele>
        <time>2020-10-07T08:17:23.544Z</time>
      </trkpt>
      <trkpt lat="53.85167" lon="23.03277">
        <ele>126.555198</ele>
        <time>2020-10-07T08:17:32.329Z</time>
      </trkpt>
      <trkpt lat="53.85176" lon="23.03108">
        <ele>126.3623</ele>
        <time>2020-10-07T08:17:53.594Z</time>
      </trkpt>
      <trkpt lat="53.85187" lon="23.03057">
        <ele>126.351532</ele>
        <time>2020-10-07T08:18:00.723Z</time>
      </trkpt>
      <trkpt lat="53.85202" lon="23.02987">
        <ele>126.336461</ele>
        <time>2020-10-07T08:18:10.892Z</time>
      </trkpt>
      <trkpt lat="53.85207" lon="23.02969">
        <ele>126.3325</ele>
        <time>2020-10-07T08:18:13.629Z</time>
      </trkpt>
      <trkpt lat="53.85247" lon="23.02854">
        <ele>126.669591</ele>
        <time>2020-10-07T08:18:32.615Z</time>
      </trkpt>
      <trkpt lat="53.85283" lon="23.02751">
        <ele>127.035932</ele>
        <time>2020-10-07T08:18:49.989Z</time>
      </trkpt>
      <trkpt lat="53.85298" lon="23.02728">
        <ele>127.142179</ele>
        <time>2020-10-07T08:18:55.066Z</time>
      </trkpt>
      <trkpt lat="53.85304" lon="23.02711">
        <ele>127.203109</ele>
        <time>2020-10-07T08:18:58.015Z</time>
      </trkpt>
      <trkpt lat="53.85312" lon="23.02685">
        <ele>127.287228</ele>
        <time>2020-10-07T08:19:02.363Z</time>
      </trkpt>
      <trkpt lat="53.85315" lon="23.02676">
        <ele>127.311209</ele>
        <time>2020-10-07T08:19:03.873Z</time>
      </trkpt>
      <trkpt lat="53.85325" lon="23.02647">
        <ele>127.388107</ele>
        <time>2020-10-07T08:19:08.706Z</time>
      </trkpt>
      <trkpt lat="53.85332" lon="23.02628">
        <ele>127.439637</ele>
        <time>2020-10-07T08:19:11.873Z</time>
      </trkpt>
      <trkpt lat="53.85335" lon="23.02619">
        <ele>127.46461</ele>
        <time>2020-10-07T08:19:13.425Z</time>
      </trkpt>
      <trkpt lat="53.85342" lon="23.02598">
        <ele>127.517928</ele>
        <time>2020-10-07T08:19:16.700Z</time>
      </trkpt>
      <trkpt lat="53.85346" lon="23.02586">
        <ele>127.550237</ele>
        <time>2020-10-07T08:19:18.663Z</time>
      </trkpt>
      <trkpt lat="53.85348" lon="23.02581">
        <ele>127.564309</ele>
        <time>2020-10-07T08:19:19.511Z</time>
      </trkpt>
      <trkpt lat="53.8535" lon="23.02573">
        <ele>127.584873</ele>
        <time>2020-10-07T08:19:20.758Z</time>
      </trkpt>
      <trkpt lat="53.85353" lon="23.02557">
        <ele>127.622848</ele>
        <time>2020-10-07T08:19:23.070Z</time>
      </trkpt>
      <trkpt lat="53.85357" lon="23.02549">
        <ele>127.646051</ele>
        <time>2020-10-07T08:19:24.486Z</time>
      </trkpt>
      <trkpt lat="53.8538" lon="23.02482">
        <ele>127.823629</ele>
        <time>2020-10-07T08:19:35.219Z</time>
      </trkpt>
      <trkpt lat="53.85386" lon="23.02459">
        <ele>127.882936</ele>
        <time>2020-10-07T08:19:38.785Z</time>
      </trkpt>
      <trkpt lat="53.85436" lon="23.02307">
        <ele>128.15767</ele>
        <time>2020-10-07T08:20:02.783Z</time>
      </trkpt>
      <trkpt lat="53.85593" lon="23.01851">
        <ele>128.708722</ele>
        <time>2020-10-07T08:21:14.623Z</time>
      </trkpt>
      <trkpt lat="53.85654" lon="23.01671">
        <ele>128.695937</ele>
        <time>2020-10-07T08:21:41.453Z</time>
      </trkpt>
      <trkpt lat="53.85683" lon="23.01583">
        <ele>128.591998</ele>
        <time>2020-10-07T08:21:54.704Z</time>
      </trkpt>
      <trkpt lat="53.85709" lon="23.01506">
        <ele>128.440182</ele>
        <time>2020-10-07T08:22:05.991Z</time>
      </trkpt>
      <trkpt lat="53.85739" lon="23.01419">
        <ele>128.266047</ele>
        <time>2020-10-07T08:22:18.371Z</time>
      </trkpt>
      <trkpt lat="53.85765" lon="23.01344">
        <ele>128.132111</ele>
        <time>2020-10-07T08:22:28.911Z</time>
      </trkpt>
      <trkpt lat="53.85771" lon="23.01311">
        <ele>128.090012</ele>
        <time>2020-10-07T08:22:33.128Z</time>
      </trkpt>
      <trkpt lat="53.8577" lon="23.01279">
        <ele>128.05013</ele>
        <time>2020-10-07T08:22:37.090Z</time>
      </trkpt>
      <trkpt lat="53.85769" lon="23.01266">
        <ele>128.033078</ele>
        <time>2020-10-07T08:22:38.667Z</time>
      </trkpt>
      <trkpt lat="53.85766" lon="23.01238">
        <ele>127.997631</ele>
        <time>2020-10-07T08:22:42.495Z</time>
      </trkpt>
      <trkpt lat="53.85764" lon="23.01221">
        <ele>127.976799</ele>
        <time>2020-10-07T08:22:44.496Z</time>
      </trkpt>
      <trkpt lat="53.85763" lon="23.01208">
        <ele>127.960269</ele>
        <time>2020-10-07T08:22:46.028Z</time>
      </trkpt>
      <trkpt lat="53.85763" lon="23.01195">
        <ele>127.944006</ele>
        <time>2020-10-07T08:22:47.732Z</time>
      </trkpt>
      <trkpt lat="53.85766" lon="23.01183">
        <ele>127.928588</ele>
        <time>2020-10-07T08:22:49.469Z</time>
      </trkpt>
      <trkpt lat="53.8577" lon="23.01171">
        <ele>127.910731</ele>
        <time>2020-10-07T08:22:51.225Z</time>
      </trkpt>
      <trkpt lat="53.85798" lon="23.01107">
        <ele>127.811215</ele>
        <time>2020-10-07T08:23:01.392Z</time>
      </trkpt>
      <trkpt lat="53.85793" lon="23.011">
        <ele>127.797405</ele>
        <time>2020-10-07T08:23:03.889Z</time>
      </trkpt>
      <trkpt lat="53.85788" lon="23.01094">
        <ele>127.825776</ele>
        <time>2020-10-07T08:23:06.292Z</time>
      </trkpt>
      <trkpt lat="53.85798" lon="23.01072">
        <ele>127.999286</ele>
        <time>2020-10-07T08:23:12.390Z</time>
      </trkpt>
      <trkpt lat="53.8583" lon="23.00997">
        <ele>128.594589</ele>
        <time>2020-10-07T08:23:34.333Z</time>
      </trkpt>
      <trkpt lat="53.85852" lon="23.00949">
        <ele>128.982727</ele>
        <time>2020-10-07T08:23:49.600Z</time>
      </trkpt>
      <trkpt lat="53.85878" lon="23.00893">
        <ele>129.441105</ele>
        <time>2020-10-07T08:24:07.804Z</time>
      </trkpt>
      <trkpt lat="53.85908" lon="23.00822">
        <ele>130.129316</ele>
        <time>2020-10-07T08:24:30.474Z</time>
      </trkpt>
      <trkpt lat="53.85952" lon="23.00723">
        <ele>131.303397</ele>
        <time>2020-10-07T08:25:02.858Z</time>
      </trkpt>
      <trkpt lat="53.8598" lon="23.00656">
        <ele>132.097727</ele>
        <time>2020-10-07T08:25:24.160Z</time>
      </trkpt>
      <trkpt lat="53.8599" lon="23.00633">
        <ele>132.368821</ele>
        <time>2020-10-07T08:25:31.610Z</time>
      </trkpt>
      <trkpt lat="53.85999" lon="23.00588">
        <ele>132.772703</ele>
        <time>2020-10-07T08:25:43.290Z</time>
      </trkpt>
      <trkpt lat="53.86003" lon="23.0056">
        <ele>132.957586</ele>
        <time>2020-10-07T08:25:50.465Z</time>
      </trkpt>
      <trkpt lat="53.86004" lon="23.00548">
        <ele>133.036986</ele>
        <time>2020-10-07T08:25:52.807Z</time>
      </trkpt>
      <trkpt lat="53.86003" lon="23.00542">
        <ele>133.078917</ele>
        <time>2020-10-07T08:25:54.050Z</time>
      </trkpt>
      <trkpt lat="53.85997" lon="23.0054">
        <ele>133.143331</ele>
        <time>2020-10-07T08:25:55.975Z</time>
      </trkpt>
      <trkpt lat="53.85998" lon="23.00533">
        <ele>133.191665</ele>
        <time>2020-10-07T08:25:57.574Z</time>
      </trkpt>
      <trkpt lat="53.86" lon="23.0052">
        <ele>133.275205</ele>
        <time>2020-10-07T08:26:00.305Z</time>
      </trkpt>
      <trkpt lat="53.86002" lon="23.00511">
        <ele>133.337579</ele>
        <time>2020-10-07T08:26:02.141Z</time>
      </trkpt>
      <trkpt lat="53.86016" lon="23.00517">
        <ele>133.50159</ele>
        <time>2020-10-07T08:26:06.916Z</time>
      </trkpt>
      <trkpt lat="53.86022" lon="23.00519">
        <ele>133.568154</ele>
        <time>2020-10-07T08:26:08.993Z</time>
      </trkpt>
      <trkpt lat="53.8603" lon="23.00521">
        <ele>133.649969</ele>
        <time>2020-10-07T08:26:11.724Z</time>
      </trkpt>
      <trkpt lat="53.8604" lon="23.00522">
        <ele>133.765784</ele>
        <time>2020-10-07T08:26:15.004Z</time>
      </trkpt>
      <trkpt lat="53.86067" lon="23.0052">
        <ele>134.067002</ele>
        <time>2020-10-07T08:26:24.211Z</time>
      </trkpt>
      <trkpt lat="53.86096" lon="23.00508">
        <ele>134.395167</ele>
        <time>2020-10-07T08:26:33.779Z</time>
      </trkpt>
      <trkpt lat="53.8614" lon="23.00468">
        <ele>135.011925</ele>
        <time>2020-10-07T08:26:49.952Z</time>
      </trkpt>
      <trkpt lat="53.86251" lon="23.00311">
        <ele>137.007902</ele>
        <time>2020-10-07T08:27:41.800Z</time>
      </trkpt>
      <trkpt lat="53.86254" lon="23.00285">
        <ele>137.115554</ele>
        <time>2020-10-07T08:27:47.159Z</time>
      </trkpt>
      <trkpt lat="53.86256" lon="23.00281">
        <ele>137.114354</ele>
        <time>2020-10-07T08:27:49.083Z</time>
      </trkpt>
      <trkpt lat="53.86201" lon="23.00165">
        <ele>137.081768</ele>
        <time>2020-10-07T08:28:16.750Z</time>
      </trkpt>
      <trkpt lat="53.86184" lon="23.00119">
        <ele>137.069795</ele>
        <time>2020-10-07T08:28:25.832Z</time>
      </trkpt>
      <trkpt lat="53.86178" lon="23.00073">
        <ele>137.059663</ele>
        <time>2020-10-07T08:28:33.294Z</time>
      </trkpt>
      <trkpt lat="53.86178" lon="23.00037">
        <ele>137.049703</ele>
        <time>2020-10-07T08:28:38.229Z</time>
      </trkpt>
      <trkpt lat="53.86145" lon="23.00005">
        <ele>136.639114</ele>
        <time>2020-10-07T08:28:47.497Z</time>
      </trkpt>
      <trkpt lat="53.8611" lon="22.99954">
        <ele>136.140226</ele>
        <time>2020-10-07T08:28:58.935Z</time>
      </trkpt>
      <trkpt lat="53.86087" lon="22.99892">
        <ele>135.678117</ele>
        <time>2020-10-07T08:29:10.464Z</time>
      </trkpt>
      <trkpt lat="53.8608" lon="22.99883">
        <ele>135.581603</ele>
        <time>2020-10-07T08:29:12.502Z</time>
      </trkpt>
      <trkpt lat="53.86073" lon="22.99881">
        <ele>135.505226</ele>
        <time>2020-10-07T08:29:14.376Z</time>
      </trkpt>
      <trkpt lat="53.86066" lon="22.99882">
        <ele>135.424993</ele>
        <time>2020-10-07T08:29:16.223Z</time>
      </trkpt>
      <trkpt lat="53.86042" lon="22.99896">
        <ele>135.153504</ele>
        <time>2020-10-07T08:29:23.059Z</time>
      </trkpt>
      <trkpt lat="53.85993" lon="22.99922">
        <ele>135.688848</ele>
        <time>2020-10-07T08:29:38.869Z</time>
      </trkpt>
      <trkpt lat="53.85985" lon="22.99924">
        <ele>135.791394</ele>
        <time>2020-10-07T08:29:42.400Z</time>
      </trkpt>
      <trkpt lat="53.85977" lon="22.99922">
        <ele>135.889728</ele>
        <time>2020-10-07T08:29:44.467Z</time>
      </trkpt>
      <trkpt lat="53.85935" lon="22.9991">
        <ele>136.404102</ele>
        <time>2020-10-07T08:29:59.092Z</time>
      </trkpt>
      <trkpt lat="53.85935" lon="22.99906">
        <ele>136.432291</ele>
        <time>2020-10-07T08:29:59.882Z</time>
      </trkpt>
      <trkpt lat="53.85928" lon="22.99901">
        <ele>136.530963</ele>
        <time>2020-10-07T08:30:02.683Z</time>
      </trkpt>
      <trkpt lat="53.85926" lon="22.99904">
        <ele>136.555577</ele>
        <time>2020-10-07T08:30:03.438Z</time>
      </trkpt>
      <trkpt lat="53.85896" lon="22.99866">
        <ele>137.019421</ele>
        <time>2020-10-07T08:30:18.305Z</time>
      </trkpt>
      <trkpt lat="53.85845" lon="22.99817">
        <ele>137.839112</ele>
        <time>2020-10-07T08:30:41.100Z</time>
      </trkpt>
      <trkpt lat="53.85793" lon="22.99731">
        <ele>138.93063</ele>
        <time>2020-10-07T08:31:06.540Z</time>
      </trkpt>
      <trkpt lat="53.85779" lon="22.99724">
        <ele>139.15466</ele>
        <time>2020-10-07T08:31:11.674Z</time>
      </trkpt>
      <trkpt lat="53.85745" lon="22.99742">
        <ele>139.689009</ele>
        <time>2020-10-07T08:31:23.780Z</time>
      </trkpt>
      <trkpt lat="53.85741" lon="22.99696">
        <ele>140.028306</ele>
        <time>2020-10-07T08:31:33.031Z</time>
      </trkpt>
      <trkpt lat="53.85728" lon="22.99667">
        <ele>140.032153</ele>
        <time>2020-10-07T08:31:40.223Z</time>
      </trkpt>
      <trkpt lat="53.8563" lon="22.99601">
        <ele>140.050807</ele>
        <time>2020-10-07T08:32:12.479Z</time>
      </trkpt>
      <trkpt lat="53.85578" lon="22.99533">
        <ele>139.785066</ele>
        <time>2020-10-07T08:32:29.407Z</time>
      </trkpt>
      <trkpt lat="53.85536" lon="22.99463">
        <ele>138.881215</ele>
        <time>2020-10-07T08:32:44.279Z</time>
      </trkpt>
      <trkpt lat="53.85518" lon="22.99432">
        <ele>138.495466</ele>
        <time>2020-10-07T08:32:50.571Z</time>
      </trkpt>
      <trkpt lat="53.85509" lon="22.99399">
        <ele>138.169416</ele>
        <time>2020-10-07T08:32:55.716Z</time>
      </trkpt>
      <trkpt lat="53.8546" lon="22.99278">
        <ele>136.953206</ele>
        <time>2020-10-07T08:33:17.193Z</time>
      </trkpt>
      <trkpt lat="53.85423" lon="22.99223">
        <ele>136.370979</ele>
        <time>2020-10-07T08:33:29.388Z</time>
      </trkpt>
      <trkpt lat="53.8542" lon="22.99169">
        <ele>135.987096</ele>
        <time>2020-10-07T08:33:37.822Z</time>
      </trkpt>
      <trkpt lat="53.85397" lon="22.99123">
        <ele>135.571551</ele>
        <time>2020-10-07T08:33:47.162Z</time>
      </trkpt>
      <trkpt lat="53.85385" lon="22.99111">
        <ele>135.404058</ele>
        <time>2020-10-07T08:33:50.877Z</time>
      </trkpt>
      <trkpt lat="53.85383" lon="22.9911">
        <ele>135.382392</ele>
        <time>2020-10-07T08:33:51.456Z</time>
      </trkpt>
      <trkpt lat="53.85384" lon="22.99107">
        <ele>135.365259</ele>
        <time>2020-10-07T08:33:51.874Z</time>
      </trkpt>
      <trkpt lat="53.85378" lon="22.99099">
        <ele>135.281631</ele>
        <time>2020-10-07T08:33:53.821Z</time>
      </trkpt>
      <trkpt lat="53.85378" lon="22.991">
        <ele>135.272336</ele>
        <time>2020-10-07T08:33:54.074Z</time>
      </trkpt>
      <trkpt lat="53.85354" lon="22.98946">
        <ele>134.236268</ele>
        <time>2020-10-07T08:34:19.534Z</time>
      </trkpt>
      <trkpt lat="53.85352" lon="22.98895">
        <ele>133.906422</ele>
        <time>2020-10-07T08:34:27.532Z</time>
      </trkpt>
      <trkpt lat="53.85353" lon="22.98879">
        <ele>133.802558</ele>
        <time>2020-10-07T08:34:29.931Z</time>
      </trkpt>
      <trkpt lat="53.85357" lon="22.98832">
        <ele>133.491021</ele>
        <time>2020-10-07T08:34:36.975Z</time>
      </trkpt>
      <trkpt lat="53.85363" lon="22.98765">
        <ele>132.918578</ele>
        <time>2020-10-07T08:34:46.708Z</time>
      </trkpt>
      <trkpt lat="53.85366" lon="22.98728">
        <ele>132.481318</ele>
        <time>2020-10-07T08:34:51.928Z</time>
      </trkpt>
      <trkpt lat="53.85371" lon="22.98663">
        <ele>131.71309</ele>
        <time>2020-10-07T08:35:01.225Z</time>
      </trkpt>
      <trkpt lat="53.85373" lon="22.98646">
        <ele>131.500705</ele>
        <time>2020-10-07T08:35:03.872Z</time>
      </trkpt>
      <trkpt lat="53.85377" lon="22.9862">
        <ele>131.182258</ele>
        <time>2020-10-07T08:35:07.788Z</time>
      </trkpt>
      <trkpt lat="53.85379" lon="22.98608">
        <ele>131.037185</ele>
        <time>2020-10-07T08:35:09.431Z</time>
      </trkpt>
      <trkpt lat="53.85389" lon="22.98447">
        <ele>129.181489</ele>
        <time>2020-10-07T08:35:32.381Z</time>
      </trkpt>
      <trkpt lat="53.85398" lon="22.98317">
        <ele>127.803579</ele>
        <time>2020-10-07T08:35:50.876Z</time>
      </trkpt>
      <trkpt lat="53.85399" lon="22.98297">
        <ele>127.583291</ele>
        <time>2020-10-07T08:35:54.003Z</time>
      </trkpt>
      <trkpt lat="53.85412" lon="22.98108">
        <ele>125.989545</ele>
        <time>2020-10-07T08:36:22.294Z</time>
      </trkpt>
      <trkpt lat="53.85415" lon="22.98103">
        <ele>125.94609</ele>
        <time>2020-10-07T08:36:23.446Z</time>
      </trkpt>
      <trkpt lat="53.85421" lon="22.98093">
        <ele>125.873579</ele>
        <time>2020-10-07T08:36:25.403Z</time>
      </trkpt>
      <trkpt lat="53.85424" lon="22.98024">
        <ele>125.508344</ele>
        <time>2020-10-07T08:36:36.025Z</time>
      </trkpt>
      <trkpt lat="53.85426" lon="22.97994">
        <ele>125.34736</ele>
        <time>2020-10-07T08:36:41.053Z</time>
      </trkpt>
      <trkpt lat="53.85423" lon="22.97978">
        <ele>125.25765</ele>
        <time>2020-10-07T08:36:43.520Z</time>
      </trkpt>
      <trkpt lat="53.85412" lon="22.97959">
        <ele>125.116548</ele>
        <time>2020-10-07T08:36:47.902Z</time>
      </trkpt>
      <trkpt lat="53.85386" lon="22.97954">
        <ele>124.879902</ele>
        <time>2020-10-07T08:36:55.012Z</time>
      </trkpt>
      <trkpt lat="53.85354" lon="22.97964">
        <ele>124.813883</ele>
        <time>2020-10-07T08:37:04.308Z</time>
      </trkpt>
      <trkpt lat="53.85332" lon="22.97988">
        <ele>124.860342</ele>
        <time>2020-10-07T08:37:12.426Z</time>
      </trkpt>
      <trkpt lat="53.85274" lon="22.98079">
        <ele>124.998457</ele>
        <time>2020-10-07T08:37:36.804Z</time>
      </trkpt>
      <trkpt lat="53.85232" lon="22.98096">
        <ele>125.075587</ele>
        <time>2020-10-07T08:37:50.207Z</time>
      </trkpt>
      <trkpt lat="53.8521" lon="22.98093">
        <ele>125.060026</ele>
        <time>2020-10-07T08:37:56.493Z</time>
      </trkpt>
      <trkpt lat="53.85188" lon="22.98083">
        <ele>124.994555</ele>
        <time>2020-10-07T08:38:03.381Z</time>
      </trkpt>
      <trkpt lat="53.85136" lon="22.98079">
        <ele>124.846528</ele>
        <time>2020-10-07T08:38:18.378Z</time>
      </trkpt>
      <trkpt lat="53.85072" lon="22.98116">
        <ele>124.655007</ele>
        <time>2020-10-07T08:38:37.053Z</time>
      </trkpt>
      <trkpt lat="53.85051" lon="22.98143">
        <ele>124.575666</ele>
        <time>2020-10-07T08:38:44.235Z</time>
      </trkpt>
      <trkpt lat="53.8496" lon="22.98358">
        <ele>123.512434</ele>
        <time>2020-10-07T08:39:26.340Z</time>
      </trkpt>
      <trkpt lat="53.84932" lon="22.9843">
        <ele>123.257762</ele>
        <time>2020-10-07T08:39:40.098Z</time>
      </trkpt>
      <trkpt lat="53.84925" lon="22.98443">
        <ele>123.22069</ele>
        <time>2020-10-07T08:39:53.181Z</time>
      </trkpt>
      <trkpt lat="53.84908" lon="22.9847">
        <ele>123.140371</ele>
        <time>2020-10-07T08:39:59.339Z</time>
      </trkpt>
      <trkpt lat="53.84893" lon="22.98492">
        <ele>123.07062</ele>
        <time>2020-10-07T08:40:04.781Z</time>
      </trkpt>
      <trkpt lat="53.84884" lon="22.98501">
        <ele>123.033129</ele>
        <time>2020-10-07T08:40:18.061Z</time>
      </trkpt>
      <trkpt lat="53.84857" lon="22.98526">
        <ele>122.925244</ele>
        <time>2020-10-07T08:40:25.005Z</time>
      </trkpt>
      <trkpt lat="53.84814" lon="22.98565">
        <ele>122.755012</ele>
        <time>2020-10-07T08:40:36.353Z</time>
      </trkpt>
      <trkpt lat="53.84805" lon="22.98571">
        <ele>122.724548</ele>
        <time>2020-10-07T08:40:38.548Z</time>
      </trkpt>
      <trkpt lat="53.84799" lon="22.9857">
        <ele>122.723421</ele>
        <time>2020-10-07T08:40:39.698Z</time>
      </trkpt>
      <trkpt lat="53.84794" lon="22.98565">
        <ele>122.722198</ele>
        <time>2020-10-07T08:40:41.233Z</time>
      </trkpt>
      <trkpt lat="53.84782" lon="22.98564">
        <ele>122.719971</ele>
        <time>2020-10-07T08:40:44.079Z</time>
      </trkpt>
      <trkpt lat="53.84777" lon="22.98568">
        <ele>122.718853</ele>
        <time>2020-10-07T08:40:45.366Z</time>
      </trkpt>
      <trkpt lat="53.84772" lon="22.98577">
        <ele>122.717392</ele>
        <time>2020-10-07T08:40:47.458Z</time>
      </trkpt>
      <trkpt lat="53.8477" lon="22.98586">
        <ele>122.716326</ele>
        <time>2020-10-07T08:40:48.889Z</time>
      </trkpt>
      <trkpt lat="53.84769" lon="22.98594">
        <ele>122.71535</ele>
        <time>2020-10-07T08:40:50.405Z</time>
      </trkpt>
      <trkpt lat="53.8477" lon="22.98595">
        <ele>122.715183</ele>
        <time>2020-10-07T08:40:50.658Z</time>
      </trkpt>
      <trkpt lat="53.84772" lon="22.98601">
        <ele>122.714457</ele>
        <time>2020-10-07T08:40:51.701Z</time>
      </trkpt>
      <trkpt lat="53.84772" lon="22.98603">
        <ele>122.714182</ele>
        <time>2020-10-07T08:40:52.121Z</time>
      </trkpt>
      <trkpt lat="53.84789" lon="22.98641">
        <ele>122.708782</ele>
        <time>2020-10-07T08:41:00.042Z</time>
      </trkpt>
      <trkpt lat="53.84813" lon="22.98703">
        <ele>122.700328</ele>
        <time>2020-10-07T08:41:12.664Z</time>
      </trkpt>
      <trkpt lat="53.84816" lon="22.98704">
        <ele>122.699811</ele>
        <time>2020-10-07T08:41:13.790Z</time>
      </trkpt>
      <trkpt lat="53.84823" lon="22.987">
        <ele>122.698424</ele>
        <time>2020-10-07T08:41:18.781Z</time>
      </trkpt>
      <trkpt lat="53.84817" lon="22.98679">
        <ele>122.695716</ele>
        <time>2020-10-07T08:41:21.774Z</time>
      </trkpt>
      <trkpt lat="53.84782" lon="22.9858">
        <ele>122.926172</ele>
        <time>2020-10-07T08:41:38.566Z</time>
      </trkpt>
      <trkpt lat="53.84756" lon="22.98508">
        <ele>123.235159</ele>
        <time>2020-10-07T08:41:50.904Z</time>
      </trkpt>
      <trkpt lat="53.84753" lon="22.98501">
        <ele>123.270032</ele>
        <time>2020-10-07T08:41:52.734Z</time>
      </trkpt>
      <trkpt lat="53.84748" lon="22.98492">
        <ele>123.313318</ele>
        <time>2020-10-07T08:41:54.464Z</time>
      </trkpt>
      <trkpt lat="53.84714" lon="22.98448">
        <ele>123.57673</ele>
        <time>2020-10-07T08:42:05.346Z</time>
      </trkpt>
      <trkpt lat="53.84681" lon="22.98404">
        <ele>123.862044</ele>
        <time>2020-10-07T08:42:16.890Z</time>
      </trkpt>
      <trkpt lat="53.84654" lon="22.98367">
        <ele>124.231677</ele>
        <time>2020-10-07T08:42:26.607Z</time>
      </trkpt>
      <trkpt lat="53.84594" lon="22.98292">
        <ele>125.017791</ele>
        <time>2020-10-07T08:42:46.727Z</time>
      </trkpt>
      <trkpt lat="53.84553" lon="22.98238">
        <ele>125.576802</ele>
        <time>2020-10-07T08:43:00.843Z</time>
      </trkpt>
      <trkpt lat="53.84532" lon="22.98211">
        <ele>125.855212</ele>
        <time>2020-10-07T08:43:08.315Z</time>
      </trkpt>
      <trkpt lat="53.84463" lon="22.98121">
        <ele>126.777062</ele>
        <time>2020-10-07T08:43:33.606Z</time>
      </trkpt>
      <trkpt lat="53.84404" lon="22.98044">
        <ele>127.574749</ele>
        <time>2020-10-07T08:43:53.585Z</time>
      </trkpt>
      <trkpt lat="53.84373" lon="22.98124">
        <ele>127.416062</ele>
        <time>2020-10-07T08:44:07.718Z</time>
      </trkpt>
      <trkpt lat="53.84295" lon="22.98028">
        <ele>127.016198</ele>
        <time>2020-10-07T08:44:28.592Z</time>
      </trkpt>
      <trkpt lat="53.84261" lon="22.97986">
        <ele>126.756489</ele>
        <time>2020-10-07T08:44:36.695Z</time>
      </trkpt>
      <trkpt lat="53.84255" lon="22.97979">
        <ele>126.661653</ele>
        <time>2020-10-07T08:44:38.059Z</time>
      </trkpt>
      <trkpt lat="53.84249" lon="22.97972">
        <ele>126.575623</ele>
        <time>2020-10-07T08:44:39.250Z</time>
      </trkpt>
      <trkpt lat="53.84166" lon="22.97881">
        <ele>125.32493</ele>
        <time>2020-10-07T08:44:58.080Z</time>
      </trkpt>
      <trkpt lat="53.8407" lon="22.97775">
        <ele>124.64366</ele>
        <time>2020-10-07T08:45:22.207Z</time>
      </trkpt>
      <trkpt lat="53.84027" lon="22.97728">
        <ele>124.672822</ele>
        <time>2020-10-07T08:45:34.402Z</time>
      </trkpt>
      <trkpt lat="53.84016" lon="22.97715">
        <ele>124.680661</ele>
        <time>2020-10-07T08:45:37.908Z</time>
      </trkpt>
      <trkpt lat="53.84023" lon="22.97693">
        <ele>124.689105</ele>
        <time>2020-10-07T08:45:41.607Z</time>
      </trkpt>
      <trkpt lat="53.84028" lon="22.97681">
        <ele>124.69396</ele>
        <time>2020-10-07T08:45:43.758Z</time>
      </trkpt>
      <trkpt lat="53.84063" lon="22.97588">
        <ele>124.889743</ele>
        <time>2020-10-07T08:46:00.666Z</time>
      </trkpt>
      <trkpt lat="53.83936" lon="22.97452">
        <ele>125.715976</ele>
        <time>2020-10-07T08:46:38.779Z</time>
      </trkpt>
      <trkpt lat="53.83934" lon="22.97449">
        <ele>125.71815</ele>
        <time>2020-10-07T08:46:39.564Z</time>
      </trkpt>
      <trkpt lat="53.83841" lon="22.97347">
        <ele>125.792267</ele>
        <time>2020-10-07T08:47:06.276Z</time>
      </trkpt>
      <trkpt lat="53.8381" lon="22.97313">
        <ele>125.817425</ele>
        <time>2020-10-07T08:47:14.341Z</time>
      </trkpt>
      <trkpt lat="53.83792" lon="22.97293">
        <ele>125.83195</ele>
        <time>2020-10-07T08:47:18.893Z</time>
      </trkpt>
      <trkpt lat="53.83783" lon="22.97283">
        <ele>125.807145</ele>
        <time>2020-10-07T08:47:21.028Z</time>
      </trkpt>
      <trkpt lat="53.83773" lon="22.97273">
        <ele>125.72742</ele>
        <time>2020-10-07T08:47:23.363Z</time>
      </trkpt>
      <trkpt lat="53.83753" lon="22.97246">
        <ele>125.551397</ele>
        <time>2020-10-07T08:47:28.764Z</time>
      </trkpt>
      <trkpt lat="53.83747" lon="22.97236">
        <ele>125.496046</ele>
        <time>2020-10-07T08:47:30.326Z</time>
      </trkpt>
      <trkpt lat="53.83745" lon="22.97223">
        <ele>125.441339</ele>
        <time>2020-10-07T08:47:31.987Z</time>
      </trkpt>
      <trkpt lat="53.83745" lon="22.97216">
        <ele>125.410933</ele>
        <time>2020-10-07T08:47:32.919Z</time>
      </trkpt>
      <trkpt lat="53.83745" lon="22.97208">
        <ele>125.380734</ele>
        <time>2020-10-07T08:47:33.867Z</time>
      </trkpt>
      <trkpt lat="53.83743" lon="22.972">
        <ele>125.347212</ele>
        <time>2020-10-07T08:47:34.863Z</time>
      </trkpt>
      <trkpt lat="53.83729" lon="22.9718">
        <ele>125.218639</ele>
        <time>2020-10-07T08:47:38.649Z</time>
      </trkpt>
      <trkpt lat="53.83724" lon="22.97179">
        <ele>125.185125</ele>
        <time>2020-10-07T08:47:39.637Z</time>
      </trkpt>
      <trkpt lat="53.83719" lon="22.9718">
        <ele>125.1536</ele>
        <time>2020-10-07T08:47:40.601Z</time>
      </trkpt>
      <trkpt lat="53.83715" lon="22.97183">
        <ele>125.122517</ele>
        <time>2020-10-07T08:47:41.558Z</time>
      </trkpt>
      <trkpt lat="53.83706" lon="22.9718">
        <ele>125.063112</ele>
        <time>2020-10-07T08:47:43.364Z</time>
      </trkpt>
      <trkpt lat="53.837" lon="22.97176">
        <ele>125.017977</ele>
        <time>2020-10-07T08:47:44.598Z</time>
      </trkpt>
      <trkpt lat="53.83696" lon="22.97172">
        <ele>124.986722</ele>
        <time>2020-10-07T08:47:45.522Z</time>
      </trkpt>
      <trkpt lat="53.8369" lon="22.97175">
        <ele>124.939836</ele>
        <time>2020-10-07T08:47:46.960Z</time>
      </trkpt>
      <trkpt lat="53.83685" lon="22.9718">
        <ele>124.900043</ele>
        <time>2020-10-07T08:47:48.217Z</time>
      </trkpt>
      <trkpt lat="53.83677" lon="22.97199">
        <ele>124.811302</ele>
        <time>2020-10-07T08:47:50.971Z</time>
      </trkpt>
      <trkpt lat="53.83673" lon="22.97206">
        <ele>124.770629</ele>
        <time>2020-10-07T08:47:52.110Z</time>
      </trkpt>
      <trkpt lat="53.83667" lon="22.97213">
        <ele>124.716077</ele>
        <time>2020-10-07T08:47:53.770Z</time>
      </trkpt>
      <trkpt lat="53.83592" lon="22.97251">
        <ele>123.944885</ele>
        <time>2020-10-07T08:48:09.454Z</time>
      </trkpt>
      <trkpt lat="53.83499" lon="22.97297">
        <ele>122.917999</ele>
        <time>2020-10-07T08:48:28.663Z</time>
      </trkpt>
      <trkpt lat="53.83369" lon="22.97357">
        <ele>121.650137</ele>
        <time>2020-10-07T08:48:55.855Z</time>
      </trkpt>
      <trkpt lat="53.83263" lon="22.97384">
        <ele>120.948517</ele>
        <time>2020-10-07T08:49:18.271Z</time>
      </trkpt>
      <trkpt lat="53.83242" lon="22.97381">
        <ele>120.903698</ele>
        <time>2020-10-07T08:49:22.674Z</time>
      </trkpt>
      <trkpt lat="53.83211" lon="22.97362">
        <ele>120.830315</ele>
        <time>2020-10-07T08:49:30.100Z</time>
      </trkpt>
      <trkpt lat="53.83143" lon="22.97304">
        <ele>120.661262</ele>
        <time>2020-10-07T08:49:48.091Z</time>
      </trkpt>
      <trkpt lat="53.83128" lon="22.9729">
        <ele>120.660366</ele>
        <time>2020-10-07T08:49:52.095Z</time>
      </trkpt>
      <trkpt lat="53.83051" lon="22.97223">
        <ele>120.845385</ele>
        <time>2020-10-07T08:50:12.243Z</time>
      </trkpt>
      <trkpt lat="53.82964" lon="22.97145">
        <ele>121.060201</ele>
        <time>2020-10-07T08:50:35.093Z</time>
      </trkpt>
      <trkpt lat="53.82875" lon="22.97073">
        <ele>121.30591</ele>
        <time>2020-10-07T08:50:57.471Z</time>
      </trkpt>
      <trkpt lat="53.82869" lon="22.97068">
        <ele>121.321747</ele>
        <time>2020-10-07T08:50:58.927Z</time>
      </trkpt>
      <trkpt lat="53.82846" lon="22.97049">
        <ele>121.386538</ele>
        <time>2020-10-07T08:51:05.204Z</time>
      </trkpt>
      <trkpt lat="53.82818" lon="22.97025">
        <ele>121.46578</ele>
        <time>2020-10-07T08:51:12.792Z</time>
      </trkpt>
      <trkpt lat="53.8276" lon="22.96976">
        <ele>121.731422</ele>
        <time>2020-10-07T08:51:28.157Z</time>
      </trkpt>
      <trkpt lat="53.82717" lon="22.96948">
        <ele>121.924</ele>
        <time>2020-10-07T08:51:46.131Z</time>
      </trkpt>
      <trkpt lat="53.82682" lon="22.96913">
        <ele>122.095362</ele>
        <time>2020-10-07T08:52:02.142Z</time>
      </trkpt>
      <trkpt lat="53.82663" lon="22.96901">
        <ele>122.178961</ele>
        <time>2020-10-07T08:52:09.923Z</time>
      </trkpt>
      <trkpt lat="53.82635" lon="22.96881">
        <ele>122.264304</ele>
        <time>2020-10-07T08:52:21.738Z</time>
      </trkpt>
      <trkpt lat="53.82609" lon="22.96876">
        <ele>122.313994</ele>
        <time>2020-10-07T08:52:31.645Z</time>
      </trkpt>
      <trkpt lat="53.82575" lon="22.96874">
        <ele>122.379909</ele>
        <time>2020-10-07T08:52:44.609Z</time>
      </trkpt>
      <trkpt lat="53.82519" lon="22.96911">
        <ele>122.495922</ele>
        <time>2020-10-07T08:53:07.010Z</time>
      </trkpt>
      <trkpt lat="53.8249" lon="22.96921">
        <ele>122.553304</ele>
        <time>2020-10-07T08:53:18.183Z</time>
      </trkpt>
      <trkpt lat="53.82454" lon="22.96908">
        <ele>122.598894</ele>
        <time>2020-10-07T08:53:31.845Z</time>
      </trkpt>
      <trkpt lat="53.82354" lon="22.96815">
        <ele>122.709061</ele>
        <time>2020-10-07T08:54:14.788Z</time>
      </trkpt>
      <trkpt lat="53.82288" lon="22.96812">
        <ele>122.751803</ele>
        <time>2020-10-07T08:54:39.740Z</time>
      </trkpt>
      <trkpt lat="53.8226" lon="22.96811">
        <ele>122.755717</ele>
        <time>2020-10-07T08:54:49.822Z</time>
      </trkpt>
      <trkpt lat="53.82253" lon="22.96811">
        <ele>122.756706</ele>
        <time>2020-10-07T08:54:52.471Z</time>
      </trkpt>
      <trkpt lat="53.82215" lon="22.96808">
        <ele>122.762147</ele>
        <time>2020-10-07T08:55:06.519Z</time>
      </trkpt>
      <trkpt lat="53.82199" lon="22.96806">
        <ele>122.764459</ele>
        <time>2020-10-07T08:55:12.458Z</time>
      </trkpt>
      <trkpt lat="53.82168" lon="22.96795">
        <ele>122.769096</ele>
        <time>2020-10-07T08:55:24.407Z</time>
      </trkpt>
      <trkpt lat="53.82125" lon="22.96783">
        <ele>122.762787</ele>
        <time>2020-10-07T08:55:40.359Z</time>
      </trkpt>
      <trkpt lat="53.81925" lon="22.96721">
        <ele>122.612586</ele>
        <time>2020-10-07T08:56:54.803Z</time>
      </trkpt>
      <trkpt lat="53.81857" lon="22.96702">
        <ele>122.687031</ele>
        <time>2020-10-07T08:57:20.442Z</time>
      </trkpt>
      <trkpt lat="53.81634" lon="22.96636">
        <ele>122.997582</ele>
        <time>2020-10-07T08:58:46.740Z</time>
      </trkpt>
      <trkpt lat="53.81606" lon="22.96634">
        <ele>123.040328</ele>
        <time>2020-10-07T08:58:57.143Z</time>
      </trkpt>
      <trkpt lat="53.8158" lon="22.96652">
        <ele>123.006267</ele>
        <time>2020-10-07T08:59:07.226Z</time>
      </trkpt>
      <trkpt lat="53.8151" lon="22.96783">
        <ele>122.840864</ele>
        <time>2020-10-07T08:59:45.258Z</time>
      </trkpt>
      <trkpt lat="53.81478" lon="22.96797">
        <ele>122.789962</ele>
        <time>2020-10-07T08:59:56.970Z</time>
      </trkpt>
      <trkpt lat="53.81461" lon="22.96797">
        <ele>122.763021</ele>
        <time>2020-10-07T09:00:03.190Z</time>
      </trkpt>
      <trkpt lat="53.81433" lon="22.96782">
        <ele>122.919542</ele>
        <time>2020-10-07T09:00:14.224Z</time>
      </trkpt>
      <trkpt lat="53.81385" lon="22.96731">
        <ele>123.226967</ele>
        <time>2020-10-07T09:00:35.497Z</time>
      </trkpt>
      <trkpt lat="53.81361" lon="22.96715">
        <ele>123.367056</ele>
        <time>2020-10-07T09:00:45.387Z</time>
      </trkpt>
      <trkpt lat="53.81184" lon="22.96682">
        <ele>125.683974</ele>
        <time>2020-10-07T09:02:01.130Z</time>
      </trkpt>
      <trkpt lat="53.81122" lon="22.96712">
        <ele>126.818344</ele>
        <time>2020-10-07T09:02:31.621Z</time>
      </trkpt>
      <trkpt lat="53.81068" lon="22.96671">
        <ele>127.335345</ele>
        <time>2020-10-07T09:02:58.872Z</time>
      </trkpt>
      <trkpt lat="53.80999" lon="22.96629">
        <ele>127.897563</ele>
        <time>2020-10-07T09:03:29.991Z</time>
      </trkpt>
      <trkpt lat="53.80792" lon="22.96692">
        <ele>125.670982</ele>
        <time>2020-10-07T09:04:08.781Z</time>
      </trkpt>
      <trkpt lat="53.80737" lon="22.96708">
        <ele>124.510168</ele>
        <time>2020-10-07T09:04:18.004Z</time>
      </trkpt>
      <trkpt lat="53.80633" lon="22.96739">
        <ele>122.012333</ele>
        <time>2020-10-07T09:04:35.717Z</time>
      </trkpt>
      <trkpt lat="53.80603" lon="22.9675">
        <ele>121.281859</ele>
        <time>2020-10-07T09:04:41.058Z</time>
      </trkpt>
      <trkpt lat="53.8058" lon="22.96761">
        <ele>120.985868</ele>
        <time>2020-10-07T09:04:45.431Z</time>
      </trkpt>
      <trkpt lat="53.80558" lon="22.96772">
        <ele>120.920795</ele>
        <time>2020-10-07T09:04:49.598Z</time>
      </trkpt>
      <trkpt lat="53.8053" lon="22.96788">
        <ele>120.836855</ele>
        <time>2020-10-07T09:04:55.190Z</time>
      </trkpt>
      <trkpt lat="53.80523" lon="22.96793">
        <ele>120.813678</ele>
        <time>2020-10-07T09:04:56.790Z</time>
      </trkpt>
      <trkpt lat="53.80491" lon="22.96812">
        <ele>120.718195</ele>
        <time>2020-10-07T09:05:03.913Z</time>
      </trkpt>
      <trkpt lat="53.80457" lon="22.96832">
        <ele>120.614779</ele>
        <time>2020-10-07T09:05:12.447Z</time>
      </trkpt>
      <trkpt lat="53.80424" lon="22.96852">
        <ele>120.514012</ele>
        <time>2020-10-07T09:05:21.793Z</time>
      </trkpt>
      <trkpt lat="53.80412" lon="22.9686">
        <ele>120.748702</ele>
        <time>2020-10-07T09:05:25.585Z</time>
      </trkpt>
      <trkpt lat="53.80389" lon="22.96874">
        <ele>121.271313</ele>
        <time>2020-10-07T09:05:32.191Z</time>
      </trkpt>
      <trkpt lat="53.80371" lon="22.96884">
        <ele>121.68309</ele>
        <time>2020-10-07T09:05:38.017Z</time>
      </trkpt>
      <trkpt lat="53.80289" lon="22.96936">
        <ele>123.55499</ele>
        <time>2020-10-07T09:06:05.096Z</time>
      </trkpt>
      <trkpt lat="53.80284" lon="22.96939">
        <ele>123.667018</ele>
        <time>2020-10-07T09:06:06.918Z</time>
      </trkpt>
      <trkpt lat="53.80282" lon="22.96941">
        <ele>123.726942</ele>
        <time>2020-10-07T09:06:08.008Z</time>
      </trkpt>
      <trkpt lat="53.80276" lon="22.96913">
        <ele>124.098918</ele>
        <time>2020-10-07T09:06:13.975Z</time>
      </trkpt>
      <trkpt lat="53.80268" lon="22.96913">
        <ele>124.279522</ele>
        <time>2020-10-07T09:06:16.844Z</time>
      </trkpt>
      <trkpt lat="53.80262" lon="22.9692">
        <ele>124.449321</ele>
        <time>2020-10-07T09:06:19.350Z</time>
      </trkpt>
      <trkpt lat="53.8026" lon="22.96917">
        <ele>124.525507</ele>
        <time>2020-10-07T09:06:20.483Z</time>
      </trkpt>
      <trkpt lat="53.80257" lon="22.96915">
        <ele>124.618027</ele>
        <time>2020-10-07T09:06:21.705Z</time>
      </trkpt>
      <trkpt lat="53.80214" lon="22.96908">
        <ele>125.79915</ele>
        <time>2020-10-07T09:06:36.334Z</time>
      </trkpt>
      <trkpt lat="53.80168" lon="22.96905">
        <ele>127.081658</ele>
        <time>2020-10-07T09:06:51.816Z</time>
      </trkpt>
      <trkpt lat="53.80148" lon="22.96902">
        <ele>127.638129</ele>
        <time>2020-10-07T09:06:58.623Z</time>
      </trkpt>
      <trkpt lat="53.80105" lon="22.96896">
        <ele>128.834514</ele>
        <time>2020-10-07T09:07:12.522Z</time>
      </trkpt>
      <trkpt lat="53.80002" lon="22.96884">
        <ele>131.106906</ele>
        <time>2020-10-07T09:07:46.147Z</time>
      </trkpt>
      <trkpt lat="53.79956" lon="22.96879">
        <ele>132.041325</ele>
        <time>2020-10-07T09:07:59.512Z</time>
      </trkpt>
      <trkpt lat="53.79813" lon="22.96863">
        <ele>134.13983</ele>
        <time>2020-10-07T09:08:39.368Z</time>
      </trkpt>
      <trkpt lat="53.79776" lon="22.96863">
        <ele>134.570657</ele>
        <time>2020-10-07T09:08:49.565Z</time>
      </trkpt>
      <trkpt lat="53.79691" lon="22.96877">
        <ele>135.227354</ele>
        <time>2020-10-07T09:09:11.345Z</time>
      </trkpt>
      <trkpt lat="53.79433" lon="22.96956">
        <ele>135.245482</ele>
        <time>2020-10-07T09:10:10.685Z</time>
      </trkpt>
      <trkpt lat="53.79382" lon="22.96964">
        <ele>135.089904</ele>
        <time>2020-10-07T09:10:20.763Z</time>
      </trkpt>
      <trkpt lat="53.79298" lon="22.96957">
        <ele>133.671295</ele>
        <time>2020-10-07T09:10:36.352Z</time>
      </trkpt>
      <trkpt lat="53.7929" lon="22.96956">
        <ele>133.530352</ele>
        <time>2020-10-07T09:10:37.666Z</time>
      </trkpt>
      <trkpt lat="53.79183" lon="22.96937">
        <ele>131.48513</ele>
        <time>2020-10-07T09:10:56.309Z</time>
      </trkpt>
      <trkpt lat="53.79071" lon="22.96916">
        <ele>129.047162</ele>
        <time>2020-10-07T09:11:15.506Z</time>
      </trkpt>
      <trkpt lat="53.79028" lon="22.96915">
        <ele>128.123386</ele>
        <time>2020-10-07T09:11:23.038Z</time>
      </trkpt>
      <trkpt lat="53.78831" lon="22.96983">
        <ele>125.362045</ele>
        <time>2020-10-07T09:12:00.675Z</time>
      </trkpt>
      <trkpt lat="53.78746" lon="22.96998">
        <ele>124.976389</ele>
        <time>2020-10-07T09:12:17.594Z</time>
      </trkpt>
      <trkpt lat="53.78537" lon="22.96987">
        <ele>125.573972</ele>
        <time>2020-10-07T09:13:04.768Z</time>
      </trkpt>
      <trkpt lat="53.78307" lon="22.96954">
        <ele>129.902967</ele>
        <time>2020-10-07T09:14:16.421Z</time>
      </trkpt>
      <trkpt lat="53.78212" lon="22.96961">
        <ele>131.822774</ele>
        <time>2020-10-07T09:14:47.560Z</time>
      </trkpt>
      <trkpt lat="53.78072" lon="22.97014">
        <ele>133.891048</ele>
        <time>2020-10-07T09:15:28.302Z</time>
      </trkpt>
      <trkpt lat="53.77861" lon="22.971">
        <ele>134.526186</ele>
        <time>2020-10-07T09:16:16.797Z</time>
      </trkpt>
      <trkpt lat="53.77816" lon="22.97116">
        <ele>134.539879</ele>
        <time>2020-10-07T09:16:27.230Z</time>
      </trkpt>
      <trkpt lat="53.77764" lon="22.97129">
        <ele>134.511014</ele>
        <time>2020-10-07T09:16:38.857Z</time>
      </trkpt>
      <trkpt lat="53.777" lon="22.97138">
        <ele>134.109374</ele>
        <time>2020-10-07T09:16:53.001Z</time>
      </trkpt>
      <trkpt lat="53.776" lon="22.97136">
        <ele>133.49227</ele>
        <time>2020-10-07T09:17:13.006Z</time>
      </trkpt>
      <trkpt lat="53.77507" lon="22.97117">
        <ele>131.633944</ele>
        <time>2020-10-07T09:17:29.735Z</time>
      </trkpt>
      <trkpt lat="53.77454" lon="22.97098">
        <ele>130.492737</ele>
        <time>2020-10-07T09:17:38.815Z</time>
      </trkpt>
      <trkpt lat="53.77421" lon="22.97071">
        <ele>129.703154</ele>
        <time>2020-10-07T09:17:45.075Z</time>
      </trkpt>
      <trkpt lat="53.77354" lon="22.97003">
        <ele>128.069132</ele>
        <time>2020-10-07T09:17:58.256Z</time>
      </trkpt>
      <trkpt lat="53.7734" lon="22.97002">
        <ele>127.77636</ele>
        <time>2020-10-07T09:18:00.647Z</time>
      </trkpt>
      <trkpt lat="53.77172" lon="22.96836">
        <ele>124.866384</ele>
        <time>2020-10-07T09:18:35.847Z</time>
      </trkpt>
      <trkpt lat="53.7712" lon="22.96788">
        <ele>124.30225</ele>
        <time>2020-10-07T09:18:47.721Z</time>
      </trkpt>
      <trkpt lat="53.77017" lon="22.96697">
        <ele>125.305714</ele>
        <time>2020-10-07T09:19:18.421Z</time>
      </trkpt>
      <trkpt lat="53.7688" lon="22.96579">
        <ele>126.675351</ele>
        <time>2020-10-07T09:20:03.054Z</time>
      </trkpt>
      <trkpt lat="53.76836" lon="22.96542">
        <ele>126.958677</ele>
        <time>2020-10-07T09:20:14.966Z</time>
      </trkpt>
      <trkpt lat="53.76817" lon="22.9653">
        <ele>127.0735</ele>
        <time>2020-10-07T09:20:19.536Z</time>
      </trkpt>
      <trkpt lat="53.76793" lon="22.96518">
        <ele>127.210629</ele>
        <time>2020-10-07T09:20:24.533Z</time>
      </trkpt>
      <trkpt lat="53.76762" lon="22.96513">
        <ele>127.308465</ele>
        <time>2020-10-07T09:20:30.661Z</time>
      </trkpt>
      <trkpt lat="53.76705" lon="22.96528">
        <ele>127.37441</ele>
        <time>2020-10-07T09:20:41.261Z</time>
      </trkpt>
      <trkpt lat="53.75931" lon="22.96862">
        <ele>129.689508</ele>
        <time>2020-10-07T09:23:47.153Z</time>
      </trkpt>
      <trkpt lat="53.75796" lon="22.96919">
        <ele>133.875245</ele>
        <time>2020-10-07T09:24:40.785Z</time>
      </trkpt>
      <trkpt lat="53.75772" lon="22.96928">
        <ele>134.709655</ele>
        <time>2020-10-07T09:24:50.671Z</time>
      </trkpt>
      <trkpt lat="53.75593" lon="22.97006">
        <ele>138.739167</ele>
        <time>2020-10-07T09:25:49.557Z</time>
      </trkpt>
      <trkpt lat="53.75098" lon="22.97229">
        <ele>138.208805</ele>
        <time>2020-10-07T09:27:38.757Z</time>
      </trkpt>
      <trkpt lat="53.7507" lon="22.97237">
        <ele>138.090351</ele>
        <time>2020-10-07T09:27:44.497Z</time>
      </trkpt>
      <trkpt lat="53.75025" lon="22.97233">
        <ele>137.85209</ele>
        <time>2020-10-07T09:27:53.539Z</time>
      </trkpt>
      <trkpt lat="53.74975" lon="22.97195">
        <ele>137.3332</ele>
        <time>2020-10-07T09:28:04.497Z</time>
      </trkpt>
      <trkpt lat="53.74394" lon="22.96561">
        <ele>129.688689</ele>
        <time>2020-10-07T09:30:18.597Z</time>
      </trkpt>
      <trkpt lat="53.74264" lon="22.96436">
        <ele>125.066217</ele>
        <time>2020-10-07T09:30:42.210Z</time>
      </trkpt>
      <trkpt lat="53.7426" lon="22.96435">
        <ele>124.94609</ele>
        <time>2020-10-07T09:30:42.837Z</time>
      </trkpt>
      <trkpt lat="53.74252" lon="22.96432">
        <ele>124.742409</ele>
        <time>2020-10-07T09:30:44.154Z</time>
      </trkpt>
      <trkpt lat="53.7424" lon="22.96425">
        <ele>124.414763</ele>
        <time>2020-10-07T09:30:46.253Z</time>
      </trkpt>
      <trkpt lat="53.74228" lon="22.96434">
        <ele>124.085094</ele>
        <time>2020-10-07T09:30:48.269Z</time>
      </trkpt>
      <trkpt lat="53.74052" lon="22.96607">
        <ele>119.955614</ele>
        <time>2020-10-07T09:31:24.108Z</time>
      </trkpt>
      <trkpt lat="53.74028" lon="22.96631">
        <ele>119.692808</ele>
        <time>2020-10-07T09:31:29.876Z</time>
      </trkpt>
      <trkpt lat="53.73649" lon="22.97003">
        <ele>118.093088</ele>
        <time>2020-10-07T09:33:03.755Z</time>
      </trkpt>
      <trkpt lat="53.73548" lon="22.97104">
        <ele>117.815506</ele>
        <time>2020-10-07T09:33:28.928Z</time>
      </trkpt>
      <trkpt lat="53.73428" lon="22.97223">
        <ele>117.470979</ele>
        <time>2020-10-07T09:33:58.789Z</time>
      </trkpt>
      <trkpt lat="53.73244" lon="22.97404">
        <ele>116.883528</ele>
        <time>2020-10-07T09:34:44.061Z</time>
      </trkpt>
      <trkpt lat="53.72973" lon="22.9767">
        <ele>115.86518</ele>
        <time>2020-10-07T09:35:50.114Z</time>
      </trkpt>
      <trkpt lat="53.72833" lon="22.97809">
        <ele>115.431638</ele>
        <time>2020-10-07T09:36:24.106Z</time>
      </trkpt>
      <trkpt lat="53.72194" lon="22.98437">
        <ele>115.881406</ele>
        <time>2020-10-07T09:39:11.535Z</time>
      </trkpt>
      <trkpt lat="53.72166" lon="22.98459">
        <ele>115.902233</ele>
        <time>2020-10-07T09:39:18.471Z</time>
      </trkpt>
      <trkpt lat="53.7215" lon="22.98463">
        <ele>115.913399</ele>
        <time>2020-10-07T09:39:22.186Z</time>
      </trkpt>
      <trkpt lat="53.72128" lon="22.98461">
        <ele>115.928337</ele>
        <time>2020-10-07T09:39:27.136Z</time>
      </trkpt>
      <trkpt lat="53.71962" lon="22.98419">
        <ele>115.859228</ele>
        <time>2020-10-07T09:40:04.252Z</time>
      </trkpt>
      <trkpt lat="53.715" lon="22.98304">
        <ele>115.31943</ele>
        <time>2020-10-07T09:41:45.514Z</time>
      </trkpt>
      <trkpt lat="53.7145" lon="22.98292">
        <ele>115.35535</ele>
        <time>2020-10-07T09:41:56.836Z</time>
      </trkpt>
      <trkpt lat="53.71162" lon="22.9822">
        <ele>115.661233</ele>
        <time>2020-10-07T09:43:03.488Z</time>
      </trkpt>
      <trkpt lat="53.71094" lon="22.98202">
        <ele>115.695437</ele>
        <time>2020-10-07T09:43:18.779Z</time>
      </trkpt>
      <trkpt lat="53.70871" lon="22.98146">
        <ele>116.143064</ele>
        <time>2020-10-07T09:44:09.571Z</time>
      </trkpt>
      <trkpt lat="53.70514" lon="22.98053">
        <ele>120.146798</ele>
        <time>2020-10-07T09:45:44.030Z</time>
      </trkpt>
      <trkpt lat="53.70354" lon="22.98013">
        <ele>123.775301</ele>
        <time>2020-10-07T09:46:40.207Z</time>
      </trkpt>
      <trkpt lat="53.7032" lon="22.98005">
        <ele>124.634088</ele>
        <time>2020-10-07T09:46:51.726Z</time>
      </trkpt>
      <trkpt lat="53.69936" lon="22.97907">
        <ele>127.472206</ele>
        <time>2020-10-07T09:48:26.994Z</time>
      </trkpt>
      <trkpt lat="53.69893" lon="22.97896">
        <ele>127.376749</ele>
        <time>2020-10-07T09:48:37.404Z</time>
      </trkpt>
      <trkpt lat="53.69877" lon="22.97893">
        <ele>127.341321</ele>
        <time>2020-10-07T09:48:41.311Z</time>
      </trkpt>
      <trkpt lat="53.6899" lon="22.97665">
        <ele>125.134272</ele>
        <time>2020-10-07T09:51:51.635Z</time>
      </trkpt>
      <trkpt lat="53.68789" lon="22.97615">
        <ele>123.370814</ele>
        <time>2020-10-07T09:52:33.489Z</time>
      </trkpt>
      <trkpt lat="53.68502" lon="22.97543">
        <ele>117.517263</ele>
        <time>2020-10-07T09:53:22.958Z</time>
      </trkpt>
      <trkpt lat="53.68483" lon="22.97539">
        <ele>117.370618</ele>
        <time>2020-10-07T09:53:26.391Z</time>
      </trkpt>
      <trkpt lat="53.6839" lon="22.97514">
        <ele>116.650584</ele>
        <time>2020-10-07T09:53:44.671Z</time>
      </trkpt>
      <trkpt lat="53.68161" lon="22.97456">
        <ele>117.46517</ele>
        <time>2020-10-07T09:54:42.533Z</time>
      </trkpt>
      <trkpt lat="53.68007" lon="22.97416">
        <ele>118.96129</ele>
        <time>2020-10-07T09:55:23.002Z</time>
      </trkpt>
      <trkpt lat="53.67937" lon="22.97396">
        <ele>120.406795</ele>
        <time>2020-10-07T09:55:42.217Z</time>
      </trkpt>
      <trkpt lat="53.67849" lon="22.97374">
        <ele>122.638611</ele>
        <time>2020-10-07T09:56:10.647Z</time>
      </trkpt>
      <trkpt lat="53.67619" lon="22.97318">
        <ele>131.584291</ele>
        <time>2020-10-07T09:57:41.665Z</time>
      </trkpt>
      <trkpt lat="53.67396" lon="22.97259">
        <ele>139.230645</ele>
        <time>2020-10-07T09:59:06.677Z</time>
      </trkpt>
      <trkpt lat="53.67241" lon="22.97219">
        <ele>141.557794</ele>
        <time>2020-10-07T09:59:49.025Z</time>
      </trkpt>
      <trkpt lat="53.66878" lon="22.97124">
        <ele>138.858605</ele>
        <time>2020-10-07T10:01:02.571Z</time>
      </trkpt>
      <trkpt lat="53.66637" lon="22.97059">
        <ele>132.577656</ele>
        <time>2020-10-07T10:01:43.123Z</time>
      </trkpt>
      <trkpt lat="53.66581" lon="22.97048">
        <ele>130.967648</ele>
        <time>2020-10-07T10:01:52.375Z</time>
      </trkpt>
      <trkpt lat="53.66413" lon="22.97003">
        <ele>127.166259</ele>
        <time>2020-10-07T10:02:21.440Z</time>
      </trkpt>
      <trkpt lat="53.65899" lon="22.96871">
        <ele>121.974785</ele>
        <time>2020-10-07T10:04:02.127Z</time>
      </trkpt>
      <trkpt lat="53.65638" lon="22.96804">
        <ele>121.202384</ele>
        <time>2020-10-07T10:05:00.934Z</time>
      </trkpt>
      <trkpt lat="53.65341" lon="22.96729">
        <ele>118.279057</ele>
        <time>2020-10-07T10:05:58.111Z</time>
      </trkpt>
      <trkpt lat="53.64919" lon="22.9662">
        <ele>113.317325</ele>
        <time>2020-10-07T10:07:19.172Z</time>
      </trkpt>
      <trkpt lat="53.64889" lon="22.96611">
        <ele>112.980351</ele>
        <time>2020-10-07T10:07:24.866Z</time>
      </trkpt>
      <trkpt lat="53.64875" lon="22.96605">
        <ele>112.81154</ele>
        <time>2020-10-07T10:07:27.633Z</time>
      </trkpt>
      <trkpt lat="53.64784" lon="22.9656">
        <ele>111.797452</ele>
        <time>2020-10-07T10:07:45.717Z</time>
      </trkpt>
      <trkpt lat="53.64766" lon="22.96553">
        <ele>111.703526</ele>
        <time>2020-10-07T10:07:49.410Z</time>
      </trkpt>
      <trkpt lat="53.64745" lon="22.96544">
        <ele>111.599373</ele>
        <time>2020-10-07T10:07:53.657Z</time>
      </trkpt>
      <trkpt lat="53.64726" lon="22.96534">
        <ele>111.49885</ele>
        <time>2020-10-07T10:07:57.783Z</time>
      </trkpt>
      <trkpt lat="53.64717" lon="22.9653">
        <ele>111.449416</ele>
        <time>2020-10-07T10:07:59.899Z</time>
      </trkpt>
      <trkpt lat="53.6457" lon="22.96457">
        <ele>110.810904</ele>
        <time>2020-10-07T10:08:32.160Z</time>
      </trkpt>
      <trkpt lat="53.64511" lon="22.96427">
        <ele>110.655446</ele>
        <time>2020-10-07T10:08:45.783Z</time>
      </trkpt>
      <trkpt lat="53.64264" lon="22.9631">
        <ele>109.972493</ele>
        <time>2020-10-07T10:09:40.133Z</time>
      </trkpt>
      <trkpt lat="53.63892" lon="22.96134">
        <ele>109.732427</ele>
        <time>2020-10-07T10:11:05.523Z</time>
      </trkpt>
      <trkpt lat="53.63776" lon="22.96074">
        <ele>109.529327</ele>
        <time>2020-10-07T10:11:31.240Z</time>
      </trkpt>
      <trkpt lat="53.63608" lon="22.95987">
        <ele>109.366106</ele>
        <time>2020-10-07T10:12:09.667Z</time>
      </trkpt>
      <trkpt lat="53.62054" lon="22.95159">
        <ele>110.605704</ele>
        <time>2020-10-07T10:18:17.674Z</time>
      </trkpt>
      <trkpt lat="53.62027" lon="22.95149">
        <ele>110.631183</ele>
        <time>2020-10-07T10:18:24.031Z</time>
      </trkpt>
      <trkpt lat="53.61916" lon="22.95151">
        <ele>110.75445</ele>
        <time>2020-10-07T10:18:49.628Z</time>
      </trkpt>
      <trkpt lat="53.61905" lon="22.95145">
        <ele>110.766757</ele>
        <time>2020-10-07T10:18:52.142Z</time>
      </trkpt>
      <trkpt lat="53.61895" lon="22.95136">
        <ele>110.778964</ele>
        <time>2020-10-07T10:18:54.619Z</time>
      </trkpt>
      <trkpt lat="53.61882" lon="22.95105">
        <ele>110.804167</ele>
        <time>2020-10-07T10:18:59.853Z</time>
      </trkpt>
      <trkpt lat="53.61829" lon="22.94915">
        <ele>110.899092</ele>
        <time>2020-10-07T10:19:27.547Z</time>
      </trkpt>
      <trkpt lat="53.61773" lon="22.94693">
        <ele>111.052368</ele>
        <time>2020-10-07T10:19:59.938Z</time>
      </trkpt>
      <trkpt lat="53.61625" lon="22.94221">
        <ele>111.597113</ele>
        <time>2020-10-07T10:21:13.130Z</time>
      </trkpt>
      <trkpt lat="53.616" lon="22.94154">
        <ele>111.67829</ele>
        <time>2020-10-07T10:21:24.127Z</time>
      </trkpt>
      <trkpt lat="53.61402" lon="22.93711">
        <ele>111.859323</ele>
        <time>2020-10-07T10:22:39.106Z</time>
      </trkpt>
      <trkpt lat="53.61382" lon="22.93681">
        <ele>111.729393</ele>
        <time>2020-10-07T10:22:44.732Z</time>
      </trkpt>
      <trkpt lat="53.61368" lon="22.93664">
        <ele>111.645637</ele>
        <time>2020-10-07T10:22:48.272Z</time>
      </trkpt>
      <trkpt lat="53.61213" lon="22.93499">
        <ele>110.734163</ele>
        <time>2020-10-07T10:23:24.593Z</time>
      </trkpt>
      <trkpt lat="53.6104" lon="22.93317">
        <ele>110.153527</ele>
        <time>2020-10-07T10:24:08.162Z</time>
      </trkpt>
      <trkpt lat="53.61021" lon="22.93288">
        <ele>110.123036</ele>
        <time>2020-10-07T10:24:14.180Z</time>
      </trkpt>
      <trkpt lat="53.60999" lon="22.9324">
        <ele>110.08208</ele>
        <time>2020-10-07T10:24:22.129Z</time>
      </trkpt>
      <trkpt lat="53.60997" lon="22.93228">
        <ele>110.076771</ele>
        <time>2020-10-07T10:24:23.833Z</time>
      </trkpt>
      <trkpt lat="53.60998" lon="22.93203">
        <ele>110.065861</ele>
        <time>2020-10-07T10:24:27.342Z</time>
      </trkpt>
      <trkpt lat="53.61" lon="22.93164">
        <ele>110.049134</ele>
        <time>2020-10-07T10:24:32.341Z</time>
      </trkpt>
      <trkpt lat="53.60997" lon="22.93123">
        <ele>110.03128</ele>
        <time>2020-10-07T10:24:37.701Z</time>
      </trkpt>
      <trkpt lat="53.60983" lon="22.93067">
        <ele>110.00458</ele>
        <time>2020-10-07T10:24:45.847Z</time>
      </trkpt>
      <trkpt lat="53.60983" lon="22.93056">
        <ele>110.000175</ele>
        <time>2020-10-07T10:24:47.219Z</time>
      </trkpt>
      <trkpt lat="53.60988" lon="22.93042">
        <ele>109.992959</ele>
        <time>2020-10-07T10:24:51.048Z</time>
      </trkpt>
      <trkpt lat="53.6099" lon="22.93034">
        <ele>109.989271</ele>
        <time>2020-10-07T10:24:52.195Z</time>
      </trkpt>
      <trkpt lat="53.6099" lon="22.93026">
        <ele>109.985633</ele>
        <time>2020-10-07T10:24:53.274Z</time>
      </trkpt>
      <trkpt lat="53.60986" lon="22.93013">
        <ele>109.979594</ele>
        <time>2020-10-07T10:24:54.947Z</time>
      </trkpt>
      <trkpt lat="53.60744" lon="22.9278">
        <ele>109.231493</ele>
        <time>2020-10-07T10:25:53.883Z</time>
      </trkpt>
      <trkpt lat="53.6068" lon="22.9273">
        <ele>109.039064</ele>
        <time>2020-10-07T10:26:09.039Z</time>
      </trkpt>
      <trkpt lat="53.60597" lon="22.92687">
        <ele>108.833668</ele>
        <time>2020-10-07T10:26:27.826Z</time>
      </trkpt>
      <trkpt lat="53.60562" lon="22.92659">
        <ele>108.761508</ele>
        <time>2020-10-07T10:26:36.043Z</time>
      </trkpt>
      <trkpt lat="53.60531" lon="22.92617">
        <ele>108.685312</ele>
        <time>2020-10-07T10:26:44.674Z</time>
      </trkpt>
      <trkpt lat="53.6038" lon="22.92315">
        <ele>108.219961</ele>
        <time>2020-10-07T10:27:35.010Z</time>
      </trkpt>
      <trkpt lat="53.60337" lon="22.92243">
        <ele>108.182744</ele>
        <time>2020-10-07T10:27:48.288Z</time>
      </trkpt>
      <trkpt lat="53.60037" lon="22.91887">
        <ele>108.165182</ele>
        <time>2020-10-07T10:29:10.364Z</time>
      </trkpt>
      <trkpt lat="53.6001" lon="22.91862">
        <ele>108.155491</ele>
        <time>2020-10-07T10:29:17.216Z</time>
      </trkpt>
      <trkpt lat="53.59985" lon="22.9185">
        <ele>108.147457</ele>
        <time>2020-10-07T10:29:22.922Z</time>
      </trkpt>
      <trkpt lat="53.59941" lon="22.91849">
        <ele>108.133905</ele>
        <time>2020-10-07T10:29:32.565Z</time>
      </trkpt>
      <trkpt lat="53.59895" lon="22.91867">
        <ele>108.178055</ele>
        <time>2020-10-07T10:29:42.976Z</time>
      </trkpt>
      <trkpt lat="53.59869" lon="22.91885">
        <ele>108.230728</ele>
        <time>2020-10-07T10:29:49.241Z</time>
      </trkpt>
      <trkpt lat="53.5985" lon="22.91909">
        <ele>108.275252</ele>
        <time>2020-10-07T10:29:54.644Z</time>
      </trkpt>
      <trkpt lat="53.59762" lon="22.92053">
        <ele>108.583958</ele>
        <time>2020-10-07T10:30:23.460Z</time>
      </trkpt>
      <trkpt lat="53.59734" lon="22.92087">
        <ele>108.775454</ele>
        <time>2020-10-07T10:30:32.055Z</time>
      </trkpt>
      <trkpt lat="53.59651" lon="22.92154">
        <ele>109.283097</ele>
        <time>2020-10-07T10:30:54.965Z</time>
      </trkpt>
      <trkpt lat="53.59588" lon="22.92202">
        <ele>109.597422</ele>
        <time>2020-10-07T10:31:12.069Z</time>
      </trkpt>
      <trkpt lat="53.59424" lon="22.92328">
        <ele>110.031259</ele>
        <time>2020-10-07T10:31:54.164Z</time>
      </trkpt>
      <trkpt lat="53.59387" lon="22.92359">
        <ele>109.920845</ele>
        <time>2020-10-07T10:32:03.352Z</time>
      </trkpt>
      <trkpt lat="53.59342" lon="22.92395">
        <ele>109.790946</ele>
        <time>2020-10-07T10:32:14.721Z</time>
      </trkpt>
      <trkpt lat="53.59329" lon="22.92403">
        <ele>109.755693</ele>
        <time>2020-10-07T10:32:17.754Z</time>
      </trkpt>
      <trkpt lat="53.59247" lon="22.92435">
        <ele>109.375879</ele>
        <time>2020-10-07T10:32:37.030Z</time>
      </trkpt>
      <trkpt lat="53.59238" lon="22.92443">
        <ele>109.316329</ele>
        <time>2020-10-07T10:32:39.189Z</time>
      </trkpt>
      <trkpt lat="53.59235" lon="22.92452">
        <ele>109.281</ele>
        <time>2020-10-07T10:32:40.458Z</time>
      </trkpt>
      <trkpt lat="53.59272" lon="22.92571">
        <ele>108.808987</ele>
        <time>2020-10-07T10:32:58.419Z</time>
      </trkpt>
      <trkpt lat="53.59281" lon="22.92599">
        <ele>108.695053</ele>
        <time>2020-10-07T10:33:02.881Z</time>
      </trkpt>
      <trkpt lat="53.5929" lon="22.92626">
        <ele>108.590199</ele>
        <time>2020-10-07T10:33:07.078Z</time>
      </trkpt>
      <trkpt lat="53.59309" lon="22.92684">
        <ele>108.563468</ele>
        <time>2020-10-07T10:33:16.217Z</time>
      </trkpt>
      <trkpt lat="53.5937" lon="22.92865">
        <ele>108.478275</ele>
        <time>2020-10-07T10:33:47.049Z</time>
      </trkpt>
      <trkpt lat="53.59372" lon="22.92884">
        <ele>108.470321</ele>
        <time>2020-10-07T10:33:50.031Z</time>
      </trkpt>
      <trkpt lat="53.59364" lon="22.929">
        <ele>108.469675</ele>
        <time>2020-10-07T10:33:53.157Z</time>
      </trkpt>
      <trkpt lat="53.59256" lon="22.92945">
        <ele>108.516984</ele>
        <time>2020-10-07T10:34:21.229Z</time>
      </trkpt>
      <trkpt lat="53.59202" lon="22.92959">
        <ele>108.540246</ele>
        <time>2020-10-07T10:34:34.727Z</time>
      </trkpt>
      <trkpt lat="53.59107" lon="22.92955">
        <ele>108.341976</ele>
        <time>2020-10-07T10:34:57.538Z</time>
      </trkpt>
      <trkpt lat="53.59008" lon="22.92978">
        <ele>108.110482</ele>
        <time>2020-10-07T10:35:21.118Z</time>
      </trkpt>
      <trkpt lat="53.58822" lon="22.93061">
        <ele>107.613602</ele>
        <time>2020-10-07T10:36:06.841Z</time>
      </trkpt>
      <trkpt lat="53.58763" lon="22.93065">
        <ele>107.463642</ele>
        <time>2020-10-07T10:36:21.088Z</time>
      </trkpt>
      <trkpt lat="53.58621" lon="22.93042">
        <ele>107.120712</ele>
        <time>2020-10-07T10:36:54.849Z</time>
      </trkpt>
      <trkpt lat="53.58597" lon="22.93031">
        <ele>107.067628</ele>
        <time>2020-10-07T10:37:00.686Z</time>
      </trkpt>
      <trkpt lat="53.58577" lon="22.93012">
        <ele>107.017134</ele>
        <time>2020-10-07T10:37:06.282Z</time>
      </trkpt>
      <trkpt lat="53.58539" lon="22.92948">
        <ele>106.90272</ele>
        <time>2020-10-07T10:37:19.178Z</time>
      </trkpt>
      <trkpt lat="53.5852" lon="22.92927">
        <ele>106.85558</ele>
        <time>2020-10-07T10:37:24.544Z</time>
      </trkpt>
      <trkpt lat="53.58486" lon="22.9291">
        <ele>106.868878</ele>
        <time>2020-10-07T10:37:33.501Z</time>
      </trkpt>
      <trkpt lat="53.58458" lon="22.9291">
        <ele>106.91967</ele>
        <time>2020-10-07T10:37:40.456Z</time>
      </trkpt>
      <trkpt lat="53.58316" lon="22.92977">
        <ele>107.188478</ele>
        <time>2020-10-07T10:38:18.436Z</time>
      </trkpt>
      <trkpt lat="53.58292" lon="22.92974">
        <ele>107.230222</ele>
        <time>2020-10-07T10:38:24.547Z</time>
      </trkpt>
      <trkpt lat="53.58239" lon="22.92934">
        <ele>107.334342</ele>
        <time>2020-10-07T10:38:39.632Z</time>
      </trkpt>
      <trkpt lat="53.582" lon="22.9292">
        <ele>107.404448</ele>
        <time>2020-10-07T10:38:49.669Z</time>
      </trkpt>
      <trkpt lat="53.58183" lon="22.9292">
        <ele>107.43451</ele>
        <time>2020-10-07T10:38:53.965Z</time>
      </trkpt>
      <trkpt lat="53.58169" lon="22.92924">
        <ele>107.460839</ele>
        <time>2020-10-07T10:38:57.669Z</time>
      </trkpt>
      <trkpt lat="53.57798" lon="22.9304">
        <ele>107.387981</ele>
        <time>2020-10-07T10:40:30.387Z</time>
      </trkpt>
      <trkpt lat="53.57762" lon="22.93042">
        <ele>107.342474</ele>
        <time>2020-10-07T10:40:39.273Z</time>
      </trkpt>
      <trkpt lat="53.57741" lon="22.93034">
        <ele>107.315818</ele>
        <time>2020-10-07T10:40:44.471Z</time>
      </trkpt>
      <trkpt lat="53.57724" lon="22.93018">
        <ele>107.290943</ele>
        <time>2020-10-07T10:40:49.302Z</time>
      </trkpt>
      <trkpt lat="53.57684" lon="22.92963">
        <ele>107.226554</ele>
        <time>2020-10-07T10:41:01.685Z</time>
      </trkpt>
      <trkpt lat="53.57635" lon="22.92882">
        <ele>107.142273</ele>
        <time>2020-10-07T10:41:18.112Z</time>
      </trkpt>
      <trkpt lat="53.57522" lon="22.92788">
        <ele>106.994059</ele>
        <time>2020-10-07T10:41:48.528Z</time>
      </trkpt>
      <trkpt lat="53.57477" lon="22.92738">
        <ele>107.042689</ele>
        <time>2020-10-07T10:42:01.816Z</time>
      </trkpt>
      <trkpt lat="53.57235" lon="22.92309">
        <ele>108.237803</ele>
        <time>2020-10-07T10:43:34.482Z</time>
      </trkpt>
      <trkpt lat="53.57212" lon="22.92283">
        <ele>108.284374</ele>
        <time>2020-10-07T10:43:41.648Z</time>
      </trkpt>
      <trkpt lat="53.56873" lon="22.92064">
        <ele>108.743311</ele>
        <time>2020-10-07T10:45:13.025Z</time>
      </trkpt>
      <trkpt lat="53.56829" lon="22.92056">
        <ele>108.812843</ele>
        <time>2020-10-07T10:45:24.199Z</time>
      </trkpt>
      <trkpt lat="53.56722" lon="22.92081">
        <ele>108.968237</ele>
        <time>2020-10-07T10:45:51.671Z</time>
      </trkpt>
      <trkpt lat="53.56696" lon="22.92069">
        <ele>108.993156</ele>
        <time>2020-10-07T10:45:58.436Z</time>
      </trkpt>
      <trkpt lat="53.56624" lon="22.92015">
        <ele>109.067004</ele>
        <time>2020-10-07T10:46:18.381Z</time>
      </trkpt>
      <trkpt lat="53.56543" lon="22.9192">
        <ele>108.967247</ele>
        <time>2020-10-07T10:46:42.810Z</time>
      </trkpt>
      <trkpt lat="53.56429" lon="22.91763">
        <ele>108.474679</ele>
        <time>2020-10-07T10:47:17.122Z</time>
      </trkpt>
      <trkpt lat="53.56418" lon="22.91739">
        <ele>108.395497</ele>
        <time>2020-10-07T10:47:21.224Z</time>
      </trkpt>
      <trkpt lat="53.56392" lon="22.91655">
        <ele>108.150891</ele>
        <time>2020-10-07T10:47:34.072Z</time>
      </trkpt>
      <trkpt lat="53.56334" lon="22.91542">
        <ele>107.763279</ele>
        <time>2020-10-07T10:47:54.686Z</time>
      </trkpt>
      <trkpt lat="53.56311" lon="22.91508">
        <ele>107.740292</ele>
        <time>2020-10-07T10:48:01.786Z</time>
      </trkpt>
      <trkpt lat="53.56222" lon="22.91401">
        <ele>107.692889</ele>
        <time>2020-10-07T10:48:28.815Z</time>
      </trkpt>
      <trkpt lat="53.56162" lon="22.91354">
        <ele>107.708005</ele>
        <time>2020-10-07T10:48:45.687Z</time>
      </trkpt>
      <trkpt lat="53.56106" lon="22.91297">
        <ele>107.802626</ele>
        <time>2020-10-07T10:49:02.308Z</time>
      </trkpt>
      <trkpt lat="53.56063" lon="22.91172">
        <ele>107.927425</ele>
        <time>2020-10-07T10:49:24.310Z</time>
      </trkpt>
      <trkpt lat="53.56033" lon="22.91106">
        <ele>108.016199</ele>
        <time>2020-10-07T10:49:36.815Z</time>
      </trkpt>
      <trkpt lat="53.56006" lon="22.91082">
        <ele>108.072553</ele>
        <time>2020-10-07T10:49:44.624Z</time>
      </trkpt>
      <trkpt lat="53.55966" lon="22.91072">
        <ele>108.148143</ele>
        <time>2020-10-07T10:49:55.091Z</time>
      </trkpt>
      <trkpt lat="53.55933" lon="22.91051">
        <ele>108.212621</ele>
        <time>2020-10-07T10:50:03.921Z</time>
      </trkpt>
      <trkpt lat="53.55854" lon="22.90946">
        <ele>108.093937</ele>
        <time>2020-10-07T10:50:28.885Z</time>
      </trkpt>
      <trkpt lat="53.5583" lon="22.90936">
        <ele>108.03216</ele>
        <time>2020-10-07T10:50:34.940Z</time>
      </trkpt>
      <trkpt lat="53.55772" lon="22.9093">
        <ele>107.891568</ele>
        <time>2020-10-07T10:50:48.395Z</time>
      </trkpt>
      <trkpt lat="53.5576" lon="22.9092">
        <ele>107.85836</ele>
        <time>2020-10-07T10:50:51.547Z</time>
      </trkpt>
      <trkpt lat="53.55748" lon="22.90881">
        <ele>107.777548</ele>
        <time>2020-10-07T10:50:57.512Z</time>
      </trkpt>
      <trkpt lat="53.5574" lon="22.90746">
        <ele>107.479117</ele>
        <time>2020-10-07T10:51:15.841Z</time>
      </trkpt>
      <trkpt lat="53.55727" lon="22.90709">
        <ele>107.382833</ele>
        <time>2020-10-07T10:51:21.788Z</time>
      </trkpt>
      <trkpt lat="53.55712" lon="22.90695">
        <ele>107.320455</ele>
        <time>2020-10-07T10:51:25.677Z</time>
      </trkpt>
      <trkpt lat="53.55691" lon="22.90687">
        <ele>107.240583</ele>
        <time>2020-10-07T10:51:30.760Z</time>
      </trkpt>
      <trkpt lat="53.55568" lon="22.90657">
        <ele>107.588272</ele>
        <time>2020-10-07T10:52:02.243Z</time>
      </trkpt>
      <trkpt lat="53.55476" lon="22.90567">
        <ele>108.369618</ele>
        <time>2020-10-07T10:52:32.344Z</time>
      </trkpt>
      <trkpt lat="53.55463" lon="22.90561">
        <ele>108.571048</ele>
        <time>2020-10-07T10:52:36.141Z</time>
      </trkpt>
      <trkpt lat="53.55451" lon="22.90568">
        <ele>108.771556</ele>
        <time>2020-10-07T10:52:39.976Z</time>
      </trkpt>
      <trkpt lat="53.55397" lon="22.90632">
        <ele>109.799647</ele>
        <time>2020-10-07T10:53:00.880Z</time>
      </trkpt>
      <trkpt lat="53.55383" lon="22.90647">
        <ele>110.047944</ele>
        <time>2020-10-07T10:53:05.884Z</time>
      </trkpt>
      <trkpt lat="53.55376" lon="22.90654">
        <ele>110.182313</ele>
        <time>2020-10-07T10:53:08.598Z</time>
      </trkpt>
      <trkpt lat="53.55365" lon="22.90665">
        <ele>110.384767</ele>
        <time>2020-10-07T10:53:12.594Z</time>
      </trkpt>
      <trkpt lat="53.5535" lon="22.9068">
        <ele>110.640554</ele>
        <time>2020-10-07T10:53:17.619Z</time>
      </trkpt>
      <trkpt lat="53.55338" lon="22.90696">
        <ele>110.915417</ele>
        <time>2020-10-07T10:53:22.390Z</time>
      </trkpt>
      <trkpt lat="53.55299" lon="22.90762">
        <ele>111.905215</ele>
        <time>2020-10-07T10:53:47.400Z</time>
      </trkpt>
      <trkpt lat="53.55269" lon="22.90813">
        <ele>112.661674</ele>
        <time>2020-10-07T10:53:59.962Z</time>
      </trkpt>
      <trkpt lat="53.55206" lon="22.90909">
        <ele>114.030075</ele>
        <time>2020-10-07T10:54:24.881Z</time>
      </trkpt>
      <trkpt lat="53.55117" lon="22.91034">
        <ele>114.995414</ele>
        <time>2020-10-07T10:54:54.935Z</time>
      </trkpt>
      <trkpt lat="53.54986" lon="22.90709">
        <ele>115.63858</ele>
        <time>2020-10-07T10:55:47.906Z</time>
      </trkpt>
      <trkpt lat="53.54919" lon="22.90545">
        <ele>115.858437</ele>
        <time>2020-10-07T10:56:15.450Z</time>
      </trkpt>
      <trkpt lat="53.54905" lon="22.90511">
        <ele>115.903694</ele>
        <time>2020-10-07T10:56:21.149Z</time>
      </trkpt>
      <trkpt lat="53.54855" lon="22.90391">
        <ele>115.806594</ele>
        <time>2020-10-07T10:56:40.970Z</time>
      </trkpt>
      <trkpt lat="53.54847" lon="22.90362">
        <ele>115.753205</ele>
        <time>2020-10-07T10:56:44.943Z</time>
      </trkpt>
      <trkpt lat="53.54824" lon="22.90273">
        <ele>115.586928</ele>
        <time>2020-10-07T10:56:57.123Z</time>
      </trkpt>
      <trkpt lat="53.54814" lon="22.90231">
        <ele>115.509058</ele>
        <time>2020-10-07T10:57:02.646Z</time>
      </trkpt>
      <trkpt lat="53.54795" lon="22.90137">
        <ele>115.106971</ele>
        <time>2020-10-07T10:57:14.458Z</time>
      </trkpt>
      <trkpt lat="53.54785" lon="22.90104">
        <ele>114.912499</ele>
        <time>2020-10-07T10:57:18.664Z</time>
      </trkpt>
      <trkpt lat="53.54706" lon="22.89865">
        <ele>113.464627</ele>
        <time>2020-10-07T10:57:50.210Z</time>
      </trkpt>
      <trkpt lat="53.54547" lon="22.89397">
        <ele>111.074079</ele>
        <time>2020-10-07T10:58:53.520Z</time>
      </trkpt>
      <trkpt lat="53.54538" lon="22.89373">
        <ele>111.168446</ele>
        <time>2020-10-07T10:58:57.267Z</time>
      </trkpt>
      <trkpt lat="53.54529" lon="22.89359">
        <ele>111.234644</ele>
        <time>2020-10-07T10:58:59.919Z</time>
      </trkpt>
      <trkpt lat="53.54526" lon="22.89356">
        <ele>111.256771</ele>
        <time>2020-10-07T10:59:00.862Z</time>
      </trkpt>
      <trkpt lat="53.54419" lon="22.89251">
        <ele>111.947807</ele>
        <time>2020-10-07T10:59:32.283Z</time>
      </trkpt>
      <trkpt lat="53.54404" lon="22.89235">
        <ele>112.044202</ele>
        <time>2020-10-07T10:59:36.800Z</time>
      </trkpt>
      <trkpt lat="53.54393" lon="22.89219">
        <ele>112.177666</ele>
        <time>2020-10-07T10:59:40.970Z</time>
      </trkpt>
      <trkpt lat="53.54385" lon="22.89201">
        <ele>112.310384</ele>
        <time>2020-10-07T10:59:44.545Z</time>
      </trkpt>
      <trkpt lat="53.54327" lon="22.8906">
        <ele>113.3172</ele>
        <time>2020-10-07T11:00:11.916Z</time>
      </trkpt>
      <trkpt lat="53.5418" lon="22.88693">
        <ele>115.076582</ele>
        <time>2020-10-07T11:01:17.759Z</time>
      </trkpt>
      <trkpt lat="53.54151" lon="22.88621">
        <ele>115.162228</ele>
        <time>2020-10-07T11:01:29.574Z</time>
      </trkpt>
      <trkpt lat="53.54078" lon="22.88439">
        <ele>115.38214</ele>
        <time>2020-10-07T11:01:58.636Z</time>
      </trkpt>
      <trkpt lat="53.54057" lon="22.88386">
        <ele>115.451278</ele>
        <time>2020-10-07T11:02:07.278Z</time>
      </trkpt>
      <trkpt lat="53.53934" lon="22.8808">
        <ele>116.082403</ele>
        <time>2020-10-07T11:02:58.387Z</time>
      </trkpt>
      <trkpt lat="53.53871" lon="22.88158">
        <ele>116.409273</ele>
        <time>2020-10-07T11:03:18.425Z</time>
      </trkpt>
      <trkpt lat="53.53812" lon="22.88232">
        <ele>116.846016</ele>
        <time>2020-10-07T11:03:37.501Z</time>
      </trkpt>
      <trkpt lat="53.53773" lon="22.88167">
        <ele>117.173867</ele>
        <time>2020-10-07T11:03:59.565Z</time>
      </trkpt>
      <trkpt lat="53.53587" lon="22.87874">
        <ele>117.936374</ele>
        <time>2020-10-07T11:05:37.621Z</time>
      </trkpt>
      <trkpt lat="53.53398" lon="22.87578">
        <ele>116.856757</ele>
        <time>2020-10-07T11:07:09.693Z</time>
      </trkpt>
      <trkpt lat="53.53243" lon="22.87333">
        <ele>115.262884</ele>
        <time>2020-10-07T11:08:21.859Z</time>
      </trkpt>
      <trkpt lat="53.53159" lon="22.87179">
        <ele>115.056914</ele>
        <time>2020-10-07T11:09:06.746Z</time>
      </trkpt>
      <trkpt lat="53.53096" lon="22.87039">
        <ele>115.214041</ele>
        <time>2020-10-07T11:09:47.520Z</time>
      </trkpt>
      <trkpt lat="53.53017" lon="22.86857">
        <ele>115.919376</ele>
        <time>2020-10-07T11:10:40.270Z</time>
      </trkpt>
      <trkpt lat="53.52977" lon="22.86725">
        <ele>116.427527</ele>
        <time>2020-10-07T11:11:14.868Z</time>
      </trkpt>
      <trkpt lat="53.52891" lon="22.8644">
        <ele>117.485156</ele>
        <time>2020-10-07T11:12:30.352Z</time>
      </trkpt>
      <trkpt lat="53.52829" lon="22.86241">
        <ele>118.077403</ele>
        <time>2020-10-07T11:13:21.898Z</time>
      </trkpt>
      <trkpt lat="53.52795" lon="22.86125">
        <ele>118.341325</ele>
        <time>2020-10-07T11:13:51.227Z</time>
      </trkpt>
      <trkpt lat="53.52714" lon="22.85857">
        <ele>119.02468</ele>
        <time>2020-10-07T11:15:00.680Z</time>
      </trkpt>
      <trkpt lat="53.5268" lon="22.85744">
        <ele>119.338288</ele>
        <time>2020-10-07T11:15:30.313Z</time>
      </trkpt>
      <trkpt lat="53.52562" lon="22.85355">
        <ele>119.739456</ele>
        <time>2020-10-07T11:17:09.267Z</time>
      </trkpt>
      <trkpt lat="53.52866" lon="22.85112">
        <ele>118.279448</ele>
        <time>2020-10-07T11:18:18.154Z</time>
      </trkpt>
      <trkpt lat="53.52963" lon="22.85036">
        <ele>117.81617</ele>
        <time>2020-10-07T11:18:40.957Z</time>
      </trkpt>
      <trkpt lat="53.52961" lon="22.84949">
        <ele>117.414504</ele>
        <time>2020-10-07T11:18:51.367Z</time>
      </trkpt>
      <trkpt lat="53.52954" lon="22.84894">
        <ele>117.029683</ele>
        <time>2020-10-07T11:18:57.744Z</time>
      </trkpt>
      <trkpt lat="53.52949" lon="22.84868">
        <ele>116.843411</ele>
        <time>2020-10-07T11:19:00.847Z</time>
      </trkpt>
      <trkpt lat="53.52909" lon="22.84656">
        <ele>115.369844</ele>
        <time>2020-10-07T11:19:25.438Z</time>
      </trkpt>
      <trkpt lat="53.52883" lon="22.84518">
        <ele>114.595214</ele>
        <time>2020-10-07T11:19:41.672Z</time>
      </trkpt>
      <trkpt lat="53.52874" lon="22.84481">
        <ele>114.384389</ele>
        <time>2020-10-07T11:19:46.292Z</time>
      </trkpt>
      <trkpt lat="53.52861" lon="22.84438">
        <ele>114.125635</ele>
        <time>2020-10-07T11:19:52.308Z</time>
      </trkpt>
      <trkpt lat="53.52764" lon="22.8417">
        <ele>114.192581</ele>
        <time>2020-10-07T11:20:35.204Z</time>
      </trkpt>
      <trkpt lat="53.52739" lon="22.84107">
        <ele>114.206855</ele>
        <time>2020-10-07T11:20:45.652Z</time>
      </trkpt>
      <trkpt lat="53.52739" lon="22.84107">
        <ele>114.206855</ele>
        <time>2020-10-07T11:20:45.670Z</time>
      </trkpt>
      <trkpt lat="53.52669" lon="22.83944">
        <ele>114.220171</ele>
        <time>2020-10-07T11:21:12.446Z</time>
      </trkpt>
      <trkpt lat="53.52655" lon="22.8392">
        <ele>114.22244</ele>
        <time>2020-10-07T11:21:16.854Z</time>
      </trkpt>
      <trkpt lat="53.52608" lon="22.83848">
        <ele>113.981085</ele>
        <time>2020-10-07T11:21:30.339Z</time>
      </trkpt>
      <trkpt lat="53.52601" lon="22.83832">
        <ele>113.934215</ele>
        <time>2020-10-07T11:21:32.802Z</time>
      </trkpt>
      <trkpt lat="53.52593" lon="22.83794">
        <ele>113.838576</ele>
        <time>2020-10-07T11:21:37.685Z</time>
      </trkpt>
      <trkpt lat="53.52559" lon="22.83631">
        <ele>113.464875</ele>
        <time>2020-10-07T11:21:58.687Z</time>
      </trkpt>
      <trkpt lat="53.52525" lon="22.83486">
        <ele>113.305829</ele>
        <time>2020-10-07T11:22:18.247Z</time>
      </trkpt>
      <trkpt lat="53.52502" lon="22.83379">
        <ele>113.190507</ele>
        <time>2020-10-07T11:22:33.491Z</time>
      </trkpt>
      <trkpt lat="53.52465" lon="22.8341">
        <ele>113.534085</ele>
        <time>2020-10-07T11:22:43.289Z</time>
      </trkpt>
      <trkpt lat="53.52322" lon="22.83527">
        <ele>115.000503</ele>
        <time>2020-10-07T11:23:49.050Z</time>
      </trkpt>
      <trkpt lat="53.52158" lon="22.83649">
        <ele>117.208452</ele>
        <time>2020-10-07T11:25:05.794Z</time>
      </trkpt>
      <trkpt lat="53.51748" lon="22.83955">
        <ele>119.081239</ele>
        <time>2020-10-07T11:28:01.755Z</time>
      </trkpt>
      <trkpt lat="53.51367" lon="22.84236">
        <ele>114.904341</ele>
        <time>2020-10-07T11:30:20.951Z</time>
      </trkpt>
      <trkpt lat="53.51349" lon="22.84195">
        <ele>114.462876</ele>
        <time>2020-10-07T11:30:26.452Z</time>
      </trkpt>
      <trkpt lat="53.51227" lon="22.83913">
        <ele>111.544676</ele>
        <time>2020-10-07T11:31:03.841Z</time>
      </trkpt>
      <trkpt lat="53.51206" lon="22.83888">
        <ele>111.415817</ele>
        <time>2020-10-07T11:31:08.779Z</time>
      </trkpt>
      <trkpt lat="53.51194" lon="22.83872">
        <ele>111.338758</ele>
        <time>2020-10-07T11:31:11.894Z</time>
      </trkpt>
      <trkpt lat="53.51191" lon="22.83866">
        <ele>111.311726</ele>
        <time>2020-10-07T11:31:13.080Z</time>
      </trkpt>
      <trkpt lat="53.51157" lon="22.83787">
        <ele>111.01822</ele>
        <time>2020-10-07T11:31:25.250Z</time>
      </trkpt>
      <trkpt lat="53.50952" lon="22.83354">
        <ele>112.715152</ele>
        <time>2020-10-07T11:32:48.387Z</time>
      </trkpt>
      <trkpt lat="53.50947" lon="22.83342">
        <ele>112.764913</ele>
        <time>2020-10-07T11:32:50.557Z</time>
      </trkpt>
      <trkpt lat="53.50873" lon="22.83183">
        <ele>113.527534</ele>
        <time>2020-10-07T11:33:18.625Z</time>
      </trkpt>
      <trkpt lat="53.50868" lon="22.83172">
        <ele>113.582886</ele>
        <time>2020-10-07T11:33:20.412Z</time>
      </trkpt>
      <trkpt lat="53.50856" lon="22.83148">
        <ele>113.710074</ele>
        <time>2020-10-07T11:33:24.908Z</time>
      </trkpt>
      <trkpt lat="53.50832" lon="22.83097">
        <ele>113.979934</ele>
        <time>2020-10-07T11:33:34.342Z</time>
      </trkpt>
      <trkpt lat="53.50665" lon="22.82741">
        <ele>117.178012</ele>
        <time>2020-10-07T11:34:49.265Z</time>
      </trkpt>
      <trkpt lat="53.50649" lon="22.82702">
        <ele>117.474698</ele>
        <time>2020-10-07T11:34:57.062Z</time>
      </trkpt>
      <trkpt lat="53.50621" lon="22.82604">
        <ele>118.165761</ele>
        <time>2020-10-07T11:35:14.312Z</time>
      </trkpt>
      <trkpt lat="53.50612" lon="22.82553">
        <ele>118.5041</ele>
        <time>2020-10-07T11:35:22.537Z</time>
      </trkpt>
      <trkpt lat="53.50572" lon="22.82344">
        <ele>119.104051</ele>
        <time>2020-10-07T11:35:54.517Z</time>
      </trkpt>
      <trkpt lat="53.50544" lon="22.82199">
        <ele>119.242453</ele>
        <time>2020-10-07T11:36:14.878Z</time>
      </trkpt>
      <trkpt lat="53.50541" lon="22.82178">
        <ele>119.185138</ele>
        <time>2020-10-07T11:36:17.518Z</time>
      </trkpt>
      <trkpt lat="53.50529" lon="22.82144">
        <ele>119.085232</ele>
        <time>2020-10-07T11:36:22.628Z</time>
      </trkpt>
      <trkpt lat="53.50522" lon="22.82084">
        <ele>118.928246</ele>
        <time>2020-10-07T11:36:30.254Z</time>
      </trkpt>
      <trkpt lat="53.50487" lon="22.81899">
        <ele>118.348421</ele>
        <time>2020-10-07T11:36:53.234Z</time>
      </trkpt>
      <trkpt lat="53.50401" lon="22.81446">
        <ele>116.287121</ele>
        <time>2020-10-07T11:37:50.565Z</time>
      </trkpt>
      <trkpt lat="53.50389" lon="22.81373">
        <ele>115.92269</ele>
        <time>2020-10-07T11:37:59.232Z</time>
      </trkpt>
      <trkpt lat="53.50381" lon="22.81332">
        <ele>115.590956</ele>
        <time>2020-10-07T11:38:04.110Z</time>
      </trkpt>
      <trkpt lat="53.50342" lon="22.81124">
        <ele>113.906922</ele>
        <time>2020-10-07T11:38:28.028Z</time>
      </trkpt>
      <trkpt lat="53.50321" lon="22.8103">
        <ele>113.539271</ele>
        <time>2020-10-07T11:38:39.303Z</time>
      </trkpt>
      <trkpt lat="53.50302" lon="22.8093">
        <ele>113.419132</ele>
        <time>2020-10-07T11:38:52.138Z</time>
      </trkpt>
      <trkpt lat="53.50294" lon="22.80886">
        <ele>113.366485</ele>
        <time>2020-10-07T11:38:58.290Z</time>
      </trkpt>
      <trkpt lat="53.50285" lon="22.80841">
        <ele>113.312132</ele>
        <time>2020-10-07T11:39:05.233Z</time>
      </trkpt>
      <trkpt lat="53.50277" lon="22.80785">
        <ele>113.363113</ele>
        <time>2020-10-07T11:39:14.001Z</time>
      </trkpt>
      <trkpt lat="53.50236" lon="22.80568">
        <ele>114.808512</ele>
        <time>2020-10-07T11:39:51.580Z</time>
      </trkpt>
      <trkpt lat="53.49994" lon="22.79292">
        <ele>120.111011</ele>
        <time>2020-10-07T11:43:10.676Z</time>
      </trkpt>
      <trkpt lat="53.49935" lon="22.78966">
        <ele>120.169594</ele>
        <time>2020-10-07T11:43:55.304Z</time>
      </trkpt>
      <trkpt lat="53.49916" lon="22.78867">
        <ele>120.08061</ele>
        <time>2020-10-07T11:44:08.497Z</time>
      </trkpt>
      <trkpt lat="53.49911" lon="22.78815">
        <ele>120.035116</ele>
        <time>2020-10-07T11:44:15.275Z</time>
      </trkpt>
      <trkpt lat="53.49842" lon="22.78462">
        <ele>119.866046</ele>
        <time>2020-10-07T11:45:03.842Z</time>
      </trkpt>
      <trkpt lat="53.49816" lon="22.78364">
        <ele>119.9135</ele>
        <time>2020-10-07T11:45:18.511Z</time>
      </trkpt>
      <trkpt lat="53.49804" lon="22.783">
        <ele>119.943223</ele>
        <time>2020-10-07T11:45:27.732Z</time>
      </trkpt>
      <trkpt lat="53.49803" lon="22.78268">
        <ele>119.957362</ele>
        <time>2020-10-07T11:45:32.076Z</time>
      </trkpt>
      <trkpt lat="53.49803" lon="22.78261">
        <ele>119.960725</ele>
        <time>2020-10-07T11:45:33.142Z</time>
      </trkpt>
      <trkpt lat="53.49824" lon="22.78255">
        <ele>119.976599</ele>
        <time>2020-10-07T11:45:38.439Z</time>
      </trkpt>
      <trkpt lat="53.49936" lon="22.78226">
        <ele>119.520144</ele>
        <time>2020-10-07T11:46:05.445Z</time>
      </trkpt>
      <trkpt lat="53.49955" lon="22.78221">
        <ele>119.431723</ele>
        <time>2020-10-07T11:46:09.947Z</time>
      </trkpt>
      <trkpt lat="53.49951" lon="22.78197">
        <ele>119.365921</ele>
        <time>2020-10-07T11:46:12.816Z</time>
      </trkpt>
      <trkpt lat="53.49892" lon="22.7776">
        <ele>117.273654</ele>
        <time>2020-10-07T11:47:04.721Z</time>
      </trkpt>
      <trkpt lat="53.49782" lon="22.76987">
        <ele>114.527128</ele>
        <time>2020-10-07T11:48:41.948Z</time>
      </trkpt>
      <trkpt lat="53.49728" lon="22.76599">
        <ele>113.097217</ele>
        <time>2020-10-07T11:49:29.069Z</time>
      </trkpt>
      <trkpt lat="53.49713" lon="22.76496">
        <ele>113.092699</ele>
        <time>2020-10-07T11:49:52.060Z</time>
      </trkpt>
      <trkpt lat="53.49709" lon="22.76465">
        <ele>113.09132</ele>
        <time>2020-10-07T11:49:59.285Z</time>
      </trkpt>
      <trkpt lat="53.49692" lon="22.76344">
        <ele>113.128425</ele>
        <time>2020-10-07T11:50:28.114Z</time>
      </trkpt>
      <trkpt lat="53.49682" lon="22.76282">
        <ele>113.333679</ele>
        <time>2020-10-07T11:50:43.526Z</time>
      </trkpt>
      <trkpt lat="53.49668" lon="22.76239">
        <ele>113.48894</ele>
        <time>2020-10-07T11:50:55.240Z</time>
      </trkpt>
      <trkpt lat="53.49635" lon="22.76151">
        <ele>113.815672</ele>
        <time>2020-10-07T11:51:19.692Z</time>
      </trkpt>
      <trkpt lat="53.49582" lon="22.76009">
        <ele>113.927156</ele>
        <time>2020-10-07T11:51:57.672Z</time>
      </trkpt>
      <trkpt lat="53.49269" lon="22.75203">
        <ele>113.65082</ele>
        <time>2020-10-07T11:55:24.875Z</time>
      </trkpt>
      <trkpt lat="53.49258" lon="22.75177">
        <ele>113.80118</ele>
        <time>2020-10-07T11:55:32.806Z</time>
      </trkpt>
      <trkpt lat="53.49209" lon="22.7505">
        <ele>114.859828</ele>
        <time>2020-10-07T11:56:00.273Z</time>
      </trkpt>
      <trkpt lat="53.49164" lon="22.74923">
        <ele>117.143664</ele>
        <time>2020-10-07T11:56:30.273Z</time>
      </trkpt>
      <trkpt lat="53.49128" lon="22.74825">
        <ele>118.920976</ele>
        <time>2020-10-07T11:56:53.171Z</time>
      </trkpt>
      <trkpt lat="53.49036" lon="22.74628">
        <ele>123.135123</ele>
        <time>2020-10-07T11:57:43.371Z</time>
      </trkpt>
      <trkpt lat="53.48999" lon="22.74564">
        <ele>124.646205</ele>
        <time>2020-10-07T11:58:01.222Z</time>
      </trkpt>
      <trkpt lat="53.48929" lon="22.74462">
        <ele>127.257802</ele>
        <time>2020-10-07T11:58:33.516Z</time>
      </trkpt>
      <trkpt lat="53.48875" lon="22.74395">
        <ele>129.171415</ele>
        <time>2020-10-07T11:58:55.701Z</time>
      </trkpt>
      <trkpt lat="53.48867" lon="22.74391">
        <ele>129.319566</ele>
        <time>2020-10-07T11:58:58.859Z</time>
      </trkpt>
      <trkpt lat="53.48866" lon="22.74301">
        <ele>130.170477</ele>
        <time>2020-10-07T11:59:14.769Z</time>
      </trkpt>
      <trkpt lat="53.48869" lon="22.74236">
        <ele>130.779373</ele>
        <time>2020-10-07T11:59:25.705Z</time>
      </trkpt>
      <trkpt lat="53.48871" lon="22.74212">
        <ele>131.007192</ele>
        <time>2020-10-07T11:59:30.159Z</time>
      </trkpt>
      <trkpt lat="53.48873" lon="22.74192">
        <ele>131.199913</ele>
        <time>2020-10-07T11:59:33.233Z</time>
      </trkpt>
      <trkpt lat="53.48911" lon="22.7397">
        <ele>132.762133</ele>
        <time>2020-10-07T12:00:08.793Z</time>
      </trkpt>
      <trkpt lat="53.48922" lon="22.73868">
        <ele>133.285329</ele>
        <time>2020-10-07T12:00:24.921Z</time>
      </trkpt>
      <trkpt lat="53.48927" lon="22.73801">
        <ele>133.552859</ele>
        <time>2020-10-07T12:00:35.337Z</time>
      </trkpt>
      <trkpt lat="53.48932" lon="22.73738">
        <ele>133.334604</ele>
        <time>2020-10-07T12:00:44.216Z</time>
      </trkpt>
      <trkpt lat="53.48935" lon="22.73714">
        <ele>133.252024</ele>
        <time>2020-10-07T12:00:47.688Z</time>
      </trkpt>
      <trkpt lat="53.48938" lon="22.73692">
        <ele>133.174265</ele>
        <time>2020-10-07T12:00:50.554Z</time>
      </trkpt>
      <trkpt lat="53.48946" lon="22.73639">
        <ele>132.988514</ele>
        <time>2020-10-07T12:00:57.254Z</time>
      </trkpt>
      <trkpt lat="53.48948" lon="22.73627">
        <ele>132.945618</ele>
        <time>2020-10-07T12:00:58.732Z</time>
      </trkpt>
      <trkpt lat="53.48956" lon="22.73588">
        <ele>132.804883</ele>
        <time>2020-10-07T12:01:03.609Z</time>
      </trkpt>
      <trkpt lat="53.4896" lon="22.73567">
        <ele>132.730752</ele>
        <time>2020-10-07T12:01:05.973Z</time>
      </trkpt>
      <trkpt lat="53.48965" lon="22.73549">
        <ele>132.661645</ele>
        <time>2020-10-07T12:01:08.211Z</time>
      </trkpt>
      <trkpt lat="53.48967" lon="22.73541">
        <ele>132.633108</ele>
        <time>2020-10-07T12:01:09.108Z</time>
      </trkpt>
      <trkpt lat="53.48972" lon="22.73525">
        <ele>132.569957</ele>
        <time>2020-10-07T12:01:11.071Z</time>
      </trkpt>
      <trkpt lat="53.48977" lon="22.73512">
        <ele>132.402035</ele>
        <time>2020-10-07T12:01:12.612Z</time>
      </trkpt>
      <trkpt lat="53.48983" lon="22.73495">
        <ele>132.105349</ele>
        <time>2020-10-07T12:01:14.684Z</time>
      </trkpt>
      <trkpt lat="53.48996" lon="22.73437">
        <ele>131.13886</ele>
        <time>2020-10-07T12:01:21.093Z</time>
      </trkpt>
      <trkpt lat="53.49" lon="22.73419">
        <ele>130.845902</ele>
        <time>2020-10-07T12:01:22.986Z</time>
      </trkpt>
      <trkpt lat="53.49007" lon="22.73383">
        <ele>130.25431</ele>
        <time>2020-10-07T12:01:26.861Z</time>
      </trkpt>
      <trkpt lat="53.49008" lon="22.73368">
        <ele>130.021268</ele>
        <time>2020-10-07T12:01:28.299Z</time>
      </trkpt>
      <trkpt lat="53.49008" lon="22.73349">
        <ele>129.736818</ele>
        <time>2020-10-07T12:01:30.080Z</time>
      </trkpt>
      <trkpt lat="53.49006" lon="22.73329">
        <ele>129.419086</ele>
        <time>2020-10-07T12:01:32.070Z</time>
      </trkpt>
      <trkpt lat="53.48989" lon="22.73203">
        <ele>127.546096</ele>
        <time>2020-10-07T12:01:44.842Z</time>
      </trkpt>
      <trkpt lat="53.48976" lon="22.73145">
        <ele>126.858269</ele>
        <time>2020-10-07T12:01:51.138Z</time>
      </trkpt>
      <trkpt lat="53.4897" lon="22.73122">
        <ele>126.575744</ele>
        <time>2020-10-07T12:01:53.718Z</time>
      </trkpt>
      <trkpt lat="53.48965" lon="22.73101">
        <ele>126.328058</ele>
        <time>2020-10-07T12:01:56.023Z</time>
      </trkpt>
      <trkpt lat="53.48956" lon="22.73061">
        <ele>125.844763</ele>
        <time>2020-10-07T12:02:00.744Z</time>
      </trkpt>
      <trkpt lat="53.48941" lon="22.72999">
        <ele>125.100346</ele>
        <time>2020-10-07T12:02:08.276Z</time>
      </trkpt>
      <trkpt lat="53.48932" lon="22.72963">
        <ele>124.672585</ele>
        <time>2020-10-07T12:02:12.621Z</time>
      </trkpt>
      <trkpt lat="53.48926" lon="22.72946">
        <ele>124.476104</ele>
        <time>2020-10-07T12:02:14.925Z</time>
      </trkpt>
      <trkpt lat="53.48884" lon="22.72824">
        <ele>123.559331</ele>
        <time>2020-10-07T12:02:31.448Z</time>
      </trkpt>
      <trkpt lat="53.48846" lon="22.72715">
        <ele>122.737235</ele>
        <time>2020-10-07T12:02:45.858Z</time>
      </trkpt>
      <trkpt lat="53.4882" lon="22.72643">
        <ele>121.932586</ele>
        <time>2020-10-07T12:02:55.034Z</time>
      </trkpt>
      <trkpt lat="53.48814" lon="22.72627">
        <ele>121.717864</ele>
        <time>2020-10-07T12:02:57.157Z</time>
      </trkpt>
      <trkpt lat="53.48808" lon="22.72609">
        <ele>121.490612</ele>
        <time>2020-10-07T12:02:59.389Z</time>
      </trkpt>
      <trkpt lat="53.48801" lon="22.7259">
        <ele>121.239301</ele>
        <time>2020-10-07T12:03:01.691Z</time>
      </trkpt>
      <trkpt lat="53.48715" lon="22.72317">
        <ele>117.584442</ele>
        <time>2020-10-07T12:03:33.847Z</time>
      </trkpt>
      <trkpt lat="53.48604" lon="22.72048">
        <ele>113.891125</ele>
        <time>2020-10-07T12:04:07.938Z</time>
      </trkpt>
      <trkpt lat="53.48554" lon="22.71963">
        <ele>112.758262</ele>
        <time>2020-10-07T12:04:21.217Z</time>
      </trkpt>
      <trkpt lat="53.48521" lon="22.71902">
        <ele>112.34073</ele>
        <time>2020-10-07T12:04:30.921Z</time>
      </trkpt>
      <trkpt lat="53.48474" lon="22.71827">
        <ele>112.13414</ele>
        <time>2020-10-07T12:04:44.376Z</time>
      </trkpt>
      <trkpt lat="53.48459" lon="22.71806">
        <ele>112.072149</ele>
        <time>2020-10-07T12:04:48.615Z</time>
      </trkpt>
      <trkpt lat="53.48446" lon="22.71789">
        <ele>112.019825</ele>
        <time>2020-10-07T12:04:52.255Z</time>
      </trkpt>
      <trkpt lat="53.4842" lon="22.71752">
        <ele>111.912857</ele>
        <time>2020-10-07T12:04:59.987Z</time>
      </trkpt>
      <trkpt lat="53.48437" lon="22.71679">
        <ele>111.757511</ele>
        <time>2020-10-07T12:05:10.822Z</time>
      </trkpt>
      <trkpt lat="53.48447" lon="22.71629">
        <ele>111.653718</ele>
        <time>2020-10-07T12:05:17.643Z</time>
      </trkpt>
      <trkpt lat="53.48453" lon="22.71542">
        <ele>111.478235</ele>
        <time>2020-10-07T12:05:28.617Z</time>
      </trkpt>
      <trkpt lat="53.48445" lon="22.71447">
        <ele>111.287775</ele>
        <time>2020-10-07T12:05:40.164Z</time>
      </trkpt>
      <trkpt lat="53.48321" lon="22.70904">
        <ele>108.522998</ele>
        <time>2020-10-07T12:06:48.480Z</time>
      </trkpt>
      <trkpt lat="53.48304" lon="22.70838">
        <ele>108.367963</ele>
        <time>2020-10-07T12:06:56.979Z</time>
      </trkpt>
      <trkpt lat="53.48302" lon="22.70829">
        <ele>108.374571</ele>
        <time>2020-10-07T12:06:58.233Z</time>
      </trkpt>
      <trkpt lat="53.48298" lon="22.7081">
        <ele>108.386977</ele>
        <time>2020-10-07T12:07:00.604Z</time>
      </trkpt>
      <trkpt lat="53.48292" lon="22.70782">
        <ele>108.405568</ele>
        <time>2020-10-07T12:07:04.261Z</time>
      </trkpt>
      <trkpt lat="53.48109" lon="22.69997">
        <ele>109.675446</ele>
        <time>2020-10-07T12:09:01.289Z</time>
      </trkpt>
      <trkpt lat="53.48107" lon="22.69987">
        <ele>109.775135</ele>
        <time>2020-10-07T12:09:02.959Z</time>
      </trkpt>
      <trkpt lat="53.48078" lon="22.69858">
        <ele>111.052807</ele>
        <time>2020-10-07T12:09:27.641Z</time>
      </trkpt>
      <trkpt lat="53.48053" lon="22.69752">
        <ele>112.110457</ele>
        <time>2020-10-07T12:09:48.101Z</time>
      </trkpt>
      <trkpt lat="53.48042" lon="22.69706">
        <ele>112.318307</ele>
        <time>2020-10-07T12:09:57.308Z</time>
      </trkpt>
      <trkpt lat="53.48037" lon="22.6969">
        <ele>112.36949</ele>
        <time>2020-10-07T12:10:00.138Z</time>
      </trkpt>
      <trkpt lat="53.47802" lon="22.6868">
        <ele>115.169973</ele>
        <time>2020-10-07T12:12:33.186Z</time>
      </trkpt>
      <trkpt lat="53.47701" lon="22.68254">
        <ele>115.378769</ele>
        <time>2020-10-07T12:13:34.385Z</time>
      </trkpt>
      <trkpt lat="53.47571" lon="22.67695">
        <ele>115.99623</ele>
        <time>2020-10-07T12:14:56.816Z</time>
      </trkpt>
      <trkpt lat="53.47473" lon="22.67276">
        <ele>116.425858</ele>
        <time>2020-10-07T12:15:58.456Z</time>
      </trkpt>
      <trkpt lat="53.47457" lon="22.67236">
        <ele>116.463538</ele>
        <time>2020-10-07T12:16:04.755Z</time>
      </trkpt>
      <trkpt lat="53.47437" lon="22.67215">
        <ele>116.475677</ele>
        <time>2020-10-07T12:16:10.109Z</time>
      </trkpt>
      <trkpt lat="53.4742" lon="22.67212">
        <ele>116.468267</ele>
        <time>2020-10-07T12:16:13.787Z</time>
      </trkpt>
      <trkpt lat="53.47116" lon="22.67273">
        <ele>116.385168</ele>
        <time>2020-10-07T12:17:21.251Z</time>
      </trkpt>
      <trkpt lat="53.46738" lon="22.67078">
        <ele>116.581788</ele>
        <time>2020-10-07T12:18:52.394Z</time>
      </trkpt>
      <trkpt lat="53.46734" lon="22.67085">
        <ele>116.483153</ele>
        <time>2020-10-07T12:18:53.703Z</time>
      </trkpt>
      <trkpt lat="53.46732" lon="22.6709">
        <ele>116.419601</ele>
        <time>2020-10-07T12:18:54.264Z</time>
      </trkpt>
      <trkpt lat="53.46714" lon="22.67061">
        <ele>115.979686</ele>
        <time>2020-10-07T12:18:59.119Z</time>
      </trkpt>
      <trkpt lat="53.46701" lon="22.67021">
        <ele>115.508819</ele>
        <time>2020-10-07T12:19:03.742Z</time>
      </trkpt>
      <trkpt lat="53.46665" lon="22.66835">
        <ele>113.48083</ele>
        <time>2020-10-07T12:19:23.912Z</time>
      </trkpt>
      <trkpt lat="53.46665" lon="22.66817">
        <ele>113.342628</ele>
        <time>2020-10-07T12:19:25.552Z</time>
      </trkpt>
      <trkpt lat="53.4666" lon="22.66801">
        <ele>113.201863</ele>
        <time>2020-10-07T12:19:27.432Z</time>
      </trkpt>
      <trkpt lat="53.46652" lon="22.6678">
        <ele>113.001514</ele>
        <time>2020-10-07T12:19:30.305Z</time>
      </trkpt>
      <trkpt lat="53.46644" lon="22.66763">
        <ele>112.828966</ele>
        <time>2020-10-07T12:19:32.420Z</time>
      </trkpt>
      <trkpt lat="53.46648" lon="22.6675">
        <ele>112.714254</ele>
        <time>2020-10-07T12:19:34.003Z</time>
      </trkpt>
      <trkpt lat="53.46651" lon="22.6673">
        <ele>112.546575</ele>
        <time>2020-10-07T12:19:36.501Z</time>
      </trkpt>
      <trkpt lat="53.46646" lon="22.66723">
        <ele>112.457151</ele>
        <time>2020-10-07T12:19:37.600Z</time>
      </trkpt>
      <trkpt lat="53.46641" lon="22.66714">
        <ele>112.362797</ele>
        <time>2020-10-07T12:19:38.771Z</time>
      </trkpt>
      <trkpt lat="53.46627" lon="22.66698">
        <ele>112.133783</ele>
        <time>2020-10-07T12:19:42.123Z</time>
      </trkpt>
      <trkpt lat="53.46619" lon="22.6669">
        <ele>112.015326</ele>
        <time>2020-10-07T12:19:43.744Z</time>
      </trkpt>
      <trkpt lat="53.45588" lon="22.6391">
        <ele>111.08874</ele>
        <time>2020-10-07T12:26:54.956Z</time>
      </trkpt>
      <trkpt lat="53.45539" lon="22.63776">
        <ele>111.941654</ele>
        <time>2020-10-07T12:27:20.904Z</time>
      </trkpt>
      <trkpt lat="53.45499" lon="22.63642">
        <ele>114.431454</ele>
        <time>2020-10-07T12:27:51.090Z</time>
      </trkpt>
      <trkpt lat="53.45485" lon="22.63576">
        <ele>115.578574</ele>
        <time>2020-10-07T12:28:05.536Z</time>
      </trkpt>
      <trkpt lat="53.45476" lon="22.635">
        <ele>116.851349</ele>
        <time>2020-10-07T12:28:22.003Z</time>
      </trkpt>
      <trkpt lat="53.45471" lon="22.63423">
        <ele>117.855644</ele>
        <time>2020-10-07T12:28:37.860Z</time>
      </trkpt>
      <trkpt lat="53.45476" lon="22.63265">
        <ele>119.904009</ele>
        <time>2020-10-07T12:29:08.492Z</time>
      </trkpt>
      <trkpt lat="53.45537" lon="22.62642">
        <ele>121.489747</ele>
        <time>2020-10-07T12:30:37.046Z</time>
      </trkpt>
      <trkpt lat="53.45539" lon="22.6257">
        <ele>121.25189</ele>
        <time>2020-10-07T12:30:45.400Z</time>
      </trkpt>
      <trkpt lat="53.45536" lon="22.62499">
        <ele>120.754824</ele>
        <time>2020-10-07T12:30:53.377Z</time>
      </trkpt>
      <trkpt lat="53.45512" lon="22.62375">
        <ele>119.837071</ele>
        <time>2020-10-07T12:31:07.689Z</time>
      </trkpt>
      <trkpt lat="53.45494" lon="22.6233">
        <ele>119.455489</ele>
        <time>2020-10-07T12:31:13.731Z</time>
      </trkpt>
      <trkpt lat="53.45444" lon="22.62245">
        <ele>118.968119</ele>
        <time>2020-10-07T12:31:27.311Z</time>
      </trkpt>
      <trkpt lat="53.4543" lon="22.62224">
        <ele>118.843895</ele>
        <time>2020-10-07T12:31:31.140Z</time>
      </trkpt>
      <trkpt lat="53.45418" lon="22.62209">
        <ele>118.748479</ele>
        <time>2020-10-07T12:31:34.136Z</time>
      </trkpt>
      <trkpt lat="53.45402" lon="22.62196">
        <ele>118.637757</ele>
        <time>2020-10-07T12:31:37.658Z</time>
      </trkpt>
      <trkpt lat="53.45372" lon="22.62172">
        <ele>118.423293</ele>
        <time>2020-10-07T12:31:44.635Z</time>
      </trkpt>
      <trkpt lat="53.44984" lon="22.61898">
        <ele>119.029508</ele>
        <time>2020-10-07T12:33:20.988Z</time>
      </trkpt>
      <trkpt lat="53.4483" lon="22.61775">
        <ele>120.17307</ele>
        <time>2020-10-07T12:34:04.885Z</time>
      </trkpt>
      <trkpt lat="53.44665" lon="22.61656">
        <ele>120.957047</ele>
        <time>2020-10-07T12:34:48.863Z</time>
      </trkpt>
      <trkpt lat="53.44449" lon="22.61506">
        <ele>120.438402</ele>
        <time>2020-10-07T12:35:38.097Z</time>
      </trkpt>
      <trkpt lat="53.44369" lon="22.61448">
        <ele>120.105275</ele>
        <time>2020-10-07T12:35:56.048Z</time>
      </trkpt>
      <trkpt lat="53.4434" lon="22.6142">
        <ele>120.024053</ele>
        <time>2020-10-07T12:36:03.049Z</time>
      </trkpt>
      <trkpt lat="53.4431" lon="22.61376">
        <ele>119.993831</ele>
        <time>2020-10-07T12:36:11.391Z</time>
      </trkpt>
      <trkpt lat="53.442" lon="22.61175">
        <ele>119.995599</ele>
        <time>2020-10-07T12:36:47.986Z</time>
      </trkpt>
      <trkpt lat="53.44183" lon="22.61143">
        <ele>120.061348</ele>
        <time>2020-10-07T12:36:54.232Z</time>
      </trkpt>
      <trkpt lat="53.44054" lon="22.60897">
        <ele>120.310565</ele>
        <time>2020-10-07T12:37:40.163Z</time>
      </trkpt>
      <trkpt lat="53.43861" lon="22.6053">
        <ele>119.70596</ele>
        <time>2020-10-07T12:38:41.555Z</time>
      </trkpt>
      <trkpt lat="53.43749" lon="22.60323">
        <ele>119.687453</ele>
        <time>2020-10-07T12:39:19.007Z</time>
      </trkpt>
      <trkpt lat="53.43668" lon="22.60174">
        <ele>119.555739</ele>
        <time>2020-10-07T12:39:45.793Z</time>
      </trkpt>
      <trkpt lat="53.43549" lon="22.59945">
        <ele>119.190994</ele>
        <time>2020-10-07T12:40:23.934Z</time>
      </trkpt>
      <trkpt lat="53.43427" lon="22.59717">
        <ele>118.946991</ele>
        <time>2020-10-07T12:41:03.893Z</time>
      </trkpt>
      <trkpt lat="53.43424" lon="22.59711">
        <ele>118.943132</ele>
        <time>2020-10-07T12:41:05.148Z</time>
      </trkpt>
      <trkpt lat="53.43249" lon="22.59379">
        <ele>118.771388</ele>
        <time>2020-10-07T12:42:03.835Z</time>
      </trkpt>
      <trkpt lat="53.43223" lon="22.59337">
        <ele>118.652605</ele>
        <time>2020-10-07T12:42:11.526Z</time>
      </trkpt>
      <trkpt lat="53.43179" lon="22.59275">
        <ele>118.458559</ele>
        <time>2020-10-07T12:42:23.897Z</time>
      </trkpt>
      <trkpt lat="53.43154" lon="22.59248">
        <ele>118.360499</ele>
        <time>2020-10-07T12:42:29.902Z</time>
      </trkpt>
      <trkpt lat="53.4308" lon="22.59193">
        <ele>117.74546</ele>
        <time>2020-10-07T12:42:46.015Z</time>
      </trkpt>
      <trkpt lat="53.43043" lon="22.59176">
        <ele>117.378399</ele>
        <time>2020-10-07T12:42:53.336Z</time>
      </trkpt>
      <trkpt lat="53.42964" lon="22.59152">
        <ele>116.61037</ele>
        <time>2020-10-07T12:43:08.417Z</time>
      </trkpt>
      <trkpt lat="53.42702" lon="22.59069">
        <ele>114.797763</ele>
        <time>2020-10-07T12:44:01.586Z</time>
      </trkpt>
      <trkpt lat="53.4263" lon="22.59046">
        <ele>114.517875</ele>
        <time>2020-10-07T12:44:18.002Z</time>
      </trkpt>
      <trkpt lat="53.42533" lon="22.59016">
        <ele>113.998446</ele>
        <time>2020-10-07T12:44:39.110Z</time>
      </trkpt>
      <trkpt lat="53.42443" lon="22.58988">
        <ele>113.475326</ele>
        <time>2020-10-07T12:44:57.085Z</time>
      </trkpt>
      <trkpt lat="53.42359" lon="22.58961">
        <ele>113.217068</ele>
        <time>2020-10-07T12:45:13.785Z</time>
      </trkpt>
      <trkpt lat="53.42286" lon="22.58937">
        <ele>113.039317</ele>
        <time>2020-10-07T12:45:29.418Z</time>
      </trkpt>
      <trkpt lat="53.42163" lon="22.58899">
        <ele>114.082242</ele>
        <time>2020-10-07T12:46:02.255Z</time>
      </trkpt>
      <trkpt lat="53.41964" lon="22.58839">
        <ele>116.400816</ele>
        <time>2020-10-07T12:47:00.582Z</time>
      </trkpt>
      <trkpt lat="53.41963" lon="22.58839">
        <ele>116.407283</ele>
        <time>2020-10-07T12:47:00.732Z</time>
      </trkpt>
      <trkpt lat="53.41505" lon="22.58695">
        <ele>117.327418</ele>
        <time>2020-10-07T12:48:45.923Z</time>
      </trkpt>
      <trkpt lat="53.41482" lon="22.58683">
        <ele>117.316512</ele>
        <time>2020-10-07T12:48:50.936Z</time>
      </trkpt>
      <trkpt lat="53.41373" lon="22.58612">
        <ele>117.264736</ele>
        <time>2020-10-07T12:49:16.381Z</time>
      </trkpt>
      <trkpt lat="53.41256" lon="22.58535">
        <ele>118.021746</ele>
        <time>2020-10-07T12:49:46.886Z</time>
      </trkpt>
      <trkpt lat="53.41202" lon="22.58513">
        <ele>118.359647</ele>
        <time>2020-10-07T12:50:01.764Z</time>
      </trkpt>
      <trkpt lat="53.40997" lon="22.58498">
        <ele>119.857484</ele>
        <time>2020-10-07T12:50:54.355Z</time>
      </trkpt>
      <trkpt lat="53.40916" lon="22.58492">
        <ele>120.032314</ele>
        <time>2020-10-07T12:51:12.787Z</time>
      </trkpt>
      <trkpt lat="53.40857" lon="22.58488">
        <ele>120.160081</ele>
        <time>2020-10-07T12:51:25.693Z</time>
      </trkpt>
      <trkpt lat="53.40575" lon="22.58399">
        <ele>120.410984</ele>
        <time>2020-10-07T12:52:29.394Z</time>
      </trkpt>
      <trkpt lat="53.40411" lon="22.58346">
        <ele>121.109865</ele>
        <time>2020-10-07T12:53:10.620Z</time>
      </trkpt>
      <trkpt lat="53.40066" lon="22.58236">
        <ele>122.578695</ele>
        <time>2020-10-07T12:54:35.196Z</time>
      </trkpt>
      <trkpt lat="53.39974" lon="22.58219">
        <ele>122.723607</ele>
        <time>2020-10-07T12:54:56.136Z</time>
      </trkpt>
      <trkpt lat="53.39912" lon="22.58221">
        <ele>122.627696</ele>
        <time>2020-10-07T12:55:09.659Z</time>
      </trkpt>
      <trkpt lat="53.3947" lon="22.58274">
        <ele>121.429659</ele>
        <time>2020-10-07T12:56:43.914Z</time>
      </trkpt>
      <trkpt lat="53.39271" lon="22.583">
        <ele>120.753468</ele>
        <time>2020-10-07T12:57:25.172Z</time>
      </trkpt>
      <trkpt lat="53.39208" lon="22.58303">
        <ele>120.651743</ele>
        <time>2020-10-07T12:57:39.063Z</time>
      </trkpt>
      <trkpt lat="53.39079" lon="22.58299">
        <ele>120.647393</ele>
        <time>2020-10-07T12:58:08.218Z</time>
      </trkpt>
      <trkpt lat="53.38995" lon="22.58306">
        <ele>120.475351</ele>
        <time>2020-10-07T12:58:26.340Z</time>
      </trkpt>
      <trkpt lat="53.38808" lon="22.5835">
        <ele>120.203476</ele>
        <time>2020-10-07T12:59:06.027Z</time>
      </trkpt>
      <trkpt lat="53.38685" lon="22.58376">
        <ele>120.327934</ele>
        <time>2020-10-07T12:59:34.884Z</time>
      </trkpt>
      <trkpt lat="53.38611" lon="22.58392">
        <ele>120.705567</ele>
        <time>2020-10-07T12:59:54.035Z</time>
      </trkpt>
      <trkpt lat="53.38566" lon="22.58397">
        <ele>120.933591</ele>
        <time>2020-10-07T13:00:05.232Z</time>
      </trkpt>
      <trkpt lat="53.38503" lon="22.58402">
        <ele>121.001226</ele>
        <time>2020-10-07T13:00:20.375Z</time>
      </trkpt>
      <trkpt lat="53.37681" lon="22.5846">
        <ele>116.521881</ele>
        <time>2020-10-07T13:03:05.976Z</time>
      </trkpt>
      <trkpt lat="53.37607" lon="22.58475">
        <ele>116.500217</ele>
        <time>2020-10-07T13:03:24.194Z</time>
      </trkpt>
      <trkpt lat="53.37521" lon="22.58523">
        <ele>116.971898</ele>
        <time>2020-10-07T13:03:47.924Z</time>
      </trkpt>
      <trkpt lat="53.37479" lon="22.58562">
        <ele>117.220925</ele>
        <time>2020-10-07T13:04:00.651Z</time>
      </trkpt>
      <trkpt lat="53.37351" lon="22.58699">
        <ele>115.136981</ele>
        <time>2020-10-07T13:04:30.004Z</time>
      </trkpt>
      <trkpt lat="53.37235" lon="22.58822">
        <ele>111.412504</ele>
        <time>2020-10-07T13:04:51.818Z</time>
      </trkpt>
      <trkpt lat="53.37229" lon="22.58829">
        <ele>111.168426</ele>
        <time>2020-10-07T13:04:52.976Z</time>
      </trkpt>
      <trkpt lat="53.37129" lon="22.58935">
        <ele>108.197455</ele>
        <time>2020-10-07T13:05:12.446Z</time>
      </trkpt>
      <trkpt lat="53.37061" lon="22.59007">
        <ele>107.688732</ele>
        <time>2020-10-07T13:05:27.783Z</time>
      </trkpt>
      <trkpt lat="53.37045" lon="22.59024">
        <ele>107.563936</ele>
        <time>2020-10-07T13:05:32.480Z</time>
      </trkpt>
      <trkpt lat="53.36964" lon="22.5911">
        <ele>108.201522</ele>
        <time>2020-10-07T13:06:00.086Z</time>
      </trkpt>
      <trkpt lat="53.36866" lon="22.59214">
        <ele>110.344682</ele>
        <time>2020-10-07T13:06:35.964Z</time>
      </trkpt>
      <trkpt lat="53.36409" lon="22.59701">
        <ele>118.346731</ele>
        <time>2020-10-07T13:09:09.166Z</time>
      </trkpt>
      <trkpt lat="53.36241" lon="22.59879">
        <ele>119.702914</ele>
        <time>2020-10-07T13:09:57.751Z</time>
      </trkpt>
      <trkpt lat="53.36209" lon="22.59907">
        <ele>119.869217</ele>
        <time>2020-10-07T13:10:06.540Z</time>
      </trkpt>
      <trkpt lat="53.36183" lon="22.59925">
        <ele>120.001591</ele>
        <time>2020-10-07T13:10:13.549Z</time>
      </trkpt>
      <trkpt lat="53.36154" lon="22.59942">
        <ele>120.146011</ele>
        <time>2020-10-07T13:10:21.285Z</time>
      </trkpt>
      <trkpt lat="53.36093" lon="22.59965">
        <ele>120.434645</ele>
        <time>2020-10-07T13:10:36.182Z</time>
      </trkpt>
      <trkpt lat="53.36013" lon="22.59966">
        <ele>120.038299</ele>
        <time>2020-10-07T13:10:54.520Z</time>
      </trkpt>
      <trkpt lat="53.35441" lon="22.59858">
        <ele>115.665661</ele>
        <time>2020-10-07T13:12:47.582Z</time>
      </trkpt>
      <trkpt lat="53.35146" lon="22.59802">
        <ele>113.120213</ele>
        <time>2020-10-07T13:13:45.123Z</time>
      </trkpt>
      <trkpt lat="53.34815" lon="22.59737">
        <ele>112.146331</ele>
        <time>2020-10-07T13:14:55.560Z</time>
      </trkpt>
      <trkpt lat="53.34716" lon="22.59725">
        <ele>113.151208</ele>
        <time>2020-10-07T13:15:20.942Z</time>
      </trkpt>
      <trkpt lat="53.34669" lon="22.59729">
        <ele>113.62498</ele>
        <time>2020-10-07T13:15:34.190Z</time>
      </trkpt>
      <trkpt lat="53.34393" lon="22.59777">
        <ele>118.287421</ele>
        <time>2020-10-07T13:16:59.084Z</time>
      </trkpt>
      <trkpt lat="53.3424" lon="22.59804">
        <ele>118.827075</ele>
        <time>2020-10-07T13:17:35.366Z</time>
      </trkpt>
      <trkpt lat="53.33677" lon="22.59897">
        <ele>112.647454</ele>
        <time>2020-10-07T13:19:20.688Z</time>
      </trkpt>
      <trkpt lat="53.33438" lon="22.59934">
        <ele>111.790496</ele>
        <time>2020-10-07T13:20:15.636Z</time>
      </trkpt>
      <trkpt lat="53.32951" lon="22.60011">
        <ele>106.958439</ele>
        <time>2020-10-07T13:21:47.670Z</time>
      </trkpt>
      <trkpt lat="53.31992" lon="22.60163">
        <ele>102.824887</ele>
        <time>2020-10-07T13:25:09.525Z</time>
      </trkpt>
      <trkpt lat="53.31671" lon="22.60214">
        <ele>102.59386</ele>
        <time>2020-10-07T13:26:21.564Z</time>
      </trkpt>
      <trkpt lat="53.31661" lon="22.60215">
        <ele>102.584636</ele>
        <time>2020-10-07T13:26:23.766Z</time>
      </trkpt>
      <trkpt lat="53.31448" lon="22.60248">
        <ele>102.176186</ele>
        <time>2020-10-07T13:27:09.281Z</time>
      </trkpt>
      <trkpt lat="53.30499" lon="22.60399">
        <ele>101.936632</ele>
        <time>2020-10-07T13:30:40.154Z</time>
      </trkpt>
      <trkpt lat="53.30182" lon="22.60449">
        <ele>102.810028</ele>
        <time>2020-10-07T13:31:55.980Z</time>
      </trkpt>
      <trkpt lat="53.30173" lon="22.60451">
        <ele>102.832877</ele>
        <time>2020-10-07T13:31:57.954Z</time>
      </trkpt>
      <trkpt lat="53.29977" lon="22.60481">
        <ele>102.123449</ele>
        <time>2020-10-07T13:32:39.023Z</time>
      </trkpt>
      <trkpt lat="53.29838" lon="22.60503">
        <ele>101.290736</ele>
        <time>2020-10-07T13:33:06.867Z</time>
      </trkpt>
      <trkpt lat="53.29781" lon="22.60524">
        <ele>101.138989</ele>
        <time>2020-10-07T13:33:18.679Z</time>
      </trkpt>
      <trkpt lat="53.28722" lon="22.6108">
        <ele>101.150614</ele>
        <time>2020-10-07T13:37:26.825Z</time>
      </trkpt>
      <trkpt lat="53.27575" lon="22.61681">
        <ele>102.256399</ele>
        <time>2020-10-07T13:41:59.130Z</time>
      </trkpt>
      <trkpt lat="53.27528" lon="22.61696">
        <ele>102.172363</ele>
        <time>2020-10-07T13:42:09.744Z</time>
      </trkpt>
      <trkpt lat="53.26931" lon="22.61765">
        <ele>101.418423</ele>
        <time>2020-10-07T13:44:18.750Z</time>
      </trkpt>
      <trkpt lat="53.26919" lon="22.61765">
        <ele>101.42788</ele>
        <time>2020-10-07T13:44:21.630Z</time>
      </trkpt>
      <trkpt lat="53.26904" lon="22.61763">
        <ele>101.439267</ele>
        <time>2020-10-07T13:44:25.021Z</time>
      </trkpt>
      <trkpt lat="53.26846" lon="22.61741">
        <ele>101.638698</ele>
        <time>2020-10-07T13:44:39.446Z</time>
      </trkpt>
      <trkpt lat="53.26427" lon="22.61477">
        <ele>105.19958</ele>
        <time>2020-10-07T13:46:34.510Z</time>
      </trkpt>
      <trkpt lat="53.26381" lon="22.61424">
        <ele>105.586502</ele>
        <time>2020-10-07T13:46:48.304Z</time>
      </trkpt>
      <trkpt lat="53.26341" lon="22.61336">
        <ele>105.693348</ele>
        <time>2020-10-07T13:47:03.831Z</time>
      </trkpt>
      <trkpt lat="53.2601" lon="22.60364">
        <ele>105.79091</ele>
        <time>2020-10-07T13:49:31.990Z</time>
      </trkpt>
      <trkpt lat="53.26002" lon="22.60344">
        <ele>105.888887</ele>
        <time>2020-10-07T13:49:35.668Z</time>
      </trkpt>
      <trkpt lat="53.25937" lon="22.60153">
        <ele>106.82789</ele>
        <time>2020-10-07T13:50:09.568Z</time>
      </trkpt>
      <trkpt lat="53.25911" lon="22.60082">
        <ele>107.079462</ele>
        <time>2020-10-07T13:50:22.499Z</time>
      </trkpt>
      <trkpt lat="53.25863" lon="22.60006">
        <ele>107.106997</ele>
        <time>2020-10-07T13:50:38.610Z</time>
      </trkpt>
      <trkpt lat="53.24768" lon="22.58759">
        <ele>107.47871</ele>
        <time>2020-10-07T13:55:33.551Z</time>
      </trkpt>
      <trkpt lat="53.24717" lon="22.58685">
        <ele>107.252708</ele>
        <time>2020-10-07T13:55:47.788Z</time>
      </trkpt>
      <trkpt lat="53.24156" lon="22.57478">
        <ele>102.113195</ele>
        <time>2020-10-07T13:58:54.079Z</time>
      </trkpt>
      <trkpt lat="53.24147" lon="22.57458">
        <ele>102.057845</ele>
        <time>2020-10-07T13:58:57.006Z</time>
      </trkpt>
      <trkpt lat="53.23991" lon="22.57123">
        <ele>101.47789</ele>
        <time>2020-10-07T13:59:51.453Z</time>
      </trkpt>
      <trkpt lat="53.23918" lon="22.56964">
        <ele>101.614384</ele>
        <time>2020-10-07T14:00:19.353Z</time>
      </trkpt>
      <trkpt lat="53.23873" lon="22.56899">
        <ele>101.748663</ele>
        <time>2020-10-07T14:00:33.317Z</time>
      </trkpt>
      <trkpt lat="53.23842" lon="22.56874">
        <ele>101.826367</ele>
        <time>2020-10-07T14:00:41.327Z</time>
      </trkpt>
      <trkpt lat="53.23806" lon="22.56858">
        <ele>101.845836</ele>
        <time>2020-10-07T14:00:49.779Z</time>
      </trkpt>
      <trkpt lat="53.2365" lon="22.56806">
        <ele>101.849738</ele>
        <time>2020-10-07T14:01:25.370Z</time>
      </trkpt>
      <trkpt lat="53.23583" lon="22.56784">
        <ele>101.699901</ele>
        <time>2020-10-07T14:01:39.812Z</time>
      </trkpt>
      <trkpt lat="53.23433" lon="22.56736">
        <ele>101.363102</ele>
        <time>2020-10-07T14:02:12.105Z</time>
      </trkpt>
      <trkpt lat="53.23141" lon="22.56639">
        <ele>100.82618</ele>
        <time>2020-10-07T14:03:16.498Z</time>
      </trkpt>
      <trkpt lat="53.22708" lon="22.56499">
        <ele>100.505958</ele>
        <time>2020-10-07T14:04:53.619Z</time>
      </trkpt>
      <trkpt lat="53.22038" lon="22.56279">
        <ele>100.054113</ele>
        <time>2020-10-07T14:07:24.216Z</time>
      </trkpt>
      <trkpt lat="53.21998" lon="22.56262">
        <ele>99.993654</ele>
        <time>2020-10-07T14:07:32.773Z</time>
      </trkpt>
      <trkpt lat="53.21976" lon="22.56244">
        <ele>99.956214</ele>
        <time>2020-10-07T14:07:38.168Z</time>
      </trkpt>
      <trkpt lat="53.21948" lon="22.56212">
        <ele>99.905263</ele>
        <time>2020-10-07T14:07:45.487Z</time>
      </trkpt>
      <trkpt lat="53.21922" lon="22.56171">
        <ele>99.852756</ele>
        <time>2020-10-07T14:07:53.068Z</time>
      </trkpt>
      <trkpt lat="53.21909" lon="22.56143">
        <ele>99.851044</ele>
        <time>2020-10-07T14:07:57.627Z</time>
      </trkpt>
      <trkpt lat="53.21716" lon="22.55709">
        <ele>100.46905</ele>
        <time>2020-10-07T14:09:12.481Z</time>
      </trkpt>
      <trkpt lat="53.21634" lon="22.55523">
        <ele>101.176265</ele>
        <time>2020-10-07T14:09:45.641Z</time>
      </trkpt>
      <trkpt lat="53.21532" lon="22.55296">
        <ele>102.819848</ele>
        <time>2020-10-07T14:10:29.038Z</time>
      </trkpt>
      <trkpt lat="53.21477" lon="22.55172">
        <ele>104.052589</ele>
        <time>2020-10-07T14:10:55.935Z</time>
      </trkpt>
      <trkpt lat="53.21458" lon="22.5513">
        <ele>104.633385</ele>
        <time>2020-10-07T14:11:05.628Z</time>
      </trkpt>
      <trkpt lat="53.21357" lon="22.549">
        <ele>107.499839</ele>
        <time>2020-10-07T14:11:56.739Z</time>
      </trkpt>
      <trkpt lat="53.21325" lon="22.5483">
        <ele>108.066352</ele>
        <time>2020-10-07T14:12:10.672Z</time>
      </trkpt>
      <trkpt lat="53.21296" lon="22.54775">
        <ele>108.541521</ele>
        <time>2020-10-07T14:12:21.991Z</time>
      </trkpt>
      <trkpt lat="53.21262" lon="22.54736">
        <ele>108.986879</ele>
        <time>2020-10-07T14:12:32.297Z</time>
      </trkpt>
      <trkpt lat="53.21237" lon="22.54718">
        <ele>109.099031</ele>
        <time>2020-10-07T14:12:38.796Z</time>
      </trkpt>
      <trkpt lat="53.21177" lon="22.54698">
        <ele>109.294151</ele>
        <time>2020-10-07T14:12:53.227Z</time>
      </trkpt>
      <trkpt lat="53.21149" lon="22.547">
        <ele>109.383734</ele>
        <time>2020-10-07T14:12:59.799Z</time>
      </trkpt>
      <trkpt lat="53.21106" lon="22.54717">
        <ele>109.52763</ele>
        <time>2020-10-07T14:13:10.271Z</time>
      </trkpt>
      <trkpt lat="53.20776" lon="22.54906">
        <ele>109.762745</ele>
        <time>2020-10-07T14:14:28.836Z</time>
      </trkpt>
      <trkpt lat="53.20654" lon="22.54976">
        <ele>109.372728</ele>
        <time>2020-10-07T14:14:56.351Z</time>
      </trkpt>
      <trkpt lat="53.20646" lon="22.54978">
        <ele>109.338358</ele>
        <time>2020-10-07T14:14:58.085Z</time>
      </trkpt>
      <trkpt lat="53.20637" lon="22.54977">
        <ele>109.302485</ele>
        <time>2020-10-07T14:14:59.709Z</time>
      </trkpt>
      <trkpt lat="53.20523" lon="22.54899">
        <ele>109.021433</ele>
        <time>2020-10-07T14:15:24.887Z</time>
      </trkpt>
      <trkpt lat="53.20509" lon="22.54896">
        <ele>109.02003</ele>
        <time>2020-10-07T14:15:27.863Z</time>
      </trkpt>
      <trkpt lat="53.20506" lon="22.54898">
        <ele>109.019655</ele>
        <time>2020-10-07T14:15:28.482Z</time>
      </trkpt>
      <trkpt lat="53.20501" lon="22.54878">
        <ele>109.018381</ele>
        <time>2020-10-07T14:15:31.193Z</time>
      </trkpt>
      <trkpt lat="53.20497" lon="22.54879">
        <ele>109.017937</ele>
        <time>2020-10-07T14:15:32.128Z</time>
      </trkpt>
      <trkpt lat="53.20485" lon="22.54874">
        <ele>109.016617</ele>
        <time>2020-10-07T14:15:34.967Z</time>
      </trkpt>
      <trkpt lat="53.19873" lon="22.5446">
        <ele>111.96757</ele>
        <time>2020-10-07T14:18:18.945Z</time>
      </trkpt>
      <trkpt lat="53.19576" lon="22.54258">
        <ele>107.980757</ele>
        <time>2020-10-07T14:19:17.342Z</time>
      </trkpt>
      <trkpt lat="53.19521" lon="22.54236">
        <ele>108.086468</ele>
        <time>2020-10-07T14:19:28.378Z</time>
      </trkpt>
      <trkpt lat="53.19493" lon="22.54236">
        <ele>108.138196</ele>
        <time>2020-10-07T14:19:34.003Z</time>
      </trkpt>
      <trkpt lat="53.18544" lon="22.54344">
        <ele>109.83114</ele>
        <time>2020-10-07T14:23:18.199Z</time>
      </trkpt>
      <trkpt lat="53.184" lon="22.54358">
        <ele>109.492418</ele>
        <time>2020-10-07T14:23:47.964Z</time>
      </trkpt>
      <trkpt lat="53.17698" lon="22.5444">
        <ele>107.60642</ele>
        <time>2020-10-07T14:26:15.180Z</time>
      </trkpt>
      <trkpt lat="53.17042" lon="22.54517">
        <ele>111.243242</ele>
        <time>2020-10-07T14:28:59.808Z</time>
      </trkpt>
      <trkpt lat="53.1701" lon="22.54517">
        <ele>111.343232</ele>
        <time>2020-10-07T14:29:07.371Z</time>
      </trkpt>
      <trkpt lat="53.16984" lon="22.54512">
        <ele>111.422079</ele>
        <time>2020-10-07T14:29:13.229Z</time>
      </trkpt>
      <trkpt lat="53.1696" lon="22.54503">
        <ele>111.498229</ele>
        <time>2020-10-07T14:29:18.908Z</time>
      </trkpt>
      <trkpt lat="53.16679" lon="22.54341">
        <ele>112.076997</ele>
        <time>2020-10-07T14:30:27.515Z</time>
      </trkpt>
      <trkpt lat="53.15597" lon="22.53717">
        <ele>113.728706</ele>
        <time>2020-10-07T14:34:47.773Z</time>
      </trkpt>
      <trkpt lat="53.1574" lon="22.53268">
        <ele>115.027528</ele>
        <time>2020-10-07T14:36:49.251Z</time>
      </trkpt>
      <trkpt lat="53.15746" lon="22.53229">
        <ele>114.998548</ele>
        <time>2020-10-07T14:36:58.358Z</time>
      </trkpt>
      <trkpt lat="53.15743" lon="22.53159">
        <ele>114.948615</ele>
        <time>2020-10-07T14:37:13.754Z</time>
      </trkpt>
      <trkpt lat="53.15508" lon="22.51454">
        <ele>104.700175</ele>
        <time>2020-10-07T14:43:07.728Z</time>
      </trkpt>
      <trkpt lat="53.15455" lon="22.51078">
        <ele>103.55922</ele>
        <time>2020-10-07T14:44:30.654Z</time>
      </trkpt>
      <trkpt lat="53.15351" lon="22.50328">
        <ele>102.688637</ele>
        <time>2020-10-07T14:47:18.415Z</time>
      </trkpt>
      <trkpt lat="53.15378" lon="22.50317">
        <ele>102.703562</ele>
        <time>2020-10-07T14:47:28.815Z</time>
      </trkpt>
      <trkpt lat="53.15351" lon="22.50328">
        <ele>102.718488</ele>
        <time>2020-10-07T14:47:39.224Z</time>
      </trkpt>
      <trkpt lat="53.15309" lon="22.50027">
        <ele>102.959058</ele>
        <time>2020-10-07T14:48:50.074Z</time>
      </trkpt>
      <trkpt lat="53.1515" lon="22.48872">
        <ele>102.772988</ele>
        <time>2020-10-07T14:53:11.963Z</time>
      </trkpt>
      <trkpt lat="53.15114" lon="22.48617">
        <ele>103.175958</ele>
        <time>2020-10-07T14:54:13.861Z</time>
      </trkpt>
      <trkpt lat="53.14948" lon="22.47416">
        <ele>103.777157</ele>
        <time>2020-10-07T14:58:50.210Z</time>
      </trkpt>
      <trkpt lat="53.14908" lon="22.47127">
        <ele>103.781731</ele>
        <time>2020-10-07T14:59:56.323Z</time>
      </trkpt>
      <trkpt lat="53.14747" lon="22.45966">
        <ele>103.228669</ele>
        <time>2020-10-07T15:04:21.015Z</time>
      </trkpt>
      <trkpt lat="53.14711" lon="22.45698">
        <ele>102.644435</ele>
        <time>2020-10-07T15:05:18.392Z</time>
      </trkpt>
      <trkpt lat="53.14703" lon="22.45643">
        <ele>102.507798</ele>
        <time>2020-10-07T15:05:30.255Z</time>
      </trkpt>
      <trkpt lat="53.14543" lon="22.44492">
        <ele>103.079988</ele>
        <time>2020-10-07T15:09:58.005Z</time>
      </trkpt>
      <trkpt lat="53.14341" lon="22.4304">
        <ele>101.962339</ele>
        <time>2020-10-07T15:15:25.290Z</time>
      </trkpt>
      <trkpt lat="53.14296" lon="22.42708">
        <ele>101.931566</ele>
        <time>2020-10-07T15:16:41.399Z</time>
      </trkpt>
      <trkpt lat="53.14216" lon="22.42125">
        <ele>102.22425</ele>
        <time>2020-10-07T15:18:55.744Z</time>
      </trkpt>
      <trkpt lat="53.14198" lon="22.42011">
        <ele>102.312833</ele>
        <time>2020-10-07T15:19:22.371Z</time>
      </trkpt>
      <trkpt lat="53.14101" lon="22.41554">
        <ele>102.668757</ele>
        <time>2020-10-07T15:21:12.621Z</time>
      </trkpt>
      <trkpt lat="53.14048" lon="22.41295">
        <ele>102.33724</ele>
        <time>2020-10-07T15:22:12.406Z</time>
      </trkpt>
      <trkpt lat="53.14043" lon="22.41229">
        <ele>102.218385</ele>
        <time>2020-10-07T15:22:26.563Z</time>
      </trkpt>
      <trkpt lat="53.14043" lon="22.41152">
        <ele>102.01566</ele>
        <time>2020-10-07T15:22:42.827Z</time>
      </trkpt>
      <trkpt lat="53.14077" lon="22.40852">
        <ele>101.19366</ele>
        <time>2020-10-07T15:23:47.339Z</time>
      </trkpt>
      <trkpt lat="53.14092" lon="22.40771">
        <ele>101.142299</ele>
        <time>2020-10-07T15:24:06.002Z</time>
      </trkpt>
      <trkpt lat="53.14141" lon="22.40604">
        <ele>101.065343</ele>
        <time>2020-10-07T15:24:47.667Z</time>
      </trkpt>
      <trkpt lat="53.14146" lon="22.40578">
        <ele>101.088647</ele>
        <time>2020-10-07T15:24:53.904Z</time>
      </trkpt>
      <trkpt lat="53.14152" lon="22.40551">
        <ele>101.113346</ele>
        <time>2020-10-07T15:25:00.511Z</time>
      </trkpt>
      <trkpt lat="53.1421" lon="22.40124">
        <ele>101.492102</ele>
        <time>2020-10-07T15:26:39.847Z</time>
      </trkpt>
      <trkpt lat="53.1423" lon="22.39981">
        <ele>101.607122</ele>
        <time>2020-10-07T15:27:12.961Z</time>
      </trkpt>
      <trkpt lat="53.14227" lon="22.39918">
        <ele>101.648774</ele>
        <time>2020-10-07T15:27:27.059Z</time>
      </trkpt>
      <trkpt lat="53.14192" lon="22.39662">
        <ele>101.751323</ele>
        <time>2020-10-07T15:28:26.239Z</time>
      </trkpt>
      <trkpt lat="53.14198" lon="22.39607">
        <ele>101.74404</ele>
        <time>2020-10-07T15:28:38.757Z</time>
      </trkpt>
      <trkpt lat="53.14236" lon="22.39464">
        <ele>101.72156</ele>
        <time>2020-10-07T15:29:13.502Z</time>
      </trkpt>
      <trkpt lat="53.14243" lon="22.39404">
        <ele>101.681298</ele>
        <time>2020-10-07T15:29:27.035Z</time>
      </trkpt>
      <trkpt lat="53.14232" lon="22.39347">
        <ele>101.641944</ele>
        <time>2020-10-07T15:29:40.246Z</time>
      </trkpt>
      <trkpt lat="53.14168" lon="22.39165">
        <ele>101.48514</ele>
        <time>2020-10-07T15:30:26.459Z</time>
      </trkpt>
      <trkpt lat="53.14101" lon="22.39059">
        <ele>101.308163</ele>
        <time>2020-10-07T15:31:00.160Z</time>
      </trkpt>
      <trkpt lat="53.14089" lon="22.39032">
        <ele>101.270121</ele>
        <time>2020-10-07T15:31:07.391Z</time>
      </trkpt>
      <trkpt lat="53.14076" lon="22.38966">
        <ele>101.19004</ele>
        <time>2020-10-07T15:31:22.567Z</time>
      </trkpt>
      <trkpt lat="53.14043" lon="22.38686">
        <ele>100.817821</ele>
        <time>2020-10-07T15:32:24.864Z</time>
      </trkpt>
      <trkpt lat="53.13808" lon="22.36717">
        <ele>98.83975</ele>
        <time>2020-10-07T15:39:44.652Z</time>
      </trkpt>
      <trkpt lat="53.13787" lon="22.36715">
        <ele>98.812116</ele>
        <time>2020-10-07T15:39:52.304Z</time>
      </trkpt>
      <trkpt lat="53.11783" lon="22.37146">
        <ele>99.927521</ele>
        <time>2020-10-07T15:52:26.742Z</time>
      </trkpt>
      <trkpt lat="53.1144" lon="22.37229">
        <ele>100.513004</ele>
        <time>2020-10-07T15:54:37.755Z</time>
      </trkpt>
      <trkpt lat="53.1142" lon="22.37229">
        <ele>100.548735</ele>
        <time>2020-10-07T15:54:45.267Z</time>
      </trkpt>
      <trkpt lat="53.11407" lon="22.37228">
        <ele>100.570205</ele>
        <time>2020-10-07T15:54:50.026Z</time>
      </trkpt>
      <trkpt lat="53.11389" lon="22.37066">
        <ele>100.737456</ele>
        <time>2020-10-07T15:55:27.321Z</time>
      </trkpt>
      <trkpt lat="53.11376" lon="22.37033">
        <ele>100.776842</ele>
        <time>2020-10-07T15:55:36.086Z</time>
      </trkpt>
      <trkpt lat="53.11202" lon="22.36791">
        <ele>101.478753</ele>
        <time>2020-10-07T15:57:03.006Z</time>
      </trkpt>
      <trkpt lat="53.11187" lon="22.36755">
        <ele>101.613279</ele>
        <time>2020-10-07T15:57:13.810Z</time>
      </trkpt>
      <trkpt lat="53.11146" lon="22.36543">
        <ele>102.306468</ele>
        <time>2020-10-07T15:58:06.453Z</time>
      </trkpt>
      <trkpt lat="53.11146" lon="22.36543">
        <ele>102.306468</ele>
        <time>2020-10-07T15:58:06.631Z</time>
      </trkpt>
      <trkpt lat="53.11118" lon="22.36567">
        <ele>102.431243</ele>
        <time>2020-10-07T15:58:18.256Z</time>
      </trkpt>
      <trkpt lat="53.11106" lon="22.36589">
        <ele>102.482457</ele>
        <time>2020-10-07T15:58:25.367Z</time>
      </trkpt>
      <trkpt lat="53.1105" lon="22.36789">
        <ele>102.859144</ele>
        <time>2020-10-07T15:59:15.190Z</time>
      </trkpt>
      <trkpt lat="53.11042" lon="22.368">
        <ele>102.890968</ele>
        <time>2020-10-07T15:59:19.371Z</time>
      </trkpt>
      <trkpt lat="53.1103" lon="22.36804">
        <ele>102.985264</ele>
        <time>2020-10-07T15:59:23.742Z</time>
      </trkpt>
      <trkpt lat="53.10928" lon="22.36828">
        <ele>103.958955</ele>
        <time>2020-10-07T16:00:04.890Z</time>
      </trkpt>
      <trkpt lat="53.10868" lon="22.36842">
        <ele>104.522304</ele>
        <time>2020-10-07T16:00:30.430Z</time>
      </trkpt>
      <trkpt lat="53.10852" lon="22.3685">
        <ele>104.819126</ele>
        <time>2020-10-07T16:00:38.171Z</time>
      </trkpt>
      <trkpt lat="53.10829" lon="22.36874">
        <ele>105.401351</ele>
        <time>2020-10-07T16:00:50.127Z</time>
      </trkpt>
      <trkpt lat="53.10735" lon="22.36946">
        <ele>107.665376</ele>
        <time>2020-10-07T16:01:39.001Z</time>
      </trkpt>
      <trkpt lat="53.10657" lon="22.37006">
        <ele>108.971008</ele>
        <time>2020-10-07T16:02:05.657Z</time>
      </trkpt>
      <trkpt lat="53.10612" lon="22.3704">
        <ele>109.435703</ele>
        <time>2020-10-07T16:02:18.444Z</time>
      </trkpt>
      <trkpt lat="53.106" lon="22.37044">
        <ele>109.555178</ele>
        <time>2020-10-07T16:02:21.812Z</time>
      </trkpt>
      <trkpt lat="53.10601" lon="22.36847">
        <ele>110.270972</ele>
        <time>2020-10-07T16:02:48.715Z</time>
      </trkpt>
      <trkpt lat="53.10604" lon="22.36817">
        <ele>110.289661</ele>
        <time>2020-10-07T16:02:52.312Z</time>
      </trkpt>
      <trkpt lat="53.10613" lon="22.36784">
        <ele>110.311572</ele>
        <time>2020-10-07T16:02:56.967Z</time>
      </trkpt>
      <trkpt lat="53.10617" lon="22.36767">
        <ele>110.322648</ele>
        <time>2020-10-07T16:02:58.992Z</time>
      </trkpt>
      <trkpt lat="53.10616" lon="22.36731">
        <ele>110.344705</ele>
        <time>2020-10-07T16:03:03.732Z</time>
      </trkpt>
      <trkpt lat="53.10607" lon="22.36707">
        <ele>110.362193</ele>
        <time>2020-10-07T16:03:07.119Z</time>
      </trkpt>
      <trkpt lat="53.10368" lon="22.36303">
        <ele>113.612455</ele>
        <time>2020-10-07T16:04:38.617Z</time>
      </trkpt>
      <trkpt lat="53.10328" lon="22.36157">
        <ele>114.409899</ele>
        <time>2020-10-07T16:05:04.068Z</time>
      </trkpt>
      <trkpt lat="53.10113" lon="22.35391">
        <ele>116.018663</ele>
        <time>2020-10-07T16:07:03.165Z</time>
      </trkpt>
      <trkpt lat="53.10105" lon="22.35345">
        <ele>115.732729</ele>
        <time>2020-10-07T16:07:09.290Z</time>
      </trkpt>
      <trkpt lat="53.10101" lon="22.35249">
        <ele>115.167711</ele>
        <time>2020-10-07T16:07:21.076Z</time>
      </trkpt>
      <trkpt lat="53.10145" lon="22.34456">
        <ele>109.966633</ele>
        <time>2020-10-07T16:08:51.526Z</time>
      </trkpt>
      <trkpt lat="53.10154" lon="22.34375">
        <ele>109.340267</ele>
        <time>2020-10-07T16:09:00.765Z</time>
      </trkpt>
      <trkpt lat="53.10149" lon="22.34348">
        <ele>109.123463</ele>
        <time>2020-10-07T16:09:03.882Z</time>
      </trkpt>
      <trkpt lat="53.10087" lon="22.34238">
        <ele>108.024835</ele>
        <time>2020-10-07T16:09:21.014Z</time>
      </trkpt>
      <trkpt lat="53.10084" lon="22.34226">
        <ele>107.980743</ele>
        <time>2020-10-07T16:09:22.489Z</time>
      </trkpt>
      <trkpt lat="53.1011" lon="22.34161">
        <ele>107.727166</ele>
        <time>2020-10-07T16:09:31.905Z</time>
      </trkpt>
      <trkpt lat="53.10114" lon="22.34117">
        <ele>107.5838</ele>
        <time>2020-10-07T16:09:37.302Z</time>
      </trkpt>
      <trkpt lat="53.10121" lon="22.34081">
        <ele>107.460526</ele>
        <time>2020-10-07T16:09:42.233Z</time>
      </trkpt>
      <trkpt lat="53.10159" lon="22.3403">
        <ele>107.198522</ele>
        <time>2020-10-07T16:09:52.376Z</time>
      </trkpt>
      <trkpt lat="53.10162" lon="22.34019">
        <ele>107.160151</ele>
        <time>2020-10-07T16:09:53.961Z</time>
      </trkpt>
      <trkpt lat="53.10094" lon="22.33875">
        <ele>107.016047</ele>
        <time>2020-10-07T16:10:18.762Z</time>
      </trkpt>
      <trkpt lat="53.10078" lon="22.33855">
        <ele>107.002098</ele>
        <time>2020-10-07T16:10:23.321Z</time>
      </trkpt>
      <trkpt lat="53.09738" lon="22.33594">
        <ele>106.462194</ele>
        <time>2020-10-07T16:11:43.509Z</time>
      </trkpt>
      <trkpt lat="53.09718" lon="22.33581">
        <ele>106.443398</ele>
        <time>2020-10-07T16:11:48.260Z</time>
      </trkpt>
      <trkpt lat="53.09447" lon="22.3259">
        <ele>107.67708</ele>
        <time>2020-10-07T16:14:37.575Z</time>
      </trkpt>
      <trkpt lat="53.09441" lon="22.32543">
        <ele>107.614049</ele>
        <time>2020-10-07T16:14:44.150Z</time>
      </trkpt>
      <trkpt lat="53.09445" lon="22.32492">
        <ele>107.547167</ele>
        <time>2020-10-07T16:14:51.021Z</time>
      </trkpt>
      <trkpt lat="53.09478" lon="22.32323">
        <ele>107.307157</ele>
        <time>2020-10-07T16:15:15.109Z</time>
      </trkpt>
      <trkpt lat="53.09481" lon="22.32278">
        <ele>107.246013</ele>
        <time>2020-10-07T16:15:21.327Z</time>
      </trkpt>
      <trkpt lat="53.09475" lon="22.32211">
        <ele>107.153763</ele>
        <time>2020-10-07T16:15:31.004Z</time>
      </trkpt>
      <trkpt lat="53.09428" lon="22.31974">
        <ele>108.16528</ele>
        <time>2020-10-07T16:16:12.521Z</time>
      </trkpt>
      <trkpt lat="53.09369" lon="22.31578">
        <ele>111.189375</ele>
        <time>2020-10-07T16:17:28.102Z</time>
      </trkpt>
      <trkpt lat="53.0933" lon="22.3131">
        <ele>111.72939</ele>
        <time>2020-10-07T16:18:10.707Z</time>
      </trkpt>
      <trkpt lat="53.09305" lon="22.31109">
        <ele>111.649896</ele>
        <time>2020-10-07T16:18:39.950Z</time>
      </trkpt>
      <trkpt lat="53.09182" lon="22.30132">
        <ele>110.671793</ele>
        <time>2020-10-07T16:21:07.156Z</time>
      </trkpt>
      <trkpt lat="53.09158" lon="22.29911">
        <ele>108.433565</ele>
        <time>2020-10-07T16:21:34.223Z</time>
      </trkpt>
      <trkpt lat="53.0913" lon="22.2966">
        <ele>105.933906</ele>
        <time>2020-10-07T16:22:04.439Z</time>
      </trkpt>
      <trkpt lat="53.09122" lon="22.29612">
        <ele>105.475767</ele>
        <time>2020-10-07T16:22:10.798Z</time>
      </trkpt>
      <trkpt lat="53.09099" lon="22.29537">
        <ele>104.72136</ele>
        <time>2020-10-07T16:22:21.574Z</time>
      </trkpt>
      <trkpt lat="53.08819" lon="22.28871">
        <ele>105.362913</ele>
        <time>2020-10-07T16:24:22.725Z</time>
      </trkpt>
      <trkpt lat="53.08681" lon="22.285">
        <ele>109.191955</ele>
        <time>2020-10-07T16:25:51.880Z</time>
      </trkpt>
      <trkpt lat="53.0895" lon="22.28181">
        <ele>104.527171</ele>
        <time>2020-10-07T16:26:50.652Z</time>
      </trkpt>
      <trkpt lat="53.08966" lon="22.28164">
        <ele>104.378434</ele>
        <time>2020-10-07T16:26:54.121Z</time>
      </trkpt>
      <trkpt lat="53.08976" lon="22.28158">
        <ele>104.341766</ele>
        <time>2020-10-07T16:26:56.147Z</time>
      </trkpt>
      <trkpt lat="53.0899" lon="22.28154">
        <ele>104.291907</ele>
        <time>2020-10-07T16:26:58.882Z</time>
      </trkpt>
      <trkpt lat="53.08991" lon="22.28142">
        <ele>104.267656</ele>
        <time>2020-10-07T16:27:00.293Z</time>
      </trkpt>
      <trkpt lat="53.08924" lon="22.2753">
        <ele>104.464978</ele>
        <time>2020-10-07T16:28:25.160Z</time>
      </trkpt>
      <trkpt lat="53.0888" lon="22.27261">
        <ele>106.458341</ele>
        <time>2020-10-07T16:29:09.823Z</time>
      </trkpt>
      <trkpt lat="53.08774" lon="22.27122">
        <ele>109.352864</ele>
        <time>2020-10-07T16:29:54.439Z</time>
      </trkpt>
      <trkpt lat="53.08702" lon="22.27222">
        <ele>110.170532</ele>
        <time>2020-10-07T16:30:23.382Z</time>
      </trkpt>
      <trkpt lat="53.08506" lon="22.26915">
        <ele>109.419076</ele>
        <time>2020-10-07T16:31:17.300Z</time>
      </trkpt>
      <trkpt lat="53.08456" lon="22.26835">
        <ele>108.49296</ele>
        <time>2020-10-07T16:31:30.027Z</time>
      </trkpt>
      <trkpt lat="53.08065" lon="22.26206">
        <ele>101.19915</ele>
        <time>2020-10-07T16:33:11.091Z</time>
      </trkpt>
      <trkpt lat="53.0804" lon="22.26167">
        <ele>100.769246</ele>
        <time>2020-10-07T16:33:17.480Z</time>
      </trkpt>
      <trkpt lat="53.07995" lon="22.26104">
        <ele>100.029464</ele>
        <time>2020-10-07T16:33:28.679Z</time>
      </trkpt>
      <trkpt lat="53.07995" lon="22.26079">
        <ele>99.887074</ele>
        <time>2020-10-07T16:33:31.607Z</time>
      </trkpt>
      <trkpt lat="53.07985" lon="22.25883">
        <ele>99.186148</ele>
        <time>2020-10-07T16:33:55.250Z</time>
      </trkpt>
      <trkpt lat="53.07987" lon="22.25759">
        <ele>98.831061</ele>
        <time>2020-10-07T16:34:11.556Z</time>
      </trkpt>
      <trkpt lat="53.07992" lon="22.25705">
        <ele>98.781914</ele>
        <time>2020-10-07T16:34:18.853Z</time>
      </trkpt>
      <trkpt lat="53.08056" lon="22.25307">
        <ele>98.510483</ele>
        <time>2020-10-07T16:35:12.568Z</time>
      </trkpt>
      <trkpt lat="53.0811" lon="22.25152">
        <ele>98.582304</ele>
        <time>2020-10-07T16:35:36.817Z</time>
      </trkpt>
      <trkpt lat="53.08113" lon="22.25138">
        <ele>98.604767</ele>
        <time>2020-10-07T16:35:39.053Z</time>
      </trkpt>
      <trkpt lat="53.0812" lon="22.25095">
        <ele>98.669218</ele>
        <time>2020-10-07T16:35:45.136Z</time>
      </trkpt>
      <trkpt lat="53.08124" lon="22.25068">
        <ele>98.709057</ele>
        <time>2020-10-07T16:35:49.006Z</time>
      </trkpt>
      <trkpt lat="53.08125" lon="22.24948">
        <ele>98.881523</ele>
        <time>2020-10-07T16:36:05.778Z</time>
      </trkpt>
      <trkpt lat="53.08168" lon="22.24666">
        <ele>99.970437</ele>
        <time>2020-10-07T16:36:48.787Z</time>
      </trkpt>
      <trkpt lat="53.08204" lon="22.24449">
        <ele>101.518175</ele>
        <time>2020-10-07T16:37:25.572Z</time>
      </trkpt>
      <trkpt lat="53.08209" lon="22.24326">
        <ele>102.329065</ele>
        <time>2020-10-07T16:37:46.453Z</time>
      </trkpt>
      <trkpt lat="53.08221" lon="22.24191">
        <ele>102.946301</ele>
        <time>2020-10-07T16:38:08.120Z</time>
      </trkpt>
      <trkpt lat="53.08222" lon="22.24179">
        <ele>103.00443</ele>
        <time>2020-10-07T16:38:10.407Z</time>
      </trkpt>
      <trkpt lat="53.0823" lon="22.24172">
        <ele>103.069057</ele>
        <time>2020-10-07T16:38:13.670Z</time>
      </trkpt>
      <trkpt lat="53.08781" lon="22.23404">
        <ele>103.915503</ele>
        <time>2020-10-07T16:42:39.941Z</time>
      </trkpt>
      <trkpt lat="53.08848" lon="22.23235">
        <ele>105.024515</ele>
        <time>2020-10-07T16:43:30.893Z</time>
      </trkpt>
      <trkpt lat="53.08881" lon="22.23131">
        <ele>106.076621</ele>
        <time>2020-10-07T16:44:01.966Z</time>
      </trkpt>
      <trkpt lat="53.08918" lon="22.23015">
        <ele>107.184466</ele>
        <time>2020-10-07T16:44:36.552Z</time>
      </trkpt>
      <trkpt lat="53.09017" lon="22.22653">
        <ele>109.868491</ele>
        <time>2020-10-07T16:46:15.839Z</time>
      </trkpt>
      <trkpt lat="53.09207" lon="22.22158">
        <ele>112.883781</ele>
        <time>2020-10-07T16:48:38.194Z</time>
      </trkpt>
      <trkpt lat="53.09233" lon="22.22104">
        <ele>113.26168</ele>
        <time>2020-10-07T16:48:49.982Z</time>
      </trkpt>
      <trkpt lat="53.09248" lon="22.22069">
        <ele>113.492999</ele>
        <time>2020-10-07T16:48:57.216Z</time>
      </trkpt>
      <trkpt lat="53.09277" lon="22.21985">
        <ele>114.084544</ele>
        <time>2020-10-07T16:49:13.995Z</time>
      </trkpt>
      <trkpt lat="53.09402" lon="22.21701">
        <ele>116.171352</ele>
        <time>2020-10-07T16:50:17.131Z</time>
      </trkpt>
      <trkpt lat="53.09467" lon="22.21441">
        <ele>115.980963</ele>
        <time>2020-10-07T16:50:59.395Z</time>
      </trkpt>
      <trkpt lat="53.09534" lon="22.21233">
        <ele>113.748836</ele>
        <time>2020-10-07T16:51:27.642Z</time>
      </trkpt>
      <trkpt lat="53.09547" lon="22.21203">
        <ele>113.116295</ele>
        <time>2020-10-07T16:51:31.895Z</time>
      </trkpt>
      <trkpt lat="53.0966" lon="22.21019">
        <ele>108.779053</ele>
        <time>2020-10-07T16:52:01.315Z</time>
      </trkpt>
      <trkpt lat="53.09688" lon="22.20963">
        <ele>107.935869</ele>
        <time>2020-10-07T16:52:09.779Z</time>
      </trkpt>
      <trkpt lat="53.09726" lon="22.20885">
        <ele>106.773249</ele>
        <time>2020-10-07T16:52:20.413Z</time>
      </trkpt>
      <trkpt lat="53.09771" lon="22.20828">
        <ele>105.683828</ele>
        <time>2020-10-07T16:52:30.690Z</time>
      </trkpt>
      <trkpt lat="53.09881" lon="22.20713">
        <ele>104.81731</ele>
        <time>2020-10-07T16:52:57.063Z</time>
      </trkpt>
      <trkpt lat="53.10012" lon="22.20578">
        <ele>104.252048</ele>
        <time>2020-10-07T16:53:30.220Z</time>
      </trkpt>
      <trkpt lat="53.10238" lon="22.2037">
        <ele>103.562177</ele>
        <time>2020-10-07T16:54:24.937Z</time>
      </trkpt>
      <trkpt lat="53.10248" lon="22.20356">
        <ele>103.525849</ele>
        <time>2020-10-07T16:54:27.842Z</time>
      </trkpt>
      <trkpt lat="53.10257" lon="22.20338">
        <ele>103.484266</ele>
        <time>2020-10-07T16:54:30.980Z</time>
      </trkpt>
      <trkpt lat="53.10297" lon="22.20242">
        <ele>103.285825</ele>
        <time>2020-10-07T16:54:46.069Z</time>
      </trkpt>
      <trkpt lat="53.10309" lon="22.20222">
        <ele>103.237442</ele>
        <time>2020-10-07T16:54:49.814Z</time>
      </trkpt>
      <trkpt lat="53.10336" lon="22.20192">
        <ele>103.143088</ele>
        <time>2020-10-07T16:54:56.900Z</time>
      </trkpt>
      <trkpt lat="53.10367" lon="22.2023">
        <ele>103.03387</ele>
        <time>2020-10-07T16:55:04.994Z</time>
      </trkpt>
      <trkpt lat="53.1045" lon="22.20355">
        <ele>102.275645</ele>
        <time>2020-10-07T16:55:27.523Z</time>
      </trkpt>
      <trkpt lat="53.10479" lon="22.20388">
        <ele>102.035558</ele>
        <time>2020-10-07T16:55:34.130Z</time>
      </trkpt>
      <trkpt lat="53.10521" lon="22.20433">
        <ele>101.745732</ele>
        <time>2020-10-07T16:55:44.229Z</time>
      </trkpt>
      <trkpt lat="53.10544" lon="22.20443">
        <ele>101.697691</ele>
        <time>2020-10-07T16:55:49.012Z</time>
      </trkpt>
      <trkpt lat="53.10556" lon="22.20441">
        <ele>101.673349</ele>
        <time>2020-10-07T16:55:51.606Z</time>
      </trkpt>
      <trkpt lat="53.10568" lon="22.20431">
        <ele>101.647437</ele>
        <time>2020-10-07T16:55:54.120Z</time>
      </trkpt>
      <trkpt lat="53.10594" lon="22.20393">
        <ele>101.576799</ele>
        <time>2020-10-07T16:56:01.611Z</time>
      </trkpt>
      <trkpt lat="53.10686" lon="22.20294">
        <ele>101.553518</ele>
        <time>2020-10-07T16:56:26.500Z</time>
      </trkpt>
      <trkpt lat="53.1091" lon="22.20141">
        <ele>102.970277</ele>
        <time>2020-10-07T16:57:26.708Z</time>
      </trkpt>
      <trkpt lat="53.10982" lon="22.20104">
        <ele>103.444403</ele>
        <time>2020-10-07T16:57:45.408Z</time>
      </trkpt>
      <trkpt lat="53.11017" lon="22.20067">
        <ele>103.611155</ele>
        <time>2020-10-07T16:57:55.768Z</time>
      </trkpt>
      <trkpt lat="53.11065" lon="22.19994">
        <ele>103.764051</ele>
        <time>2020-10-07T16:58:11.300Z</time>
      </trkpt>
      <trkpt lat="53.11107" lon="22.1995">
        <ele>103.879543</ele>
        <time>2020-10-07T16:58:22.647Z</time>
      </trkpt>
      <trkpt lat="53.11222" lon="22.19852">
        <ele>103.687671</ele>
        <time>2020-10-07T16:58:50.577Z</time>
      </trkpt>
      <trkpt lat="53.11336" lon="22.19753">
        <ele>103.482321</ele>
        <time>2020-10-07T16:59:17.083Z</time>
      </trkpt>
      <trkpt lat="53.11409" lon="22.19687">
        <ele>103.680202</ele>
        <time>2020-10-07T16:59:34.893Z</time>
      </trkpt>
      <trkpt lat="53.11633" lon="22.19529">
        <ele>106.422393</ele>
        <time>2020-10-07T17:00:41.895Z</time>
      </trkpt>
      <trkpt lat="53.11651" lon="22.19511">
        <ele>106.731636</ele>
        <time>2020-10-07T17:00:48.375Z</time>
      </trkpt>
      <trkpt lat="53.11667" lon="22.1949">
        <ele>107.033449</ele>
        <time>2020-10-07T17:00:54.820Z</time>
      </trkpt>
      <trkpt lat="53.11681" lon="22.19469">
        <ele>107.323662</ele>
        <time>2020-10-07T17:01:00.687Z</time>
      </trkpt>
      <trkpt lat="53.11704" lon="22.19418">
        <ele>107.901905</ele>
        <time>2020-10-07T17:01:12.577Z</time>
      </trkpt>
      <trkpt lat="53.11722" lon="22.19347">
        <ele>108.599487</ele>
        <time>2020-10-07T17:01:26.763Z</time>
      </trkpt>
      <trkpt lat="53.1181" lon="22.18852">
        <ele>107.408642</ele>
        <time>2020-10-07T17:02:32.744Z</time>
      </trkpt>
      <trkpt lat="53.11823" lon="22.18805">
        <ele>106.975223</ele>
        <time>2020-10-07T17:02:37.906Z</time>
      </trkpt>
      <trkpt lat="53.11844" lon="22.18752">
        <ele>106.436919</ele>
        <time>2020-10-07T17:02:44.314Z</time>
      </trkpt>
      <trkpt lat="53.11906" lon="22.1865">
        <ele>104.883405</ele>
        <time>2020-10-07T17:02:58.846Z</time>
      </trkpt>
      <trkpt lat="53.11925" lon="22.18624">
        <ele>104.424126</ele>
        <time>2020-10-07T17:03:03.133Z</time>
      </trkpt>
      <trkpt lat="53.11956" lon="22.1858">
        <ele>103.662202</ele>
        <time>2020-10-07T17:03:10.446Z</time>
      </trkpt>
      <trkpt lat="53.11967" lon="22.18562">
        <ele>103.383289</ele>
        <time>2020-10-07T17:03:13.178Z</time>
      </trkpt>
      <trkpt lat="53.11978" lon="22.18541">
        <ele>103.069975</ele>
        <time>2020-10-07T17:03:16.532Z</time>
      </trkpt>
      <trkpt lat="53.12098" lon="22.18255">
        <ele>104.208919</ele>
        <time>2020-10-07T17:04:09.416Z</time>
      </trkpt>
      <trkpt lat="53.1224" lon="22.17816">
        <ele>107.949304</ele>
        <time>2020-10-07T17:05:32.926Z</time>
      </trkpt>
      <trkpt lat="53.12398" lon="22.17479">
        <ele>109.476283</ele>
        <time>2020-10-07T17:06:37.253Z</time>
      </trkpt>
      <trkpt lat="53.12473" lon="22.17387">
        <ele>109.091564</ele>
        <time>2020-10-07T17:06:56.159Z</time>
      </trkpt>
      <trkpt lat="53.12495" lon="22.17349">
        <ele>108.962904</ele>
        <time>2020-10-07T17:07:02.196Z</time>
      </trkpt>
      <trkpt lat="53.12679" lon="22.16869">
        <ele>105.528241</ele>
        <time>2020-10-07T17:08:08.008Z</time>
      </trkpt>
      <trkpt lat="53.12764" lon="22.1672">
        <ele>104.414631</ele>
        <time>2020-10-07T17:08:31.901Z</time>
      </trkpt>
      <trkpt lat="53.12782" lon="22.16678">
        <ele>104.150298</ele>
        <time>2020-10-07T17:08:37.942Z</time>
      </trkpt>
      <trkpt lat="53.12867" lon="22.16385">
        <ele>103.428901</ele>
        <time>2020-10-07T17:09:17.662Z</time>
      </trkpt>
      <trkpt lat="53.12887" lon="22.16352">
        <ele>103.384897</ele>
        <time>2020-10-07T17:09:24.692Z</time>
      </trkpt>
      <trkpt lat="53.12902" lon="22.16335">
        <ele>103.397389</ele>
        <time>2020-10-07T17:09:29.413Z</time>
      </trkpt>
      <trkpt lat="53.12934" lon="22.16301">
        <ele>104.126609</ele>
        <time>2020-10-07T17:09:39.679Z</time>
      </trkpt>
      <trkpt lat="53.12985" lon="22.16231">
        <ele>105.396111</ele>
        <time>2020-10-07T17:09:59.210Z</time>
      </trkpt>
      <trkpt lat="53.13" lon="22.16208">
        <ele>105.804965</ele>
        <time>2020-10-07T17:10:05.857Z</time>
      </trkpt>
      <trkpt lat="53.13051" lon="22.16099">
        <ele>107.649163</ele>
        <time>2020-10-07T17:10:33.403Z</time>
      </trkpt>
      <trkpt lat="53.13143" lon="22.15942">
        <ele>111.366353</ele>
        <time>2020-10-07T17:11:18.893Z</time>
      </trkpt>
      <trkpt lat="53.13149" lon="22.15922">
        <ele>111.749557</ele>
        <time>2020-10-07T17:11:23.159Z</time>
      </trkpt>
      <trkpt lat="53.13163" lon="22.15868">
        <ele>112.137314</ele>
        <time>2020-10-07T17:11:34.108Z</time>
      </trkpt>
      <trkpt lat="53.13171" lon="22.15845">
        <ele>112.263642</ele>
        <time>2020-10-07T17:11:39.209Z</time>
      </trkpt>
      <trkpt lat="53.13182" lon="22.15823">
        <ele>112.39928</ele>
        <time>2020-10-07T17:11:43.936Z</time>
      </trkpt>
      <trkpt lat="53.13195" lon="22.15805">
        <ele>112.532394</ele>
        <time>2020-10-07T17:11:49.145Z</time>
      </trkpt>
      <trkpt lat="53.13304" lon="22.15553">
        <ele>111.781252</ele>
        <time>2020-10-07T17:12:28.148Z</time>
      </trkpt>
      <trkpt lat="53.13393" lon="22.15447">
        <ele>109.786904</ele>
        <time>2020-10-07T17:12:46.178Z</time>
      </trkpt>
      <trkpt lat="53.13413" lon="22.15428">
        <ele>109.333899</ele>
        <time>2020-10-07T17:12:49.859Z</time>
      </trkpt>
      <trkpt lat="53.13439" lon="22.15418">
        <ele>108.805624</ele>
        <time>2020-10-07T17:12:54.326Z</time>
      </trkpt>
      <trkpt lat="53.13463" lon="22.15403">
        <ele>108.302292</ele>
        <time>2020-10-07T17:12:58.706Z</time>
      </trkpt>
      <trkpt lat="53.13603" lon="22.15254">
        <ele>106.214565</ele>
        <time>2020-10-07T17:13:30.605Z</time>
      </trkpt>
      <trkpt lat="53.13638" lon="22.15201">
        <ele>106.01354</ele>
        <time>2020-10-07T17:13:41.720Z</time>
      </trkpt>
      <trkpt lat="53.13746" lon="22.15001">
        <ele>105.709492</ele>
        <time>2020-10-07T17:14:16.890Z</time>
      </trkpt>
      <trkpt lat="53.13757" lon="22.14984">
        <ele>105.699772</ele>
        <time>2020-10-07T17:14:20.061Z</time>
      </trkpt>
      <trkpt lat="53.13784" lon="22.14958">
        <ele>105.680449</ele>
        <time>2020-10-07T17:14:26.660Z</time>
      </trkpt>
      <trkpt lat="53.13804" lon="22.14934">
        <ele>105.664657</ele>
        <time>2020-10-07T17:14:32.315Z</time>
      </trkpt>
      <trkpt lat="53.1388" lon="22.1481">
        <ele>106.564585</ele>
        <time>2020-10-07T17:14:58.193Z</time>
      </trkpt>
      <trkpt lat="53.13932" lon="22.14751">
        <ele>107.114708</ele>
        <time>2020-10-07T17:15:16.349Z</time>
      </trkpt>
      <trkpt lat="53.13964" lon="22.14705">
        <ele>107.365977</ele>
        <time>2020-10-07T17:15:28.707Z</time>
      </trkpt>
      <trkpt lat="53.14013" lon="22.14571">
        <ele>107.792183</ele>
        <time>2020-10-07T17:15:52.010Z</time>
      </trkpt>
      <trkpt lat="53.14023" lon="22.14554">
        <ele>107.856487</ele>
        <time>2020-10-07T17:15:55.969Z</time>
      </trkpt>
      <trkpt lat="53.14036" lon="22.14537">
        <ele>107.931935</ele>
        <time>2020-10-07T17:15:59.109Z</time>
      </trkpt>
      <trkpt lat="53.1415" lon="22.14388">
        <ele>106.67304</ele>
        <time>2020-10-07T17:16:27.019Z</time>
      </trkpt>
      <trkpt lat="53.14273" lon="22.14241">
        <ele>104.926942</ele>
        <time>2020-10-07T17:16:54.865Z</time>
      </trkpt>
      <trkpt lat="53.14398" lon="22.14026">
        <ele>103.633966</ele>
        <time>2020-10-07T17:17:30.377Z</time>
      </trkpt>
      <trkpt lat="53.14427" lon="22.13976">
        <ele>103.509783</ele>
        <time>2020-10-07T17:17:39.591Z</time>
      </trkpt>
      <trkpt lat="53.14432" lon="22.13982">
        <ele>103.492269</ele>
        <time>2020-10-07T17:17:40.727Z</time>
      </trkpt>
      <trkpt lat="53.14467" lon="22.1393">
        <ele>103.393675</ele>
        <time>2020-10-07T17:17:51.774Z</time>
      </trkpt>
      <trkpt lat="53.14523" lon="22.13827">
        <ele>103.863249</ele>
        <time>2020-10-07T17:18:12.457Z</time>
      </trkpt>
      <trkpt lat="53.14595" lon="22.13604">
        <ele>104.178163</ele>
        <time>2020-10-07T17:18:50.331Z</time>
      </trkpt>
      <trkpt lat="53.14616" lon="22.13558">
        <ele>104.063319</ele>
        <time>2020-10-07T17:18:57.752Z</time>
      </trkpt>
      <trkpt lat="53.14851" lon="22.13234">
        <ele>101.747987</ele>
        <time>2020-10-07T17:19:56.134Z</time>
      </trkpt>
      <trkpt lat="53.14954" lon="22.13073">
        <ele>101.242083</ele>
        <time>2020-10-07T17:20:26.633Z</time>
      </trkpt>
      <trkpt lat="53.15072" lon="22.12928">
        <ele>101.605075</ele>
        <time>2020-10-07T17:21:01.699Z</time>
      </trkpt>
      <trkpt lat="53.15202" lon="22.12705">
        <ele>101.597926</ele>
        <time>2020-10-07T17:21:43.651Z</time>
      </trkpt>
      <trkpt lat="53.1537" lon="22.12446">
        <ele>100.664581</ele>
        <time>2020-10-07T17:22:30.337Z</time>
      </trkpt>
      <trkpt lat="53.15499" lon="22.12196">
        <ele>100.57998</ele>
        <time>2020-10-07T17:23:13.865Z</time>
      </trkpt>
      <trkpt lat="53.15559" lon="22.12094">
        <ele>100.858405</ele>
        <time>2020-10-07T17:23:34.288Z</time>
      </trkpt>
      <trkpt lat="53.15703" lon="22.11867">
        <ele>102.032828</ele>
        <time>2020-10-07T17:24:23.043Z</time>
      </trkpt>
      <trkpt lat="53.15847" lon="22.11652">
        <ele>103.881465</ele>
        <time>2020-10-07T17:25:14.022Z</time>
      </trkpt>
      <trkpt lat="53.1585" lon="22.11632">
        <ele>104.005841</ele>
        <time>2020-10-07T17:25:17.413Z</time>
      </trkpt>
      <trkpt lat="53.15875" lon="22.11585">
        <ele>104.490414</ele>
        <time>2020-10-07T17:25:27.517Z</time>
      </trkpt>
      <trkpt lat="53.15884" lon="22.11567">
        <ele>104.685907</ele>
        <time>2020-10-07T17:25:31.269Z</time>
      </trkpt>
      <trkpt lat="53.1589" lon="22.11553">
        <ele>104.828801</ele>
        <time>2020-10-07T17:25:34.255Z</time>
      </trkpt>
      <trkpt lat="53.15935" lon="22.11467">
        <ele>105.759375</ele>
        <time>2020-10-07T17:25:52.912Z</time>
      </trkpt>
      <trkpt lat="53.15962" lon="22.11426">
        <ele>106.256383</ele>
        <time>2020-10-07T17:26:03.228Z</time>
      </trkpt>
      <trkpt lat="53.15996" lon="22.11366">
        <ele>106.990206</ele>
        <time>2020-10-07T17:26:17.552Z</time>
      </trkpt>
      <trkpt lat="53.16039" lon="22.11283">
        <ele>108.022316</ele>
        <time>2020-10-07T17:26:37.021Z</time>
      </trkpt>
      <trkpt lat="53.16114" lon="22.11141">
        <ele>109.265973</ele>
        <time>2020-10-07T17:27:17.436Z</time>
      </trkpt>
      <trkpt lat="53.16139" lon="22.11095">
        <ele>109.134683</ele>
        <time>2020-10-07T17:27:28.763Z</time>
      </trkpt>
      <trkpt lat="53.16164" lon="22.11051">
        <ele>109.003591</ele>
        <time>2020-10-07T17:27:39.271Z</time>
      </trkpt>
      <trkpt lat="53.16194" lon="22.11002">
        <ele>108.853042</ele>
        <time>2020-10-07T17:27:50.272Z</time>
      </trkpt>
      <trkpt lat="53.16322" lon="22.10794">
        <ele>106.275299</ele>
        <time>2020-10-07T17:28:33.039Z</time>
      </trkpt>
      <trkpt lat="53.16421" lon="22.10643">
        <ele>105.004094</ele>
        <time>2020-10-07T17:28:59.644Z</time>
      </trkpt>
      <trkpt lat="53.16453" lon="22.1059">
        <ele>104.715149</ele>
        <time>2020-10-07T17:29:08.963Z</time>
      </trkpt>
      <trkpt lat="53.16479" lon="22.10556">
        <ele>104.502972</ele>
        <time>2020-10-07T17:29:15.972Z</time>
      </trkpt>
      <trkpt lat="53.16521" lon="22.10539">
        <ele>104.336182</ele>
        <time>2020-10-07T17:29:25.483Z</time>
      </trkpt>
      <trkpt lat="53.16542" lon="22.10535">
        <ele>104.265173</ele>
        <time>2020-10-07T17:29:30.337Z</time>
      </trkpt>
      <trkpt lat="53.16547" lon="22.10535">
        <ele>104.249468</ele>
        <time>2020-10-07T17:29:31.100Z</time>
      </trkpt>
      <trkpt lat="53.16595" lon="22.10516">
        <ele>104.08308</ele>
        <time>2020-10-07T17:29:41.663Z</time>
      </trkpt>
      <trkpt lat="53.16635" lon="22.10483">
        <ele>103.930973</ele>
        <time>2020-10-07T17:29:50.754Z</time>
      </trkpt>
      <trkpt lat="53.16793" lon="22.10283">
        <ele>103.45841</ele>
        <time>2020-10-07T17:30:32.486Z</time>
      </trkpt>
      <trkpt lat="53.16921" lon="22.10047">
        <ele>104.53133</ele>
        <time>2020-10-07T17:31:20.584Z</time>
      </trkpt>
      <trkpt lat="53.16984" lon="22.09907">
        <ele>105.028423</ele>
        <time>2020-10-07T17:31:46.061Z</time>
      </trkpt>
      <trkpt lat="53.16988" lon="22.09901">
        <ele>105.054025</ele>
        <time>2020-10-07T17:31:47.781Z</time>
      </trkpt>
      <trkpt lat="53.16995" lon="22.09891">
        <ele>105.098583</ele>
        <time>2020-10-07T17:31:49.782Z</time>
      </trkpt>
      <trkpt lat="53.1701" lon="22.09877">
        <ele>105.17772</ele>
        <time>2020-10-07T17:31:53.710Z</time>
      </trkpt>
      <trkpt lat="53.17031" lon="22.09863">
        <ele>105.287752</ele>
        <time>2020-10-07T17:31:59.272Z</time>
      </trkpt>
      <trkpt lat="53.1705" lon="22.09851">
        <ele>105.351094</ele>
        <time>2020-10-07T17:32:03.801Z</time>
      </trkpt>
      <trkpt lat="53.17065" lon="22.09839">
        <ele>105.360916</ele>
        <time>2020-10-07T17:32:07.640Z</time>
      </trkpt>
      <trkpt lat="53.17083" lon="22.09817">
        <ele>105.37411</ele>
        <time>2020-10-07T17:32:13.006Z</time>
      </trkpt>
      <trkpt lat="53.17096" lon="22.09801">
        <ele>105.38362</ele>
        <time>2020-10-07T17:32:16.459Z</time>
      </trkpt>
      <trkpt lat="53.17251" lon="22.09615">
        <ele>106.267337</ele>
        <time>2020-10-07T17:32:58.769Z</time>
      </trkpt>
      <trkpt lat="53.1726" lon="22.09604">
        <ele>106.391284</ele>
        <time>2020-10-07T17:33:01.812Z</time>
      </trkpt>
      <trkpt lat="53.17292" lon="22.09563">
        <ele>106.848356</ele>
        <time>2020-10-07T17:33:12.956Z</time>
      </trkpt>
      <trkpt lat="53.17307" lon="22.09545">
        <ele>107.049927</ele>
        <time>2020-10-07T17:33:18.695Z</time>
      </trkpt>
      <trkpt lat="53.17327" lon="22.09516">
        <ele>107.350617</ele>
        <time>2020-10-07T17:33:27.009Z</time>
      </trkpt>
      <trkpt lat="53.17356" lon="22.09456">
        <ele>108.520842</ele>
        <time>2020-10-07T17:33:42.230Z</time>
      </trkpt>
      <trkpt lat="53.17362" lon="22.09444">
        <ele>108.782717</ele>
        <time>2020-10-07T17:33:45.144Z</time>
      </trkpt>
      <trkpt lat="53.17367" lon="22.09435">
        <ele>109.004599</ele>
        <time>2020-10-07T17:33:47.216Z</time>
      </trkpt>
      <trkpt lat="53.17369" lon="22.09431">
        <ele>109.115442</ele>
        <time>2020-10-07T17:33:48.439Z</time>
      </trkpt>
      <trkpt lat="53.17375" lon="22.09424">
        <ele>109.307322</ele>
        <time>2020-10-07T17:33:50.597Z</time>
      </trkpt>
      <trkpt lat="53.17375" lon="22.09415">
        <ele>109.465773</ele>
        <time>2020-10-07T17:33:52.840Z</time>
      </trkpt>
      <trkpt lat="53.17389" lon="22.09395">
        <ele>110.016042</ele>
        <time>2020-10-07T17:34:00.777Z</time>
      </trkpt>
      <trkpt lat="53.17391" lon="22.09387">
        <ele>110.171739</ele>
        <time>2020-10-07T17:34:02.970Z</time>
      </trkpt>
      <trkpt lat="53.17392" lon="22.09382">
        <ele>110.270706</ele>
        <time>2020-10-07T17:34:04.407Z</time>
      </trkpt>
      <trkpt lat="53.174" lon="22.09327">
        <ele>111.264225</ele>
        <time>2020-10-07T17:34:19.108Z</time>
      </trkpt>
      <trkpt lat="53.17406" lon="22.09291">
        <ele>111.915083</ele>
        <time>2020-10-07T17:34:28.700Z</time>
      </trkpt>
      <trkpt lat="53.17415" lon="22.0925">
        <ele>112.698905</ele>
        <time>2020-10-07T17:34:39.632Z</time>
      </trkpt>
      <trkpt lat="53.17418" lon="22.09239">
        <ele>112.859304</ele>
        <time>2020-10-07T17:34:43.008Z</time>
      </trkpt>
      <trkpt lat="53.17426" lon="22.09238">
        <ele>113.015747</ele>
        <time>2020-10-07T17:34:46.297Z</time>
      </trkpt>
      <trkpt lat="53.17434" lon="22.09244">
        <ele>113.206126</ele>
        <time>2020-10-07T17:34:49.364Z</time>
      </trkpt>
      <trkpt lat="53.17442" lon="22.0925">
        <ele>113.393264</ele>
        <time>2020-10-07T17:34:52.353Z</time>
      </trkpt>
      <trkpt lat="53.17452" lon="22.09226">
        <ele>113.770972</ele>
        <time>2020-10-07T17:34:58.499Z</time>
      </trkpt>
      <trkpt lat="53.17494" lon="22.09119">
        <ele>115.381587</ele>
        <time>2020-10-07T17:35:22.988Z</time>
      </trkpt>
      <trkpt lat="53.17534" lon="22.08964">
        <ele>116.676253</ele>
        <time>2020-10-07T17:35:48.854Z</time>
      </trkpt>
      <trkpt lat="53.17538" lon="22.0895">
        <ele>116.705428</ele>
        <time>2020-10-07T17:35:50.925Z</time>
      </trkpt>
      <trkpt lat="53.17543" lon="22.08938">
        <ele>116.733008</ele>
        <time>2020-10-07T17:35:52.806Z</time>
      </trkpt>
      <trkpt lat="53.17591" lon="22.08819">
        <ele>117.006875</ele>
        <time>2020-10-07T17:36:11.620Z</time>
      </trkpt>
      <trkpt lat="53.17594" lon="22.08822">
        <ele>117.019105</ele>
        <time>2020-10-07T17:36:12.687Z</time>
      </trkpt>
      <trkpt lat="53.17631" lon="22.08864">
        <ele>117.509682</ele>
        <time>2020-10-07T17:36:26.310Z</time>
      </trkpt>
      <trkpt lat="53.17635" lon="22.08868">
        <ele>117.596478</ele>
        <time>2020-10-07T17:36:27.479Z</time>
      </trkpt>
      <trkpt lat="53.1764" lon="22.0886">
        <ele>117.732825</ele>
        <time>2020-10-07T17:36:29.360Z</time>
      </trkpt>
      <trkpt lat="53.17675" lon="22.08817">
        <ele>118.647449</ele>
        <time>2020-10-07T17:36:40.749Z</time>
      </trkpt>
      <trkpt lat="53.1768" lon="22.08806">
        <ele>118.818412</ele>
        <time>2020-10-07T17:36:43.240Z</time>
      </trkpt>
      <trkpt lat="53.17715" lon="22.08721">
        <ele>120.11523</ele>
        <time>2020-10-07T17:37:02.693Z</time>
      </trkpt>
      <trkpt lat="53.17719" lon="22.08711">
        <ele>120.257157</ele>
        <time>2020-10-07T17:37:05.079Z</time>
      </trkpt>
      <trkpt lat="53.17724" lon="22.08699">
        <ele>120.449638</ele>
        <time>2020-10-07T17:37:08.355Z</time>
      </trkpt>
      <trkpt lat="53.17775" lon="22.08574">
        <ele>124.16292</ele>
        <time>2020-10-07T17:37:45.963Z</time>
      </trkpt>
      <trkpt lat="53.1778" lon="22.08564">
        <ele>124.54374</ele>
        <time>2020-10-07T17:37:49.267Z</time>
      </trkpt>
      <trkpt lat="53.1785" lon="22.08463">
        <ele>128.879222</ele>
        <time>2020-10-07T17:38:29.384Z</time>
      </trkpt>
      <trkpt lat="53.17892" lon="22.08401">
        <ele>130.402261</ele>
        <time>2020-10-07T17:38:51.199Z</time>
      </trkpt>
      <trkpt lat="53.179" lon="22.08385">
        <ele>130.696439</ele>
        <time>2020-10-07T17:38:55.627Z</time>
      </trkpt>
      <trkpt lat="53.17916" lon="22.08339">
        <ele>131.438794</ele>
        <time>2020-10-07T17:39:05.832Z</time>
      </trkpt>
      <trkpt lat="53.17935" lon="22.08285">
        <ele>132.343177</ele>
        <time>2020-10-07T17:39:16.945Z</time>
      </trkpt>
      <trkpt lat="53.17939" lon="22.08274">
        <ele>132.51869</ele>
        <time>2020-10-07T17:39:19.019Z</time>
      </trkpt>
      <trkpt lat="53.17938" lon="22.0827">
        <ele>132.584196</ele>
        <time>2020-10-07T17:39:19.837Z</time>
      </trkpt>
      <trkpt lat="53.17938" lon="22.08263">
        <ele>132.682357</ele>
        <time>2020-10-07T17:39:20.926Z</time>
      </trkpt>
      <trkpt lat="53.17938" lon="22.08255">
        <ele>132.790351</ele>
        <time>2020-10-07T17:39:22.078Z</time>
      </trkpt>
      <trkpt lat="53.17941" lon="22.08253">
        <ele>132.848399</ele>
        <time>2020-10-07T17:39:22.559Z</time>
      </trkpt>
      <trkpt lat="53.17974" lon="22.08165">
        <ele>132.998255</ele>
        <time>2020-10-07T17:39:38.247Z</time>
      </trkpt>
      <trkpt lat="53.17978" lon="22.08158">
        <ele>132.910994</ele>
        <time>2020-10-07T17:39:39.373Z</time>
      </trkpt>
      <trkpt lat="53.17978" lon="22.08158">
        <ele>132.910994</ele>
        <time>2020-10-07T17:39:39.391Z</time>
      </trkpt>
      <trkpt lat="53.17978" lon="22.08158">
        <ele>132.910994</ele>
        <time>2020-10-07T17:39:39.393Z</time>
      </trkpt>
      <trkpt lat="53.17984" lon="22.08146">
        <ele>132.762943</ele>
        <time>2020-10-07T17:39:41.320Z</time>
      </trkpt>
      <trkpt lat="53.17988" lon="22.08137">
        <ele>132.653999</ele>
        <time>2020-10-07T17:39:42.798Z</time>
      </trkpt>
      <trkpt lat="53.18001" lon="22.081">
        <ele>132.247373</ele>
        <time>2020-10-07T17:39:47.810Z</time>
      </trkpt>
      <trkpt lat="53.18011" lon="22.0807">
        <ele>131.918473</ele>
        <time>2020-10-07T17:39:51.628Z</time>
      </trkpt>
      <trkpt lat="53.18017" lon="22.08056">
        <ele>131.758114</ele>
        <time>2020-10-07T17:39:53.405Z</time>
      </trkpt>
      <trkpt lat="53.18031" lon="22.08014">
        <ele>131.299887</ele>
        <time>2020-10-07T17:39:58.397Z</time>
      </trkpt>
      <trkpt lat="53.18043" lon="22.07978">
        <ele>130.902861</ele>
        <time>2020-10-07T17:40:02.761Z</time>
      </trkpt>
      <trkpt lat="53.18056" lon="22.07939">
        <ele>130.290309</ele>
        <time>2020-10-07T17:40:07.316Z</time>
      </trkpt>
      <trkpt lat="53.1807" lon="22.07902">
        <ele>129.443596</ele>
        <time>2020-10-07T17:40:11.868Z</time>
      </trkpt>
      <trkpt lat="53.18077" lon="22.07882">
        <ele>128.99836</ele>
        <time>2020-10-07T17:40:14.322Z</time>
      </trkpt>
      <trkpt lat="53.18078" lon="22.07877">
        <ele>128.891964</ele>
        <time>2020-10-07T17:40:14.895Z</time>
      </trkpt>
      <trkpt lat="53.18079" lon="22.07871">
        <ele>128.775176</ele>
        <time>2020-10-07T17:40:15.549Z</time>
      </trkpt>
      <trkpt lat="53.1808" lon="22.07858">
        <ele>128.529166</ele>
        <time>2020-10-07T17:40:16.831Z</time>
      </trkpt>
      <trkpt lat="53.18088" lon="22.07771">
        <ele>126.845135</ele>
        <time>2020-10-07T17:40:26.030Z</time>
      </trkpt>
      <trkpt lat="53.18088" lon="22.07767">
        <ele>126.755902</ele>
        <time>2020-10-07T17:40:26.507Z</time>
      </trkpt>
      <trkpt lat="53.18092" lon="22.07756">
        <ele>126.512171</ele>
        <time>2020-10-07T17:40:27.805Z</time>
      </trkpt>
      <trkpt lat="53.18095" lon="22.07747">
        <ele>126.329624</ele>
        <time>2020-10-07T17:40:28.750Z</time>
      </trkpt>
      <trkpt lat="53.18099" lon="22.07735">
        <ele>126.051159</ele>
        <time>2020-10-07T17:40:30.175Z</time>
      </trkpt>
      <trkpt lat="53.18103" lon="22.07731">
        <ele>125.90888</ele>
        <time>2020-10-07T17:40:30.904Z</time>
      </trkpt>
      <trkpt lat="53.18106" lon="22.07723">
        <ele>125.723986</ele>
        <time>2020-10-07T17:40:31.871Z</time>
      </trkpt>
      <trkpt lat="53.18115" lon="22.07714">
        <ele>125.40585</ele>
        <time>2020-10-07T17:40:33.532Z</time>
      </trkpt>
      <trkpt lat="53.18119" lon="22.07708">
        <ele>125.217391</ele>
        <time>2020-10-07T17:40:34.500Z</time>
      </trkpt>
      <trkpt lat="53.18133" lon="22.07673">
        <ele>124.216012</ele>
        <time>2020-10-07T17:40:38.687Z</time>
      </trkpt>
      <trkpt lat="53.18139" lon="22.07661">
        <ele>123.794185</ele>
        <time>2020-10-07T17:40:40.220Z</time>
      </trkpt>
      <trkpt lat="53.18159" lon="22.07614">
        <ele>122.243022</ele>
        <time>2020-10-07T17:40:45.881Z</time>
      </trkpt>
      <trkpt lat="53.18179" lon="22.07568">
        <ele>120.736544</ele>
        <time>2020-10-07T17:40:51.365Z</time>
      </trkpt>
      <trkpt lat="53.18182" lon="22.07562">
        <ele>120.526541</ele>
        <time>2020-10-07T17:40:52.124Z</time>
      </trkpt>
      <trkpt lat="53.18187" lon="22.07555">
        <ele>120.248006</ele>
        <time>2020-10-07T17:40:53.142Z</time>
      </trkpt>
      <trkpt lat="53.18191" lon="22.0755">
        <ele>120.003984</ele>
        <time>2020-10-07T17:40:54.023Z</time>
      </trkpt>
      <trkpt lat="53.18203" lon="22.07536">
        <ele>119.358887</ele>
        <time>2020-10-07T17:40:56.315Z</time>
      </trkpt>
      <trkpt lat="53.18261" lon="22.0747">
        <ele>116.18679</ele>
        <time>2020-10-07T17:41:07.554Z</time>
      </trkpt>
      <trkpt lat="53.1833" lon="22.07391">
        <ele>112.372446</ele>
        <time>2020-10-07T17:41:20.892Z</time>
      </trkpt>
      <trkpt lat="53.1834" lon="22.07379">
        <ele>111.815085</ele>
        <time>2020-10-07T17:41:22.853Z</time>
      </trkpt>
      <trkpt lat="53.18395" lon="22.07317">
        <ele>108.796113</ele>
        <time>2020-10-07T17:41:33.518Z</time>
      </trkpt>
      <trkpt lat="53.18407" lon="22.07303">
        <ele>108.262466</ele>
        <time>2020-10-07T17:41:35.984Z</time>
      </trkpt>
      <trkpt lat="53.18413" lon="22.07296">
        <ele>108.010509</ele>
        <time>2020-10-07T17:41:37.216Z</time>
      </trkpt>
      <trkpt lat="53.18441" lon="22.07317">
        <ele>106.991041</ele>
        <time>2020-10-07T17:41:42.321Z</time>
      </trkpt>
      <trkpt lat="53.18481" lon="22.07347">
        <ele>105.54166</ele>
        <time>2020-10-07T17:41:49.710Z</time>
      </trkpt>
      <trkpt lat="53.18488" lon="22.07353">
        <ele>105.283817</ele>
        <time>2020-10-07T17:41:51.017Z</time>
      </trkpt>
      <trkpt lat="53.18495" lon="22.07338">
        <ele>104.904479</ele>
        <time>2020-10-07T17:41:52.883Z</time>
      </trkpt>
      <trkpt lat="53.18492" lon="22.07334">
        <ele>104.7708</ele>
        <time>2020-10-07T17:41:55.684Z</time>
      </trkpt>
      <trkpt lat="53.18505" lon="22.07305">
        <ele>104.029351</ele>
        <time>2020-10-07T17:42:02.164Z</time>
      </trkpt>
      <trkpt lat="53.1852" lon="22.07281">
        <ele>103.34936</ele>
        <time>2020-10-07T17:42:08.273Z</time>
      </trkpt>
      <trkpt lat="53.18587" lon="22.07238">
        <ele>101.807198</ele>
        <time>2020-10-07T17:42:30.223Z</time>
      </trkpt>
      <trkpt lat="53.18645" lon="22.07171">
        <ele>100.669834</ele>
        <time>2020-10-07T17:42:52.461Z</time>
      </trkpt>
      <trkpt lat="53.18647" lon="22.07177">
        <ele>100.605242</ele>
        <time>2020-10-07T17:42:55.227Z</time>
      </trkpt>
      <trkpt lat="53.18651" lon="22.07186">
        <ele>100.497702</ele>
        <time>2020-10-07T17:42:59.801Z</time>
      </trkpt>
      <trkpt lat="53.1881" lon="22.06998">
        <ele>99.336701</ele>
        <time>2020-10-07T17:44:09.782Z</time>
      </trkpt>
      <trkpt lat="53.19764" lon="22.05882">
        <ele>100.820459</ele>
        <time>2020-10-07T17:51:25.268Z</time>
      </trkpt>
      <trkpt lat="53.1979" lon="22.05849">
        <ele>101.363777</ele>
        <time>2020-10-07T17:51:40.131Z</time>
      </trkpt>
      <trkpt lat="53.19785" lon="22.05841">
        <ele>101.468993</ele>
        <time>2020-10-07T17:51:42.980Z</time>
      </trkpt>
      <trkpt lat="53.1979" lon="22.05837">
        <ele>101.557094</ele>
        <time>2020-10-07T17:51:44.615Z</time>
      </trkpt>
      <trkpt lat="53.19808" lon="22.05816">
        <ele>101.928062</ele>
        <time>2020-10-07T17:51:51.726Z</time>
      </trkpt>
      <trkpt lat="53.1984" lon="22.05781">
        <ele>102.561672</ele>
        <time>2020-10-07T17:52:03.940Z</time>
      </trkpt>
      <trkpt lat="53.19853" lon="22.05774">
        <ele>102.795428</ele>
        <time>2020-10-07T17:52:08.466Z</time>
      </trkpt>
      <trkpt lat="53.19877" lon="22.05765">
        <ele>103.276563</ele>
        <time>2020-10-07T17:52:16.402Z</time>
      </trkpt>
      <trkpt lat="53.19932" lon="22.05744">
        <ele>104.501588</ele>
        <time>2020-10-07T17:52:35.059Z</time>
      </trkpt>
      <trkpt lat="53.19966" lon="22.05714">
        <ele>105.340604</ele>
        <time>2020-10-07T17:52:47.656Z</time>
      </trkpt>
      <trkpt lat="53.20064" lon="22.05601">
        <ele>107.38656</ele>
        <time>2020-10-07T17:53:21.486Z</time>
      </trkpt>
      <trkpt lat="53.2009" lon="22.05578">
        <ele>107.701546</ele>
        <time>2020-10-07T17:53:29.167Z</time>
      </trkpt>
      <trkpt lat="53.20165" lon="22.05533">
        <ele>108.544591</ele>
        <time>2020-10-07T17:53:49.570Z</time>
      </trkpt>
      <trkpt lat="53.20254" lon="22.05434">
        <ele>109.334787</ele>
        <time>2020-10-07T17:54:16.716Z</time>
      </trkpt>
      <trkpt lat="53.20304" lon="22.05368">
        <ele>109.751911</ele>
        <time>2020-10-07T17:54:32.546Z</time>
      </trkpt>
      <trkpt lat="53.20377" lon="22.0524">
        <ele>110.049574</ele>
        <time>2020-10-07T17:54:57.549Z</time>
      </trkpt>
      <trkpt lat="53.20477" lon="22.05089">
        <ele>110.131193</ele>
        <time>2020-10-07T17:55:27.653Z</time>
      </trkpt>
      <trkpt lat="53.20497" lon="22.05059">
        <ele>110.081835</ele>
        <time>2020-10-07T17:55:33.502Z</time>
      </trkpt>
      <trkpt lat="53.20513" lon="22.05038">
        <ele>110.044602</ele>
        <time>2020-10-07T17:55:37.838Z</time>
      </trkpt>
      <trkpt lat="53.20597" lon="22.04944">
        <ele>109.85841</ele>
        <time>2020-10-07T17:55:59.466Z</time>
      </trkpt>
      <trkpt lat="53.20666" lon="22.04877">
        <ele>109.567742</ele>
        <time>2020-10-07T17:56:16.197Z</time>
      </trkpt>
      <trkpt lat="53.20738" lon="22.04784">
        <ele>109.235753</ele>
        <time>2020-10-07T17:56:35.056Z</time>
      </trkpt>
      <trkpt lat="53.2085" lon="22.04561">
        <ele>108.753246</ele>
        <time>2020-10-07T17:57:12.217Z</time>
      </trkpt>
      <trkpt lat="53.20877" lon="22.0449">
        <ele>108.61657</ele>
        <time>2020-10-07T17:57:23.214Z</time>
      </trkpt>
      <trkpt lat="53.20884" lon="22.04458">
        <ele>108.560609</ele>
        <time>2020-10-07T17:57:27.671Z</time>
      </trkpt>
      <trkpt lat="53.20912" lon="22.04255">
        <ele>108.219741</ele>
        <time>2020-10-07T17:57:54.353Z</time>
      </trkpt>
      <trkpt lat="53.20934" lon="22.04148">
        <ele>107.822644</ele>
        <time>2020-10-07T17:58:07.967Z</time>
      </trkpt>
      <trkpt lat="53.20948" lon="22.04047">
        <ele>107.458121</ele>
        <time>2020-10-07T17:58:20.525Z</time>
      </trkpt>
      <trkpt lat="53.20963" lon="22.03985">
        <ele>107.218268</ele>
        <time>2020-10-07T17:58:28.759Z</time>
      </trkpt>
      <trkpt lat="53.20968" lon="22.03972">
        <ele>107.16621</ele>
        <time>2020-10-07T17:58:30.381Z</time>
      </trkpt>
      <trkpt lat="53.20973" lon="22.03958">
        <ele>107.114261</ele>
        <time>2020-10-07T17:58:32.555Z</time>
      </trkpt>
      <trkpt lat="53.20991" lon="22.03923">
        <ele>106.975757</ele>
        <time>2020-10-07T17:58:37.975Z</time>
      </trkpt>
      <trkpt lat="53.21044" lon="22.03873">
        <ele>106.663342</ele>
        <time>2020-10-07T17:58:50.766Z</time>
      </trkpt>
      <trkpt lat="53.21069" lon="22.0384">
        <ele>106.500177</ele>
        <time>2020-10-07T17:58:57.435Z</time>
      </trkpt>
      <trkpt lat="53.21291" lon="22.03493">
        <ele>104.565741</ele>
        <time>2020-10-07T17:59:59.918Z</time>
      </trkpt>
      <trkpt lat="53.21426" lon="22.03273">
        <ele>102.515528</ele>
        <time>2020-10-07T18:00:34.732Z</time>
      </trkpt>
      <trkpt lat="53.21447" lon="22.0323">
        <ele>102.144739</ele>
        <time>2020-10-07T18:00:41.226Z</time>
      </trkpt>
      <trkpt lat="53.21452" lon="22.0322">
        <ele>102.058159</ele>
        <time>2020-10-07T18:00:42.577Z</time>
      </trkpt>
      <trkpt lat="53.21463" lon="22.03197">
        <ele>101.868872</ele>
        <time>2020-10-07T18:00:46.278Z</time>
      </trkpt>
      <trkpt lat="53.2149" lon="22.03121">
        <ele>101.398285</ele>
        <time>2020-10-07T18:00:56.707Z</time>
      </trkpt>
      <trkpt lat="53.2159" lon="22.02754">
        <ele>101.095597</ele>
        <time>2020-10-07T18:01:49.181Z</time>
      </trkpt>
      <trkpt lat="53.21621" lon="22.02631">
        <ele>101.270441</ele>
        <time>2020-10-07T18:02:07.484Z</time>
      </trkpt>
      <trkpt lat="53.21688" lon="22.02537">
        <ele>102.336092</ele>
        <time>2020-10-07T18:02:31.262Z</time>
      </trkpt>
      <trkpt lat="53.21878" lon="22.02284">
        <ele>106.2366</ele>
        <time>2020-10-07T18:03:47.521Z</time>
      </trkpt>
      <trkpt lat="53.22059" lon="22.02011">
        <ele>108.232199</ele>
        <time>2020-10-07T18:04:50.444Z</time>
      </trkpt>
      <trkpt lat="53.22096" lon="22.01947">
        <ele>108.312716</ele>
        <time>2020-10-07T18:05:03.000Z</time>
      </trkpt>
      <trkpt lat="53.22136" lon="22.01862">
        <ele>108.410346</ele>
        <time>2020-10-07T18:05:18.018Z</time>
      </trkpt>
      <trkpt lat="53.22136" lon="22.01861">
        <ele>108.411053</ele>
        <time>2020-10-07T18:05:18.252Z</time>
      </trkpt>
      <trkpt lat="53.22214" lon="22.01694">
        <ele>108.637383</ele>
        <time>2020-10-07T18:05:48.413Z</time>
      </trkpt>
      <trkpt lat="53.22251" lon="22.01627">
        <ele>108.743861</ele>
        <time>2020-10-07T18:06:01.638Z</time>
      </trkpt>
      <trkpt lat="53.22299" lon="22.01561">
        <ele>108.804527</ele>
        <time>2020-10-07T18:06:16.552Z</time>
      </trkpt>
      <trkpt lat="53.22327" lon="22.01534">
        <ele>108.711152</ele>
        <time>2020-10-07T18:06:24.043Z</time>
      </trkpt>
      <trkpt lat="53.22357" lon="22.01524">
        <ele>108.620235</ele>
        <time>2020-10-07T18:06:31.246Z</time>
      </trkpt>
      <trkpt lat="53.22385" lon="22.01527">
        <ele>108.540162</ele>
        <time>2020-10-07T18:06:37.479Z</time>
      </trkpt>
      <trkpt lat="53.22536" lon="22.01608">
        <ele>107.275298</ele>
        <time>2020-10-07T18:07:10.944Z</time>
      </trkpt>
      <trkpt lat="53.22562" lon="22.01613">
        <ele>106.950453</ele>
        <time>2020-10-07T18:07:15.864Z</time>
      </trkpt>
      <trkpt lat="53.22601" lon="22.01581">
        <ele>106.39938</ele>
        <time>2020-10-07T18:07:24.079Z</time>
      </trkpt>
      <trkpt lat="53.22643" lon="22.01515">
        <ele>105.547152</ele>
        <time>2020-10-07T18:07:34.881Z</time>
      </trkpt>
      <trkpt lat="53.22674" lon="22.01441">
        <ele>104.639751</ele>
        <time>2020-10-07T18:07:44.858Z</time>
      </trkpt>
      <trkpt lat="53.22831" lon="22.00981">
        <ele>100.518463</ele>
        <time>2020-10-07T18:09:28.704Z</time>
      </trkpt>
      <trkpt lat="53.22954" lon="22.00175">
        <ele>100.576923</ele>
        <time>2020-10-07T18:11:20.661Z</time>
      </trkpt>
      <trkpt lat="53.22986" lon="21.99965">
        <ele>103.478749</ele>
        <time>2020-10-07T18:12:00.659Z</time>
      </trkpt>
      <trkpt lat="53.23013" lon="21.99782">
        <ele>106.571034</ele>
        <time>2020-10-07T18:12:40.542Z</time>
      </trkpt>
      <trkpt lat="53.23033" lon="21.9968">
        <ele>108.614543</ele>
        <time>2020-10-07T18:13:03.586Z</time>
      </trkpt>
      <trkpt lat="53.23062" lon="21.99619">
        <ele>110.079186</ele>
        <time>2020-10-07T18:13:19.879Z</time>
      </trkpt>
      <trkpt lat="53.2312" lon="21.99446">
        <ele>113.052282</ele>
        <time>2020-10-07T18:13:59.699Z</time>
      </trkpt>
      <trkpt lat="53.23132" lon="21.9939">
        <ele>113.908796</ele>
        <time>2020-10-07T18:14:10.384Z</time>
      </trkpt>
      <trkpt lat="53.23134" lon="21.99377">
        <ele>114.117676</ele>
        <time>2020-10-07T18:14:12.945Z</time>
      </trkpt>
      <trkpt lat="53.23137" lon="21.99352">
        <ele>114.484699</ele>
        <time>2020-10-07T18:14:17.403Z</time>
      </trkpt>
      <trkpt lat="53.23145" lon="21.99257">
        <ele>115.21879</ele>
        <time>2020-10-07T18:14:33.863Z</time>
      </trkpt>
      <trkpt lat="53.23211" lon="21.98987">
        <ele>116.747498</ele>
        <time>2020-10-07T18:15:18.571Z</time>
      </trkpt>
      <trkpt lat="53.23293" lon="21.98619">
        <ele>117.013646</ele>
        <time>2020-10-07T18:16:11.978Z</time>
      </trkpt>
      <trkpt lat="53.23318" lon="21.98539">
        <ele>116.925364</ele>
        <time>2020-10-07T18:16:23.385Z</time>
      </trkpt>
      <trkpt lat="53.23413" lon="21.98382">
        <ele>115.941853</ele>
        <time>2020-10-07T18:16:50.283Z</time>
      </trkpt>
      <trkpt lat="53.23471" lon="21.98227">
        <ele>114.815115</ele>
        <time>2020-10-07T18:17:10.959Z</time>
      </trkpt>
      <trkpt lat="53.23483" lon="21.98192">
        <ele>114.499202</ele>
        <time>2020-10-07T18:17:15.447Z</time>
      </trkpt>
      <trkpt lat="53.23497" lon="21.98152">
        <ele>114.138655</ele>
        <time>2020-10-07T18:17:20.516Z</time>
      </trkpt>
      <trkpt lat="53.23513" lon="21.98068">
        <ele>113.436567</ele>
        <time>2020-10-07T18:17:30.474Z</time>
      </trkpt>
      <trkpt lat="53.2352" lon="21.97993">
        <ele>112.854717</ele>
        <time>2020-10-07T18:17:38.838Z</time>
      </trkpt>
      <trkpt lat="53.23529" lon="21.97739">
        <ele>111.222638</ele>
        <time>2020-10-07T18:18:07.911Z</time>
      </trkpt>
      <trkpt lat="53.23533" lon="21.97694">
        <ele>110.960676</ele>
        <time>2020-10-07T18:18:13.374Z</time>
      </trkpt>
      <trkpt lat="53.23543" lon="21.9765">
        <ele>110.820785</ele>
        <time>2020-10-07T18:18:19.102Z</time>
      </trkpt>
      <trkpt lat="53.23551" lon="21.97623">
        <ele>110.734</ele>
        <time>2020-10-07T18:18:22.579Z</time>
      </trkpt>
      <trkpt lat="53.23561" lon="21.97585">
        <ele>110.612014</ele>
        <time>2020-10-07T18:18:27.708Z</time>
      </trkpt>
      <trkpt lat="53.23581" lon="21.97497">
        <ele>110.333725</ele>
        <time>2020-10-07T18:18:39.441Z</time>
      </trkpt>
      <trkpt lat="53.23598" lon="21.97273">
        <ele>109.961172</ele>
        <time>2020-10-07T18:19:08.543Z</time>
      </trkpt>
      <trkpt lat="53.23601" lon="21.97243">
        <ele>109.931686</ele>
        <time>2020-10-07T18:19:12.584Z</time>
      </trkpt>
      <trkpt lat="53.23611" lon="21.97089">
        <ele>109.803697</ele>
        <time>2020-10-07T18:19:32.993Z</time>
      </trkpt>
      <trkpt lat="53.23618" lon="21.96982">
        <ele>109.77076</ele>
        <time>2020-10-07T18:19:47.110Z</time>
      </trkpt>
      <trkpt lat="53.23629" lon="21.96913">
        <ele>109.749177</ele>
        <time>2020-10-07T18:19:56.380Z</time>
      </trkpt>
      <trkpt lat="53.23633" lon="21.96886">
        <ele>109.74065</ele>
        <time>2020-10-07T18:20:00.171Z</time>
      </trkpt>
      <trkpt lat="53.23638" lon="21.96853">
        <ele>109.73016</ele>
        <time>2020-10-07T18:20:04.624Z</time>
      </trkpt>
      <trkpt lat="53.23738" lon="21.96397">
        <ele>109.895201</ele>
        <time>2020-10-07T18:21:10.635Z</time>
      </trkpt>
      <trkpt lat="53.23761" lon="21.96123">
        <ele>109.68115</ele>
        <time>2020-10-07T18:21:47.787Z</time>
      </trkpt>
      <trkpt lat="53.23837" lon="21.95524">
        <ele>107.22718</ele>
        <time>2020-10-07T18:23:01.645Z</time>
      </trkpt>
      <trkpt lat="53.23851" lon="21.953">
        <ele>105.849198</ele>
        <time>2020-10-07T18:23:26.548Z</time>
      </trkpt>
      <trkpt lat="53.2386" lon="21.95261">
        <ele>105.626544</ele>
        <time>2020-10-07T18:23:31.173Z</time>
      </trkpt>
      <trkpt lat="53.23865" lon="21.9523">
        <ele>105.45822</ele>
        <time>2020-10-07T18:23:37.380Z</time>
      </trkpt>
      <trkpt lat="53.23906" lon="21.94212">
        <ele>100.255615</ele>
        <time>2020-10-07T18:27:08.351Z</time>
      </trkpt>
      <trkpt lat="53.23919" lon="21.93937">
        <ele>99.215882</ele>
        <time>2020-10-07T18:28:05.900Z</time>
      </trkpt>
      <trkpt lat="53.2393" lon="21.93676">
        <ele>98.512771</ele>
        <time>2020-10-07T18:29:00.945Z</time>
      </trkpt>
      <trkpt lat="53.23934" lon="21.93588">
        <ele>98.3029</ele>
        <time>2020-10-07T18:29:20.198Z</time>
      </trkpt>
      <trkpt lat="53.2394" lon="21.93407">
        <ele>99.13616</ele>
        <time>2020-10-07T18:30:01.300Z</time>
      </trkpt>
      <trkpt lat="53.23953" lon="21.93145">
        <ele>101.105663</ele>
        <time>2020-10-07T18:31:11.562Z</time>
      </trkpt>
      <trkpt lat="53.23957" lon="21.93081">
        <ele>101.738715</ele>
        <time>2020-10-07T18:31:24.028Z</time>
      </trkpt>
      <trkpt lat="53.23977" lon="21.92754">
        <ele>102.708849</ele>
        <time>2020-10-07T18:32:15.563Z</time>
      </trkpt>
      <trkpt lat="53.23978" lon="21.92742">
        <ele>102.704615</ele>
        <time>2020-10-07T18:32:16.597Z</time>
      </trkpt>
      <trkpt lat="53.2394" lon="21.92421">
        <ele>99.476625</ele>
        <time>2020-10-07T18:32:50.183Z</time>
      </trkpt>
      <trkpt lat="53.23938" lon="21.92356">
        <ele>98.971185</ele>
        <time>2020-10-07T18:32:57.239Z</time>
      </trkpt>
      <trkpt lat="53.23982" lon="21.91509">
        <ele>99.050227</ele>
        <time>2020-10-07T18:34:51.519Z</time>
      </trkpt>
      <trkpt lat="53.24024" lon="21.91085">
        <ele>102.430145</ele>
        <time>2020-10-07T18:36:05.870Z</time>
      </trkpt>
      <trkpt lat="53.24058" lon="21.9093">
        <ele>103.482076</ele>
        <time>2020-10-07T18:36:31.661Z</time>
      </trkpt>
      <trkpt lat="53.24058" lon="21.90904">
        <ele>103.6459</ele>
        <time>2020-10-07T18:36:35.426Z</time>
      </trkpt>
      <trkpt lat="53.24044" lon="21.90863">
        <ele>103.731344</ele>
        <time>2020-10-07T18:36:42.104Z</time>
      </trkpt>
      <trkpt lat="53.23981" lon="21.90728">
        <ele>103.921419</ele>
        <time>2020-10-07T18:37:05.306Z</time>
      </trkpt>
      <trkpt lat="53.23699" lon="21.90078">
        <ele>104.119605</ele>
        <time>2020-10-07T18:38:53.061Z</time>
      </trkpt>
      <trkpt lat="53.23573" lon="21.89669">
        <ele>103.990969</ele>
        <time>2020-10-07T18:39:52.978Z</time>
      </trkpt>
      <trkpt lat="53.23469" lon="21.8936">
        <ele>105.210496</ele>
        <time>2020-10-07T18:40:44.610Z</time>
      </trkpt>
      <trkpt lat="53.23237" lon="21.887">
        <ele>113.25013</ele>
        <time>2020-10-07T18:42:55.622Z</time>
      </trkpt>
      <trkpt lat="53.2323" lon="21.88685">
        <ele>113.535157</ele>
        <time>2020-10-07T18:43:00.076Z</time>
      </trkpt>
      <trkpt lat="53.23214" lon="21.8867">
        <ele>114.020089</ele>
        <time>2020-10-07T18:43:06.963Z</time>
      </trkpt>
      <trkpt lat="53.23105" lon="21.88675">
        <ele>118.25733</ele>
        <time>2020-10-07T18:43:50.119Z</time>
      </trkpt>
      <trkpt lat="53.23087" lon="21.88678">
        <ele>119.118137</ele>
        <time>2020-10-07T18:43:58.675Z</time>
      </trkpt>
      <trkpt lat="53.23063" lon="21.88694">
        <ele>120.296392</ele>
        <time>2020-10-07T18:44:09.547Z</time>
      </trkpt>
      <trkpt lat="53.23027" lon="21.88709">
        <ele>121.99306</ele>
        <time>2020-10-07T18:44:24.998Z</time>
      </trkpt>
      <trkpt lat="53.23013" lon="21.88708">
        <ele>122.649522</ele>
        <time>2020-10-07T18:44:30.820Z</time>
      </trkpt>
      <trkpt lat="53.22963" lon="21.88686">
        <ele>124.130456</ele>
        <time>2020-10-07T18:44:50.722Z</time>
      </trkpt>
      <trkpt lat="53.22937" lon="21.88655">
        <ele>124.881876</ele>
        <time>2020-10-07T18:45:02.514Z</time>
      </trkpt>
      <trkpt lat="53.22918" lon="21.88617">
        <ele>125.592897</ele>
        <time>2020-10-07T18:45:11.662Z</time>
      </trkpt>
      <trkpt lat="53.22864" lon="21.88481">
        <ele>127.427319</ele>
        <time>2020-10-07T18:45:37.632Z</time>
      </trkpt>
      <trkpt lat="53.22829" lon="21.88396">
        <ele>127.325916</ele>
        <time>2020-10-07T18:45:51.270Z</time>
      </trkpt>
      <trkpt lat="53.22816" lon="21.88369">
        <ele>127.292523</ele>
        <time>2020-10-07T18:45:55.578Z</time>
      </trkpt>
      <trkpt lat="53.228" lon="21.88342">
        <ele>127.254879</ele>
        <time>2020-10-07T18:46:00.213Z</time>
      </trkpt>
      <trkpt lat="53.22732" lon="21.88254">
        <ele>127.019546</ele>
        <time>2020-10-07T18:46:17.359Z</time>
      </trkpt>
      <trkpt lat="53.22699" lon="21.88208">
        <ele>126.815711</ele>
        <time>2020-10-07T18:46:25.972Z</time>
      </trkpt>
      <trkpt lat="53.22685" lon="21.88184">
        <ele>126.716094</ele>
        <time>2020-10-07T18:46:30.168Z</time>
      </trkpt>
      <trkpt lat="53.22654" lon="21.88133">
        <ele>126.508215</ele>
        <time>2020-10-07T18:46:39.386Z</time>
      </trkpt>
      <trkpt lat="53.22634" lon="21.88099">
        <ele>126.372871</ele>
        <time>2020-10-07T18:46:45.448Z</time>
      </trkpt>
      <trkpt lat="53.226" lon="21.88044">
        <ele>126.284627</ele>
        <time>2020-10-07T18:46:55.686Z</time>
      </trkpt>
      <trkpt lat="53.22595" lon="21.88031">
        <ele>126.279133</ele>
        <time>2020-10-07T18:46:57.743Z</time>
      </trkpt>
      <trkpt lat="53.22592" lon="21.88016">
        <ele>126.273731</ele>
        <time>2020-10-07T18:46:59.742Z</time>
      </trkpt>
      <trkpt lat="53.22587" lon="21.87985">
        <ele>126.2625</ele>
        <time>2020-10-07T18:47:03.995Z</time>
      </trkpt>
      <trkpt lat="53.22579" lon="21.87922">
        <ele>126.240188</ele>
        <time>2020-10-07T18:47:12.628Z</time>
      </trkpt>
      <trkpt lat="53.22573" lon="21.87891">
        <ele>126.22877</ele>
        <time>2020-10-07T18:47:17.083Z</time>
      </trkpt>
      <trkpt lat="53.22556" lon="21.87842">
        <ele>126.208861</ele>
        <time>2020-10-07T18:47:24.779Z</time>
      </trkpt>
      <trkpt lat="53.22546" lon="21.87827">
        <ele>126.20135</ele>
        <time>2020-10-07T18:47:27.649Z</time>
      </trkpt>
      <trkpt lat="53.22488" lon="21.87784">
        <ele>126.09963</ele>
        <time>2020-10-07T18:47:41.634Z</time>
      </trkpt>
      <trkpt lat="53.2247" lon="21.8777">
        <ele>126.066174</ele>
        <time>2020-10-07T18:47:45.934Z</time>
      </trkpt>
      <trkpt lat="53.22352" lon="21.87684">
        <ele>125.805699</ele>
        <time>2020-10-07T18:48:13.309Z</time>
      </trkpt>
      <trkpt lat="53.22313" lon="21.87657">
        <ele>125.666996</ele>
        <time>2020-10-07T18:48:22.380Z</time>
      </trkpt>
      <trkpt lat="53.22295" lon="21.8764">
        <ele>125.600666</ele>
        <time>2020-10-07T18:48:26.697Z</time>
      </trkpt>
      <trkpt lat="53.22288" lon="21.87634">
        <ele>125.574395</ele>
        <time>2020-10-07T18:48:28.409Z</time>
      </trkpt>
      <trkpt lat="53.22284" lon="21.87629">
        <ele>125.557334</ele>
        <time>2020-10-07T18:48:29.498Z</time>
      </trkpt>
      <trkpt lat="53.22283" lon="21.87624">
        <ele>125.547609</ele>
        <time>2020-10-07T18:48:30.121Z</time>
      </trkpt>
      <trkpt lat="53.22282" lon="21.87619">
        <ele>125.537919</ele>
        <time>2020-10-07T18:48:30.745Z</time>
      </trkpt>
      <trkpt lat="53.22281" lon="21.87615">
        <ele>125.52813</ele>
        <time>2020-10-07T18:48:31.370Z</time>
      </trkpt>
      <trkpt lat="53.22278" lon="21.87612">
        <ele>125.517719</ele>
        <time>2020-10-07T18:48:32.053Z</time>
      </trkpt>
      <trkpt lat="53.22272" lon="21.87608">
        <ele>125.497501</ele>
        <time>2020-10-07T18:48:33.361Z</time>
      </trkpt>
      <trkpt lat="53.22269" lon="21.87608">
        <ele>125.487042</ele>
        <time>2020-10-07T18:48:34.026Z</time>
      </trkpt>
      <trkpt lat="53.22267" lon="21.87609">
        <ele>125.478686</ele>
        <time>2020-10-07T18:48:34.565Z</time>
      </trkpt>
      <trkpt lat="53.22264" lon="21.87611">
        <ele>125.470089</ele>
        <time>2020-10-07T18:48:35.111Z</time>
      </trkpt>
      <trkpt lat="53.22258" lon="21.87612">
        <ele>125.450061</ele>
        <time>2020-10-07T18:48:36.412Z</time>
      </trkpt>
      <trkpt lat="53.2225" lon="21.87609">
        <ele>125.423214</ele>
        <time>2020-10-07T18:48:38.101Z</time>
      </trkpt>
      <trkpt lat="53.22223" lon="21.87597">
        <ele>125.33097</ele>
        <time>2020-10-07T18:48:43.997Z</time>
      </trkpt>
      <trkpt lat="53.22205" lon="21.87585">
        <ele>125.242235</ele>
        <time>2020-10-07T18:48:48.001Z</time>
      </trkpt>
      <trkpt lat="53.22081" lon="21.87502">
        <ele>124.542344</ele>
        <time>2020-10-07T18:49:15.465Z</time>
      </trkpt>
      <trkpt lat="53.22154" lon="21.87143">
        <ele>123.053022</ele>
        <time>2020-10-07T18:50:01.237Z</time>
      </trkpt>
      <trkpt lat="53.22163" lon="21.87092">
        <ele>122.740542</ele>
        <time>2020-10-07T18:50:07.673Z</time>
      </trkpt>
      <trkpt lat="53.22164" lon="21.87066">
        <ele>122.590528</ele>
        <time>2020-10-07T18:50:10.892Z</time>
      </trkpt>
      <trkpt lat="53.22157" lon="21.87036">
        <ele>122.406571</ele>
        <time>2020-10-07T18:50:14.573Z</time>
      </trkpt>
      <trkpt lat="53.22135" lon="21.86969">
        <ele>121.958944</ele>
        <time>2020-10-07T18:50:23.629Z</time>
      </trkpt>
      <trkpt lat="53.22124" lon="21.86938">
        <ele>121.745245</ele>
        <time>2020-10-07T18:50:27.948Z</time>
      </trkpt>
      <trkpt lat="53.22121" lon="21.8693">
        <ele>121.691819</ele>
        <time>2020-10-07T18:50:28.893Z</time>
      </trkpt>
      <trkpt lat="53.22067" lon="21.86783">
        <ele>120.278486</ele>
        <time>2020-10-07T18:50:47.850Z</time>
      </trkpt>
      <trkpt lat="53.2206" lon="21.86765">
        <ele>120.086739</ele>
        <time>2020-10-07T18:50:50.062Z</time>
      </trkpt>
      <trkpt lat="53.22004" lon="21.86612">
        <ele>118.585267</ele>
        <time>2020-10-07T18:51:09.750Z</time>
      </trkpt>
      <trkpt lat="53.2198" lon="21.86548">
        <ele>118.208698</ele>
        <time>2020-10-07T18:51:18.273Z</time>
      </trkpt>
      <trkpt lat="53.21909" lon="21.86316">
        <ele>117.186979</ele>
        <time>2020-10-07T18:51:50.274Z</time>
      </trkpt>
      <trkpt lat="53.21849" lon="21.86105">
        <ele>117.008203</ele>
        <time>2020-10-07T18:52:21.667Z</time>
      </trkpt>
      <trkpt lat="53.21555" lon="21.85083">
        <ele>117.065354</ele>
        <time>2020-10-07T18:54:53.568Z</time>
      </trkpt>
      <trkpt lat="53.21503" lon="21.84903">
        <ele>116.749949</ele>
        <time>2020-10-07T18:55:18.970Z</time>
      </trkpt>
      <trkpt lat="53.21411" lon="21.84576">
        <ele>115.840134</ele>
        <time>2020-10-07T18:56:04.078Z</time>
      </trkpt>
      <trkpt lat="53.21168" lon="21.8374">
        <ele>112.674931</ele>
        <time>2020-10-07T18:57:57.998Z</time>
      </trkpt>
      <trkpt lat="53.21117" lon="21.83609">
        <ele>111.925117</ele>
        <time>2020-10-07T18:58:16.202Z</time>
      </trkpt>
      <trkpt lat="53.21012" lon="21.83362">
        <ele>110.360138</ele>
        <time>2020-10-07T18:58:51.113Z</time>
      </trkpt>
      <trkpt lat="53.20691" lon="21.8261">
        <ele>107.532687</ele>
        <time>2020-10-07T19:00:45.487Z</time>
      </trkpt>
      <trkpt lat="53.20673" lon="21.8259">
        <ele>107.444536</ele>
        <time>2020-10-07T19:00:50.005Z</time>
      </trkpt>
      <trkpt lat="53.20634" lon="21.82567">
        <ele>107.270992</ele>
        <time>2020-10-07T19:00:58.891Z</time>
      </trkpt>
      <trkpt lat="53.20386" lon="21.82421">
        <ele>106.037835</ele>
        <time>2020-10-07T19:01:53.389Z</time>
      </trkpt>
      <trkpt lat="53.20038" lon="21.82209">
        <ele>103.704947</ele>
        <time>2020-10-07T19:03:07.879Z</time>
      </trkpt>
      <trkpt lat="53.2004" lon="21.82194">
        <ele>103.650905</ele>
        <time>2020-10-07T19:03:09.666Z</time>
      </trkpt>
      <trkpt lat="53.20059" lon="21.82105">
        <ele>103.314837</ele>
        <time>2020-10-07T19:03:21.611Z</time>
      </trkpt>
      <trkpt lat="53.20088" lon="21.8199">
        <ele>102.868922</ele>
        <time>2020-10-07T19:03:37.624Z</time>
      </trkpt>
      <trkpt lat="53.20142" lon="21.81819">
        <ele>102.611066</ele>
        <time>2020-10-07T19:04:19.487Z</time>
      </trkpt>
      <trkpt lat="53.20235" lon="21.81528">
        <ele>102.640226</ele>
        <time>2020-10-07T19:05:32.664Z</time>
      </trkpt>
      <trkpt lat="53.20265" lon="21.81423">
        <ele>102.816541</ele>
        <time>2020-10-07T19:05:59.926Z</time>
      </trkpt>
      <trkpt lat="53.20286" lon="21.81325">
        <ele>103.15375</ele>
        <time>2020-10-07T19:06:25.194Z</time>
      </trkpt>
      <trkpt lat="53.20288" lon="21.81249">
        <ele>103.40034</ele>
        <time>2020-10-07T19:06:43.414Z</time>
      </trkpt>
      <trkpt lat="53.20281" lon="21.81196">
        <ele>103.575585</ele>
        <time>2020-10-07T19:06:55.699Z</time>
      </trkpt>
      <trkpt lat="53.2029" lon="21.81151">
        <ele>103.734844</ele>
        <time>2020-10-07T19:07:06.798Z</time>
      </trkpt>
      <trkpt lat="53.20295" lon="21.81126">
        <ele>103.822993</ele>
        <time>2020-10-07T19:07:12.363Z</time>
      </trkpt>
      <trkpt lat="53.20303" lon="21.81062">
        <ele>104.047234</ele>
        <time>2020-10-07T19:07:26.978Z</time>
      </trkpt>
      <trkpt lat="53.20298" lon="21.8102">
        <ele>104.195117</ele>
        <time>2020-10-07T19:07:36.856Z</time>
      </trkpt>
      <trkpt lat="53.20291" lon="21.8098">
        <ele>104.339469</ele>
        <time>2020-10-07T19:07:47.651Z</time>
      </trkpt>
      <trkpt lat="53.20278" lon="21.80955">
        <ele>104.456279</ele>
        <time>2020-10-07T19:07:55.031Z</time>
      </trkpt>
      <trkpt lat="53.20265" lon="21.80931">
        <ele>104.565285</ele>
        <time>2020-10-07T19:08:03.568Z</time>
      </trkpt>
      <trkpt lat="53.20225" lon="21.80864">
        <ele>105.263159</ele>
        <time>2020-10-07T19:08:26.163Z</time>
      </trkpt>
      <trkpt lat="53.20221" lon="21.8084">
        <ele>105.52411</ele>
        <time>2020-10-07T19:08:32.959Z</time>
      </trkpt>
      <trkpt lat="53.20208" lon="21.80855">
        <ele>105.809449</ele>
        <time>2020-10-07T19:08:38.780Z</time>
      </trkpt>
      <trkpt lat="53.20196" lon="21.80838">
        <ele>106.090646</ele>
        <time>2020-10-07T19:08:46.871Z</time>
      </trkpt>
      <trkpt lat="53.20166" lon="21.80747">
        <ele>107.181434</ele>
        <time>2020-10-07T19:09:14.763Z</time>
      </trkpt>
      <trkpt lat="53.20158" lon="21.80682">
        <ele>107.881902</ele>
        <time>2020-10-07T19:09:33.751Z</time>
      </trkpt>
      <trkpt lat="53.2015" lon="21.80656">
        <ele>108.114799</ele>
        <time>2020-10-07T19:09:42.053Z</time>
      </trkpt>
      <trkpt lat="53.2013" lon="21.80604">
        <ele>108.614869</ele>
        <time>2020-10-07T19:09:59.057Z</time>
      </trkpt>
      <trkpt lat="53.20076" lon="21.80502">
        <ele>109.708643</ele>
        <time>2020-10-07T19:10:33.610Z</time>
      </trkpt>
      <trkpt lat="53.19875" lon="21.80207">
        <ele>110.337963</ele>
        <time>2020-10-07T19:12:16.420Z</time>
      </trkpt>
      <trkpt lat="53.19854" lon="21.80144">
        <ele>109.84786</ele>
        <time>2020-10-07T19:12:30.405Z</time>
      </trkpt>
      <trkpt lat="53.19846" lon="21.80099">
        <ele>109.521027</ele>
        <time>2020-10-07T19:12:39.654Z</time>
      </trkpt>
      <trkpt lat="53.19813" lon="21.80048">
        <ele>109.013013</ele>
        <time>2020-10-07T19:12:53.846Z</time>
      </trkpt>
      <trkpt lat="53.19757" lon="21.79979">
        <ele>108.044262</ele>
        <time>2020-10-07T19:13:15.838Z</time>
      </trkpt>
      <trkpt lat="53.19713" lon="21.79971">
        <ele>107.385284</ele>
        <time>2020-10-07T19:13:30.032Z</time>
      </trkpt>
      <trkpt lat="53.19697" lon="21.79977">
        <ele>107.136951</ele>
        <time>2020-10-07T19:13:35.458Z</time>
      </trkpt>
      <trkpt lat="53.1967" lon="21.7996">
        <ele>106.722874</ele>
        <time>2020-10-07T19:13:44.652Z</time>
      </trkpt>
      <trkpt lat="53.19659" lon="21.799">
        <ele>106.162181</ele>
        <time>2020-10-07T19:13:57.484Z</time>
      </trkpt>
      <trkpt lat="53.19639" lon="21.79854">
        <ele>106.113676</ele>
        <time>2020-10-07T19:14:09.727Z</time>
      </trkpt>
      <trkpt lat="53.19535" lon="21.79707">
        <ele>106.055751</ele>
        <time>2020-10-07T19:15:01.207Z</time>
      </trkpt>
      <trkpt lat="53.19492" lon="21.79621">
        <ele>105.902858</ele>
        <time>2020-10-07T19:15:26.792Z</time>
      </trkpt>
      <trkpt lat="53.19466" lon="21.7959">
        <ele>105.818785</ele>
        <time>2020-10-07T19:15:38.463Z</time>
      </trkpt>
      <trkpt lat="53.19435" lon="21.79531">
        <ele>105.694874</ele>
        <time>2020-10-07T19:15:55.104Z</time>
      </trkpt>
      <trkpt lat="53.19435" lon="21.79503">
        <ele>105.651363</ele>
        <time>2020-10-07T19:16:00.769Z</time>
      </trkpt>
      <trkpt lat="53.19429" lon="21.79489">
        <ele>105.623881</ele>
        <time>2020-10-07T19:16:04.411Z</time>
      </trkpt>
      <trkpt lat="53.1937" lon="21.79409">
        <ele>105.070142</ele>
        <time>2020-10-07T19:16:30.348Z</time>
      </trkpt>
      <trkpt lat="53.19338" lon="21.79326">
        <ele>104.548282</ele>
        <time>2020-10-07T19:16:50.153Z</time>
      </trkpt>
      <trkpt lat="53.19274" lon="21.79223">
        <ele>103.914265</ele>
        <time>2020-10-07T19:17:20.677Z</time>
      </trkpt>
      <trkpt lat="53.19231" lon="21.79137">
        <ele>103.740072</ele>
        <time>2020-10-07T19:17:35.284Z</time>
      </trkpt>
      <trkpt lat="53.19203" lon="21.7908">
        <ele>103.626031</ele>
        <time>2020-10-07T19:17:45.461Z</time>
      </trkpt>
      <trkpt lat="53.19176" lon="21.7901">
        <ele>103.533914</ele>
        <time>2020-10-07T19:17:57.295Z</time>
      </trkpt>
      <trkpt lat="53.19113" lon="21.78946">
        <ele>103.767441</ele>
        <time>2020-10-07T19:18:15.258Z</time>
      </trkpt>
      <trkpt lat="53.19062" lon="21.78907">
        <ele>103.946815</ele>
        <time>2020-10-07T19:18:29.283Z</time>
      </trkpt>
      <trkpt lat="53.1902" lon="21.7883">
        <ele>104.161013</ele>
        <time>2020-10-07T19:18:44.747Z</time>
      </trkpt>
      <trkpt lat="53.18933" lon="21.78697">
        <ele>104.640107</ele>
        <time>2020-10-07T19:19:13.311Z</time>
      </trkpt>
      <trkpt lat="53.18842" lon="21.78532">
        <ele>106.40917</ele>
        <time>2020-10-07T19:19:48.126Z</time>
      </trkpt>
      <trkpt lat="53.18837" lon="21.78518">
        <ele>106.589726</ele>
        <time>2020-10-07T19:19:51.519Z</time>
      </trkpt>
      <trkpt lat="53.18817" lon="21.78466">
        <ele>107.235955</ele>
        <time>2020-10-07T19:20:03.528Z</time>
      </trkpt>
      <trkpt lat="53.18811" lon="21.78442">
        <ele>107.506187</ele>
        <time>2020-10-07T19:20:08.335Z</time>
      </trkpt>
      <trkpt lat="53.18762" lon="21.78492">
        <ele>109.062367</ele>
        <time>2020-10-07T19:20:29.280Z</time>
      </trkpt>
      <trkpt lat="53.18623" lon="21.78631">
        <ele>114.610787</ele>
        <time>2020-10-07T19:21:31.590Z</time>
      </trkpt>
      <trkpt lat="53.18406" lon="21.78841">
        <ele>116.23629</ele>
        <time>2020-10-07T19:22:38.625Z</time>
      </trkpt>
      <trkpt lat="53.17997" lon="21.7923">
        <ele>109.532012</ele>
        <time>2020-10-07T19:24:01.968Z</time>
      </trkpt>
      <trkpt lat="53.17911" lon="21.79315">
        <ele>109.2885</ele>
        <time>2020-10-07T19:24:21.768Z</time>
      </trkpt>
      <trkpt lat="53.17581" lon="21.7964">
        <ele>113.020865</ele>
        <time>2020-10-07T19:26:05.875Z</time>
      </trkpt>
      <trkpt lat="53.17395" lon="21.79774">
        <ele>115.349859</ele>
        <time>2020-10-07T19:27:01.711Z</time>
      </trkpt>
      <trkpt lat="53.17345" lon="21.79885">
        <ele>115.539548</ele>
        <time>2020-10-07T19:27:21.639Z</time>
      </trkpt>
      <trkpt lat="53.17167" lon="21.80133">
        <ele>115.2938</ele>
        <time>2020-10-07T19:28:09.917Z</time>
      </trkpt>
      <trkpt lat="53.1706" lon="21.80177">
        <ele>115.623733</ele>
        <time>2020-10-07T19:28:35.061Z</time>
      </trkpt>
      <trkpt lat="53.1691" lon="21.80317">
        <ele>117.558259</ele>
        <time>2020-10-07T19:29:22.065Z</time>
      </trkpt>
      <trkpt lat="53.16857" lon="21.80429">
        <ele>119.049034</ele>
        <time>2020-10-07T19:29:47.767Z</time>
      </trkpt>
      <trkpt lat="53.16742" lon="21.80581">
        <ele>121.407057</ele>
        <time>2020-10-07T19:30:31.262Z</time>
      </trkpt>
      <trkpt lat="53.16387" lon="21.80746">
        <ele>125.593873</ele>
        <time>2020-10-07T19:32:10.767Z</time>
      </trkpt>
      <trkpt lat="53.1623" lon="21.80867">
        <ele>125.266515</ele>
        <time>2020-10-07T19:32:49.837Z</time>
      </trkpt>
      <trkpt lat="53.16104" lon="21.80935">
        <ele>123.358096</ele>
        <time>2020-10-07T19:33:13.272Z</time>
      </trkpt>
      <trkpt lat="53.15991" lon="21.81057">
        <ele>120.144295</ele>
        <time>2020-10-07T19:33:35.732Z</time>
      </trkpt>
      <trkpt lat="53.15251" lon="21.81418">
        <ele>111.068041</ele>
        <time>2020-10-07T19:35:59.757Z</time>
      </trkpt>
      <trkpt lat="53.15389" lon="21.82092">
        <ele>115.593389</ele>
        <time>2020-10-07T19:38:05.613Z</time>
      </trkpt>
      <trkpt lat="53.15276" lon="21.82144">
        <ele>115.63879</ele>
        <time>2020-10-07T19:38:32.148Z</time>
      </trkpt>
      <trkpt lat="53.15161" lon="21.82193">
        <ele>114.526297</ele>
        <time>2020-10-07T19:38:55.454Z</time>
      </trkpt>
      <trkpt lat="53.15155" lon="21.82196">
        <ele>114.455584</ele>
        <time>2020-10-07T19:38:56.711Z</time>
      </trkpt>
      <trkpt lat="53.15148" lon="21.82199">
        <ele>114.370703</ele>
        <time>2020-10-07T19:38:57.912Z</time>
      </trkpt>
      <trkpt lat="53.15154" lon="21.82231">
        <ele>114.105331</ele>
        <time>2020-10-07T19:39:01.659Z</time>
      </trkpt>
      <trkpt lat="53.15175" lon="21.82356">
        <ele>113.094834</ele>
        <time>2020-10-07T19:39:15.711Z</time>
      </trkpt>
      <trkpt lat="53.15167" lon="21.82359">
        <ele>112.985286</ele>
        <time>2020-10-07T19:39:17.258Z</time>
      </trkpt>
      <trkpt lat="53.14919" lon="21.8245">
        <ele>111.149642</ele>
        <time>2020-10-07T19:40:10.012Z</time>
      </trkpt>
      <trkpt lat="53.14882" lon="21.82465">
        <ele>111.525496</ele>
        <time>2020-10-07T19:40:20.119Z</time>
      </trkpt>
      <trkpt lat="53.14836" lon="21.82471">
        <ele>111.971448</ele>
        <time>2020-10-07T19:40:32.887Z</time>
      </trkpt>
      <trkpt lat="53.14724" lon="21.82475">
        <ele>113.047664</ele>
        <time>2020-10-07T19:41:05.750Z</time>
      </trkpt>
      <trkpt lat="53.14705" lon="21.8248">
        <ele>113.225288</ele>
        <time>2020-10-07T19:41:11.188Z</time>
      </trkpt>
      <trkpt lat="53.14699" lon="21.82493">
        <ele>113.315979</ele>
        <time>2020-10-07T19:41:13.880Z</time>
      </trkpt>
      <trkpt lat="53.14495" lon="21.82827">
        <ele>115.590929</ele>
        <time>2020-10-07T19:42:25.485Z</time>
      </trkpt>
      <trkpt lat="53.14293" lon="21.83162">
        <ele>118.303072</ele>
        <time>2020-10-07T19:43:36.667Z</time>
      </trkpt>
      <trkpt lat="53.13901" lon="21.83809">
        <ele>126.661442</ele>
        <time>2020-10-07T19:46:18.620Z</time>
      </trkpt>
      <trkpt lat="53.13596" lon="21.83932">
        <ele>128.27999</ele>
        <time>2020-10-07T19:47:33.004Z</time>
      </trkpt>
      <trkpt lat="53.13463" lon="21.84035">
        <ele>128.443908</ele>
        <time>2020-10-07T19:48:06.198Z</time>
      </trkpt>
      <trkpt lat="53.1315" lon="21.84198">
        <ele>128.068299</ele>
        <time>2020-10-07T19:49:17.573Z</time>
      </trkpt>
      <trkpt lat="53.12921" lon="21.84375">
        <ele>127.706367</ele>
        <time>2020-10-07T19:50:11.380Z</time>
      </trkpt>
      <trkpt lat="53.12865" lon="21.84397">
        <ele>127.75963</ele>
        <time>2020-10-07T19:50:24.660Z</time>
      </trkpt>
      <trkpt lat="53.12804" lon="21.84443">
        <ele>127.831263</ele>
        <time>2020-10-07T19:50:40.731Z</time>
      </trkpt>
      <trkpt lat="53.12661" lon="21.84566">
        <ele>128.312498</ele>
        <time>2020-10-07T19:51:19.257Z</time>
      </trkpt>
      <trkpt lat="53.1247" lon="21.847">
        <ele>127.713214</ele>
        <time>2020-10-07T19:52:03.663Z</time>
      </trkpt>
      <trkpt lat="53.11885" lon="21.85363">
        <ele>119.088506</ele>
        <time>2020-10-07T19:54:16.740Z</time>
      </trkpt>
      <trkpt lat="53.11839" lon="21.85416">
        <ele>118.302437</ele>
        <time>2020-10-07T19:54:26.851Z</time>
      </trkpt>
      <trkpt lat="53.11725" lon="21.85535">
        <ele>116.462248</ele>
        <time>2020-10-07T19:54:51.642Z</time>
      </trkpt>
      <trkpt lat="53.11082" lon="21.86097">
        <ele>110.344023</ele>
        <time>2020-10-07T19:57:14.939Z</time>
      </trkpt>
      <trkpt lat="53.11021" lon="21.86147">
        <ele>109.903975</ele>
        <time>2020-10-07T19:57:28.505Z</time>
      </trkpt>
      <trkpt lat="53.10998" lon="21.86167">
        <ele>109.732651</ele>
        <time>2020-10-07T19:57:33.794Z</time>
      </trkpt>
      <trkpt lat="53.10985" lon="21.86106">
        <ele>109.482591</ele>
        <time>2020-10-07T19:57:41.532Z</time>
      </trkpt>
      <trkpt lat="53.10895" lon="21.85567">
        <ele>109.017871</ele>
        <time>2020-10-07T19:58:51.751Z</time>
      </trkpt>
      <trkpt lat="53.10891" lon="21.85521">
        <ele>109.125187</ele>
        <time>2020-10-07T19:58:59.204Z</time>
      </trkpt>
      <trkpt lat="53.10904" lon="21.85063">
        <ele>115.273266</ele>
        <time>2020-10-07T20:00:32.889Z</time>
      </trkpt>
      <trkpt lat="53.10897" lon="21.84996">
        <ele>116.119264</ele>
        <time>2020-10-07T20:00:46.412Z</time>
      </trkpt>
      <trkpt lat="53.10859" lon="21.84851">
        <ele>117.505</ele>
        <time>2020-10-07T20:01:13.582Z</time>
      </trkpt>
      <trkpt lat="53.10844" lon="21.84823">
        <ele>117.457112</ele>
        <time>2020-10-07T20:01:19.694Z</time>
      </trkpt>
      <trkpt lat="53.1085" lon="21.84807">
        <ele>117.43287</ele>
        <time>2020-10-07T20:01:23.681Z</time>
      </trkpt>
      <trkpt lat="53.10832" lon="21.84338">
        <ele>116.099033</ele>
        <time>2020-10-07T20:03:00.390Z</time>
      </trkpt>
      <trkpt lat="53.10847" lon="21.84152">
        <ele>116.668595</ele>
        <time>2020-10-07T20:03:43.389Z</time>
      </trkpt>
      <trkpt lat="53.10888" lon="21.83783">
        <ele>119.326042</ele>
        <time>2020-10-07T20:05:20.777Z</time>
      </trkpt>
      <trkpt lat="53.10891" lon="21.83665">
        <ele>120.079597</ele>
        <time>2020-10-07T20:05:51.138Z</time>
      </trkpt>
      <trkpt lat="53.10882" lon="21.8352">
        <ele>120.567356</ele>
        <time>2020-10-07T20:06:26.576Z</time>
      </trkpt>
      <trkpt lat="53.10851" lon="21.83334">
        <ele>120.188491</ele>
        <time>2020-10-07T20:07:08.422Z</time>
      </trkpt>
      <trkpt lat="53.10732" lon="21.82897">
        <ele>115.659859</ele>
        <time>2020-10-07T20:08:40.503Z</time>
      </trkpt>
      <trkpt lat="53.10611" lon="21.82416">
        <ele>110.479431</ele>
        <time>2020-10-07T20:10:22.042Z</time>
      </trkpt>
      <trkpt lat="53.10621" lon="21.82387">
        <ele>110.140735</ele>
        <time>2020-10-07T20:10:28.432Z</time>
      </trkpt>
      <trkpt lat="53.10558" lon="21.82352">
        <ele>108.984787</ele>
        <time>2020-10-07T20:10:49.495Z</time>
      </trkpt>
      <trkpt lat="53.10494" lon="21.82295">
        <ele>107.661522</ele>
        <time>2020-10-07T20:11:12.386Z</time>
      </trkpt>
      <trkpt lat="53.10448" lon="21.82244">
        <ele>106.64533</ele>
        <time>2020-10-07T20:11:29.811Z</time>
      </trkpt>
      <trkpt lat="53.10357" lon="21.82103">
        <ele>105.603872</ele>
        <time>2020-10-07T20:12:10.970Z</time>
      </trkpt>
      <trkpt lat="53.10338" lon="21.82069">
        <ele>105.452587</ele>
        <time>2020-10-07T20:12:21.008Z</time>
      </trkpt>
      <trkpt lat="53.10281" lon="21.81976">
        <ele>105.558541</ele>
        <time>2020-10-07T20:12:40.374Z</time>
      </trkpt>
      <trkpt lat="53.10264" lon="21.81937">
        <ele>106.079965</ele>
        <time>2020-10-07T20:12:48.335Z</time>
      </trkpt>
      <trkpt lat="53.10236" lon="21.81852">
        <ele>107.123997</ele>
        <time>2020-10-07T20:13:06.112Z</time>
      </trkpt>
      <trkpt lat="53.10213" lon="21.81808">
        <ele>107.756396</ele>
        <time>2020-10-07T20:13:17.575Z</time>
      </trkpt>
      <trkpt lat="53.10178" lon="21.81766">
        <ele>108.517324</ele>
        <time>2020-10-07T20:13:31.272Z</time>
      </trkpt>
      <trkpt lat="53.10147" lon="21.81745">
        <ele>109.087466</ele>
        <time>2020-10-07T20:13:41.714Z</time>
      </trkpt>
      <trkpt lat="53.1008" lon="21.81728">
        <ele>110.254324</ele>
        <time>2020-10-07T20:14:02.206Z</time>
      </trkpt>
      <trkpt lat="53.09943" lon="21.818">
        <ele>111.89554</ele>
        <time>2020-10-07T20:14:40.425Z</time>
      </trkpt>
      <trkpt lat="53.09902" lon="21.8181">
        <ele>112.138236</ele>
        <time>2020-10-07T20:14:50.377Z</time>
      </trkpt>
      <trkpt lat="53.09882" lon="21.81807">
        <ele>112.253228</ele>
        <time>2020-10-07T20:14:55.084Z</time>
      </trkpt>
      <trkpt lat="53.09853" lon="21.81784">
        <ele>112.44099</ele>
        <time>2020-10-07T20:15:02.744Z</time>
      </trkpt>
      <trkpt lat="53.09682" lon="21.81606">
        <ele>111.965381</ele>
        <time>2020-10-07T20:15:46.540Z</time>
      </trkpt>
      <trkpt lat="53.09671" lon="21.81578">
        <ele>111.64483</ele>
        <time>2020-10-07T20:15:50.380Z</time>
      </trkpt>
      <trkpt lat="53.09376" lon="21.81424">
        <ele>106.805607</ele>
        <time>2020-10-07T20:16:45.103Z</time>
      </trkpt>
      <trkpt lat="53.08687" lon="21.80682">
        <ele>107.197317</ele>
        <time>2020-10-07T20:21:52.766Z</time>
      </trkpt>
      <trkpt lat="53.08525" lon="21.8049">
        <ele>108.312492</ele>
        <time>2020-10-07T20:23:12.575Z</time>
      </trkpt>
      <trkpt lat="53.08498" lon="21.80444">
        <ele>108.564111</ele>
        <time>2020-10-07T20:23:27.693Z</time>
      </trkpt>
      <trkpt lat="53.08433" lon="21.8027">
        <ele>109.225069</ele>
        <time>2020-10-07T20:24:16.015Z</time>
      </trkpt>
      <trkpt lat="53.08413" lon="21.80231">
        <ele>109.366845</ele>
        <time>2020-10-07T20:24:27.741Z</time>
      </trkpt>
      <trkpt lat="53.08398" lon="21.80213">
        <ele>109.45275</ele>
        <time>2020-10-07T20:24:34.752Z</time>
      </trkpt>
      <trkpt lat="53.08202" lon="21.80009">
        <ele>110.925584</ele>
        <time>2020-10-07T20:26:05.669Z</time>
      </trkpt>
      <trkpt lat="53.08177" lon="21.7997">
        <ele>111.441292</ele>
        <time>2020-10-07T20:26:20.403Z</time>
      </trkpt>
      <trkpt lat="53.08008" lon="21.79808">
        <ele>114.093849</ele>
        <time>2020-10-07T20:27:45.984Z</time>
      </trkpt>
      <trkpt lat="53.07809" lon="21.79631">
        <ele>115.588704</ele>
        <time>2020-10-07T20:29:15.874Z</time>
      </trkpt>
      <trkpt lat="53.07755" lon="21.79597">
        <ele>115.725699</ele>
        <time>2020-10-07T20:29:37.261Z</time>
      </trkpt>
      <trkpt lat="53.07653" lon="21.79548">
        <ele>115.105791</ele>
        <time>2020-10-07T20:30:14.311Z</time>
      </trkpt>
      <trkpt lat="53.07558" lon="21.79502">
        <ele>114.262131</ele>
        <time>2020-10-07T20:30:47.603Z</time>
      </trkpt>
      <trkpt lat="53.07517" lon="21.79487">
        <ele>113.677845</ele>
        <time>2020-10-07T20:31:01.628Z</time>
      </trkpt>
      <trkpt lat="53.07253" lon="21.79391">
        <ele>109.896336</ele>
        <time>2020-10-07T20:32:29.852Z</time>
      </trkpt>
      <trkpt lat="53.07217" lon="21.79378">
        <ele>109.391129</ele>
        <time>2020-10-07T20:32:41.490Z</time>
      </trkpt>
      <trkpt lat="53.06836" lon="21.79226">
        <ele>106.360666</ele>
        <time>2020-10-07T20:34:55.783Z</time>
      </trkpt>
      <trkpt lat="53.06491" lon="21.79089">
        <ele>109.364951</ele>
        <time>2020-10-07T20:37:20.942Z</time>
      </trkpt>
      <trkpt lat="53.06486" lon="21.79087">
        <ele>109.424689</ele>
        <time>2020-10-07T20:37:23.317Z</time>
      </trkpt>
      <trkpt lat="53.06245" lon="21.78973">
        <ele>112.160328</ele>
        <time>2020-10-07T20:39:07.984Z</time>
      </trkpt>
      <trkpt lat="53.06215" lon="21.7896">
        <ele>112.467474</ele>
        <time>2020-10-07T20:39:20.517Z</time>
      </trkpt>
      <trkpt lat="53.06196" lon="21.78959">
        <ele>112.65719</ele>
        <time>2020-10-07T20:39:28.210Z</time>
      </trkpt>
      <trkpt lat="53.06157" lon="21.78939">
        <ele>113.050502</ele>
        <time>2020-10-07T20:39:44.647Z</time>
      </trkpt>
      <trkpt lat="53.0611" lon="21.78927">
        <ele>113.197377</ele>
        <time>2020-10-07T20:40:04.049Z</time>
      </trkpt>
      <trkpt lat="53.06016" lon="21.78903">
        <ele>113.485402</ele>
        <time>2020-10-07T20:40:40.700Z</time>
      </trkpt>
      <trkpt lat="53.06004" lon="21.78923">
        <ele>113.536559</ele>
        <time>2020-10-07T20:40:44.235Z</time>
      </trkpt>
      <trkpt lat="53.05966" lon="21.78986">
        <ele>113.392121</ele>
        <time>2020-10-07T20:40:55.363Z</time>
      </trkpt>
      <trkpt lat="53.05919" lon="21.79073">
        <ele>113.003561</ele>
        <time>2020-10-07T20:41:09.436Z</time>
      </trkpt>
      <trkpt lat="53.05917" lon="21.7909">
        <ele>112.944395</ele>
        <time>2020-10-07T20:41:11.456Z</time>
      </trkpt>
      <trkpt lat="53.05858" lon="21.79068">
        <ele>112.608675</ele>
        <time>2020-10-07T20:41:32.300Z</time>
      </trkpt>
      <trkpt lat="53.05267" lon="21.78778">
        <ele>111.024216</ele>
        <time>2020-10-07T20:45:14.668Z</time>
      </trkpt>
      <trkpt lat="53.04885" lon="21.78494">
        <ele>110.763857</ele>
        <time>2020-10-07T20:47:48.938Z</time>
      </trkpt>
      <trkpt lat="53.03953" lon="21.77749">
        <ele>111.907904</ele>
        <time>2020-10-07T20:54:17.552Z</time>
      </trkpt>
      <trkpt lat="53.03928" lon="21.77736">
        <ele>111.941268</ele>
        <time>2020-10-07T20:54:23.535Z</time>
      </trkpt>
      <trkpt lat="53.03917" lon="21.77723">
        <ele>111.957782</ele>
        <time>2020-10-07T20:54:26.657Z</time>
      </trkpt>
      <trkpt lat="53.03865" lon="21.77674">
        <ele>112.038694</ele>
        <time>2020-10-07T20:54:40.311Z</time>
      </trkpt>
      <trkpt lat="53.03843" lon="21.77667">
        <ele>112.086672</ele>
        <time>2020-10-07T20:54:45.397Z</time>
      </trkpt>
      <trkpt lat="53.03745" lon="21.77667">
        <ele>112.302014</ele>
        <time>2020-10-07T20:55:08.175Z</time>
      </trkpt>
      <trkpt lat="53.03654" lon="21.77653">
        <ele>112.46343</ele>
        <time>2020-10-07T20:55:29.312Z</time>
      </trkpt>
      <trkpt lat="53.03617" lon="21.77618">
        <ele>112.515146</ele>
        <time>2020-10-07T20:55:39.281Z</time>
      </trkpt>
      <trkpt lat="53.0358" lon="21.7757">
        <ele>112.571221</ele>
        <time>2020-10-07T20:55:49.904Z</time>
      </trkpt>
      <trkpt lat="53.03562" lon="21.77523">
        <ele>112.611299</ele>
        <time>2020-10-07T20:55:57.415Z</time>
      </trkpt>
      <trkpt lat="53.03557" lon="21.77483">
        <ele>112.61344</ele>
        <time>2020-10-07T20:56:03.035Z</time>
      </trkpt>
      <trkpt lat="53.03547" lon="21.77489">
        <ele>112.575236</ele>
        <time>2020-10-07T20:56:05.241Z</time>
      </trkpt>
      <trkpt lat="53.03529" lon="21.77501">
        <ele>112.502456</ele>
        <time>2020-10-07T20:56:09.513Z</time>
      </trkpt>
      <trkpt lat="53.03507" lon="21.77515">
        <ele>112.414031</ele>
        <time>2020-10-07T20:56:14.665Z</time>
      </trkpt>
      <trkpt lat="53.03016" lon="21.77834">
        <ele>110.401373</ele>
        <time>2020-10-07T20:58:03.895Z</time>
      </trkpt>
      <trkpt lat="53.03006" lon="21.77835">
        <ele>110.383134</ele>
        <time>2020-10-07T20:58:05.845Z</time>
      </trkpt>
      <trkpt lat="53.02986" lon="21.77833">
        <ele>110.343563</ele>
        <time>2020-10-07T20:58:10.367Z</time>
      </trkpt>
      <trkpt lat="53.02778" lon="21.7764">
        <ele>110.26588</ele>
        <time>2020-10-07T20:59:05.965Z</time>
      </trkpt>
      <trkpt lat="53.02727" lon="21.77606">
        <ele>110.311976</ele>
        <time>2020-10-07T20:59:19.315Z</time>
      </trkpt>
      <trkpt lat="53.02662" lon="21.77557">
        <ele>110.350423</ele>
        <time>2020-10-07T20:59:35.614Z</time>
      </trkpt>
      <trkpt lat="53.02633" lon="21.77533">
        <ele>110.368148</ele>
        <time>2020-10-07T20:59:43.076Z</time>
      </trkpt>
      <trkpt lat="53.02605" lon="21.77497">
        <ele>110.387329</ele>
        <time>2020-10-07T20:59:51.017Z</time>
      </trkpt>
      <trkpt lat="53.02492" lon="21.772">
        <ele>110.029934</ele>
        <time>2020-10-07T21:00:36.266Z</time>
      </trkpt>
      <trkpt lat="53.02484" lon="21.77178">
        <ele>110.005704</ele>
        <time>2020-10-07T21:00:39.587Z</time>
      </trkpt>
      <trkpt lat="53.02049" lon="21.76093">
        <ele>108.900439</ele>
        <time>2020-10-07T21:03:29.929Z</time>
      </trkpt>
      <trkpt lat="53.01967" lon="21.75868">
        <ele>109.040125</ele>
        <time>2020-10-07T21:04:05.795Z</time>
      </trkpt>
      <trkpt lat="53.01886" lon="21.7561">
        <ele>109.668805</ele>
        <time>2020-10-07T21:04:47.610Z</time>
      </trkpt>
      <trkpt lat="53.01872" lon="21.75577">
        <ele>109.794724</ele>
        <time>2020-10-07T21:04:53.494Z</time>
      </trkpt>
      <trkpt lat="53.01861" lon="21.75557">
        <ele>109.877961</ele>
        <time>2020-10-07T21:04:57.397Z</time>
      </trkpt>
      <trkpt lat="53.01824" lon="21.75515">
        <ele>110.116785</ele>
        <time>2020-10-07T21:05:08.625Z</time>
      </trkpt>
      <trkpt lat="53.01703" lon="21.75403">
        <ele>110.866266</ele>
        <time>2020-10-07T21:05:42.680Z</time>
      </trkpt>
      <trkpt lat="53.0161" lon="21.75308">
        <ele>111.384343</ele>
        <time>2020-10-07T21:06:09.239Z</time>
      </trkpt>
      <trkpt lat="53.01543" lon="21.75227">
        <ele>111.594883</ele>
        <time>2020-10-07T21:06:28.626Z</time>
      </trkpt>
      <trkpt lat="53.01499" lon="21.75174">
        <ele>111.731825</ele>
        <time>2020-10-07T21:06:40.821Z</time>
      </trkpt>
      <trkpt lat="53.01359" lon="21.75106">
        <ele>111.842761</ele>
        <time>2020-10-07T21:07:13.554Z</time>
      </trkpt>
      <trkpt lat="53.0091" lon="21.74937">
        <ele>112.072305</ele>
        <time>2020-10-07T21:08:58.502Z</time>
      </trkpt>
      <trkpt lat="53.00713" lon="21.74864">
        <ele>111.346912</ele>
        <time>2020-10-07T21:09:38.892Z</time>
      </trkpt>
      <trkpt lat="53.00265" lon="21.74706">
        <ele>110.754378</ele>
        <time>2020-10-07T21:11:18.916Z</time>
      </trkpt>
      <trkpt lat="52.99933" lon="21.74608">
        <ele>113.191453</ele>
        <time>2020-10-07T21:12:45.879Z</time>
      </trkpt>
      <trkpt lat="52.99895" lon="21.74597">
        <ele>113.34516</ele>
        <time>2020-10-07T21:12:54.663Z</time>
      </trkpt>
      <trkpt lat="52.99841" lon="21.74581">
        <ele>113.004476</ele>
        <time>2020-10-07T21:13:06.417Z</time>
      </trkpt>
      <trkpt lat="52.99807" lon="21.74575">
        <ele>112.797468</ele>
        <time>2020-10-07T21:13:13.162Z</time>
      </trkpt>
      <trkpt lat="52.99729" lon="21.74576">
        <ele>112.315441</ele>
        <time>2020-10-07T21:13:28.236Z</time>
      </trkpt>
      <trkpt lat="52.99719" lon="21.74571">
        <ele>112.220984</ele>
        <time>2020-10-07T21:13:30.189Z</time>
      </trkpt>
      <trkpt lat="52.99649" lon="21.74551">
        <ele>111.476359</ele>
        <time>2020-10-07T21:13:43.605Z</time>
      </trkpt>
      <trkpt lat="52.99499" lon="21.7452">
        <ele>110.001872</ele>
        <time>2020-10-07T21:14:12.852Z</time>
      </trkpt>
      <trkpt lat="52.99463" lon="21.74509">
        <ele>109.708012</ele>
        <time>2020-10-07T21:14:20.166Z</time>
      </trkpt>
      <trkpt lat="52.99286" lon="21.74395">
        <ele>108.473244</ele>
        <time>2020-10-07T21:14:58.242Z</time>
      </trkpt>
      <trkpt lat="52.99266" lon="21.74388">
        <ele>108.370613</ele>
        <time>2020-10-07T21:15:02.440Z</time>
      </trkpt>
      <trkpt lat="52.9923" lon="21.74391">
        <ele>108.189481</ele>
        <time>2020-10-07T21:15:09.922Z</time>
      </trkpt>
      <trkpt lat="52.99208" lon="21.74402">
        <ele>108.075734</ele>
        <time>2020-10-07T21:15:14.665Z</time>
      </trkpt>
      <trkpt lat="52.98997" lon="21.74616">
        <ele>108.050973</ele>
        <time>2020-10-07T21:16:09.461Z</time>
      </trkpt>
      <trkpt lat="52.9871" lon="21.74825">
        <ele>108.613124</ele>
        <time>2020-10-07T21:17:23.300Z</time>
      </trkpt>
      <trkpt lat="52.98585" lon="21.74869">
        <ele>107.932703</ele>
        <time>2020-10-07T21:17:49.077Z</time>
      </trkpt>
      <trkpt lat="52.98549" lon="21.74869">
        <ele>107.742109</ele>
        <time>2020-10-07T21:17:56.128Z</time>
      </trkpt>
      <trkpt lat="52.98505" lon="21.7485">
        <ele>107.640726</ele>
        <time>2020-10-07T21:18:05.082Z</time>
      </trkpt>
      <trkpt lat="52.98481" lon="21.7484">
        <ele>107.585393</ele>
        <time>2020-10-07T21:18:10.186Z</time>
      </trkpt>
      <trkpt lat="52.98416" lon="21.74831">
        <ele>107.439904</ele>
        <time>2020-10-07T21:18:24.060Z</time>
      </trkpt>
      <trkpt lat="52.98163" lon="21.74856">
        <ele>108.02817</ele>
        <time>2020-10-07T21:19:25.158Z</time>
      </trkpt>
      <trkpt lat="52.98061" lon="21.74868">
        <ele>108.055566</ele>
        <time>2020-10-07T21:19:47.421Z</time>
      </trkpt>
      <trkpt lat="52.97971" lon="21.74871">
        <ele>108.149782</ele>
        <time>2020-10-07T21:20:06.997Z</time>
      </trkpt>
      <trkpt lat="52.97888" lon="21.74874">
        <ele>108.311674</ele>
        <time>2020-10-07T21:20:25.986Z</time>
      </trkpt>
      <trkpt lat="52.97708" lon="21.74857">
        <ele>108.39821</ele>
        <time>2020-10-07T21:21:09.026Z</time>
      </trkpt>
      <trkpt lat="52.97588" lon="21.74837">
        <ele>107.48412</ele>
        <time>2020-10-07T21:21:32.913Z</time>
      </trkpt>
      <trkpt lat="52.97531" lon="21.74834">
        <ele>106.69481</ele>
        <time>2020-10-07T21:21:43.329Z</time>
      </trkpt>
      <trkpt lat="52.97384" lon="21.74827">
        <ele>104.472855</ele>
        <time>2020-10-07T21:22:09.370Z</time>
      </trkpt>
      <trkpt lat="52.97292" lon="21.74882">
        <ele>103.087265</ele>
        <time>2020-10-07T21:22:27.480Z</time>
      </trkpt>
      <trkpt lat="52.97286" lon="21.74797">
        <ele>103.385359</ele>
        <time>2020-10-07T21:22:37.770Z</time>
      </trkpt>
      <trkpt lat="52.97277" lon="21.74772">
        <ele>103.48454</ele>
        <time>2020-10-07T21:22:41.349Z</time>
      </trkpt>
      <trkpt lat="52.96654" lon="21.7394">
        <ele>108.00795</ele>
        <time>2020-10-07T21:26:03.859Z</time>
      </trkpt>
      <trkpt lat="52.96305" lon="21.73474">
        <ele>105.619104</ele>
        <time>2020-10-07T21:27:35.970Z</time>
      </trkpt>
      <trkpt lat="52.96278" lon="21.73432">
        <ele>105.115265</ele>
        <time>2020-10-07T21:27:42.981Z</time>
      </trkpt>
      <trkpt lat="52.96273" lon="21.73416">
        <ele>104.967678</ele>
        <time>2020-10-07T21:27:45.036Z</time>
      </trkpt>
      <trkpt lat="52.96273" lon="21.73409">
        <ele>104.904949</ele>
        <time>2020-10-07T21:27:45.892Z</time>
      </trkpt>
      <trkpt lat="52.96271" lon="21.73403">
        <ele>104.850663</ele>
        <time>2020-10-07T21:27:46.619Z</time>
      </trkpt>
      <trkpt lat="52.96268" lon="21.73399">
        <ele>104.801264</ele>
        <time>2020-10-07T21:27:47.318Z</time>
      </trkpt>
      <trkpt lat="52.96263" lon="21.73396">
        <ele>104.724038</ele>
        <time>2020-10-07T21:27:48.351Z</time>
      </trkpt>
      <trkpt lat="52.96247" lon="21.73388">
        <ele>104.497813</ele>
        <time>2020-10-07T21:27:51.261Z</time>
      </trkpt>
      <trkpt lat="52.96223" lon="21.73361">
        <ele>104.096821</ele>
        <time>2020-10-07T21:27:56.388Z</time>
      </trkpt>
      <trkpt lat="52.9617" lon="21.73304">
        <ele>103.201409</ele>
        <time>2020-10-07T21:28:07.231Z</time>
      </trkpt>
      <trkpt lat="52.96165" lon="21.73297">
        <ele>103.103967</ele>
        <time>2020-10-07T21:28:08.339Z</time>
      </trkpt>
      <trkpt lat="52.9612" lon="21.73246">
        <ele>102.325347</ele>
        <time>2020-10-07T21:28:18.296Z</time>
      </trkpt>
      <trkpt lat="52.96111" lon="21.73234">
        <ele>102.156457</ele>
        <time>2020-10-07T21:28:20.465Z</time>
      </trkpt>
      <trkpt lat="52.9606" lon="21.73165">
        <ele>101.650709</ele>
        <time>2020-10-07T21:28:33.977Z</time>
      </trkpt>
      <trkpt lat="52.96046" lon="21.73146">
        <ele>101.855277</ele>
        <time>2020-10-07T21:28:37.958Z</time>
      </trkpt>
      <trkpt lat="52.96007" lon="21.73094">
        <ele>102.40062</ele>
        <time>2020-10-07T21:28:50.789Z</time>
      </trkpt>
      <trkpt lat="52.9595" lon="21.73042">
        <ele>103.107812</ele>
        <time>2020-10-07T21:29:09.622Z</time>
      </trkpt>
      <trkpt lat="52.95844" lon="21.7297">
        <ele>104.865239</ele>
        <time>2020-10-07T21:29:45.483Z</time>
      </trkpt>
      <trkpt lat="52.95835" lon="21.72958">
        <ele>105.055729</ele>
        <time>2020-10-07T21:29:49.297Z</time>
      </trkpt>
      <trkpt lat="52.95695" lon="21.72867">
        <ele>106.834043</ele>
        <time>2020-10-07T21:30:30.601Z</time>
      </trkpt>
      <trkpt lat="52.95668" lon="21.72855">
        <ele>106.984561</ele>
        <time>2020-10-07T21:30:37.130Z</time>
      </trkpt>
      <trkpt lat="52.95652" lon="21.72855">
        <ele>107.071003</ele>
        <time>2020-10-07T21:30:40.770Z</time>
      </trkpt>
      <trkpt lat="52.95646" lon="21.72836">
        <ele>107.142374</ele>
        <time>2020-10-07T21:30:43.903Z</time>
      </trkpt>
      <trkpt lat="52.95194" lon="21.72541">
        <ele>109.396582</ele>
        <time>2020-10-07T21:32:39.680Z</time>
      </trkpt>
      <trkpt lat="52.94833" lon="21.72408">
        <ele>112.195894</ele>
        <time>2020-10-07T21:34:14.782Z</time>
      </trkpt>
      <trkpt lat="52.948" lon="21.7239">
        <ele>112.409555</ele>
        <time>2020-10-07T21:34:23.506Z</time>
      </trkpt>
      <trkpt lat="52.94607" lon="21.72231">
        <ele>113.138116</ele>
        <time>2020-10-07T21:35:14.076Z</time>
      </trkpt>
      <trkpt lat="52.9458" lon="21.72202">
        <ele>113.201829</ele>
        <time>2020-10-07T21:35:21.512Z</time>
      </trkpt>
      <trkpt lat="52.94302" lon="21.71972">
        <ele>113.445963</ele>
        <time>2020-10-07T21:36:33.166Z</time>
      </trkpt>
      <trkpt lat="52.94273" lon="21.71943">
        <ele>113.521849</ele>
        <time>2020-10-07T21:36:41.806Z</time>
      </trkpt>
      <trkpt lat="52.94128" lon="21.71707">
        <ele>115.272191</ele>
        <time>2020-10-07T21:37:37.727Z</time>
      </trkpt>
      <trkpt lat="52.94096" lon="21.71655">
        <ele>115.330956</ele>
        <time>2020-10-07T21:37:48.844Z</time>
      </trkpt>
      <trkpt lat="52.94024" lon="21.71535">
        <ele>115.467037</ele>
        <time>2020-10-07T21:38:12.611Z</time>
      </trkpt>
      <trkpt lat="52.94014" lon="21.71513">
        <ele>115.488863</ele>
        <time>2020-10-07T21:38:16.106Z</time>
      </trkpt>
      <trkpt lat="52.93734" lon="21.71361">
        <ele>113.902365</ele>
        <time>2020-10-07T21:39:18.726Z</time>
      </trkpt>
      <trkpt lat="52.93218" lon="21.71087">
        <ele>111.132215</ele>
        <time>2020-10-07T21:41:13.962Z</time>
      </trkpt>
      <trkpt lat="52.9283" lon="21.7088">
        <ele>111.500949</ele>
        <time>2020-10-07T21:42:51.602Z</time>
      </trkpt>
      <trkpt lat="52.927" lon="21.70754">
        <ele>111.561882</ele>
        <time>2020-10-07T21:43:26.039Z</time>
      </trkpt>
      <trkpt lat="52.92693" lon="21.70748">
        <ele>111.563765</ele>
        <time>2020-10-07T21:43:27.723Z</time>
      </trkpt>
      <trkpt lat="52.92662" lon="21.70726">
        <ele>111.572426</ele>
        <time>2020-10-07T21:43:35.727Z</time>
      </trkpt>
      <trkpt lat="52.92436" lon="21.70653">
        <ele>112.33594</ele>
        <time>2020-10-07T21:44:33.006Z</time>
      </trkpt>
      <trkpt lat="52.92303" lon="21.70615">
        <ele>112.693253</ele>
        <time>2020-10-07T21:45:05.413Z</time>
      </trkpt>
      <trkpt lat="52.92154" lon="21.70567">
        <ele>113.028968</ele>
        <time>2020-10-07T21:45:41.464Z</time>
      </trkpt>
      <trkpt lat="52.91951" lon="21.70485">
        <ele>113.543238</ele>
        <time>2020-10-07T21:46:32.477Z</time>
      </trkpt>
      <trkpt lat="52.91728" lon="21.70361">
        <ele>113.685737</ele>
        <time>2020-10-07T21:47:27.385Z</time>
      </trkpt>
      <trkpt lat="52.91549" lon="21.70294">
        <ele>113.86353</ele>
        <time>2020-10-07T21:48:10.068Z</time>
      </trkpt>
      <trkpt lat="52.9149" lon="21.70253">
        <ele>114.03706</ele>
        <time>2020-10-07T21:48:25.669Z</time>
      </trkpt>
      <trkpt lat="52.91437" lon="21.70204">
        <ele>114.210494</ele>
        <time>2020-10-07T21:48:40.904Z</time>
      </trkpt>
      <trkpt lat="52.91386" lon="21.70143">
        <ele>114.645527</ele>
        <time>2020-10-07T21:48:56.993Z</time>
      </trkpt>
      <trkpt lat="52.91063" lon="21.69705">
        <ele>117.587291</ele>
        <time>2020-10-07T21:50:46.178Z</time>
      </trkpt>
      <trkpt lat="52.90725" lon="21.69369">
        <ele>120.335599</ele>
        <time>2020-10-07T21:52:28.668Z</time>
      </trkpt>
      <trkpt lat="52.90493" lon="21.69013">
        <ele>121.656358</ele>
        <time>2020-10-07T21:53:48.630Z</time>
      </trkpt>
      <trkpt lat="52.90416" lon="21.68926">
        <ele>121.671208</ele>
        <time>2020-10-07T21:54:09.333Z</time>
      </trkpt>
      <trkpt lat="52.90377" lon="21.68909">
        <ele>121.495876</ele>
        <time>2020-10-07T21:54:17.666Z</time>
      </trkpt>
      <trkpt lat="52.90243" lon="21.68899">
        <ele>120.929973</ele>
        <time>2020-10-07T21:54:46.673Z</time>
      </trkpt>
      <trkpt lat="52.90205" lon="21.68892">
        <ele>120.826637</ele>
        <time>2020-10-07T21:54:54.866Z</time>
      </trkpt>
      <trkpt lat="52.90176" lon="21.68876">
        <ele>120.742239</ele>
        <time>2020-10-07T21:55:01.614Z</time>
      </trkpt>
      <trkpt lat="52.90118" lon="21.68799">
        <ele>120.537756</ele>
        <time>2020-10-07T21:55:18.371Z</time>
      </trkpt>
      <trkpt lat="52.90087" lon="21.68777">
        <ele>120.478465</ele>
        <time>2020-10-07T21:55:26.265Z</time>
      </trkpt>
      <trkpt lat="52.90038" lon="21.68762">
        <ele>120.436897</ele>
        <time>2020-10-07T21:55:37.439Z</time>
      </trkpt>
      <trkpt lat="52.8985" lon="21.68755">
        <ele>120.404455</ele>
        <time>2020-10-07T21:56:20.672Z</time>
      </trkpt>
      <trkpt lat="52.89807" lon="21.68736">
        <ele>120.440193</ele>
        <time>2020-10-07T21:56:31.506Z</time>
      </trkpt>
      <trkpt lat="52.89661" lon="21.68639">
        <ele>120.047532</ele>
        <time>2020-10-07T21:57:08.413Z</time>
      </trkpt>
      <trkpt lat="52.89466" lon="21.6851">
        <ele>118.274848</ele>
        <time>2020-10-07T21:57:50.728Z</time>
      </trkpt>
      <trkpt lat="52.89327" lon="21.68444">
        <ele>116.711859</ele>
        <time>2020-10-07T21:58:19.037Z</time>
      </trkpt>
      <trkpt lat="52.89263" lon="21.68393">
        <ele>115.959464</ele>
        <time>2020-10-07T21:58:33.220Z</time>
      </trkpt>
      <trkpt lat="52.88963" lon="21.67973">
        <ele>113.687168</ele>
        <time>2020-10-07T21:59:57.355Z</time>
      </trkpt>
      <trkpt lat="52.88925" lon="21.67953">
        <ele>113.43168</ele>
        <time>2020-10-07T22:00:06.199Z</time>
      </trkpt>
      <trkpt lat="52.88828" lon="21.67938">
        <ele>112.82208</ele>
        <time>2020-10-07T22:00:26.478Z</time>
      </trkpt>
      <trkpt lat="52.88745" lon="21.67934">
        <ele>112.325835</ele>
        <time>2020-10-07T22:00:43.756Z</time>
      </trkpt>
      <trkpt lat="52.88693" lon="21.67932">
        <ele>112.026595</ele>
        <time>2020-10-07T22:00:54.484Z</time>
      </trkpt>
      <trkpt lat="52.88506" lon="21.67946">
        <ele>111.618716</ele>
        <time>2020-10-07T22:01:36.139Z</time>
      </trkpt>
      <trkpt lat="52.8832" lon="21.67973">
        <ele>112.239393</ele>
        <time>2020-10-07T22:02:23.186Z</time>
      </trkpt>
      <trkpt lat="52.88179" lon="21.67995">
        <ele>113.070337</ele>
        <time>2020-10-07T22:02:59.218Z</time>
      </trkpt>
      <trkpt lat="52.88044" lon="21.68015">
        <ele>113.742154</ele>
        <time>2020-10-07T22:03:34.427Z</time>
      </trkpt>
      <trkpt lat="52.87992" lon="21.67907">
        <ele>113.863909</ele>
        <time>2020-10-07T22:03:54.721Z</time>
      </trkpt>
      <trkpt lat="52.87957" lon="21.67851">
        <ele>113.936469</ele>
        <time>2020-10-07T22:04:05.164Z</time>
      </trkpt>
      <trkpt lat="52.87887" lon="21.67771">
        <ele>112.617725</ele>
        <time>2020-10-07T22:04:20.865Z</time>
      </trkpt>
      <trkpt lat="52.87875" lon="21.6776">
        <ele>112.383496</ele>
        <time>2020-10-07T22:04:23.284Z</time>
      </trkpt>
      <trkpt lat="52.87792" lon="21.67667">
        <ele>110.698737</ele>
        <time>2020-10-07T22:04:40.615Z</time>
      </trkpt>
      <trkpt lat="52.877" lon="21.67564">
        <ele>108.954112</ele>
        <time>2020-10-07T22:05:00.184Z</time>
      </trkpt>
      <trkpt lat="52.877" lon="21.67564">
        <ele>108.951659</ele>
        <time>2020-10-07T22:05:00.322Z</time>
      </trkpt>
      <trkpt lat="52.87759" lon="21.67437">
        <ele>108.075896</ele>
        <time>2020-10-07T22:05:20.747Z</time>
      </trkpt>
      <trkpt lat="52.87772" lon="21.67404">
        <ele>108.080688</ele>
        <time>2020-10-07T22:05:26.077Z</time>
      </trkpt>
      <trkpt lat="52.87816" lon="21.6721">
        <ele>108.169434</ele>
        <time>2020-10-07T22:05:56.569Z</time>
      </trkpt>
      <trkpt lat="52.87831" lon="21.6719">
        <ele>108.305588</ele>
        <time>2020-10-07T22:06:01.599Z</time>
      </trkpt>
      <trkpt lat="52.87918" lon="21.6714">
        <ele>108.946045</ele>
        <time>2020-10-07T22:06:26.089Z</time>
      </trkpt>
      <trkpt lat="52.87966" lon="21.67103">
        <ele>109.31771</ele>
        <time>2020-10-07T22:06:40.371Z</time>
      </trkpt>
      <trkpt lat="52.87948" lon="21.66811">
        <ele>109.582389</ele>
        <time>2020-10-07T22:07:47.620Z</time>
      </trkpt>
      <trkpt lat="52.87943" lon="21.66776">
        <ele>109.507195</ele>
        <time>2020-10-07T22:07:55.363Z</time>
      </trkpt>
      <trkpt lat="52.87939" lon="21.66767">
        <ele>109.461466</ele>
        <time>2020-10-07T22:07:57.730Z</time>
      </trkpt>
      <trkpt lat="52.87935" lon="21.66757">
        <ele>109.408638</ele>
        <time>2020-10-07T22:08:00.249Z</time>
      </trkpt>
      <trkpt lat="52.87629" lon="21.66375">
        <ele>106.59165</ele>
        <time>2020-10-07T22:10:11.885Z</time>
      </trkpt>
      <trkpt lat="52.87551" lon="21.66278">
        <ele>105.973449</ele>
        <time>2020-10-07T22:10:45.522Z</time>
      </trkpt>
      <trkpt lat="52.87475" lon="21.66445">
        <ele>105.862459</ele>
        <time>2020-10-07T22:11:13.619Z</time>
      </trkpt>
      <trkpt lat="52.8743" lon="21.66546">
        <ele>105.941768</ele>
        <time>2020-10-07T22:11:32.317Z</time>
      </trkpt>
      <trkpt lat="52.87409" lon="21.66579">
        <ele>106.15146</ele>
        <time>2020-10-07T22:11:39.814Z</time>
      </trkpt>
      <trkpt lat="52.87357" lon="21.66638">
        <ele>106.832213</ele>
        <time>2020-10-07T22:11:57.708Z</time>
      </trkpt>
      <trkpt lat="52.87343" lon="21.66675">
        <ele>107.115391</ele>
        <time>2020-10-07T22:12:05.401Z</time>
      </trkpt>
      <trkpt lat="52.87338" lon="21.66715">
        <ele>107.380048</ele>
        <time>2020-10-07T22:12:12.336Z</time>
      </trkpt>
      <trkpt lat="52.87356" lon="21.66833">
        <ele>107.98174</ele>
        <time>2020-10-07T22:12:32.205Z</time>
      </trkpt>
      <trkpt lat="52.87364" lon="21.66914">
        <ele>108.147775</ele>
        <time>2020-10-07T22:12:44.959Z</time>
      </trkpt>
      <trkpt lat="52.87386" lon="21.6726">
        <ele>108.946439</ele>
        <time>2020-10-07T22:13:33.885Z</time>
      </trkpt>
      <trkpt lat="52.8739" lon="21.67369">
        <ele>109.222422</ele>
        <time>2020-10-07T22:13:51.279Z</time>
      </trkpt>
      <trkpt lat="52.87359" lon="21.67359">
        <ele>109.523723</ele>
        <time>2020-10-07T22:14:00.051Z</time>
      </trkpt>
      <trkpt lat="52.872" lon="21.67353">
        <ele>111.318142</ele>
        <time>2020-10-07T22:14:43.915Z</time>
      </trkpt>
      <trkpt lat="52.87165" lon="21.67335">
        <ele>111.237825</ele>
        <time>2020-10-07T22:14:52.622Z</time>
      </trkpt>
      <trkpt lat="52.87152" lon="21.67326">
        <ele>111.207661</ele>
        <time>2020-10-07T22:14:55.793Z</time>
      </trkpt>
      <trkpt lat="52.8713" lon="21.67309">
        <ele>111.154541</ele>
        <time>2020-10-07T22:15:00.900Z</time>
      </trkpt>
      <trkpt lat="52.87077" lon="21.67246">
        <ele>111.009877</ele>
        <time>2020-10-07T22:15:14.333Z</time>
      </trkpt>
      <trkpt lat="52.87026" lon="21.67172">
        <ele>110.739377</ele>
        <time>2020-10-07T22:15:27.223Z</time>
      </trkpt>
      <trkpt lat="52.8687" lon="21.66915">
        <ele>109.762127</ele>
        <time>2020-10-07T22:16:12.367Z</time>
      </trkpt>
      <trkpt lat="52.86769" lon="21.66759">
        <ele>109.967324</ele>
        <time>2020-10-07T22:16:44.154Z</time>
      </trkpt>
      <trkpt lat="52.86643" lon="21.66604">
        <ele>111.401252</ele>
        <time>2020-10-07T22:17:25.325Z</time>
      </trkpt>
      <trkpt lat="52.86343" lon="21.66328">
        <ele>117.090994</ele>
        <time>2020-10-07T22:19:06.326Z</time>
      </trkpt>
      <trkpt lat="52.86304" lon="21.66274">
        <ele>117.429298</ele>
        <time>2020-10-07T22:19:20.038Z</time>
      </trkpt>
      <trkpt lat="52.86232" lon="21.66154">
        <ele>117.838628</ele>
        <time>2020-10-07T22:19:44.373Z</time>
      </trkpt>
      <trkpt lat="52.861" lon="21.66">
        <ele>117.170028</ele>
        <time>2020-10-07T22:20:16.911Z</time>
      </trkpt>
      <trkpt lat="52.85718" lon="21.6559">
        <ele>113.86365</ele>
        <time>2020-10-07T22:21:46.233Z</time>
      </trkpt>
      <trkpt lat="52.85691" lon="21.65578">
        <ele>113.956891</ele>
        <time>2020-10-07T22:21:52.651Z</time>
      </trkpt>
      <trkpt lat="52.85652" lon="21.65578">
        <ele>114.087226</ele>
        <time>2020-10-07T22:22:02.117Z</time>
      </trkpt>
      <trkpt lat="52.85462" lon="21.6562">
        <ele>115.290825</ele>
        <time>2020-10-07T22:22:52.598Z</time>
      </trkpt>
      <trkpt lat="52.85078" lon="21.65728">
        <ele>117.357202</ele>
        <time>2020-10-07T22:24:26.685Z</time>
      </trkpt>
      <trkpt lat="52.85023" lon="21.65717">
        <ele>117.573381</ele>
        <time>2020-10-07T22:24:39.848Z</time>
      </trkpt>
      <trkpt lat="52.84946" lon="21.65678">
        <ele>117.807495</ele>
        <time>2020-10-07T22:24:58.992Z</time>
      </trkpt>
      <trkpt lat="52.84834" lon="21.65604">
        <ele>118.054823</ele>
        <time>2020-10-07T22:25:26.774Z</time>
      </trkpt>
      <trkpt lat="52.84788" lon="21.65581">
        <ele>118.084939</ele>
        <time>2020-10-07T22:25:37.642Z</time>
      </trkpt>
      <trkpt lat="52.84715" lon="21.65546">
        <ele>118.132681</ele>
        <time>2020-10-07T22:25:54.625Z</time>
      </trkpt>
      <trkpt lat="52.84764" lon="21.65326">
        <ele>117.90154</ele>
        <time>2020-10-07T22:26:46.281Z</time>
      </trkpt>
      <trkpt lat="52.84763" lon="21.65295">
        <ele>117.867029</ele>
        <time>2020-10-07T22:26:53.140Z</time>
      </trkpt>
      <trkpt lat="52.8475" lon="21.65233">
        <ele>117.795804</ele>
        <time>2020-10-07T22:27:07.410Z</time>
      </trkpt>
      <trkpt lat="52.84708" lon="21.65108">
        <ele>117.640988</ele>
        <time>2020-10-07T22:27:38.866Z</time>
      </trkpt>
      <trkpt lat="52.84707" lon="21.65083">
        <ele>117.613982</ele>
        <time>2020-10-07T22:27:44.346Z</time>
      </trkpt>
      <trkpt lat="52.84709" lon="21.65049">
        <ele>117.577394</ele>
        <time>2020-10-07T22:27:51.765Z</time>
      </trkpt>
      <trkpt lat="52.84769" lon="21.64737">
        <ele>117.445939</ele>
        <time>2020-10-07T22:29:04.783Z</time>
      </trkpt>
      <trkpt lat="52.84776" lon="21.64691">
        <ele>117.437262</ele>
        <time>2020-10-07T22:29:15.744Z</time>
      </trkpt>
      <trkpt lat="52.8471" lon="21.64659">
        <ele>117.448538</ele>
        <time>2020-10-07T22:29:41.701Z</time>
      </trkpt>
      <trkpt lat="52.84325" lon="21.64436">
        <ele>117.532235</ele>
        <time>2020-10-07T22:32:13.119Z</time>
      </trkpt>
      <trkpt lat="52.83952" lon="21.6422">
        <ele>118.008749</ele>
        <time>2020-10-07T22:34:41.139Z</time>
      </trkpt>
      <trkpt lat="52.83935" lon="21.642">
        <ele>118.051485</ele>
        <time>2020-10-07T22:34:49.026Z</time>
      </trkpt>
      <trkpt lat="52.839" lon="21.64102">
        <ele>118.398207</ele>
        <time>2020-10-07T22:35:16.720Z</time>
      </trkpt>
      <trkpt lat="52.8388" lon="21.64061">
        <ele>118.569727</ele>
        <time>2020-10-07T22:35:29.379Z</time>
      </trkpt>
      <trkpt lat="52.83856" lon="21.64029">
        <ele>118.736667</ele>
        <time>2020-10-07T22:35:41.630Z</time>
      </trkpt>
      <trkpt lat="52.83807" lon="21.63944">
        <ele>119.069101</ele>
        <time>2020-10-07T22:36:09.276Z</time>
      </trkpt>
      <trkpt lat="52.83686" lon="21.63654">
        <ele>119.621619</ele>
        <time>2020-10-07T22:37:29.079Z</time>
      </trkpt>
      <trkpt lat="52.83641" lon="21.63448">
        <ele>120.284723</ele>
        <time>2020-10-07T22:38:22.034Z</time>
      </trkpt>
      <trkpt lat="52.83633" lon="21.63409">
        <ele>120.244422</ele>
        <time>2020-10-07T22:38:32.320Z</time>
      </trkpt>
      <trkpt lat="52.83633" lon="21.63349">
        <ele>120.180829</ele>
        <time>2020-10-07T22:38:46.446Z</time>
      </trkpt>
      <trkpt lat="52.83628" lon="21.6331">
        <ele>120.13902</ele>
        <time>2020-10-07T22:38:55.452Z</time>
      </trkpt>
      <trkpt lat="52.83609" lon="21.63238">
        <ele>120.056532</ele>
        <time>2020-10-07T22:39:13.043Z</time>
      </trkpt>
      <trkpt lat="52.83599" lon="21.63158">
        <ele>119.939397</ele>
        <time>2020-10-07T22:39:29.847Z</time>
      </trkpt>
      <trkpt lat="52.83534" lon="21.63022">
        <ele>118.093199</ele>
        <time>2020-10-07T22:40:02.906Z</time>
      </trkpt>
      <trkpt lat="52.83523" lon="21.63002">
        <ele>117.801877</ele>
        <time>2020-10-07T22:40:07.890Z</time>
      </trkpt>
      <trkpt lat="52.83518" lon="21.62953">
        <ele>117.263649</ele>
        <time>2020-10-07T22:40:17.514Z</time>
      </trkpt>
      <trkpt lat="52.83501" lon="21.62868">
        <ele>116.554324</ele>
        <time>2020-10-07T22:40:34.808Z</time>
      </trkpt>
      <trkpt lat="52.83492" lon="21.62834">
        <ele>116.356302</ele>
        <time>2020-10-07T22:40:42.120Z</time>
      </trkpt>
      <trkpt lat="52.83488" lon="21.62805">
        <ele>116.202043</ele>
        <time>2020-10-07T22:40:48.283Z</time>
      </trkpt>
      <trkpt lat="52.83463" lon="21.62688">
        <ele>115.557523</ele>
        <time>2020-10-07T22:41:14.239Z</time>
      </trkpt>
      <trkpt lat="52.83454" lon="21.62671">
        <ele>115.436898</ele>
        <time>2020-10-07T22:41:19.357Z</time>
      </trkpt>
      <trkpt lat="52.83431" lon="21.62622">
        <ele>115.245267</ele>
        <time>2020-10-07T22:41:33.099Z</time>
      </trkpt>
      <trkpt lat="52.83368" lon="21.62503">
        <ele>115.318279</ele>
        <time>2020-10-07T22:42:09.941Z</time>
      </trkpt>
      <trkpt lat="52.83115" lon="21.62295">
        <ele>115.23188</ele>
        <time>2020-10-07T22:43:54.299Z</time>
      </trkpt>
      <trkpt lat="52.83072" lon="21.6226">
        <ele>115.139305</ele>
        <time>2020-10-07T22:44:11.372Z</time>
      </trkpt>
      <trkpt lat="52.82966" lon="21.622">
        <ele>114.922368</ele>
        <time>2020-10-07T22:44:51.847Z</time>
      </trkpt>
      <trkpt lat="52.82831" lon="21.62091">
        <ele>114.654156</ele>
        <time>2020-10-07T22:45:46.962Z</time>
      </trkpt>
      <trkpt lat="52.82772" lon="21.62036">
        <ele>114.58082</ele>
        <time>2020-10-07T22:46:11.685Z</time>
      </trkpt>
      <trkpt lat="52.82707" lon="21.61958">
        <ele>114.511565</ele>
        <time>2020-10-07T22:46:41.182Z</time>
      </trkpt>
      <trkpt lat="52.82664" lon="21.61906">
        <ele>114.459504</ele>
        <time>2020-10-07T22:47:00.889Z</time>
      </trkpt>
      <trkpt lat="52.82624" lon="21.61856">
        <ele>114.333957</ele>
        <time>2020-10-07T22:47:19.271Z</time>
      </trkpt>
      <trkpt lat="52.8261" lon="21.6184">
        <ele>114.292235</ele>
        <time>2020-10-07T22:47:25.541Z</time>
      </trkpt>
      <trkpt lat="52.82551" lon="21.61775">
        <ele>114.116524</ele>
        <time>2020-10-07T22:47:50.922Z</time>
      </trkpt>
      <trkpt lat="52.82487" lon="21.61705">
        <ele>114.041948</ele>
        <time>2020-10-07T22:48:17.970Z</time>
      </trkpt>
      <trkpt lat="52.82387" lon="21.61585">
        <ele>114.105833</ele>
        <time>2020-10-07T22:49:04.046Z</time>
      </trkpt>
      <trkpt lat="52.82361" lon="21.61557">
        <ele>114.215892</ele>
        <time>2020-10-07T22:49:16.792Z</time>
      </trkpt>
      <trkpt lat="52.82242" lon="21.61436">
        <ele>115.243189</ele>
        <time>2020-10-07T22:50:14.182Z</time>
      </trkpt>
      <trkpt lat="52.82128" lon="21.6127">
        <ele>115.251802</ele>
        <time>2020-10-07T22:51:11.408Z</time>
      </trkpt>
      <trkpt lat="52.82112" lon="21.61258">
        <ele>115.226623</ele>
        <time>2020-10-07T22:51:17.277Z</time>
      </trkpt>
      <trkpt lat="52.82096" lon="21.61246">
        <ele>115.200946</ele>
        <time>2020-10-07T22:51:23.185Z</time>
      </trkpt>
      <trkpt lat="52.82012" lon="21.61131">
        <ele>114.430886</ele>
        <time>2020-10-07T22:52:00.479Z</time>
      </trkpt>
      <trkpt lat="52.81869" lon="21.60963">
        <ele>112.804572</ele>
        <time>2020-10-07T22:53:00.748Z</time>
      </trkpt>
      <trkpt lat="52.8166" lon="21.60815">
        <ele>110.728714</ele>
        <time>2020-10-07T22:54:16.316Z</time>
      </trkpt>
      <trkpt lat="52.81653" lon="21.60811">
        <ele>110.666233</ele>
        <time>2020-10-07T22:54:18.889Z</time>
      </trkpt>
      <trkpt lat="52.81442" lon="21.60691">
        <ele>110.870681</ele>
        <time>2020-10-07T22:55:44.586Z</time>
      </trkpt>
      <trkpt lat="52.81369" lon="21.60661">
        <ele>111.055584</ele>
        <time>2020-10-07T22:56:14.226Z</time>
      </trkpt>
      <trkpt lat="52.81324" lon="21.60651">
        <ele>111.168811</ele>
        <time>2020-10-07T22:56:31.748Z</time>
      </trkpt>
      <trkpt lat="52.81267" lon="21.60658">
        <ele>111.293271</ele>
        <time>2020-10-07T22:56:53.047Z</time>
      </trkpt>
      <trkpt lat="52.81228" lon="21.60665">
        <ele>110.945911</ele>
        <time>2020-10-07T22:57:06.474Z</time>
      </trkpt>
      <trkpt lat="52.81152" lon="21.60679">
        <ele>110.25573</ele>
        <time>2020-10-07T22:57:32.509Z</time>
      </trkpt>
      <trkpt lat="52.81112" lon="21.60682">
        <ele>109.888689</ele>
        <time>2020-10-07T22:57:46.088Z</time>
      </trkpt>
      <trkpt lat="52.81109" lon="21.60676">
        <ele>109.85041</ele>
        <time>2020-10-07T22:57:47.386Z</time>
      </trkpt>
      <trkpt lat="52.81044" lon="21.60558">
        <ele>108.83722</ele>
        <time>2020-10-07T22:58:19.577Z</time>
      </trkpt>
      <trkpt lat="52.81015" lon="21.60507">
        <ele>108.38538</ele>
        <time>2020-10-07T22:58:33.569Z</time>
      </trkpt>
      <trkpt lat="52.80984" lon="21.60449">
        <ele>107.879528</ele>
        <time>2020-10-07T22:58:49.657Z</time>
      </trkpt>
      <trkpt lat="52.80924" lon="21.60349">
        <ele>107.272103</ele>
        <time>2020-10-07T22:59:19.236Z</time>
      </trkpt>
      <trkpt lat="52.80872" lon="21.60233">
        <ele>106.701837</ele>
        <time>2020-10-07T22:59:49.802Z</time>
      </trkpt>
      <trkpt lat="52.80861" lon="21.60217">
        <ele>106.607288</ele>
        <time>2020-10-07T22:59:54.983Z</time>
      </trkpt>
      <trkpt lat="52.8085" lon="21.60206">
        <ele>106.528585</ele>
        <time>2020-10-07T22:59:59.723Z</time>
      </trkpt>
      <trkpt lat="52.80667" lon="21.60139">
        <ele>105.501961</ele>
        <time>2020-10-07T23:01:05.577Z</time>
      </trkpt>
      <trkpt lat="52.80613" lon="21.60107">
        <ele>105.205496</ele>
        <time>2020-10-07T23:01:25.610Z</time>
      </trkpt>
      <trkpt lat="52.80601" lon="21.601">
        <ele>105.139695</ele>
        <time>2020-10-07T23:01:30.073Z</time>
      </trkpt>
      <trkpt lat="52.80487" lon="21.6003">
        <ele>104.559799</ele>
        <time>2020-10-07T23:02:13.081Z</time>
      </trkpt>
      <trkpt lat="52.80466" lon="21.60003">
        <ele>104.472525</ele>
        <time>2020-10-07T23:02:22.450Z</time>
      </trkpt>
      <trkpt lat="52.80343" lon="21.5979">
        <ele>103.975231</ele>
        <time>2020-10-07T23:03:26.936Z</time>
      </trkpt>
      <trkpt lat="52.80252" lon="21.59548">
        <ele>103.944268</ele>
        <time>2020-10-07T23:04:29.900Z</time>
      </trkpt>
      <trkpt lat="52.80197" lon="21.59352">
        <ele>104.409112</ele>
        <time>2020-10-07T23:05:20.785Z</time>
      </trkpt>
      <trkpt lat="52.80194" lon="21.59345">
        <ele>104.435816</ele>
        <time>2020-10-07T23:05:23.001Z</time>
      </trkpt>
      <trkpt lat="52.80182" lon="21.59318">
        <ele>104.634553</ele>
        <time>2020-10-07T23:05:31.075Z</time>
      </trkpt>
      <trkpt lat="52.80156" lon="21.59281">
        <ele>104.985205</ele>
        <time>2020-10-07T23:05:45.308Z</time>
      </trkpt>
      <trkpt lat="52.8013" lon="21.59193">
        <ele>105.583377</ele>
        <time>2020-10-07T23:06:10.350Z</time>
      </trkpt>
      <trkpt lat="52.80107" lon="21.59084">
        <ele>106.255617</ele>
        <time>2020-10-07T23:06:39.462Z</time>
      </trkpt>
      <trkpt lat="52.801" lon="21.58973">
        <ele>106.528279</ele>
        <time>2020-10-07T23:07:06.311Z</time>
      </trkpt>
      <trkpt lat="52.80099" lon="21.58965">
        <ele>106.547453</ele>
        <time>2020-10-07T23:07:08.526Z</time>
      </trkpt>
      <trkpt lat="52.80095" lon="21.58943">
        <ele>106.605419</ele>
        <time>2020-10-07T23:07:14.049Z</time>
      </trkpt>
      <trkpt lat="52.80094" lon="21.58938">
        <ele>106.617573</ele>
        <time>2020-10-07T23:07:15.064Z</time>
      </trkpt>
      <trkpt lat="52.80054" lon="21.58798">
        <ele>106.929316</ele>
        <time>2020-10-07T23:07:50.568Z</time>
      </trkpt>
      <trkpt lat="52.80028" lon="21.5873">
        <ele>106.720053</ele>
        <time>2020-10-07T23:08:08.040Z</time>
      </trkpt>
      <trkpt lat="52.7984" lon="21.58429">
        <ele>105.612289</ele>
        <time>2020-10-07T23:09:39.747Z</time>
      </trkpt>
      <trkpt lat="52.79829" lon="21.58401">
        <ele>105.527474</ele>
        <time>2020-10-07T23:09:47.138Z</time>
      </trkpt>
      <trkpt lat="52.79802" lon="21.58289">
        <ele>105.319822</ele>
        <time>2020-10-07T23:10:14.457Z</time>
      </trkpt>
      <trkpt lat="52.79791" lon="21.58262">
        <ele>105.276321</ele>
        <time>2020-10-07T23:10:21.672Z</time>
      </trkpt>
      <trkpt lat="52.79776" lon="21.58245">
        <ele>105.236112</ele>
        <time>2020-10-07T23:10:28.227Z</time>
      </trkpt>
      <trkpt lat="52.79768" lon="21.58234">
        <ele>105.211269</ele>
        <time>2020-10-07T23:10:32.311Z</time>
      </trkpt>
      <trkpt lat="52.79743" lon="21.58199">
        <ele>105.137577</ele>
        <time>2020-10-07T23:10:44.246Z</time>
      </trkpt>
      <trkpt lat="52.79712" lon="21.58151">
        <ele>105.04294</ele>
        <time>2020-10-07T23:10:59.286Z</time>
      </trkpt>
      <trkpt lat="52.79676" lon="21.58113">
        <ele>104.566826</ele>
        <time>2020-10-07T23:11:14.095Z</time>
      </trkpt>
      <trkpt lat="52.79655" lon="21.58101">
        <ele>104.295506</ele>
        <time>2020-10-07T23:11:18.634Z</time>
      </trkpt>
      <trkpt lat="52.79624" lon="21.58063">
        <ele>103.830413</ele>
        <time>2020-10-07T23:11:31.229Z</time>
      </trkpt>
      <trkpt lat="52.79612" lon="21.58056">
        <ele>103.678747</ele>
        <time>2020-10-07T23:11:35.235Z</time>
      </trkpt>
      <trkpt lat="52.79589" lon="21.58031">
        <ele>103.342546</ele>
        <time>2020-10-07T23:11:44.225Z</time>
      </trkpt>
      <trkpt lat="52.79585" lon="21.58028">
        <ele>103.286669</ele>
        <time>2020-10-07T23:11:45.603Z</time>
      </trkpt>
      <trkpt lat="52.79578" lon="21.58017">
        <ele>103.177424</ele>
        <time>2020-10-07T23:11:48.579Z</time>
      </trkpt>
      <trkpt lat="52.79563" lon="21.57983">
        <ele>102.869071</ele>
        <time>2020-10-07T23:11:56.794Z</time>
      </trkpt>
      <trkpt lat="52.79538" lon="21.57927">
        <ele>102.563845</ele>
        <time>2020-10-07T23:12:10.721Z</time>
      </trkpt>
      <trkpt lat="52.79496" lon="21.57828">
        <ele>102.056552</ele>
        <time>2020-10-07T23:12:35.363Z</time>
      </trkpt>
      <trkpt lat="52.79484" lon="21.57801">
        <ele>101.918748</ele>
        <time>2020-10-07T23:12:42.545Z</time>
      </trkpt>
      <trkpt lat="52.79433" lon="21.57688">
        <ele>101.871159</ele>
        <time>2020-10-07T23:13:15.459Z</time>
      </trkpt>
      <trkpt lat="52.79402" lon="21.57648">
        <ele>102.148418</ele>
        <time>2020-10-07T23:13:31.612Z</time>
      </trkpt>
      <trkpt lat="52.79364" lon="21.57617">
        <ele>102.443289</ele>
        <time>2020-10-07T23:13:49.114Z</time>
      </trkpt>
      <trkpt lat="52.79348" lon="21.57605">
        <ele>102.560103</ele>
        <time>2020-10-07T23:13:56.228Z</time>
      </trkpt>
      <trkpt lat="52.79312" lon="21.57562">
        <ele>102.848273</ele>
        <time>2020-10-07T23:14:14.597Z</time>
      </trkpt>
      <trkpt lat="52.79215" lon="21.5737">
        <ele>102.723202</ele>
        <time>2020-10-07T23:15:10.583Z</time>
      </trkpt>
      <trkpt lat="52.79201" lon="21.5735">
        <ele>102.707241</ele>
        <time>2020-10-07T23:15:17.281Z</time>
      </trkpt>
      <trkpt lat="52.7918" lon="21.57324">
        <ele>102.514181</ele>
        <time>2020-10-07T23:15:25.819Z</time>
      </trkpt>
      <trkpt lat="52.79118" lon="21.57242">
        <ele>101.722358</ele>
        <time>2020-10-07T23:15:52.651Z</time>
      </trkpt>
      <trkpt lat="52.79077" lon="21.572">
        <ele>101.241505</ele>
        <time>2020-10-07T23:16:08.674Z</time>
      </trkpt>
      <trkpt lat="52.79036" lon="21.57142">
        <ele>100.76258</ele>
        <time>2020-10-07T23:16:26.915Z</time>
      </trkpt>
      <trkpt lat="52.78989" lon="21.57099">
        <ele>100.369175</ele>
        <time>2020-10-07T23:16:45.419Z</time>
      </trkpt>
      <trkpt lat="52.78935" lon="21.57037">
        <ele>99.880494</ele>
        <time>2020-10-07T23:17:08.550Z</time>
      </trkpt>
      <trkpt lat="52.78867" lon="21.56986">
        <ele>99.385582</ele>
        <time>2020-10-07T23:17:34.497Z</time>
      </trkpt>
      <trkpt lat="52.7884" lon="21.56966">
        <ele>99.208319</ele>
        <time>2020-10-07T23:17:44.902Z</time>
      </trkpt>
      <trkpt lat="52.78769" lon="21.56904">
        <ele>98.734777</ele>
        <time>2020-10-07T23:18:12.612Z</time>
      </trkpt>
      <trkpt lat="52.78739" lon="21.56879">
        <ele>98.538771</ele>
        <time>2020-10-07T23:18:24.342Z</time>
      </trkpt>
      <trkpt lat="52.78727" lon="21.56872">
        <ele>98.579121</ele>
        <time>2020-10-07T23:18:27.276Z</time>
      </trkpt>
      <trkpt lat="52.78695" lon="21.56858">
        <ele>98.70977</ele>
        <time>2020-10-07T23:18:34.640Z</time>
      </trkpt>
      <trkpt lat="52.7868" lon="21.56858">
        <ele>98.770272</ele>
        <time>2020-10-07T23:18:38.207Z</time>
      </trkpt>
      <trkpt lat="52.7867" lon="21.56858">
        <ele>98.813024</ele>
        <time>2020-10-07T23:18:40.649Z</time>
      </trkpt>
      <trkpt lat="52.78658" lon="21.56859">
        <ele>98.860655</ele>
        <time>2020-10-07T23:18:45.110Z</time>
      </trkpt>
      <trkpt lat="52.7864" lon="21.56865">
        <ele>98.933779</ele>
        <time>2020-10-07T23:18:52.074Z</time>
      </trkpt>
      <trkpt lat="52.78624" lon="21.5683">
        <ele>99.040952</ele>
        <time>2020-10-07T23:19:02.358Z</time>
      </trkpt>
      <trkpt lat="52.78522" lon="21.56604">
        <ele>100.641968</ele>
        <time>2020-10-07T23:20:14.883Z</time>
      </trkpt>
      <trkpt lat="52.78493" lon="21.5656">
        <ele>101.106099</ele>
        <time>2020-10-07T23:20:31.381Z</time>
      </trkpt>
      <trkpt lat="52.78474" lon="21.56516">
        <ele>101.361139</ele>
        <time>2020-10-07T23:20:44.446Z</time>
      </trkpt>
      <trkpt lat="52.78458" lon="21.56457">
        <ele>101.27163</ele>
        <time>2020-10-07T23:21:00.155Z</time>
      </trkpt>
      <trkpt lat="52.78451" lon="21.56415">
        <ele>101.212764</ele>
        <time>2020-10-07T23:21:10.050Z</time>
      </trkpt>
      <trkpt lat="52.78401" lon="21.56192">
        <ele>100.466032</ele>
        <time>2020-10-07T23:21:59.657Z</time>
      </trkpt>
      <trkpt lat="52.78311" lon="21.55868">
        <ele>97.598585</ele>
        <time>2020-10-07T23:23:10.074Z</time>
      </trkpt>
      <trkpt lat="52.78306" lon="21.55818">
        <ele>97.181004</ele>
        <time>2020-10-07T23:23:20.202Z</time>
      </trkpt>
      <trkpt lat="52.78274" lon="21.55718">
        <ele>96.25847</ele>
        <time>2020-10-07T23:23:42.766Z</time>
      </trkpt>
      <trkpt lat="52.78216" lon="21.55565">
        <ele>94.951184</ele>
        <time>2020-10-07T23:24:19.417Z</time>
      </trkpt>
      <trkpt lat="52.78199" lon="21.55506">
        <ele>94.481869</ele>
        <time>2020-10-07T23:24:32.641Z</time>
      </trkpt>
      <trkpt lat="52.78174" lon="21.55454">
        <ele>94.008845</ele>
        <time>2020-10-07T23:24:46.084Z</time>
      </trkpt>
      <trkpt lat="52.78149" lon="21.55328">
        <ele>93.320253</ele>
        <time>2020-10-07T23:25:12.810Z</time>
      </trkpt>
      <trkpt lat="52.78122" lon="21.55312">
        <ele>93.07013</ele>
        <time>2020-10-07T23:25:18.359Z</time>
      </trkpt>
      <trkpt lat="52.78093" lon="21.55287">
        <ele>92.792448</ele>
        <time>2020-10-07T23:25:24.713Z</time>
      </trkpt>
      <trkpt lat="52.77984" lon="21.55223">
        <ele>92.977753</ele>
        <time>2020-10-07T23:25:49.951Z</time>
      </trkpt>
      <trkpt lat="52.77966" lon="21.5521">
        <ele>93.099191</ele>
        <time>2020-10-07T23:25:55.184Z</time>
      </trkpt>
      <trkpt lat="52.77912" lon="21.55176">
        <ele>93.450249</ele>
        <time>2020-10-07T23:26:11.085Z</time>
      </trkpt>
      <trkpt lat="52.77848" lon="21.55135">
        <ele>93.908598</ele>
        <time>2020-10-07T23:26:30.173Z</time>
      </trkpt>
      <trkpt lat="52.77808" lon="21.55113">
        <ele>94.202645</ele>
        <time>2020-10-07T23:26:41.925Z</time>
      </trkpt>
      <trkpt lat="52.77543" lon="21.5497">
        <ele>94.618684</ele>
        <time>2020-10-07T23:27:44.352Z</time>
      </trkpt>
      <trkpt lat="52.77315" lon="21.54845">
        <ele>92.56909</ele>
        <time>2020-10-07T23:28:30.359Z</time>
      </trkpt>
      <trkpt lat="52.77246" lon="21.54805">
        <ele>92.061264</ele>
        <time>2020-10-07T23:28:45.063Z</time>
      </trkpt>
      <trkpt lat="52.77236" lon="21.54796">
        <ele>91.984178</ele>
        <time>2020-10-07T23:28:47.361Z</time>
      </trkpt>
      <trkpt lat="52.77235" lon="21.54792">
        <ele>91.968239</ele>
        <time>2020-10-07T23:28:47.846Z</time>
      </trkpt>
      <trkpt lat="52.77234" lon="21.5479">
        <ele>91.9514</ele>
        <time>2020-10-07T23:28:48.337Z</time>
      </trkpt>
      <trkpt lat="52.77231" lon="21.54788">
        <ele>91.935069</ele>
        <time>2020-10-07T23:28:48.829Z</time>
      </trkpt>
      <trkpt lat="52.77229" lon="21.54788">
        <ele>91.918438</ele>
        <time>2020-10-07T23:28:49.331Z</time>
      </trkpt>
      <trkpt lat="52.77227" lon="21.5479">
        <ele>91.902418</ele>
        <time>2020-10-07T23:28:49.830Z</time>
      </trkpt>
      <trkpt lat="52.77218" lon="21.54789">
        <ele>91.842663</ele>
        <time>2020-10-07T23:28:51.625Z</time>
      </trkpt>
      <trkpt lat="52.77183" lon="21.54772">
        <ele>91.913083</ele>
        <time>2020-10-07T23:28:59.473Z</time>
      </trkpt>
      <trkpt lat="52.77032" lon="21.54688">
        <ele>92.622382</ele>
        <time>2020-10-07T23:29:37.898Z</time>
      </trkpt>
      <trkpt lat="52.76936" lon="21.54643">
        <ele>93.795371</ele>
        <time>2020-10-07T23:30:06.055Z</time>
      </trkpt>
      <trkpt lat="52.76927" lon="21.54631">
        <ele>93.93242</ele>
        <time>2020-10-07T23:30:09.349Z</time>
      </trkpt>
      <trkpt lat="52.76915" lon="21.5464">
        <ele>94.081355</ele>
        <time>2020-10-07T23:30:12.835Z</time>
      </trkpt>
      <trkpt lat="52.76834" lon="21.54611">
        <ele>94.748567</ele>
        <time>2020-10-07T23:30:35.378Z</time>
      </trkpt>
      <trkpt lat="52.76802" lon="21.54609">
        <ele>94.857913</ele>
        <time>2020-10-07T23:30:48.517Z</time>
      </trkpt>
      <trkpt lat="52.76663" lon="21.54608">
        <ele>95.053042</ele>
        <time>2020-10-07T23:31:39.473Z</time>
      </trkpt>
      <trkpt lat="52.76631" lon="21.54604">
        <ele>94.850257</ele>
        <time>2020-10-07T23:31:50.385Z</time>
      </trkpt>
      <trkpt lat="52.76552" lon="21.54604">
        <ele>94.34276</ele>
        <time>2020-10-07T23:32:17.654Z</time>
      </trkpt>
      <trkpt lat="52.76361" lon="21.54651">
        <ele>93.12113</ele>
        <time>2020-10-07T23:33:24.358Z</time>
      </trkpt>
      <trkpt lat="52.76258" lon="21.54678">
        <ele>93.155355</ele>
        <time>2020-10-07T23:34:02.393Z</time>
      </trkpt>
      <trkpt lat="52.76216" lon="21.54688">
        <ele>93.265696</ele>
        <time>2020-10-07T23:34:12.870Z</time>
      </trkpt>
      <trkpt lat="52.76173" lon="21.54699">
        <ele>93.381873</ele>
        <time>2020-10-07T23:34:24.221Z</time>
      </trkpt>
      <trkpt lat="52.7616" lon="21.54702">
        <ele>93.415979</ele>
        <time>2020-10-07T23:34:27.886Z</time>
      </trkpt>
      <trkpt lat="52.76142" lon="21.54713">
        <ele>93.511386</ele>
        <time>2020-10-07T23:34:32.589Z</time>
      </trkpt>
      <trkpt lat="52.76136" lon="21.54726">
        <ele>93.56281</ele>
        <time>2020-10-07T23:34:35.234Z</time>
      </trkpt>
      <trkpt lat="52.76129" lon="21.54737">
        <ele>93.617079</ele>
        <time>2020-10-07T23:34:37.891Z</time>
      </trkpt>
      <trkpt lat="52.76119" lon="21.54744">
        <ele>93.676573</ele>
        <time>2020-10-07T23:34:40.430Z</time>
      </trkpt>
      <trkpt lat="52.76108" lon="21.54749">
        <ele>93.743202</ele>
        <time>2020-10-07T23:34:43.592Z</time>
      </trkpt>
      <trkpt lat="52.761" lon="21.54752">
        <ele>93.788745</ele>
        <time>2020-10-07T23:34:46.004Z</time>
      </trkpt>
      <trkpt lat="52.75849" lon="21.54933">
        <ele>94.751865</ele>
        <time>2020-10-07T23:35:51.057Z</time>
      </trkpt>
      <trkpt lat="52.75794" lon="21.54958">
        <ele>94.54968</ele>
        <time>2020-10-07T23:36:02.843Z</time>
      </trkpt>
      <trkpt lat="52.75543" lon="21.54979">
        <ele>92.988651</ele>
        <time>2020-10-07T23:36:52.206Z</time>
      </trkpt>
      <trkpt lat="52.75509" lon="21.54982">
        <ele>92.793448</ele>
        <time>2020-10-07T23:36:59.235Z</time>
      </trkpt>
      <trkpt lat="52.7522" lon="21.5496">
        <ele>93.039124</ele>
        <time>2020-10-07T23:38:04.471Z</time>
      </trkpt>
      <trkpt lat="52.75079" lon="21.54946">
        <ele>93.883999</ele>
        <time>2020-10-07T23:38:40.596Z</time>
      </trkpt>
      <trkpt lat="52.74855" lon="21.54924">
        <ele>95.854376</ele>
        <time>2020-10-07T23:39:37.914Z</time>
      </trkpt>
      <trkpt lat="52.74695" lon="21.54913">
        <ele>97.892049</ele>
        <time>2020-10-07T23:40:20.897Z</time>
      </trkpt>
      <trkpt lat="52.74533" lon="21.54884">
        <ele>100.55061</ele>
        <time>2020-10-07T23:41:10.598Z</time>
      </trkpt>
      <trkpt lat="52.74488" lon="21.54864">
        <ele>101.155122</ele>
        <time>2020-10-07T23:41:24.170Z</time>
      </trkpt>
      <trkpt lat="52.74475" lon="21.54852">
        <ele>101.350409</ele>
        <time>2020-10-07T23:41:29.024Z</time>
      </trkpt>
      <trkpt lat="52.74467" lon="21.54846">
        <ele>101.466693</ele>
        <time>2020-10-07T23:41:31.360Z</time>
      </trkpt>
      <trkpt lat="52.74301" lon="21.54671">
        <ele>102.075949</ele>
        <time>2020-10-07T23:42:17.349Z</time>
      </trkpt>
      <trkpt lat="52.74258" lon="21.54639">
        <ele>101.972632</ele>
        <time>2020-10-07T23:42:26.202Z</time>
      </trkpt>
      <trkpt lat="52.74226" lon="21.54628">
        <ele>101.683647</ele>
        <time>2020-10-07T23:42:32.148Z</time>
      </trkpt>
      <trkpt lat="52.74221" lon="21.54629">
        <ele>101.625262</ele>
        <time>2020-10-07T23:42:33.192Z</time>
      </trkpt>
      <trkpt lat="52.74201" lon="21.54596">
        <ele>101.34861</ele>
        <time>2020-10-07T23:42:38.296Z</time>
      </trkpt>
      <trkpt lat="52.74096" lon="21.54453">
        <ele>100.140828</ele>
        <time>2020-10-07T23:43:04.718Z</time>
      </trkpt>
      <trkpt lat="52.74047" lon="21.54424">
        <ele>100.088137</ele>
        <time>2020-10-07T23:43:16.725Z</time>
      </trkpt>
      <trkpt lat="52.73926" lon="21.54381">
        <ele>99.976168</ele>
        <time>2020-10-07T23:43:44.653Z</time>
      </trkpt>
      <trkpt lat="52.73954" lon="21.54264">
        <ele>99.977815</ele>
        <time>2020-10-07T23:44:02.371Z</time>
      </trkpt>
      <trkpt lat="52.73977" lon="21.54187">
        <ele>99.978937</ele>
        <time>2020-10-07T23:44:14.078Z</time>
      </trkpt>
      <trkpt lat="52.73979" lon="21.54181">
        <ele>99.979029</ele>
        <time>2020-10-07T23:44:15.041Z</time>
      </trkpt>
      <trkpt lat="52.73995" lon="21.54107">
        <ele>100.114616</ele>
        <time>2020-10-07T23:44:25.734Z</time>
      </trkpt>
      <trkpt lat="52.73982" lon="21.53953">
        <ele>101.078131</ele>
        <time>2020-10-07T23:44:50.280Z</time>
      </trkpt>
      <trkpt lat="52.73964" lon="21.53888">
        <ele>101.516154</ele>
        <time>2020-10-07T23:45:03.204Z</time>
      </trkpt>
      <trkpt lat="52.73935" lon="21.53809">
        <ele>102.242626</ele>
        <time>2020-10-07T23:45:20.485Z</time>
      </trkpt>
      <trkpt lat="52.73911" lon="21.53769">
        <ele>102.796547</ele>
        <time>2020-10-07T23:45:31.190Z</time>
      </trkpt>
      <trkpt lat="52.73808" lon="21.53643">
        <ele>104.72651</ele>
        <time>2020-10-07T23:46:09.045Z</time>
      </trkpt>
      <trkpt lat="52.73783" lon="21.53602">
        <ele>104.805185</ele>
        <time>2020-10-07T23:46:18.628Z</time>
      </trkpt>
      <trkpt lat="52.73703" lon="21.53406">
        <ele>105.079205</ele>
        <time>2020-10-07T23:46:51.151Z</time>
      </trkpt>
      <trkpt lat="52.73696" lon="21.53394">
        <ele>105.048144</ele>
        <time>2020-10-07T23:46:53.002Z</time>
      </trkpt>
      <trkpt lat="52.73592" lon="21.53209">
        <ele>104.564896</ele>
        <time>2020-10-07T23:47:26.804Z</time>
      </trkpt>
      <trkpt lat="52.73574" lon="21.53169">
        <ele>104.467582</ele>
        <time>2020-10-07T23:47:33.728Z</time>
      </trkpt>
      <trkpt lat="52.73563" lon="21.53109">
        <ele>104.344699</ele>
        <time>2020-10-07T23:47:42.221Z</time>
      </trkpt>
      <trkpt lat="52.73561" lon="21.531">
        <ele>104.32497</ele>
        <time>2020-10-07T23:47:43.969Z</time>
      </trkpt>
      <trkpt lat="52.73553" lon="21.53049">
        <ele>104.222453</ele>
        <time>2020-10-07T23:47:50.721Z</time>
      </trkpt>
      <trkpt lat="52.73522" lon="21.52923">
        <ele>103.95331</ele>
        <time>2020-10-07T23:48:08.926Z</time>
      </trkpt>
      <trkpt lat="52.73519" lon="21.52914">
        <ele>103.90507</ele>
        <time>2020-10-07T23:48:10.069Z</time>
      </trkpt>
      <trkpt lat="52.73504" lon="21.52869">
        <ele>103.630247</ele>
        <time>2020-10-07T23:48:16.890Z</time>
      </trkpt>
      <trkpt lat="52.73422" lon="21.52697">
        <ele>102.469695</ele>
        <time>2020-10-07T23:48:43.627Z</time>
      </trkpt>
      <trkpt lat="52.73387" lon="21.52602">
        <ele>101.601996</ele>
        <time>2020-10-07T23:48:57.225Z</time>
      </trkpt>
      <trkpt lat="52.73368" lon="21.52551">
        <ele>101.102613</ele>
        <time>2020-10-07T23:49:04.531Z</time>
      </trkpt>
      <trkpt lat="52.73361" lon="21.52531">
        <ele>100.912224</ele>
        <time>2020-10-07T23:49:07.216Z</time>
      </trkpt>
      <trkpt lat="52.73333" lon="21.52417">
        <ele>99.886843</ele>
        <time>2020-10-07T23:49:21.440Z</time>
      </trkpt>
      <trkpt lat="52.73308" lon="21.52342">
        <ele>98.905258</ele>
        <time>2020-10-07T23:49:30.989Z</time>
      </trkpt>
      <trkpt lat="52.73266" lon="21.52266">
        <ele>97.732154</ele>
        <time>2020-10-07T23:49:42.377Z</time>
      </trkpt>
      <trkpt lat="52.73236" lon="21.52219">
        <ele>96.952541</ele>
        <time>2020-10-07T23:49:49.675Z</time>
      </trkpt>
      <trkpt lat="52.73205" lon="21.52161">
        <ele>96.323284</ele>
        <time>2020-10-07T23:49:58.173Z</time>
      </trkpt>
      <trkpt lat="52.73203" lon="21.52156">
        <ele>96.293327</ele>
        <time>2020-10-07T23:49:58.827Z</time>
      </trkpt>
      <trkpt lat="52.73141" lon="21.52038">
        <ele>95.521723</ele>
        <time>2020-10-07T23:50:17.449Z</time>
      </trkpt>
      <trkpt lat="52.73098" lon="21.51981">
        <ele>95.073639</ele>
        <time>2020-10-07T23:50:29.141Z</time>
      </trkpt>
      <trkpt lat="52.73077" lon="21.51948">
        <ele>94.981939</ele>
        <time>2020-10-07T23:50:35.773Z</time>
      </trkpt>
      <trkpt lat="52.7306" lon="21.51918">
        <ele>94.91949</ele>
        <time>2020-10-07T23:50:41.348Z</time>
      </trkpt>
      <trkpt lat="52.72985" lon="21.51765">
        <ele>94.613816</ele>
        <time>2020-10-07T23:51:07.107Z</time>
      </trkpt>
      <trkpt lat="52.72899" lon="21.51613">
        <ele>93.919548</ele>
        <time>2020-10-07T23:51:31.711Z</time>
      </trkpt>
      <trkpt lat="52.72832" lon="21.51518">
        <ele>93.593482</ele>
        <time>2020-10-07T23:51:50.398Z</time>
      </trkpt>
      <trkpt lat="52.72795" lon="21.5143">
        <ele>93.700461</ele>
        <time>2020-10-07T23:52:05.251Z</time>
      </trkpt>
      <trkpt lat="52.72786" lon="21.51407">
        <ele>93.728413</ele>
        <time>2020-10-07T23:52:09.863Z</time>
      </trkpt>
      <trkpt lat="52.72739" lon="21.51287">
        <ele>93.86917</ele>
        <time>2020-10-07T23:52:29.650Z</time>
      </trkpt>
      <trkpt lat="52.72722" lon="21.51256">
        <ele>93.90654</ele>
        <time>2020-10-07T23:52:36.267Z</time>
      </trkpt>
      <trkpt lat="52.72717" lon="21.51248">
        <ele>93.91603</ele>
        <time>2020-10-07T23:52:37.466Z</time>
      </trkpt>
      <trkpt lat="52.72652" lon="21.51134">
        <ele>94.056188</ele>
        <time>2020-10-07T23:52:59.690Z</time>
      </trkpt>
      <trkpt lat="52.72624" lon="21.51097">
        <ele>94.108922</ele>
        <time>2020-10-07T23:53:07.367Z</time>
      </trkpt>
      <trkpt lat="52.72338" lon="21.50762">
        <ele>93.278771</ele>
        <time>2020-10-07T23:54:21.808Z</time>
      </trkpt>
      <trkpt lat="52.72259" lon="21.50673">
        <ele>93.24513</ele>
        <time>2020-10-07T23:54:43.527Z</time>
      </trkpt>
      <trkpt lat="52.72222" lon="21.50628">
        <ele>93.244258</ele>
        <time>2020-10-07T23:54:53.994Z</time>
      </trkpt>
      <trkpt lat="52.72188" lon="21.50576">
        <ele>93.24339</ele>
        <time>2020-10-07T23:55:04.344Z</time>
      </trkpt>
      <trkpt lat="52.72076" lon="21.50392">
        <ele>93.070484</ele>
        <time>2020-10-07T23:55:38.374Z</time>
      </trkpt>
      <trkpt lat="52.72024" lon="21.50307">
        <ele>93.166115</ele>
        <time>2020-10-07T23:55:54.858Z</time>
      </trkpt>
      <trkpt lat="52.71985" lon="21.50243">
        <ele>93.314434</ele>
        <time>2020-10-07T23:56:07.578Z</time>
      </trkpt>
      <trkpt lat="52.71959" lon="21.50199">
        <ele>93.41558</ele>
        <time>2020-10-07T23:56:16.395Z</time>
      </trkpt>
      <trkpt lat="52.71953" lon="21.50186">
        <ele>93.442253</ele>
        <time>2020-10-07T23:56:18.842Z</time>
      </trkpt>
      <trkpt lat="52.71925" lon="21.50129">
        <ele>93.569681</ele>
        <time>2020-10-07T23:56:29.699Z</time>
      </trkpt>
      <trkpt lat="52.71847" lon="21.49971">
        <ele>93.967183</ele>
        <time>2020-10-07T23:56:59.846Z</time>
      </trkpt>
      <trkpt lat="52.71764" lon="21.49751">
        <ele>93.849237</ele>
        <time>2020-10-07T23:57:34.037Z</time>
      </trkpt>
      <trkpt lat="52.71587" lon="21.49371">
        <ele>93.018484</ele>
        <time>2020-10-07T23:58:34.389Z</time>
      </trkpt>
      <trkpt lat="52.7156" lon="21.4932">
        <ele>93.093259</ele>
        <time>2020-10-07T23:58:43.722Z</time>
      </trkpt>
      <trkpt lat="52.71535" lon="21.49279">
        <ele>93.158014</ele>
        <time>2020-10-07T23:58:52.105Z</time>
      </trkpt>
      <trkpt lat="52.7149" lon="21.49211">
        <ele>93.273918</ele>
        <time>2020-10-07T23:59:06.871Z</time>
      </trkpt>
      <trkpt lat="52.71439" lon="21.49124">
        <ele>93.698791</ele>
        <time>2020-10-07T23:59:25.461Z</time>
      </trkpt>
      <trkpt lat="52.71346" lon="21.48944">
        <ele>94.485241</ele>
        <time>2020-10-08T00:00:00.217Z</time>
      </trkpt>
      <trkpt lat="52.71273" lon="21.48783">
        <ele>95.073825</ele>
        <time>2020-10-08T00:00:29.117Z</time>
      </trkpt>
      <trkpt lat="52.71147" lon="21.48457">
        <ele>97.845636</ele>
        <time>2020-10-08T00:01:30.010Z</time>
      </trkpt>
      <trkpt lat="52.71065" lon="21.48182">
        <ele>102.838282</ele>
        <time>2020-10-08T00:02:34.542Z</time>
      </trkpt>
      <trkpt lat="52.71003" lon="21.4805">
        <ele>105.90671</ele>
        <time>2020-10-08T00:03:11.787Z</time>
      </trkpt>
      <trkpt lat="52.70777" lon="21.47466">
        <ele>114.15049</ele>
        <time>2020-10-08T00:05:16.632Z</time>
      </trkpt>
      <trkpt lat="52.70754" lon="21.47384">
        <ele>114.975214</ele>
        <time>2020-10-08T00:05:31.570Z</time>
      </trkpt>
      <trkpt lat="52.70726" lon="21.47327">
        <ele>115.653461</ele>
        <time>2020-10-08T00:05:43.916Z</time>
      </trkpt>
      <trkpt lat="52.70638" lon="21.47215">
        <ele>117.585319</ele>
        <time>2020-10-08T00:06:15.336Z</time>
      </trkpt>
      <trkpt lat="52.70568" lon="21.47093">
        <ele>119.641604</ele>
        <time>2020-10-08T00:06:47.597Z</time>
      </trkpt>
      <trkpt lat="52.70491" lon="21.46904">
        <ele>121.48342</ele>
        <time>2020-10-08T00:07:29.394Z</time>
      </trkpt>
      <trkpt lat="52.70391" lon="21.46298">
        <ele>121.78167</ele>
        <time>2020-10-08T00:08:52.100Z</time>
      </trkpt>
      <trkpt lat="52.70256" lon="21.4566">
        <ele>120.152456</ele>
        <time>2020-10-08T00:10:17.446Z</time>
      </trkpt>
      <trkpt lat="52.70235" lon="21.45563">
        <ele>119.876977</ele>
        <time>2020-10-08T00:10:30.877Z</time>
      </trkpt>
      <trkpt lat="52.70167" lon="21.45093">
        <ele>118.264485</ele>
        <time>2020-10-08T00:11:30.719Z</time>
      </trkpt>
      <trkpt lat="52.70075" lon="21.4467">
        <ele>116.233109</ele>
        <time>2020-10-08T00:12:22.795Z</time>
      </trkpt>
      <trkpt lat="52.70047" lon="21.44592">
        <ele>116.168974</ele>
        <time>2020-10-08T00:12:35.670Z</time>
      </trkpt>
      <trkpt lat="52.70015" lon="21.44527">
        <ele>116.551449</ele>
        <time>2020-10-08T00:12:49.424Z</time>
      </trkpt>
      <trkpt lat="52.70012" lon="21.4452">
        <ele>116.686508</ele>
        <time>2020-10-08T00:12:50.996Z</time>
      </trkpt>
      <trkpt lat="52.69971" lon="21.44437">
        <ele>118.289265</ele>
        <time>2020-10-08T00:13:11.387Z</time>
      </trkpt>
      <trkpt lat="52.69934" lon="21.44322">
        <ele>120.251243</ele>
        <time>2020-10-08T00:13:39.458Z</time>
      </trkpt>
      <trkpt lat="52.69901" lon="21.44107">
        <ele>122.884772</ele>
        <time>2020-10-08T00:14:24.324Z</time>
      </trkpt>
      <trkpt lat="52.69903" lon="21.43748">
        <ele>123.885596</ele>
        <time>2020-10-08T00:15:14.214Z</time>
      </trkpt>
      <trkpt lat="52.69898" lon="21.43528">
        <ele>122.457877</ele>
        <time>2020-10-08T00:15:39.334Z</time>
      </trkpt>
      <trkpt lat="52.6988" lon="21.43027">
        <ele>117.509208</ele>
        <time>2020-10-08T00:16:34.795Z</time>
      </trkpt>
      <trkpt lat="52.69868" lon="21.42953">
        <ele>116.540557</ele>
        <time>2020-10-08T00:16:42.790Z</time>
      </trkpt>
      <trkpt lat="52.69843" lon="21.42837">
        <ele>114.992299</ele>
        <time>2020-10-08T00:16:55.671Z</time>
      </trkpt>
      <trkpt lat="52.69835" lon="21.42775">
        <ele>114.578675</ele>
        <time>2020-10-08T00:17:02.310Z</time>
      </trkpt>
      <trkpt lat="52.68692" lon="21.42472">
        <ele>103.184415</ele>
        <time>2020-10-08T00:20:46.730Z</time>
      </trkpt>
      <trkpt lat="52.68659" lon="21.42338">
        <ele>102.692658</ele>
        <time>2020-10-08T00:21:05.315Z</time>
      </trkpt>
      <trkpt lat="52.6861" lon="21.4216">
        <ele>102.552505</ele>
        <time>2020-10-08T00:21:31.416Z</time>
      </trkpt>
      <trkpt lat="52.68603" lon="21.42144">
        <ele>102.538183</ele>
        <time>2020-10-08T00:21:34.113Z</time>
      </trkpt>
      <trkpt lat="52.68591" lon="21.42127">
        <ele>102.519373</ele>
        <time>2020-10-08T00:21:37.641Z</time>
      </trkpt>
      <trkpt lat="52.6852" lon="21.42075">
        <ele>102.775344</ele>
        <time>2020-10-08T00:21:54.910Z</time>
      </trkpt>
      <trkpt lat="52.68498" lon="21.42054">
        <ele>102.878583</ele>
        <time>2020-10-08T00:22:00.711Z</time>
      </trkpt>
      <trkpt lat="52.68494" lon="21.41875">
        <ele>103.525577</ele>
        <time>2020-10-08T00:22:28.168Z</time>
      </trkpt>
      <trkpt lat="52.68494" lon="21.41835">
        <ele>103.863596</ele>
        <time>2020-10-08T00:22:34.756Z</time>
      </trkpt>
      <trkpt lat="52.68336" lon="21.41738">
        <ele>106.142653</ele>
        <time>2020-10-08T00:23:22.911Z</time>
      </trkpt>
      <trkpt lat="52.68314" lon="21.41733">
        <ele>106.398309</ele>
        <time>2020-10-08T00:23:29.238Z</time>
      </trkpt>
      <trkpt lat="52.68314" lon="21.41663">
        <ele>106.89335</ele>
        <time>2020-10-08T00:23:41.638Z</time>
      </trkpt>
      <trkpt lat="52.68309" lon="21.41634">
        <ele>107.106334</ele>
        <time>2020-10-08T00:23:46.944Z</time>
      </trkpt>
      <trkpt lat="52.68301" lon="21.41617">
        <ele>107.256766</ele>
        <time>2020-10-08T00:23:50.679Z</time>
      </trkpt>
      <trkpt lat="52.68275" lon="21.41575">
        <ele>107.678145</ele>
        <time>2020-10-08T00:24:00.836Z</time>
      </trkpt>
      <trkpt lat="52.67955" lon="21.4115">
        <ele>111.293425</ele>
        <time>2020-10-08T00:25:57.435Z</time>
      </trkpt>
      <trkpt lat="52.67854" lon="21.41056">
        <ele>111.834881</ele>
        <time>2020-10-08T00:26:28.309Z</time>
      </trkpt>
      <trkpt lat="52.67488" lon="21.40813">
        <ele>112.012496</ele>
        <time>2020-10-08T00:28:06.179Z</time>
      </trkpt>
      <trkpt lat="52.67373" lon="21.40721">
        <ele>111.641761</ele>
        <time>2020-10-08T00:28:36.259Z</time>
      </trkpt>
      <trkpt lat="52.67298" lon="21.40658">
        <ele>111.520437</ele>
        <time>2020-10-08T00:28:55.896Z</time>
      </trkpt>
      <trkpt lat="52.67193" lon="21.40581">
        <ele>111.544198</ele>
        <time>2020-10-08T00:29:24.481Z</time>
      </trkpt>
      <trkpt lat="52.67083" lon="21.4051">
        <ele>112.644178</ele>
        <time>2020-10-08T00:29:56.828Z</time>
      </trkpt>
      <trkpt lat="52.66848" lon="21.40302">
        <ele>116.980092</ele>
        <time>2020-10-08T00:31:21.966Z</time>
      </trkpt>
      <trkpt lat="52.66817" lon="21.40274">
        <ele>117.482916</ele>
        <time>2020-10-08T00:31:34.023Z</time>
      </trkpt>
      <trkpt lat="52.66765" lon="21.40229">
        <ele>118.296577</ele>
        <time>2020-10-08T00:31:53.049Z</time>
      </trkpt>
      <trkpt lat="52.66728" lon="21.40174">
        <ele>118.986663</ele>
        <time>2020-10-08T00:32:08.408Z</time>
      </trkpt>
      <trkpt lat="52.66639" lon="21.39997">
        <ele>118.817904</ele>
        <time>2020-10-08T00:32:42.840Z</time>
      </trkpt>
      <trkpt lat="52.66616" lon="21.39921">
        <ele>118.483946</ele>
        <time>2020-10-08T00:32:53.649Z</time>
      </trkpt>
      <trkpt lat="52.66503" lon="21.39449">
        <ele>113.254287</ele>
        <time>2020-10-08T00:33:55.079Z</time>
      </trkpt>
      <trkpt lat="52.66459" lon="21.393">
        <ele>112.165453</ele>
        <time>2020-10-08T00:34:16.574Z</time>
      </trkpt>
      <trkpt lat="52.66412" lon="21.39172">
        <ele>112.532242</ele>
        <time>2020-10-08T00:34:40.012Z</time>
      </trkpt>
      <trkpt lat="52.66366" lon="21.39065">
        <ele>113.019017</ele>
        <time>2020-10-08T00:35:03.735Z</time>
      </trkpt>
      <trkpt lat="52.66324" lon="21.38964">
        <ele>114.190696</ele>
        <time>2020-10-08T00:35:26.933Z</time>
      </trkpt>
      <trkpt lat="52.66272" lon="21.38861">
        <ele>115.477239</ele>
        <time>2020-10-08T00:35:52.769Z</time>
      </trkpt>
      <trkpt lat="52.66204" lon="21.38769">
        <ele>116.526723</ele>
        <time>2020-10-08T00:36:20.201Z</time>
      </trkpt>
      <trkpt lat="52.66071" lon="21.38582">
        <ele>117.352145</ele>
        <time>2020-10-08T00:37:09.097Z</time>
      </trkpt>
      <trkpt lat="52.65926" lon="21.38399">
        <ele>116.091189</ele>
        <time>2020-10-08T00:37:47.341Z</time>
      </trkpt>
      <trkpt lat="52.659" lon="21.38354">
        <ele>115.721928</ele>
        <time>2020-10-08T00:37:55.167Z</time>
      </trkpt>
      <trkpt lat="52.6585" lon="21.38226">
        <ele>115.322321</ele>
        <time>2020-10-08T00:38:16.604Z</time>
      </trkpt>
      <trkpt lat="52.65818" lon="21.38158">
        <ele>115.842201</ele>
        <time>2020-10-08T00:38:31.127Z</time>
      </trkpt>
      <trkpt lat="52.65661" lon="21.37899">
        <ele>118.492693</ele>
        <time>2020-10-08T00:39:40.505Z</time>
      </trkpt>
      <trkpt lat="52.65595" lon="21.37723">
        <ele>120.212081</ele>
        <time>2020-10-08T00:40:15.952Z</time>
      </trkpt>
      <trkpt lat="52.65576" lon="21.37637">
        <ele>120.968364</ele>
        <time>2020-10-08T00:40:32.289Z</time>
      </trkpt>
      <trkpt lat="52.65556" lon="21.37475">
        <ele>122.564387</ele>
        <time>2020-10-08T00:41:05.008Z</time>
      </trkpt>
      <trkpt lat="52.65531" lon="21.37324">
        <ele>124.38459</ele>
        <time>2020-10-08T00:41:38.022Z</time>
      </trkpt>
      <trkpt lat="52.6551" lon="21.37231">
        <ele>125.207765</ele>
        <time>2020-10-08T00:41:56.533Z</time>
      </trkpt>
      <trkpt lat="52.65448" lon="21.36952">
        <ele>124.943295</ele>
        <time>2020-10-08T00:42:38.987Z</time>
      </trkpt>
      <trkpt lat="52.65431" lon="21.36888">
        <ele>124.538619</ele>
        <time>2020-10-08T00:42:48.012Z</time>
      </trkpt>
      <trkpt lat="52.65396" lon="21.36807">
        <ele>123.971052</ele>
        <time>2020-10-08T00:43:00.816Z</time>
      </trkpt>
      <trkpt lat="52.6538" lon="21.36759">
        <ele>123.654319</ele>
        <time>2020-10-08T00:43:08.062Z</time>
      </trkpt>
      <trkpt lat="52.65355" lon="21.36628">
        <ele>123.213735</ele>
        <time>2020-10-08T00:43:26.681Z</time>
      </trkpt>
      <trkpt lat="52.65347" lon="21.36526">
        <ele>123.013044</ele>
        <time>2020-10-08T00:43:41.072Z</time>
      </trkpt>
      <trkpt lat="52.65334" lon="21.36436">
        <ele>122.830337</ele>
        <time>2020-10-08T00:43:55.395Z</time>
      </trkpt>
      <trkpt lat="52.65316" lon="21.36363">
        <ele>123.120055</ele>
        <time>2020-10-08T00:44:08.172Z</time>
      </trkpt>
      <trkpt lat="52.65297" lon="21.36296">
        <ele>123.436195</ele>
        <time>2020-10-08T00:44:20.516Z</time>
      </trkpt>
      <trkpt lat="52.65229" lon="21.36081">
        <ele>124.063643</ele>
        <time>2020-10-08T00:45:02.192Z</time>
      </trkpt>
      <trkpt lat="52.65202" lon="21.35985">
        <ele>124.02259</ele>
        <time>2020-10-08T00:45:19.131Z</time>
      </trkpt>
      <trkpt lat="52.65126" lon="21.3562">
        <ele>121.19905</ele>
        <time>2020-10-08T00:46:08.601Z</time>
      </trkpt>
      <trkpt lat="52.65082" lon="21.35442">
        <ele>117.12544</ele>
        <time>2020-10-08T00:46:29.698Z</time>
      </trkpt>
      <trkpt lat="52.65023" lon="21.35233">
        <ele>112.685463</ele>
        <time>2020-10-08T00:46:54.412Z</time>
      </trkpt>
      <trkpt lat="52.65002" lon="21.35183">
        <ele>111.67729</ele>
        <time>2020-10-08T00:47:01.173Z</time>
      </trkpt>
      <trkpt lat="52.64724" lon="21.34678">
        <ele>105.879743</ele>
        <time>2020-10-08T00:48:29.832Z</time>
      </trkpt>
      <trkpt lat="52.64665" lon="21.34566">
        <ele>105.365941</ele>
        <time>2020-10-08T00:48:48.107Z</time>
      </trkpt>
      <trkpt lat="52.64436" lon="21.34155">
        <ele>104.539005</ele>
        <time>2020-10-08T00:50:00.051Z</time>
      </trkpt>
      <trkpt lat="52.64183" lon="21.33839">
        <ele>106.587286</ele>
        <time>2020-10-08T00:51:17.837Z</time>
      </trkpt>
      <trkpt lat="52.63923" lon="21.33502">
        <ele>115.145641</ele>
        <time>2020-10-08T00:53:10.100Z</time>
      </trkpt>
      <trkpt lat="52.63887" lon="21.33455">
        <ele>115.74751</ele>
        <time>2020-10-08T00:53:24.210Z</time>
      </trkpt>
      <trkpt lat="52.6351" lon="21.3286">
        <ele>116.014967</ele>
        <time>2020-10-08T00:55:18.957Z</time>
      </trkpt>
      <trkpt lat="52.6318" lon="21.32339">
        <ele>111.505956</ele>
        <time>2020-10-08T00:56:49.192Z</time>
      </trkpt>
      <trkpt lat="52.62907" lon="21.3219">
        <ele>104.337757</ele>
        <time>2020-10-08T00:57:36.529Z</time>
      </trkpt>
      <trkpt lat="52.62884" lon="21.32174">
        <ele>103.980202</ele>
        <time>2020-10-08T00:57:41.155Z</time>
      </trkpt>
      <trkpt lat="52.62877" lon="21.3217">
        <ele>103.876249</ele>
        <time>2020-10-08T00:57:42.495Z</time>
      </trkpt>
      <trkpt lat="52.62807" lon="21.32129">
        <ele>102.807534</ele>
        <time>2020-10-08T00:57:57.136Z</time>
      </trkpt>
      <trkpt lat="52.62509" lon="21.31962">
        <ele>102.376492</ele>
        <time>2020-10-08T00:59:10.942Z</time>
      </trkpt>
      <trkpt lat="52.62403" lon="21.31897">
        <ele>102.375954</ele>
        <time>2020-10-08T00:59:38.655Z</time>
      </trkpt>
      <trkpt lat="52.62508" lon="21.31112">
        <ele>100.053719</ele>
        <time>2020-10-08T01:01:22.698Z</time>
      </trkpt>
      <trkpt lat="52.62559" lon="21.30751">
        <ele>99.80471</ele>
        <time>2020-10-08T01:02:14.389Z</time>
      </trkpt>
      <trkpt lat="52.62561" lon="21.3073">
        <ele>99.828564</ele>
        <time>2020-10-08T01:02:17.528Z</time>
      </trkpt>
      <trkpt lat="52.62559" lon="21.30704">
        <ele>99.856856</ele>
        <time>2020-10-08T01:02:21.168Z</time>
      </trkpt>
      <trkpt lat="52.62548" lon="21.30683">
        <ele>99.886876</ele>
        <time>2020-10-08T01:02:25.055Z</time>
      </trkpt>
      <trkpt lat="52.62205" lon="21.30257">
        <ele>100.944385</ele>
        <time>2020-10-08T01:04:08.256Z</time>
      </trkpt>
      <trkpt lat="52.61726" lon="21.29817">
        <ele>105.382744</ele>
        <time>2020-10-08T01:06:34.505Z</time>
      </trkpt>
      <trkpt lat="52.6161" lon="21.29698">
        <ele>106.271456</ele>
        <time>2020-10-08T01:07:10.649Z</time>
      </trkpt>
      <trkpt lat="52.61054" lon="21.29177">
        <ele>108.289959</ele>
        <time>2020-10-08T01:09:46.627Z</time>
      </trkpt>
      <trkpt lat="52.60785" lon="21.28925">
        <ele>108.223293</ele>
        <time>2020-10-08T01:10:57.562Z</time>
      </trkpt>
      <trkpt lat="52.60724" lon="21.2887">
        <ele>108.347302</ele>
        <time>2020-10-08T01:11:13.652Z</time>
      </trkpt>
      <trkpt lat="52.60691" lon="21.28848">
        <ele>108.468078</ele>
        <time>2020-10-08T01:11:22.291Z</time>
      </trkpt>
      <trkpt lat="52.60597" lon="21.28824">
        <ele>108.786082</ele>
        <time>2020-10-08T01:11:46.182Z</time>
      </trkpt>
      <trkpt lat="52.60433" lon="21.28796">
        <ele>109.783797</ele>
        <time>2020-10-08T01:12:29.470Z</time>
      </trkpt>
      <trkpt lat="52.5972" lon="21.28684">
        <ele>110.556279</ele>
        <time>2020-10-08T01:15:17.586Z</time>
      </trkpt>
      <trkpt lat="52.59674" lon="21.28672">
        <ele>110.628967</ele>
        <time>2020-10-08T01:15:28.780Z</time>
      </trkpt>
      <trkpt lat="52.59645" lon="21.28657">
        <ele>110.69698</ele>
        <time>2020-10-08T01:15:36.124Z</time>
      </trkpt>
      <trkpt lat="52.59231" lon="21.28379">
        <ele>111.502645</ele>
        <time>2020-10-08T01:17:23.932Z</time>
      </trkpt>
      <trkpt lat="52.59056" lon="21.27804">
        <ele>110.687801</ele>
        <time>2020-10-08T01:18:46.639Z</time>
      </trkpt>
      <trkpt lat="52.58905" lon="21.27326">
        <ele>111.590034</ele>
        <time>2020-10-08T01:20:53.344Z</time>
      </trkpt>
      <trkpt lat="52.58826" lon="21.27048">
        <ele>111.425026</ele>
        <time>2020-10-08T01:22:01.439Z</time>
      </trkpt>
      <trkpt lat="52.58798" lon="21.26935">
        <ele>111.305827</ele>
        <time>2020-10-08T01:22:17.146Z</time>
      </trkpt>
      <trkpt lat="52.58599" lon="21.26171">
        <ele>110.615868</ele>
        <time>2020-10-08T01:24:07.702Z</time>
      </trkpt>
      <trkpt lat="52.58437" lon="21.25625">
        <ele>109.100128</ele>
        <time>2020-10-08T01:25:24.329Z</time>
      </trkpt>
      <trkpt lat="52.58425" lon="21.25584">
        <ele>109.073154</ele>
        <time>2020-10-08T01:25:30.537Z</time>
      </trkpt>
      <trkpt lat="52.58402" lon="21.25555">
        <ele>109.044578</ele>
        <time>2020-10-08T01:25:37.105Z</time>
      </trkpt>
      <trkpt lat="52.58022" lon="21.25263">
        <ele>108.824468</ele>
        <time>2020-10-08T01:27:13.589Z</time>
      </trkpt>
      <trkpt lat="52.57921" lon="21.25168">
        <ele>109.076812</ele>
        <time>2020-10-08T01:27:41.688Z</time>
      </trkpt>
      <trkpt lat="52.57844" lon="21.25105">
        <ele>109.382726</ele>
        <time>2020-10-08T01:28:03.253Z</time>
      </trkpt>
      <trkpt lat="52.57826" lon="21.25083">
        <ele>109.461234</ele>
        <time>2020-10-08T01:28:08.813Z</time>
      </trkpt>
      <trkpt lat="52.57779" lon="21.24996">
        <ele>109.668384</ele>
        <time>2020-10-08T01:28:26.230Z</time>
      </trkpt>
      <trkpt lat="52.57691" lon="21.2479">
        <ele>110.082237</ele>
        <time>2020-10-08T01:29:01.733Z</time>
      </trkpt>
      <trkpt lat="52.57493" lon="21.24355">
        <ele>110.766698</ele>
        <time>2020-10-08T01:30:18.117Z</time>
      </trkpt>
      <trkpt lat="52.57199" lon="21.23731">
        <ele>111.372936</ele>
        <time>2020-10-08T01:32:06.762Z</time>
      </trkpt>
      <trkpt lat="52.57186" lon="21.23707">
        <ele>111.415853</ele>
        <time>2020-10-08T01:32:11.386Z</time>
      </trkpt>
      <trkpt lat="52.56942" lon="21.23259">
        <ele>113.015313</ele>
        <time>2020-10-08T01:33:40.329Z</time>
      </trkpt>
      <trkpt lat="52.56354" lon="21.2341">
        <ele>112.930279</ele>
        <time>2020-10-08T01:35:51.842Z</time>
      </trkpt>
      <trkpt lat="52.56142" lon="21.23469">
        <ele>112.692522</ele>
        <time>2020-10-08T01:36:40.097Z</time>
      </trkpt>
      <trkpt lat="52.56064" lon="21.23496">
        <ele>112.361328</ele>
        <time>2020-10-08T01:36:56.328Z</time>
      </trkpt>
      <trkpt lat="52.5574" lon="21.236">
        <ele>109.966254</ele>
        <time>2020-10-08T01:38:00.336Z</time>
      </trkpt>
      <trkpt lat="52.5567" lon="21.23148">
        <ele>110.258071</ele>
        <time>2020-10-08T01:39:07.730Z</time>
      </trkpt>
      <trkpt lat="52.55509" lon="21.22148">
        <ele>110.54328</ele>
        <time>2020-10-08T01:41:28.546Z</time>
      </trkpt>
      <trkpt lat="52.55468" lon="21.21891">
        <ele>110.659232</ele>
        <time>2020-10-08T01:42:05.010Z</time>
      </trkpt>
      <trkpt lat="52.55375" lon="21.21302">
        <ele>110.812306</ele>
        <time>2020-10-08T01:43:28.192Z</time>
      </trkpt>
      <trkpt lat="52.55285" lon="21.20738">
        <ele>110.970298</ele>
        <time>2020-10-08T01:44:47.858Z</time>
      </trkpt>
      <trkpt lat="52.55271" lon="21.20647">
        <ele>110.987581</ele>
        <time>2020-10-08T01:45:00.909Z</time>
      </trkpt>
      <trkpt lat="52.55072" lon="21.19394">
        <ele>108.83928</ele>
        <time>2020-10-08T01:47:48.477Z</time>
      </trkpt>
      <trkpt lat="52.54983" lon="21.18829">
        <ele>108.049217</ele>
        <time>2020-10-08T01:49:04.989Z</time>
      </trkpt>
      <trkpt lat="52.54861" lon="21.18033">
        <ele>106.707504</ele>
        <time>2020-10-08T01:50:51.126Z</time>
      </trkpt>
      <trkpt lat="52.54821" lon="21.17788">
        <ele>106.785561</ele>
        <time>2020-10-08T01:51:25.678Z</time>
      </trkpt>
      <trkpt lat="52.54763" lon="21.1743">
        <ele>106.560311</ele>
        <time>2020-10-08T01:52:19.246Z</time>
      </trkpt>
      <trkpt lat="52.54624" lon="21.16577">
        <ele>96.309194</ele>
        <time>2020-10-08T01:53:53.426Z</time>
      </trkpt>
      <trkpt lat="52.54594" lon="21.16382">
        <ele>93.841984</ele>
        <time>2020-10-08T01:54:14.638Z</time>
      </trkpt>
      <trkpt lat="52.54593" lon="21.16372">
        <ele>93.713192</ele>
        <time>2020-10-08T01:54:15.785Z</time>
      </trkpt>
      <trkpt lat="52.54588" lon="21.16342">
        <ele>93.335862</ele>
        <time>2020-10-08T01:54:19.190Z</time>
      </trkpt>
      <trkpt lat="52.54579" lon="21.1628">
        <ele>92.944484</ele>
        <time>2020-10-08T01:54:26.315Z</time>
      </trkpt>
      <trkpt lat="52.54557" lon="21.16138">
        <ele>92.078394</ele>
        <time>2020-10-08T01:54:43.877Z</time>
      </trkpt>
      <trkpt lat="52.54331" lon="21.14707">
        <ele>87.752714</ele>
        <time>2020-10-08T01:57:49.771Z</time>
      </trkpt>
      <trkpt lat="52.54329" lon="21.14696">
        <ele>87.733837</ele>
        <time>2020-10-08T01:57:51.358Z</time>
      </trkpt>
      <trkpt lat="52.5424" lon="21.14121">
        <ele>87.629393</ele>
        <time>2020-10-08T01:59:14.001Z</time>
      </trkpt>
      <trkpt lat="52.54158" lon="21.136">
        <ele>85.022669</ele>
        <time>2020-10-08T02:00:16.999Z</time>
      </trkpt>
      <trkpt lat="52.54147" lon="21.13527">
        <ele>84.725973</ele>
        <time>2020-10-08T02:00:26.391Z</time>
      </trkpt>
      <trkpt lat="52.54058" lon="21.12954">
        <ele>85.041095</ele>
        <time>2020-10-08T02:01:48.861Z</time>
      </trkpt>
      <trkpt lat="52.54006" lon="21.12621">
        <ele>85.592416</ele>
        <time>2020-10-08T02:02:38.008Z</time>
      </trkpt>
      <trkpt lat="52.53987" lon="21.12497">
        <ele>85.80432</ele>
        <time>2020-10-08T02:02:56.233Z</time>
      </trkpt>
      <trkpt lat="52.53975" lon="21.12422">
        <ele>85.931665</ele>
        <time>2020-10-08T02:03:07.273Z</time>
      </trkpt>
      <trkpt lat="52.53966" lon="21.12364">
        <ele>86.028932</ele>
        <time>2020-10-08T02:03:15.709Z</time>
      </trkpt>
      <trkpt lat="52.53939" lon="21.12182">
        <ele>86.390984</ele>
        <time>2020-10-08T02:03:42.730Z</time>
      </trkpt>
      <trkpt lat="52.53901" lon="21.11941">
        <ele>86.63095</ele>
        <time>2020-10-08T02:04:18.423Z</time>
      </trkpt>
      <trkpt lat="52.53768" lon="21.11084">
        <ele>85.201846</ele>
        <time>2020-10-08T02:06:14.923Z</time>
      </trkpt>
      <trkpt lat="52.53708" lon="21.10699">
        <ele>81.09997</ele>
        <time>2020-10-08T02:06:57.466Z</time>
      </trkpt>
      <trkpt lat="52.53696" lon="21.10625">
        <ele>80.175125</ele>
        <time>2020-10-08T02:07:05.653Z</time>
      </trkpt>
      <trkpt lat="52.53674" lon="21.10482">
        <ele>79.240366</ele>
        <time>2020-10-08T02:07:22.209Z</time>
      </trkpt>
      <trkpt lat="52.53597" lon="21.09993">
        <ele>77.65374</ele>
        <time>2020-10-08T02:08:26.562Z</time>
      </trkpt>
      <trkpt lat="52.53551" lon="21.09696">
        <ele>77.907042</ele>
        <time>2020-10-08T02:09:08.388Z</time>
      </trkpt>
      <trkpt lat="52.53546" lon="21.09666">
        <ele>78.051003</ele>
        <time>2020-10-08T02:09:13.211Z</time>
      </trkpt>
      <trkpt lat="52.53538" lon="21.09613">
        <ele>78.30933</ele>
        <time>2020-10-08T02:09:21.902Z</time>
      </trkpt>
      <trkpt lat="52.53517" lon="21.09478">
        <ele>78.967275</ele>
        <time>2020-10-08T02:09:44.615Z</time>
      </trkpt>
      <trkpt lat="52.5351" lon="21.09432">
        <ele>79.160778</ele>
        <time>2020-10-08T02:09:52.556Z</time>
      </trkpt>
      <trkpt lat="52.53426" lon="21.08898">
        <ele>80.525306</ele>
        <time>2020-10-08T02:11:14.085Z</time>
      </trkpt>
      <trkpt lat="52.53401" lon="21.0874">
        <ele>79.099345</ele>
        <time>2020-10-08T02:11:32.330Z</time>
      </trkpt>
      <trkpt lat="52.53389" lon="21.0866">
        <ele>78.347622</ele>
        <time>2020-10-08T02:11:41.144Z</time>
      </trkpt>
      <trkpt lat="52.53373" lon="21.08549">
        <ele>77.343953</ele>
        <time>2020-10-08T02:11:53.282Z</time>
      </trkpt>
      <trkpt lat="52.5337" lon="21.08531">
        <ele>77.178344</ele>
        <time>2020-10-08T02:11:55.350Z</time>
      </trkpt>
      <trkpt lat="52.53324" lon="21.08239">
        <ele>75.355457</ele>
        <time>2020-10-08T02:12:30.179Z</time>
      </trkpt>
      <trkpt lat="52.53313" lon="21.08164">
        <ele>75.391184</ele>
        <time>2020-10-08T02:12:40.472Z</time>
      </trkpt>
      <trkpt lat="52.5331" lon="21.08146">
        <ele>75.399888</ele>
        <time>2020-10-08T02:12:43.059Z</time>
      </trkpt>
      <trkpt lat="52.53199" lon="21.07445">
        <ele>80.21928</ele>
        <time>2020-10-08T02:14:41.991Z</time>
      </trkpt>
      <trkpt lat="52.53197" lon="21.07434">
        <ele>80.378655</ele>
        <time>2020-10-08T02:14:44.717Z</time>
      </trkpt>
      <trkpt lat="52.53195" lon="21.07417">
        <ele>80.633358</ele>
        <time>2020-10-08T02:14:47.922Z</time>
      </trkpt>
      <trkpt lat="52.53191" lon="21.07395">
        <ele>80.970624</ele>
        <time>2020-10-08T02:14:52.173Z</time>
      </trkpt>
      <trkpt lat="52.53188" lon="21.07376">
        <ele>81.262343</ele>
        <time>2020-10-08T02:14:57.020Z</time>
      </trkpt>
      <trkpt lat="52.53175" lon="21.07287">
        <ele>82.603607</ele>
        <time>2020-10-08T02:15:15.107Z</time>
      </trkpt>
      <trkpt lat="52.53171" lon="21.07264">
        <ele>82.947148</ele>
        <time>2020-10-08T02:15:20.624Z</time>
      </trkpt>
      <trkpt lat="52.53165" lon="21.07222">
        <ele>83.578951</ele>
        <time>2020-10-08T02:15:28.951Z</time>
      </trkpt>
      <trkpt lat="52.53158" lon="21.07177">
        <ele>84.267663</ele>
        <time>2020-10-08T02:15:38.328Z</time>
      </trkpt>
      <trkpt lat="52.53152" lon="21.07151">
        <ele>84.55878</ele>
        <time>2020-10-08T02:15:43.959Z</time>
      </trkpt>
      <trkpt lat="52.53147" lon="21.07135">
        <ele>84.741838</ele>
        <time>2020-10-08T02:15:47.010Z</time>
      </trkpt>
      <trkpt lat="52.53142" lon="21.0712">
        <ele>84.90836</ele>
        <time>2020-10-08T02:15:49.480Z</time>
      </trkpt>
      <trkpt lat="52.53137" lon="21.07105">
        <ele>85.080004</ele>
        <time>2020-10-08T02:15:52.562Z</time>
      </trkpt>
      <trkpt lat="52.53132" lon="21.07092">
        <ele>85.234747</ele>
        <time>2020-10-08T02:15:55.244Z</time>
      </trkpt>
      <trkpt lat="52.53127" lon="21.07081">
        <ele>85.370197</ele>
        <time>2020-10-08T02:15:57.469Z</time>
      </trkpt>
      <trkpt lat="52.53122" lon="21.07068">
        <ele>85.525845</ele>
        <time>2020-10-08T02:15:59.929Z</time>
      </trkpt>
      <trkpt lat="52.53119" lon="21.0706">
        <ele>85.615923</ele>
        <time>2020-10-08T02:16:01.608Z</time>
      </trkpt>
      <trkpt lat="52.53117" lon="21.07054">
        <ele>85.682907</ele>
        <time>2020-10-08T02:16:02.894Z</time>
      </trkpt>
      <trkpt lat="52.53119" lon="21.0705">
        <ele>85.728871</ele>
        <time>2020-10-08T02:16:03.763Z</time>
      </trkpt>
      <trkpt lat="52.5312" lon="21.07046">
        <ele>85.77574</ele>
        <time>2020-10-08T02:16:04.567Z</time>
      </trkpt>
      <trkpt lat="52.53121" lon="21.0704">
        <ele>85.835273</ele>
        <time>2020-10-08T02:16:05.638Z</time>
      </trkpt>
      <trkpt lat="52.53121" lon="21.07034">
        <ele>85.894971</ele>
        <time>2020-10-08T02:16:06.640Z</time>
      </trkpt>
      <trkpt lat="52.5312" lon="21.07028">
        <ele>85.954757</ele>
        <time>2020-10-08T02:16:07.686Z</time>
      </trkpt>
      <trkpt lat="52.53119" lon="21.07022">
        <ele>86.018357</ele>
        <time>2020-10-08T02:16:08.717Z</time>
      </trkpt>
      <trkpt lat="52.5311" lon="21.0701">
        <ele>86.206568</ele>
        <time>2020-10-08T02:16:11.760Z</time>
      </trkpt>
      <trkpt lat="52.53106" lon="21.07009">
        <ele>86.270463</ele>
        <time>2020-10-08T02:16:12.815Z</time>
      </trkpt>
      <trkpt lat="52.53101" lon="21.07009">
        <ele>86.355533</ele>
        <time>2020-10-08T02:16:14.225Z</time>
      </trkpt>
      <trkpt lat="52.53096" lon="21.07012">
        <ele>86.440347</ele>
        <time>2020-10-08T02:16:15.749Z</time>
      </trkpt>
      <trkpt lat="52.53092" lon="21.07017">
        <ele>86.527525</ele>
        <time>2020-10-08T02:16:17.267Z</time>
      </trkpt>
      <trkpt lat="52.53089" lon="21.07024">
        <ele>86.613504</ele>
        <time>2020-10-08T02:16:18.714Z</time>
      </trkpt>
      <trkpt lat="52.53079" lon="21.07028">
        <ele>86.781537</ele>
        <time>2020-10-08T02:16:21.488Z</time>
      </trkpt>
      <trkpt lat="52.53073" lon="21.07028">
        <ele>86.876412</ele>
        <time>2020-10-08T02:16:23.152Z</time>
      </trkpt>
      <trkpt lat="52.53045" lon="21.07028">
        <ele>87.351415</ele>
        <time>2020-10-08T02:16:30.888Z</time>
      </trkpt>
      <trkpt lat="52.53031" lon="21.07027">
        <ele>87.657776</ele>
        <time>2020-10-08T02:16:34.998Z</time>
      </trkpt>
      <trkpt lat="52.52989" lon="21.07025">
        <ele>88.532414</ele>
        <time>2020-10-08T02:16:47.213Z</time>
      </trkpt>
      <trkpt lat="52.52968" lon="21.07023">
        <ele>88.976398</ele>
        <time>2020-10-08T02:16:53.249Z</time>
      </trkpt>
      <trkpt lat="52.52969" lon="21.07016">
        <ele>89.078953</ele>
        <time>2020-10-08T02:16:54.956Z</time>
      </trkpt>
      <trkpt lat="52.52932" lon="21.07013">
        <ele>89.862884</ele>
        <time>2020-10-08T02:17:06.002Z</time>
      </trkpt>
      <trkpt lat="52.52876" lon="21.0701">
        <ele>91.037725</ele>
        <time>2020-10-08T02:17:24.741Z</time>
      </trkpt>
      <trkpt lat="52.5287" lon="21.07002">
        <ele>91.23377</ele>
        <time>2020-10-08T02:17:27.225Z</time>
      </trkpt>
      <trkpt lat="52.52861" lon="21.07002">
        <ele>91.461336</ele>
        <time>2020-10-08T02:17:30.537Z</time>
      </trkpt>
      <trkpt lat="52.52852" lon="21.07002">
        <ele>91.696571</ele>
        <time>2020-10-08T02:17:33.695Z</time>
      </trkpt>
      <trkpt lat="52.52812" lon="21.07004">
        <ele>92.732406</ele>
        <time>2020-10-08T02:17:47.258Z</time>
      </trkpt>
      <trkpt lat="52.52804" lon="21.07004">
        <ele>92.91907</ele>
        <time>2020-10-08T02:17:49.565Z</time>
      </trkpt>
      <trkpt lat="52.52802" lon="21.07007">
        <ele>92.995217</ele>
        <time>2020-10-08T02:17:50.466Z</time>
      </trkpt>
      <trkpt lat="52.52802" lon="21.07015">
        <ele>93.128983</ele>
        <time>2020-10-08T02:17:52.183Z</time>
      </trkpt>
      <trkpt lat="52.52802" lon="21.07024">
        <ele>93.264329</ele>
        <time>2020-10-08T02:17:54.055Z</time>
      </trkpt>
      <trkpt lat="52.52802" lon="21.0703">
        <ele>93.352987</ele>
        <time>2020-10-08T02:17:55.129Z</time>
      </trkpt>
      <trkpt lat="52.52787" lon="21.07029">
        <ele>93.749468</ele>
        <time>2020-10-08T02:18:00.178Z</time>
      </trkpt>
      <trkpt lat="52.52596" lon="21.07018">
        <ele>98.246314</ele>
        <time>2020-10-08T02:19:00.385Z</time>
      </trkpt>
      <trkpt lat="52.52476" lon="21.07011">
        <ele>100.660729</ele>
        <time>2020-10-08T02:19:36.680Z</time>
      </trkpt>
      <trkpt lat="52.5245" lon="21.07023">
        <ele>101.156159</ele>
        <time>2020-10-08T02:19:44.906Z</time>
      </trkpt>
      <trkpt lat="52.52409" lon="21.07014">
        <ele>101.890042</ele>
        <time>2020-10-08T02:19:56.930Z</time>
      </trkpt>
      <trkpt lat="52.52407" lon="21.07014">
        <ele>101.929246</ele>
        <time>2020-10-08T02:19:57.649Z</time>
      </trkpt>
      <trkpt lat="52.52404" lon="21.07014">
        <ele>101.980904</ele>
        <time>2020-10-08T02:19:58.760Z</time>
      </trkpt>
      <trkpt lat="52.52398" lon="21.07007">
        <ele>102.104858</ele>
        <time>2020-10-08T02:20:00.662Z</time>
      </trkpt>
      <trkpt lat="52.52298" lon="21.07001">
        <ele>103.770059</ele>
        <time>2020-10-08T02:20:28.994Z</time>
      </trkpt>
      <trkpt lat="52.52225" lon="21.06996">
        <ele>104.90558</ele>
        <time>2020-10-08T02:20:50.097Z</time>
      </trkpt>
      <trkpt lat="52.52127" lon="21.06993">
        <ele>106.232101</ele>
        <time>2020-10-08T02:21:17.557Z</time>
      </trkpt>
      <trkpt lat="52.52121" lon="21.06998">
        <ele>106.307969</ele>
        <time>2020-10-08T02:21:19.300Z</time>
      </trkpt>
      <trkpt lat="52.52119" lon="21.06998">
        <ele>106.328454</ele>
        <time>2020-10-08T02:21:20.134Z</time>
      </trkpt>
      <trkpt lat="52.52117" lon="21.06998">
        <ele>106.348951</ele>
        <time>2020-10-08T02:21:20.755Z</time>
      </trkpt>
      <trkpt lat="52.52113" lon="21.06993">
        <ele>106.405728</ele>
        <time>2020-10-08T02:21:22.081Z</time>
      </trkpt>
      <trkpt lat="52.51712" lon="21.06978">
        <ele>110.857912</ele>
        <time>2020-10-08T02:23:08.410Z</time>
      </trkpt>
      <trkpt lat="52.51707" lon="21.06978">
        <ele>110.917034</ele>
        <time>2020-10-08T02:23:10.145Z</time>
      </trkpt>
      <trkpt lat="52.51705" lon="21.06978">
        <ele>110.936651</ele>
        <time>2020-10-08T02:23:10.635Z</time>
      </trkpt>
      <trkpt lat="52.51669" lon="21.06978">
        <ele>111.311441</ele>
        <time>2020-10-08T02:23:20.086Z</time>
      </trkpt>
      <trkpt lat="52.51536" lon="21.06979">
        <ele>112.130914</ele>
        <time>2020-10-08T02:23:53.960Z</time>
      </trkpt>
      <trkpt lat="52.51531" lon="21.06974">
        <ele>112.161761</ele>
        <time>2020-10-08T02:23:55.436Z</time>
      </trkpt>
      <trkpt lat="52.51522" lon="21.06974">
        <ele>112.208497</ele>
        <time>2020-10-08T02:23:57.739Z</time>
      </trkpt>
      <trkpt lat="52.51514" lon="21.06974">
        <ele>112.244796</ele>
        <time>2020-10-08T02:23:59.399Z</time>
      </trkpt>
      <trkpt lat="52.51511" lon="21.0697">
        <ele>112.26362</ele>
        <time>2020-10-08T02:24:00.347Z</time>
      </trkpt>
      <trkpt lat="52.5148" lon="21.06969">
        <ele>112.420256</ele>
        <time>2020-10-08T02:24:07.406Z</time>
      </trkpt>
      <trkpt lat="52.51474" lon="21.06958">
        <ele>112.466515</ele>
        <time>2020-10-08T02:24:09.485Z</time>
      </trkpt>
      <trkpt lat="52.51385" lon="21.06954">
        <ele>112.244822</ele>
        <time>2020-10-08T02:24:28.295Z</time>
      </trkpt>
      <trkpt lat="52.51376" lon="21.06953">
        <ele>112.213835</ele>
        <time>2020-10-08T02:24:30.178Z</time>
      </trkpt>
      <trkpt lat="52.5129" lon="21.06949">
        <ele>111.912971</ele>
        <time>2020-10-08T02:24:48.026Z</time>
      </trkpt>
      <trkpt lat="52.51264" lon="21.06947">
        <ele>111.854457</ele>
        <time>2020-10-08T02:24:53.312Z</time>
      </trkpt>
      <trkpt lat="52.51159" lon="21.06943">
        <ele>111.653678</ele>
        <time>2020-10-08T02:25:15.322Z</time>
      </trkpt>
      <trkpt lat="52.51117" lon="21.06939">
        <ele>111.573093</ele>
        <time>2020-10-08T02:25:25.069Z</time>
      </trkpt>
      <trkpt lat="52.51074" lon="21.06931">
        <ele>111.631415</ele>
        <time>2020-10-08T02:25:35.143Z</time>
      </trkpt>
      <trkpt lat="52.51063" lon="21.06926">
        <ele>111.66137</ele>
        <time>2020-10-08T02:25:37.730Z</time>
      </trkpt>
      <trkpt lat="52.51061" lon="21.06924">
        <ele>111.668509</ele>
        <time>2020-10-08T02:25:38.338Z</time>
      </trkpt>
      <trkpt lat="52.51057" lon="21.06923">
        <ele>111.677977</ele>
        <time>2020-10-08T02:25:39.135Z</time>
      </trkpt>
      <trkpt lat="52.51041" lon="21.06913">
        <ele>111.726719</ele>
        <time>2020-10-08T02:25:43.314Z</time>
      </trkpt>
      <trkpt lat="52.51035" lon="21.06908">
        <ele>111.743619</ele>
        <time>2020-10-08T02:25:44.755Z</time>
      </trkpt>
      <trkpt lat="52.51031" lon="21.06904">
        <ele>111.757589</ele>
        <time>2020-10-08T02:25:45.986Z</time>
      </trkpt>
      <trkpt lat="52.51018" lon="21.06891">
        <ele>111.798066</ele>
        <time>2020-10-08T02:25:49.448Z</time>
      </trkpt>
      <trkpt lat="52.51" lon="21.06873">
        <ele>111.855091</ele>
        <time>2020-10-08T02:25:54.368Z</time>
      </trkpt>
      <trkpt lat="52.50881" lon="21.06749">
        <ele>111.803684</ele>
        <time>2020-10-08T02:26:27.665Z</time>
      </trkpt>
      <trkpt lat="52.5084" lon="21.06706">
        <ele>111.647993</ele>
        <time>2020-10-08T02:26:37.800Z</time>
      </trkpt>
      <trkpt lat="52.50805" lon="21.06668">
        <ele>111.513468</ele>
        <time>2020-10-08T02:26:46.108Z</time>
      </trkpt>
      <trkpt lat="52.50805" lon="21.06651">
        <ele>111.480951</ele>
        <time>2020-10-08T02:26:48.684Z</time>
      </trkpt>
      <trkpt lat="52.50798" lon="21.06644">
        <ele>111.423304</ele>
        <time>2020-10-08T02:26:50.792Z</time>
      </trkpt>
      <trkpt lat="52.50757" lon="21.06598">
        <ele>110.560707</ele>
        <time>2020-10-08T02:27:03.528Z</time>
      </trkpt>
      <trkpt lat="52.50745" lon="21.06588">
        <ele>110.336888</ele>
        <time>2020-10-08T02:27:06.646Z</time>
      </trkpt>
      <trkpt lat="52.50719" lon="21.0656">
        <ele>109.8063</ele>
        <time>2020-10-08T02:27:14.254Z</time>
      </trkpt>
      <trkpt lat="52.50712" lon="21.06559">
        <ele>109.685896</ele>
        <time>2020-10-08T02:27:15.934Z</time>
      </trkpt>
      <trkpt lat="52.50624" lon="21.06458">
        <ele>107.953575</ele>
        <time>2020-10-08T02:27:41.630Z</time>
      </trkpt>
      <trkpt lat="52.50599" lon="21.06433">
        <ele>107.545085</ele>
        <time>2020-10-08T02:27:48.917Z</time>
      </trkpt>
      <trkpt lat="52.50447" lon="21.06272">
        <ele>105.382723</ele>
        <time>2020-10-08T02:28:35.873Z</time>
      </trkpt>
      <trkpt lat="52.50389" lon="21.0621">
        <ele>104.820119</ele>
        <time>2020-10-08T02:28:54.426Z</time>
      </trkpt>
      <trkpt lat="52.50304" lon="21.06122">
        <ele>104.135392</ele>
        <time>2020-10-08T02:29:21.875Z</time>
      </trkpt>
      <trkpt lat="52.50145" lon="21.05952">
        <ele>103.398812</ele>
        <time>2020-10-08T02:30:13.888Z</time>
      </trkpt>
      <trkpt lat="52.50119" lon="21.05922">
        <ele>103.380496</ele>
        <time>2020-10-08T02:30:23.354Z</time>
      </trkpt>
      <trkpt lat="52.50091" lon="21.05895">
        <ele>103.362142</ele>
        <time>2020-10-08T02:30:33.170Z</time>
      </trkpt>
      <trkpt lat="52.50078" lon="21.05882">
        <ele>103.353426</ele>
        <time>2020-10-08T02:30:37.723Z</time>
      </trkpt>
      <trkpt lat="52.50023" lon="21.05823">
        <ele>103.37796</ele>
        <time>2020-10-08T02:30:57.557Z</time>
      </trkpt>
      <trkpt lat="52.49995" lon="21.05793">
        <ele>103.438791</ele>
        <time>2020-10-08T02:31:07.852Z</time>
      </trkpt>
      <trkpt lat="52.49971" lon="21.05767">
        <ele>103.488693</ele>
        <time>2020-10-08T02:31:16.444Z</time>
      </trkpt>
      <trkpt lat="52.49824" lon="21.05615">
        <ele>103.625533</ele>
        <time>2020-10-08T02:32:08.016Z</time>
      </trkpt>
      <trkpt lat="52.4967" lon="21.05451">
        <ele>103.961518</ele>
        <time>2020-10-08T02:33:00.801Z</time>
      </trkpt>
      <trkpt lat="52.49608" lon="21.05386">
        <ele>104.276607</ele>
        <time>2020-10-08T02:33:24.453Z</time>
      </trkpt>
      <trkpt lat="52.49489" lon="21.05262">
        <ele>105.96658</ele>
        <time>2020-10-08T02:34:13.731Z</time>
      </trkpt>
      <trkpt lat="52.49423" lon="21.0519">
        <ele>106.783231</ele>
        <time>2020-10-08T02:34:41.473Z</time>
      </trkpt>
      <trkpt lat="52.4942" lon="21.05197">
        <ele>106.793221</ele>
        <time>2020-10-08T02:34:43.449Z</time>
      </trkpt>
      <trkpt lat="52.49416" lon="21.05192">
        <ele>106.802592</ele>
        <time>2020-10-08T02:34:45.409Z</time>
      </trkpt>
      <trkpt lat="52.4941" lon="21.05173">
        <ele>106.826045</ele>
        <time>2020-10-08T02:34:49.633Z</time>
      </trkpt>
      <trkpt lat="52.49411" lon="21.05149">
        <ele>106.852013</ele>
        <time>2020-10-08T02:34:54.269Z</time>
      </trkpt>
      <trkpt lat="52.49409" lon="21.05133">
        <ele>106.869789</ele>
        <time>2020-10-08T02:34:57.836Z</time>
      </trkpt>
      <trkpt lat="52.49408" lon="21.05122">
        <ele>106.881997</ele>
        <time>2020-10-08T02:34:59.349Z</time>
      </trkpt>
      <trkpt lat="52.49406" lon="21.05112">
        <ele>106.893368</ele>
        <time>2020-10-08T02:35:00.908Z</time>
      </trkpt>
      <trkpt lat="52.49401" lon="21.05098">
        <ele>106.911096</ele>
        <time>2020-10-08T02:35:03.127Z</time>
      </trkpt>
      <trkpt lat="52.49377" lon="21.05012">
        <ele>107.014207</ele>
        <time>2020-10-08T02:35:15.668Z</time>
      </trkpt>
      <trkpt lat="52.49372" lon="21.04995">
        <ele>107.033694</ele>
        <time>2020-10-08T02:35:17.641Z</time>
      </trkpt>
      <trkpt lat="52.49344" lon="21.04891">
        <ele>106.418893</ele>
        <time>2020-10-08T02:35:30.785Z</time>
      </trkpt>
      <trkpt lat="52.49333" lon="21.0485">
        <ele>106.059384</ele>
        <time>2020-10-08T02:35:35.726Z</time>
      </trkpt>
      <trkpt lat="52.49323" lon="21.04786">
        <ele>105.530631</ele>
        <time>2020-10-08T02:35:43.076Z</time>
      </trkpt>
      <trkpt lat="52.49323" lon="21.0478">
        <ele>105.474995</ele>
        <time>2020-10-08T02:35:43.742Z</time>
      </trkpt>
      <trkpt lat="52.49322" lon="21.04766">
        <ele>105.365326</ele>
        <time>2020-10-08T02:35:45.235Z</time>
      </trkpt>
      <trkpt lat="52.49326" lon="21.04699">
        <ele>104.823788</ele>
        <time>2020-10-08T02:35:52.875Z</time>
      </trkpt>
      <trkpt lat="52.49335" lon="21.0465">
        <ele>104.691132</ele>
        <time>2020-10-08T02:35:58.745Z</time>
      </trkpt>
      <trkpt lat="52.49347" lon="21.04593">
        <ele>104.686171</ele>
        <time>2020-10-08T02:36:06.010Z</time>
      </trkpt>
      <trkpt lat="52.49171" lon="21.04492">
        <ele>105.319969</ele>
        <time>2020-10-08T02:36:51.294Z</time>
      </trkpt>
      <trkpt lat="52.49123" lon="21.04721">
        <ele>106.813631</ele>
        <time>2020-10-08T02:37:32.086Z</time>
      </trkpt>
      <trkpt lat="52.49118" lon="21.04739">
        <ele>106.932344</ele>
        <time>2020-10-08T02:37:35.332Z</time>
      </trkpt>
      <trkpt lat="52.4911" lon="21.04757">
        <ele>107.07653</ele>
        <time>2020-10-08T02:37:39.408Z</time>
      </trkpt>
      <trkpt lat="52.49101" lon="21.04769">
        <ele>107.191622</ele>
        <time>2020-10-08T02:37:42.105Z</time>
      </trkpt>
      <trkpt lat="52.49091" lon="21.04777">
        <ele>107.300568</ele>
        <time>2020-10-08T02:37:45.145Z</time>
      </trkpt>
      <trkpt lat="52.49082" lon="21.04781">
        <ele>107.392653</ele>
        <time>2020-10-08T02:37:47.872Z</time>
      </trkpt>
      <trkpt lat="52.49066" lon="21.0478">
        <ele>107.558685</ele>
        <time>2020-10-08T02:37:51.908Z</time>
      </trkpt>
      <trkpt lat="52.49046" lon="21.04769">
        <ele>107.770214</ele>
        <time>2020-10-08T02:37:57.939Z</time>
      </trkpt>
      <trkpt lat="52.4902" lon="21.04741">
        <ele>108.084576</ele>
        <time>2020-10-08T02:38:06.235Z</time>
      </trkpt>
      <trkpt lat="52.48994" lon="21.04712">
        <ele>108.219693</ele>
        <time>2020-10-08T02:38:14.038Z</time>
      </trkpt>
      <trkpt lat="52.48986" lon="21.04704">
        <ele>108.13915</ele>
        <time>2020-10-08T02:38:16.612Z</time>
      </trkpt>
      <trkpt lat="52.48941" lon="21.04657">
        <ele>107.68906</ele>
        <time>2020-10-08T02:38:27.156Z</time>
      </trkpt>
      <trkpt lat="52.48889" lon="21.04601">
        <ele>107.159634</ele>
        <time>2020-10-08T02:38:38.783Z</time>
      </trkpt>
      <trkpt lat="52.48856" lon="21.04566">
        <ele>106.826044</ele>
        <time>2020-10-08T02:38:46.019Z</time>
      </trkpt>
      <trkpt lat="52.48837" lon="21.04548">
        <ele>106.508996</ele>
        <time>2020-10-08T02:38:50.080Z</time>
      </trkpt>
      <trkpt lat="52.4883" lon="21.04545">
        <ele>106.40107</ele>
        <time>2020-10-08T02:38:51.240Z</time>
      </trkpt>
      <trkpt lat="52.48756" lon="21.0449">
        <ele>105.064613</ele>
        <time>2020-10-08T02:39:05.870Z</time>
      </trkpt>
      <trkpt lat="52.48744" lon="21.04479">
        <ele>104.842985</ele>
        <time>2020-10-08T02:39:08.228Z</time>
      </trkpt>
      <trkpt lat="52.48731" lon="21.04467">
        <ele>104.591687</ele>
        <time>2020-10-08T02:39:10.892Z</time>
      </trkpt>
      <trkpt lat="52.48688" lon="21.04423">
        <ele>103.798445</ele>
        <time>2020-10-08T02:39:20.040Z</time>
      </trkpt>
      <trkpt lat="52.48675" lon="21.0441">
        <ele>103.662804</ele>
        <time>2020-10-08T02:39:23.128Z</time>
      </trkpt>
      <trkpt lat="52.48667" lon="21.04402">
        <ele>103.584637</ele>
        <time>2020-10-08T02:39:24.795Z</time>
      </trkpt>
      <trkpt lat="52.48577" lon="21.04306">
        <ele>102.630755</ele>
        <time>2020-10-08T02:39:45.953Z</time>
      </trkpt>
      <trkpt lat="52.48569" lon="21.04297">
        <ele>102.548027</ele>
        <time>2020-10-08T02:39:47.745Z</time>
      </trkpt>
      <trkpt lat="52.48559" lon="21.04286">
        <ele>102.444761</ele>
        <time>2020-10-08T02:39:50.199Z</time>
      </trkpt>
      <trkpt lat="52.48537" lon="21.04262">
        <ele>102.239964</ele>
        <time>2020-10-08T02:39:55.755Z</time>
      </trkpt>
      <trkpt lat="52.48524" lon="21.04246">
        <ele>102.237987</ele>
        <time>2020-10-08T02:39:59.090Z</time>
      </trkpt>
      <trkpt lat="52.485" lon="21.04219">
        <ele>102.234308</ele>
        <time>2020-10-08T02:40:05.384Z</time>
      </trkpt>
      <trkpt lat="52.48474" lon="21.04192">
        <ele>102.230343</ele>
        <time>2020-10-08T02:40:12.263Z</time>
      </trkpt>
      <trkpt lat="52.48435" lon="21.0413">
        <ele>102.223547</ele>
        <time>2020-10-08T02:40:24.395Z</time>
      </trkpt>
      <trkpt lat="52.48429" lon="21.04122">
        <ele>102.222619</ele>
        <time>2020-10-08T02:40:26.207Z</time>
      </trkpt>
      <trkpt lat="52.48422" lon="21.0412">
        <ele>102.221712</ele>
        <time>2020-10-08T02:40:27.999Z</time>
      </trkpt>
      <trkpt lat="52.47778" lon="21.03451">
        <ele>104.770489</ele>
        <time>2020-10-08T02:43:28.588Z</time>
      </trkpt>
      <trkpt lat="52.4775" lon="21.03422">
        <ele>104.814406</ele>
        <time>2020-10-08T02:43:36.201Z</time>
      </trkpt>
      <trkpt lat="52.47707" lon="21.03375">
        <ele>104.886398</ele>
        <time>2020-10-08T02:43:48.461Z</time>
      </trkpt>
      <trkpt lat="52.47682" lon="21.0335">
        <ele>104.926376</ele>
        <time>2020-10-08T02:43:55.024Z</time>
      </trkpt>
      <trkpt lat="52.47588" lon="21.03259">
        <ele>104.892397</ele>
        <time>2020-10-08T02:44:18.761Z</time>
      </trkpt>
      <trkpt lat="52.47565" lon="21.03233">
        <ele>104.838189</ele>
        <time>2020-10-08T02:44:24.812Z</time>
      </trkpt>
      <trkpt lat="52.47569" lon="21.03223">
        <ele>104.823659</ele>
        <time>2020-10-08T02:44:26.375Z</time>
      </trkpt>
      <trkpt lat="52.47594" lon="21.02934">
        <ele>104.526182</ele>
        <time>2020-10-08T02:45:06.157Z</time>
      </trkpt>
      <trkpt lat="52.47604" lon="21.02883">
        <ele>104.481388</ele>
        <time>2020-10-08T02:45:13.659Z</time>
      </trkpt>
      <trkpt lat="52.47611" lon="21.02854">
        <ele>104.454776</ele>
        <time>2020-10-08T02:45:18.119Z</time>
      </trkpt>
      <trkpt lat="52.47649" lon="21.02781">
        <ele>104.388</ele>
        <time>2020-10-08T02:45:31.583Z</time>
      </trkpt>
      <trkpt lat="52.47679" lon="21.02698">
        <ele>104.350874</ele>
        <time>2020-10-08T02:45:45.297Z</time>
      </trkpt>
      <trkpt lat="52.47683" lon="21.02664">
        <ele>104.33725</ele>
        <time>2020-10-08T02:45:50.341Z</time>
      </trkpt>
      <trkpt lat="52.47684" lon="21.02629">
        <ele>104.323948</ele>
        <time>2020-10-08T02:45:55.249Z</time>
      </trkpt>
      <trkpt lat="52.47687" lon="21.0255">
        <ele>104.293028</ele>
        <time>2020-10-08T02:46:06.361Z</time>
      </trkpt>
      <trkpt lat="52.47688" lon="21.02531">
        <ele>104.285699</ele>
        <time>2020-10-08T02:46:08.943Z</time>
      </trkpt>
      <trkpt lat="52.47688" lon="21.02511">
        <ele>104.201995</ele>
        <time>2020-10-08T02:46:11.620Z</time>
      </trkpt>
      <trkpt lat="52.47691" lon="21.02448">
        <ele>103.93331</ele>
        <time>2020-10-08T02:46:19.983Z</time>
      </trkpt>
      <trkpt lat="52.47707" lon="21.0235">
        <ele>103.503274</ele>
        <time>2020-10-08T02:46:32.941Z</time>
      </trkpt>
      <trkpt lat="52.47755" lon="21.02113">
        <ele>102.189994</ele>
        <time>2020-10-08T02:47:03.829Z</time>
      </trkpt>
      <trkpt lat="52.47766" lon="21.02052">
        <ele>101.804751</ele>
        <time>2020-10-08T02:47:11.613Z</time>
      </trkpt>
      <trkpt lat="52.47782" lon="21.01991">
        <ele>101.405935</ele>
        <time>2020-10-08T02:47:19.681Z</time>
      </trkpt>
      <trkpt lat="52.47793" lon="21.01949">
        <ele>101.169636</ele>
        <time>2020-10-08T02:47:25.268Z</time>
      </trkpt>
      <trkpt lat="52.47809" lon="21.01886">
        <ele>100.899885</ele>
        <time>2020-10-08T02:47:33.851Z</time>
      </trkpt>
      <trkpt lat="52.4782" lon="21.01843">
        <ele>100.717989</ele>
        <time>2020-10-08T02:47:39.835Z</time>
      </trkpt>
      <trkpt lat="52.47849" lon="21.01717">
        <ele>100.190085</ele>
        <time>2020-10-08T02:47:57.714Z</time>
      </trkpt>
      <trkpt lat="52.47872" lon="21.01621">
        <ele>99.693163</ele>
        <time>2020-10-08T02:48:11.466Z</time>
      </trkpt>
      <trkpt lat="52.47887" lon="21.0155">
        <ele>99.310812</ele>
        <time>2020-10-08T02:48:20.864Z</time>
      </trkpt>
      <trkpt lat="52.47932" lon="21.01337">
        <ele>98.071449</ele>
        <time>2020-10-08T02:48:48.661Z</time>
      </trkpt>
      <trkpt lat="52.47934" lon="21.01328">
        <ele>98.013421</ele>
        <time>2020-10-08T02:48:49.616Z</time>
      </trkpt>
      <trkpt lat="52.47973" lon="21.01147">
        <ele>96.835935</ele>
        <time>2020-10-08T02:49:12.875Z</time>
      </trkpt>
      <trkpt lat="52.47976" lon="21.01125">
        <ele>96.789475</ele>
        <time>2020-10-08T02:49:15.992Z</time>
      </trkpt>
      <trkpt lat="52.47913" lon="21.01202">
        <ele>97.119919</ele>
        <time>2020-10-08T02:49:34.196Z</time>
      </trkpt>
      <trkpt lat="52.47687" lon="21.01497">
        <ele>99.408097</ele>
        <time>2020-10-08T02:50:53.295Z</time>
      </trkpt>
      <trkpt lat="52.47638" lon="21.01561">
        <ele>99.659465</ele>
        <time>2020-10-08T02:51:09.167Z</time>
      </trkpt>
      <trkpt lat="52.47589" lon="21.01628">
        <ele>99.913128</ele>
        <time>2020-10-08T02:51:24.552Z</time>
      </trkpt>
      <trkpt lat="52.47543" lon="21.01682">
        <ele>100.101337</ele>
        <time>2020-10-08T02:51:45.664Z</time>
      </trkpt>
      <trkpt lat="52.47223" lon="21.02063">
        <ele>100.96143</ele>
        <time>2020-10-08T02:54:15.394Z</time>
      </trkpt>
      <trkpt lat="52.47066" lon="21.02234">
        <ele>101.720739</ele>
        <time>2020-10-08T02:55:29.567Z</time>
      </trkpt>
      <trkpt lat="52.47045" lon="21.02267">
        <ele>101.808914</ele>
        <time>2020-10-08T02:55:36.840Z</time>
      </trkpt>
      <trkpt lat="52.46968" lon="21.02623">
        <ele>102.090627</ele>
        <time>2020-10-08T02:56:31.110Z</time>
      </trkpt>
      <trkpt lat="52.46964" lon="21.02632">
        <ele>102.091228</ele>
        <time>2020-10-08T02:56:32.768Z</time>
      </trkpt>
      <trkpt lat="52.46848" lon="21.02711">
        <ele>101.754809</ele>
        <time>2020-10-08T02:57:00.545Z</time>
      </trkpt>
      <trkpt lat="52.4673" lon="21.02807">
        <ele>101.228407</ele>
        <time>2020-10-08T02:57:28.821Z</time>
      </trkpt>
      <trkpt lat="52.46653" lon="21.0288">
        <ele>100.816588</ele>
        <time>2020-10-08T02:57:47.939Z</time>
      </trkpt>
      <trkpt lat="52.46645" lon="21.02886">
        <ele>100.777706</ele>
        <time>2020-10-08T02:57:49.784Z</time>
      </trkpt>
      <trkpt lat="52.46639" lon="21.02882">
        <ele>100.747463</ele>
        <time>2020-10-08T02:57:51.340Z</time>
      </trkpt>
      <trkpt lat="52.46622" lon="21.02862">
        <ele>100.648729</ele>
        <time>2020-10-08T02:57:55.901Z</time>
      </trkpt>
      <trkpt lat="52.46614" lon="21.02849">
        <ele>100.600112</ele>
        <time>2020-10-08T02:57:58.442Z</time>
      </trkpt>
      <trkpt lat="52.46604" lon="21.02832">
        <ele>100.555031</ele>
        <time>2020-10-08T02:58:02.527Z</time>
      </trkpt>
      <trkpt lat="52.46589" lon="21.02799">
        <ele>100.479758</ele>
        <time>2020-10-08T02:58:09.536Z</time>
      </trkpt>
      <trkpt lat="52.46578" lon="21.02755">
        <ele>100.388912</ele>
        <time>2020-10-08T02:58:17.822Z</time>
      </trkpt>
      <trkpt lat="52.46572" lon="21.02731">
        <ele>100.34077</ele>
        <time>2020-10-08T02:58:22.346Z</time>
      </trkpt>
      <trkpt lat="52.46563" lon="21.0266">
        <ele>100.203948</ele>
        <time>2020-10-08T02:58:35.035Z</time>
      </trkpt>
      <trkpt lat="52.46554" lon="21.0248">
        <ele>99.087582</ele>
        <time>2020-10-08T02:59:05.605Z</time>
      </trkpt>
      <trkpt lat="52.46546" lon="21.02412">
        <ele>98.413274</ele>
        <time>2020-10-08T02:59:16.670Z</time>
      </trkpt>
      <trkpt lat="52.46535" lon="21.0236">
        <ele>97.873631</ele>
        <time>2020-10-08T02:59:24.734Z</time>
      </trkpt>
      <trkpt lat="52.46516" lon="21.02303">
        <ele>97.236372</ele>
        <time>2020-10-08T02:59:33.828Z</time>
      </trkpt>
      <trkpt lat="52.46476" lon="21.02226">
        <ele>94.563349</ele>
        <time>2020-10-08T02:59:47.513Z</time>
      </trkpt>
      <trkpt lat="52.46474" lon="21.02224">
        <ele>94.482847</ele>
        <time>2020-10-08T02:59:47.880Z</time>
      </trkpt>
      <trkpt lat="52.46456" lon="21.022">
        <ele>93.425941</ele>
        <time>2020-10-08T02:59:52.777Z</time>
      </trkpt>
      <trkpt lat="52.46433" lon="21.02176">
        <ele>92.188395</ele>
        <time>2020-10-08T02:59:58.497Z</time>
      </trkpt>
      <trkpt lat="52.46291" lon="21.02085">
        <ele>85.598625</ele>
        <time>2020-10-08T03:00:29.808Z</time>
      </trkpt>
      <trkpt lat="52.46022" lon="21.01888">
        <ele>75.949552</ele>
        <time>2020-10-08T03:01:36.235Z</time>
      </trkpt>
      <trkpt lat="52.46016" lon="21.01884">
        <ele>75.885039</ele>
        <time>2020-10-08T03:01:37.920Z</time>
      </trkpt>
      <trkpt lat="52.45999" lon="21.01873">
        <ele>75.710779</ele>
        <time>2020-10-08T03:01:42.497Z</time>
      </trkpt>
      <trkpt lat="52.45924" lon="21.01824">
        <ele>74.923646</ele>
        <time>2020-10-08T03:02:04.091Z</time>
      </trkpt>
      <trkpt lat="52.45884" lon="21.01796">
        <ele>74.510377</ele>
        <time>2020-10-08T03:02:16.388Z</time>
      </trkpt>
      <trkpt lat="52.45602" lon="21.01601">
        <ele>75.789096</ele>
        <time>2020-10-08T03:03:30.627Z</time>
      </trkpt>
      <trkpt lat="52.45545" lon="21.01556">
        <ele>76.147143</ele>
        <time>2020-10-08T03:03:46.467Z</time>
      </trkpt>
      <trkpt lat="52.45522" lon="21.01533">
        <ele>76.273471</ele>
        <time>2020-10-08T03:03:53.259Z</time>
      </trkpt>
      <trkpt lat="52.45497" lon="21.015">
        <ele>76.417127</ele>
        <time>2020-10-08T03:04:01.283Z</time>
      </trkpt>
      <trkpt lat="52.45471" lon="21.01459">
        <ele>76.574661</ele>
        <time>2020-10-08T03:04:10.135Z</time>
      </trkpt>
      <trkpt lat="52.4547" lon="21.01447">
        <ele>76.60764</ele>
        <time>2020-10-08T03:04:12.064Z</time>
      </trkpt>
      <trkpt lat="52.45462" lon="21.01436">
        <ele>76.651393</ele>
        <time>2020-10-08T03:04:14.485Z</time>
      </trkpt>
      <trkpt lat="52.45459" lon="21.01441">
        <ele>76.671545</ele>
        <time>2020-10-08T03:04:15.615Z</time>
      </trkpt>
      <trkpt lat="52.45454" lon="21.01447">
        <ele>76.697504</ele>
        <time>2020-10-08T03:04:17.073Z</time>
      </trkpt>
      <trkpt lat="52.4535" lon="21.01229">
        <ele>76.892416</ele>
        <time>2020-10-08T03:04:55.278Z</time>
      </trkpt>
      <trkpt lat="52.45343" lon="21.01215">
        <ele>76.884529</ele>
        <time>2020-10-08T03:04:57.712Z</time>
      </trkpt>
      <trkpt lat="52.4529" lon="21.01099">
        <ele>76.806705</ele>
        <time>2020-10-08T03:05:16.214Z</time>
      </trkpt>
      <trkpt lat="52.45283" lon="21.01108">
        <ele>76.796098</ele>
        <time>2020-10-08T03:05:21.924Z</time>
      </trkpt>
      <trkpt lat="52.45277" lon="21.01117">
        <ele>76.7852</ele>
        <time>2020-10-08T03:05:27.846Z</time>
      </trkpt>
      <trkpt lat="52.4526" lon="21.01092">
        <ele>76.756847</ele>
        <time>2020-10-08T03:05:33.894Z</time>
      </trkpt>
      <trkpt lat="52.45119" lon="21.00915">
        <ele>76.851577</ele>
        <time>2020-10-08T03:06:26.450Z</time>
      </trkpt>
      <trkpt lat="52.45104" lon="21.00909">
        <ele>76.909346</ele>
        <time>2020-10-08T03:06:31.128Z</time>
      </trkpt>
      <trkpt lat="52.45096" lon="21.00901">
        <ele>76.942447</ele>
        <time>2020-10-08T03:06:33.941Z</time>
      </trkpt>
      <trkpt lat="52.45088" lon="21.00891">
        <ele>76.980856</ele>
        <time>2020-10-08T03:06:37.281Z</time>
      </trkpt>
      <trkpt lat="52.45084" lon="21.00873">
        <ele>77.025751</ele>
        <time>2020-10-08T03:06:40.937Z</time>
      </trkpt>
      <trkpt lat="52.4503" lon="21.00806">
        <ele>77.278469</ele>
        <time>2020-10-08T03:07:02.353Z</time>
      </trkpt>
      <trkpt lat="52.44919" lon="21.00665">
        <ele>77.692361</ele>
        <time>2020-10-08T03:07:46.424Z</time>
      </trkpt>
      <trkpt lat="52.44896" lon="21.00638">
        <ele>77.773246</ele>
        <time>2020-10-08T03:07:54.529Z</time>
      </trkpt>
      <trkpt lat="52.44726" lon="21.0043">
        <ele>76.885253</ele>
        <time>2020-10-08T03:08:52.940Z</time>
      </trkpt>
      <trkpt lat="52.44697" lon="21.00395">
        <ele>76.700404</ele>
        <time>2020-10-08T03:09:02.539Z</time>
      </trkpt>
      <trkpt lat="52.44689" lon="21.00387">
        <ele>76.647007</ele>
        <time>2020-10-08T03:09:06.133Z</time>
      </trkpt>
      <trkpt lat="52.44648" lon="21.00334">
        <ele>76.378623</ele>
        <time>2020-10-08T03:09:24.185Z</time>
      </trkpt>
      <trkpt lat="52.44616" lon="21.00337">
        <ele>76.20774</ele>
        <time>2020-10-08T03:09:35.781Z</time>
      </trkpt>
      <trkpt lat="52.44576" lon="21.00352">
        <ele>76.024376</ele>
        <time>2020-10-08T03:09:50.373Z</time>
      </trkpt>
      <trkpt lat="52.44519" lon="21.00389">
        <ele>75.890479</ele>
        <time>2020-10-08T03:10:12.402Z</time>
      </trkpt>
      <trkpt lat="52.44472" lon="21.00436">
        <ele>75.771009</ele>
        <time>2020-10-08T03:10:32.262Z</time>
      </trkpt>
      <trkpt lat="52.44441" lon="21.00478">
        <ele>75.683031</ele>
        <time>2020-10-08T03:10:47.024Z</time>
      </trkpt>
      <trkpt lat="52.44413" lon="21.00517">
        <ele>75.701498</ele>
        <time>2020-10-08T03:11:00.378Z</time>
      </trkpt>
      <trkpt lat="52.44398" lon="21.00509">
        <ele>75.734355</ele>
        <time>2020-10-08T03:11:06.391Z</time>
      </trkpt>
      <trkpt lat="52.44344" lon="21.00712">
        <ele>76.012819</ele>
        <time>2020-10-08T03:11:37.899Z</time>
      </trkpt>
      <trkpt lat="52.44295" lon="21.00893">
        <ele>76.727175</ele>
        <time>2020-10-08T03:12:07.862Z</time>
      </trkpt>
      <trkpt lat="52.44232" lon="21.01096">
        <ele>77.344769</ele>
        <time>2020-10-08T03:12:42.287Z</time>
      </trkpt>
      <trkpt lat="52.4423" lon="21.01102">
        <ele>77.35837</ele>
        <time>2020-10-08T03:12:43.731Z</time>
      </trkpt>
      <trkpt lat="52.44098" lon="21.01488">
        <ele>77.591516</ele>
        <time>2020-10-08T03:13:43.604Z</time>
      </trkpt>
      <trkpt lat="52.44027" lon="21.01696">
        <ele>77.580873</ele>
        <time>2020-10-08T03:14:15.733Z</time>
      </trkpt>
      <trkpt lat="52.43987" lon="21.01794">
        <ele>77.593529</ele>
        <time>2020-10-08T03:14:31.984Z</time>
      </trkpt>
      <trkpt lat="52.43949" lon="21.01868">
        <ele>77.627829</ele>
        <time>2020-10-08T03:14:45.511Z</time>
      </trkpt>
      <trkpt lat="52.43905" lon="21.01938">
        <ele>77.663344</ele>
        <time>2020-10-08T03:14:59.369Z</time>
      </trkpt>
      <trkpt lat="52.43862" lon="21.01991">
        <ele>77.635342</ele>
        <time>2020-10-08T03:15:11.365Z</time>
      </trkpt>
      <trkpt lat="52.43836" lon="21.01986">
        <ele>77.572762</ele>
        <time>2020-10-08T03:15:17.148Z</time>
      </trkpt>
      <trkpt lat="52.43707" lon="21.02128">
        <ele>77.160734</ele>
        <time>2020-10-08T03:15:49.909Z</time>
      </trkpt>
      <trkpt lat="52.43681" lon="21.02147">
        <ele>77.033809</ele>
        <time>2020-10-08T03:15:55.755Z</time>
      </trkpt>
      <trkpt lat="52.43654" lon="21.02179">
        <ele>76.888282</ele>
        <time>2020-10-08T03:16:02.537Z</time>
      </trkpt>
      <trkpt lat="52.43618" lon="21.02224">
        <ele>76.689167</ele>
        <time>2020-10-08T03:16:11.890Z</time>
      </trkpt>
      <trkpt lat="52.4357" lon="21.02279">
        <ele>76.442733</ele>
        <time>2020-10-08T03:16:24.566Z</time>
      </trkpt>
      <trkpt lat="52.43524" lon="21.02332">
        <ele>76.284245</ele>
        <time>2020-10-08T03:16:36.853Z</time>
      </trkpt>
      <trkpt lat="52.43483" lon="21.02378">
        <ele>76.145521</ele>
        <time>2020-10-08T03:16:47.789Z</time>
      </trkpt>
      <trkpt lat="52.4344" lon="21.02433">
        <ele>75.992896</ele>
        <time>2020-10-08T03:17:00.372Z</time>
      </trkpt>
      <trkpt lat="52.43435" lon="21.02438">
        <ele>75.974409</ele>
        <time>2020-10-08T03:17:01.907Z</time>
      </trkpt>
      <trkpt lat="52.4336" lon="21.0256">
        <ele>75.702266</ele>
        <time>2020-10-08T03:17:25.417Z</time>
      </trkpt>
      <trkpt lat="52.43312" lon="21.02653">
        <ele>75.510846</ele>
        <time>2020-10-08T03:17:41.702Z</time>
      </trkpt>
      <trkpt lat="52.43282" lon="21.02739">
        <ele>75.420308</ele>
        <time>2020-10-08T03:17:55.025Z</time>
      </trkpt>
      <trkpt lat="52.43247" lon="21.02839">
        <ele>75.324401</ele>
        <time>2020-10-08T03:18:10.064Z</time>
      </trkpt>
      <trkpt lat="52.43203" lon="21.02982">
        <ele>75.451062</ele>
        <time>2020-10-08T03:18:32.546Z</time>
      </trkpt>
      <trkpt lat="52.43177" lon="21.0307">
        <ele>75.740421</ele>
        <time>2020-10-08T03:18:47.028Z</time>
      </trkpt>
      <trkpt lat="52.43173" lon="21.0308">
        <ele>75.773684</ele>
        <time>2020-10-08T03:18:48.747Z</time>
      </trkpt>
      <trkpt lat="52.43171" lon="21.03079">
        <ele>75.784878</ele>
        <time>2020-10-08T03:18:49.414Z</time>
      </trkpt>
      <trkpt lat="52.43094" lon="21.03064">
        <ele>76.154746</ele>
        <time>2020-10-08T03:19:08.592Z</time>
      </trkpt>
      <trkpt lat="52.43067" lon="21.03057">
        <ele>76.274615</ele>
        <time>2020-10-08T03:19:15.220Z</time>
      </trkpt>
      <trkpt lat="52.43062" lon="21.03056">
        <ele>76.300334</ele>
        <time>2020-10-08T03:19:16.749Z</time>
      </trkpt>
      <trkpt lat="52.43055" lon="21.03055">
        <ele>76.328269</ele>
        <time>2020-10-08T03:19:18.255Z</time>
      </trkpt>
      <trkpt lat="52.43053" lon="21.03079">
        <ele>76.392923</ele>
        <time>2020-10-08T03:19:22.044Z</time>
      </trkpt>
      <trkpt lat="52.43056" lon="21.03079">
        <ele>76.402636</ele>
        <time>2020-10-08T03:19:23.578Z</time>
      </trkpt>
      <trkpt lat="52.43053" lon="21.03113">
        <ele>76.494078</ele>
        <time>2020-10-08T03:19:28.896Z</time>
      </trkpt>
      <trkpt lat="52.43047" lon="21.03189">
        <ele>76.699592</ele>
        <time>2020-10-08T03:19:40.693Z</time>
      </trkpt>
      <trkpt lat="52.43046" lon="21.032">
        <ele>76.729716</ele>
        <time>2020-10-08T03:19:42.424Z</time>
      </trkpt>
      <trkpt lat="52.43044" lon="21.0323">
        <ele>76.81147</ele>
        <time>2020-10-08T03:19:46.941Z</time>
      </trkpt>
      <trkpt lat="52.43043" lon="21.03289">
        <ele>76.911973</ele>
        <time>2020-10-08T03:19:55.408Z</time>
      </trkpt>
      <trkpt lat="52.43043" lon="21.03305">
        <ele>76.914613</ele>
        <time>2020-10-08T03:19:57.426Z</time>
      </trkpt>
      <trkpt lat="52.4303" lon="21.03462">
        <ele>76.940953</ele>
        <time>2020-10-08T03:20:19.144Z</time>
      </trkpt>
      <trkpt lat="52.43024" lon="21.03469">
        <ele>76.943008</ele>
        <time>2020-10-08T03:20:20.542Z</time>
      </trkpt>
      <trkpt lat="52.42626" lon="21.03641">
        <ele>77.278548</ele>
        <time>2020-10-08T03:21:53.412Z</time>
      </trkpt>
      <trkpt lat="52.42605" lon="21.0365">
        <ele>77.378961</ele>
        <time>2020-10-08T03:21:58.741Z</time>
      </trkpt>
      <trkpt lat="52.42594" lon="21.03655">
        <ele>77.429331</ele>
        <time>2020-10-08T03:22:01.291Z</time>
      </trkpt>
      <trkpt lat="52.42474" lon="21.03713">
        <ele>78.006518</ele>
        <time>2020-10-08T03:22:31.904Z</time>
      </trkpt>
      <trkpt lat="52.42459" lon="21.03711">
        <ele>78.078636</ele>
        <time>2020-10-08T03:22:35.765Z</time>
      </trkpt>
      <trkpt lat="52.42427" lon="21.03679">
        <ele>78.15965</ele>
        <time>2020-10-08T03:22:44.868Z</time>
      </trkpt>
      <trkpt lat="52.4241" lon="21.03678">
        <ele>78.186339</ele>
        <time>2020-10-08T03:22:48.787Z</time>
      </trkpt>
      <trkpt lat="52.42351" lon="21.03714">
        <ele>78.290372</ele>
        <time>2020-10-08T03:23:03.445Z</time>
      </trkpt>
      <trkpt lat="52.42333" lon="21.03761">
        <ele>78.34539</ele>
        <time>2020-10-08T03:23:10.999Z</time>
      </trkpt>
      <trkpt lat="52.42322" lon="21.03768">
        <ele>78.365763</ele>
        <time>2020-10-08T03:23:13.884Z</time>
      </trkpt>
      <trkpt lat="52.42275" lon="21.03791">
        <ele>78.310079</ele>
        <time>2020-10-08T03:23:24.468Z</time>
      </trkpt>
      <trkpt lat="52.42087" lon="21.03869">
        <ele>77.689533</ele>
        <time>2020-10-08T03:24:04.535Z</time>
      </trkpt>
      <trkpt lat="52.42068" lon="21.03864">
        <ele>77.650412</ele>
        <time>2020-10-08T03:24:08.637Z</time>
      </trkpt>
      <trkpt lat="52.42063" lon="21.0383">
        <ele>77.605909</ele>
        <time>2020-10-08T03:24:13.253Z</time>
      </trkpt>
      <trkpt lat="52.42058" lon="21.03831">
        <ele>77.596198</ele>
        <time>2020-10-08T03:24:14.363Z</time>
      </trkpt>
      <trkpt lat="52.4206" lon="21.03857">
        <ele>77.563762</ele>
        <time>2020-10-08T03:24:17.851Z</time>
      </trkpt>
      <trkpt lat="52.4206" lon="21.03866">
        <ele>77.552642</ele>
        <time>2020-10-08T03:24:18.992Z</time>
      </trkpt>
      <trkpt lat="52.42057" lon="21.03866">
        <ele>77.546296</ele>
        <time>2020-10-08T03:24:19.683Z</time>
      </trkpt>
      <trkpt lat="52.42052" lon="21.03865">
        <ele>77.536653</ele>
        <time>2020-10-08T03:24:20.783Z</time>
      </trkpt>
      <trkpt lat="52.42043" lon="21.03871">
        <ele>77.51705</ele>
        <time>2020-10-08T03:24:22.947Z</time>
      </trkpt>
      <trkpt lat="52.42039" lon="21.03889">
        <ele>77.492587</ele>
        <time>2020-10-08T03:24:25.498Z</time>
      </trkpt>
      <trkpt lat="52.42031" lon="21.03897">
        <ele>77.47356</ele>
        <time>2020-10-08T03:24:27.469Z</time>
      </trkpt>
      <trkpt lat="52.41982" lon="21.03912">
        <ele>77.417469</ele>
        <time>2020-10-08T03:24:38.879Z</time>
      </trkpt>
      <trkpt lat="52.41813" lon="21.03933">
        <ele>77.554449</ele>
        <time>2020-10-08T03:25:17.242Z</time>
      </trkpt>
      <trkpt lat="52.41518" lon="21.03938">
        <ele>77.372077</ele>
        <time>2020-10-08T03:26:22.034Z</time>
      </trkpt>
      <trkpt lat="52.41297" lon="21.03961">
        <ele>77.172012</ele>
        <time>2020-10-08T03:27:10.348Z</time>
      </trkpt>
      <trkpt lat="52.41209" lon="21.03979">
        <ele>77.261094</ele>
        <time>2020-10-08T03:27:30.417Z</time>
      </trkpt>
      <trkpt lat="52.4097" lon="21.04085">
        <ele>77.787743</ele>
        <time>2020-10-08T03:28:27.428Z</time>
      </trkpt>
      <trkpt lat="52.40858" lon="21.0413">
        <ele>78.428333</ele>
        <time>2020-10-08T03:28:55.051Z</time>
      </trkpt>
      <trkpt lat="52.40701" lon="21.04201">
        <ele>79.84239</ele>
        <time>2020-10-08T03:29:37.617Z</time>
      </trkpt>
      <trkpt lat="52.40523" lon="21.04245">
        <ele>81.729332</ele>
        <time>2020-10-08T03:30:26.705Z</time>
      </trkpt>
      <trkpt lat="52.40482" lon="21.0425">
        <ele>82.070011</ele>
        <time>2020-10-08T03:30:37.452Z</time>
      </trkpt>
      <trkpt lat="52.40383" lon="21.04263">
        <ele>82.681098</ele>
        <time>2020-10-08T03:31:01.713Z</time>
      </trkpt>
      <trkpt lat="52.40309" lon="21.04267">
        <ele>82.467576</ele>
        <time>2020-10-08T03:31:17.986Z</time>
      </trkpt>
      <trkpt lat="52.40237" lon="21.04271">
        <ele>82.25726</ele>
        <time>2020-10-08T03:31:32.547Z</time>
      </trkpt>
      <trkpt lat="52.40142" lon="21.04263">
        <ele>81.502537</ele>
        <time>2020-10-08T03:31:51.109Z</time>
      </trkpt>
      <trkpt lat="52.40128" lon="21.04262">
        <ele>81.381699</ele>
        <time>2020-10-08T03:31:53.690Z</time>
      </trkpt>
      <trkpt lat="52.40067" lon="21.04249">
        <ele>80.834915</ele>
        <time>2020-10-08T03:32:05.745Z</time>
      </trkpt>
      <trkpt lat="52.39925" lon="21.04218">
        <ele>79.918675</ele>
        <time>2020-10-08T03:32:34.236Z</time>
      </trkpt>
      <trkpt lat="52.3973" lon="21.04149">
        <ele>79.238332</ele>
        <time>2020-10-08T03:33:16.605Z</time>
      </trkpt>
      <trkpt lat="52.39697" lon="21.04132">
        <ele>79.158151</ele>
        <time>2020-10-08T03:33:24.105Z</time>
      </trkpt>
      <trkpt lat="52.39652" lon="21.04112">
        <ele>79.088321</ele>
        <time>2020-10-08T03:33:34.350Z</time>
      </trkpt>
      <trkpt lat="52.39534" lon="21.04047">
        <ele>78.922631</ele>
        <time>2020-10-08T03:34:01.643Z</time>
      </trkpt>
      <trkpt lat="52.39407" lon="21.03963">
        <ele>78.873031</ele>
        <time>2020-10-08T03:34:31.625Z</time>
      </trkpt>
      <trkpt lat="52.39401" lon="21.03958">
        <ele>78.871379</ele>
        <time>2020-10-08T03:34:34.207Z</time>
      </trkpt>
      <trkpt lat="52.39305" lon="21.03886">
        <ele>78.942337</ele>
        <time>2020-10-08T03:35:13.574Z</time>
      </trkpt>
      <trkpt lat="52.39006" lon="21.03723">
        <ele>79.493549</ele>
        <time>2020-10-08T03:37:12.987Z</time>
      </trkpt>
      <trkpt lat="52.38349" lon="21.0359">
        <ele>80.432642</ele>
        <time>2020-10-08T03:41:22.910Z</time>
      </trkpt>
      <trkpt lat="52.38198" lon="21.03563">
        <ele>80.30787</ele>
        <time>2020-10-08T03:42:17.871Z</time>
      </trkpt>
      <trkpt lat="52.37865" lon="21.03504">
        <ele>80.215074</ele>
        <time>2020-10-08T03:44:21.933Z</time>
      </trkpt>
      <trkpt lat="52.37573" lon="21.03438">
        <ele>80.323142</ele>
        <time>2020-10-08T03:46:11.410Z</time>
      </trkpt>
      <trkpt lat="52.37543" lon="21.03429">
        <ele>80.376439</ele>
        <time>2020-10-08T03:46:23.071Z</time>
      </trkpt>
      <trkpt lat="52.36623" lon="21.03261">
        <ele>81.867463</ele>
        <time>2020-10-08T03:52:13.366Z</time>
      </trkpt>
      <trkpt lat="52.36552" lon="21.03258">
        <ele>81.866349</ele>
        <time>2020-10-08T03:52:39.299Z</time>
      </trkpt>
      <trkpt lat="52.35798" lon="21.03318">
        <ele>79.810439</ele>
        <time>2020-10-08T03:57:11.108Z</time>
      </trkpt>
      <trkpt lat="52.3577" lon="21.03323">
        <ele>79.710702</ele>
        <time>2020-10-08T03:57:21.504Z</time>
      </trkpt>
      <trkpt lat="52.3576" lon="21.0329">
        <ele>79.631457</ele>
        <time>2020-10-08T03:57:29.838Z</time>
      </trkpt>
      <trkpt lat="52.35782" lon="21.0326">
        <ele>79.53046</ele>
        <time>2020-10-08T03:57:39.932Z</time>
      </trkpt>
      <trkpt lat="52.35783" lon="21.0325">
        <ele>79.507141</ele>
        <time>2020-10-08T03:57:42.501Z</time>
      </trkpt>
      <trkpt lat="52.3577" lon="21.03266">
        <ele>79.44769</ele>
        <time>2020-10-08T03:57:46.021Z</time>
      </trkpt>
      <trkpt lat="52.35755" lon="21.03276">
        <ele>79.392599</ele>
        <time>2020-10-08T03:57:49.626Z</time>
      </trkpt>
      <trkpt lat="52.35742" lon="21.03282">
        <ele>79.345693</ele>
        <time>2020-10-08T03:57:52.453Z</time>
      </trkpt>
      <trkpt lat="52.35733" lon="21.03285">
        <ele>79.310217</ele>
        <time>2020-10-08T03:57:54.608Z</time>
      </trkpt>
      <trkpt lat="52.35734" lon="21.03306">
        <ele>79.265602</ele>
        <time>2020-10-08T03:57:57.377Z</time>
      </trkpt>
      <trkpt lat="52.35737" lon="21.03409">
        <ele>79.122812</ele>
        <time>2020-10-08T03:58:10.454Z</time>
      </trkpt>
      <trkpt lat="52.35738" lon="21.03423">
        <ele>79.112516</ele>
        <time>2020-10-08T03:58:12.288Z</time>
      </trkpt>
      <trkpt lat="52.35729" lon="21.03424">
        <ele>79.101699</ele>
        <time>2020-10-08T03:58:14.163Z</time>
      </trkpt>
      <trkpt lat="52.35721" lon="21.03424">
        <ele>79.091788</ele>
        <time>2020-10-08T03:58:15.772Z</time>
      </trkpt>
      <trkpt lat="52.35685" lon="21.03424">
        <ele>79.046841</ele>
        <time>2020-10-08T03:58:23.431Z</time>
      </trkpt>
      <trkpt lat="52.35662" lon="21.03424">
        <ele>79.018733</ele>
        <time>2020-10-08T03:58:28.361Z</time>
      </trkpt>
      <trkpt lat="52.35652" lon="21.03425">
        <ele>79.005971</ele>
        <time>2020-10-08T03:58:30.733Z</time>
      </trkpt>
      <trkpt lat="52.35633" lon="21.03426">
        <ele>78.982919</ele>
        <time>2020-10-08T03:58:34.833Z</time>
      </trkpt>
      <trkpt lat="52.3562" lon="21.03427">
        <ele>78.966678</ele>
        <time>2020-10-08T03:58:39.865Z</time>
      </trkpt>
      <trkpt lat="52.35368" lon="21.03446">
        <ele>79.627482</ele>
        <time>2020-10-08T04:00:17.855Z</time>
      </trkpt>
      <trkpt lat="52.35313" lon="21.03445">
        <ele>79.604794</ele>
        <time>2020-10-08T04:00:38.157Z</time>
      </trkpt>
      <trkpt lat="52.35266" lon="21.03443">
        <ele>79.585406</ele>
        <time>2020-10-08T04:00:54.967Z</time>
      </trkpt>
      <trkpt lat="52.35119" lon="21.03446">
        <ele>79.230941</ele>
        <time>2020-10-08T04:01:46.856Z</time>
      </trkpt>
      <trkpt lat="52.34603" lon="21.03401">
        <ele>79.487911</ele>
        <time>2020-10-08T04:05:00.555Z</time>
      </trkpt>
      <trkpt lat="52.34574" lon="21.03398">
        <ele>79.512439</ele>
        <time>2020-10-08T04:05:11.629Z</time>
      </trkpt>
      <trkpt lat="52.34493" lon="21.03389">
        <ele>79.502981</ele>
        <time>2020-10-08T04:05:42.099Z</time>
      </trkpt>
      <trkpt lat="52.34432" lon="21.03384">
        <ele>79.400522</ele>
        <time>2020-10-08T04:06:04.504Z</time>
      </trkpt>
      <trkpt lat="52.3423" lon="21.03364">
        <ele>78.968165</ele>
        <time>2020-10-08T04:07:16.846Z</time>
      </trkpt>
      <trkpt lat="52.34166" lon="21.03359">
        <ele>78.810741</ele>
        <time>2020-10-08T04:07:40.031Z</time>
      </trkpt>
      <trkpt lat="52.34063" lon="21.03362">
        <ele>79.221853</ele>
        <time>2020-10-08T04:08:19.436Z</time>
      </trkpt>
      <trkpt lat="52.34016" lon="21.03367">
        <ele>79.415135</ele>
        <time>2020-10-08T04:08:37.962Z</time>
      </trkpt>
      <trkpt lat="52.33984" lon="21.03374">
        <ele>79.54673</ele>
        <time>2020-10-08T04:08:50.730Z</time>
      </trkpt>
      <trkpt lat="52.33975" lon="21.03342">
        <ele>79.682481</ele>
        <time>2020-10-08T04:08:56.422Z</time>
      </trkpt>
      <trkpt lat="52.33969" lon="21.03328">
        <ele>79.748771</ele>
        <time>2020-10-08T04:08:59.169Z</time>
      </trkpt>
      <trkpt lat="52.33941" lon="21.03322">
        <ele>79.925496</ele>
        <time>2020-10-08T04:09:06.498Z</time>
      </trkpt>
      <trkpt lat="52.33911" lon="21.03322">
        <ele>80.113118</ele>
        <time>2020-10-08T04:09:14.253Z</time>
      </trkpt>
      <trkpt lat="52.33884" lon="21.03323">
        <ele>80.283169</ele>
        <time>2020-10-08T04:09:21.251Z</time>
      </trkpt>
      <trkpt lat="52.33881" lon="21.03323">
        <ele>80.301993</ele>
        <time>2020-10-08T04:09:22.010Z</time>
      </trkpt>
      <trkpt lat="52.33878" lon="21.03323">
        <ele>80.320515</ele>
        <time>2020-10-08T04:09:22.734Z</time>
      </trkpt>
      <trkpt lat="52.33871" lon="21.03326">
        <ele>80.370246</ele>
        <time>2020-10-08T04:09:24.793Z</time>
      </trkpt>
      <trkpt lat="52.3386" lon="21.03338">
        <ele>80.451438</ele>
        <time>2020-10-08T04:09:28.107Z</time>
      </trkpt>
      <trkpt lat="52.33856" lon="21.0336">
        <ele>80.538719</ele>
        <time>2020-10-08T04:09:31.517Z</time>
      </trkpt>
      <trkpt lat="52.33848" lon="21.03418">
        <ele>80.694765</ele>
        <time>2020-10-08T04:09:40.336Z</time>
      </trkpt>
      <trkpt lat="52.3384" lon="21.0344">
        <ele>80.717678</ele>
        <time>2020-10-08T04:09:44.113Z</time>
      </trkpt>
      <trkpt lat="52.33823" lon="21.03453">
        <ele>80.745672</ele>
        <time>2020-10-08T04:09:48.725Z</time>
      </trkpt>
      <trkpt lat="52.33797" lon="21.03458">
        <ele>80.783733</ele>
        <time>2020-10-08T04:09:54.836Z</time>
      </trkpt>
      <trkpt lat="52.33765" lon="21.03459">
        <ele>80.831061</ele>
        <time>2020-10-08T04:10:02.187Z</time>
      </trkpt>
      <trkpt lat="52.33757" lon="21.03459">
        <ele>80.842972</ele>
        <time>2020-10-08T04:10:03.971Z</time>
      </trkpt>
      <trkpt lat="52.33683" lon="21.03455">
        <ele>80.911987</ele>
        <time>2020-10-08T04:10:19.844Z</time>
      </trkpt>
      <trkpt lat="52.33562" lon="21.03441">
        <ele>80.585764</ele>
        <time>2020-10-08T04:10:45.902Z</time>
      </trkpt>
      <trkpt lat="52.33557" lon="21.03439">
        <ele>80.572166</ele>
        <time>2020-10-08T04:10:46.952Z</time>
      </trkpt>
      <trkpt lat="52.3353" lon="21.03411">
        <ele>80.487343</ele>
        <time>2020-10-08T04:10:53.592Z</time>
      </trkpt>
      <trkpt lat="52.33518" lon="21.03385">
        <ele>80.434519</ele>
        <time>2020-10-08T04:10:57.663Z</time>
      </trkpt>
      <trkpt lat="52.33516" lon="21.03338">
        <ele>80.356527</ele>
        <time>2020-10-08T04:11:03.755Z</time>
      </trkpt>
      <trkpt lat="52.33516" lon="21.03313">
        <ele>80.315988</ele>
        <time>2020-10-08T04:11:06.935Z</time>
      </trkpt>
      <trkpt lat="52.33509" lon="21.033">
        <ele>80.287077</ele>
        <time>2020-10-08T04:11:09.216Z</time>
      </trkpt>
      <trkpt lat="52.33459" lon="21.03294">
        <ele>80.15269</ele>
        <time>2020-10-08T04:11:19.789Z</time>
      </trkpt>
      <trkpt lat="52.33372" lon="21.03284">
        <ele>79.958724</ele>
        <time>2020-10-08T04:11:38.479Z</time>
      </trkpt>
      <trkpt lat="52.33353" lon="21.03283">
        <ele>79.947288</ele>
        <time>2020-10-08T04:11:42.547Z</time>
      </trkpt>
      <trkpt lat="52.33225" lon="21.0327">
        <ele>79.870183</ele>
        <time>2020-10-08T04:12:11.020Z</time>
      </trkpt>
      <trkpt lat="52.33168" lon="21.03262">
        <ele>79.924739</ele>
        <time>2020-10-08T04:12:24.112Z</time>
      </trkpt>
      <trkpt lat="52.33162" lon="21.03261">
        <ele>79.932087</ele>
        <time>2020-10-08T04:12:25.463Z</time>
      </trkpt>
      <trkpt lat="52.33065" lon="21.03237">
        <ele>80.068355</ele>
        <time>2020-10-08T04:12:47.885Z</time>
      </trkpt>
      <trkpt lat="52.33049" lon="21.03231">
        <ele>80.091132</ele>
        <time>2020-10-08T04:12:51.807Z</time>
      </trkpt>
      <trkpt lat="52.33037" lon="21.03226">
        <ele>80.107322</ele>
        <time>2020-10-08T04:12:54.426Z</time>
      </trkpt>
      <trkpt lat="52.33009" lon="21.03215">
        <ele>80.06634</ele>
        <time>2020-10-08T04:13:01.001Z</time>
      </trkpt>
      <trkpt lat="52.32923" lon="21.03182">
        <ele>79.91345</ele>
        <time>2020-10-08T04:13:20.497Z</time>
      </trkpt>
      <trkpt lat="52.32919" lon="21.03181">
        <ele>79.906902</ele>
        <time>2020-10-08T04:13:21.337Z</time>
      </trkpt>
      <trkpt lat="52.32893" lon="21.0317">
        <ele>79.8596</ele>
        <time>2020-10-08T04:13:27.109Z</time>
      </trkpt>
      <trkpt lat="52.32853" lon="21.03155">
        <ele>79.780306</ele>
        <time>2020-10-08T04:13:35.280Z</time>
      </trkpt>
      <trkpt lat="52.32829" lon="21.03146">
        <ele>79.698324</ele>
        <time>2020-10-08T04:13:40.458Z</time>
      </trkpt>
      <trkpt lat="52.32814" lon="21.0314">
        <ele>79.646803</ele>
        <time>2020-10-08T04:13:43.574Z</time>
      </trkpt>
      <trkpt lat="52.32798" lon="21.03137">
        <ele>79.594874</ele>
        <time>2020-10-08T04:13:46.835Z</time>
      </trkpt>
      <trkpt lat="52.32781" lon="21.03136">
        <ele>79.53779</ele>
        <time>2020-10-08T04:13:50.385Z</time>
      </trkpt>
      <trkpt lat="52.32769" lon="21.03134">
        <ele>79.496783</ele>
        <time>2020-10-08T04:13:52.980Z</time>
      </trkpt>
      <trkpt lat="52.32754" lon="21.03132">
        <ele>79.447425</ele>
        <time>2020-10-08T04:13:56.215Z</time>
      </trkpt>
      <trkpt lat="52.3275" lon="21.03135">
        <ele>79.432266</ele>
        <time>2020-10-08T04:13:57.097Z</time>
      </trkpt>
      <trkpt lat="52.32704" lon="21.0315">
        <ele>79.278546</ele>
        <time>2020-10-08T04:14:07.281Z</time>
      </trkpt>
      <trkpt lat="52.32654" lon="21.03163">
        <ele>79.241278</ele>
        <time>2020-10-08T04:14:18.467Z</time>
      </trkpt>
      <trkpt lat="52.32642" lon="21.03166">
        <ele>79.254997</ele>
        <time>2020-10-08T04:14:21.091Z</time>
      </trkpt>
      <trkpt lat="52.32623" lon="21.03171">
        <ele>79.275892</ele>
        <time>2020-10-08T04:14:25.291Z</time>
      </trkpt>
      <trkpt lat="52.32607" lon="21.03175">
        <ele>79.294951</ele>
        <time>2020-10-08T04:14:28.984Z</time>
      </trkpt>
      <trkpt lat="52.32591" lon="21.03179">
        <ele>79.312298</ele>
        <time>2020-10-08T04:14:32.592Z</time>
      </trkpt>
      <trkpt lat="52.32472" lon="21.0321">
        <ele>79.445654</ele>
        <time>2020-10-08T04:15:00.784Z</time>
      </trkpt>
      <trkpt lat="52.32416" lon="21.03224">
        <ele>79.505297</ele>
        <time>2020-10-08T04:15:13.761Z</time>
      </trkpt>
      <trkpt lat="52.32344" lon="21.03238">
        <ele>79.582347</ele>
        <time>2020-10-08T04:15:30.118Z</time>
      </trkpt>
      <trkpt lat="52.32267" lon="21.03247">
        <ele>79.590911</ele>
        <time>2020-10-08T04:15:46.937Z</time>
      </trkpt>
      <trkpt lat="52.32239" lon="21.03251">
        <ele>79.586596</ele>
        <time>2020-10-08T04:15:53.114Z</time>
      </trkpt>
      <trkpt lat="52.32144" lon="21.03253">
        <ele>79.578356</ele>
        <time>2020-10-08T04:16:14.010Z</time>
      </trkpt>
      <trkpt lat="52.32056" lon="21.03252">
        <ele>79.743932</ele>
        <time>2020-10-08T04:16:34.378Z</time>
      </trkpt>
      <trkpt lat="52.32009" lon="21.03252">
        <ele>79.83036</ele>
        <time>2020-10-08T04:16:45.087Z</time>
      </trkpt>
      <trkpt lat="52.31929" lon="21.03251">
        <ele>79.962016</ele>
        <time>2020-10-08T04:17:03.812Z</time>
      </trkpt>
      <trkpt lat="52.31857" lon="21.03249">
        <ele>80.062992</ele>
        <time>2020-10-08T04:17:20.642Z</time>
      </trkpt>
      <trkpt lat="52.31848" lon="21.03249">
        <ele>80.074863</ele>
        <time>2020-10-08T04:17:22.558Z</time>
      </trkpt>
      <trkpt lat="52.31832" lon="21.03248">
        <ele>80.097211</ele>
        <time>2020-10-08T04:17:26.136Z</time>
      </trkpt>
      <trkpt lat="52.3182" lon="21.03245">
        <ele>80.115017</ele>
        <time>2020-10-08T04:17:29.009Z</time>
      </trkpt>
      <trkpt lat="52.31811" lon="21.03242">
        <ele>80.126987</ele>
        <time>2020-10-08T04:17:30.895Z</time>
      </trkpt>
      <trkpt lat="52.31804" lon="21.03234">
        <ele>80.138555</ele>
        <time>2020-10-08T04:17:32.772Z</time>
      </trkpt>
      <trkpt lat="52.31798" lon="21.0322">
        <ele>80.153699</ele>
        <time>2020-10-08T04:17:35.110Z</time>
      </trkpt>
      <trkpt lat="52.3178" lon="21.03136">
        <ele>80.086885</ele>
        <time>2020-10-08T04:17:47.165Z</time>
      </trkpt>
      <trkpt lat="52.31769" lon="21.03068">
        <ele>80.024872</ele>
        <time>2020-10-08T04:17:56.623Z</time>
      </trkpt>
      <trkpt lat="52.31764" lon="21.0301">
        <ele>79.973685</ele>
        <time>2020-10-08T04:18:04.461Z</time>
      </trkpt>
      <trkpt lat="52.31762" lon="21.0299">
        <ele>79.955774</ele>
        <time>2020-10-08T04:18:07.152Z</time>
      </trkpt>
      <trkpt lat="52.31757" lon="21.02963">
        <ele>79.931164</ele>
        <time>2020-10-08T04:18:10.848Z</time>
      </trkpt>
      <trkpt lat="52.31744" lon="21.0295">
        <ele>79.909449</ele>
        <time>2020-10-08T04:18:14.002Z</time>
      </trkpt>
      <trkpt lat="52.31726" lon="21.02948">
        <ele>79.880224</ele>
        <time>2020-10-08T04:18:17.921Z</time>
      </trkpt>
      <trkpt lat="52.31707" lon="21.02951">
        <ele>79.850499</ele>
        <time>2020-10-08T04:18:21.716Z</time>
      </trkpt>
      <trkpt lat="52.31702" lon="21.02953">
        <ele>79.840786</ele>
        <time>2020-10-08T04:18:23.003Z</time>
      </trkpt>
      <trkpt lat="52.31681" lon="21.02957">
        <ele>79.80658</ele>
        <time>2020-10-08T04:18:27.344Z</time>
      </trkpt>
      <trkpt lat="52.31674" lon="21.02958">
        <ele>79.79622</ele>
        <time>2020-10-08T04:18:28.739Z</time>
      </trkpt>
      <trkpt lat="52.3164" lon="21.02964">
        <ele>79.73928</ele>
        <time>2020-10-08T04:18:36.304Z</time>
      </trkpt>
      <trkpt lat="52.31636" lon="21.02965">
        <ele>79.732726</ele>
        <time>2020-10-08T04:18:37.220Z</time>
      </trkpt>
      <trkpt lat="52.31625" lon="21.02967">
        <ele>79.715349</ele>
        <time>2020-10-08T04:18:39.632Z</time>
      </trkpt>
      <trkpt lat="52.31612" lon="21.02969">
        <ele>79.693386</ele>
        <time>2020-10-08T04:18:42.525Z</time>
      </trkpt>
      <trkpt lat="52.31574" lon="21.02975">
        <ele>79.631434</ele>
        <time>2020-10-08T04:18:50.896Z</time>
      </trkpt>
      <trkpt lat="52.3157" lon="21.02975">
        <ele>79.624221</ele>
        <time>2020-10-08T04:18:51.882Z</time>
      </trkpt>
      <trkpt lat="52.31531" lon="21.02982">
        <ele>79.622779</ele>
        <time>2020-10-08T04:19:00.447Z</time>
      </trkpt>
      <trkpt lat="52.31492" lon="21.02988">
        <ele>79.643639</ele>
        <time>2020-10-08T04:19:08.998Z</time>
      </trkpt>
      <trkpt lat="52.31473" lon="21.02989">
        <ele>79.65368</ele>
        <time>2020-10-08T04:19:13.245Z</time>
      </trkpt>
      <trkpt lat="52.31451" lon="21.0299">
        <ele>79.665547</ele>
        <time>2020-10-08T04:19:18.127Z</time>
      </trkpt>
      <trkpt lat="52.31436" lon="21.02991">
        <ele>79.673864</ele>
        <time>2020-10-08T04:19:21.736Z</time>
      </trkpt>
      <trkpt lat="52.31401" lon="21.02991">
        <ele>79.692323</ele>
        <time>2020-10-08T04:19:29.762Z</time>
      </trkpt>
      <trkpt lat="52.31375" lon="21.02992">
        <ele>79.698958</ele>
        <time>2020-10-08T04:19:35.695Z</time>
      </trkpt>
      <trkpt lat="52.31321" lon="21.02994">
        <ele>79.642512</ele>
        <time>2020-10-08T04:19:48.004Z</time>
      </trkpt>
      <trkpt lat="52.31308" lon="21.02995">
        <ele>79.629056</ele>
        <time>2020-10-08T04:19:50.805Z</time>
      </trkpt>
      <trkpt lat="52.31282" lon="21.02995">
        <ele>79.601622</ele>
        <time>2020-10-08T04:19:56.604Z</time>
      </trkpt>
      <trkpt lat="52.31267" lon="21.02995">
        <ele>79.586184</ele>
        <time>2020-10-08T04:19:59.752Z</time>
      </trkpt>
      <trkpt lat="52.3125" lon="21.02995">
        <ele>79.568449</ele>
        <time>2020-10-08T04:20:03.465Z</time>
      </trkpt>
      <trkpt lat="52.31225" lon="21.02996">
        <ele>79.542369</ele>
        <time>2020-10-08T04:20:08.768Z</time>
      </trkpt>
      <trkpt lat="52.31162" lon="21.02996">
        <ele>79.39568</ele>
        <time>2020-10-08T04:20:22.023Z</time>
      </trkpt>
      <trkpt lat="52.31109" lon="21.02996">
        <ele>79.227839</ele>
        <time>2020-10-08T04:20:33.120Z</time>
      </trkpt>
      <trkpt lat="52.3109" lon="21.02996">
        <ele>79.167327</ele>
        <time>2020-10-08T04:20:37.214Z</time>
      </trkpt>
      <trkpt lat="52.3108" lon="21.02996">
        <ele>79.133568</ele>
        <time>2020-10-08T04:20:39.410Z</time>
      </trkpt>
      <trkpt lat="52.31062" lon="21.02996">
        <ele>79.076558</ele>
        <time>2020-10-08T04:20:43.186Z</time>
      </trkpt>
      <trkpt lat="52.31039" lon="21.02996">
        <ele>79.003941</ele>
        <time>2020-10-08T04:20:47.921Z</time>
      </trkpt>
      <trkpt lat="52.31033" lon="21.02996">
        <ele>78.984195</ele>
        <time>2020-10-08T04:20:49.220Z</time>
      </trkpt>
      <trkpt lat="52.30984" lon="21.02995">
        <ele>78.900635</ele>
        <time>2020-10-08T04:20:59.496Z</time>
      </trkpt>
      <trkpt lat="52.30945" lon="21.02995">
        <ele>78.855275</ele>
        <time>2020-10-08T04:21:07.658Z</time>
      </trkpt>
      <trkpt lat="52.30935" lon="21.02995">
        <ele>78.843641</ele>
        <time>2020-10-08T04:21:09.767Z</time>
      </trkpt>
      <trkpt lat="52.30911" lon="21.02995">
        <ele>78.81485</ele>
        <time>2020-10-08T04:21:15.182Z</time>
      </trkpt>
      <trkpt lat="52.30905" lon="21.02995">
        <ele>78.807916</ele>
        <time>2020-10-08T04:21:16.478Z</time>
      </trkpt>
      <trkpt lat="52.30871" lon="21.02994">
        <ele>78.768195</ele>
        <time>2020-10-08T04:21:24.273Z</time>
      </trkpt>
      <trkpt lat="52.30858" lon="21.02994">
        <ele>78.752448</ele>
        <time>2020-10-08T04:21:27.406Z</time>
      </trkpt>
      <trkpt lat="52.30843" lon="21.02994">
        <ele>78.735053</ele>
        <time>2020-10-08T04:21:30.835Z</time>
      </trkpt>
      <trkpt lat="52.30838" lon="21.02994">
        <ele>78.734204</ele>
        <time>2020-10-08T04:21:31.819Z</time>
      </trkpt>
      <trkpt lat="52.30802" lon="21.02993">
        <ele>78.779521</ele>
        <time>2020-10-08T04:21:39.937Z</time>
      </trkpt>
      <trkpt lat="52.30751" lon="21.02993">
        <ele>78.843384</ele>
        <time>2020-10-08T04:21:51.472Z</time>
      </trkpt>
      <trkpt lat="52.30701" lon="21.02991">
        <ele>78.905883</ele>
        <time>2020-10-08T04:22:03.183Z</time>
      </trkpt>
      <trkpt lat="52.30691" lon="21.02991">
        <ele>78.918083</ele>
        <time>2020-10-08T04:22:05.434Z</time>
      </trkpt>
      <trkpt lat="52.30656" lon="21.0299">
        <ele>78.962124</ele>
        <time>2020-10-08T04:22:13.494Z</time>
      </trkpt>
      <trkpt lat="52.30559" lon="21.0299">
        <ele>79.095363</ele>
        <time>2020-10-08T04:22:35.110Z</time>
      </trkpt>
      <trkpt lat="52.3051" lon="21.02989">
        <ele>79.162398</ele>
        <time>2020-10-08T04:22:46.025Z</time>
      </trkpt>
      <trkpt lat="52.30477" lon="21.02988">
        <ele>79.216263</ele>
        <time>2020-10-08T04:22:53.852Z</time>
      </trkpt>
      <trkpt lat="52.30438" lon="21.02988">
        <ele>79.359845</ele>
        <time>2020-10-08T04:23:03.071Z</time>
      </trkpt>
      <trkpt lat="52.30415" lon="21.02988">
        <ele>79.448379</ele>
        <time>2020-10-08T04:23:08.826Z</time>
      </trkpt>
      <trkpt lat="52.30377" lon="21.02987">
        <ele>79.587503</ele>
        <time>2020-10-08T04:23:17.749Z</time>
      </trkpt>
      <trkpt lat="52.30369" lon="21.02987">
        <ele>79.616892</ele>
        <time>2020-10-08T04:23:19.580Z</time>
      </trkpt>
      <trkpt lat="52.30346" lon="21.02987">
        <ele>79.703933</ele>
        <time>2020-10-08T04:23:25.196Z</time>
      </trkpt>
      <trkpt lat="52.30317" lon="21.02987">
        <ele>79.81255</ele>
        <time>2020-10-08T04:23:32.188Z</time>
      </trkpt>
      <trkpt lat="52.30296" lon="21.02986">
        <ele>79.872839</ele>
        <time>2020-10-08T04:23:37.239Z</time>
      </trkpt>
      <trkpt lat="52.30277" lon="21.02986">
        <ele>79.873878</ele>
        <time>2020-10-08T04:23:41.692Z</time>
      </trkpt>
      <trkpt lat="52.30256" lon="21.02985">
        <ele>79.875116</ele>
        <time>2020-10-08T04:23:46.757Z</time>
      </trkpt>
      <trkpt lat="52.3024" lon="21.02983">
        <ele>79.875993</ele>
        <time>2020-10-08T04:23:50.381Z</time>
      </trkpt>
      <trkpt lat="52.30225" lon="21.0298">
        <ele>79.876852</ele>
        <time>2020-10-08T04:23:53.813Z</time>
      </trkpt>
      <trkpt lat="52.30217" lon="21.02978">
        <ele>79.877336</ele>
        <time>2020-10-08T04:23:55.634Z</time>
      </trkpt>
      <trkpt lat="52.30162" lon="21.02954">
        <ele>79.880532</ele>
        <time>2020-10-08T04:24:07.944Z</time>
      </trkpt>
      <trkpt lat="52.30124" lon="21.02927">
        <ele>79.877773</ele>
        <time>2020-10-08T04:24:16.640Z</time>
      </trkpt>
      <trkpt lat="52.30119" lon="21.02923">
        <ele>79.862659</ele>
        <time>2020-10-08T04:24:17.882Z</time>
      </trkpt>
      <trkpt lat="52.30069" lon="21.02885">
        <ele>79.7303</ele>
        <time>2020-10-08T04:24:29.271Z</time>
      </trkpt>
      <trkpt lat="52.30038" lon="21.02862">
        <ele>79.648784</ele>
        <time>2020-10-08T04:24:36.398Z</time>
      </trkpt>
      <trkpt lat="52.30026" lon="21.02853">
        <ele>79.615321</ele>
        <time>2020-10-08T04:24:39.395Z</time>
      </trkpt>
      <trkpt lat="52.30022" lon="21.02866">
        <ele>79.593806</ele>
        <time>2020-10-08T04:24:41.246Z</time>
      </trkpt>
      <trkpt lat="52.3002" lon="21.02871">
        <ele>79.586504</ele>
        <time>2020-10-08T04:24:41.869Z</time>
      </trkpt>
      <trkpt lat="52.30021" lon="21.02892">
        <ele>79.554659</ele>
        <time>2020-10-08T04:24:44.797Z</time>
      </trkpt>
      <trkpt lat="52.30045" lon="21.02986">
        <ele>79.498774</ele>
        <time>2020-10-08T04:24:58.335Z</time>
      </trkpt>
      <trkpt lat="52.30067" lon="21.03071">
        <ele>79.660953</ele>
        <time>2020-10-08T04:25:11.328Z</time>
      </trkpt>
      <trkpt lat="52.3007" lon="21.03084">
        <ele>79.686697</ele>
        <time>2020-10-08T04:25:13.500Z</time>
      </trkpt>
      <trkpt lat="52.30074" lon="21.031">
        <ele>79.717264</ele>
        <time>2020-10-08T04:25:15.973Z</time>
      </trkpt>
      <trkpt lat="52.30073" lon="21.03115">
        <ele>79.7437</ele>
        <time>2020-10-08T04:25:18.112Z</time>
      </trkpt>
      <trkpt lat="52.30065" lon="21.03134">
        <ele>79.78302</ele>
        <time>2020-10-08T04:25:21.517Z</time>
      </trkpt>
      <trkpt lat="52.30054" lon="21.03145">
        <ele>79.822601</ele>
        <time>2020-10-08T04:25:24.864Z</time>
      </trkpt>
      <trkpt lat="52.30001" lon="21.03166">
        <ele>79.982196</ele>
        <time>2020-10-08T04:25:37.983Z</time>
      </trkpt>
      <trkpt lat="52.29996" lon="21.03168">
        <ele>80.005888</ele>
        <time>2020-10-08T04:25:39.461Z</time>
      </trkpt>
      <trkpt lat="52.29991" lon="21.03169">
        <ele>80.023927</ele>
        <time>2020-10-08T04:25:40.565Z</time>
      </trkpt>
      <trkpt lat="52.2999" lon="21.03157">
        <ele>80.054694</ele>
        <time>2020-10-08T04:25:42.324Z</time>
      </trkpt>
      <trkpt lat="52.29987" lon="21.03153">
        <ele>80.069461</ele>
        <time>2020-10-08T04:25:43.187Z</time>
      </trkpt>
      <trkpt lat="52.29983" lon="21.03149">
        <ele>80.087911</ele>
        <time>2020-10-08T04:25:44.210Z</time>
      </trkpt>
      <trkpt lat="52.29975" lon="21.03155">
        <ele>80.125468</ele>
        <time>2020-10-08T04:25:46.528Z</time>
      </trkpt>
      <trkpt lat="52.2992" lon="21.03189">
        <ele>80.365832</ele>
        <time>2020-10-08T04:26:00.842Z</time>
      </trkpt>
      <trkpt lat="52.29915" lon="21.03193">
        <ele>80.385875</ele>
        <time>2020-10-08T04:26:01.987Z</time>
      </trkpt>
      <trkpt lat="52.29907" lon="21.03197">
        <ele>80.420039</ele>
        <time>2020-10-08T04:26:04.056Z</time>
      </trkpt>
      <trkpt lat="52.29905" lon="21.03199">
        <ele>80.430862</ele>
        <time>2020-10-08T04:26:04.756Z</time>
      </trkpt>
      <trkpt lat="52.29903" lon="21.03199">
        <ele>80.438215</ele>
        <time>2020-10-08T04:26:05.221Z</time>
      </trkpt>
      <trkpt lat="52.29901" lon="21.03197">
        <ele>80.446541</ele>
        <time>2020-10-08T04:26:05.698Z</time>
      </trkpt>
      <trkpt lat="52.299" lon="21.03194">
        <ele>80.456321</ele>
        <time>2020-10-08T04:26:06.578Z</time>
      </trkpt>
      <trkpt lat="52.2989" lon="21.03152">
        <ele>80.568172</ele>
        <time>2020-10-08T04:26:13.221Z</time>
      </trkpt>
      <trkpt lat="52.29865" lon="21.03052">
        <ele>80.87427</ele>
        <time>2020-10-08T04:26:29.842Z</time>
      </trkpt>
      <trkpt lat="52.29853" lon="21.03006">
        <ele>81.032384</ele>
        <time>2020-10-08T04:26:37.536Z</time>
      </trkpt>
      <trkpt lat="52.2985" lon="21.02986">
        <ele>81.097542</ele>
        <time>2020-10-08T04:26:40.539Z</time>
      </trkpt>
      <trkpt lat="52.29851" lon="21.02986">
        <ele>81.102711</ele>
        <time>2020-10-08T04:26:40.784Z</time>
      </trkpt>
      <trkpt lat="52.29854" lon="21.02983">
        <ele>81.122313</ele>
        <time>2020-10-08T04:26:41.651Z</time>
      </trkpt>
      <trkpt lat="52.29857" lon="21.02981">
        <ele>81.139114</ele>
        <time>2020-10-08T04:26:42.806Z</time>
      </trkpt>
      <trkpt lat="52.29833" lon="21.02875">
        <ele>81.497207</ele>
        <time>2020-10-08T04:26:59.867Z</time>
      </trkpt>
      <trkpt lat="52.29761" lon="21.02644">
        <ele>82.397012</ele>
        <time>2020-10-08T04:27:41.431Z</time>
      </trkpt>
      <trkpt lat="52.29757" lon="21.02643">
        <ele>82.419908</ele>
        <time>2020-10-08T04:27:42.296Z</time>
      </trkpt>
      <trkpt lat="52.29749" lon="21.0264">
        <ele>82.463376</ele>
        <time>2020-10-08T04:27:44.232Z</time>
      </trkpt>
      <trkpt lat="52.29738" lon="21.02635">
        <ele>82.529424</ele>
        <time>2020-10-08T04:27:47.192Z</time>
      </trkpt>
      <trkpt lat="52.29685" lon="21.02537">
        <ele>82.642071</ele>
        <time>2020-10-08T04:28:06.499Z</time>
      </trkpt>
      <trkpt lat="52.29673" lon="21.02533">
        <ele>82.637528</ele>
        <time>2020-10-08T04:28:09.234Z</time>
      </trkpt>
      <trkpt lat="52.29649" lon="21.02538">
        <ele>82.628217</ele>
        <time>2020-10-08T04:28:14.893Z</time>
      </trkpt>
      <trkpt lat="52.29647" lon="21.02536">
        <ele>82.627402</ele>
        <time>2020-10-08T04:28:15.412Z</time>
      </trkpt>
      <trkpt lat="52.29646" lon="21.02534">
        <ele>82.62669</ele>
        <time>2020-10-08T04:28:15.839Z</time>
      </trkpt>
      <trkpt lat="52.29643" lon="21.02527">
        <ele>82.624828</ele>
        <time>2020-10-08T04:28:16.881Z</time>
      </trkpt>
      <trkpt lat="52.29627" lon="21.02468">
        <ele>82.610017</ele>
        <time>2020-10-08T04:28:25.715Z</time>
      </trkpt>
      <trkpt lat="52.29628" lon="21.02465">
        <ele>82.609341</ele>
        <time>2020-10-08T04:28:26.065Z</time>
      </trkpt>
      <trkpt lat="52.2963" lon="21.02461">
        <ele>82.608035</ele>
        <time>2020-10-08T04:28:26.796Z</time>
      </trkpt>
      <trkpt lat="52.29643" lon="21.02437">
        <ele>82.60078</ele>
        <time>2020-10-08T04:28:31.282Z</time>
      </trkpt>
      <trkpt lat="52.29644" lon="21.02418">
        <ele>82.596273</ele>
        <time>2020-10-08T04:28:33.913Z</time>
      </trkpt>
      <trkpt lat="52.29644" lon="21.02412">
        <ele>82.592573</ele>
        <time>2020-10-08T04:28:34.662Z</time>
      </trkpt>
      <trkpt lat="52.29628" lon="21.02243">
        <ele>82.424979</ele>
        <time>2020-10-08T04:28:58.019Z</time>
      </trkpt>
      <trkpt lat="52.29627" lon="21.02234">
        <ele>82.416776</ele>
        <time>2020-10-08T04:28:59.115Z</time>
      </trkpt>
      <trkpt lat="52.29621" lon="21.02201">
        <ele>82.382545</ele>
        <time>2020-10-08T04:29:03.916Z</time>
      </trkpt>
      <trkpt lat="52.29484" lon="21.0177">
        <ele>82.73275</ele>
        <time>2020-10-08T04:30:14.785Z</time>
      </trkpt>
      <trkpt lat="52.29473" lon="21.01761">
        <ele>82.757916</ele>
        <time>2020-10-08T04:30:17.888Z</time>
      </trkpt>
      <trkpt lat="52.29465" lon="21.01753">
        <ele>82.776043</ele>
        <time>2020-10-08T04:30:20.220Z</time>
      </trkpt>
      <trkpt lat="52.29455" lon="21.01739">
        <ele>82.804604</ele>
        <time>2020-10-08T04:30:23.503Z</time>
      </trkpt>
      <trkpt lat="52.29445" lon="21.01733">
        <ele>82.826365</ele>
        <time>2020-10-08T04:30:26.208Z</time>
      </trkpt>
      <trkpt lat="52.29434" lon="21.01721">
        <ele>82.853865</ele>
        <time>2020-10-08T04:30:29.303Z</time>
      </trkpt>
      <trkpt lat="52.2942" lon="21.01717">
        <ele>82.881724</ele>
        <time>2020-10-08T04:30:32.472Z</time>
      </trkpt>
      <trkpt lat="52.29408" lon="21.01714">
        <ele>82.907687</ele>
        <time>2020-10-08T04:30:35.652Z</time>
      </trkpt>
      <trkpt lat="52.29408" lon="21.01707">
        <ele>82.916291</ele>
        <time>2020-10-08T04:30:36.499Z</time>
      </trkpt>
      <trkpt lat="52.29448" lon="21.0171">
        <ele>82.916893</ele>
        <time>2020-10-08T04:30:46.141Z</time>
      </trkpt>
      <trkpt lat="52.29451" lon="21.01694">
        <ele>82.896044</ele>
        <time>2020-10-08T04:30:48.494Z</time>
      </trkpt>
      <trkpt lat="52.29452" lon="21.01687">
        <ele>82.887012</ele>
        <time>2020-10-08T04:30:49.467Z</time>
      </trkpt>
      <trkpt lat="52.29449" lon="21.0168">
        <ele>82.876442</ele>
        <time>2020-10-08T04:30:50.742Z</time>
      </trkpt>
      <trkpt lat="52.29443" lon="21.01664">
        <ele>82.852378</ele>
        <time>2020-10-08T04:30:53.201Z</time>
      </trkpt>
      <trkpt lat="52.29436" lon="21.01668">
        <ele>82.837333</ele>
        <time>2020-10-08T04:30:54.977Z</time>
      </trkpt>
      <trkpt lat="52.29434" lon="21.01677">
        <ele>82.825706</ele>
        <time>2020-10-08T04:30:56.288Z</time>
      </trkpt>
      <trkpt lat="52.29448" lon="21.01692">
        <ele>82.790386</ele>
        <time>2020-10-08T04:31:00.134Z</time>
      </trkpt>
      <trkpt lat="52.29451" lon="21.01691">
        <ele>82.78388</ele>
        <time>2020-10-08T04:31:00.775Z</time>
      </trkpt>
      <trkpt lat="52.29454" lon="21.01689">
        <ele>82.778524</ele>
        <time>2020-10-08T04:31:01.237Z</time>
      </trkpt>
      <trkpt lat="52.29457" lon="21.01675">
        <ele>82.759873</ele>
        <time>2020-10-08T04:31:03.338Z</time>
      </trkpt>
      <trkpt lat="52.29415" lon="21.01544">
        <ele>82.569274</ele>
        <time>2020-10-08T04:31:23.321Z</time>
      </trkpt>
      <trkpt lat="52.29412" lon="21.01538">
        <ele>82.556745</ele>
        <time>2020-10-08T04:31:24.262Z</time>
      </trkpt>
      <trkpt lat="52.29409" lon="21.0153">
        <ele>82.541916</ele>
        <time>2020-10-08T04:31:25.429Z</time>
      </trkpt>
      <trkpt lat="52.294" lon="21.01519">
        <ele>82.512747</ele>
        <time>2020-10-08T04:31:28.012Z</time>
      </trkpt>
      <trkpt lat="52.29374" lon="21.01519">
        <ele>82.445481</ele>
        <time>2020-10-08T04:31:33.546Z</time>
      </trkpt>
      <trkpt lat="52.29359" lon="21.01489">
        <ele>82.3824</ele>
        <time>2020-10-08T04:31:39.085Z</time>
      </trkpt>
      <trkpt lat="52.29356" lon="21.0148">
        <ele>82.366128</ele>
        <time>2020-10-08T04:31:40.357Z</time>
      </trkpt>
      <trkpt lat="52.29355" lon="21.01458">
        <ele>82.331605</ele>
        <time>2020-10-08T04:31:43.454Z</time>
      </trkpt>
      <trkpt lat="52.29356" lon="21.01451">
        <ele>82.319574</ele>
        <time>2020-10-08T04:31:44.489Z</time>
      </trkpt>
      <trkpt lat="52.29361" lon="21.01441">
        <ele>82.298474</ele>
        <time>2020-10-08T04:31:46.297Z</time>
      </trkpt>
      <trkpt lat="52.29371" lon="21.01436">
        <ele>82.27255</ele>
        <time>2020-10-08T04:31:48.341Z</time>
      </trkpt>
      <trkpt lat="52.29376" lon="21.01438">
        <ele>82.259745</ele>
        <time>2020-10-08T04:31:49.542Z</time>
      </trkpt>
      <trkpt lat="52.29383" lon="21.01448">
        <ele>82.234606</ele>
        <time>2020-10-08T04:31:51.503Z</time>
      </trkpt>
      <trkpt lat="52.29383" lon="21.01464">
        <ele>82.209549</ele>
        <time>2020-10-08T04:31:53.542Z</time>
      </trkpt>
      <trkpt lat="52.29357" lon="21.01484">
        <ele>82.134481</ele>
        <time>2020-10-08T04:31:59.597Z</time>
      </trkpt>
      <trkpt lat="52.29349" lon="21.01484">
        <ele>82.115135</ele>
        <time>2020-10-08T04:32:01.341Z</time>
      </trkpt>
      <trkpt lat="52.29346" lon="21.01471">
        <ele>82.101522</ele>
        <time>2020-10-08T04:32:03.309Z</time>
      </trkpt>
      <trkpt lat="52.29353" lon="21.01441">
        <ele>82.069477</ele>
        <time>2020-10-08T04:32:07.474Z</time>
      </trkpt>
      <trkpt lat="52.29343" lon="21.01392">
        <ele>82.019616</ele>
        <time>2020-10-08T04:32:14.304Z</time>
      </trkpt>
      <trkpt lat="52.29334" lon="21.01351">
        <ele>81.976527</ele>
        <time>2020-10-08T04:32:20.232Z</time>
      </trkpt>
      <trkpt lat="52.2933" lon="21.01328">
        <ele>81.952519</ele>
        <time>2020-10-08T04:32:23.209Z</time>
      </trkpt>
      <trkpt lat="52.29309" lon="21.01216">
        <ele>81.838004</ele>
        <time>2020-10-08T04:32:38.673Z</time>
      </trkpt>
      <trkpt lat="52.29231" lon="21.00958">
        <ele>82.26345</ele>
        <time>2020-10-08T04:33:19.905Z</time>
      </trkpt>
      <trkpt lat="52.29098" lon="21.00562">
        <ele>83.018715</ele>
        <time>2020-10-08T04:34:27.053Z</time>
      </trkpt>
      <trkpt lat="52.29045" lon="21.00443">
        <ele>82.876889</ele>
        <time>2020-10-08T04:34:44.949Z</time>
      </trkpt>
      <trkpt lat="52.2901" lon="21.00402">
        <ele>82.459323</ele>
        <time>2020-10-08T04:34:53.292Z</time>
      </trkpt>
      <trkpt lat="52.29" lon="21.00398">
        <ele>82.353653</ele>
        <time>2020-10-08T04:34:55.193Z</time>
      </trkpt>
      <trkpt lat="52.28996" lon="21.00396">
        <ele>82.307703</ele>
        <time>2020-10-08T04:34:56.069Z</time>
      </trkpt>
      <trkpt lat="52.28986" lon="21.00399">
        <ele>82.198167</ele>
        <time>2020-10-08T04:34:58.141Z</time>
      </trkpt>
      <trkpt lat="52.28986" lon="21.00405">
        <ele>82.162201</ele>
        <time>2020-10-08T04:34:58.793Z</time>
      </trkpt>
      <trkpt lat="52.28986" lon="21.00409">
        <ele>82.139485</ele>
        <time>2020-10-08T04:34:59.250Z</time>
      </trkpt>
      <trkpt lat="52.2898" lon="21.00408">
        <ele>82.081685</ele>
        <time>2020-10-08T04:35:00.323Z</time>
      </trkpt>
      <trkpt lat="52.28965" lon="21.00412">
        <ele>81.925195</ele>
        <time>2020-10-08T04:35:03.312Z</time>
      </trkpt>
      <trkpt lat="52.28954" lon="21.0042">
        <ele>81.803289</ele>
        <time>2020-10-08T04:35:05.717Z</time>
      </trkpt>
      <trkpt lat="52.28918" lon="21.00459">
        <ele>81.355368</ele>
        <time>2020-10-08T04:35:14.400Z</time>
      </trkpt>
      <trkpt lat="52.28901" lon="21.00465">
        <ele>81.178845</ele>
        <time>2020-10-08T04:35:17.723Z</time>
      </trkpt>
      <trkpt lat="52.28821" lon="21.00548">
        <ele>80.618836</ele>
        <time>2020-10-08T04:35:37.272Z</time>
      </trkpt>
      <trkpt lat="52.288" lon="21.0057">
        <ele>80.494276</ele>
        <time>2020-10-08T04:35:42.724Z</time>
      </trkpt>
      <trkpt lat="52.28795" lon="21.00574">
        <ele>80.469701</ele>
        <time>2020-10-08T04:35:43.803Z</time>
      </trkpt>
      <trkpt lat="52.28782" lon="21.00588">
        <ele>80.39198</ele>
        <time>2020-10-08T04:35:47.143Z</time>
      </trkpt>
      <trkpt lat="52.28745" lon="21.00627">
        <ele>80.169112</ele>
        <time>2020-10-08T04:35:57.580Z</time>
      </trkpt>
      <trkpt lat="52.28701" lon="21.00683">
        <ele>80.202829</ele>
        <time>2020-10-08T04:36:10.484Z</time>
      </trkpt>
      <trkpt lat="52.28672" lon="21.00711">
        <ele>80.265739</ele>
        <time>2020-10-08T04:36:18.479Z</time>
      </trkpt>
      <trkpt lat="52.28658" lon="21.00715">
        <ele>80.291626</ele>
        <time>2020-10-08T04:36:21.644Z</time>
      </trkpt>
      <trkpt lat="52.28652" lon="21.00717">
        <ele>80.302364</ele>
        <time>2020-10-08T04:36:23.320Z</time>
      </trkpt>
      <trkpt lat="52.28593" lon="21.00766">
        <ele>80.427237</ele>
        <time>2020-10-08T04:36:39.535Z</time>
      </trkpt>
      <trkpt lat="52.28516" lon="21.00821">
        <ele>80.485083</ele>
        <time>2020-10-08T04:37:00.109Z</time>
      </trkpt>
      <trkpt lat="52.28455" lon="21.00859">
        <ele>80.514294</ele>
        <time>2020-10-08T04:37:15.260Z</time>
      </trkpt>
      <trkpt lat="52.28226" lon="21.00998">
        <ele>80.002001</ele>
        <time>2020-10-08T04:38:09.187Z</time>
      </trkpt>
      <trkpt lat="52.28215" lon="21.01005">
        <ele>79.997974</ele>
        <time>2020-10-08T04:38:11.914Z</time>
      </trkpt>
      <trkpt lat="52.28194" lon="21.01016">
        <ele>79.990474</ele>
        <time>2020-10-08T04:38:16.838Z</time>
      </trkpt>
      <trkpt lat="52.28085" lon="21.01089">
        <ele>79.950133</ele>
        <time>2020-10-08T04:38:44.193Z</time>
      </trkpt>
      <trkpt lat="52.2808" lon="21.01093">
        <ele>79.948246</ele>
        <time>2020-10-08T04:38:45.658Z</time>
      </trkpt>
      <trkpt lat="52.28074" lon="21.01097">
        <ele>79.954874</ele>
        <time>2020-10-08T04:38:47.158Z</time>
      </trkpt>
      <trkpt lat="52.28063" lon="21.01098">
        <ele>79.983633</ele>
        <time>2020-10-08T04:38:49.843Z</time>
      </trkpt>
      <trkpt lat="52.27874" lon="21.01212">
        <ele>80.470042</ele>
        <time>2020-10-08T04:39:38.978Z</time>
      </trkpt>
      <trkpt lat="52.27861" lon="21.0122">
        <ele>80.495488</ele>
        <time>2020-10-08T04:39:42.275Z</time>
      </trkpt>
      <trkpt lat="52.27843" lon="21.0124">
        <ele>80.538312</ele>
        <time>2020-10-08T04:39:47.416Z</time>
      </trkpt>
      <trkpt lat="52.27806" lon="21.01263">
        <ele>80.61585</ele>
        <time>2020-10-08T04:39:57.184Z</time>
      </trkpt>
      <trkpt lat="52.278" lon="21.01266">
        <ele>80.626907</ele>
        <time>2020-10-08T04:39:58.669Z</time>
      </trkpt>
      <trkpt lat="52.27791" lon="21.01272">
        <ele>80.646901</ele>
        <time>2020-10-08T04:40:01.112Z</time>
      </trkpt>
      <trkpt lat="52.27779" lon="21.01274">
        <ele>80.670307</ele>
        <time>2020-10-08T04:40:03.860Z</time>
      </trkpt>
      <trkpt lat="52.27766" lon="21.01278">
        <ele>80.696629</ele>
        <time>2020-10-08T04:40:07.131Z</time>
      </trkpt>
      <trkpt lat="52.27705" lon="21.01321">
        <ele>80.765207</ele>
        <time>2020-10-08T04:40:21.931Z</time>
      </trkpt>
      <trkpt lat="52.27701" lon="21.01324">
        <ele>80.767078</ele>
        <time>2020-10-08T04:40:23.116Z</time>
      </trkpt>
      <trkpt lat="52.27693" lon="21.01329">
        <ele>80.770136</ele>
        <time>2020-10-08T04:40:24.955Z</time>
      </trkpt>
      <trkpt lat="52.27685" lon="21.01336">
        <ele>80.773902</ele>
        <time>2020-10-08T04:40:27.170Z</time>
      </trkpt>
      <trkpt lat="52.27682" lon="21.01343">
        <ele>80.77601</ele>
        <time>2020-10-08T04:40:28.369Z</time>
      </trkpt>
      <trkpt lat="52.27678" lon="21.01343">
        <ele>80.777619</ele>
        <time>2020-10-08T04:40:29.465Z</time>
      </trkpt>
      <trkpt lat="52.27616" lon="21.01382">
        <ele>80.803703</ele>
        <time>2020-10-08T04:40:49.705Z</time>
      </trkpt>
      <trkpt lat="52.27613" lon="21.01385">
        <ele>80.80495</ele>
        <time>2020-10-08T04:40:50.504Z</time>
      </trkpt>
      <trkpt lat="52.276" lon="21.01393">
        <ele>80.810358</ele>
        <time>2020-10-08T04:40:53.884Z</time>
      </trkpt>
      <trkpt lat="52.27475" lon="21.01469">
        <ele>80.879229</ele>
        <time>2020-10-08T04:41:22.937Z</time>
      </trkpt>
      <trkpt lat="52.27471" lon="21.01472">
        <ele>80.881817</ele>
        <time>2020-10-08T04:41:24.091Z</time>
      </trkpt>
      <trkpt lat="52.27463" lon="21.01469">
        <ele>80.886485</ele>
        <time>2020-10-08T04:41:26.269Z</time>
      </trkpt>
      <trkpt lat="52.27433" lon="21.01487">
        <ele>80.904056</ele>
        <time>2020-10-08T04:41:34.119Z</time>
      </trkpt>
      <trkpt lat="52.27425" lon="21.01491">
        <ele>80.908676</ele>
        <time>2020-10-08T04:41:36.191Z</time>
      </trkpt>
      <trkpt lat="52.27411" lon="21.015">
        <ele>80.916635</ele>
        <time>2020-10-08T04:41:39.586Z</time>
      </trkpt>
      <trkpt lat="52.27404" lon="21.01504">
        <ele>80.923207</ele>
        <time>2020-10-08T04:41:41.387Z</time>
      </trkpt>
      <trkpt lat="52.27379" lon="21.01517">
        <ele>80.962073</ele>
        <time>2020-10-08T04:41:47.682Z</time>
      </trkpt>
      <trkpt lat="52.27377" lon="21.01522">
        <ele>80.968003</ele>
        <time>2020-10-08T04:41:48.507Z</time>
      </trkpt>
      <trkpt lat="52.27362" lon="21.01529">
        <ele>80.990591</ele>
        <time>2020-10-08T04:41:52.097Z</time>
      </trkpt>
      <trkpt lat="52.27243" lon="21.01601">
        <ele>81.180342</ele>
        <time>2020-10-08T04:42:20.736Z</time>
      </trkpt>
      <trkpt lat="52.272" lon="21.01628">
        <ele>81.329206</ele>
        <time>2020-10-08T04:42:31.694Z</time>
      </trkpt>
      <trkpt lat="52.27171" lon="21.01646">
        <ele>81.435503</ele>
        <time>2020-10-08T04:42:39.244Z</time>
      </trkpt>
      <trkpt lat="52.27159" lon="21.01663">
        <ele>81.489872</ele>
        <time>2020-10-08T04:42:43.042Z</time>
      </trkpt>
      <trkpt lat="52.2715" lon="21.01671">
        <ele>81.524774</ele>
        <time>2020-10-08T04:42:45.460Z</time>
      </trkpt>
      <trkpt lat="52.27143" lon="21.01675">
        <ele>81.54935</ele>
        <time>2020-10-08T04:42:47.196Z</time>
      </trkpt>
      <trkpt lat="52.27136" lon="21.01681">
        <ele>81.575028</ele>
        <time>2020-10-08T04:42:48.951Z</time>
      </trkpt>
      <trkpt lat="52.27128" lon="21.0168">
        <ele>81.603124</ele>
        <time>2020-10-08T04:42:50.855Z</time>
      </trkpt>
      <trkpt lat="52.27119" lon="21.01689">
        <ele>81.640329</ele>
        <time>2020-10-08T04:42:53.374Z</time>
      </trkpt>
      <trkpt lat="52.27085" lon="21.01726">
        <ele>81.780511</ele>
        <time>2020-10-08T04:43:02.894Z</time>
      </trkpt>
      <trkpt lat="52.27073" lon="21.01741">
        <ele>81.833424</ele>
        <time>2020-10-08T04:43:06.356Z</time>
      </trkpt>
      <trkpt lat="52.27044" lon="21.01775">
        <ele>81.968058</ele>
        <time>2020-10-08T04:43:14.877Z</time>
      </trkpt>
      <trkpt lat="52.26983" lon="21.01848">
        <ele>82.257331</ele>
        <time>2020-10-08T04:43:33.258Z</time>
      </trkpt>
      <trkpt lat="52.26945" lon="21.01894">
        <ele>82.438789</ele>
        <time>2020-10-08T04:43:44.621Z</time>
      </trkpt>
      <trkpt lat="52.26928" lon="21.01911">
        <ele>82.483179</ele>
        <time>2020-10-08T04:43:50.499Z</time>
      </trkpt>
      <trkpt lat="52.26923" lon="21.01916">
        <ele>82.479566</ele>
        <time>2020-10-08T04:43:52.233Z</time>
      </trkpt>
      <trkpt lat="52.26906" lon="21.01944">
        <ele>82.463939</ele>
        <time>2020-10-08T04:43:59.536Z</time>
      </trkpt>
      <trkpt lat="52.26903" lon="21.01951">
        <ele>82.460866</ele>
        <time>2020-10-08T04:44:01.030Z</time>
      </trkpt>
      <trkpt lat="52.269" lon="21.01977">
        <ele>82.450606</ele>
        <time>2020-10-08T04:44:05.938Z</time>
      </trkpt>
      <trkpt lat="52.26896" lon="21.01984">
        <ele>82.44702</ele>
        <time>2020-10-08T04:44:07.623Z</time>
      </trkpt>
      <trkpt lat="52.26889" lon="21.01988">
        <ele>82.442138</ele>
        <time>2020-10-08T04:44:09.922Z</time>
      </trkpt>
      <trkpt lat="52.26869" lon="21.01984">
        <ele>82.429182</ele>
        <time>2020-10-08T04:44:16.088Z</time>
      </trkpt>
      <trkpt lat="52.26864" lon="21.01982">
        <ele>82.426052</ele>
        <time>2020-10-08T04:44:17.201Z</time>
      </trkpt>
      <trkpt lat="52.26859" lon="21.01981">
        <ele>82.422922</ele>
        <time>2020-10-08T04:44:18.330Z</time>
      </trkpt>
      <trkpt lat="52.26849" lon="21.01989">
        <ele>82.41597</ele>
        <time>2020-10-08T04:44:20.921Z</time>
      </trkpt>
      <trkpt lat="52.26837" lon="21.01999">
        <ele>82.407365</ele>
        <time>2020-10-08T04:44:23.989Z</time>
      </trkpt>
      <trkpt lat="52.26765" lon="21.02046">
        <ele>82.292865</ele>
        <time>2020-10-08T04:44:39.892Z</time>
      </trkpt>
      <trkpt lat="52.26759" lon="21.02049">
        <ele>82.274332</ele>
        <time>2020-10-08T04:44:40.994Z</time>
      </trkpt>
      <trkpt lat="52.26749" lon="21.02054">
        <ele>82.240045</ele>
        <time>2020-10-08T04:44:43.091Z</time>
      </trkpt>
      <trkpt lat="52.26736" lon="21.02061">
        <ele>82.193887</ele>
        <time>2020-10-08T04:44:45.921Z</time>
      </trkpt>
      <trkpt lat="52.26694" lon="21.02078">
        <ele>82.054543</ele>
        <time>2020-10-08T04:44:54.810Z</time>
      </trkpt>
      <trkpt lat="52.26683" lon="21.02082">
        <ele>82.017372</ele>
        <time>2020-10-08T04:44:57.209Z</time>
      </trkpt>
      <trkpt lat="52.26668" lon="21.02086">
        <ele>81.968879</ele>
        <time>2020-10-08T04:45:00.401Z</time>
      </trkpt>
      <trkpt lat="52.26662" lon="21.02088">
        <ele>81.947777</ele>
        <time>2020-10-08T04:45:01.984Z</time>
      </trkpt>
      <trkpt lat="52.26659" lon="21.02089">
        <ele>81.939179</ele>
        <time>2020-10-08T04:45:02.599Z</time>
      </trkpt>
      <trkpt lat="52.26648" lon="21.02091">
        <ele>81.903934</ele>
        <time>2020-10-08T04:45:04.879Z</time>
      </trkpt>
      <trkpt lat="52.26594" lon="21.02106">
        <ele>81.837105</ele>
        <time>2020-10-08T04:45:16.878Z</time>
      </trkpt>
      <trkpt lat="52.2658" lon="21.02109">
        <ele>81.872205</ele>
        <time>2020-10-08T04:45:20.236Z</time>
      </trkpt>
      <trkpt lat="52.26545" lon="21.0212">
        <ele>81.95781</ele>
        <time>2020-10-08T04:45:28.460Z</time>
      </trkpt>
      <trkpt lat="52.2653" lon="21.02131">
        <ele>81.996385</ele>
        <time>2020-10-08T04:45:31.986Z</time>
      </trkpt>
      <trkpt lat="52.26527" lon="21.02135">
        <ele>82.005739</ele>
        <time>2020-10-08T04:45:33.123Z</time>
      </trkpt>
      <trkpt lat="52.2652" lon="21.02138">
        <ele>82.021849</ele>
        <time>2020-10-08T04:45:34.785Z</time>
      </trkpt>
      <trkpt lat="52.26469" lon="21.0213">
        <ele>82.145245</ele>
        <time>2020-10-08T04:45:47.632Z</time>
      </trkpt>
      <trkpt lat="52.26454" lon="21.02138">
        <ele>82.182534</ele>
        <time>2020-10-08T04:45:51.582Z</time>
      </trkpt>
      <trkpt lat="52.26434" lon="21.02147">
        <ele>82.223289</ele>
        <time>2020-10-08T04:45:56.676Z</time>
      </trkpt>
      <trkpt lat="52.26434" lon="21.02143">
        <ele>82.224913</ele>
        <time>2020-10-08T04:45:57.275Z</time>
      </trkpt>
      <trkpt lat="52.26433" lon="21.02136">
        <ele>82.227866</ele>
        <time>2020-10-08T04:45:58.374Z</time>
      </trkpt>
      <trkpt lat="52.2643" lon="21.0212">
        <ele>82.23422</ele>
        <time>2020-10-08T04:46:01.025Z</time>
      </trkpt>
      <trkpt lat="52.26427" lon="21.02101">
        <ele>82.241758</ele>
        <time>2020-10-08T04:46:03.760Z</time>
      </trkpt>
      <trkpt lat="52.26427" lon="21.02096">
        <ele>82.243712</ele>
        <time>2020-10-08T04:46:04.445Z</time>
      </trkpt>
      <trkpt lat="52.26426" lon="21.02092">
        <ele>82.245494</ele>
        <time>2020-10-08T04:46:05.135Z</time>
      </trkpt>
      <trkpt lat="52.26423" lon="21.02079">
        <ele>82.250787</ele>
        <time>2020-10-08T04:46:07.097Z</time>
      </trkpt>
      <trkpt lat="52.26421" lon="21.02074">
        <ele>82.253319</ele>
        <time>2020-10-08T04:46:08.184Z</time>
      </trkpt>
      <trkpt lat="52.26406" lon="21.02054">
        <ele>82.265363</ele>
        <time>2020-10-08T04:46:12.660Z</time>
      </trkpt>
      <trkpt lat="52.26377" lon="21.02026">
        <ele>82.286773</ele>
        <time>2020-10-08T04:46:20.371Z</time>
      </trkpt>
      <trkpt lat="52.26373" lon="21.02027">
        <ele>82.289583</ele>
        <time>2020-10-08T04:46:21.358Z</time>
      </trkpt>
      <trkpt lat="52.26369" lon="21.02029">
        <ele>82.292083</ele>
        <time>2020-10-08T04:46:22.294Z</time>
      </trkpt>
      <trkpt lat="52.26355" lon="21.02035">
        <ele>82.301484</ele>
        <time>2020-10-08T04:46:25.687Z</time>
      </trkpt>
      <trkpt lat="52.26351" lon="21.02037">
        <ele>82.304056</ele>
        <time>2020-10-08T04:46:26.614Z</time>
      </trkpt>
      <trkpt lat="52.26337" lon="21.02044">
        <ele>82.313486</ele>
        <time>2020-10-08T04:46:29.957Z</time>
      </trkpt>
      <trkpt lat="52.26333" lon="21.02046">
        <ele>82.316129</ele>
        <time>2020-10-08T04:46:30.946Z</time>
      </trkpt>
      <trkpt lat="52.26328" lon="21.02048">
        <ele>82.319017</ele>
        <time>2020-10-08T04:46:31.987Z</time>
      </trkpt>
      <trkpt lat="52.26327" lon="21.02042">
        <ele>82.321213</ele>
        <time>2020-10-08T04:46:32.999Z</time>
      </trkpt>
      <trkpt lat="52.26318" lon="21.01988">
        <ele>82.348813</ele>
        <time>2020-10-08T04:46:42.948Z</time>
      </trkpt>
      <trkpt lat="52.26289" lon="21.01802">
        <ele>82.471467</ele>
        <time>2020-10-08T04:47:17.266Z</time>
      </trkpt>
      <trkpt lat="52.26272" lon="21.01754">
        <ele>82.506355</ele>
        <time>2020-10-08T04:47:27.845Z</time>
      </trkpt>
      <trkpt lat="52.26257" lon="21.01738">
        <ele>82.52689</ele>
        <time>2020-10-08T04:47:33.424Z</time>
      </trkpt>
      <trkpt lat="52.26247" lon="21.01729">
        <ele>82.549041</ele>
        <time>2020-10-08T04:47:37.168Z</time>
      </trkpt>
      <trkpt lat="52.26237" lon="21.01722">
        <ele>82.570807</ele>
        <time>2020-10-08T04:47:39.738Z</time>
      </trkpt>
      <trkpt lat="52.26232" lon="21.01717">
        <ele>82.58227</ele>
        <time>2020-10-08T04:47:40.957Z</time>
      </trkpt>
      <trkpt lat="52.26229" lon="21.01711">
        <ele>82.591317</ele>
        <time>2020-10-08T04:47:42.095Z</time>
      </trkpt>
      <trkpt lat="52.26222" lon="21.01697">
        <ele>82.612774</ele>
        <time>2020-10-08T04:47:45.035Z</time>
      </trkpt>
      <trkpt lat="52.26215" lon="21.01679">
        <ele>82.638093</ele>
        <time>2020-10-08T04:47:47.944Z</time>
      </trkpt>
      <trkpt lat="52.26179" lon="21.01558">
        <ele>82.799611</ele>
        <time>2020-10-08T04:48:06.600Z</time>
      </trkpt>
      <trkpt lat="52.26177" lon="21.01551">
        <ele>82.808587</ele>
        <time>2020-10-08T04:48:07.819Z</time>
      </trkpt>
      <trkpt lat="52.26162" lon="21.01543">
        <ele>82.840369</ele>
        <time>2020-10-08T04:48:11.644Z</time>
      </trkpt>
      <trkpt lat="52.26157" lon="21.01547">
        <ele>82.851962</ele>
        <time>2020-10-08T04:48:12.957Z</time>
      </trkpt>
      <trkpt lat="52.26153" lon="21.0155">
        <ele>82.859918</ele>
        <time>2020-10-08T04:48:13.748Z</time>
      </trkpt>
      <trkpt lat="52.26147" lon="21.01548">
        <ele>82.871126</ele>
        <time>2020-10-08T04:48:15.068Z</time>
      </trkpt>
      <trkpt lat="52.26118" lon="21.01574">
        <ele>82.750979</ele>
        <time>2020-10-08T04:48:22.830Z</time>
      </trkpt>
      <trkpt lat="52.2611" lon="21.01578">
        <ele>82.71616</ele>
        <time>2020-10-08T04:48:24.981Z</time>
      </trkpt>
      <trkpt lat="52.26101" lon="21.01585">
        <ele>82.679308</ele>
        <time>2020-10-08T04:48:27.113Z</time>
      </trkpt>
      <trkpt lat="52.26037" lon="21.01644">
        <ele>82.396368</ele>
        <time>2020-10-08T04:48:42.565Z</time>
      </trkpt>
      <trkpt lat="52.25996" lon="21.01681">
        <ele>82.21939</ele>
        <time>2020-10-08T04:48:51.549Z</time>
      </trkpt>
      <trkpt lat="52.25954" lon="21.01719">
        <ele>82.242394</ele>
        <time>2020-10-08T04:49:01.319Z</time>
      </trkpt>
      <trkpt lat="52.25917" lon="21.01752">
        <ele>82.303048</ele>
        <time>2020-10-08T04:49:10.118Z</time>
      </trkpt>
      <trkpt lat="52.25888" lon="21.01779">
        <ele>82.352532</ele>
        <time>2020-10-08T04:49:18.015Z</time>
      </trkpt>
      <trkpt lat="52.25856" lon="21.01808">
        <ele>82.405668</ele>
        <time>2020-10-08T04:49:27.661Z</time>
      </trkpt>
      <trkpt lat="52.25835" lon="21.01826">
        <ele>82.439307</ele>
        <time>2020-10-08T04:49:33.932Z</time>
      </trkpt>
      <trkpt lat="52.25775" lon="21.01881">
        <ele>82.991672</ele>
        <time>2020-10-08T04:49:51.378Z</time>
      </trkpt>
      <trkpt lat="52.25735" lon="21.01916">
        <ele>83.369421</ele>
        <time>2020-10-08T04:50:02.054Z</time>
      </trkpt>
      <trkpt lat="52.25691" lon="21.01957">
        <ele>83.799379</ele>
        <time>2020-10-08T04:50:15.529Z</time>
      </trkpt>
      <trkpt lat="52.25646" lon="21.01998">
        <ele>84.191534</ele>
        <time>2020-10-08T04:50:29.477Z</time>
      </trkpt>
      <trkpt lat="52.25613" lon="21.02028">
        <ele>84.46551</ele>
        <time>2020-10-08T04:50:40.305Z</time>
      </trkpt>
      <trkpt lat="52.25586" lon="21.02053">
        <ele>84.684605</ele>
        <time>2020-10-08T04:50:48.032Z</time>
      </trkpt>
      <trkpt lat="52.25553" lon="21.02082">
        <ele>84.947939</ele>
        <time>2020-10-08T04:50:56.481Z</time>
      </trkpt>
      <trkpt lat="52.25527" lon="21.02106">
        <ele>85.161417</ele>
        <time>2020-10-08T04:51:03.084Z</time>
      </trkpt>
      <trkpt lat="52.25506" lon="21.02125">
        <ele>85.27685</ele>
        <time>2020-10-08T04:51:08.844Z</time>
      </trkpt>
      <trkpt lat="52.25486" lon="21.02143">
        <ele>85.329644</ele>
        <time>2020-10-08T04:51:14.081Z</time>
      </trkpt>
      <trkpt lat="52.2544" lon="21.02186">
        <ele>85.454517</ele>
        <time>2020-10-08T04:51:27.733Z</time>
      </trkpt>
      <trkpt lat="52.2538" lon="21.0224">
        <ele>85.615086</ele>
        <time>2020-10-08T04:51:43.529Z</time>
      </trkpt>
      <trkpt lat="52.25373" lon="21.02246">
        <ele>85.631911</ele>
        <time>2020-10-08T04:51:45.105Z</time>
      </trkpt>
      <trkpt lat="52.25366" lon="21.02253">
        <ele>85.651361</ele>
        <time>2020-10-08T04:51:46.910Z</time>
      </trkpt>
      <trkpt lat="52.2536" lon="21.02259">
        <ele>85.668386</ele>
        <time>2020-10-08T04:51:49.474Z</time>
      </trkpt>
      <trkpt lat="52.25353" lon="21.02263">
        <ele>85.64542</ele>
        <time>2020-10-08T04:51:52.305Z</time>
      </trkpt>
      <trkpt lat="52.25216" lon="21.02391">
        <ele>85.116642</ele>
        <time>2020-10-08T04:52:48.810Z</time>
      </trkpt>
      <trkpt lat="52.25181" lon="21.02422">
        <ele>84.838773</ele>
        <time>2020-10-08T04:53:02.771Z</time>
      </trkpt>
      <trkpt lat="52.25121" lon="21.02471">
        <ele>84.224148</ele>
        <time>2020-10-08T04:53:26.117Z</time>
      </trkpt>
      <trkpt lat="52.25114" lon="21.02476">
        <ele>84.154175</ele>
        <time>2020-10-08T04:53:28.739Z</time>
      </trkpt>
      <trkpt lat="52.2511" lon="21.02478">
        <ele>84.117998</ele>
        <time>2020-10-08T04:53:30.119Z</time>
      </trkpt>
      <trkpt lat="52.251" lon="21.02483">
        <ele>84.019308</ele>
        <time>2020-10-08T04:53:33.705Z</time>
      </trkpt>
      <trkpt lat="52.25092" lon="21.02487">
        <ele>83.942916</ele>
        <time>2020-10-08T04:53:36.663Z</time>
      </trkpt>
      <trkpt lat="52.25086" lon="21.02483">
        <ele>83.883325</ele>
        <time>2020-10-08T04:53:38.777Z</time>
      </trkpt>
      <trkpt lat="52.25075" lon="21.02474">
        <ele>83.771109</ele>
        <time>2020-10-08T04:53:42.942Z</time>
      </trkpt>
      <trkpt lat="52.2507" lon="21.02479">
        <ele>83.712341</ele>
        <time>2020-10-08T04:53:44.931Z</time>
      </trkpt>
      <trkpt lat="52.25045" lon="21.02507">
        <ele>83.431736</ele>
        <time>2020-10-08T04:53:55.035Z</time>
      </trkpt>
      <trkpt lat="52.25031" lon="21.02522">
        <ele>83.215058</ele>
        <time>2020-10-08T04:54:00.370Z</time>
      </trkpt>
      <trkpt lat="52.25005" lon="21.02556">
        <ele>82.769898</ele>
        <time>2020-10-08T04:54:10.950Z</time>
      </trkpt>
      <trkpt lat="52.24961" lon="21.026">
        <ele>82.070345</ele>
        <time>2020-10-08T04:54:27.647Z</time>
      </trkpt>
      <trkpt lat="52.24909" lon="21.0266">
        <ele>81.211754</ele>
        <time>2020-10-08T04:54:49.143Z</time>
      </trkpt>
      <trkpt lat="52.24897" lon="21.02677">
        <ele>80.999249</ele>
        <time>2020-10-08T04:54:54.600Z</time>
      </trkpt>
      <trkpt lat="52.2488" lon="21.02704">
        <ele>80.880603</ele>
        <time>2020-10-08T04:55:02.561Z</time>
      </trkpt>
      <trkpt lat="52.24866" lon="21.02734">
        <ele>80.767615</ele>
        <time>2020-10-08T04:55:10.435Z</time>
      </trkpt>
      <trkpt lat="52.24863" lon="21.02731">
        <ele>80.751266</ele>
        <time>2020-10-08T04:55:12.802Z</time>
      </trkpt>
      <trkpt lat="52.2486" lon="21.02728">
        <ele>80.732506</ele>
        <time>2020-10-08T04:55:15.473Z</time>
      </trkpt>
      <trkpt lat="52.24857" lon="21.02725">
        <ele>80.71781</ele>
        <time>2020-10-08T04:55:17.605Z</time>
      </trkpt>
      <trkpt lat="52.24855" lon="21.02722">
        <ele>80.704248</ele>
        <time>2020-10-08T04:55:18.370Z</time>
      </trkpt>
      <trkpt lat="52.24848" lon="21.02731">
        <ele>80.662002</ele>
        <time>2020-10-08T04:55:20.119Z</time>
      </trkpt>
      <trkpt lat="52.24832" lon="21.02754">
        <ele>80.556465</ele>
        <time>2020-10-08T04:55:24.475Z</time>
      </trkpt>
      <trkpt lat="52.24826" lon="21.02768">
        <ele>80.506746</ele>
        <time>2020-10-08T04:55:26.718Z</time>
      </trkpt>
      <trkpt lat="52.24812" lon="21.02829">
        <ele>80.31421</ele>
        <time>2020-10-08T04:55:35.655Z</time>
      </trkpt>
      <trkpt lat="52.24807" lon="21.02856">
        <ele>80.230318</ele>
        <time>2020-10-08T04:55:39.641Z</time>
      </trkpt>
      <trkpt lat="52.24802" lon="21.02887">
        <ele>80.135161</ele>
        <time>2020-10-08T04:55:44.569Z</time>
      </trkpt>
      <trkpt lat="52.24794" lon="21.02913">
        <ele>80.139488</ele>
        <time>2020-10-08T04:55:48.847Z</time>
      </trkpt>
      <trkpt lat="52.24775" lon="21.02977">
        <ele>80.198437</ele>
        <time>2020-10-08T04:55:59.570Z</time>
      </trkpt>
      <trkpt lat="52.24772" lon="21.02985">
        <ele>80.206208</ele>
        <time>2020-10-08T04:56:00.924Z</time>
      </trkpt>
      <trkpt lat="52.2477" lon="21.02988">
        <ele>80.209107</ele>
        <time>2020-10-08T04:56:01.575Z</time>
      </trkpt>
      <trkpt lat="52.24729" lon="21.03059">
        <ele>80.290794</ele>
        <time>2020-10-08T04:56:15.611Z</time>
      </trkpt>
      <trkpt lat="52.24703" lon="21.03101">
        <ele>80.339583</ele>
        <time>2020-10-08T04:56:24.038Z</time>
      </trkpt>
      <trkpt lat="52.24687" lon="21.03124">
        <ele>80.365709</ele>
        <time>2020-10-08T04:56:29.251Z</time>
      </trkpt>
      <trkpt lat="52.24532" lon="21.03379">
        <ele>80.548096</ele>
        <time>2020-10-08T04:57:20.756Z</time>
      </trkpt>
      <trkpt lat="52.24464" lon="21.03493">
        <ele>80.689753</ele>
        <time>2020-10-08T04:57:43.756Z</time>
      </trkpt>
      <trkpt lat="52.24452" lon="21.03516">
        <ele>80.717051</ele>
        <time>2020-10-08T04:57:48.220Z</time>
      </trkpt>
      <trkpt lat="52.24444" lon="21.03535">
        <ele>80.737625</ele>
        <time>2020-10-08T04:57:51.791Z</time>
      </trkpt>
      <trkpt lat="52.24402" lon="21.03692">
        <ele>81.246754</ele>
        <time>2020-10-08T04:58:17.946Z</time>
      </trkpt>
      <trkpt lat="52.244" lon="21.03694">
        <ele>81.258149</ele>
        <time>2020-10-08T04:58:18.587Z</time>
      </trkpt>
      <trkpt lat="52.24399" lon="21.03698">
        <ele>81.27084</ele>
        <time>2020-10-08T04:58:19.193Z</time>
      </trkpt>
      <trkpt lat="52.24398" lon="21.03714">
        <ele>81.321441</ele>
        <time>2020-10-08T04:58:21.527Z</time>
      </trkpt>
      <trkpt lat="52.24398" lon="21.0372">
        <ele>81.338679</ele>
        <time>2020-10-08T04:58:22.327Z</time>
      </trkpt>
      <trkpt lat="52.24395" lon="21.03729">
        <ele>81.370841</ele>
        <time>2020-10-08T04:58:23.913Z</time>
      </trkpt>
      <trkpt lat="52.24373" lon="21.03781">
        <ele>81.565782</ele>
        <time>2020-10-08T04:58:33.688Z</time>
      </trkpt>
      <trkpt lat="52.24369" lon="21.03786">
        <ele>81.588616</ele>
        <time>2020-10-08T04:58:34.917Z</time>
      </trkpt>
      <trkpt lat="52.24366" lon="21.0379">
        <ele>81.607561</ele>
        <time>2020-10-08T04:58:35.804Z</time>
      </trkpt>
      <trkpt lat="52.24362" lon="21.03786">
        <ele>81.631773</ele>
        <time>2020-10-08T04:58:37.018Z</time>
      </trkpt>
      <trkpt lat="52.24354" lon="21.03794">
        <ele>81.698502</ele>
        <time>2020-10-08T04:58:39.244Z</time>
      </trkpt>
      <trkpt lat="52.24342" lon="21.03804">
        <ele>81.813649</ele>
        <time>2020-10-08T04:58:42.651Z</time>
      </trkpt>
      <trkpt lat="52.24335" lon="21.0381">
        <ele>81.883546</ele>
        <time>2020-10-08T04:58:44.788Z</time>
      </trkpt>
      <trkpt lat="52.24339" lon="21.03822">
        <ele>81.95139</ele>
        <time>2020-10-08T04:58:46.771Z</time>
      </trkpt>
      <trkpt lat="52.24336" lon="21.03832">
        <ele>82.005985</ele>
        <time>2020-10-08T04:58:48.319Z</time>
      </trkpt>
      <trkpt lat="52.24333" lon="21.03835">
        <ele>82.041228</ele>
        <time>2020-10-08T04:58:49.499Z</time>
      </trkpt>
      <trkpt lat="52.24329" lon="21.03836">
        <ele>82.073524</ele>
        <time>2020-10-08T04:58:50.526Z</time>
      </trkpt>
      <trkpt lat="52.24315" lon="21.03847">
        <ele>82.212162</ele>
        <time>2020-10-08T04:58:54.789Z</time>
      </trkpt>
      <trkpt lat="52.2428" lon="21.03862">
        <ele>82.521107</ele>
        <time>2020-10-08T04:59:04.164Z</time>
      </trkpt>
      <trkpt lat="52.24267" lon="21.03865">
        <ele>82.630237</ele>
        <time>2020-10-08T04:59:07.289Z</time>
      </trkpt>
      <trkpt lat="52.24266" lon="21.03866">
        <ele>82.638579</ele>
        <time>2020-10-08T04:59:07.536Z</time>
      </trkpt>
      <trkpt lat="52.24266" lon="21.03866">
        <ele>82.643153</ele>
        <time>2020-10-08T04:59:07.801Z</time>
      </trkpt>
      <trkpt lat="52.24225" lon="21.03879">
        <ele>83.000642</ele>
        <time>2020-10-08T04:59:18.514Z</time>
      </trkpt>
      <trkpt lat="52.24199" lon="21.03893">
        <ele>83.220772</ele>
        <time>2020-10-08T04:59:25.282Z</time>
      </trkpt>
      <trkpt lat="52.24189" lon="21.03901">
        <ele>83.285968</ele>
        <time>2020-10-08T04:59:28.515Z</time>
      </trkpt>
      <trkpt lat="52.24146" lon="21.03951">
        <ele>83.581988</ele>
        <time>2020-10-08T04:59:42.152Z</time>
      </trkpt>
      <trkpt lat="52.24095" lon="21.04025">
        <ele>83.964626</ele>
        <time>2020-10-08T04:59:58.983Z</time>
      </trkpt>
      <trkpt lat="52.24071" lon="21.04035">
        <ele>84.101773</ele>
        <time>2020-10-08T05:00:04.774Z</time>
      </trkpt>
      <trkpt lat="52.24045" lon="21.04075">
        <ele>84.198177</ele>
        <time>2020-10-08T05:00:12.491Z</time>
      </trkpt>
      <trkpt lat="52.24027" lon="21.0409">
        <ele>84.188484</ele>
        <time>2020-10-08T05:00:17.250Z</time>
      </trkpt>
      <trkpt lat="52.24024" lon="21.04093">
        <ele>84.186838</ele>
        <time>2020-10-08T05:00:18.007Z</time>
      </trkpt>
      <trkpt lat="52.24017" lon="21.04099">
        <ele>84.183342</ele>
        <time>2020-10-08T05:00:19.463Z</time>
      </trkpt>
      <trkpt lat="52.2398" lon="21.04126">
        <ele>84.16426</ele>
        <time>2020-10-08T05:00:28.516Z</time>
      </trkpt>
      <trkpt lat="52.23947" lon="21.04171">
        <ele>84.143892</ele>
        <time>2020-10-08T05:00:38.237Z</time>
      </trkpt>
      <trkpt lat="52.23926" lon="21.04191">
        <ele>84.132838</ele>
        <time>2020-10-08T05:00:43.183Z</time>
      </trkpt>
      <trkpt lat="52.23869" lon="21.04245">
        <ele>84.092723</ele>
        <time>2020-10-08T05:00:57.443Z</time>
      </trkpt>
      <trkpt lat="52.23821" lon="21.04291">
        <ele>84.054916</ele>
        <time>2020-10-08T05:01:10.022Z</time>
      </trkpt>
      <trkpt lat="52.23817" lon="21.04294">
        <ele>84.051626</ele>
        <time>2020-10-08T05:01:11.115Z</time>
      </trkpt>
      <trkpt lat="52.23783" lon="21.04327">
        <ele>84.024944</ele>
        <time>2020-10-08T05:01:19.945Z</time>
      </trkpt>
      <trkpt lat="52.23781" lon="21.04328">
        <ele>84.023621</ele>
        <time>2020-10-08T05:01:20.382Z</time>
      </trkpt>
      <trkpt lat="52.23771" lon="21.04338">
        <ele>84.015406</ele>
        <time>2020-10-08T05:01:23.055Z</time>
      </trkpt>
      <trkpt lat="52.23738" lon="21.04369">
        <ele>83.938933</ele>
        <time>2020-10-08T05:01:31.265Z</time>
      </trkpt>
      <trkpt lat="52.23721" lon="21.04384">
        <ele>83.86071</ele>
        <time>2020-10-08T05:01:35.311Z</time>
      </trkpt>
      <trkpt lat="52.23719" lon="21.04387">
        <ele>83.847331</ele>
        <time>2020-10-08T05:01:35.941Z</time>
      </trkpt>
      <trkpt lat="52.23676" lon="21.04428">
        <ele>83.6416</ele>
        <time>2020-10-08T05:01:46.132Z</time>
      </trkpt>
      <trkpt lat="52.23652" lon="21.04453">
        <ele>83.524399</ele>
        <time>2020-10-08T05:01:51.961Z</time>
      </trkpt>
      <trkpt lat="52.23636" lon="21.04468">
        <ele>83.448141</ele>
        <time>2020-10-08T05:01:55.822Z</time>
      </trkpt>
      <trkpt lat="52.23627" lon="21.04477">
        <ele>83.40216</ele>
        <time>2020-10-08T05:01:58.185Z</time>
      </trkpt>
      <trkpt lat="52.2361" lon="21.04493">
        <ele>83.322766</ele>
        <time>2020-10-08T05:02:04.897Z</time>
      </trkpt>
      <trkpt lat="52.23595" lon="21.04508">
        <ele>83.245865</ele>
        <time>2020-10-08T05:02:11.331Z</time>
      </trkpt>
      <trkpt lat="52.23575" lon="21.04527">
        <ele>83.118436</ele>
        <time>2020-10-08T05:02:19.252Z</time>
      </trkpt>
      <trkpt lat="52.23557" lon="21.0455">
        <ele>82.989728</ele>
        <time>2020-10-08T05:02:27.310Z</time>
      </trkpt>
      <trkpt lat="52.23515" lon="21.04608">
        <ele>82.685932</ele>
        <time>2020-10-08T05:02:46.221Z</time>
      </trkpt>
      <trkpt lat="52.23506" lon="21.04618">
        <ele>82.626044</ele>
        <time>2020-10-08T05:02:50.051Z</time>
      </trkpt>
      <trkpt lat="52.23481" lon="21.04644">
        <ele>82.459354</ele>
        <time>2020-10-08T05:03:00.580Z</time>
      </trkpt>
      <trkpt lat="52.23325" lon="21.04772">
        <ele>81.918503</ele>
        <time>2020-10-08T05:04:02.809Z</time>
      </trkpt>
      <trkpt lat="52.23081" lon="21.04983">
        <ele>82.462655</ele>
        <time>2020-10-08T05:05:47.226Z</time>
      </trkpt>
      <trkpt lat="52.23065" lon="21.05005">
        <ele>82.593778</ele>
        <time>2020-10-08T05:05:55.903Z</time>
      </trkpt>
      <trkpt lat="52.23032" lon="21.05034">
        <ele>82.826473</ele>
        <time>2020-10-08T05:06:11.161Z</time>
      </trkpt>
      <trkpt lat="52.23029" lon="21.05037">
        <ele>82.849706</ele>
        <time>2020-10-08T05:06:12.637Z</time>
      </trkpt>
      <trkpt lat="52.23032" lon="21.05045">
        <ele>82.886628</ele>
        <time>2020-10-08T05:06:14.189Z</time>
      </trkpt>
      <trkpt lat="52.23038" lon="21.05064">
        <ele>82.96863</ele>
        <time>2020-10-08T05:06:17.703Z</time>
      </trkpt>
      <trkpt lat="52.23042" lon="21.05075">
        <ele>83.015318</ele>
        <time>2020-10-08T05:06:19.798Z</time>
      </trkpt>
      <trkpt lat="52.23042" lon="21.05078">
        <ele>83.02686</ele>
        <time>2020-10-08T05:06:20.241Z</time>
      </trkpt>
      <trkpt lat="52.23042" lon="21.05082">
        <ele>83.042916</ele>
        <time>2020-10-08T05:06:20.933Z</time>
      </trkpt>
      <trkpt lat="52.23041" lon="21.05085">
        <ele>83.05526</ele>
        <time>2020-10-08T05:06:21.509Z</time>
      </trkpt>
      <trkpt lat="52.23036" lon="21.05091">
        <ele>83.095178</ele>
        <time>2020-10-08T05:06:23.042Z</time>
      </trkpt>
      <trkpt lat="52.23027" lon="21.05099">
        <ele>83.153818</ele>
        <time>2020-10-08T05:06:25.392Z</time>
      </trkpt>
      <trkpt lat="52.23019" lon="21.05106">
        <ele>83.214442</ele>
        <time>2020-10-08T05:06:27.951Z</time>
      </trkpt>
      <trkpt lat="52.23014" lon="21.05105">
        <ele>83.240201</ele>
        <time>2020-10-08T05:06:29.409Z</time>
      </trkpt>
      <trkpt lat="52.22965" lon="21.05146">
        <ele>83.65969</ele>
        <time>2020-10-08T05:06:47.161Z</time>
      </trkpt>
      <trkpt lat="52.22912" lon="21.05191">
        <ele>84.108939</ele>
        <time>2020-10-08T05:07:06.495Z</time>
      </trkpt>
      <trkpt lat="52.22895" lon="21.05204">
        <ele>84.25392</ele>
        <time>2020-10-08T05:07:12.836Z</time>
      </trkpt>
      <trkpt lat="52.22889" lon="21.05206">
        <ele>84.294655</ele>
        <time>2020-10-08T05:07:14.589Z</time>
      </trkpt>
      <trkpt lat="52.2282" lon="21.05275">
        <ele>84.820489</ele>
        <time>2020-10-08T05:07:40.496Z</time>
      </trkpt>
      <trkpt lat="52.22789" lon="21.05316">
        <ele>85.040263</ele>
        <time>2020-10-08T05:07:53.826Z</time>
      </trkpt>
      <trkpt lat="52.22785" lon="21.05325">
        <ele>85.073572</ele>
        <time>2020-10-08T05:07:55.919Z</time>
      </trkpt>
      <trkpt lat="52.22783" lon="21.05333">
        <ele>85.103652</ele>
        <time>2020-10-08T05:07:57.964Z</time>
      </trkpt>
      <trkpt lat="52.22771" lon="21.05407">
        <ele>85.357202</ele>
        <time>2020-10-08T05:08:12.478Z</time>
      </trkpt>
      <trkpt lat="52.22755" lon="21.05508">
        <ele>85.499538</ele>
        <time>2020-10-08T05:08:31.601Z</time>
      </trkpt>
      <trkpt lat="52.22748" lon="21.05546">
        <ele>85.411462</ele>
        <time>2020-10-08T05:08:38.548Z</time>
      </trkpt>
      <trkpt lat="52.22732" lon="21.05646">
        <ele>85.185698</ele>
        <time>2020-10-08T05:08:56.411Z</time>
      </trkpt>
      <trkpt lat="52.2273" lon="21.05658">
        <ele>85.158846</ele>
        <time>2020-10-08T05:08:58.535Z</time>
      </trkpt>
      <trkpt lat="52.22731" lon="21.05693">
        <ele>85.080587</ele>
        <time>2020-10-08T05:09:03.135Z</time>
      </trkpt>
      <trkpt lat="52.22725" lon="21.05716">
        <ele>85.026241</ele>
        <time>2020-10-08T05:09:06.382Z</time>
      </trkpt>
      <trkpt lat="52.22695" lon="21.0574">
        <ele>84.88964</ele>
        <time>2020-10-08T05:09:13.221Z</time>
      </trkpt>
      <trkpt lat="52.22696" lon="21.05745">
        <ele>84.868923</ele>
        <time>2020-10-08T05:09:13.938Z</time>
      </trkpt>
      <trkpt lat="52.22698" lon="21.05754">
        <ele>84.837451</ele>
        <time>2020-10-08T05:09:15.768Z</time>
      </trkpt>
      <trkpt lat="52.22675" lon="21.05769">
        <ele>84.693099</ele>
        <time>2020-10-08T05:09:20.670Z</time>
      </trkpt>
      <trkpt lat="52.22639" lon="21.05793">
        <ele>84.473263</ele>
        <time>2020-10-08T05:09:28.371Z</time>
      </trkpt>
      <trkpt lat="52.2259" lon="21.05845">
        <ele>84.137153</ele>
        <time>2020-10-08T05:09:40.712Z</time>
      </trkpt>
      <trkpt lat="52.22571" lon="21.05874">
        <ele>83.989267</ele>
        <time>2020-10-08T05:09:46.049Z</time>
      </trkpt>
      <trkpt lat="52.22562" lon="21.05902">
        <ele>83.883679</ele>
        <time>2020-10-08T05:09:50.104Z</time>
      </trkpt>
      <trkpt lat="52.22559" lon="21.05923">
        <ele>83.818978</ele>
        <time>2020-10-08T05:09:52.749Z</time>
      </trkpt>
      <trkpt lat="52.22557" lon="21.05938">
        <ele>83.771968</ele>
        <time>2020-10-08T05:09:54.731Z</time>
      </trkpt>
      <trkpt lat="52.22557" lon="21.05951">
        <ele>83.734111</ele>
        <time>2020-10-08T05:09:56.377Z</time>
      </trkpt>
      <trkpt lat="52.22557" lon="21.05968">
        <ele>83.681293</ele>
        <time>2020-10-08T05:09:58.603Z</time>
      </trkpt>
      <trkpt lat="52.2253" lon="21.05974">
        <ele>83.54947</ele>
        <time>2020-10-08T05:10:04.202Z</time>
      </trkpt>
      <trkpt lat="52.22471" lon="21.05983">
        <ele>83.25918</ele>
        <time>2020-10-08T05:10:16.234Z</time>
      </trkpt>
      <trkpt lat="52.2243" lon="21.05986">
        <ele>83.056636</ele>
        <time>2020-10-08T05:10:24.730Z</time>
      </trkpt>
      <trkpt lat="52.22423" lon="21.05987">
        <ele>83.025425</ele>
        <time>2020-10-08T05:10:26.208Z</time>
      </trkpt>
      <trkpt lat="52.22411" lon="21.05987">
        <ele>83.015067</ele>
        <time>2020-10-08T05:10:28.746Z</time>
      </trkpt>
      <trkpt lat="52.22404" lon="21.05987">
        <ele>83.009247</ele>
        <time>2020-10-08T05:10:30.151Z</time>
      </trkpt>
      <trkpt lat="52.22377" lon="21.05985">
        <ele>82.986013</ele>
        <time>2020-10-08T05:10:35.912Z</time>
      </trkpt>
      <trkpt lat="52.22371" lon="21.05984">
        <ele>82.981296</ele>
        <time>2020-10-08T05:10:37.095Z</time>
      </trkpt>
      <trkpt lat="52.22349" lon="21.05986">
        <ele>82.962192</ele>
        <time>2020-10-08T05:10:41.911Z</time>
      </trkpt>
      <trkpt lat="52.22346" lon="21.05985">
        <ele>82.959446</ele>
        <time>2020-10-08T05:10:42.601Z</time>
      </trkpt>
      <trkpt lat="52.22346" lon="21.05998">
        <ele>82.952941</ele>
        <time>2020-10-08T05:10:44.403Z</time>
      </trkpt>
      <trkpt lat="52.22346" lon="21.06005">
        <ele>82.948957</ele>
        <time>2020-10-08T05:10:45.478Z</time>
      </trkpt>
      <trkpt lat="52.22337" lon="21.06009">
        <ele>82.9403</ele>
        <time>2020-10-08T05:10:47.814Z</time>
      </trkpt>
      <trkpt lat="52.22296" lon="21.0612">
        <ele>82.872849</ele>
        <time>2020-10-08T05:11:06.669Z</time>
      </trkpt>
      <trkpt lat="52.22293" lon="21.06152">
        <ele>82.869045</ele>
        <time>2020-10-08T05:11:11.317Z</time>
      </trkpt>
      <trkpt lat="52.22289" lon="21.06176">
        <ele>82.866475</ele>
        <time>2020-10-08T05:11:14.812Z</time>
      </trkpt>
      <trkpt lat="52.22248" lon="21.06351">
        <ele>82.847239</ele>
        <time>2020-10-08T05:11:41.469Z</time>
      </trkpt>
      <trkpt lat="52.22246" lon="21.06365">
        <ele>82.845676</ele>
        <time>2020-10-08T05:11:43.545Z</time>
      </trkpt>
      <trkpt lat="52.22242" lon="21.06406">
        <ele>82.839271</ele>
        <time>2020-10-08T05:11:49.299Z</time>
      </trkpt>
      <trkpt lat="52.22227" lon="21.06469">
        <ele>82.8066</ele>
        <time>2020-10-08T05:11:58.608Z</time>
      </trkpt>
      <trkpt lat="52.22223" lon="21.06489">
        <ele>82.796263</ele>
        <time>2020-10-08T05:12:01.412Z</time>
      </trkpt>
      <trkpt lat="52.22219" lon="21.06497">
        <ele>82.791421</ele>
        <time>2020-10-08T05:12:02.796Z</time>
      </trkpt>
      <trkpt lat="52.22218" lon="21.06502">
        <ele>82.788642</ele>
        <time>2020-10-08T05:12:03.614Z</time>
      </trkpt>
      <trkpt lat="52.22216" lon="21.0651">
        <ele>82.784756</ele>
        <time>2020-10-08T05:12:04.770Z</time>
      </trkpt>
      <trkpt lat="52.22215" lon="21.06515">
        <ele>82.782072</ele>
        <time>2020-10-08T05:12:05.580Z</time>
      </trkpt>
      <trkpt lat="52.22216" lon="21.06523">
        <ele>82.778585</ele>
        <time>2020-10-08T05:12:06.610Z</time>
      </trkpt>
      <trkpt lat="52.22213" lon="21.06549">
        <ele>82.765831</ele>
        <time>2020-10-08T05:12:10.091Z</time>
      </trkpt>
      <trkpt lat="52.22192" lon="21.06734">
        <ele>82.709293</ele>
        <time>2020-10-08T05:12:36.969Z</time>
      </trkpt>
      <trkpt lat="52.22184" lon="21.06886">
        <ele>82.736412</ele>
        <time>2020-10-08T05:12:59.016Z</time>
      </trkpt>
      <trkpt lat="52.22183" lon="21.06958">
        <ele>82.749153</ele>
        <time>2020-10-08T05:13:09.351Z</time>
      </trkpt>
      <trkpt lat="52.22185" lon="21.06992">
        <ele>82.744433</ele>
        <time>2020-10-08T05:13:14.131Z</time>
      </trkpt>
      <trkpt lat="52.2218" lon="21.07067">
        <ele>82.711296</ele>
        <time>2020-10-08T05:13:24.942Z</time>
      </trkpt>
      <trkpt lat="52.2218" lon="21.07082">
        <ele>82.70475</ele>
        <time>2020-10-08T05:13:26.993Z</time>
      </trkpt>
      <trkpt lat="52.22179" lon="21.07097">
        <ele>82.698131</ele>
        <time>2020-10-08T05:13:29.117Z</time>
      </trkpt>
      <trkpt lat="52.22179" lon="21.07111">
        <ele>82.691902</ele>
        <time>2020-10-08T05:13:31.117Z</time>
      </trkpt>
      <trkpt lat="52.22179" lon="21.07135">
        <ele>82.681368</ele>
        <time>2020-10-08T05:13:34.558Z</time>
      </trkpt>
      <trkpt lat="52.22179" lon="21.07148">
        <ele>82.675752</ele>
        <time>2020-10-08T05:13:36.305Z</time>
      </trkpt>
      <trkpt lat="52.22179" lon="21.07161">
        <ele>82.669872</ele>
        <time>2020-10-08T05:13:38.189Z</time>
      </trkpt>
      <trkpt lat="52.22177" lon="21.07294">
        <ele>82.608279</ele>
        <time>2020-10-08T05:13:56.481Z</time>
      </trkpt>
      <trkpt lat="52.22167" lon="21.07856">
        <ele>82.320711</ele>
        <time>2020-10-08T05:15:15.336Z</time>
      </trkpt>
      <trkpt lat="52.22171" lon="21.07994">
        <ele>82.409552</ele>
        <time>2020-10-08T05:15:35.110Z</time>
      </trkpt>
      <trkpt lat="52.22161" lon="21.08076">
        <ele>82.46295</ele>
        <time>2020-10-08T05:15:47.444Z</time>
      </trkpt>
      <trkpt lat="52.2216" lon="21.08083">
        <ele>82.467587</ele>
        <time>2020-10-08T05:15:48.472Z</time>
      </trkpt>
      <trkpt lat="52.22156" lon="21.08108">
        <ele>82.484417</ele>
        <time>2020-10-08T05:15:52.349Z</time>
      </trkpt>
      <trkpt lat="52.22156" lon="21.08111">
        <ele>82.486739</ele>
        <time>2020-10-08T05:15:52.848Z</time>
      </trkpt>
      <trkpt lat="52.22156" lon="21.08116">
        <ele>82.489695</ele>
        <time>2020-10-08T05:15:53.542Z</time>
      </trkpt>
      <trkpt lat="52.22155" lon="21.08122">
        <ele>82.493498</ele>
        <time>2020-10-08T05:15:54.427Z</time>
      </trkpt>
      <trkpt lat="52.22155" lon="21.08128">
        <ele>82.497294</ele>
        <time>2020-10-08T05:15:55.351Z</time>
      </trkpt>
      <trkpt lat="52.22155" lon="21.08133">
        <ele>82.500457</ele>
        <time>2020-10-08T05:15:56.128Z</time>
      </trkpt>
      <trkpt lat="52.22154" lon="21.08138">
        <ele>82.504029</ele>
        <time>2020-10-08T05:15:56.935Z</time>
      </trkpt>
      <trkpt lat="52.22149" lon="21.08171">
        <ele>82.547684</ele>
        <time>2020-10-08T05:16:01.912Z</time>
      </trkpt>
      <trkpt lat="52.22144" lon="21.08197">
        <ele>82.587954</ele>
        <time>2020-10-08T05:16:06.085Z</time>
      </trkpt>
      <trkpt lat="52.22097" lon="21.08503">
        <ele>82.750303</ele>
        <time>2020-10-08T05:16:52.971Z</time>
      </trkpt>
      <trkpt lat="52.22092" lon="21.08568">
        <ele>82.584629</ele>
        <time>2020-10-08T05:17:01.695Z</time>
      </trkpt>
      <trkpt lat="52.22056" lon="21.08757">
        <ele>81.972084</ele>
        <time>2020-10-08T05:17:26.970Z</time>
      </trkpt>
      <trkpt lat="52.22056" lon="21.08762">
        <ele>81.945232</ele>
        <time>2020-10-08T05:17:27.564Z</time>
      </trkpt>
      <trkpt lat="52.22057" lon="21.08779">
        <ele>81.858748</ele>
        <time>2020-10-08T05:17:29.682Z</time>
      </trkpt>
      <trkpt lat="52.22031" lon="21.08888">
        <ele>81.267059</ele>
        <time>2020-10-08T05:17:44.442Z</time>
      </trkpt>
      <trkpt lat="52.22029" lon="21.08891">
        <ele>81.244853</ele>
        <time>2020-10-08T05:17:44.894Z</time>
      </trkpt>
      <trkpt lat="52.22028" lon="21.08893">
        <ele>81.226694</ele>
        <time>2020-10-08T05:17:45.395Z</time>
      </trkpt>
      <trkpt lat="52.22026" lon="21.08891">
        <ele>81.209912</ele>
        <time>2020-10-08T05:17:45.962Z</time>
      </trkpt>
      <trkpt lat="52.22023" lon="21.08885">
        <ele>81.170977</ele>
        <time>2020-10-08T05:17:47.311Z</time>
      </trkpt>
      <trkpt lat="52.22015" lon="21.0888">
        <ele>81.093955</ele>
        <time>2020-10-08T05:17:49.945Z</time>
      </trkpt>
      <trkpt lat="52.22001" lon="21.08872">
        <ele>80.977342</ele>
        <time>2020-10-08T05:17:53.512Z</time>
      </trkpt>
      <trkpt lat="52.21995" lon="21.08869">
        <ele>80.924501</ele>
        <time>2020-10-08T05:17:55.080Z</time>
      </trkpt>
      <trkpt lat="52.21991" lon="21.08884">
        <ele>80.838394</ele>
        <time>2020-10-08T05:17:58.009Z</time>
      </trkpt>
      <trkpt lat="52.21969" lon="21.08942">
        <ele>80.653987</ele>
        <time>2020-10-08T05:18:09.044Z</time>
      </trkpt>
      <trkpt lat="52.21945" lon="21.09053">
        <ele>80.484983</ele>
        <time>2020-10-08T05:18:29.418Z</time>
      </trkpt>
      <trkpt lat="52.21923" lon="21.09148">
        <ele>80.338008</ele>
        <time>2020-10-08T05:18:47.842Z</time>
      </trkpt>
      <trkpt lat="52.21917" lon="21.09174">
        <ele>80.298405</ele>
        <time>2020-10-08T05:18:53.007Z</time>
      </trkpt>
      <trkpt lat="52.21866" lon="21.0935">
        <ele>80.34745</ele>
        <time>2020-10-08T05:19:28.718Z</time>
      </trkpt>
      <trkpt lat="52.21837" lon="21.09433">
        <ele>80.3736</ele>
        <time>2020-10-08T05:19:45.930Z</time>
      </trkpt>
      <trkpt lat="52.2183" lon="21.09456">
        <ele>80.305212</ele>
        <time>2020-10-08T05:19:50.342Z</time>
      </trkpt>
      <trkpt lat="52.21778" lon="21.09526">
        <ele>79.908454</ele>
        <time>2020-10-08T05:20:08.942Z</time>
      </trkpt>
      <trkpt lat="52.21765" lon="21.09549">
        <ele>79.797329</ele>
        <time>2020-10-08T05:20:14.414Z</time>
      </trkpt>
      <trkpt lat="52.21762" lon="21.09563">
        <ele>79.745925</ele>
        <time>2020-10-08T05:20:16.510Z</time>
      </trkpt>
      <trkpt lat="52.21753" lon="21.09599">
        <ele>79.605008</ele>
        <time>2020-10-08T05:20:23.322Z</time>
      </trkpt>
      <trkpt lat="52.21751" lon="21.09604">
        <ele>79.582048</ele>
        <time>2020-10-08T05:20:24.356Z</time>
      </trkpt>
      <trkpt lat="52.21749" lon="21.09608">
        <ele>79.565261</ele>
        <time>2020-10-08T05:20:25.059Z</time>
      </trkpt>
      <trkpt lat="52.21746" lon="21.09611">
        <ele>79.544063</ele>
        <time>2020-10-08T05:20:25.650Z</time>
      </trkpt>
      <trkpt lat="52.21719" lon="21.09622">
        <ele>79.382442</ele>
        <time>2020-10-08T05:20:31.287Z</time>
      </trkpt>
      <trkpt lat="52.21713" lon="21.09621">
        <ele>79.346296</ele>
        <time>2020-10-08T05:20:32.355Z</time>
      </trkpt>
      <trkpt lat="52.21711" lon="21.0962">
        <ele>79.33381</ele>
        <time>2020-10-08T05:20:32.705Z</time>
      </trkpt>
      <trkpt lat="52.21682" lon="21.09591">
        <ele>79.32123</ele>
        <time>2020-10-08T05:20:39.467Z</time>
      </trkpt>
      <trkpt lat="52.21579" lon="21.09438">
        <ele>79.32123</ele>
        <time>2020-10-08T05:21:08.260Z</time>
      </trkpt>
    </trkseg>
  </trk>
</gpx>